<?xml version="1.0" encoding="UTF-8" standalone="no" ?>
<gpx xmlns="http://www.topografix.com/GPX/1/1" xmlns:xsi="http://www.w3.org/2001/XMLSchema-instance" xsi:schemaLocation="http://www.topografix.com/GPX/1/1 http://www.topografix.com/GPX/1/1/gpx.xsd" version="1.1" creator="VisuGPX - https://www.visugpx.com">
  <metadata>
    <name>Pic de Grabié de Besoul 6mars2021</name>
    <desc><![CDATA[Trace AlpineQuest 06/03/2021 9:09:01 AM]]></desc>
  </metadata>
  <trk>
    <name><![CDATA[Pic de Grabié de Besoul 6mars2021_1]]></name>
    <trkseg>
      <trkpt lat="42.77002" lon="1.54477">
        <ele>1159.99</ele>
        <time>2021-03-06T08:09:01Z</time>
      </trkpt>
      <trkpt lat="42.77005" lon="1.54469">
        <ele>1155.721</ele>
        <time>2021-03-06T08:09:03Z</time>
      </trkpt>
      <trkpt lat="42.77008" lon="1.54467">
        <ele>1156.977</ele>
        <time>2021-03-06T08:09:05Z</time>
      </trkpt>
      <trkpt lat="42.77012" lon="1.54464">
        <ele>1156.886</ele>
        <time>2021-03-06T08:09:07Z</time>
      </trkpt>
      <trkpt lat="42.77014" lon="1.54463">
        <ele>1156.495</ele>
        <time>2021-03-06T08:09:09Z</time>
      </trkpt>
      <trkpt lat="42.77014" lon="1.54462">
        <ele>1155.57</ele>
        <time>2021-03-06T08:09:11Z</time>
      </trkpt>
      <trkpt lat="42.77014" lon="1.54462">
        <ele>1155.045</ele>
        <time>2021-03-06T08:09:13Z</time>
      </trkpt>
      <trkpt lat="42.77014" lon="1.54462">
        <ele>1155.447</ele>
        <time>2021-03-06T08:09:15Z</time>
      </trkpt>
      <trkpt lat="42.77014" lon="1.54462">
        <ele>1154.583</ele>
        <time>2021-03-06T08:09:17Z</time>
      </trkpt>
      <trkpt lat="42.77015" lon="1.54462">
        <ele>1154.039</ele>
        <time>2021-03-06T08:09:19Z</time>
      </trkpt>
      <trkpt lat="42.77015" lon="1.54462">
        <ele>1154.05</ele>
        <time>2021-03-06T08:09:21Z</time>
      </trkpt>
      <trkpt lat="42.77015" lon="1.54462">
        <ele>1154.021</ele>
        <time>2021-03-06T08:09:23Z</time>
      </trkpt>
      <trkpt lat="42.77015" lon="1.54462">
        <ele>1154.014</ele>
        <time>2021-03-06T08:09:25Z</time>
      </trkpt>
      <trkpt lat="42.77015" lon="1.54462">
        <ele>1154.017</ele>
        <time>2021-03-06T08:09:27Z</time>
      </trkpt>
      <trkpt lat="42.77015" lon="1.54462">
        <ele>1154.018</ele>
        <time>2021-03-06T08:09:29Z</time>
      </trkpt>
      <trkpt lat="42.77015" lon="1.54462">
        <ele>1154.019</ele>
        <time>2021-03-06T08:09:31Z</time>
      </trkpt>
      <trkpt lat="42.77015" lon="1.54462">
        <ele>1154.011</ele>
        <time>2021-03-06T08:09:33Z</time>
      </trkpt>
      <trkpt lat="42.77015" lon="1.54462">
        <ele>1154.012</ele>
        <time>2021-03-06T08:09:35Z</time>
      </trkpt>
      <trkpt lat="42.77015" lon="1.54462">
        <ele>1154.005</ele>
        <time>2021-03-06T08:09:37Z</time>
      </trkpt>
      <trkpt lat="42.77015" lon="1.54462">
        <ele>1154.003</ele>
        <time>2021-03-06T08:09:39Z</time>
      </trkpt>
      <trkpt lat="42.77015" lon="1.54462">
        <ele>1153.996</ele>
        <time>2021-03-06T08:09:41Z</time>
      </trkpt>
      <trkpt lat="42.77015" lon="1.54462">
        <ele>1153.609</ele>
        <time>2021-03-06T08:09:43Z</time>
      </trkpt>
      <trkpt lat="42.77014" lon="1.54461">
        <ele>1152.322</ele>
        <time>2021-03-06T08:09:45Z</time>
      </trkpt>
      <trkpt lat="42.77014" lon="1.5446">
        <ele>1152.788</ele>
        <time>2021-03-06T08:09:47Z</time>
      </trkpt>
      <trkpt lat="42.77014" lon="1.5446">
        <ele>1152.878</ele>
        <time>2021-03-06T08:09:49Z</time>
      </trkpt>
      <trkpt lat="42.77014" lon="1.54459">
        <ele>1152.631</ele>
        <time>2021-03-06T08:09:51Z</time>
      </trkpt>
      <trkpt lat="42.77015" lon="1.54458">
        <ele>1152.082</ele>
        <time>2021-03-06T08:09:53Z</time>
      </trkpt>
      <trkpt lat="42.77015" lon="1.54458">
        <ele>1151.684</ele>
        <time>2021-03-06T08:09:55Z</time>
      </trkpt>
      <trkpt lat="42.77015" lon="1.54458">
        <ele>1151.637</ele>
        <time>2021-03-06T08:09:57Z</time>
      </trkpt>
      <trkpt lat="42.77015" lon="1.54458">
        <ele>1151.64</ele>
        <time>2021-03-06T08:09:59Z</time>
      </trkpt>
      <trkpt lat="42.77015" lon="1.54458">
        <ele>1151.638</ele>
        <time>2021-03-06T08:10:01Z</time>
      </trkpt>
      <trkpt lat="42.77015" lon="1.54458">
        <ele>1151.639</ele>
        <time>2021-03-06T08:10:03Z</time>
      </trkpt>
      <trkpt lat="42.77015" lon="1.54458">
        <ele>1151.635</ele>
        <time>2021-03-06T08:10:05Z</time>
      </trkpt>
      <trkpt lat="42.77015" lon="1.54458">
        <ele>1151.635</ele>
        <time>2021-03-06T08:10:07Z</time>
      </trkpt>
      <trkpt lat="42.77015" lon="1.54458">
        <ele>1151.549</ele>
        <time>2021-03-06T08:10:09Z</time>
      </trkpt>
      <trkpt lat="42.77016" lon="1.54456">
        <ele>1151.114</ele>
        <time>2021-03-06T08:10:11Z</time>
      </trkpt>
      <trkpt lat="42.77016" lon="1.54457">
        <ele>1150.915</ele>
        <time>2021-03-06T08:10:13Z</time>
      </trkpt>
      <trkpt lat="42.77015" lon="1.54457">
        <ele>1150.887</ele>
        <time>2021-03-06T08:10:15Z</time>
      </trkpt>
      <trkpt lat="42.77015" lon="1.54457">
        <ele>1150.983</ele>
        <time>2021-03-06T08:10:17Z</time>
      </trkpt>
      <trkpt lat="42.77015" lon="1.54457">
        <ele>1150.993</ele>
        <time>2021-03-06T08:10:19Z</time>
      </trkpt>
      <trkpt lat="42.77016" lon="1.54457">
        <ele>1150.861</ele>
        <time>2021-03-06T08:10:21Z</time>
      </trkpt>
      <trkpt lat="42.77016" lon="1.54457">
        <ele>1150.849</ele>
        <time>2021-03-06T08:10:23Z</time>
      </trkpt>
      <trkpt lat="42.77016" lon="1.54457">
        <ele>1150.847</ele>
        <time>2021-03-06T08:10:25Z</time>
      </trkpt>
      <trkpt lat="42.77016" lon="1.54457">
        <ele>1150.848</ele>
        <time>2021-03-06T08:10:27Z</time>
      </trkpt>
      <trkpt lat="42.77016" lon="1.54457">
        <ele>1150.385</ele>
        <time>2021-03-06T08:10:29Z</time>
      </trkpt>
      <trkpt lat="42.77018" lon="1.54457">
        <ele>1149.83</ele>
        <time>2021-03-06T08:10:31Z</time>
      </trkpt>
      <trkpt lat="42.77019" lon="1.54458">
        <ele>1149.083</ele>
        <time>2021-03-06T08:10:33Z</time>
      </trkpt>
      <trkpt lat="42.7702" lon="1.54459">
        <ele>1148.567</ele>
        <time>2021-03-06T08:10:35Z</time>
      </trkpt>
      <trkpt lat="42.77021" lon="1.54461">
        <ele>1148.467</ele>
        <time>2021-03-06T08:10:37Z</time>
      </trkpt>
      <trkpt lat="42.77022" lon="1.54462">
        <ele>1147.365</ele>
        <time>2021-03-06T08:10:39Z</time>
      </trkpt>
      <trkpt lat="42.77023" lon="1.54464">
        <ele>1146.492</ele>
        <time>2021-03-06T08:10:41Z</time>
      </trkpt>
      <trkpt lat="42.77024" lon="1.54466">
        <ele>1146.721</ele>
        <time>2021-03-06T08:10:43Z</time>
      </trkpt>
      <trkpt lat="42.77026" lon="1.54469">
        <ele>1147.469</ele>
        <time>2021-03-06T08:10:46Z</time>
      </trkpt>
      <trkpt lat="42.77028" lon="1.54471">
        <ele>1147.872</ele>
        <time>2021-03-06T08:10:48Z</time>
      </trkpt>
      <trkpt lat="42.7703" lon="1.54472">
        <ele>1147.04</ele>
        <time>2021-03-06T08:10:50Z</time>
      </trkpt>
      <trkpt lat="42.77031" lon="1.54474">
        <ele>1147.303</ele>
        <time>2021-03-06T08:10:52Z</time>
      </trkpt>
      <trkpt lat="42.77032" lon="1.54476">
        <ele>1147.443</ele>
        <time>2021-03-06T08:10:54Z</time>
      </trkpt>
      <trkpt lat="42.77034" lon="1.54478">
        <ele>1146.935</ele>
        <time>2021-03-06T08:10:56Z</time>
      </trkpt>
      <trkpt lat="42.77035" lon="1.54479">
        <ele>1147.014</ele>
        <time>2021-03-06T08:10:58Z</time>
      </trkpt>
      <trkpt lat="42.77037" lon="1.5448">
        <ele>1147.007</ele>
        <time>2021-03-06T08:11:00Z</time>
      </trkpt>
      <trkpt lat="42.77039" lon="1.54481">
        <ele>1148.426</ele>
        <time>2021-03-06T08:11:02Z</time>
      </trkpt>
      <trkpt lat="42.7704" lon="1.54481">
        <ele>1148.855</ele>
        <time>2021-03-06T08:11:04Z</time>
      </trkpt>
      <trkpt lat="42.77042" lon="1.54481">
        <ele>1149.027</ele>
        <time>2021-03-06T08:11:06Z</time>
      </trkpt>
      <trkpt lat="42.77044" lon="1.54481">
        <ele>1148.893</ele>
        <time>2021-03-06T08:11:08Z</time>
      </trkpt>
      <trkpt lat="42.77046" lon="1.54481">
        <ele>1149.788</ele>
        <time>2021-03-06T08:11:10Z</time>
      </trkpt>
      <trkpt lat="42.77047" lon="1.54481">
        <ele>1149.686</ele>
        <time>2021-03-06T08:11:12Z</time>
      </trkpt>
      <trkpt lat="42.77049" lon="1.54482">
        <ele>1151.051</ele>
        <time>2021-03-06T08:11:14Z</time>
      </trkpt>
      <trkpt lat="42.7705" lon="1.54482">
        <ele>1152.081</ele>
        <time>2021-03-06T08:11:16Z</time>
      </trkpt>
      <trkpt lat="42.77051" lon="1.54481">
        <ele>1151.591</ele>
        <time>2021-03-06T08:11:18Z</time>
      </trkpt>
      <trkpt lat="42.77052" lon="1.54481">
        <ele>1152.086</ele>
        <time>2021-03-06T08:11:20Z</time>
      </trkpt>
      <trkpt lat="42.77053" lon="1.54481">
        <ele>1152.034</ele>
        <time>2021-03-06T08:11:22Z</time>
      </trkpt>
      <trkpt lat="42.77054" lon="1.54481">
        <ele>1152.352</ele>
        <time>2021-03-06T08:11:24Z</time>
      </trkpt>
      <trkpt lat="42.77056" lon="1.54481">
        <ele>1152.555</ele>
        <time>2021-03-06T08:11:26Z</time>
      </trkpt>
      <trkpt lat="42.77057" lon="1.54481">
        <ele>1151.652</ele>
        <time>2021-03-06T08:11:28Z</time>
      </trkpt>
      <trkpt lat="42.77059" lon="1.54482">
        <ele>1151.254</ele>
        <time>2021-03-06T08:11:30Z</time>
      </trkpt>
      <trkpt lat="42.7706" lon="1.54482">
        <ele>1150.887</ele>
        <time>2021-03-06T08:11:32Z</time>
      </trkpt>
      <trkpt lat="42.77061" lon="1.54482">
        <ele>1149.972</ele>
        <time>2021-03-06T08:11:34Z</time>
      </trkpt>
      <trkpt lat="42.77062" lon="1.54483">
        <ele>1149.435</ele>
        <time>2021-03-06T08:11:36Z</time>
      </trkpt>
      <trkpt lat="42.77064" lon="1.54484">
        <ele>1149.02</ele>
        <time>2021-03-06T08:11:38Z</time>
      </trkpt>
      <trkpt lat="42.77065" lon="1.54485">
        <ele>1148.551</ele>
        <time>2021-03-06T08:11:40Z</time>
      </trkpt>
      <trkpt lat="42.77066" lon="1.54486">
        <ele>1148.905</ele>
        <time>2021-03-06T08:11:42Z</time>
      </trkpt>
      <trkpt lat="42.77067" lon="1.54488">
        <ele>1149.856</ele>
        <time>2021-03-06T08:11:44Z</time>
      </trkpt>
      <trkpt lat="42.77067" lon="1.54489">
        <ele>1150.503</ele>
        <time>2021-03-06T08:11:46Z</time>
      </trkpt>
      <trkpt lat="42.77068" lon="1.5449">
        <ele>1150.743</ele>
        <time>2021-03-06T08:11:48Z</time>
      </trkpt>
      <trkpt lat="42.77069" lon="1.54491">
        <ele>1151.439</ele>
        <time>2021-03-06T08:11:50Z</time>
      </trkpt>
      <trkpt lat="42.7707" lon="1.54492">
        <ele>1151.967</ele>
        <time>2021-03-06T08:11:52Z</time>
      </trkpt>
      <trkpt lat="42.77072" lon="1.54493">
        <ele>1152.074</ele>
        <time>2021-03-06T08:11:54Z</time>
      </trkpt>
      <trkpt lat="42.77073" lon="1.54494">
        <ele>1152.822</ele>
        <time>2021-03-06T08:11:56Z</time>
      </trkpt>
      <trkpt lat="42.77074" lon="1.54496">
        <ele>1152.518</ele>
        <time>2021-03-06T08:11:58Z</time>
      </trkpt>
      <trkpt lat="42.77075" lon="1.54498">
        <ele>1152.078</ele>
        <time>2021-03-06T08:12:00Z</time>
      </trkpt>
      <trkpt lat="42.77077" lon="1.54498">
        <ele>1152.895</ele>
        <time>2021-03-06T08:12:02Z</time>
      </trkpt>
      <trkpt lat="42.77078" lon="1.54498">
        <ele>1151.966</ele>
        <time>2021-03-06T08:12:04Z</time>
      </trkpt>
      <trkpt lat="42.77079" lon="1.54499">
        <ele>1151.915</ele>
        <time>2021-03-06T08:12:06Z</time>
      </trkpt>
      <trkpt lat="42.7708" lon="1.545">
        <ele>1151.863</ele>
        <time>2021-03-06T08:12:08Z</time>
      </trkpt>
      <trkpt lat="42.77081" lon="1.545">
        <ele>1152.522</ele>
        <time>2021-03-06T08:12:10Z</time>
      </trkpt>
      <trkpt lat="42.77082" lon="1.54499">
        <ele>1152.919</ele>
        <time>2021-03-06T08:12:12Z</time>
      </trkpt>
      <trkpt lat="42.77083" lon="1.54498">
        <ele>1154.241</ele>
        <time>2021-03-06T08:12:14Z</time>
      </trkpt>
      <trkpt lat="42.77083" lon="1.54496">
        <ele>1155.476</ele>
        <time>2021-03-06T08:12:16Z</time>
      </trkpt>
      <trkpt lat="42.77083" lon="1.54495">
        <ele>1155.044</ele>
        <time>2021-03-06T08:12:18Z</time>
      </trkpt>
      <trkpt lat="42.77082" lon="1.54493">
        <ele>1155.96</ele>
        <time>2021-03-06T08:12:20Z</time>
      </trkpt>
      <trkpt lat="42.77081" lon="1.54493">
        <ele>1157.265</ele>
        <time>2021-03-06T08:12:22Z</time>
      </trkpt>
      <trkpt lat="42.77081" lon="1.54491">
        <ele>1156.745</ele>
        <time>2021-03-06T08:12:24Z</time>
      </trkpt>
      <trkpt lat="42.77081" lon="1.5449">
        <ele>1156.914</ele>
        <time>2021-03-06T08:12:26Z</time>
      </trkpt>
      <trkpt lat="42.77082" lon="1.54488">
        <ele>1157.87</ele>
        <time>2021-03-06T08:12:28Z</time>
      </trkpt>
      <trkpt lat="42.77082" lon="1.54487">
        <ele>1157.633</ele>
        <time>2021-03-06T08:12:30Z</time>
      </trkpt>
      <trkpt lat="42.77082" lon="1.54486">
        <ele>1157.538</ele>
        <time>2021-03-06T08:12:32Z</time>
      </trkpt>
      <trkpt lat="42.77082" lon="1.54484">
        <ele>1158.101</ele>
        <time>2021-03-06T08:12:34Z</time>
      </trkpt>
      <trkpt lat="42.77081" lon="1.54483">
        <ele>1157.782</ele>
        <time>2021-03-06T08:12:36Z</time>
      </trkpt>
      <trkpt lat="42.77081" lon="1.54482">
        <ele>1157.562</ele>
        <time>2021-03-06T08:12:38Z</time>
      </trkpt>
      <trkpt lat="42.77081" lon="1.5448">
        <ele>1155.812</ele>
        <time>2021-03-06T08:12:40Z</time>
      </trkpt>
      <trkpt lat="42.77081" lon="1.54479">
        <ele>1155.058</ele>
        <time>2021-03-06T08:12:42Z</time>
      </trkpt>
      <trkpt lat="42.77081" lon="1.54477">
        <ele>1154.91</ele>
        <time>2021-03-06T08:12:44Z</time>
      </trkpt>
      <trkpt lat="42.77081" lon="1.54475">
        <ele>1155.551</ele>
        <time>2021-03-06T08:12:46Z</time>
      </trkpt>
      <trkpt lat="42.77082" lon="1.54474">
        <ele>1156.035</ele>
        <time>2021-03-06T08:12:48Z</time>
      </trkpt>
      <trkpt lat="42.77082" lon="1.54472">
        <ele>1158.445</ele>
        <time>2021-03-06T08:12:50Z</time>
      </trkpt>
      <trkpt lat="42.77082" lon="1.5447">
        <ele>1159.491</ele>
        <time>2021-03-06T08:12:52Z</time>
      </trkpt>
      <trkpt lat="42.77083" lon="1.54469">
        <ele>1159.209</ele>
        <time>2021-03-06T08:12:54Z</time>
      </trkpt>
      <trkpt lat="42.77083" lon="1.54467">
        <ele>1161.322</ele>
        <time>2021-03-06T08:12:56Z</time>
      </trkpt>
      <trkpt lat="42.77083" lon="1.54465">
        <ele>1162.201</ele>
        <time>2021-03-06T08:12:58Z</time>
      </trkpt>
      <trkpt lat="42.77084" lon="1.54464">
        <ele>1162.067</ele>
        <time>2021-03-06T08:13:00Z</time>
      </trkpt>
      <trkpt lat="42.77084" lon="1.54462">
        <ele>1162.596</ele>
        <time>2021-03-06T08:13:02Z</time>
      </trkpt>
      <trkpt lat="42.77085" lon="1.5446">
        <ele>1163.024</ele>
        <time>2021-03-06T08:13:04Z</time>
      </trkpt>
      <trkpt lat="42.77086" lon="1.54458">
        <ele>1163.722</ele>
        <time>2021-03-06T08:13:06Z</time>
      </trkpt>
      <trkpt lat="42.77087" lon="1.54457">
        <ele>1163.468</ele>
        <time>2021-03-06T08:13:08Z</time>
      </trkpt>
      <trkpt lat="42.77089" lon="1.54456">
        <ele>1164.087</ele>
        <time>2021-03-06T08:13:11Z</time>
      </trkpt>
      <trkpt lat="42.77089" lon="1.54454">
        <ele>1164.301</ele>
        <time>2021-03-06T08:13:13Z</time>
      </trkpt>
      <trkpt lat="42.7709" lon="1.54453">
        <ele>1165.304</ele>
        <time>2021-03-06T08:13:15Z</time>
      </trkpt>
      <trkpt lat="42.7709" lon="1.54451">
        <ele>1165.551</ele>
        <time>2021-03-06T08:13:17Z</time>
      </trkpt>
      <trkpt lat="42.77091" lon="1.54449">
        <ele>1167.551</ele>
        <time>2021-03-06T08:13:19Z</time>
      </trkpt>
      <trkpt lat="42.77091" lon="1.54447">
        <ele>1168.157</ele>
        <time>2021-03-06T08:13:21Z</time>
      </trkpt>
      <trkpt lat="42.77091" lon="1.54445">
        <ele>1168.457</ele>
        <time>2021-03-06T08:13:23Z</time>
      </trkpt>
      <trkpt lat="42.77092" lon="1.54443">
        <ele>1169.496</ele>
        <time>2021-03-06T08:13:25Z</time>
      </trkpt>
      <trkpt lat="42.77092" lon="1.54441">
        <ele>1169.866</ele>
        <time>2021-03-06T08:13:27Z</time>
      </trkpt>
      <trkpt lat="42.77092" lon="1.54439">
        <ele>1169.393</ele>
        <time>2021-03-06T08:13:29Z</time>
      </trkpt>
      <trkpt lat="42.77092" lon="1.54438">
        <ele>1170.065</ele>
        <time>2021-03-06T08:13:31Z</time>
      </trkpt>
      <trkpt lat="42.77092" lon="1.54436">
        <ele>1170.304</ele>
        <time>2021-03-06T08:13:33Z</time>
      </trkpt>
      <trkpt lat="42.77093" lon="1.54434">
        <ele>1171.298</ele>
        <time>2021-03-06T08:13:35Z</time>
      </trkpt>
      <trkpt lat="42.77093" lon="1.54433">
        <ele>1172.19</ele>
        <time>2021-03-06T08:13:37Z</time>
      </trkpt>
      <trkpt lat="42.77093" lon="1.54431">
        <ele>1172.167</ele>
        <time>2021-03-06T08:13:39Z</time>
      </trkpt>
      <trkpt lat="42.77094" lon="1.5443">
        <ele>1172.137</ele>
        <time>2021-03-06T08:13:41Z</time>
      </trkpt>
      <trkpt lat="42.77094" lon="1.54428">
        <ele>1173.167</ele>
        <time>2021-03-06T08:13:43Z</time>
      </trkpt>
      <trkpt lat="42.77095" lon="1.54427">
        <ele>1173.304</ele>
        <time>2021-03-06T08:13:45Z</time>
      </trkpt>
      <trkpt lat="42.77094" lon="1.54425">
        <ele>1172.776</ele>
        <time>2021-03-06T08:13:47Z</time>
      </trkpt>
      <trkpt lat="42.77094" lon="1.54424">
        <ele>1173.361</ele>
        <time>2021-03-06T08:13:49Z</time>
      </trkpt>
      <trkpt lat="42.77094" lon="1.54422">
        <ele>1173.294</ele>
        <time>2021-03-06T08:13:51Z</time>
      </trkpt>
      <trkpt lat="42.77093" lon="1.54421">
        <ele>1174.409</ele>
        <time>2021-03-06T08:13:53Z</time>
      </trkpt>
      <trkpt lat="42.77093" lon="1.5442">
        <ele>1174.194</ele>
        <time>2021-03-06T08:13:55Z</time>
      </trkpt>
      <trkpt lat="42.77092" lon="1.54418">
        <ele>1173.542</ele>
        <time>2021-03-06T08:13:57Z</time>
      </trkpt>
      <trkpt lat="42.77092" lon="1.54417">
        <ele>1172.926</ele>
        <time>2021-03-06T08:13:59Z</time>
      </trkpt>
      <trkpt lat="42.77092" lon="1.54415">
        <ele>1172.844</ele>
        <time>2021-03-06T08:14:01Z</time>
      </trkpt>
      <trkpt lat="42.77091" lon="1.54413">
        <ele>1172.982</ele>
        <time>2021-03-06T08:14:03Z</time>
      </trkpt>
      <trkpt lat="42.77091" lon="1.54412">
        <ele>1173.303</ele>
        <time>2021-03-06T08:14:05Z</time>
      </trkpt>
      <trkpt lat="42.77091" lon="1.5441">
        <ele>1173.234</ele>
        <time>2021-03-06T08:14:07Z</time>
      </trkpt>
      <trkpt lat="42.77091" lon="1.54409">
        <ele>1172.7</ele>
        <time>2021-03-06T08:14:09Z</time>
      </trkpt>
      <trkpt lat="42.7709" lon="1.54406">
        <ele>1173.207</ele>
        <time>2021-03-06T08:14:11Z</time>
      </trkpt>
      <trkpt lat="42.7709" lon="1.54405">
        <ele>1174.156</ele>
        <time>2021-03-06T08:14:13Z</time>
      </trkpt>
      <trkpt lat="42.77089" lon="1.54404">
        <ele>1174.676</ele>
        <time>2021-03-06T08:14:15Z</time>
      </trkpt>
      <trkpt lat="42.77088" lon="1.54402">
        <ele>1174.07</ele>
        <time>2021-03-06T08:14:17Z</time>
      </trkpt>
      <trkpt lat="42.77088" lon="1.544">
        <ele>1173.923</ele>
        <time>2021-03-06T08:14:19Z</time>
      </trkpt>
      <trkpt lat="42.77087" lon="1.54399">
        <ele>1174.483</ele>
        <time>2021-03-06T08:14:21Z</time>
      </trkpt>
      <trkpt lat="42.77086" lon="1.54397">
        <ele>1174.665</ele>
        <time>2021-03-06T08:14:23Z</time>
      </trkpt>
      <trkpt lat="42.77085" lon="1.54395">
        <ele>1174.054</ele>
        <time>2021-03-06T08:14:25Z</time>
      </trkpt>
      <trkpt lat="42.77084" lon="1.54393">
        <ele>1174.585</ele>
        <time>2021-03-06T08:14:27Z</time>
      </trkpt>
      <trkpt lat="42.77084" lon="1.54392">
        <ele>1174.994</ele>
        <time>2021-03-06T08:14:29Z</time>
      </trkpt>
      <trkpt lat="42.77083" lon="1.5439">
        <ele>1174.883</ele>
        <time>2021-03-06T08:14:31Z</time>
      </trkpt>
      <trkpt lat="42.77082" lon="1.54389">
        <ele>1174.476</ele>
        <time>2021-03-06T08:14:33Z</time>
      </trkpt>
      <trkpt lat="42.77081" lon="1.54386">
        <ele>1174.246</ele>
        <time>2021-03-06T08:14:35Z</time>
      </trkpt>
      <trkpt lat="42.7708" lon="1.54385">
        <ele>1174.206</ele>
        <time>2021-03-06T08:14:37Z</time>
      </trkpt>
      <trkpt lat="42.7708" lon="1.54383">
        <ele>1174.576</ele>
        <time>2021-03-06T08:14:39Z</time>
      </trkpt>
      <trkpt lat="42.77079" lon="1.54382">
        <ele>1174.323</ele>
        <time>2021-03-06T08:14:41Z</time>
      </trkpt>
      <trkpt lat="42.77079" lon="1.54381">
        <ele>1175.15</ele>
        <time>2021-03-06T08:14:43Z</time>
      </trkpt>
      <trkpt lat="42.77078" lon="1.54379">
        <ele>1176.057</ele>
        <time>2021-03-06T08:14:45Z</time>
      </trkpt>
      <trkpt lat="42.77078" lon="1.54377">
        <ele>1176.615</ele>
        <time>2021-03-06T08:14:47Z</time>
      </trkpt>
      <trkpt lat="42.77077" lon="1.54375">
        <ele>1176.191</ele>
        <time>2021-03-06T08:14:49Z</time>
      </trkpt>
      <trkpt lat="42.77077" lon="1.54373">
        <ele>1176.475</ele>
        <time>2021-03-06T08:14:51Z</time>
      </trkpt>
      <trkpt lat="42.77077" lon="1.54371">
        <ele>1176.371</ele>
        <time>2021-03-06T08:14:53Z</time>
      </trkpt>
      <trkpt lat="42.77076" lon="1.5437">
        <ele>1176.194</ele>
        <time>2021-03-06T08:14:55Z</time>
      </trkpt>
      <trkpt lat="42.77076" lon="1.54368">
        <ele>1176.702</ele>
        <time>2021-03-06T08:14:57Z</time>
      </trkpt>
      <trkpt lat="42.77075" lon="1.54366">
        <ele>1177.493</ele>
        <time>2021-03-06T08:14:59Z</time>
      </trkpt>
      <trkpt lat="42.77075" lon="1.54364">
        <ele>1177.519</ele>
        <time>2021-03-06T08:15:01Z</time>
      </trkpt>
      <trkpt lat="42.77075" lon="1.54362">
        <ele>1178.444</ele>
        <time>2021-03-06T08:15:03Z</time>
      </trkpt>
      <trkpt lat="42.77075" lon="1.5436">
        <ele>1179.319</ele>
        <time>2021-03-06T08:15:05Z</time>
      </trkpt>
      <trkpt lat="42.77074" lon="1.54358">
        <ele>1179.704</ele>
        <time>2021-03-06T08:15:07Z</time>
      </trkpt>
      <trkpt lat="42.77074" lon="1.54356">
        <ele>1180.896</ele>
        <time>2021-03-06T08:15:09Z</time>
      </trkpt>
      <trkpt lat="42.77072" lon="1.54355">
        <ele>1181.06</ele>
        <time>2021-03-06T08:15:11Z</time>
      </trkpt>
      <trkpt lat="42.77072" lon="1.54354">
        <ele>1182.322</ele>
        <time>2021-03-06T08:15:13Z</time>
      </trkpt>
      <trkpt lat="42.77071" lon="1.54354">
        <ele>1184.678</ele>
        <time>2021-03-06T08:15:15Z</time>
      </trkpt>
      <trkpt lat="42.77071" lon="1.54351">
        <ele>1185.682</ele>
        <time>2021-03-06T08:15:17Z</time>
      </trkpt>
      <trkpt lat="42.7707" lon="1.5435">
        <ele>1185.575</ele>
        <time>2021-03-06T08:15:19Z</time>
      </trkpt>
      <trkpt lat="42.77068" lon="1.54349">
        <ele>1186.207</ele>
        <time>2021-03-06T08:15:21Z</time>
      </trkpt>
      <trkpt lat="42.77068" lon="1.54348">
        <ele>1186.146</ele>
        <time>2021-03-06T08:15:23Z</time>
      </trkpt>
      <trkpt lat="42.77067" lon="1.54347">
        <ele>1187.647</ele>
        <time>2021-03-06T08:15:25Z</time>
      </trkpt>
      <trkpt lat="42.77067" lon="1.54346">
        <ele>1188.906</ele>
        <time>2021-03-06T08:15:27Z</time>
      </trkpt>
      <trkpt lat="42.77065" lon="1.54346">
        <ele>1190.521</ele>
        <time>2021-03-06T08:15:29Z</time>
      </trkpt>
      <trkpt lat="42.77064" lon="1.54346">
        <ele>1191.24</ele>
        <time>2021-03-06T08:15:31Z</time>
      </trkpt>
      <trkpt lat="42.77063" lon="1.54345">
        <ele>1190.933</ele>
        <time>2021-03-06T08:15:33Z</time>
      </trkpt>
      <trkpt lat="42.77062" lon="1.54344">
        <ele>1191.209</ele>
        <time>2021-03-06T08:15:35Z</time>
      </trkpt>
      <trkpt lat="42.77061" lon="1.54343">
        <ele>1191.642</ele>
        <time>2021-03-06T08:15:37Z</time>
      </trkpt>
      <trkpt lat="42.7706" lon="1.54343">
        <ele>1191.041</ele>
        <time>2021-03-06T08:15:39Z</time>
      </trkpt>
      <trkpt lat="42.77059" lon="1.54342">
        <ele>1191.442</ele>
        <time>2021-03-06T08:15:41Z</time>
      </trkpt>
      <trkpt lat="42.77058" lon="1.54341">
        <ele>1192.43</ele>
        <time>2021-03-06T08:15:43Z</time>
      </trkpt>
      <trkpt lat="42.77056" lon="1.54341">
        <ele>1192.851</ele>
        <time>2021-03-06T08:15:45Z</time>
      </trkpt>
      <trkpt lat="42.77055" lon="1.5434">
        <ele>1192.052</ele>
        <time>2021-03-06T08:15:47Z</time>
      </trkpt>
      <trkpt lat="42.77054" lon="1.54339">
        <ele>1192.467</ele>
        <time>2021-03-06T08:15:49Z</time>
      </trkpt>
      <trkpt lat="42.77052" lon="1.5434">
        <ele>1193.03</ele>
        <time>2021-03-06T08:15:51Z</time>
      </trkpt>
      <trkpt lat="42.77051" lon="1.54339">
        <ele>1192.462</ele>
        <time>2021-03-06T08:15:53Z</time>
      </trkpt>
      <trkpt lat="42.7705" lon="1.54339">
        <ele>1192.616</ele>
        <time>2021-03-06T08:15:55Z</time>
      </trkpt>
      <trkpt lat="42.77048" lon="1.54338">
        <ele>1192.776</ele>
        <time>2021-03-06T08:15:57Z</time>
      </trkpt>
      <trkpt lat="42.77046" lon="1.54338">
        <ele>1192.149</ele>
        <time>2021-03-06T08:15:59Z</time>
      </trkpt>
      <trkpt lat="42.77045" lon="1.54338">
        <ele>1193.797</ele>
        <time>2021-03-06T08:16:01Z</time>
      </trkpt>
      <trkpt lat="42.77043" lon="1.54337">
        <ele>1194.373</ele>
        <time>2021-03-06T08:16:03Z</time>
      </trkpt>
      <trkpt lat="42.77042" lon="1.54337">
        <ele>1194.946</ele>
        <time>2021-03-06T08:16:05Z</time>
      </trkpt>
      <trkpt lat="42.77041" lon="1.54337">
        <ele>1195.076</ele>
        <time>2021-03-06T08:16:07Z</time>
      </trkpt>
      <trkpt lat="42.77039" lon="1.54338">
        <ele>1196.547</ele>
        <time>2021-03-06T08:16:09Z</time>
      </trkpt>
      <trkpt lat="42.77038" lon="1.54338">
        <ele>1197.264</ele>
        <time>2021-03-06T08:16:11Z</time>
      </trkpt>
      <trkpt lat="42.77036" lon="1.54338">
        <ele>1196.765</ele>
        <time>2021-03-06T08:16:13Z</time>
      </trkpt>
      <trkpt lat="42.77035" lon="1.54338">
        <ele>1197.17</ele>
        <time>2021-03-06T08:16:15Z</time>
      </trkpt>
      <trkpt lat="42.77033" lon="1.54338">
        <ele>1199.359</ele>
        <time>2021-03-06T08:16:17Z</time>
      </trkpt>
      <trkpt lat="42.77031" lon="1.54338">
        <ele>1201.271</ele>
        <time>2021-03-06T08:16:19Z</time>
      </trkpt>
      <trkpt lat="42.77029" lon="1.54338">
        <ele>1200.913</ele>
        <time>2021-03-06T08:16:21Z</time>
      </trkpt>
      <trkpt lat="42.77027" lon="1.54337">
        <ele>1200.529</ele>
        <time>2021-03-06T08:16:23Z</time>
      </trkpt>
      <trkpt lat="42.77025" lon="1.54337">
        <ele>1199.246</ele>
        <time>2021-03-06T08:16:25Z</time>
      </trkpt>
      <trkpt lat="42.77025" lon="1.54335">
        <ele>1198.258</ele>
        <time>2021-03-06T08:16:27Z</time>
      </trkpt>
      <trkpt lat="42.77025" lon="1.54335">
        <ele>1199.039</ele>
        <time>2021-03-06T08:16:29Z</time>
      </trkpt>
      <trkpt lat="42.77024" lon="1.54335">
        <ele>1199.242</ele>
        <time>2021-03-06T08:16:31Z</time>
      </trkpt>
      <trkpt lat="42.77024" lon="1.54335">
        <ele>1199.24</ele>
        <time>2021-03-06T08:16:33Z</time>
      </trkpt>
      <trkpt lat="42.77024" lon="1.54335">
        <ele>1199.081</ele>
        <time>2021-03-06T08:16:35Z</time>
      </trkpt>
      <trkpt lat="42.77024" lon="1.54335">
        <ele>1198.671</ele>
        <time>2021-03-06T08:16:37Z</time>
      </trkpt>
      <trkpt lat="42.77023" lon="1.54335">
        <ele>1198.38</ele>
        <time>2021-03-06T08:16:39Z</time>
      </trkpt>
      <trkpt lat="42.77023" lon="1.54334">
        <ele>1198.287</ele>
        <time>2021-03-06T08:16:41Z</time>
      </trkpt>
      <trkpt lat="42.77023" lon="1.54334">
        <ele>1197.865</ele>
        <time>2021-03-06T08:16:43Z</time>
      </trkpt>
      <trkpt lat="42.77022" lon="1.54333">
        <ele>1197.929</ele>
        <time>2021-03-06T08:16:45Z</time>
      </trkpt>
      <trkpt lat="42.77022" lon="1.54332">
        <ele>1197.947</ele>
        <time>2021-03-06T08:16:47Z</time>
      </trkpt>
      <trkpt lat="42.77022" lon="1.54332">
        <ele>1197.952</ele>
        <time>2021-03-06T08:16:49Z</time>
      </trkpt>
      <trkpt lat="42.77022" lon="1.54332">
        <ele>1197.947</ele>
        <time>2021-03-06T08:16:51Z</time>
      </trkpt>
      <trkpt lat="42.77022" lon="1.54332">
        <ele>1197.639</ele>
        <time>2021-03-06T08:16:53Z</time>
      </trkpt>
      <trkpt lat="42.77021" lon="1.54332">
        <ele>1197.625</ele>
        <time>2021-03-06T08:16:55Z</time>
      </trkpt>
      <trkpt lat="42.77021" lon="1.54332">
        <ele>1197.626</ele>
        <time>2021-03-06T08:16:57Z</time>
      </trkpt>
      <trkpt lat="42.77021" lon="1.54332">
        <ele>1197.636</ele>
        <time>2021-03-06T08:16:59Z</time>
      </trkpt>
      <trkpt lat="42.77021" lon="1.54332">
        <ele>1197.639</ele>
        <time>2021-03-06T08:17:01Z</time>
      </trkpt>
      <trkpt lat="42.77021" lon="1.54332">
        <ele>1197.63</ele>
        <time>2021-03-06T08:17:03Z</time>
      </trkpt>
      <trkpt lat="42.77021" lon="1.54332">
        <ele>1197.647</ele>
        <time>2021-03-06T08:17:05Z</time>
      </trkpt>
      <trkpt lat="42.77022" lon="1.54331">
        <ele>1198.743</ele>
        <time>2021-03-06T08:17:07Z</time>
      </trkpt>
      <trkpt lat="42.77022" lon="1.54329">
        <ele>1198.583</ele>
        <time>2021-03-06T08:17:09Z</time>
      </trkpt>
      <trkpt lat="42.77022" lon="1.54327">
        <ele>1197.71</ele>
        <time>2021-03-06T08:17:11Z</time>
      </trkpt>
      <trkpt lat="42.77022" lon="1.54328">
        <ele>1197.137</ele>
        <time>2021-03-06T08:17:13Z</time>
      </trkpt>
      <trkpt lat="42.77022" lon="1.54328">
        <ele>1197.146</ele>
        <time>2021-03-06T08:17:15Z</time>
      </trkpt>
      <trkpt lat="42.77022" lon="1.54328">
        <ele>1197.154</ele>
        <time>2021-03-06T08:17:17Z</time>
      </trkpt>
      <trkpt lat="42.77022" lon="1.54328">
        <ele>1197.157</ele>
        <time>2021-03-06T08:17:19Z</time>
      </trkpt>
      <trkpt lat="42.77022" lon="1.54328">
        <ele>1197.169</ele>
        <time>2021-03-06T08:17:21Z</time>
      </trkpt>
      <trkpt lat="42.77022" lon="1.54328">
        <ele>1197.176</ele>
        <time>2021-03-06T08:17:23Z</time>
      </trkpt>
      <trkpt lat="42.77022" lon="1.54328">
        <ele>1197.181</ele>
        <time>2021-03-06T08:17:25Z</time>
      </trkpt>
      <trkpt lat="42.77022" lon="1.54328">
        <ele>1197.182</ele>
        <time>2021-03-06T08:17:27Z</time>
      </trkpt>
      <trkpt lat="42.77022" lon="1.54328">
        <ele>1197.131</ele>
        <time>2021-03-06T08:17:29Z</time>
      </trkpt>
      <trkpt lat="42.77021" lon="1.54328">
        <ele>1197.518</ele>
        <time>2021-03-06T08:17:31Z</time>
      </trkpt>
      <trkpt lat="42.77021" lon="1.54328">
        <ele>1197.519</ele>
        <time>2021-03-06T08:17:33Z</time>
      </trkpt>
      <trkpt lat="42.77021" lon="1.54328">
        <ele>1197.523</ele>
        <time>2021-03-06T08:17:35Z</time>
      </trkpt>
      <trkpt lat="42.77021" lon="1.54328">
        <ele>1197.562</ele>
        <time>2021-03-06T08:17:37Z</time>
      </trkpt>
      <trkpt lat="42.77021" lon="1.54328">
        <ele>1197.562</ele>
        <time>2021-03-06T08:17:39Z</time>
      </trkpt>
      <trkpt lat="42.77021" lon="1.54328">
        <ele>1197.565</ele>
        <time>2021-03-06T08:17:41Z</time>
      </trkpt>
      <trkpt lat="42.77021" lon="1.54328">
        <ele>1197.563</ele>
        <time>2021-03-06T08:17:43Z</time>
      </trkpt>
      <trkpt lat="42.77021" lon="1.54328">
        <ele>1197.605</ele>
        <time>2021-03-06T08:17:45Z</time>
      </trkpt>
      <trkpt lat="42.77021" lon="1.54328">
        <ele>1197.605</ele>
        <time>2021-03-06T08:17:47Z</time>
      </trkpt>
      <trkpt lat="42.77021" lon="1.54328">
        <ele>1197.6</ele>
        <time>2021-03-06T08:17:49Z</time>
      </trkpt>
      <trkpt lat="42.77021" lon="1.54328">
        <ele>1197.632</ele>
        <time>2021-03-06T08:17:51Z</time>
      </trkpt>
      <trkpt lat="42.77021" lon="1.54328">
        <ele>1197.634</ele>
        <time>2021-03-06T08:17:53Z</time>
      </trkpt>
      <trkpt lat="42.77021" lon="1.54328">
        <ele>1197.012</ele>
        <time>2021-03-06T08:17:55Z</time>
      </trkpt>
      <trkpt lat="42.77021" lon="1.54327">
        <ele>1196.708</ele>
        <time>2021-03-06T08:17:57Z</time>
      </trkpt>
      <trkpt lat="42.7702" lon="1.54328">
        <ele>1195.808</ele>
        <time>2021-03-06T08:17:59Z</time>
      </trkpt>
      <trkpt lat="42.7702" lon="1.54328">
        <ele>1195.902</ele>
        <time>2021-03-06T08:18:01Z</time>
      </trkpt>
      <trkpt lat="42.7702" lon="1.54328">
        <ele>1195.898</ele>
        <time>2021-03-06T08:18:03Z</time>
      </trkpt>
      <trkpt lat="42.7702" lon="1.54328">
        <ele>1195.896</ele>
        <time>2021-03-06T08:18:05Z</time>
      </trkpt>
      <trkpt lat="42.7702" lon="1.54328">
        <ele>1195.891</ele>
        <time>2021-03-06T08:18:07Z</time>
      </trkpt>
      <trkpt lat="42.7702" lon="1.54328">
        <ele>1195.888</ele>
        <time>2021-03-06T08:18:09Z</time>
      </trkpt>
      <trkpt lat="42.7702" lon="1.54328">
        <ele>1195.884</ele>
        <time>2021-03-06T08:18:11Z</time>
      </trkpt>
      <trkpt lat="42.7702" lon="1.54328">
        <ele>1195.885</ele>
        <time>2021-03-06T08:18:13Z</time>
      </trkpt>
      <trkpt lat="42.7702" lon="1.54328">
        <ele>1196.413</ele>
        <time>2021-03-06T08:18:15Z</time>
      </trkpt>
      <trkpt lat="42.77019" lon="1.54328">
        <ele>1196.739</ele>
        <time>2021-03-06T08:18:17Z</time>
      </trkpt>
      <trkpt lat="42.77018" lon="1.54326">
        <ele>1196.703</ele>
        <time>2021-03-06T08:18:19Z</time>
      </trkpt>
      <trkpt lat="42.77016" lon="1.54325">
        <ele>1197.091</ele>
        <time>2021-03-06T08:18:21Z</time>
      </trkpt>
      <trkpt lat="42.77015" lon="1.54323">
        <ele>1196.076</ele>
        <time>2021-03-06T08:18:23Z</time>
      </trkpt>
      <trkpt lat="42.77015" lon="1.5432">
        <ele>1195.445</ele>
        <time>2021-03-06T08:18:25Z</time>
      </trkpt>
      <trkpt lat="42.77014" lon="1.54319">
        <ele>1195.343</ele>
        <time>2021-03-06T08:18:27Z</time>
      </trkpt>
      <trkpt lat="42.77012" lon="1.54319">
        <ele>1195.487</ele>
        <time>2021-03-06T08:18:29Z</time>
      </trkpt>
      <trkpt lat="42.77011" lon="1.54318">
        <ele>1195.198</ele>
        <time>2021-03-06T08:18:31Z</time>
      </trkpt>
      <trkpt lat="42.77009" lon="1.54317">
        <ele>1193.932</ele>
        <time>2021-03-06T08:18:33Z</time>
      </trkpt>
      <trkpt lat="42.77008" lon="1.54316">
        <ele>1192.913</ele>
        <time>2021-03-06T08:18:35Z</time>
      </trkpt>
      <trkpt lat="42.77005" lon="1.54314">
        <ele>1192.49</ele>
        <time>2021-03-06T08:18:37Z</time>
      </trkpt>
      <trkpt lat="42.77003" lon="1.54313">
        <ele>1193.253</ele>
        <time>2021-03-06T08:18:39Z</time>
      </trkpt>
      <trkpt lat="42.77002" lon="1.54311">
        <ele>1193.955</ele>
        <time>2021-03-06T08:18:41Z</time>
      </trkpt>
      <trkpt lat="42.77" lon="1.54309">
        <ele>1194.406</ele>
        <time>2021-03-06T08:18:43Z</time>
      </trkpt>
      <trkpt lat="42.76998" lon="1.54308">
        <ele>1193.464</ele>
        <time>2021-03-06T08:18:45Z</time>
      </trkpt>
      <trkpt lat="42.76997" lon="1.54307">
        <ele>1191.689</ele>
        <time>2021-03-06T08:18:47Z</time>
      </trkpt>
      <trkpt lat="42.76996" lon="1.54306">
        <ele>1191.067</ele>
        <time>2021-03-06T08:18:49Z</time>
      </trkpt>
      <trkpt lat="42.76995" lon="1.54305">
        <ele>1192.736</ele>
        <time>2021-03-06T08:18:51Z</time>
      </trkpt>
      <trkpt lat="42.76993" lon="1.54303">
        <ele>1192.309</ele>
        <time>2021-03-06T08:18:53Z</time>
      </trkpt>
      <trkpt lat="42.76992" lon="1.54303">
        <ele>1193.908</ele>
        <time>2021-03-06T08:18:55Z</time>
      </trkpt>
      <trkpt lat="42.76991" lon="1.543">
        <ele>1193.798</ele>
        <time>2021-03-06T08:18:57Z</time>
      </trkpt>
      <trkpt lat="42.76992" lon="1.54298">
        <ele>1195.969</ele>
        <time>2021-03-06T08:18:59Z</time>
      </trkpt>
      <trkpt lat="42.76993" lon="1.54296">
        <ele>1198.016</ele>
        <time>2021-03-06T08:19:01Z</time>
      </trkpt>
      <trkpt lat="42.76995" lon="1.54295">
        <ele>1199.322</ele>
        <time>2021-03-06T08:19:03Z</time>
      </trkpt>
      <trkpt lat="42.76995" lon="1.54294">
        <ele>1200.179</ele>
        <time>2021-03-06T08:19:05Z</time>
      </trkpt>
      <trkpt lat="42.76997" lon="1.54291">
        <ele>1201.489</ele>
        <time>2021-03-06T08:19:07Z</time>
      </trkpt>
      <trkpt lat="42.76998" lon="1.54289">
        <ele>1203.479</ele>
        <time>2021-03-06T08:19:09Z</time>
      </trkpt>
      <trkpt lat="42.76999" lon="1.54287">
        <ele>1204.734</ele>
        <time>2021-03-06T08:19:11Z</time>
      </trkpt>
      <trkpt lat="42.77" lon="1.54285">
        <ele>1206.203</ele>
        <time>2021-03-06T08:19:13Z</time>
      </trkpt>
      <trkpt lat="42.77001" lon="1.54283">
        <ele>1206.271</ele>
        <time>2021-03-06T08:19:15Z</time>
      </trkpt>
      <trkpt lat="42.77002" lon="1.54281">
        <ele>1206.475</ele>
        <time>2021-03-06T08:19:17Z</time>
      </trkpt>
      <trkpt lat="42.77002" lon="1.54279">
        <ele>1206.145</ele>
        <time>2021-03-06T08:19:19Z</time>
      </trkpt>
      <trkpt lat="42.77003" lon="1.54277">
        <ele>1206.537</ele>
        <time>2021-03-06T08:19:21Z</time>
      </trkpt>
      <trkpt lat="42.77003" lon="1.54275">
        <ele>1205.167</ele>
        <time>2021-03-06T08:19:23Z</time>
      </trkpt>
      <trkpt lat="42.77003" lon="1.54273">
        <ele>1206.49</ele>
        <time>2021-03-06T08:19:25Z</time>
      </trkpt>
      <trkpt lat="42.77004" lon="1.54271">
        <ele>1207.252</ele>
        <time>2021-03-06T08:19:27Z</time>
      </trkpt>
      <trkpt lat="42.77004" lon="1.54269">
        <ele>1207.678</ele>
        <time>2021-03-06T08:19:29Z</time>
      </trkpt>
      <trkpt lat="42.77005" lon="1.54267">
        <ele>1207.742</ele>
        <time>2021-03-06T08:19:31Z</time>
      </trkpt>
      <trkpt lat="42.77005" lon="1.54265">
        <ele>1207.482</ele>
        <time>2021-03-06T08:19:33Z</time>
      </trkpt>
      <trkpt lat="42.77006" lon="1.54264">
        <ele>1207.558</ele>
        <time>2021-03-06T08:19:35Z</time>
      </trkpt>
      <trkpt lat="42.77006" lon="1.54262">
        <ele>1208.896</ele>
        <time>2021-03-06T08:19:37Z</time>
      </trkpt>
      <trkpt lat="42.77007" lon="1.54261">
        <ele>1209.03</ele>
        <time>2021-03-06T08:19:39Z</time>
      </trkpt>
      <trkpt lat="42.77008" lon="1.5426">
        <ele>1208.383</ele>
        <time>2021-03-06T08:19:41Z</time>
      </trkpt>
      <trkpt lat="42.77009" lon="1.54258">
        <ele>1209.503</ele>
        <time>2021-03-06T08:19:43Z</time>
      </trkpt>
      <trkpt lat="42.7701" lon="1.54256">
        <ele>1210.43</ele>
        <time>2021-03-06T08:19:45Z</time>
      </trkpt>
      <trkpt lat="42.7701" lon="1.54254">
        <ele>1210.789</ele>
        <time>2021-03-06T08:19:47Z</time>
      </trkpt>
      <trkpt lat="42.77011" lon="1.54253">
        <ele>1210.009</ele>
        <time>2021-03-06T08:19:49Z</time>
      </trkpt>
      <trkpt lat="42.77012" lon="1.54251">
        <ele>1210.944</ele>
        <time>2021-03-06T08:19:51Z</time>
      </trkpt>
      <trkpt lat="42.77012" lon="1.5425">
        <ele>1210.804</ele>
        <time>2021-03-06T08:19:53Z</time>
      </trkpt>
      <trkpt lat="42.77013" lon="1.54248">
        <ele>1211.942</ele>
        <time>2021-03-06T08:19:55Z</time>
      </trkpt>
      <trkpt lat="42.77013" lon="1.54247">
        <ele>1211.728</ele>
        <time>2021-03-06T08:19:57Z</time>
      </trkpt>
      <trkpt lat="42.77015" lon="1.54246">
        <ele>1212.901</ele>
        <time>2021-03-06T08:19:59Z</time>
      </trkpt>
      <trkpt lat="42.77015" lon="1.54244">
        <ele>1213.229</ele>
        <time>2021-03-06T08:20:01Z</time>
      </trkpt>
      <trkpt lat="42.77016" lon="1.54242">
        <ele>1212.396</ele>
        <time>2021-03-06T08:20:03Z</time>
      </trkpt>
      <trkpt lat="42.77017" lon="1.54241">
        <ele>1212.928</ele>
        <time>2021-03-06T08:20:05Z</time>
      </trkpt>
      <trkpt lat="42.77019" lon="1.54241">
        <ele>1213.284</ele>
        <time>2021-03-06T08:20:07Z</time>
      </trkpt>
      <trkpt lat="42.7702" lon="1.5424">
        <ele>1213.394</ele>
        <time>2021-03-06T08:20:09Z</time>
      </trkpt>
      <trkpt lat="42.77021" lon="1.5424">
        <ele>1212.957</ele>
        <time>2021-03-06T08:20:11Z</time>
      </trkpt>
      <trkpt lat="42.77022" lon="1.54239">
        <ele>1214.37</ele>
        <time>2021-03-06T08:20:13Z</time>
      </trkpt>
      <trkpt lat="42.77022" lon="1.54238">
        <ele>1213.013</ele>
        <time>2021-03-06T08:20:15Z</time>
      </trkpt>
      <trkpt lat="42.77023" lon="1.54236">
        <ele>1214.394</ele>
        <time>2021-03-06T08:20:17Z</time>
      </trkpt>
      <trkpt lat="42.77024" lon="1.54236">
        <ele>1215.424</ele>
        <time>2021-03-06T08:20:19Z</time>
      </trkpt>
      <trkpt lat="42.77026" lon="1.54234">
        <ele>1216.834</ele>
        <time>2021-03-06T08:20:21Z</time>
      </trkpt>
      <trkpt lat="42.77027" lon="1.54233">
        <ele>1217.278</ele>
        <time>2021-03-06T08:20:23Z</time>
      </trkpt>
      <trkpt lat="42.77029" lon="1.54232">
        <ele>1217.923</ele>
        <time>2021-03-06T08:20:25Z</time>
      </trkpt>
      <trkpt lat="42.77031" lon="1.54231">
        <ele>1217.823</ele>
        <time>2021-03-06T08:20:27Z</time>
      </trkpt>
      <trkpt lat="42.77032" lon="1.5423">
        <ele>1218.445</ele>
        <time>2021-03-06T08:20:29Z</time>
      </trkpt>
      <trkpt lat="42.77033" lon="1.54229">
        <ele>1219.07</ele>
        <time>2021-03-06T08:20:31Z</time>
      </trkpt>
      <trkpt lat="42.77034" lon="1.54227">
        <ele>1219.442</ele>
        <time>2021-03-06T08:20:33Z</time>
      </trkpt>
      <trkpt lat="42.77035" lon="1.54226">
        <ele>1220.191</ele>
        <time>2021-03-06T08:20:35Z</time>
      </trkpt>
      <trkpt lat="42.77036" lon="1.54225">
        <ele>1220.347</ele>
        <time>2021-03-06T08:20:37Z</time>
      </trkpt>
      <trkpt lat="42.77038" lon="1.54224">
        <ele>1220.826</ele>
        <time>2021-03-06T08:20:39Z</time>
      </trkpt>
      <trkpt lat="42.7704" lon="1.54223">
        <ele>1221.98</ele>
        <time>2021-03-06T08:20:41Z</time>
      </trkpt>
      <trkpt lat="42.77041" lon="1.54222">
        <ele>1222.503</ele>
        <time>2021-03-06T08:20:43Z</time>
      </trkpt>
      <trkpt lat="42.77042" lon="1.54221">
        <ele>1221.929</ele>
        <time>2021-03-06T08:20:45Z</time>
      </trkpt>
      <trkpt lat="42.77043" lon="1.5422">
        <ele>1222.556</ele>
        <time>2021-03-06T08:20:47Z</time>
      </trkpt>
      <trkpt lat="42.77045" lon="1.54219">
        <ele>1223.001</ele>
        <time>2021-03-06T08:20:49Z</time>
      </trkpt>
      <trkpt lat="42.77046" lon="1.54218">
        <ele>1224.352</ele>
        <time>2021-03-06T08:20:51Z</time>
      </trkpt>
      <trkpt lat="42.77048" lon="1.54218">
        <ele>1224.385</ele>
        <time>2021-03-06T08:20:53Z</time>
      </trkpt>
      <trkpt lat="42.7705" lon="1.54217">
        <ele>1225.593</ele>
        <time>2021-03-06T08:20:55Z</time>
      </trkpt>
      <trkpt lat="42.77051" lon="1.54217">
        <ele>1225.033</ele>
        <time>2021-03-06T08:20:57Z</time>
      </trkpt>
      <trkpt lat="42.77053" lon="1.54216">
        <ele>1224.89</ele>
        <time>2021-03-06T08:20:59Z</time>
      </trkpt>
      <trkpt lat="42.77054" lon="1.54215">
        <ele>1225.117</ele>
        <time>2021-03-06T08:21:01Z</time>
      </trkpt>
      <trkpt lat="42.77055" lon="1.54214">
        <ele>1224.462</ele>
        <time>2021-03-06T08:21:03Z</time>
      </trkpt>
      <trkpt lat="42.77057" lon="1.54213">
        <ele>1224.943</ele>
        <time>2021-03-06T08:21:05Z</time>
      </trkpt>
      <trkpt lat="42.77058" lon="1.54212">
        <ele>1225.301</ele>
        <time>2021-03-06T08:21:07Z</time>
      </trkpt>
      <trkpt lat="42.7706" lon="1.54212">
        <ele>1225.635</ele>
        <time>2021-03-06T08:21:09Z</time>
      </trkpt>
      <trkpt lat="42.77061" lon="1.54211">
        <ele>1225.245</ele>
        <time>2021-03-06T08:21:11Z</time>
      </trkpt>
      <trkpt lat="42.77062" lon="1.54211">
        <ele>1225.413</ele>
        <time>2021-03-06T08:21:13Z</time>
      </trkpt>
      <trkpt lat="42.77064" lon="1.5421">
        <ele>1226.343</ele>
        <time>2021-03-06T08:21:15Z</time>
      </trkpt>
      <trkpt lat="42.77065" lon="1.5421">
        <ele>1227.675</ele>
        <time>2021-03-06T08:21:17Z</time>
      </trkpt>
      <trkpt lat="42.77066" lon="1.54209">
        <ele>1227.71</ele>
        <time>2021-03-06T08:21:19Z</time>
      </trkpt>
      <trkpt lat="42.77067" lon="1.54209">
        <ele>1226.925</ele>
        <time>2021-03-06T08:21:21Z</time>
      </trkpt>
      <trkpt lat="42.77069" lon="1.54208">
        <ele>1227.159</ele>
        <time>2021-03-06T08:21:23Z</time>
      </trkpt>
      <trkpt lat="42.7707" lon="1.54208">
        <ele>1228.887</ele>
        <time>2021-03-06T08:21:25Z</time>
      </trkpt>
      <trkpt lat="42.77071" lon="1.54206">
        <ele>1228.925</ele>
        <time>2021-03-06T08:21:27Z</time>
      </trkpt>
      <trkpt lat="42.77072" lon="1.54205">
        <ele>1229.815</ele>
        <time>2021-03-06T08:21:29Z</time>
      </trkpt>
      <trkpt lat="42.77074" lon="1.54204">
        <ele>1230.846</ele>
        <time>2021-03-06T08:21:31Z</time>
      </trkpt>
      <trkpt lat="42.77075" lon="1.54202">
        <ele>1230.985</ele>
        <time>2021-03-06T08:21:33Z</time>
      </trkpt>
      <trkpt lat="42.77076" lon="1.54201">
        <ele>1231.265</ele>
        <time>2021-03-06T08:21:35Z</time>
      </trkpt>
      <trkpt lat="42.77077" lon="1.54199">
        <ele>1231.327</ele>
        <time>2021-03-06T08:21:37Z</time>
      </trkpt>
      <trkpt lat="42.77078" lon="1.54198">
        <ele>1232.406</ele>
        <time>2021-03-06T08:21:39Z</time>
      </trkpt>
      <trkpt lat="42.77078" lon="1.54196">
        <ele>1232.451</ele>
        <time>2021-03-06T08:21:41Z</time>
      </trkpt>
      <trkpt lat="42.77079" lon="1.54195">
        <ele>1233.063</ele>
        <time>2021-03-06T08:21:43Z</time>
      </trkpt>
      <trkpt lat="42.7708" lon="1.54194">
        <ele>1233.436</ele>
        <time>2021-03-06T08:21:45Z</time>
      </trkpt>
      <trkpt lat="42.77081" lon="1.54193">
        <ele>1233.486</ele>
        <time>2021-03-06T08:21:47Z</time>
      </trkpt>
      <trkpt lat="42.77082" lon="1.54192">
        <ele>1232.837</ele>
        <time>2021-03-06T08:21:49Z</time>
      </trkpt>
      <trkpt lat="42.77084" lon="1.54192">
        <ele>1233.763</ele>
        <time>2021-03-06T08:21:51Z</time>
      </trkpt>
      <trkpt lat="42.77086" lon="1.54192">
        <ele>1235.712</ele>
        <time>2021-03-06T08:21:53Z</time>
      </trkpt>
      <trkpt lat="42.77088" lon="1.54191">
        <ele>1236.085</ele>
        <time>2021-03-06T08:21:55Z</time>
      </trkpt>
      <trkpt lat="42.77089" lon="1.54191">
        <ele>1236.39</ele>
        <time>2021-03-06T08:21:57Z</time>
      </trkpt>
      <trkpt lat="42.7709" lon="1.5419">
        <ele>1237.056</ele>
        <time>2021-03-06T08:21:59Z</time>
      </trkpt>
      <trkpt lat="42.77092" lon="1.5419">
        <ele>1235.907</ele>
        <time>2021-03-06T08:22:01Z</time>
      </trkpt>
      <trkpt lat="42.77093" lon="1.54189">
        <ele>1236.531</ele>
        <time>2021-03-06T08:22:03Z</time>
      </trkpt>
      <trkpt lat="42.77095" lon="1.54189">
        <ele>1236.701</ele>
        <time>2021-03-06T08:22:05Z</time>
      </trkpt>
      <trkpt lat="42.77097" lon="1.54189">
        <ele>1236.922</ele>
        <time>2021-03-06T08:22:07Z</time>
      </trkpt>
      <trkpt lat="42.77098" lon="1.54188">
        <ele>1237.1</ele>
        <time>2021-03-06T08:22:09Z</time>
      </trkpt>
      <trkpt lat="42.771" lon="1.54187">
        <ele>1237.331</ele>
        <time>2021-03-06T08:22:11Z</time>
      </trkpt>
      <trkpt lat="42.77101" lon="1.54187">
        <ele>1237.939</ele>
        <time>2021-03-06T08:22:13Z</time>
      </trkpt>
      <trkpt lat="42.77102" lon="1.54186">
        <ele>1239.56</ele>
        <time>2021-03-06T08:22:15Z</time>
      </trkpt>
      <trkpt lat="42.77103" lon="1.54185">
        <ele>1239.222</ele>
        <time>2021-03-06T08:22:17Z</time>
      </trkpt>
      <trkpt lat="42.77104" lon="1.54185">
        <ele>1238.941</ele>
        <time>2021-03-06T08:22:19Z</time>
      </trkpt>
      <trkpt lat="42.77105" lon="1.54186">
        <ele>1238.532</ele>
        <time>2021-03-06T08:22:21Z</time>
      </trkpt>
      <trkpt lat="42.77107" lon="1.54187">
        <ele>1238.618</ele>
        <time>2021-03-06T08:22:23Z</time>
      </trkpt>
      <trkpt lat="42.77109" lon="1.54187">
        <ele>1238.753</ele>
        <time>2021-03-06T08:22:25Z</time>
      </trkpt>
      <trkpt lat="42.77112" lon="1.54188">
        <ele>1239.311</ele>
        <time>2021-03-06T08:22:27Z</time>
      </trkpt>
      <trkpt lat="42.77114" lon="1.54189">
        <ele>1240.023</ele>
        <time>2021-03-06T08:22:29Z</time>
      </trkpt>
      <trkpt lat="42.77116" lon="1.54189">
        <ele>1240.084</ele>
        <time>2021-03-06T08:22:31Z</time>
      </trkpt>
      <trkpt lat="42.77118" lon="1.5419">
        <ele>1240.885</ele>
        <time>2021-03-06T08:22:33Z</time>
      </trkpt>
      <trkpt lat="42.7712" lon="1.5419">
        <ele>1240.88</ele>
        <time>2021-03-06T08:22:35Z</time>
      </trkpt>
      <trkpt lat="42.77122" lon="1.5419">
        <ele>1240.661</ele>
        <time>2021-03-06T08:22:37Z</time>
      </trkpt>
      <trkpt lat="42.77123" lon="1.54191">
        <ele>1241.013</ele>
        <time>2021-03-06T08:22:39Z</time>
      </trkpt>
      <trkpt lat="42.77125" lon="1.54191">
        <ele>1241.333</ele>
        <time>2021-03-06T08:22:41Z</time>
      </trkpt>
      <trkpt lat="42.77127" lon="1.54192">
        <ele>1241.29</ele>
        <time>2021-03-06T08:22:43Z</time>
      </trkpt>
      <trkpt lat="42.77129" lon="1.54192">
        <ele>1241.754</ele>
        <time>2021-03-06T08:22:45Z</time>
      </trkpt>
      <trkpt lat="42.77131" lon="1.54192">
        <ele>1241.878</ele>
        <time>2021-03-06T08:22:47Z</time>
      </trkpt>
      <trkpt lat="42.77132" lon="1.54192">
        <ele>1240.832</ele>
        <time>2021-03-06T08:22:49Z</time>
      </trkpt>
      <trkpt lat="42.77133" lon="1.54191">
        <ele>1239.922</ele>
        <time>2021-03-06T08:22:51Z</time>
      </trkpt>
      <trkpt lat="42.77133" lon="1.5419">
        <ele>1239.358</ele>
        <time>2021-03-06T08:22:53Z</time>
      </trkpt>
      <trkpt lat="42.77133" lon="1.5419">
        <ele>1239.372</ele>
        <time>2021-03-06T08:22:55Z</time>
      </trkpt>
      <trkpt lat="42.77133" lon="1.54189">
        <ele>1239.111</ele>
        <time>2021-03-06T08:22:57Z</time>
      </trkpt>
      <trkpt lat="42.77133" lon="1.54189">
        <ele>1239.222</ele>
        <time>2021-03-06T08:22:59Z</time>
      </trkpt>
      <trkpt lat="42.77133" lon="1.54189">
        <ele>1239.245</ele>
        <time>2021-03-06T08:23:01Z</time>
      </trkpt>
      <trkpt lat="42.77133" lon="1.54189">
        <ele>1239.247</ele>
        <time>2021-03-06T08:23:03Z</time>
      </trkpt>
      <trkpt lat="42.77133" lon="1.54189">
        <ele>1239.246</ele>
        <time>2021-03-06T08:23:05Z</time>
      </trkpt>
      <trkpt lat="42.77133" lon="1.54189">
        <ele>1239.244</ele>
        <time>2021-03-06T08:23:07Z</time>
      </trkpt>
      <trkpt lat="42.77133" lon="1.54189">
        <ele>1239.245</ele>
        <time>2021-03-06T08:23:09Z</time>
      </trkpt>
      <trkpt lat="42.77133" lon="1.54189">
        <ele>1239.592</ele>
        <time>2021-03-06T08:23:11Z</time>
      </trkpt>
      <trkpt lat="42.77133" lon="1.54188">
        <ele>1239.468</ele>
        <time>2021-03-06T08:23:13Z</time>
      </trkpt>
      <trkpt lat="42.77133" lon="1.54188">
        <ele>1239.504</ele>
        <time>2021-03-06T08:23:15Z</time>
      </trkpt>
      <trkpt lat="42.77133" lon="1.54188">
        <ele>1239.514</ele>
        <time>2021-03-06T08:23:17Z</time>
      </trkpt>
      <trkpt lat="42.77133" lon="1.54188">
        <ele>1239.531</ele>
        <time>2021-03-06T08:23:19Z</time>
      </trkpt>
      <trkpt lat="42.77133" lon="1.54188">
        <ele>1239.542</ele>
        <time>2021-03-06T08:23:21Z</time>
      </trkpt>
      <trkpt lat="42.77133" lon="1.54188">
        <ele>1239.539</ele>
        <time>2021-03-06T08:23:23Z</time>
      </trkpt>
      <trkpt lat="42.77133" lon="1.54188">
        <ele>1239.54</ele>
        <time>2021-03-06T08:23:25Z</time>
      </trkpt>
      <trkpt lat="42.77132" lon="1.54189">
        <ele>1239.756</ele>
        <time>2021-03-06T08:23:27Z</time>
      </trkpt>
      <trkpt lat="42.77132" lon="1.54188">
        <ele>1239.859</ele>
        <time>2021-03-06T08:23:29Z</time>
      </trkpt>
      <trkpt lat="42.77132" lon="1.54188">
        <ele>1239.858</ele>
        <time>2021-03-06T08:23:31Z</time>
      </trkpt>
      <trkpt lat="42.77132" lon="1.54188">
        <ele>1239.858</ele>
        <time>2021-03-06T08:23:33Z</time>
      </trkpt>
      <trkpt lat="42.77132" lon="1.54188">
        <ele>1239.868</ele>
        <time>2021-03-06T08:23:35Z</time>
      </trkpt>
      <trkpt lat="42.77132" lon="1.54188">
        <ele>1239.876</ele>
        <time>2021-03-06T08:23:37Z</time>
      </trkpt>
      <trkpt lat="42.77132" lon="1.54188">
        <ele>1239.886</ele>
        <time>2021-03-06T08:23:39Z</time>
      </trkpt>
      <trkpt lat="42.77132" lon="1.54188">
        <ele>1239.886</ele>
        <time>2021-03-06T08:23:41Z</time>
      </trkpt>
      <trkpt lat="42.77132" lon="1.54188">
        <ele>1239.888</ele>
        <time>2021-03-06T08:23:43Z</time>
      </trkpt>
      <trkpt lat="42.77132" lon="1.54188">
        <ele>1239.886</ele>
        <time>2021-03-06T08:23:45Z</time>
      </trkpt>
      <trkpt lat="42.77132" lon="1.54188">
        <ele>1240.129</ele>
        <time>2021-03-06T08:23:47Z</time>
      </trkpt>
      <trkpt lat="42.77132" lon="1.54188">
        <ele>1240.153</ele>
        <time>2021-03-06T08:23:49Z</time>
      </trkpt>
      <trkpt lat="42.77132" lon="1.54188">
        <ele>1240.15</ele>
        <time>2021-03-06T08:23:51Z</time>
      </trkpt>
      <trkpt lat="42.77132" lon="1.54188">
        <ele>1240.16</ele>
        <time>2021-03-06T08:23:53Z</time>
      </trkpt>
      <trkpt lat="42.77132" lon="1.54188">
        <ele>1240.156</ele>
        <time>2021-03-06T08:23:55Z</time>
      </trkpt>
      <trkpt lat="42.77132" lon="1.54188">
        <ele>1240.163</ele>
        <time>2021-03-06T08:23:57Z</time>
      </trkpt>
      <trkpt lat="42.77131" lon="1.54188">
        <ele>1240.284</ele>
        <time>2021-03-06T08:23:59Z</time>
      </trkpt>
      <trkpt lat="42.77132" lon="1.54187">
        <ele>1240.139</ele>
        <time>2021-03-06T08:24:01Z</time>
      </trkpt>
      <trkpt lat="42.77134" lon="1.54187">
        <ele>1242.212</ele>
        <time>2021-03-06T08:24:03Z</time>
      </trkpt>
      <trkpt lat="42.77136" lon="1.54186">
        <ele>1241.618</ele>
        <time>2021-03-06T08:24:05Z</time>
      </trkpt>
      <trkpt lat="42.77137" lon="1.54185">
        <ele>1241.213</ele>
        <time>2021-03-06T08:24:07Z</time>
      </trkpt>
      <trkpt lat="42.77138" lon="1.54185">
        <ele>1241.45</ele>
        <time>2021-03-06T08:24:08Z</time>
      </trkpt>
      <trkpt lat="42.77141" lon="1.54185">
        <ele>1242.853</ele>
        <time>2021-03-06T08:24:11Z</time>
      </trkpt>
      <trkpt lat="42.77142" lon="1.54185">
        <ele>1243.949</ele>
        <time>2021-03-06T08:24:13Z</time>
      </trkpt>
      <trkpt lat="42.77144" lon="1.54184">
        <ele>1243.879</ele>
        <time>2021-03-06T08:24:15Z</time>
      </trkpt>
      <trkpt lat="42.77145" lon="1.54184">
        <ele>1243.563</ele>
        <time>2021-03-06T08:24:17Z</time>
      </trkpt>
      <trkpt lat="42.77147" lon="1.54183">
        <ele>1244.338</ele>
        <time>2021-03-06T08:24:19Z</time>
      </trkpt>
      <trkpt lat="42.77149" lon="1.54183">
        <ele>1244.093</ele>
        <time>2021-03-06T08:24:21Z</time>
      </trkpt>
      <trkpt lat="42.7715" lon="1.54182">
        <ele>1245.206</ele>
        <time>2021-03-06T08:24:23Z</time>
      </trkpt>
      <trkpt lat="42.77152" lon="1.54182">
        <ele>1245.214</ele>
        <time>2021-03-06T08:24:25Z</time>
      </trkpt>
      <trkpt lat="42.77154" lon="1.54181">
        <ele>1246.225</ele>
        <time>2021-03-06T08:24:27Z</time>
      </trkpt>
      <trkpt lat="42.77155" lon="1.5418">
        <ele>1247.463</ele>
        <time>2021-03-06T08:24:29Z</time>
      </trkpt>
      <trkpt lat="42.77157" lon="1.5418">
        <ele>1247.782</ele>
        <time>2021-03-06T08:24:31Z</time>
      </trkpt>
      <trkpt lat="42.77159" lon="1.54179">
        <ele>1248.899</ele>
        <time>2021-03-06T08:24:33Z</time>
      </trkpt>
      <trkpt lat="42.7716" lon="1.54178">
        <ele>1249.13</ele>
        <time>2021-03-06T08:24:35Z</time>
      </trkpt>
      <trkpt lat="42.77162" lon="1.54177">
        <ele>1250.149</ele>
        <time>2021-03-06T08:24:37Z</time>
      </trkpt>
      <trkpt lat="42.77164" lon="1.54176">
        <ele>1251.412</ele>
        <time>2021-03-06T08:24:39Z</time>
      </trkpt>
      <trkpt lat="42.77165" lon="1.54175">
        <ele>1250.187</ele>
        <time>2021-03-06T08:24:41Z</time>
      </trkpt>
      <trkpt lat="42.77167" lon="1.54174">
        <ele>1249.887</ele>
        <time>2021-03-06T08:24:43Z</time>
      </trkpt>
      <trkpt lat="42.77168" lon="1.54173">
        <ele>1250.134</ele>
        <time>2021-03-06T08:24:45Z</time>
      </trkpt>
      <trkpt lat="42.7717" lon="1.54173">
        <ele>1250.441</ele>
        <time>2021-03-06T08:24:47Z</time>
      </trkpt>
      <trkpt lat="42.77173" lon="1.54172">
        <ele>1251.113</ele>
        <time>2021-03-06T08:24:49Z</time>
      </trkpt>
      <trkpt lat="42.77175" lon="1.54172">
        <ele>1251.018</ele>
        <time>2021-03-06T08:24:51Z</time>
      </trkpt>
      <trkpt lat="42.77176" lon="1.54171">
        <ele>1251.323</ele>
        <time>2021-03-06T08:24:53Z</time>
      </trkpt>
      <trkpt lat="42.77179" lon="1.5417">
        <ele>1251.804</ele>
        <time>2021-03-06T08:24:55Z</time>
      </trkpt>
      <trkpt lat="42.77181" lon="1.5417">
        <ele>1251.829</ele>
        <time>2021-03-06T08:24:57Z</time>
      </trkpt>
      <trkpt lat="42.77183" lon="1.54169">
        <ele>1252.025</ele>
        <time>2021-03-06T08:24:59Z</time>
      </trkpt>
      <trkpt lat="42.77184" lon="1.54168">
        <ele>1250.923</ele>
        <time>2021-03-06T08:25:01Z</time>
      </trkpt>
      <trkpt lat="42.77187" lon="1.54167">
        <ele>1250.77</ele>
        <time>2021-03-06T08:25:03Z</time>
      </trkpt>
      <trkpt lat="42.77189" lon="1.54168">
        <ele>1251.67</ele>
        <time>2021-03-06T08:25:05Z</time>
      </trkpt>
      <trkpt lat="42.77191" lon="1.54167">
        <ele>1251.438</ele>
        <time>2021-03-06T08:25:07Z</time>
      </trkpt>
      <trkpt lat="42.77193" lon="1.54167">
        <ele>1252.317</ele>
        <time>2021-03-06T08:25:09Z</time>
      </trkpt>
      <trkpt lat="42.77195" lon="1.54167">
        <ele>1251.579</ele>
        <time>2021-03-06T08:25:11Z</time>
      </trkpt>
      <trkpt lat="42.77196" lon="1.54167">
        <ele>1251.601</ele>
        <time>2021-03-06T08:25:13Z</time>
      </trkpt>
      <trkpt lat="42.77198" lon="1.54168">
        <ele>1252.942</ele>
        <time>2021-03-06T08:25:15Z</time>
      </trkpt>
      <trkpt lat="42.77201" lon="1.54168">
        <ele>1253.641</ele>
        <time>2021-03-06T08:25:17Z</time>
      </trkpt>
      <trkpt lat="42.77204" lon="1.54169">
        <ele>1254.778</ele>
        <time>2021-03-06T08:25:19Z</time>
      </trkpt>
      <trkpt lat="42.77206" lon="1.54169">
        <ele>1256.684</ele>
        <time>2021-03-06T08:25:21Z</time>
      </trkpt>
      <trkpt lat="42.77209" lon="1.54169">
        <ele>1257.732</ele>
        <time>2021-03-06T08:25:23Z</time>
      </trkpt>
      <trkpt lat="42.7721" lon="1.54169">
        <ele>1257.02</ele>
        <time>2021-03-06T08:25:25Z</time>
      </trkpt>
      <trkpt lat="42.77212" lon="1.54168">
        <ele>1256.236</ele>
        <time>2021-03-06T08:25:27Z</time>
      </trkpt>
      <trkpt lat="42.77214" lon="1.54169">
        <ele>1256.881</ele>
        <time>2021-03-06T08:25:29Z</time>
      </trkpt>
      <trkpt lat="42.77216" lon="1.54169">
        <ele>1258.047</ele>
        <time>2021-03-06T08:25:31Z</time>
      </trkpt>
      <trkpt lat="42.77219" lon="1.5417">
        <ele>1258.349</ele>
        <time>2021-03-06T08:25:33Z</time>
      </trkpt>
      <trkpt lat="42.77221" lon="1.5417">
        <ele>1258.764</ele>
        <time>2021-03-06T08:25:35Z</time>
      </trkpt>
      <trkpt lat="42.77223" lon="1.5417">
        <ele>1258.574</ele>
        <time>2021-03-06T08:25:37Z</time>
      </trkpt>
      <trkpt lat="42.77225" lon="1.5417">
        <ele>1258.527</ele>
        <time>2021-03-06T08:25:39Z</time>
      </trkpt>
      <trkpt lat="42.77228" lon="1.54171">
        <ele>1259.498</ele>
        <time>2021-03-06T08:25:41Z</time>
      </trkpt>
      <trkpt lat="42.7723" lon="1.54172">
        <ele>1259.145</ele>
        <time>2021-03-06T08:25:43Z</time>
      </trkpt>
      <trkpt lat="42.77232" lon="1.54172">
        <ele>1259.546</ele>
        <time>2021-03-06T08:25:45Z</time>
      </trkpt>
      <trkpt lat="42.77235" lon="1.54172">
        <ele>1259.978</ele>
        <time>2021-03-06T08:25:47Z</time>
      </trkpt>
      <trkpt lat="42.77237" lon="1.54173">
        <ele>1260.397</ele>
        <time>2021-03-06T08:25:49Z</time>
      </trkpt>
      <trkpt lat="42.77239" lon="1.54174">
        <ele>1260.167</ele>
        <time>2021-03-06T08:25:51Z</time>
      </trkpt>
      <trkpt lat="42.7724" lon="1.54174">
        <ele>1260.856</ele>
        <time>2021-03-06T08:25:53Z</time>
      </trkpt>
      <trkpt lat="42.77242" lon="1.54175">
        <ele>1262.054</ele>
        <time>2021-03-06T08:25:55Z</time>
      </trkpt>
      <trkpt lat="42.77244" lon="1.54175">
        <ele>1262.567</ele>
        <time>2021-03-06T08:25:57Z</time>
      </trkpt>
      <trkpt lat="42.77246" lon="1.54174">
        <ele>1262.062</ele>
        <time>2021-03-06T08:25:59Z</time>
      </trkpt>
      <trkpt lat="42.77248" lon="1.54175">
        <ele>1262.945</ele>
        <time>2021-03-06T08:26:01Z</time>
      </trkpt>
      <trkpt lat="42.7725" lon="1.54175">
        <ele>1263.589</ele>
        <time>2021-03-06T08:26:03Z</time>
      </trkpt>
      <trkpt lat="42.77252" lon="1.54175">
        <ele>1262.541</ele>
        <time>2021-03-06T08:26:05Z</time>
      </trkpt>
      <trkpt lat="42.77253" lon="1.54175">
        <ele>1262.975</ele>
        <time>2021-03-06T08:26:07Z</time>
      </trkpt>
      <trkpt lat="42.77255" lon="1.54175">
        <ele>1264.294</ele>
        <time>2021-03-06T08:26:09Z</time>
      </trkpt>
      <trkpt lat="42.77257" lon="1.54175">
        <ele>1264.853</ele>
        <time>2021-03-06T08:26:11Z</time>
      </trkpt>
      <trkpt lat="42.77258" lon="1.54174">
        <ele>1265.328</ele>
        <time>2021-03-06T08:26:13Z</time>
      </trkpt>
      <trkpt lat="42.7726" lon="1.54173">
        <ele>1263.6</ele>
        <time>2021-03-06T08:26:15Z</time>
      </trkpt>
      <trkpt lat="42.77261" lon="1.54171">
        <ele>1262.725</ele>
        <time>2021-03-06T08:26:17Z</time>
      </trkpt>
      <trkpt lat="42.77262" lon="1.5417">
        <ele>1263.169</ele>
        <time>2021-03-06T08:26:19Z</time>
      </trkpt>
      <trkpt lat="42.77263" lon="1.5417">
        <ele>1263.158</ele>
        <time>2021-03-06T08:26:21Z</time>
      </trkpt>
      <trkpt lat="42.77265" lon="1.5417">
        <ele>1263.108</ele>
        <time>2021-03-06T08:26:23Z</time>
      </trkpt>
      <trkpt lat="42.77266" lon="1.5417">
        <ele>1262.435</ele>
        <time>2021-03-06T08:26:25Z</time>
      </trkpt>
      <trkpt lat="42.77268" lon="1.54172">
        <ele>1263.782</ele>
        <time>2021-03-06T08:26:27Z</time>
      </trkpt>
      <trkpt lat="42.77269" lon="1.54173">
        <ele>1265.169</ele>
        <time>2021-03-06T08:26:29Z</time>
      </trkpt>
      <trkpt lat="42.77269" lon="1.54176">
        <ele>1269.775</ele>
        <time>2021-03-06T08:26:31Z</time>
      </trkpt>
      <trkpt lat="42.7727" lon="1.54179">
        <ele>1271.153</ele>
        <time>2021-03-06T08:26:33Z</time>
      </trkpt>
      <trkpt lat="42.7727" lon="1.5418">
        <ele>1272.108</ele>
        <time>2021-03-06T08:26:35Z</time>
      </trkpt>
      <trkpt lat="42.77271" lon="1.54181">
        <ele>1272.57</ele>
        <time>2021-03-06T08:26:37Z</time>
      </trkpt>
      <trkpt lat="42.77272" lon="1.54183">
        <ele>1272.13</ele>
        <time>2021-03-06T08:26:39Z</time>
      </trkpt>
      <trkpt lat="42.77274" lon="1.54184">
        <ele>1273.853</ele>
        <time>2021-03-06T08:26:41Z</time>
      </trkpt>
      <trkpt lat="42.77276" lon="1.54184">
        <ele>1276.245</ele>
        <time>2021-03-06T08:26:43Z</time>
      </trkpt>
      <trkpt lat="42.77278" lon="1.54183">
        <ele>1277.162</ele>
        <time>2021-03-06T08:26:45Z</time>
      </trkpt>
      <trkpt lat="42.77281" lon="1.54182">
        <ele>1277.058</ele>
        <time>2021-03-06T08:26:47Z</time>
      </trkpt>
      <trkpt lat="42.77282" lon="1.54179">
        <ele>1275.97</ele>
        <time>2021-03-06T08:26:49Z</time>
      </trkpt>
      <trkpt lat="42.77283" lon="1.54176">
        <ele>1275.948</ele>
        <time>2021-03-06T08:26:51Z</time>
      </trkpt>
      <trkpt lat="42.77285" lon="1.54174">
        <ele>1276.528</ele>
        <time>2021-03-06T08:26:53Z</time>
      </trkpt>
      <trkpt lat="42.77286" lon="1.54171">
        <ele>1276.867</ele>
        <time>2021-03-06T08:26:55Z</time>
      </trkpt>
      <trkpt lat="42.77287" lon="1.54169">
        <ele>1276.533</ele>
        <time>2021-03-06T08:26:57Z</time>
      </trkpt>
      <trkpt lat="42.77288" lon="1.54167">
        <ele>1276.436</ele>
        <time>2021-03-06T08:26:59Z</time>
      </trkpt>
      <trkpt lat="42.77289" lon="1.54165">
        <ele>1276.364</ele>
        <time>2021-03-06T08:27:01Z</time>
      </trkpt>
      <trkpt lat="42.7729" lon="1.54162">
        <ele>1276.147</ele>
        <time>2021-03-06T08:27:03Z</time>
      </trkpt>
      <trkpt lat="42.7729" lon="1.5416">
        <ele>1276.372</ele>
        <time>2021-03-06T08:27:05Z</time>
      </trkpt>
      <trkpt lat="42.77291" lon="1.54158">
        <ele>1277.026</ele>
        <time>2021-03-06T08:27:07Z</time>
      </trkpt>
      <trkpt lat="42.77292" lon="1.54155">
        <ele>1276.695</ele>
        <time>2021-03-06T08:27:09Z</time>
      </trkpt>
      <trkpt lat="42.77292" lon="1.54152">
        <ele>1277.144</ele>
        <time>2021-03-06T08:27:11Z</time>
      </trkpt>
      <trkpt lat="42.77292" lon="1.5415">
        <ele>1277.19</ele>
        <time>2021-03-06T08:27:13Z</time>
      </trkpt>
      <trkpt lat="42.77291" lon="1.54148">
        <ele>1277.552</ele>
        <time>2021-03-06T08:27:15Z</time>
      </trkpt>
      <trkpt lat="42.7729" lon="1.54146">
        <ele>1276.98</ele>
        <time>2021-03-06T08:27:17Z</time>
      </trkpt>
      <trkpt lat="42.77289" lon="1.54144">
        <ele>1276.434</ele>
        <time>2021-03-06T08:27:19Z</time>
      </trkpt>
      <trkpt lat="42.77288" lon="1.54143">
        <ele>1276.925</ele>
        <time>2021-03-06T08:27:21Z</time>
      </trkpt>
      <trkpt lat="42.77287" lon="1.54143">
        <ele>1277.195</ele>
        <time>2021-03-06T08:27:23Z</time>
      </trkpt>
      <trkpt lat="42.77286" lon="1.54144">
        <ele>1278.424</ele>
        <time>2021-03-06T08:27:25Z</time>
      </trkpt>
      <trkpt lat="42.77285" lon="1.54143">
        <ele>1278.021</ele>
        <time>2021-03-06T08:27:27Z</time>
      </trkpt>
      <trkpt lat="42.77284" lon="1.54142">
        <ele>1277.751</ele>
        <time>2021-03-06T08:27:29Z</time>
      </trkpt>
      <trkpt lat="42.77283" lon="1.5414">
        <ele>1278.788</ele>
        <time>2021-03-06T08:27:31Z</time>
      </trkpt>
      <trkpt lat="42.77282" lon="1.54137">
        <ele>1279.962</ele>
        <time>2021-03-06T08:27:33Z</time>
      </trkpt>
      <trkpt lat="42.77281" lon="1.54137">
        <ele>1280.614</ele>
        <time>2021-03-06T08:27:35Z</time>
      </trkpt>
      <trkpt lat="42.7728" lon="1.54136">
        <ele>1281.079</ele>
        <time>2021-03-06T08:27:37Z</time>
      </trkpt>
      <trkpt lat="42.77279" lon="1.54135">
        <ele>1281.766</ele>
        <time>2021-03-06T08:27:39Z</time>
      </trkpt>
      <trkpt lat="42.77278" lon="1.54135">
        <ele>1282.304</ele>
        <time>2021-03-06T08:27:41Z</time>
      </trkpt>
      <trkpt lat="42.77277" lon="1.54133">
        <ele>1281.683</ele>
        <time>2021-03-06T08:27:43Z</time>
      </trkpt>
      <trkpt lat="42.77277" lon="1.54131">
        <ele>1281.901</ele>
        <time>2021-03-06T08:27:45Z</time>
      </trkpt>
      <trkpt lat="42.77276" lon="1.5413">
        <ele>1281.807</ele>
        <time>2021-03-06T08:27:47Z</time>
      </trkpt>
      <trkpt lat="42.77275" lon="1.54128">
        <ele>1282.104</ele>
        <time>2021-03-06T08:27:49Z</time>
      </trkpt>
      <trkpt lat="42.77273" lon="1.54128">
        <ele>1282.936</ele>
        <time>2021-03-06T08:27:51Z</time>
      </trkpt>
      <trkpt lat="42.77272" lon="1.54126">
        <ele>1283.388</ele>
        <time>2021-03-06T08:27:53Z</time>
      </trkpt>
      <trkpt lat="42.77271" lon="1.54125">
        <ele>1283.71</ele>
        <time>2021-03-06T08:27:55Z</time>
      </trkpt>
      <trkpt lat="42.77269" lon="1.54123">
        <ele>1283.468</ele>
        <time>2021-03-06T08:27:57Z</time>
      </trkpt>
      <trkpt lat="42.77267" lon="1.54123">
        <ele>1284.385</ele>
        <time>2021-03-06T08:27:59Z</time>
      </trkpt>
      <trkpt lat="42.77265" lon="1.54122">
        <ele>1284.754</ele>
        <time>2021-03-06T08:28:01Z</time>
      </trkpt>
      <trkpt lat="42.77264" lon="1.54122">
        <ele>1284.813</ele>
        <time>2021-03-06T08:28:03Z</time>
      </trkpt>
      <trkpt lat="42.77262" lon="1.54121">
        <ele>1283.631</ele>
        <time>2021-03-06T08:28:05Z</time>
      </trkpt>
      <trkpt lat="42.77261" lon="1.54119">
        <ele>1284.398</ele>
        <time>2021-03-06T08:28:07Z</time>
      </trkpt>
      <trkpt lat="42.77259" lon="1.54119">
        <ele>1284.792</ele>
        <time>2021-03-06T08:28:09Z</time>
      </trkpt>
      <trkpt lat="42.77257" lon="1.54118">
        <ele>1285.106</ele>
        <time>2021-03-06T08:28:11Z</time>
      </trkpt>
      <trkpt lat="42.77255" lon="1.54118">
        <ele>1285.38</ele>
        <time>2021-03-06T08:28:13Z</time>
      </trkpt>
      <trkpt lat="42.77253" lon="1.54117">
        <ele>1285.117</ele>
        <time>2021-03-06T08:28:15Z</time>
      </trkpt>
      <trkpt lat="42.77252" lon="1.54116">
        <ele>1284.242</ele>
        <time>2021-03-06T08:28:17Z</time>
      </trkpt>
      <trkpt lat="42.7725" lon="1.54114">
        <ele>1284.813</ele>
        <time>2021-03-06T08:28:19Z</time>
      </trkpt>
      <trkpt lat="42.77249" lon="1.54113">
        <ele>1284.945</ele>
        <time>2021-03-06T08:28:21Z</time>
      </trkpt>
      <trkpt lat="42.77248" lon="1.54112">
        <ele>1285.258</ele>
        <time>2021-03-06T08:28:23Z</time>
      </trkpt>
      <trkpt lat="42.77246" lon="1.5411">
        <ele>1285.832</ele>
        <time>2021-03-06T08:28:25Z</time>
      </trkpt>
      <trkpt lat="42.77245" lon="1.54109">
        <ele>1285.918</ele>
        <time>2021-03-06T08:28:27Z</time>
      </trkpt>
      <trkpt lat="42.77243" lon="1.54109">
        <ele>1286.85</ele>
        <time>2021-03-06T08:28:29Z</time>
      </trkpt>
      <trkpt lat="42.77244" lon="1.54107">
        <ele>1285.568</ele>
        <time>2021-03-06T08:28:31Z</time>
      </trkpt>
      <trkpt lat="42.77244" lon="1.54107">
        <ele>1285.587</ele>
        <time>2021-03-06T08:28:33Z</time>
      </trkpt>
      <trkpt lat="42.77243" lon="1.54105">
        <ele>1285.777</ele>
        <time>2021-03-06T08:28:35Z</time>
      </trkpt>
      <trkpt lat="42.77241" lon="1.54105">
        <ele>1286.179</ele>
        <time>2021-03-06T08:28:37Z</time>
      </trkpt>
      <trkpt lat="42.7724" lon="1.54105">
        <ele>1286.671</ele>
        <time>2021-03-06T08:28:39Z</time>
      </trkpt>
      <trkpt lat="42.77238" lon="1.54104">
        <ele>1287.38</ele>
        <time>2021-03-06T08:28:41Z</time>
      </trkpt>
      <trkpt lat="42.77236" lon="1.54103">
        <ele>1288.162</ele>
        <time>2021-03-06T08:28:43Z</time>
      </trkpt>
      <trkpt lat="42.77235" lon="1.541">
        <ele>1287.369</ele>
        <time>2021-03-06T08:28:45Z</time>
      </trkpt>
      <trkpt lat="42.77231" lon="1.54103">
        <ele>1289.527</ele>
        <time>2021-03-06T08:28:47Z</time>
      </trkpt>
      <trkpt lat="42.77229" lon="1.54102">
        <ele>1290.37</ele>
        <time>2021-03-06T08:28:49Z</time>
      </trkpt>
      <trkpt lat="42.77227" lon="1.541">
        <ele>1290.288</ele>
        <time>2021-03-06T08:28:51Z</time>
      </trkpt>
      <trkpt lat="42.77225" lon="1.54098">
        <ele>1291.263</ele>
        <time>2021-03-06T08:28:53Z</time>
      </trkpt>
      <trkpt lat="42.77223" lon="1.54097">
        <ele>1291.328</ele>
        <time>2021-03-06T08:28:55Z</time>
      </trkpt>
      <trkpt lat="42.77222" lon="1.54094">
        <ele>1289.438</ele>
        <time>2021-03-06T08:28:57Z</time>
      </trkpt>
      <trkpt lat="42.77221" lon="1.54091">
        <ele>1289.226</ele>
        <time>2021-03-06T08:28:59Z</time>
      </trkpt>
      <trkpt lat="42.7722" lon="1.54089">
        <ele>1289.012</ele>
        <time>2021-03-06T08:29:01Z</time>
      </trkpt>
      <trkpt lat="42.77218" lon="1.54088">
        <ele>1289.62</ele>
        <time>2021-03-06T08:29:03Z</time>
      </trkpt>
      <trkpt lat="42.77216" lon="1.54087">
        <ele>1289.58</ele>
        <time>2021-03-06T08:29:05Z</time>
      </trkpt>
      <trkpt lat="42.77214" lon="1.54086">
        <ele>1289.574</ele>
        <time>2021-03-06T08:29:07Z</time>
      </trkpt>
      <trkpt lat="42.77212" lon="1.54084">
        <ele>1289.892</ele>
        <time>2021-03-06T08:29:09Z</time>
      </trkpt>
      <trkpt lat="42.7721" lon="1.54083">
        <ele>1289.343</ele>
        <time>2021-03-06T08:29:11Z</time>
      </trkpt>
      <trkpt lat="42.77208" lon="1.54082">
        <ele>1289.015</ele>
        <time>2021-03-06T08:29:13Z</time>
      </trkpt>
      <trkpt lat="42.77206" lon="1.5408">
        <ele>1288.944</ele>
        <time>2021-03-06T08:29:15Z</time>
      </trkpt>
      <trkpt lat="42.77204" lon="1.54079">
        <ele>1288.464</ele>
        <time>2021-03-06T08:29:17Z</time>
      </trkpt>
      <trkpt lat="42.77201" lon="1.54077">
        <ele>1287.915</ele>
        <time>2021-03-06T08:29:19Z</time>
      </trkpt>
      <trkpt lat="42.772" lon="1.54076">
        <ele>1287.337</ele>
        <time>2021-03-06T08:29:21Z</time>
      </trkpt>
      <trkpt lat="42.77203" lon="1.54072">
        <ele>1287.667</ele>
        <time>2021-03-06T08:29:23Z</time>
      </trkpt>
      <trkpt lat="42.77204" lon="1.54075">
        <ele>1290.192</ele>
        <time>2021-03-06T08:29:25Z</time>
      </trkpt>
      <trkpt lat="42.77203" lon="1.54076">
        <ele>1291.593</ele>
        <time>2021-03-06T08:29:27Z</time>
      </trkpt>
      <trkpt lat="42.77201" lon="1.54075">
        <ele>1291.472</ele>
        <time>2021-03-06T08:29:29Z</time>
      </trkpt>
      <trkpt lat="42.77195" lon="1.54071">
        <ele>1288.672</ele>
        <time>2021-03-06T08:29:31Z</time>
      </trkpt>
      <trkpt lat="42.77194" lon="1.54069">
        <ele>1288.311</ele>
        <time>2021-03-06T08:29:33Z</time>
      </trkpt>
      <trkpt lat="42.77193" lon="1.54068">
        <ele>1287.301</ele>
        <time>2021-03-06T08:29:35Z</time>
      </trkpt>
      <trkpt lat="42.77192" lon="1.54066">
        <ele>1285.88</ele>
        <time>2021-03-06T08:29:37Z</time>
      </trkpt>
      <trkpt lat="42.77191" lon="1.54065">
        <ele>1285.43</ele>
        <time>2021-03-06T08:29:39Z</time>
      </trkpt>
      <trkpt lat="42.7719" lon="1.54063">
        <ele>1284.422</ele>
        <time>2021-03-06T08:29:41Z</time>
      </trkpt>
      <trkpt lat="42.77188" lon="1.5406">
        <ele>1283.341</ele>
        <time>2021-03-06T08:29:43Z</time>
      </trkpt>
      <trkpt lat="42.77187" lon="1.54058">
        <ele>1285.177</ele>
        <time>2021-03-06T08:29:45Z</time>
      </trkpt>
      <trkpt lat="42.77185" lon="1.54055">
        <ele>1285.666</ele>
        <time>2021-03-06T08:29:47Z</time>
      </trkpt>
      <trkpt lat="42.77184" lon="1.54053">
        <ele>1284.759</ele>
        <time>2021-03-06T08:29:49Z</time>
      </trkpt>
      <trkpt lat="42.77184" lon="1.54051">
        <ele>1282.941</ele>
        <time>2021-03-06T08:29:51Z</time>
      </trkpt>
      <trkpt lat="42.77184" lon="1.54049">
        <ele>1281.402</ele>
        <time>2021-03-06T08:29:53Z</time>
      </trkpt>
      <trkpt lat="42.77183" lon="1.54046">
        <ele>1281.464</ele>
        <time>2021-03-06T08:29:55Z</time>
      </trkpt>
      <trkpt lat="42.77182" lon="1.54044">
        <ele>1283.158</ele>
        <time>2021-03-06T08:29:57Z</time>
      </trkpt>
      <trkpt lat="42.77182" lon="1.54041">
        <ele>1285.187</ele>
        <time>2021-03-06T08:29:59Z</time>
      </trkpt>
      <trkpt lat="42.77182" lon="1.54039">
        <ele>1285.981</ele>
        <time>2021-03-06T08:30:01Z</time>
      </trkpt>
      <trkpt lat="42.77182" lon="1.54036">
        <ele>1286.127</ele>
        <time>2021-03-06T08:30:03Z</time>
      </trkpt>
      <trkpt lat="42.77182" lon="1.54034">
        <ele>1286.803</ele>
        <time>2021-03-06T08:30:05Z</time>
      </trkpt>
      <trkpt lat="42.77183" lon="1.54031">
        <ele>1288.199</ele>
        <time>2021-03-06T08:30:07Z</time>
      </trkpt>
      <trkpt lat="42.77182" lon="1.54027">
        <ele>1287.635</ele>
        <time>2021-03-06T08:30:09Z</time>
      </trkpt>
      <trkpt lat="42.77181" lon="1.54025">
        <ele>1287.154</ele>
        <time>2021-03-06T08:30:11Z</time>
      </trkpt>
      <trkpt lat="42.77181" lon="1.54023">
        <ele>1287.38</ele>
        <time>2021-03-06T08:30:13Z</time>
      </trkpt>
      <trkpt lat="42.7718" lon="1.5402">
        <ele>1289.164</ele>
        <time>2021-03-06T08:30:15Z</time>
      </trkpt>
      <trkpt lat="42.77179" lon="1.54018">
        <ele>1289.638</ele>
        <time>2021-03-06T08:30:17Z</time>
      </trkpt>
      <trkpt lat="42.77178" lon="1.54016">
        <ele>1289.796</ele>
        <time>2021-03-06T08:30:19Z</time>
      </trkpt>
      <trkpt lat="42.77178" lon="1.54014">
        <ele>1289.513</ele>
        <time>2021-03-06T08:30:21Z</time>
      </trkpt>
      <trkpt lat="42.77178" lon="1.54012">
        <ele>1288.952</ele>
        <time>2021-03-06T08:30:23Z</time>
      </trkpt>
      <trkpt lat="42.77178" lon="1.5401">
        <ele>1288.335</ele>
        <time>2021-03-06T08:30:25Z</time>
      </trkpt>
      <trkpt lat="42.77178" lon="1.54008">
        <ele>1287.4</ele>
        <time>2021-03-06T08:30:27Z</time>
      </trkpt>
      <trkpt lat="42.77177" lon="1.54005">
        <ele>1288.324</ele>
        <time>2021-03-06T08:30:29Z</time>
      </trkpt>
      <trkpt lat="42.77176" lon="1.54002">
        <ele>1288.516</ele>
        <time>2021-03-06T08:30:31Z</time>
      </trkpt>
      <trkpt lat="42.77175" lon="1.54">
        <ele>1289.139</ele>
        <time>2021-03-06T08:30:33Z</time>
      </trkpt>
      <trkpt lat="42.77175" lon="1.53997">
        <ele>1290.878</ele>
        <time>2021-03-06T08:30:35Z</time>
      </trkpt>
      <trkpt lat="42.77175" lon="1.53994">
        <ele>1290.818</ele>
        <time>2021-03-06T08:30:37Z</time>
      </trkpt>
      <trkpt lat="42.77174" lon="1.53991">
        <ele>1291.674</ele>
        <time>2021-03-06T08:30:39Z</time>
      </trkpt>
      <trkpt lat="42.77173" lon="1.53988">
        <ele>1292.647</ele>
        <time>2021-03-06T08:30:41Z</time>
      </trkpt>
      <trkpt lat="42.77172" lon="1.53986">
        <ele>1292.394</ele>
        <time>2021-03-06T08:30:43Z</time>
      </trkpt>
      <trkpt lat="42.77172" lon="1.53983">
        <ele>1291.7</ele>
        <time>2021-03-06T08:30:45Z</time>
      </trkpt>
      <trkpt lat="42.77171" lon="1.53981">
        <ele>1291.563</ele>
        <time>2021-03-06T08:30:47Z</time>
      </trkpt>
      <trkpt lat="42.77172" lon="1.53979">
        <ele>1291.197</ele>
        <time>2021-03-06T08:30:49Z</time>
      </trkpt>
      <trkpt lat="42.77172" lon="1.53976">
        <ele>1291.479</ele>
        <time>2021-03-06T08:30:51Z</time>
      </trkpt>
      <trkpt lat="42.77172" lon="1.53974">
        <ele>1293.053</ele>
        <time>2021-03-06T08:30:53Z</time>
      </trkpt>
      <trkpt lat="42.77172" lon="1.53971">
        <ele>1293.061</ele>
        <time>2021-03-06T08:30:55Z</time>
      </trkpt>
      <trkpt lat="42.77172" lon="1.53969">
        <ele>1292.536</ele>
        <time>2021-03-06T08:30:57Z</time>
      </trkpt>
      <trkpt lat="42.77172" lon="1.53966">
        <ele>1292.223</ele>
        <time>2021-03-06T08:30:59Z</time>
      </trkpt>
      <trkpt lat="42.77172" lon="1.53964">
        <ele>1294.822</ele>
        <time>2021-03-06T08:31:01Z</time>
      </trkpt>
      <trkpt lat="42.77172" lon="1.53962">
        <ele>1294.537</ele>
        <time>2021-03-06T08:31:03Z</time>
      </trkpt>
      <trkpt lat="42.77172" lon="1.5396">
        <ele>1296.319</ele>
        <time>2021-03-06T08:31:05Z</time>
      </trkpt>
      <trkpt lat="42.77172" lon="1.53957">
        <ele>1298.578</ele>
        <time>2021-03-06T08:31:07Z</time>
      </trkpt>
      <trkpt lat="42.77172" lon="1.53954">
        <ele>1299.886</ele>
        <time>2021-03-06T08:31:09Z</time>
      </trkpt>
      <trkpt lat="42.77172" lon="1.5395">
        <ele>1300.544</ele>
        <time>2021-03-06T08:31:11Z</time>
      </trkpt>
      <trkpt lat="42.77173" lon="1.5395">
        <ele>1297.697</ele>
        <time>2021-03-06T08:31:13Z</time>
      </trkpt>
      <trkpt lat="42.77173" lon="1.53951">
        <ele>1297.911</ele>
        <time>2021-03-06T08:31:15Z</time>
      </trkpt>
      <trkpt lat="42.77175" lon="1.53951">
        <ele>1298.392</ele>
        <time>2021-03-06T08:31:17Z</time>
      </trkpt>
      <trkpt lat="42.77175" lon="1.5395">
        <ele>1298.797</ele>
        <time>2021-03-06T08:31:19Z</time>
      </trkpt>
      <trkpt lat="42.77175" lon="1.53948">
        <ele>1301.306</ele>
        <time>2021-03-06T08:31:21Z</time>
      </trkpt>
      <trkpt lat="42.77176" lon="1.53945">
        <ele>1301.24</ele>
        <time>2021-03-06T08:31:23Z</time>
      </trkpt>
      <trkpt lat="42.77175" lon="1.53943">
        <ele>1300.754</ele>
        <time>2021-03-06T08:31:25Z</time>
      </trkpt>
      <trkpt lat="42.77175" lon="1.5394">
        <ele>1301.791</ele>
        <time>2021-03-06T08:31:27Z</time>
      </trkpt>
      <trkpt lat="42.77175" lon="1.53937">
        <ele>1301.852</ele>
        <time>2021-03-06T08:31:29Z</time>
      </trkpt>
      <trkpt lat="42.77174" lon="1.53934">
        <ele>1301.133</ele>
        <time>2021-03-06T08:31:31Z</time>
      </trkpt>
      <trkpt lat="42.77174" lon="1.53931">
        <ele>1300.924</ele>
        <time>2021-03-06T08:31:33Z</time>
      </trkpt>
      <trkpt lat="42.77173" lon="1.53929">
        <ele>1300.047</ele>
        <time>2021-03-06T08:31:35Z</time>
      </trkpt>
      <trkpt lat="42.77173" lon="1.53926">
        <ele>1300.617</ele>
        <time>2021-03-06T08:31:37Z</time>
      </trkpt>
      <trkpt lat="42.77174" lon="1.53922">
        <ele>1300.351</ele>
        <time>2021-03-06T08:31:39Z</time>
      </trkpt>
      <trkpt lat="42.77173" lon="1.5392">
        <ele>1300.258</ele>
        <time>2021-03-06T08:31:41Z</time>
      </trkpt>
      <trkpt lat="42.77172" lon="1.53917">
        <ele>1299.668</ele>
        <time>2021-03-06T08:31:43Z</time>
      </trkpt>
      <trkpt lat="42.77171" lon="1.53914">
        <ele>1299.899</ele>
        <time>2021-03-06T08:31:45Z</time>
      </trkpt>
      <trkpt lat="42.7717" lon="1.5391">
        <ele>1299.691</ele>
        <time>2021-03-06T08:31:47Z</time>
      </trkpt>
      <trkpt lat="42.7717" lon="1.53907">
        <ele>1299.942</ele>
        <time>2021-03-06T08:31:49Z</time>
      </trkpt>
      <trkpt lat="42.77169" lon="1.53907">
        <ele>1299.651</ele>
        <time>2021-03-06T08:31:51Z</time>
      </trkpt>
      <trkpt lat="42.77169" lon="1.53908">
        <ele>1299.748</ele>
        <time>2021-03-06T08:31:53Z</time>
      </trkpt>
      <trkpt lat="42.77169" lon="1.53908">
        <ele>1299.806</ele>
        <time>2021-03-06T08:31:55Z</time>
      </trkpt>
      <trkpt lat="42.77169" lon="1.53908">
        <ele>1299.853</ele>
        <time>2021-03-06T08:31:57Z</time>
      </trkpt>
      <trkpt lat="42.77169" lon="1.53908">
        <ele>1299.868</ele>
        <time>2021-03-06T08:31:59Z</time>
      </trkpt>
      <trkpt lat="42.77169" lon="1.53907">
        <ele>1300.61</ele>
        <time>2021-03-06T08:32:01Z</time>
      </trkpt>
      <trkpt lat="42.77169" lon="1.53904">
        <ele>1301.587</ele>
        <time>2021-03-06T08:32:03Z</time>
      </trkpt>
      <trkpt lat="42.77169" lon="1.53904">
        <ele>1301.59</ele>
        <time>2021-03-06T08:32:05Z</time>
      </trkpt>
      <trkpt lat="42.7717" lon="1.53906">
        <ele>1303.427</ele>
        <time>2021-03-06T08:32:07Z</time>
      </trkpt>
      <trkpt lat="42.77169" lon="1.53908">
        <ele>1302.96</ele>
        <time>2021-03-06T08:32:09Z</time>
      </trkpt>
      <trkpt lat="42.77169" lon="1.5391">
        <ele>1303.133</ele>
        <time>2021-03-06T08:32:11Z</time>
      </trkpt>
      <trkpt lat="42.7717" lon="1.53912">
        <ele>1302.664</ele>
        <time>2021-03-06T08:32:13Z</time>
      </trkpt>
      <trkpt lat="42.77171" lon="1.53914">
        <ele>1302.672</ele>
        <time>2021-03-06T08:32:15Z</time>
      </trkpt>
      <trkpt lat="42.77171" lon="1.53916">
        <ele>1302.461</ele>
        <time>2021-03-06T08:32:17Z</time>
      </trkpt>
      <trkpt lat="42.77172" lon="1.53919">
        <ele>1301.617</ele>
        <time>2021-03-06T08:32:19Z</time>
      </trkpt>
      <trkpt lat="42.77172" lon="1.53921">
        <ele>1301.196</ele>
        <time>2021-03-06T08:32:21Z</time>
      </trkpt>
      <trkpt lat="42.77171" lon="1.53923">
        <ele>1302.293</ele>
        <time>2021-03-06T08:32:23Z</time>
      </trkpt>
      <trkpt lat="42.77171" lon="1.53925">
        <ele>1302.501</ele>
        <time>2021-03-06T08:32:25Z</time>
      </trkpt>
      <trkpt lat="42.7717" lon="1.53928">
        <ele>1302.297</ele>
        <time>2021-03-06T08:32:27Z</time>
      </trkpt>
      <trkpt lat="42.77169" lon="1.5393">
        <ele>1301.657</ele>
        <time>2021-03-06T08:32:29Z</time>
      </trkpt>
      <trkpt lat="42.77168" lon="1.53932">
        <ele>1302.194</ele>
        <time>2021-03-06T08:32:31Z</time>
      </trkpt>
      <trkpt lat="42.77166" lon="1.53933">
        <ele>1301.44</ele>
        <time>2021-03-06T08:32:33Z</time>
      </trkpt>
      <trkpt lat="42.77164" lon="1.53935">
        <ele>1301.592</ele>
        <time>2021-03-06T08:32:35Z</time>
      </trkpt>
      <trkpt lat="42.77163" lon="1.53937">
        <ele>1301.997</ele>
        <time>2021-03-06T08:32:37Z</time>
      </trkpt>
      <trkpt lat="42.77162" lon="1.53938">
        <ele>1302.423</ele>
        <time>2021-03-06T08:32:39Z</time>
      </trkpt>
      <trkpt lat="42.7716" lon="1.5394">
        <ele>1302.527</ele>
        <time>2021-03-06T08:32:41Z</time>
      </trkpt>
      <trkpt lat="42.77159" lon="1.53941">
        <ele>1302.225</ele>
        <time>2021-03-06T08:32:43Z</time>
      </trkpt>
      <trkpt lat="42.77157" lon="1.53942">
        <ele>1301.19</ele>
        <time>2021-03-06T08:32:45Z</time>
      </trkpt>
      <trkpt lat="42.77155" lon="1.53942">
        <ele>1300.094</ele>
        <time>2021-03-06T08:32:47Z</time>
      </trkpt>
      <trkpt lat="42.77152" lon="1.53943">
        <ele>1299.732</ele>
        <time>2021-03-06T08:32:49Z</time>
      </trkpt>
      <trkpt lat="42.7715" lon="1.53944">
        <ele>1299.242</ele>
        <time>2021-03-06T08:32:51Z</time>
      </trkpt>
      <trkpt lat="42.77148" lon="1.53945">
        <ele>1299.773</ele>
        <time>2021-03-06T08:32:53Z</time>
      </trkpt>
      <trkpt lat="42.77145" lon="1.53947">
        <ele>1301.442</ele>
        <time>2021-03-06T08:32:55Z</time>
      </trkpt>
      <trkpt lat="42.77143" lon="1.53947">
        <ele>1301.345</ele>
        <time>2021-03-06T08:32:57Z</time>
      </trkpt>
      <trkpt lat="42.7714" lon="1.53948">
        <ele>1300.318</ele>
        <time>2021-03-06T08:32:59Z</time>
      </trkpt>
      <trkpt lat="42.77138" lon="1.5395">
        <ele>1301.208</ele>
        <time>2021-03-06T08:33:01Z</time>
      </trkpt>
      <trkpt lat="42.77139" lon="1.53945">
        <ele>1296.279</ele>
        <time>2021-03-06T08:33:03Z</time>
      </trkpt>
      <trkpt lat="42.77137" lon="1.53944">
        <ele>1295.841</ele>
        <time>2021-03-06T08:33:05Z</time>
      </trkpt>
      <trkpt lat="42.77135" lon="1.53944">
        <ele>1295.065</ele>
        <time>2021-03-06T08:33:07Z</time>
      </trkpt>
      <trkpt lat="42.77132" lon="1.53945">
        <ele>1295.726</ele>
        <time>2021-03-06T08:33:09Z</time>
      </trkpt>
      <trkpt lat="42.7713" lon="1.53946">
        <ele>1296.189</ele>
        <time>2021-03-06T08:33:11Z</time>
      </trkpt>
      <trkpt lat="42.77128" lon="1.53947">
        <ele>1295.666</ele>
        <time>2021-03-06T08:33:13Z</time>
      </trkpt>
      <trkpt lat="42.77126" lon="1.53948">
        <ele>1295.335</ele>
        <time>2021-03-06T08:33:15Z</time>
      </trkpt>
      <trkpt lat="42.77123" lon="1.53949">
        <ele>1295.453</ele>
        <time>2021-03-06T08:33:17Z</time>
      </trkpt>
      <trkpt lat="42.77121" lon="1.53949">
        <ele>1294.887</ele>
        <time>2021-03-06T08:33:19Z</time>
      </trkpt>
      <trkpt lat="42.77118" lon="1.53951">
        <ele>1294.202</ele>
        <time>2021-03-06T08:33:21Z</time>
      </trkpt>
      <trkpt lat="42.77115" lon="1.53952">
        <ele>1293.751</ele>
        <time>2021-03-06T08:33:23Z</time>
      </trkpt>
      <trkpt lat="42.77113" lon="1.53953">
        <ele>1293.036</ele>
        <time>2021-03-06T08:33:25Z</time>
      </trkpt>
      <trkpt lat="42.77111" lon="1.53954">
        <ele>1294.848</ele>
        <time>2021-03-06T08:33:27Z</time>
      </trkpt>
      <trkpt lat="42.7711" lon="1.53956">
        <ele>1295.242</ele>
        <time>2021-03-06T08:33:29Z</time>
      </trkpt>
      <trkpt lat="42.77107" lon="1.53956">
        <ele>1295.513</ele>
        <time>2021-03-06T08:33:31Z</time>
      </trkpt>
      <trkpt lat="42.77105" lon="1.53957">
        <ele>1295.551</ele>
        <time>2021-03-06T08:33:33Z</time>
      </trkpt>
      <trkpt lat="42.77103" lon="1.53959">
        <ele>1295.944</ele>
        <time>2021-03-06T08:33:35Z</time>
      </trkpt>
      <trkpt lat="42.77101" lon="1.53959">
        <ele>1295.177</ele>
        <time>2021-03-06T08:33:37Z</time>
      </trkpt>
      <trkpt lat="42.77099" lon="1.5396">
        <ele>1295.121</ele>
        <time>2021-03-06T08:33:39Z</time>
      </trkpt>
      <trkpt lat="42.77097" lon="1.53961">
        <ele>1295.232</ele>
        <time>2021-03-06T08:33:41Z</time>
      </trkpt>
      <trkpt lat="42.77095" lon="1.53962">
        <ele>1295.422</ele>
        <time>2021-03-06T08:33:43Z</time>
      </trkpt>
      <trkpt lat="42.77093" lon="1.53963">
        <ele>1296.236</ele>
        <time>2021-03-06T08:33:45Z</time>
      </trkpt>
      <trkpt lat="42.77091" lon="1.53964">
        <ele>1297.098</ele>
        <time>2021-03-06T08:33:47Z</time>
      </trkpt>
      <trkpt lat="42.77089" lon="1.53965">
        <ele>1296.938</ele>
        <time>2021-03-06T08:33:49Z</time>
      </trkpt>
      <trkpt lat="42.77087" lon="1.53966">
        <ele>1296.968</ele>
        <time>2021-03-06T08:33:51Z</time>
      </trkpt>
      <trkpt lat="42.77085" lon="1.53966">
        <ele>1297.518</ele>
        <time>2021-03-06T08:33:53Z</time>
      </trkpt>
      <trkpt lat="42.77082" lon="1.53967">
        <ele>1297.928</ele>
        <time>2021-03-06T08:33:55Z</time>
      </trkpt>
      <trkpt lat="42.77079" lon="1.53967">
        <ele>1298.506</ele>
        <time>2021-03-06T08:33:57Z</time>
      </trkpt>
      <trkpt lat="42.77077" lon="1.53968">
        <ele>1298.345</ele>
        <time>2021-03-06T08:33:59Z</time>
      </trkpt>
      <trkpt lat="42.77075" lon="1.53968">
        <ele>1298.086</ele>
        <time>2021-03-06T08:34:01Z</time>
      </trkpt>
      <trkpt lat="42.77073" lon="1.53968">
        <ele>1297.679</ele>
        <time>2021-03-06T08:34:03Z</time>
      </trkpt>
      <trkpt lat="42.7707" lon="1.53968">
        <ele>1296.828</ele>
        <time>2021-03-06T08:34:05Z</time>
      </trkpt>
      <trkpt lat="42.77068" lon="1.53967">
        <ele>1296.112</ele>
        <time>2021-03-06T08:34:07Z</time>
      </trkpt>
      <trkpt lat="42.77066" lon="1.53967">
        <ele>1294.384</ele>
        <time>2021-03-06T08:34:09Z</time>
      </trkpt>
      <trkpt lat="42.77063" lon="1.53967">
        <ele>1293.4</ele>
        <time>2021-03-06T08:34:11Z</time>
      </trkpt>
      <trkpt lat="42.77061" lon="1.53967">
        <ele>1292.821</ele>
        <time>2021-03-06T08:34:13Z</time>
      </trkpt>
      <trkpt lat="42.77058" lon="1.53968">
        <ele>1292.898</ele>
        <time>2021-03-06T08:34:15Z</time>
      </trkpt>
      <trkpt lat="42.77056" lon="1.53969">
        <ele>1292.343</ele>
        <time>2021-03-06T08:34:17Z</time>
      </trkpt>
      <trkpt lat="42.77054" lon="1.53969">
        <ele>1292.53</ele>
        <time>2021-03-06T08:34:19Z</time>
      </trkpt>
      <trkpt lat="42.77051" lon="1.5397">
        <ele>1292.496</ele>
        <time>2021-03-06T08:34:21Z</time>
      </trkpt>
      <trkpt lat="42.77049" lon="1.53971">
        <ele>1293.081</ele>
        <time>2021-03-06T08:34:23Z</time>
      </trkpt>
      <trkpt lat="42.77046" lon="1.53971">
        <ele>1292.813</ele>
        <time>2021-03-06T08:34:25Z</time>
      </trkpt>
      <trkpt lat="42.77044" lon="1.53973">
        <ele>1294.654</ele>
        <time>2021-03-06T08:34:27Z</time>
      </trkpt>
      <trkpt lat="42.77042" lon="1.53974">
        <ele>1295.493</ele>
        <time>2021-03-06T08:34:29Z</time>
      </trkpt>
      <trkpt lat="42.77039" lon="1.53976">
        <ele>1295.401</ele>
        <time>2021-03-06T08:34:31Z</time>
      </trkpt>
      <trkpt lat="42.77037" lon="1.53977">
        <ele>1295.533</ele>
        <time>2021-03-06T08:34:33Z</time>
      </trkpt>
      <trkpt lat="42.77035" lon="1.53978">
        <ele>1296.617</ele>
        <time>2021-03-06T08:34:35Z</time>
      </trkpt>
      <trkpt lat="42.77032" lon="1.5398">
        <ele>1297.362</ele>
        <time>2021-03-06T08:34:37Z</time>
      </trkpt>
      <trkpt lat="42.7703" lon="1.5398">
        <ele>1297.157</ele>
        <time>2021-03-06T08:34:39Z</time>
      </trkpt>
      <trkpt lat="42.77028" lon="1.53981">
        <ele>1297.412</ele>
        <time>2021-03-06T08:34:41Z</time>
      </trkpt>
      <trkpt lat="42.77025" lon="1.53982">
        <ele>1298.303</ele>
        <time>2021-03-06T08:34:43Z</time>
      </trkpt>
      <trkpt lat="42.77023" lon="1.53982">
        <ele>1299.051</ele>
        <time>2021-03-06T08:34:45Z</time>
      </trkpt>
      <trkpt lat="42.7702" lon="1.53983">
        <ele>1300.645</ele>
        <time>2021-03-06T08:34:47Z</time>
      </trkpt>
      <trkpt lat="42.77017" lon="1.53985">
        <ele>1302.805</ele>
        <time>2021-03-06T08:34:49Z</time>
      </trkpt>
      <trkpt lat="42.77015" lon="1.53985">
        <ele>1302.181</ele>
        <time>2021-03-06T08:34:51Z</time>
      </trkpt>
      <trkpt lat="42.77013" lon="1.53987">
        <ele>1302.384</ele>
        <time>2021-03-06T08:34:53Z</time>
      </trkpt>
      <trkpt lat="42.7701" lon="1.53987">
        <ele>1301.296</ele>
        <time>2021-03-06T08:34:55Z</time>
      </trkpt>
      <trkpt lat="42.77008" lon="1.53989">
        <ele>1302.164</ele>
        <time>2021-03-06T08:34:57Z</time>
      </trkpt>
      <trkpt lat="42.77006" lon="1.5399">
        <ele>1300.724</ele>
        <time>2021-03-06T08:34:59Z</time>
      </trkpt>
      <trkpt lat="42.77003" lon="1.5399">
        <ele>1299.995</ele>
        <time>2021-03-06T08:35:01Z</time>
      </trkpt>
      <trkpt lat="42.77001" lon="1.53991">
        <ele>1300.109</ele>
        <time>2021-03-06T08:35:03Z</time>
      </trkpt>
      <trkpt lat="42.76999" lon="1.53991">
        <ele>1299.759</ele>
        <time>2021-03-06T08:35:05Z</time>
      </trkpt>
      <trkpt lat="42.76997" lon="1.53992">
        <ele>1299.544</ele>
        <time>2021-03-06T08:35:07Z</time>
      </trkpt>
      <trkpt lat="42.76994" lon="1.53993">
        <ele>1301.154</ele>
        <time>2021-03-06T08:35:09Z</time>
      </trkpt>
      <trkpt lat="42.76991" lon="1.53995">
        <ele>1302.068</ele>
        <time>2021-03-06T08:35:11Z</time>
      </trkpt>
      <trkpt lat="42.76989" lon="1.53995">
        <ele>1301.203</ele>
        <time>2021-03-06T08:35:13Z</time>
      </trkpt>
      <trkpt lat="42.76987" lon="1.53996">
        <ele>1298.942</ele>
        <time>2021-03-06T08:35:15Z</time>
      </trkpt>
      <trkpt lat="42.76984" lon="1.53996">
        <ele>1298.397</ele>
        <time>2021-03-06T08:35:17Z</time>
      </trkpt>
      <trkpt lat="42.76982" lon="1.53997">
        <ele>1298.014</ele>
        <time>2021-03-06T08:35:19Z</time>
      </trkpt>
      <trkpt lat="42.7698" lon="1.53998">
        <ele>1297.415</ele>
        <time>2021-03-06T08:35:21Z</time>
      </trkpt>
      <trkpt lat="42.76978" lon="1.53999">
        <ele>1296.928</ele>
        <time>2021-03-06T08:35:23Z</time>
      </trkpt>
      <trkpt lat="42.76977" lon="1.54003">
        <ele>1300.287</ele>
        <time>2021-03-06T08:35:25Z</time>
      </trkpt>
      <trkpt lat="42.76979" lon="1.54001">
        <ele>1299.104</ele>
        <time>2021-03-06T08:35:27Z</time>
      </trkpt>
      <trkpt lat="42.7698" lon="1.54002">
        <ele>1301.086</ele>
        <time>2021-03-06T08:35:29Z</time>
      </trkpt>
      <trkpt lat="42.76982" lon="1.54001">
        <ele>1302.218</ele>
        <time>2021-03-06T08:35:31Z</time>
      </trkpt>
      <trkpt lat="42.76984" lon="1.54001">
        <ele>1302.9</ele>
        <time>2021-03-06T08:35:33Z</time>
      </trkpt>
      <trkpt lat="42.76985" lon="1.54">
        <ele>1303.922</ele>
        <time>2021-03-06T08:35:35Z</time>
      </trkpt>
      <trkpt lat="42.76987" lon="1.54">
        <ele>1305.239</ele>
        <time>2021-03-06T08:35:37Z</time>
      </trkpt>
      <trkpt lat="42.76988" lon="1.54">
        <ele>1306.159</ele>
        <time>2021-03-06T08:35:39Z</time>
      </trkpt>
      <trkpt lat="42.7699" lon="1.53999">
        <ele>1307.168</ele>
        <time>2021-03-06T08:35:41Z</time>
      </trkpt>
      <trkpt lat="42.76991" lon="1.53998">
        <ele>1307.034</ele>
        <time>2021-03-06T08:35:43Z</time>
      </trkpt>
      <trkpt lat="42.76991" lon="1.53998">
        <ele>1307.015</ele>
        <time>2021-03-06T08:35:45Z</time>
      </trkpt>
      <trkpt lat="42.76991" lon="1.53997">
        <ele>1307.696</ele>
        <time>2021-03-06T08:35:47Z</time>
      </trkpt>
      <trkpt lat="42.76993" lon="1.53996">
        <ele>1308.438</ele>
        <time>2021-03-06T08:35:49Z</time>
      </trkpt>
      <trkpt lat="42.76989" lon="1.53996">
        <ele>1309.603</ele>
        <time>2021-03-06T08:35:51Z</time>
      </trkpt>
      <trkpt lat="42.76987" lon="1.53998">
        <ele>1311.231</ele>
        <time>2021-03-06T08:35:53Z</time>
      </trkpt>
      <trkpt lat="42.76984" lon="1.53999">
        <ele>1312.748</ele>
        <time>2021-03-06T08:35:55Z</time>
      </trkpt>
      <trkpt lat="42.76982" lon="1.53997">
        <ele>1312.978</ele>
        <time>2021-03-06T08:35:57Z</time>
      </trkpt>
      <trkpt lat="42.76982" lon="1.53997">
        <ele>1312.636</ele>
        <time>2021-03-06T08:35:59Z</time>
      </trkpt>
      <trkpt lat="42.76982" lon="1.53997">
        <ele>1312.978</ele>
        <time>2021-03-06T08:36:01Z</time>
      </trkpt>
      <trkpt lat="42.76982" lon="1.53997">
        <ele>1314.556</ele>
        <time>2021-03-06T08:36:03Z</time>
      </trkpt>
      <trkpt lat="42.7698" lon="1.53994">
        <ele>1315.151</ele>
        <time>2021-03-06T08:36:05Z</time>
      </trkpt>
      <trkpt lat="42.76979" lon="1.53992">
        <ele>1314.342</ele>
        <time>2021-03-06T08:36:07Z</time>
      </trkpt>
      <trkpt lat="42.76978" lon="1.5399">
        <ele>1314.61</ele>
        <time>2021-03-06T08:36:09Z</time>
      </trkpt>
      <trkpt lat="42.76976" lon="1.5399">
        <ele>1315.989</ele>
        <time>2021-03-06T08:36:11Z</time>
      </trkpt>
      <trkpt lat="42.76974" lon="1.53991">
        <ele>1316.51</ele>
        <time>2021-03-06T08:36:13Z</time>
      </trkpt>
      <trkpt lat="42.76973" lon="1.53992">
        <ele>1317.432</ele>
        <time>2021-03-06T08:36:15Z</time>
      </trkpt>
      <trkpt lat="42.76971" lon="1.53992">
        <ele>1318.889</ele>
        <time>2021-03-06T08:36:17Z</time>
      </trkpt>
      <trkpt lat="42.7697" lon="1.53991">
        <ele>1318.906</ele>
        <time>2021-03-06T08:36:19Z</time>
      </trkpt>
      <trkpt lat="42.76969" lon="1.53991">
        <ele>1319.462</ele>
        <time>2021-03-06T08:36:21Z</time>
      </trkpt>
      <trkpt lat="42.76967" lon="1.5399">
        <ele>1319.537</ele>
        <time>2021-03-06T08:36:23Z</time>
      </trkpt>
      <trkpt lat="42.76966" lon="1.53988">
        <ele>1319.761</ele>
        <time>2021-03-06T08:36:25Z</time>
      </trkpt>
      <trkpt lat="42.76965" lon="1.53987">
        <ele>1319.472</ele>
        <time>2021-03-06T08:36:27Z</time>
      </trkpt>
      <trkpt lat="42.76963" lon="1.53987">
        <ele>1319.633</ele>
        <time>2021-03-06T08:36:29Z</time>
      </trkpt>
      <trkpt lat="42.76962" lon="1.53987">
        <ele>1319.813</ele>
        <time>2021-03-06T08:36:31Z</time>
      </trkpt>
      <trkpt lat="42.76961" lon="1.53986">
        <ele>1319.801</ele>
        <time>2021-03-06T08:36:33Z</time>
      </trkpt>
      <trkpt lat="42.7696" lon="1.53986">
        <ele>1319.478</ele>
        <time>2021-03-06T08:36:35Z</time>
      </trkpt>
      <trkpt lat="42.76959" lon="1.53985">
        <ele>1318.889</ele>
        <time>2021-03-06T08:36:37Z</time>
      </trkpt>
      <trkpt lat="42.76957" lon="1.53985">
        <ele>1319.459</ele>
        <time>2021-03-06T08:36:39Z</time>
      </trkpt>
      <trkpt lat="42.76955" lon="1.53986">
        <ele>1321.063</ele>
        <time>2021-03-06T08:36:41Z</time>
      </trkpt>
      <trkpt lat="42.76954" lon="1.53986">
        <ele>1320.622</ele>
        <time>2021-03-06T08:36:43Z</time>
      </trkpt>
      <trkpt lat="42.76952" lon="1.53985">
        <ele>1320.322</ele>
        <time>2021-03-06T08:36:45Z</time>
      </trkpt>
      <trkpt lat="42.76951" lon="1.53984">
        <ele>1320.661</ele>
        <time>2021-03-06T08:36:47Z</time>
      </trkpt>
      <trkpt lat="42.7695" lon="1.53985">
        <ele>1322.189</ele>
        <time>2021-03-06T08:36:49Z</time>
      </trkpt>
      <trkpt lat="42.76948" lon="1.53986">
        <ele>1323.694</ele>
        <time>2021-03-06T08:36:51Z</time>
      </trkpt>
      <trkpt lat="42.76948" lon="1.53986">
        <ele>1323.289</ele>
        <time>2021-03-06T08:36:53Z</time>
      </trkpt>
      <trkpt lat="42.76947" lon="1.53985">
        <ele>1323.664</ele>
        <time>2021-03-06T08:36:55Z</time>
      </trkpt>
      <trkpt lat="42.76945" lon="1.53985">
        <ele>1323.317</ele>
        <time>2021-03-06T08:36:57Z</time>
      </trkpt>
      <trkpt lat="42.76944" lon="1.53983">
        <ele>1324.342</ele>
        <time>2021-03-06T08:36:59Z</time>
      </trkpt>
      <trkpt lat="42.76943" lon="1.53981">
        <ele>1325.054</ele>
        <time>2021-03-06T08:37:01Z</time>
      </trkpt>
      <trkpt lat="42.76943" lon="1.53979">
        <ele>1326.449</ele>
        <time>2021-03-06T08:37:03Z</time>
      </trkpt>
      <trkpt lat="42.76942" lon="1.53978">
        <ele>1327.393</ele>
        <time>2021-03-06T08:37:05Z</time>
      </trkpt>
      <trkpt lat="42.76942" lon="1.53976">
        <ele>1327.815</ele>
        <time>2021-03-06T08:37:07Z</time>
      </trkpt>
      <trkpt lat="42.76941" lon="1.53976">
        <ele>1329</ele>
        <time>2021-03-06T08:37:09Z</time>
      </trkpt>
      <trkpt lat="42.76939" lon="1.53976">
        <ele>1329.011</ele>
        <time>2021-03-06T08:37:11Z</time>
      </trkpt>
      <trkpt lat="42.76937" lon="1.53977">
        <ele>1330.927</ele>
        <time>2021-03-06T08:37:13Z</time>
      </trkpt>
      <trkpt lat="42.76936" lon="1.53978">
        <ele>1331.762</ele>
        <time>2021-03-06T08:37:15Z</time>
      </trkpt>
      <trkpt lat="42.76934" lon="1.53979">
        <ele>1332.154</ele>
        <time>2021-03-06T08:37:17Z</time>
      </trkpt>
      <trkpt lat="42.76933" lon="1.53979">
        <ele>1332.522</ele>
        <time>2021-03-06T08:37:19Z</time>
      </trkpt>
      <trkpt lat="42.76932" lon="1.5398">
        <ele>1332.534</ele>
        <time>2021-03-06T08:37:21Z</time>
      </trkpt>
      <trkpt lat="42.7693" lon="1.53979">
        <ele>1331.61</ele>
        <time>2021-03-06T08:37:23Z</time>
      </trkpt>
      <trkpt lat="42.76929" lon="1.5398">
        <ele>1331.534</ele>
        <time>2021-03-06T08:37:25Z</time>
      </trkpt>
      <trkpt lat="42.76927" lon="1.53981">
        <ele>1332.142</ele>
        <time>2021-03-06T08:37:27Z</time>
      </trkpt>
      <trkpt lat="42.76925" lon="1.53982">
        <ele>1331.79</ele>
        <time>2021-03-06T08:37:29Z</time>
      </trkpt>
      <trkpt lat="42.76924" lon="1.53983">
        <ele>1332.792</ele>
        <time>2021-03-06T08:37:31Z</time>
      </trkpt>
      <trkpt lat="42.76922" lon="1.53984">
        <ele>1333.516</ele>
        <time>2021-03-06T08:37:33Z</time>
      </trkpt>
      <trkpt lat="42.7692" lon="1.53986">
        <ele>1333.934</ele>
        <time>2021-03-06T08:37:35Z</time>
      </trkpt>
      <trkpt lat="42.76919" lon="1.53986">
        <ele>1335.26</ele>
        <time>2021-03-06T08:37:37Z</time>
      </trkpt>
      <trkpt lat="42.76917" lon="1.53987">
        <ele>1337.098</ele>
        <time>2021-03-06T08:37:39Z</time>
      </trkpt>
      <trkpt lat="42.76915" lon="1.53987">
        <ele>1338.052</ele>
        <time>2021-03-06T08:37:41Z</time>
      </trkpt>
      <trkpt lat="42.76914" lon="1.53987">
        <ele>1339.354</ele>
        <time>2021-03-06T08:37:43Z</time>
      </trkpt>
      <trkpt lat="42.76912" lon="1.53987">
        <ele>1340.188</ele>
        <time>2021-03-06T08:37:45Z</time>
      </trkpt>
      <trkpt lat="42.76911" lon="1.53988">
        <ele>1340.566</ele>
        <time>2021-03-06T08:37:47Z</time>
      </trkpt>
      <trkpt lat="42.76909" lon="1.53987">
        <ele>1341.825</ele>
        <time>2021-03-06T08:37:49Z</time>
      </trkpt>
      <trkpt lat="42.76908" lon="1.53987">
        <ele>1342.874</ele>
        <time>2021-03-06T08:37:51Z</time>
      </trkpt>
      <trkpt lat="42.76907" lon="1.53988">
        <ele>1343.051</ele>
        <time>2021-03-06T08:37:53Z</time>
      </trkpt>
      <trkpt lat="42.76905" lon="1.53988">
        <ele>1342.363</ele>
        <time>2021-03-06T08:37:55Z</time>
      </trkpt>
      <trkpt lat="42.76904" lon="1.53988">
        <ele>1341.916</ele>
        <time>2021-03-06T08:37:57Z</time>
      </trkpt>
      <trkpt lat="42.76903" lon="1.53989">
        <ele>1342.103</ele>
        <time>2021-03-06T08:37:59Z</time>
      </trkpt>
      <trkpt lat="42.76901" lon="1.5399">
        <ele>1341.707</ele>
        <time>2021-03-06T08:38:01Z</time>
      </trkpt>
      <trkpt lat="42.769" lon="1.5399">
        <ele>1341.44</ele>
        <time>2021-03-06T08:38:03Z</time>
      </trkpt>
      <trkpt lat="42.769" lon="1.53991">
        <ele>1341.154</ele>
        <time>2021-03-06T08:38:05Z</time>
      </trkpt>
      <trkpt lat="42.76899" lon="1.53992">
        <ele>1340.582</ele>
        <time>2021-03-06T08:38:07Z</time>
      </trkpt>
      <trkpt lat="42.76899" lon="1.53991">
        <ele>1339.309</ele>
        <time>2021-03-06T08:38:09Z</time>
      </trkpt>
      <trkpt lat="42.76899" lon="1.53992">
        <ele>1339.195</ele>
        <time>2021-03-06T08:38:11Z</time>
      </trkpt>
      <trkpt lat="42.76899" lon="1.53994">
        <ele>1339.462</ele>
        <time>2021-03-06T08:38:13Z</time>
      </trkpt>
      <trkpt lat="42.76897" lon="1.53995">
        <ele>1340.443</ele>
        <time>2021-03-06T08:38:15Z</time>
      </trkpt>
      <trkpt lat="42.76896" lon="1.53996">
        <ele>1340.936</ele>
        <time>2021-03-06T08:38:17Z</time>
      </trkpt>
      <trkpt lat="42.76896" lon="1.53996">
        <ele>1341.274</ele>
        <time>2021-03-06T08:38:19Z</time>
      </trkpt>
      <trkpt lat="42.76894" lon="1.53998">
        <ele>1342.193</ele>
        <time>2021-03-06T08:38:21Z</time>
      </trkpt>
      <trkpt lat="42.76892" lon="1.54">
        <ele>1342.096</ele>
        <time>2021-03-06T08:38:23Z</time>
      </trkpt>
      <trkpt lat="42.76891" lon="1.53999">
        <ele>1342.45</ele>
        <time>2021-03-06T08:38:25Z</time>
      </trkpt>
      <trkpt lat="42.7689" lon="1.54">
        <ele>1341.542</ele>
        <time>2021-03-06T08:38:27Z</time>
      </trkpt>
      <trkpt lat="42.76888" lon="1.54002">
        <ele>1342.658</ele>
        <time>2021-03-06T08:38:29Z</time>
      </trkpt>
      <trkpt lat="42.76887" lon="1.54003">
        <ele>1343.227</ele>
        <time>2021-03-06T08:38:31Z</time>
      </trkpt>
      <trkpt lat="42.76886" lon="1.54004">
        <ele>1343.183</ele>
        <time>2021-03-06T08:38:33Z</time>
      </trkpt>
      <trkpt lat="42.76885" lon="1.54005">
        <ele>1343.624</ele>
        <time>2021-03-06T08:38:35Z</time>
      </trkpt>
      <trkpt lat="42.76883" lon="1.54006">
        <ele>1343.274</ele>
        <time>2021-03-06T08:38:37Z</time>
      </trkpt>
      <trkpt lat="42.76882" lon="1.54008">
        <ele>1343.7</ele>
        <time>2021-03-06T08:38:39Z</time>
      </trkpt>
      <trkpt lat="42.7688" lon="1.54008">
        <ele>1343.625</ele>
        <time>2021-03-06T08:38:41Z</time>
      </trkpt>
      <trkpt lat="42.76878" lon="1.54007">
        <ele>1342.873</ele>
        <time>2021-03-06T08:38:43Z</time>
      </trkpt>
      <trkpt lat="42.76877" lon="1.54007">
        <ele>1343.073</ele>
        <time>2021-03-06T08:38:45Z</time>
      </trkpt>
      <trkpt lat="42.76875" lon="1.54008">
        <ele>1343.745</ele>
        <time>2021-03-06T08:38:47Z</time>
      </trkpt>
      <trkpt lat="42.76875" lon="1.54008">
        <ele>1342.812</ele>
        <time>2021-03-06T08:38:48Z</time>
      </trkpt>
      <trkpt lat="42.76873" lon="1.54006">
        <ele>1342.9</ele>
        <time>2021-03-06T08:38:51Z</time>
      </trkpt>
      <trkpt lat="42.76872" lon="1.54005">
        <ele>1342.643</ele>
        <time>2021-03-06T08:38:53Z</time>
      </trkpt>
      <trkpt lat="42.7687" lon="1.54005">
        <ele>1342.58</ele>
        <time>2021-03-06T08:38:55Z</time>
      </trkpt>
      <trkpt lat="42.76868" lon="1.54005">
        <ele>1342.526</ele>
        <time>2021-03-06T08:38:57Z</time>
      </trkpt>
      <trkpt lat="42.76866" lon="1.54006">
        <ele>1343.743</ele>
        <time>2021-03-06T08:38:59Z</time>
      </trkpt>
      <trkpt lat="42.76864" lon="1.54006">
        <ele>1344.87</ele>
        <time>2021-03-06T08:39:01Z</time>
      </trkpt>
      <trkpt lat="42.76862" lon="1.54005">
        <ele>1345.143</ele>
        <time>2021-03-06T08:39:03Z</time>
      </trkpt>
      <trkpt lat="42.76861" lon="1.54004">
        <ele>1345.459</ele>
        <time>2021-03-06T08:39:05Z</time>
      </trkpt>
      <trkpt lat="42.76859" lon="1.54004">
        <ele>1345.786</ele>
        <time>2021-03-06T08:39:07Z</time>
      </trkpt>
      <trkpt lat="42.76856" lon="1.54005">
        <ele>1345.702</ele>
        <time>2021-03-06T08:39:09Z</time>
      </trkpt>
      <trkpt lat="42.76854" lon="1.54005">
        <ele>1345.584</ele>
        <time>2021-03-06T08:39:11Z</time>
      </trkpt>
      <trkpt lat="42.76853" lon="1.54005">
        <ele>1347.283</ele>
        <time>2021-03-06T08:39:13Z</time>
      </trkpt>
      <trkpt lat="42.76851" lon="1.54005">
        <ele>1348.97</ele>
        <time>2021-03-06T08:39:15Z</time>
      </trkpt>
      <trkpt lat="42.76849" lon="1.54004">
        <ele>1348.366</ele>
        <time>2021-03-06T08:39:17Z</time>
      </trkpt>
      <trkpt lat="42.76847" lon="1.54004">
        <ele>1349.741</ele>
        <time>2021-03-06T08:39:19Z</time>
      </trkpt>
      <trkpt lat="42.76845" lon="1.54004">
        <ele>1351.237</ele>
        <time>2021-03-06T08:39:21Z</time>
      </trkpt>
      <trkpt lat="42.76843" lon="1.54004">
        <ele>1352.253</ele>
        <time>2021-03-06T08:39:23Z</time>
      </trkpt>
      <trkpt lat="42.76841" lon="1.54003">
        <ele>1353.213</ele>
        <time>2021-03-06T08:39:25Z</time>
      </trkpt>
      <trkpt lat="42.76839" lon="1.54002">
        <ele>1354.096</ele>
        <time>2021-03-06T08:39:27Z</time>
      </trkpt>
      <trkpt lat="42.76837" lon="1.54001">
        <ele>1354.278</ele>
        <time>2021-03-06T08:39:29Z</time>
      </trkpt>
      <trkpt lat="42.76836" lon="1.53999">
        <ele>1352.197</ele>
        <time>2021-03-06T08:39:31Z</time>
      </trkpt>
      <trkpt lat="42.76834" lon="1.53998">
        <ele>1353.015</ele>
        <time>2021-03-06T08:39:33Z</time>
      </trkpt>
      <trkpt lat="42.76833" lon="1.53997">
        <ele>1353.533</ele>
        <time>2021-03-06T08:39:35Z</time>
      </trkpt>
      <trkpt lat="42.76831" lon="1.53997">
        <ele>1355.03</ele>
        <time>2021-03-06T08:39:37Z</time>
      </trkpt>
      <trkpt lat="42.76829" lon="1.53997">
        <ele>1354.383</ele>
        <time>2021-03-06T08:39:39Z</time>
      </trkpt>
      <trkpt lat="42.76827" lon="1.53996">
        <ele>1355.651</ele>
        <time>2021-03-06T08:39:41Z</time>
      </trkpt>
      <trkpt lat="42.76827" lon="1.53994">
        <ele>1356.376</ele>
        <time>2021-03-06T08:39:43Z</time>
      </trkpt>
      <trkpt lat="42.76826" lon="1.53993">
        <ele>1357.123</ele>
        <time>2021-03-06T08:39:45Z</time>
      </trkpt>
      <trkpt lat="42.76826" lon="1.5399">
        <ele>1356.478</ele>
        <time>2021-03-06T08:39:47Z</time>
      </trkpt>
      <trkpt lat="42.76826" lon="1.53988">
        <ele>1355.745</ele>
        <time>2021-03-06T08:39:49Z</time>
      </trkpt>
      <trkpt lat="42.76826" lon="1.53986">
        <ele>1355.721</ele>
        <time>2021-03-06T08:39:51Z</time>
      </trkpt>
      <trkpt lat="42.76826" lon="1.53984">
        <ele>1355.637</ele>
        <time>2021-03-06T08:39:53Z</time>
      </trkpt>
      <trkpt lat="42.76825" lon="1.53983">
        <ele>1356.724</ele>
        <time>2021-03-06T08:39:55Z</time>
      </trkpt>
      <trkpt lat="42.76823" lon="1.53982">
        <ele>1357.371</ele>
        <time>2021-03-06T08:39:57Z</time>
      </trkpt>
      <trkpt lat="42.76822" lon="1.53981">
        <ele>1357.23</ele>
        <time>2021-03-06T08:39:59Z</time>
      </trkpt>
      <trkpt lat="42.76821" lon="1.53979">
        <ele>1356.684</ele>
        <time>2021-03-06T08:40:01Z</time>
      </trkpt>
      <trkpt lat="42.7682" lon="1.53978">
        <ele>1357.691</ele>
        <time>2021-03-06T08:40:03Z</time>
      </trkpt>
      <trkpt lat="42.76818" lon="1.53978">
        <ele>1357.699</ele>
        <time>2021-03-06T08:40:05Z</time>
      </trkpt>
      <trkpt lat="42.76817" lon="1.53978">
        <ele>1359.061</ele>
        <time>2021-03-06T08:40:07Z</time>
      </trkpt>
      <trkpt lat="42.76815" lon="1.53977">
        <ele>1359.69</ele>
        <time>2021-03-06T08:40:09Z</time>
      </trkpt>
      <trkpt lat="42.76814" lon="1.53977">
        <ele>1360.685</ele>
        <time>2021-03-06T08:40:11Z</time>
      </trkpt>
      <trkpt lat="42.76812" lon="1.53977">
        <ele>1360.199</ele>
        <time>2021-03-06T08:40:13Z</time>
      </trkpt>
      <trkpt lat="42.76809" lon="1.53976">
        <ele>1360.409</ele>
        <time>2021-03-06T08:40:15Z</time>
      </trkpt>
      <trkpt lat="42.76808" lon="1.53976">
        <ele>1361.912</ele>
        <time>2021-03-06T08:40:17Z</time>
      </trkpt>
      <trkpt lat="42.76807" lon="1.53976">
        <ele>1363.169</ele>
        <time>2021-03-06T08:40:19Z</time>
      </trkpt>
      <trkpt lat="42.76805" lon="1.53976">
        <ele>1364.559</ele>
        <time>2021-03-06T08:40:21Z</time>
      </trkpt>
      <trkpt lat="42.76804" lon="1.53975">
        <ele>1364.34</ele>
        <time>2021-03-06T08:40:23Z</time>
      </trkpt>
      <trkpt lat="42.76802" lon="1.53974">
        <ele>1365.641</ele>
        <time>2021-03-06T08:40:25Z</time>
      </trkpt>
      <trkpt lat="42.768" lon="1.53974">
        <ele>1366.284</ele>
        <time>2021-03-06T08:40:27Z</time>
      </trkpt>
      <trkpt lat="42.76799" lon="1.53973">
        <ele>1366.989</ele>
        <time>2021-03-06T08:40:29Z</time>
      </trkpt>
      <trkpt lat="42.76797" lon="1.53973">
        <ele>1368.338</ele>
        <time>2021-03-06T08:40:31Z</time>
      </trkpt>
      <trkpt lat="42.76796" lon="1.53972">
        <ele>1368.649</ele>
        <time>2021-03-06T08:40:33Z</time>
      </trkpt>
      <trkpt lat="42.76794" lon="1.53971">
        <ele>1368.366</ele>
        <time>2021-03-06T08:40:35Z</time>
      </trkpt>
      <trkpt lat="42.76794" lon="1.5397">
        <ele>1369.605</ele>
        <time>2021-03-06T08:40:37Z</time>
      </trkpt>
      <trkpt lat="42.76793" lon="1.5397">
        <ele>1370.649</ele>
        <time>2021-03-06T08:40:39Z</time>
      </trkpt>
      <trkpt lat="42.76791" lon="1.53969">
        <ele>1372.128</ele>
        <time>2021-03-06T08:40:41Z</time>
      </trkpt>
      <trkpt lat="42.7679" lon="1.53968">
        <ele>1371.954</ele>
        <time>2021-03-06T08:40:43Z</time>
      </trkpt>
      <trkpt lat="42.76789" lon="1.53967">
        <ele>1375.29</ele>
        <time>2021-03-06T08:40:45Z</time>
      </trkpt>
      <trkpt lat="42.76788" lon="1.53967">
        <ele>1374.971</ele>
        <time>2021-03-06T08:40:47Z</time>
      </trkpt>
      <trkpt lat="42.76787" lon="1.53965">
        <ele>1375.936</ele>
        <time>2021-03-06T08:40:49Z</time>
      </trkpt>
      <trkpt lat="42.76786" lon="1.53964">
        <ele>1376.381</ele>
        <time>2021-03-06T08:40:51Z</time>
      </trkpt>
      <trkpt lat="42.76785" lon="1.53963">
        <ele>1376.517</ele>
        <time>2021-03-06T08:40:53Z</time>
      </trkpt>
      <trkpt lat="42.76784" lon="1.53962">
        <ele>1375.8</ele>
        <time>2021-03-06T08:40:55Z</time>
      </trkpt>
      <trkpt lat="42.76783" lon="1.53961">
        <ele>1375.809</ele>
        <time>2021-03-06T08:40:57Z</time>
      </trkpt>
      <trkpt lat="42.76781" lon="1.53959">
        <ele>1376.522</ele>
        <time>2021-03-06T08:40:59Z</time>
      </trkpt>
      <trkpt lat="42.7678" lon="1.53958">
        <ele>1377.103</ele>
        <time>2021-03-06T08:41:01Z</time>
      </trkpt>
      <trkpt lat="42.76779" lon="1.53957">
        <ele>1375.065</ele>
        <time>2021-03-06T08:41:03Z</time>
      </trkpt>
      <trkpt lat="42.76778" lon="1.53955">
        <ele>1374.826</ele>
        <time>2021-03-06T08:41:05Z</time>
      </trkpt>
      <trkpt lat="42.76776" lon="1.53954">
        <ele>1375.531</ele>
        <time>2021-03-06T08:41:07Z</time>
      </trkpt>
      <trkpt lat="42.76775" lon="1.53953">
        <ele>1375.775</ele>
        <time>2021-03-06T08:41:09Z</time>
      </trkpt>
      <trkpt lat="42.76773" lon="1.53953">
        <ele>1375.972</ele>
        <time>2021-03-06T08:41:11Z</time>
      </trkpt>
      <trkpt lat="42.76772" lon="1.53951">
        <ele>1375.544</ele>
        <time>2021-03-06T08:41:13Z</time>
      </trkpt>
      <trkpt lat="42.7677" lon="1.53951">
        <ele>1375.856</ele>
        <time>2021-03-06T08:41:15Z</time>
      </trkpt>
      <trkpt lat="42.76769" lon="1.53952">
        <ele>1377.522</ele>
        <time>2021-03-06T08:41:17Z</time>
      </trkpt>
      <trkpt lat="42.76767" lon="1.53953">
        <ele>1378.308</ele>
        <time>2021-03-06T08:41:19Z</time>
      </trkpt>
      <trkpt lat="42.76766" lon="1.53953">
        <ele>1379.202</ele>
        <time>2021-03-06T08:41:21Z</time>
      </trkpt>
      <trkpt lat="42.76764" lon="1.53954">
        <ele>1378.416</ele>
        <time>2021-03-06T08:41:23Z</time>
      </trkpt>
      <trkpt lat="42.76763" lon="1.53955">
        <ele>1379.855</ele>
        <time>2021-03-06T08:41:25Z</time>
      </trkpt>
      <trkpt lat="42.76762" lon="1.53955">
        <ele>1379.472</ele>
        <time>2021-03-06T08:41:27Z</time>
      </trkpt>
      <trkpt lat="42.76761" lon="1.53954">
        <ele>1379.676</ele>
        <time>2021-03-06T08:41:29Z</time>
      </trkpt>
      <trkpt lat="42.76759" lon="1.53954">
        <ele>1380.541</ele>
        <time>2021-03-06T08:41:31Z</time>
      </trkpt>
      <trkpt lat="42.76758" lon="1.53954">
        <ele>1380.984</ele>
        <time>2021-03-06T08:41:33Z</time>
      </trkpt>
      <trkpt lat="42.76756" lon="1.53954">
        <ele>1382.11</ele>
        <time>2021-03-06T08:41:35Z</time>
      </trkpt>
      <trkpt lat="42.76755" lon="1.53954">
        <ele>1381.715</ele>
        <time>2021-03-06T08:41:37Z</time>
      </trkpt>
      <trkpt lat="42.76753" lon="1.53954">
        <ele>1381.715</ele>
        <time>2021-03-06T08:41:39Z</time>
      </trkpt>
      <trkpt lat="42.76751" lon="1.53955">
        <ele>1382.191</ele>
        <time>2021-03-06T08:41:41Z</time>
      </trkpt>
      <trkpt lat="42.7675" lon="1.53955">
        <ele>1383.884</ele>
        <time>2021-03-06T08:41:43Z</time>
      </trkpt>
      <trkpt lat="42.76749" lon="1.53955">
        <ele>1385.201</ele>
        <time>2021-03-06T08:41:45Z</time>
      </trkpt>
      <trkpt lat="42.76747" lon="1.53956">
        <ele>1385.294</ele>
        <time>2021-03-06T08:41:47Z</time>
      </trkpt>
      <trkpt lat="42.76745" lon="1.53955">
        <ele>1385.644</ele>
        <time>2021-03-06T08:41:49Z</time>
      </trkpt>
      <trkpt lat="42.76744" lon="1.53956">
        <ele>1385.177</ele>
        <time>2021-03-06T08:41:51Z</time>
      </trkpt>
      <trkpt lat="42.76742" lon="1.53956">
        <ele>1384.926</ele>
        <time>2021-03-06T08:41:53Z</time>
      </trkpt>
      <trkpt lat="42.76741" lon="1.53955">
        <ele>1384.799</ele>
        <time>2021-03-06T08:41:55Z</time>
      </trkpt>
      <trkpt lat="42.76739" lon="1.53955">
        <ele>1385.022</ele>
        <time>2021-03-06T08:41:57Z</time>
      </trkpt>
      <trkpt lat="42.76738" lon="1.53955">
        <ele>1386.732</ele>
        <time>2021-03-06T08:41:59Z</time>
      </trkpt>
      <trkpt lat="42.76736" lon="1.53955">
        <ele>1387.863</ele>
        <time>2021-03-06T08:42:01Z</time>
      </trkpt>
      <trkpt lat="42.76735" lon="1.53956">
        <ele>1388.114</ele>
        <time>2021-03-06T08:42:03Z</time>
      </trkpt>
      <trkpt lat="42.76733" lon="1.53956">
        <ele>1388.13</ele>
        <time>2021-03-06T08:42:05Z</time>
      </trkpt>
      <trkpt lat="42.76732" lon="1.53957">
        <ele>1388.107</ele>
        <time>2021-03-06T08:42:07Z</time>
      </trkpt>
      <trkpt lat="42.76731" lon="1.53957">
        <ele>1388.036</ele>
        <time>2021-03-06T08:42:09Z</time>
      </trkpt>
      <trkpt lat="42.7673" lon="1.53958">
        <ele>1387.848</ele>
        <time>2021-03-06T08:42:11Z</time>
      </trkpt>
      <trkpt lat="42.76728" lon="1.53957">
        <ele>1386.642</ele>
        <time>2021-03-06T08:42:13Z</time>
      </trkpt>
      <trkpt lat="42.76727" lon="1.53956">
        <ele>1386.563</ele>
        <time>2021-03-06T08:42:15Z</time>
      </trkpt>
      <trkpt lat="42.76725" lon="1.53957">
        <ele>1388.083</ele>
        <time>2021-03-06T08:42:17Z</time>
      </trkpt>
      <trkpt lat="42.76723" lon="1.53957">
        <ele>1387.631</ele>
        <time>2021-03-06T08:42:19Z</time>
      </trkpt>
      <trkpt lat="42.76721" lon="1.53957">
        <ele>1388.136</ele>
        <time>2021-03-06T08:42:21Z</time>
      </trkpt>
      <trkpt lat="42.7672" lon="1.53958">
        <ele>1388.679</ele>
        <time>2021-03-06T08:42:23Z</time>
      </trkpt>
      <trkpt lat="42.76719" lon="1.53957">
        <ele>1389.591</ele>
        <time>2021-03-06T08:42:25Z</time>
      </trkpt>
      <trkpt lat="42.76717" lon="1.53958">
        <ele>1391.205</ele>
        <time>2021-03-06T08:42:27Z</time>
      </trkpt>
      <trkpt lat="42.76715" lon="1.53958">
        <ele>1391.955</ele>
        <time>2021-03-06T08:42:29Z</time>
      </trkpt>
      <trkpt lat="42.76714" lon="1.53957">
        <ele>1391.073</ele>
        <time>2021-03-06T08:42:31Z</time>
      </trkpt>
      <trkpt lat="42.76712" lon="1.53957">
        <ele>1391.196</ele>
        <time>2021-03-06T08:42:33Z</time>
      </trkpt>
      <trkpt lat="42.7671" lon="1.53957">
        <ele>1391.322</ele>
        <time>2021-03-06T08:42:35Z</time>
      </trkpt>
      <trkpt lat="42.76708" lon="1.53957">
        <ele>1390.343</ele>
        <time>2021-03-06T08:42:37Z</time>
      </trkpt>
      <trkpt lat="42.76707" lon="1.53957">
        <ele>1390.203</ele>
        <time>2021-03-06T08:42:39Z</time>
      </trkpt>
      <trkpt lat="42.76705" lon="1.53957">
        <ele>1390.439</ele>
        <time>2021-03-06T08:42:41Z</time>
      </trkpt>
      <trkpt lat="42.76703" lon="1.53956">
        <ele>1391.073</ele>
        <time>2021-03-06T08:42:43Z</time>
      </trkpt>
      <trkpt lat="42.76701" lon="1.53956">
        <ele>1391.348</ele>
        <time>2021-03-06T08:42:45Z</time>
      </trkpt>
      <trkpt lat="42.76699" lon="1.53955">
        <ele>1391.537</ele>
        <time>2021-03-06T08:42:47Z</time>
      </trkpt>
      <trkpt lat="42.76698" lon="1.53954">
        <ele>1390.662</ele>
        <time>2021-03-06T08:42:49Z</time>
      </trkpt>
      <trkpt lat="42.76696" lon="1.53953">
        <ele>1390.233</ele>
        <time>2021-03-06T08:42:51Z</time>
      </trkpt>
      <trkpt lat="42.76694" lon="1.53951">
        <ele>1389.798</ele>
        <time>2021-03-06T08:42:53Z</time>
      </trkpt>
      <trkpt lat="42.76693" lon="1.53951">
        <ele>1391.36</ele>
        <time>2021-03-06T08:42:55Z</time>
      </trkpt>
      <trkpt lat="42.76691" lon="1.5395">
        <ele>1392.682</ele>
        <time>2021-03-06T08:42:57Z</time>
      </trkpt>
      <trkpt lat="42.7669" lon="1.5395">
        <ele>1392.645</ele>
        <time>2021-03-06T08:42:59Z</time>
      </trkpt>
      <trkpt lat="42.76689" lon="1.53949">
        <ele>1393.165</ele>
        <time>2021-03-06T08:43:01Z</time>
      </trkpt>
      <trkpt lat="42.76688" lon="1.53947">
        <ele>1392.955</ele>
        <time>2021-03-06T08:43:03Z</time>
      </trkpt>
      <trkpt lat="42.76685" lon="1.53947">
        <ele>1393.164</ele>
        <time>2021-03-06T08:43:05Z</time>
      </trkpt>
      <trkpt lat="42.76684" lon="1.53946">
        <ele>1393.554</ele>
        <time>2021-03-06T08:43:07Z</time>
      </trkpt>
      <trkpt lat="42.76682" lon="1.53945">
        <ele>1394.24</ele>
        <time>2021-03-06T08:43:09Z</time>
      </trkpt>
      <trkpt lat="42.76681" lon="1.53945">
        <ele>1394.455</ele>
        <time>2021-03-06T08:43:11Z</time>
      </trkpt>
      <trkpt lat="42.7668" lon="1.53944">
        <ele>1394.239</ele>
        <time>2021-03-06T08:43:13Z</time>
      </trkpt>
      <trkpt lat="42.76678" lon="1.53943">
        <ele>1393.515</ele>
        <time>2021-03-06T08:43:15Z</time>
      </trkpt>
      <trkpt lat="42.76677" lon="1.53942">
        <ele>1394.423</ele>
        <time>2021-03-06T08:43:17Z</time>
      </trkpt>
      <trkpt lat="42.76675" lon="1.53942">
        <ele>1393.648</ele>
        <time>2021-03-06T08:43:19Z</time>
      </trkpt>
      <trkpt lat="42.76674" lon="1.53941">
        <ele>1395.007</ele>
        <time>2021-03-06T08:43:21Z</time>
      </trkpt>
      <trkpt lat="42.76672" lon="1.53941">
        <ele>1394.848</ele>
        <time>2021-03-06T08:43:23Z</time>
      </trkpt>
      <trkpt lat="42.76671" lon="1.5394">
        <ele>1394.28</ele>
        <time>2021-03-06T08:43:25Z</time>
      </trkpt>
      <trkpt lat="42.7667" lon="1.5394">
        <ele>1394.832</ele>
        <time>2021-03-06T08:43:27Z</time>
      </trkpt>
      <trkpt lat="42.76668" lon="1.5394">
        <ele>1394.557</ele>
        <time>2021-03-06T08:43:29Z</time>
      </trkpt>
      <trkpt lat="42.76667" lon="1.53938">
        <ele>1394.041</ele>
        <time>2021-03-06T08:43:31Z</time>
      </trkpt>
      <trkpt lat="42.76666" lon="1.53937">
        <ele>1393.366</ele>
        <time>2021-03-06T08:43:33Z</time>
      </trkpt>
      <trkpt lat="42.76664" lon="1.53936">
        <ele>1394.153</ele>
        <time>2021-03-06T08:43:35Z</time>
      </trkpt>
      <trkpt lat="42.76663" lon="1.53936">
        <ele>1394.78</ele>
        <time>2021-03-06T08:43:37Z</time>
      </trkpt>
      <trkpt lat="42.76662" lon="1.53934">
        <ele>1395.785</ele>
        <time>2021-03-06T08:43:39Z</time>
      </trkpt>
      <trkpt lat="42.7666" lon="1.53932">
        <ele>1396.881</ele>
        <time>2021-03-06T08:43:41Z</time>
      </trkpt>
      <trkpt lat="42.76659" lon="1.5393">
        <ele>1399.063</ele>
        <time>2021-03-06T08:43:43Z</time>
      </trkpt>
      <trkpt lat="42.76659" lon="1.53929">
        <ele>1399.198</ele>
        <time>2021-03-06T08:43:45Z</time>
      </trkpt>
      <trkpt lat="42.76658" lon="1.53926">
        <ele>1399.909</ele>
        <time>2021-03-06T08:43:47Z</time>
      </trkpt>
      <trkpt lat="42.76658" lon="1.53924">
        <ele>1400.183</ele>
        <time>2021-03-06T08:43:49Z</time>
      </trkpt>
      <trkpt lat="42.76657" lon="1.53922">
        <ele>1400.96</ele>
        <time>2021-03-06T08:43:51Z</time>
      </trkpt>
      <trkpt lat="42.76656" lon="1.5392">
        <ele>1400.672</ele>
        <time>2021-03-06T08:43:53Z</time>
      </trkpt>
      <trkpt lat="42.76655" lon="1.53918">
        <ele>1401.322</ele>
        <time>2021-03-06T08:43:55Z</time>
      </trkpt>
      <trkpt lat="42.76654" lon="1.53916">
        <ele>1402.198</ele>
        <time>2021-03-06T08:43:57Z</time>
      </trkpt>
      <trkpt lat="42.76652" lon="1.53914">
        <ele>1403.365</ele>
        <time>2021-03-06T08:43:59Z</time>
      </trkpt>
      <trkpt lat="42.76651" lon="1.53913">
        <ele>1402.636</ele>
        <time>2021-03-06T08:44:01Z</time>
      </trkpt>
      <trkpt lat="42.7665" lon="1.53911">
        <ele>1401.502</ele>
        <time>2021-03-06T08:44:03Z</time>
      </trkpt>
      <trkpt lat="42.7665" lon="1.5391">
        <ele>1401.826</ele>
        <time>2021-03-06T08:44:05Z</time>
      </trkpt>
      <trkpt lat="42.76649" lon="1.53908">
        <ele>1403.47</ele>
        <time>2021-03-06T08:44:07Z</time>
      </trkpt>
      <trkpt lat="42.76649" lon="1.53906">
        <ele>1404.979</ele>
        <time>2021-03-06T08:44:09Z</time>
      </trkpt>
      <trkpt lat="42.76648" lon="1.53905">
        <ele>1404.62</ele>
        <time>2021-03-06T08:44:11Z</time>
      </trkpt>
      <trkpt lat="42.76647" lon="1.53903">
        <ele>1404.805</ele>
        <time>2021-03-06T08:44:13Z</time>
      </trkpt>
      <trkpt lat="42.76646" lon="1.53902">
        <ele>1405.688</ele>
        <time>2021-03-06T08:44:15Z</time>
      </trkpt>
      <trkpt lat="42.76645" lon="1.539">
        <ele>1405.937</ele>
        <time>2021-03-06T08:44:17Z</time>
      </trkpt>
      <trkpt lat="42.76644" lon="1.53898">
        <ele>1406.749</ele>
        <time>2021-03-06T08:44:19Z</time>
      </trkpt>
      <trkpt lat="42.76644" lon="1.53897">
        <ele>1406.98</ele>
        <time>2021-03-06T08:44:21Z</time>
      </trkpt>
      <trkpt lat="42.76643" lon="1.53895">
        <ele>1407.392</ele>
        <time>2021-03-06T08:44:23Z</time>
      </trkpt>
      <trkpt lat="42.76642" lon="1.53894">
        <ele>1407.009</ele>
        <time>2021-03-06T08:44:25Z</time>
      </trkpt>
      <trkpt lat="42.76641" lon="1.53892">
        <ele>1406.78</ele>
        <time>2021-03-06T08:44:27Z</time>
      </trkpt>
      <trkpt lat="42.7664" lon="1.5389">
        <ele>1406.833</ele>
        <time>2021-03-06T08:44:29Z</time>
      </trkpt>
      <trkpt lat="42.7664" lon="1.53888">
        <ele>1407.121</ele>
        <time>2021-03-06T08:44:31Z</time>
      </trkpt>
      <trkpt lat="42.76639" lon="1.53887">
        <ele>1408.97</ele>
        <time>2021-03-06T08:44:33Z</time>
      </trkpt>
      <trkpt lat="42.76638" lon="1.53885">
        <ele>1409.952</ele>
        <time>2021-03-06T08:44:35Z</time>
      </trkpt>
      <trkpt lat="42.76637" lon="1.53884">
        <ele>1409.539</ele>
        <time>2021-03-06T08:44:37Z</time>
      </trkpt>
      <trkpt lat="42.76637" lon="1.53882">
        <ele>1408.556</ele>
        <time>2021-03-06T08:44:39Z</time>
      </trkpt>
      <trkpt lat="42.76636" lon="1.53881">
        <ele>1410.052</ele>
        <time>2021-03-06T08:44:41Z</time>
      </trkpt>
      <trkpt lat="42.76634" lon="1.53879">
        <ele>1410.766</ele>
        <time>2021-03-06T08:44:43Z</time>
      </trkpt>
      <trkpt lat="42.76633" lon="1.53877">
        <ele>1410.807</ele>
        <time>2021-03-06T08:44:45Z</time>
      </trkpt>
      <trkpt lat="42.76632" lon="1.53876">
        <ele>1411.773</ele>
        <time>2021-03-06T08:44:47Z</time>
      </trkpt>
      <trkpt lat="42.76632" lon="1.53873">
        <ele>1411.515</ele>
        <time>2021-03-06T08:44:49Z</time>
      </trkpt>
      <trkpt lat="42.76632" lon="1.53871">
        <ele>1411.106</ele>
        <time>2021-03-06T08:44:51Z</time>
      </trkpt>
      <trkpt lat="42.76631" lon="1.53869">
        <ele>1411.482</ele>
        <time>2021-03-06T08:44:53Z</time>
      </trkpt>
      <trkpt lat="42.7663" lon="1.53868">
        <ele>1411.937</ele>
        <time>2021-03-06T08:44:55Z</time>
      </trkpt>
      <trkpt lat="42.76629" lon="1.53865">
        <ele>1413.586</ele>
        <time>2021-03-06T08:44:57Z</time>
      </trkpt>
      <trkpt lat="42.76629" lon="1.53863">
        <ele>1413.054</ele>
        <time>2021-03-06T08:44:59Z</time>
      </trkpt>
      <trkpt lat="42.76628" lon="1.53861">
        <ele>1413.948</ele>
        <time>2021-03-06T08:45:01Z</time>
      </trkpt>
      <trkpt lat="42.76627" lon="1.53859">
        <ele>1413.533</ele>
        <time>2021-03-06T08:45:03Z</time>
      </trkpt>
      <trkpt lat="42.76627" lon="1.53858">
        <ele>1413.979</ele>
        <time>2021-03-06T08:45:05Z</time>
      </trkpt>
      <trkpt lat="42.76626" lon="1.53856">
        <ele>1415.741</ele>
        <time>2021-03-06T08:45:07Z</time>
      </trkpt>
      <trkpt lat="42.76625" lon="1.53854">
        <ele>1415.045</ele>
        <time>2021-03-06T08:45:09Z</time>
      </trkpt>
      <trkpt lat="42.76625" lon="1.53852">
        <ele>1415.595</ele>
        <time>2021-03-06T08:45:11Z</time>
      </trkpt>
      <trkpt lat="42.76624" lon="1.5385">
        <ele>1415.755</ele>
        <time>2021-03-06T08:45:13Z</time>
      </trkpt>
      <trkpt lat="42.76624" lon="1.53848">
        <ele>1416.464</ele>
        <time>2021-03-06T08:45:15Z</time>
      </trkpt>
      <trkpt lat="42.76624" lon="1.53846">
        <ele>1417.169</ele>
        <time>2021-03-06T08:45:17Z</time>
      </trkpt>
      <trkpt lat="42.76624" lon="1.53844">
        <ele>1417.427</ele>
        <time>2021-03-06T08:45:19Z</time>
      </trkpt>
      <trkpt lat="42.76623" lon="1.53842">
        <ele>1417.826</ele>
        <time>2021-03-06T08:45:21Z</time>
      </trkpt>
      <trkpt lat="42.76622" lon="1.5384">
        <ele>1417.275</ele>
        <time>2021-03-06T08:45:23Z</time>
      </trkpt>
      <trkpt lat="42.76622" lon="1.53838">
        <ele>1416.329</ele>
        <time>2021-03-06T08:45:25Z</time>
      </trkpt>
      <trkpt lat="42.76621" lon="1.53837">
        <ele>1416.245</ele>
        <time>2021-03-06T08:45:27Z</time>
      </trkpt>
      <trkpt lat="42.76621" lon="1.53835">
        <ele>1415.909</ele>
        <time>2021-03-06T08:45:29Z</time>
      </trkpt>
      <trkpt lat="42.7662" lon="1.53833">
        <ele>1416.046</ele>
        <time>2021-03-06T08:45:31Z</time>
      </trkpt>
      <trkpt lat="42.7662" lon="1.53831">
        <ele>1416.763</ele>
        <time>2021-03-06T08:45:33Z</time>
      </trkpt>
      <trkpt lat="42.76619" lon="1.53829">
        <ele>1417.761</ele>
        <time>2021-03-06T08:45:35Z</time>
      </trkpt>
      <trkpt lat="42.76619" lon="1.53828">
        <ele>1418.268</ele>
        <time>2021-03-06T08:45:37Z</time>
      </trkpt>
      <trkpt lat="42.76618" lon="1.53826">
        <ele>1418.712</ele>
        <time>2021-03-06T08:45:39Z</time>
      </trkpt>
      <trkpt lat="42.76618" lon="1.53824">
        <ele>1418.42</ele>
        <time>2021-03-06T08:45:41Z</time>
      </trkpt>
      <trkpt lat="42.76617" lon="1.53822">
        <ele>1418.455</ele>
        <time>2021-03-06T08:45:43Z</time>
      </trkpt>
      <trkpt lat="42.76617" lon="1.5382">
        <ele>1419.51</ele>
        <time>2021-03-06T08:45:45Z</time>
      </trkpt>
      <trkpt lat="42.76616" lon="1.53818">
        <ele>1419.958</ele>
        <time>2021-03-06T08:45:47Z</time>
      </trkpt>
      <trkpt lat="42.76615" lon="1.53816">
        <ele>1420.624</ele>
        <time>2021-03-06T08:45:49Z</time>
      </trkpt>
      <trkpt lat="42.76615" lon="1.53814">
        <ele>1420.483</ele>
        <time>2021-03-06T08:45:51Z</time>
      </trkpt>
      <trkpt lat="42.76615" lon="1.53812">
        <ele>1420.834</ele>
        <time>2021-03-06T08:45:53Z</time>
      </trkpt>
      <trkpt lat="42.76615" lon="1.53811">
        <ele>1421.446</ele>
        <time>2021-03-06T08:45:55Z</time>
      </trkpt>
      <trkpt lat="42.76617" lon="1.53811">
        <ele>1421.476</ele>
        <time>2021-03-06T08:45:57Z</time>
      </trkpt>
      <trkpt lat="42.76617" lon="1.53812">
        <ele>1422.139</ele>
        <time>2021-03-06T08:45:59Z</time>
      </trkpt>
      <trkpt lat="42.76619" lon="1.53813">
        <ele>1421.725</ele>
        <time>2021-03-06T08:46:01Z</time>
      </trkpt>
      <trkpt lat="42.7662" lon="1.53814">
        <ele>1422.209</ele>
        <time>2021-03-06T08:46:03Z</time>
      </trkpt>
      <trkpt lat="42.76621" lon="1.53815">
        <ele>1422.325</ele>
        <time>2021-03-06T08:46:05Z</time>
      </trkpt>
      <trkpt lat="42.76622" lon="1.53816">
        <ele>1422.58</ele>
        <time>2021-03-06T08:46:07Z</time>
      </trkpt>
      <trkpt lat="42.76624" lon="1.53816">
        <ele>1423.292</ele>
        <time>2021-03-06T08:46:09Z</time>
      </trkpt>
      <trkpt lat="42.76625" lon="1.53817">
        <ele>1424.025</ele>
        <time>2021-03-06T08:46:11Z</time>
      </trkpt>
      <trkpt lat="42.76626" lon="1.53816">
        <ele>1423.906</ele>
        <time>2021-03-06T08:46:13Z</time>
      </trkpt>
      <trkpt lat="42.76626" lon="1.53815">
        <ele>1422.163</ele>
        <time>2021-03-06T08:46:15Z</time>
      </trkpt>
      <trkpt lat="42.76626" lon="1.53813">
        <ele>1422.218</ele>
        <time>2021-03-06T08:46:17Z</time>
      </trkpt>
      <trkpt lat="42.76625" lon="1.53811">
        <ele>1422.648</ele>
        <time>2021-03-06T08:46:19Z</time>
      </trkpt>
      <trkpt lat="42.76625" lon="1.53809">
        <ele>1422.981</ele>
        <time>2021-03-06T08:46:21Z</time>
      </trkpt>
      <trkpt lat="42.76625" lon="1.53808">
        <ele>1422.841</ele>
        <time>2021-03-06T08:46:23Z</time>
      </trkpt>
      <trkpt lat="42.76625" lon="1.53806">
        <ele>1422.964</ele>
        <time>2021-03-06T08:46:25Z</time>
      </trkpt>
      <trkpt lat="42.76625" lon="1.53804">
        <ele>1423.76</ele>
        <time>2021-03-06T08:46:27Z</time>
      </trkpt>
      <trkpt lat="42.76624" lon="1.53802">
        <ele>1425.13</ele>
        <time>2021-03-06T08:46:29Z</time>
      </trkpt>
      <trkpt lat="42.76624" lon="1.53801">
        <ele>1424.994</ele>
        <time>2021-03-06T08:46:31Z</time>
      </trkpt>
      <trkpt lat="42.76623" lon="1.538">
        <ele>1425.749</ele>
        <time>2021-03-06T08:46:33Z</time>
      </trkpt>
      <trkpt lat="42.76622" lon="1.53798">
        <ele>1425.791</ele>
        <time>2021-03-06T08:46:35Z</time>
      </trkpt>
      <trkpt lat="42.76621" lon="1.53797">
        <ele>1426.89</ele>
        <time>2021-03-06T08:46:37Z</time>
      </trkpt>
      <trkpt lat="42.76621" lon="1.53795">
        <ele>1427.018</ele>
        <time>2021-03-06T08:46:39Z</time>
      </trkpt>
      <trkpt lat="42.7662" lon="1.53793">
        <ele>1426.754</ele>
        <time>2021-03-06T08:46:41Z</time>
      </trkpt>
      <trkpt lat="42.7662" lon="1.53792">
        <ele>1426.572</ele>
        <time>2021-03-06T08:46:43Z</time>
      </trkpt>
      <trkpt lat="42.7662" lon="1.5379">
        <ele>1427.684</ele>
        <time>2021-03-06T08:46:45Z</time>
      </trkpt>
      <trkpt lat="42.76619" lon="1.53788">
        <ele>1429.309</ele>
        <time>2021-03-06T08:46:47Z</time>
      </trkpt>
      <trkpt lat="42.76619" lon="1.53787">
        <ele>1430.241</ele>
        <time>2021-03-06T08:46:49Z</time>
      </trkpt>
      <trkpt lat="42.76618" lon="1.53785">
        <ele>1430.495</ele>
        <time>2021-03-06T08:46:51Z</time>
      </trkpt>
      <trkpt lat="42.76618" lon="1.53784">
        <ele>1429.662</ele>
        <time>2021-03-06T08:46:53Z</time>
      </trkpt>
      <trkpt lat="42.76618" lon="1.53782">
        <ele>1429.482</ele>
        <time>2021-03-06T08:46:55Z</time>
      </trkpt>
      <trkpt lat="42.76617" lon="1.53781">
        <ele>1430.529</ele>
        <time>2021-03-06T08:46:57Z</time>
      </trkpt>
      <trkpt lat="42.76616" lon="1.5378">
        <ele>1431.452</ele>
        <time>2021-03-06T08:46:59Z</time>
      </trkpt>
      <trkpt lat="42.76616" lon="1.53778">
        <ele>1432.017</ele>
        <time>2021-03-06T08:47:01Z</time>
      </trkpt>
      <trkpt lat="42.76615" lon="1.53776">
        <ele>1433.134</ele>
        <time>2021-03-06T08:47:03Z</time>
      </trkpt>
      <trkpt lat="42.76615" lon="1.53775">
        <ele>1433.465</ele>
        <time>2021-03-06T08:47:05Z</time>
      </trkpt>
      <trkpt lat="42.76615" lon="1.53773">
        <ele>1434.121</ele>
        <time>2021-03-06T08:47:07Z</time>
      </trkpt>
      <trkpt lat="42.76614" lon="1.53771">
        <ele>1434.558</ele>
        <time>2021-03-06T08:47:09Z</time>
      </trkpt>
      <trkpt lat="42.76614" lon="1.53769">
        <ele>1435.518</ele>
        <time>2021-03-06T08:47:11Z</time>
      </trkpt>
      <trkpt lat="42.76613" lon="1.53768">
        <ele>1436.068</ele>
        <time>2021-03-06T08:47:13Z</time>
      </trkpt>
      <trkpt lat="42.76612" lon="1.53767">
        <ele>1436.073</ele>
        <time>2021-03-06T08:47:15Z</time>
      </trkpt>
      <trkpt lat="42.76611" lon="1.53766">
        <ele>1435.885</ele>
        <time>2021-03-06T08:47:17Z</time>
      </trkpt>
      <trkpt lat="42.7661" lon="1.53764">
        <ele>1437.29</ele>
        <time>2021-03-06T08:47:19Z</time>
      </trkpt>
      <trkpt lat="42.7661" lon="1.53762">
        <ele>1437.508</ele>
        <time>2021-03-06T08:47:21Z</time>
      </trkpt>
      <trkpt lat="42.76609" lon="1.53761">
        <ele>1437.781</ele>
        <time>2021-03-06T08:47:23Z</time>
      </trkpt>
      <trkpt lat="42.76609" lon="1.5376">
        <ele>1437.607</ele>
        <time>2021-03-06T08:47:25Z</time>
      </trkpt>
      <trkpt lat="42.76609" lon="1.53758">
        <ele>1436.588</ele>
        <time>2021-03-06T08:47:27Z</time>
      </trkpt>
      <trkpt lat="42.76609" lon="1.53758">
        <ele>1436.464</ele>
        <time>2021-03-06T08:47:29Z</time>
      </trkpt>
      <trkpt lat="42.76609" lon="1.5376">
        <ele>1437.312</ele>
        <time>2021-03-06T08:47:31Z</time>
      </trkpt>
      <trkpt lat="42.76608" lon="1.5376">
        <ele>1438.019</ele>
        <time>2021-03-06T08:47:33Z</time>
      </trkpt>
      <trkpt lat="42.76608" lon="1.5376">
        <ele>1438.018</ele>
        <time>2021-03-06T08:47:35Z</time>
      </trkpt>
      <trkpt lat="42.76608" lon="1.5376">
        <ele>1438.015</ele>
        <time>2021-03-06T08:47:37Z</time>
      </trkpt>
      <trkpt lat="42.76608" lon="1.5376">
        <ele>1438.019</ele>
        <time>2021-03-06T08:47:39Z</time>
      </trkpt>
      <trkpt lat="42.76608" lon="1.5376">
        <ele>1438.023</ele>
        <time>2021-03-06T08:47:41Z</time>
      </trkpt>
      <trkpt lat="42.76608" lon="1.5376">
        <ele>1438.027</ele>
        <time>2021-03-06T08:47:43Z</time>
      </trkpt>
      <trkpt lat="42.76608" lon="1.5376">
        <ele>1438.427</ele>
        <time>2021-03-06T08:47:45Z</time>
      </trkpt>
      <trkpt lat="42.76608" lon="1.5376">
        <ele>1438.429</ele>
        <time>2021-03-06T08:47:47Z</time>
      </trkpt>
      <trkpt lat="42.76608" lon="1.5376">
        <ele>1438.431</ele>
        <time>2021-03-06T08:47:49Z</time>
      </trkpt>
      <trkpt lat="42.76608" lon="1.5376">
        <ele>1438.432</ele>
        <time>2021-03-06T08:47:51Z</time>
      </trkpt>
      <trkpt lat="42.76608" lon="1.5376">
        <ele>1438.436</ele>
        <time>2021-03-06T08:47:53Z</time>
      </trkpt>
      <trkpt lat="42.76608" lon="1.5376">
        <ele>1438.439</ele>
        <time>2021-03-06T08:47:55Z</time>
      </trkpt>
      <trkpt lat="42.76608" lon="1.5376">
        <ele>1438.444</ele>
        <time>2021-03-06T08:47:57Z</time>
      </trkpt>
      <trkpt lat="42.76608" lon="1.5376">
        <ele>1438.445</ele>
        <time>2021-03-06T08:47:59Z</time>
      </trkpt>
      <trkpt lat="42.76608" lon="1.5376">
        <ele>1438.446</ele>
        <time>2021-03-06T08:48:01Z</time>
      </trkpt>
      <trkpt lat="42.76608" lon="1.5376">
        <ele>1438.445</ele>
        <time>2021-03-06T08:48:03Z</time>
      </trkpt>
      <trkpt lat="42.76608" lon="1.5376">
        <ele>1438.444</ele>
        <time>2021-03-06T08:48:05Z</time>
      </trkpt>
      <trkpt lat="42.76608" lon="1.5376">
        <ele>1438.446</ele>
        <time>2021-03-06T08:48:07Z</time>
      </trkpt>
      <trkpt lat="42.76608" lon="1.5376">
        <ele>1438.449</ele>
        <time>2021-03-06T08:48:09Z</time>
      </trkpt>
      <trkpt lat="42.76608" lon="1.5376">
        <ele>1438.448</ele>
        <time>2021-03-06T08:48:11Z</time>
      </trkpt>
      <trkpt lat="42.76608" lon="1.5376">
        <ele>1438.444</ele>
        <time>2021-03-06T08:48:13Z</time>
      </trkpt>
      <trkpt lat="42.76608" lon="1.5376">
        <ele>1438.446</ele>
        <time>2021-03-06T08:48:15Z</time>
      </trkpt>
      <trkpt lat="42.76608" lon="1.5376">
        <ele>1438.445</ele>
        <time>2021-03-06T08:48:17Z</time>
      </trkpt>
      <trkpt lat="42.76608" lon="1.5376">
        <ele>1438.447</ele>
        <time>2021-03-06T08:48:19Z</time>
      </trkpt>
      <trkpt lat="42.76608" lon="1.5376">
        <ele>1438.447</ele>
        <time>2021-03-06T08:48:21Z</time>
      </trkpt>
      <trkpt lat="42.76608" lon="1.5376">
        <ele>1438.449</ele>
        <time>2021-03-06T08:48:23Z</time>
      </trkpt>
      <trkpt lat="42.76608" lon="1.5376">
        <ele>1438.449</ele>
        <time>2021-03-06T08:48:25Z</time>
      </trkpt>
      <trkpt lat="42.76608" lon="1.5376">
        <ele>1438.451</ele>
        <time>2021-03-06T08:48:27Z</time>
      </trkpt>
      <trkpt lat="42.76608" lon="1.5376">
        <ele>1438.454</ele>
        <time>2021-03-06T08:48:29Z</time>
      </trkpt>
      <trkpt lat="42.76608" lon="1.5376">
        <ele>1438.454</ele>
        <time>2021-03-06T08:48:31Z</time>
      </trkpt>
      <trkpt lat="42.76608" lon="1.5376">
        <ele>1438.454</ele>
        <time>2021-03-06T08:48:33Z</time>
      </trkpt>
      <trkpt lat="42.76608" lon="1.5376">
        <ele>1438.457</ele>
        <time>2021-03-06T08:48:35Z</time>
      </trkpt>
      <trkpt lat="42.76608" lon="1.5376">
        <ele>1438.46</ele>
        <time>2021-03-06T08:48:37Z</time>
      </trkpt>
      <trkpt lat="42.76608" lon="1.5376">
        <ele>1438.458</ele>
        <time>2021-03-06T08:48:39Z</time>
      </trkpt>
      <trkpt lat="42.76608" lon="1.5376">
        <ele>1438.462</ele>
        <time>2021-03-06T08:48:41Z</time>
      </trkpt>
      <trkpt lat="42.76608" lon="1.5376">
        <ele>1438.464</ele>
        <time>2021-03-06T08:48:43Z</time>
      </trkpt>
      <trkpt lat="42.76608" lon="1.5376">
        <ele>1438.465</ele>
        <time>2021-03-06T08:48:45Z</time>
      </trkpt>
      <trkpt lat="42.76608" lon="1.5376">
        <ele>1438.467</ele>
        <time>2021-03-06T08:48:47Z</time>
      </trkpt>
      <trkpt lat="42.76608" lon="1.5376">
        <ele>1438.473</ele>
        <time>2021-03-06T08:48:49Z</time>
      </trkpt>
      <trkpt lat="42.76608" lon="1.5376">
        <ele>1438.479</ele>
        <time>2021-03-06T08:48:51Z</time>
      </trkpt>
      <trkpt lat="42.76608" lon="1.5376">
        <ele>1438.48</ele>
        <time>2021-03-06T08:48:53Z</time>
      </trkpt>
      <trkpt lat="42.76608" lon="1.5376">
        <ele>1438.484</ele>
        <time>2021-03-06T08:48:55Z</time>
      </trkpt>
      <trkpt lat="42.76608" lon="1.5376">
        <ele>1438.483</ele>
        <time>2021-03-06T08:48:57Z</time>
      </trkpt>
      <trkpt lat="42.76608" lon="1.5376">
        <ele>1438.479</ele>
        <time>2021-03-06T08:48:59Z</time>
      </trkpt>
      <trkpt lat="42.76608" lon="1.5376">
        <ele>1438.482</ele>
        <time>2021-03-06T08:49:01Z</time>
      </trkpt>
      <trkpt lat="42.76608" lon="1.5376">
        <ele>1438.489</ele>
        <time>2021-03-06T08:49:03Z</time>
      </trkpt>
      <trkpt lat="42.76608" lon="1.5376">
        <ele>1438.494</ele>
        <time>2021-03-06T08:49:05Z</time>
      </trkpt>
      <trkpt lat="42.76608" lon="1.5376">
        <ele>1438.499</ele>
        <time>2021-03-06T08:49:07Z</time>
      </trkpt>
      <trkpt lat="42.76608" lon="1.5376">
        <ele>1438.501</ele>
        <time>2021-03-06T08:49:09Z</time>
      </trkpt>
      <trkpt lat="42.76608" lon="1.5376">
        <ele>1438.504</ele>
        <time>2021-03-06T08:49:11Z</time>
      </trkpt>
      <trkpt lat="42.76608" lon="1.5376">
        <ele>1438.509</ele>
        <time>2021-03-06T08:49:13Z</time>
      </trkpt>
      <trkpt lat="42.76608" lon="1.5376">
        <ele>1438.515</ele>
        <time>2021-03-06T08:49:15Z</time>
      </trkpt>
      <trkpt lat="42.76608" lon="1.5376">
        <ele>1438.518</ele>
        <time>2021-03-06T08:49:17Z</time>
      </trkpt>
      <trkpt lat="42.76608" lon="1.53761">
        <ele>1438.522</ele>
        <time>2021-03-06T08:49:19Z</time>
      </trkpt>
      <trkpt lat="42.76608" lon="1.53761">
        <ele>1438.521</ele>
        <time>2021-03-06T08:49:21Z</time>
      </trkpt>
      <trkpt lat="42.76608" lon="1.53761">
        <ele>1438.52</ele>
        <time>2021-03-06T08:49:23Z</time>
      </trkpt>
      <trkpt lat="42.76608" lon="1.53761">
        <ele>1438.52</ele>
        <time>2021-03-06T08:49:25Z</time>
      </trkpt>
      <trkpt lat="42.76608" lon="1.53761">
        <ele>1438.521</ele>
        <time>2021-03-06T08:49:27Z</time>
      </trkpt>
      <trkpt lat="42.76608" lon="1.53761">
        <ele>1438.521</ele>
        <time>2021-03-06T08:49:29Z</time>
      </trkpt>
      <trkpt lat="42.76608" lon="1.53761">
        <ele>1438.523</ele>
        <time>2021-03-06T08:49:31Z</time>
      </trkpt>
      <trkpt lat="42.76608" lon="1.53761">
        <ele>1438.524</ele>
        <time>2021-03-06T08:49:33Z</time>
      </trkpt>
      <trkpt lat="42.76608" lon="1.53761">
        <ele>1438.526</ele>
        <time>2021-03-06T08:49:35Z</time>
      </trkpt>
      <trkpt lat="42.76608" lon="1.53761">
        <ele>1438.526</ele>
        <time>2021-03-06T08:49:37Z</time>
      </trkpt>
      <trkpt lat="42.76608" lon="1.5376">
        <ele>1438.53</ele>
        <time>2021-03-06T08:49:39Z</time>
      </trkpt>
      <trkpt lat="42.76608" lon="1.5376">
        <ele>1438.845</ele>
        <time>2021-03-06T08:49:41Z</time>
      </trkpt>
      <trkpt lat="42.76608" lon="1.5376">
        <ele>1438.845</ele>
        <time>2021-03-06T08:49:43Z</time>
      </trkpt>
      <trkpt lat="42.76608" lon="1.53759">
        <ele>1437.862</ele>
        <time>2021-03-06T08:49:45Z</time>
      </trkpt>
      <trkpt lat="42.76608" lon="1.53758">
        <ele>1438.32</ele>
        <time>2021-03-06T08:49:47Z</time>
      </trkpt>
      <trkpt lat="42.76607" lon="1.53758">
        <ele>1438.615</ele>
        <time>2021-03-06T08:49:49Z</time>
      </trkpt>
      <trkpt lat="42.76608" lon="1.53755">
        <ele>1436.948</ele>
        <time>2021-03-06T08:49:51Z</time>
      </trkpt>
      <trkpt lat="42.76608" lon="1.53754">
        <ele>1436.808</ele>
        <time>2021-03-06T08:49:53Z</time>
      </trkpt>
      <trkpt lat="42.76607" lon="1.53752">
        <ele>1435.376</ele>
        <time>2021-03-06T08:49:55Z</time>
      </trkpt>
      <trkpt lat="42.76607" lon="1.53751">
        <ele>1435.983</ele>
        <time>2021-03-06T08:49:57Z</time>
      </trkpt>
      <trkpt lat="42.76607" lon="1.5375">
        <ele>1436.21</ele>
        <time>2021-03-06T08:49:59Z</time>
      </trkpt>
      <trkpt lat="42.76606" lon="1.53748">
        <ele>1436.103</ele>
        <time>2021-03-06T08:50:01Z</time>
      </trkpt>
      <trkpt lat="42.76605" lon="1.53748">
        <ele>1436.973</ele>
        <time>2021-03-06T08:50:03Z</time>
      </trkpt>
      <trkpt lat="42.76604" lon="1.53748">
        <ele>1437.901</ele>
        <time>2021-03-06T08:50:05Z</time>
      </trkpt>
      <trkpt lat="42.76603" lon="1.53748">
        <ele>1438.762</ele>
        <time>2021-03-06T08:50:07Z</time>
      </trkpt>
      <trkpt lat="42.76603" lon="1.53747">
        <ele>1439.366</ele>
        <time>2021-03-06T08:50:09Z</time>
      </trkpt>
      <trkpt lat="42.76602" lon="1.53746">
        <ele>1439.652</ele>
        <time>2021-03-06T08:50:11Z</time>
      </trkpt>
      <trkpt lat="42.76601" lon="1.53744">
        <ele>1440.621</ele>
        <time>2021-03-06T08:50:13Z</time>
      </trkpt>
      <trkpt lat="42.76601" lon="1.53743">
        <ele>1441.809</ele>
        <time>2021-03-06T08:50:15Z</time>
      </trkpt>
      <trkpt lat="42.766" lon="1.53742">
        <ele>1441.123</ele>
        <time>2021-03-06T08:50:17Z</time>
      </trkpt>
      <trkpt lat="42.76599" lon="1.53741">
        <ele>1442.089</ele>
        <time>2021-03-06T08:50:19Z</time>
      </trkpt>
      <trkpt lat="42.76599" lon="1.5374">
        <ele>1441.813</ele>
        <time>2021-03-06T08:50:21Z</time>
      </trkpt>
      <trkpt lat="42.76598" lon="1.53738">
        <ele>1440.699</ele>
        <time>2021-03-06T08:50:23Z</time>
      </trkpt>
      <trkpt lat="42.76598" lon="1.53737">
        <ele>1441.801</ele>
        <time>2021-03-06T08:50:25Z</time>
      </trkpt>
      <trkpt lat="42.76597" lon="1.53736">
        <ele>1441.993</ele>
        <time>2021-03-06T08:50:27Z</time>
      </trkpt>
      <trkpt lat="42.76597" lon="1.53735">
        <ele>1443.289</ele>
        <time>2021-03-06T08:50:29Z</time>
      </trkpt>
      <trkpt lat="42.76597" lon="1.53733">
        <ele>1442.922</ele>
        <time>2021-03-06T08:50:31Z</time>
      </trkpt>
      <trkpt lat="42.76596" lon="1.53731">
        <ele>1443.829</ele>
        <time>2021-03-06T08:50:33Z</time>
      </trkpt>
      <trkpt lat="42.76596" lon="1.5373">
        <ele>1445.744</ele>
        <time>2021-03-06T08:50:35Z</time>
      </trkpt>
      <trkpt lat="42.76595" lon="1.53728">
        <ele>1444.945</ele>
        <time>2021-03-06T08:50:37Z</time>
      </trkpt>
      <trkpt lat="42.76596" lon="1.53726">
        <ele>1444.866</ele>
        <time>2021-03-06T08:50:39Z</time>
      </trkpt>
      <trkpt lat="42.76595" lon="1.53724">
        <ele>1446.635</ele>
        <time>2021-03-06T08:50:41Z</time>
      </trkpt>
      <trkpt lat="42.76594" lon="1.53723">
        <ele>1446.137</ele>
        <time>2021-03-06T08:50:43Z</time>
      </trkpt>
      <trkpt lat="42.76593" lon="1.53722">
        <ele>1447.692</ele>
        <time>2021-03-06T08:50:45Z</time>
      </trkpt>
      <trkpt lat="42.76591" lon="1.53721">
        <ele>1448.702</ele>
        <time>2021-03-06T08:50:47Z</time>
      </trkpt>
      <trkpt lat="42.7659" lon="1.5372">
        <ele>1449.654</ele>
        <time>2021-03-06T08:50:49Z</time>
      </trkpt>
      <trkpt lat="42.76589" lon="1.5372">
        <ele>1450.9</ele>
        <time>2021-03-06T08:50:51Z</time>
      </trkpt>
      <trkpt lat="42.76588" lon="1.53719">
        <ele>1451.083</ele>
        <time>2021-03-06T08:50:53Z</time>
      </trkpt>
      <trkpt lat="42.76587" lon="1.53718">
        <ele>1451.808</ele>
        <time>2021-03-06T08:50:55Z</time>
      </trkpt>
      <trkpt lat="42.76586" lon="1.53716">
        <ele>1451.834</ele>
        <time>2021-03-06T08:50:57Z</time>
      </trkpt>
      <trkpt lat="42.76586" lon="1.53715">
        <ele>1452.198</ele>
        <time>2021-03-06T08:50:59Z</time>
      </trkpt>
      <trkpt lat="42.76585" lon="1.53713">
        <ele>1452.41</ele>
        <time>2021-03-06T08:51:01Z</time>
      </trkpt>
      <trkpt lat="42.76585" lon="1.53712">
        <ele>1452.057</ele>
        <time>2021-03-06T08:51:03Z</time>
      </trkpt>
      <trkpt lat="42.76584" lon="1.53711">
        <ele>1452.683</ele>
        <time>2021-03-06T08:51:05Z</time>
      </trkpt>
      <trkpt lat="42.76583" lon="1.5371">
        <ele>1452.219</ele>
        <time>2021-03-06T08:51:07Z</time>
      </trkpt>
      <trkpt lat="42.76582" lon="1.5371">
        <ele>1452.866</ele>
        <time>2021-03-06T08:51:09Z</time>
      </trkpt>
      <trkpt lat="42.7658" lon="1.53709">
        <ele>1453.722</ele>
        <time>2021-03-06T08:51:11Z</time>
      </trkpt>
      <trkpt lat="42.7658" lon="1.53707">
        <ele>1453.784</ele>
        <time>2021-03-06T08:51:13Z</time>
      </trkpt>
      <trkpt lat="42.76579" lon="1.53705">
        <ele>1453.429</ele>
        <time>2021-03-06T08:51:15Z</time>
      </trkpt>
      <trkpt lat="42.76578" lon="1.53704">
        <ele>1452.668</ele>
        <time>2021-03-06T08:51:17Z</time>
      </trkpt>
      <trkpt lat="42.76577" lon="1.53702">
        <ele>1453.172</ele>
        <time>2021-03-06T08:51:19Z</time>
      </trkpt>
      <trkpt lat="42.76576" lon="1.53701">
        <ele>1453.639</ele>
        <time>2021-03-06T08:51:21Z</time>
      </trkpt>
      <trkpt lat="42.76575" lon="1.537">
        <ele>1454.455</ele>
        <time>2021-03-06T08:51:23Z</time>
      </trkpt>
      <trkpt lat="42.76574" lon="1.53699">
        <ele>1454.789</ele>
        <time>2021-03-06T08:51:25Z</time>
      </trkpt>
      <trkpt lat="42.76573" lon="1.53698">
        <ele>1455.439</ele>
        <time>2021-03-06T08:51:27Z</time>
      </trkpt>
      <trkpt lat="42.76572" lon="1.53697">
        <ele>1456.239</ele>
        <time>2021-03-06T08:51:29Z</time>
      </trkpt>
      <trkpt lat="42.76572" lon="1.53696">
        <ele>1456.03</ele>
        <time>2021-03-06T08:51:31Z</time>
      </trkpt>
      <trkpt lat="42.76572" lon="1.53695">
        <ele>1456.133</ele>
        <time>2021-03-06T08:51:33Z</time>
      </trkpt>
      <trkpt lat="42.76571" lon="1.53693">
        <ele>1456.471</ele>
        <time>2021-03-06T08:51:35Z</time>
      </trkpt>
      <trkpt lat="42.7657" lon="1.53693">
        <ele>1456.607</ele>
        <time>2021-03-06T08:51:37Z</time>
      </trkpt>
      <trkpt lat="42.76569" lon="1.53692">
        <ele>1457.526</ele>
        <time>2021-03-06T08:51:39Z</time>
      </trkpt>
      <trkpt lat="42.76567" lon="1.53691">
        <ele>1458.915</ele>
        <time>2021-03-06T08:51:41Z</time>
      </trkpt>
      <trkpt lat="42.76566" lon="1.5369">
        <ele>1458.899</ele>
        <time>2021-03-06T08:51:43Z</time>
      </trkpt>
      <trkpt lat="42.76566" lon="1.53688">
        <ele>1458.875</ele>
        <time>2021-03-06T08:51:45Z</time>
      </trkpt>
      <trkpt lat="42.76565" lon="1.53686">
        <ele>1459.138</ele>
        <time>2021-03-06T08:51:47Z</time>
      </trkpt>
      <trkpt lat="42.76564" lon="1.53685">
        <ele>1459.794</ele>
        <time>2021-03-06T08:51:49Z</time>
      </trkpt>
      <trkpt lat="42.76563" lon="1.53684">
        <ele>1459.538</ele>
        <time>2021-03-06T08:51:51Z</time>
      </trkpt>
      <trkpt lat="42.76562" lon="1.53683">
        <ele>1460.896</ele>
        <time>2021-03-06T08:51:53Z</time>
      </trkpt>
      <trkpt lat="42.76561" lon="1.53682">
        <ele>1460.328</ele>
        <time>2021-03-06T08:51:55Z</time>
      </trkpt>
      <trkpt lat="42.7656" lon="1.53681">
        <ele>1459.961</ele>
        <time>2021-03-06T08:51:57Z</time>
      </trkpt>
      <trkpt lat="42.76559" lon="1.53679">
        <ele>1460.087</ele>
        <time>2021-03-06T08:51:59Z</time>
      </trkpt>
      <trkpt lat="42.76558" lon="1.53677">
        <ele>1460.195</ele>
        <time>2021-03-06T08:52:01Z</time>
      </trkpt>
      <trkpt lat="42.76557" lon="1.53676">
        <ele>1460.524</ele>
        <time>2021-03-06T08:52:03Z</time>
      </trkpt>
      <trkpt lat="42.76556" lon="1.53674">
        <ele>1461.408</ele>
        <time>2021-03-06T08:52:05Z</time>
      </trkpt>
      <trkpt lat="42.76555" lon="1.53673">
        <ele>1462.16</ele>
        <time>2021-03-06T08:52:07Z</time>
      </trkpt>
      <trkpt lat="42.76554" lon="1.53672">
        <ele>1462.907</ele>
        <time>2021-03-06T08:52:09Z</time>
      </trkpt>
      <trkpt lat="42.76553" lon="1.5367">
        <ele>1462.384</ele>
        <time>2021-03-06T08:52:11Z</time>
      </trkpt>
      <trkpt lat="42.76552" lon="1.53668">
        <ele>1463.272</ele>
        <time>2021-03-06T08:52:13Z</time>
      </trkpt>
      <trkpt lat="42.76551" lon="1.53667">
        <ele>1463.794</ele>
        <time>2021-03-06T08:52:15Z</time>
      </trkpt>
      <trkpt lat="42.76551" lon="1.53666">
        <ele>1463.948</ele>
        <time>2021-03-06T08:52:17Z</time>
      </trkpt>
      <trkpt lat="42.7655" lon="1.53666">
        <ele>1465.146</ele>
        <time>2021-03-06T08:52:19Z</time>
      </trkpt>
      <trkpt lat="42.76549" lon="1.53665">
        <ele>1465.111</ele>
        <time>2021-03-06T08:52:21Z</time>
      </trkpt>
      <trkpt lat="42.76548" lon="1.53664">
        <ele>1465.543</ele>
        <time>2021-03-06T08:52:23Z</time>
      </trkpt>
      <trkpt lat="42.76547" lon="1.53662">
        <ele>1465.676</ele>
        <time>2021-03-06T08:52:25Z</time>
      </trkpt>
      <trkpt lat="42.76546" lon="1.53661">
        <ele>1465.979</ele>
        <time>2021-03-06T08:52:27Z</time>
      </trkpt>
      <trkpt lat="42.76545" lon="1.5366">
        <ele>1466.058</ele>
        <time>2021-03-06T08:52:29Z</time>
      </trkpt>
      <trkpt lat="42.76544" lon="1.53659">
        <ele>1465.853</ele>
        <time>2021-03-06T08:52:31Z</time>
      </trkpt>
      <trkpt lat="42.76544" lon="1.53657">
        <ele>1466.286</ele>
        <time>2021-03-06T08:52:33Z</time>
      </trkpt>
      <trkpt lat="42.76543" lon="1.53656">
        <ele>1467.079</ele>
        <time>2021-03-06T08:52:35Z</time>
      </trkpt>
      <trkpt lat="42.76542" lon="1.53655">
        <ele>1467.168</ele>
        <time>2021-03-06T08:52:37Z</time>
      </trkpt>
      <trkpt lat="42.76541" lon="1.53654">
        <ele>1469.017</ele>
        <time>2021-03-06T08:52:39Z</time>
      </trkpt>
      <trkpt lat="42.7654" lon="1.53652">
        <ele>1470.145</ele>
        <time>2021-03-06T08:52:41Z</time>
      </trkpt>
      <trkpt lat="42.76539" lon="1.53651">
        <ele>1470.016</ele>
        <time>2021-03-06T08:52:43Z</time>
      </trkpt>
      <trkpt lat="42.76539" lon="1.5365">
        <ele>1470.648</ele>
        <time>2021-03-06T08:52:45Z</time>
      </trkpt>
      <trkpt lat="42.76538" lon="1.53648">
        <ele>1470.433</ele>
        <time>2021-03-06T08:52:47Z</time>
      </trkpt>
      <trkpt lat="42.76538" lon="1.53646">
        <ele>1470.431</ele>
        <time>2021-03-06T08:52:49Z</time>
      </trkpt>
      <trkpt lat="42.76537" lon="1.53645">
        <ele>1469.952</ele>
        <time>2021-03-06T08:52:51Z</time>
      </trkpt>
      <trkpt lat="42.76536" lon="1.53644">
        <ele>1469.188</ele>
        <time>2021-03-06T08:52:53Z</time>
      </trkpt>
      <trkpt lat="42.76536" lon="1.53642">
        <ele>1467.79</ele>
        <time>2021-03-06T08:52:55Z</time>
      </trkpt>
      <trkpt lat="42.76535" lon="1.53641">
        <ele>1467.572</ele>
        <time>2021-03-06T08:52:57Z</time>
      </trkpt>
      <trkpt lat="42.76534" lon="1.5364">
        <ele>1467.245</ele>
        <time>2021-03-06T08:52:59Z</time>
      </trkpt>
      <trkpt lat="42.76533" lon="1.53639">
        <ele>1467.712</ele>
        <time>2021-03-06T08:53:01Z</time>
      </trkpt>
      <trkpt lat="42.76532" lon="1.53638">
        <ele>1468.273</ele>
        <time>2021-03-06T08:53:03Z</time>
      </trkpt>
      <trkpt lat="42.76531" lon="1.53637">
        <ele>1468.227</ele>
        <time>2021-03-06T08:53:05Z</time>
      </trkpt>
      <trkpt lat="42.76529" lon="1.53636">
        <ele>1469.572</ele>
        <time>2021-03-06T08:53:07Z</time>
      </trkpt>
      <trkpt lat="42.76528" lon="1.53635">
        <ele>1470.549</ele>
        <time>2021-03-06T08:53:09Z</time>
      </trkpt>
      <trkpt lat="42.76527" lon="1.53634">
        <ele>1471.309</ele>
        <time>2021-03-06T08:53:11Z</time>
      </trkpt>
      <trkpt lat="42.76526" lon="1.53633">
        <ele>1471.519</ele>
        <time>2021-03-06T08:53:13Z</time>
      </trkpt>
      <trkpt lat="42.76525" lon="1.53631">
        <ele>1471.194</ele>
        <time>2021-03-06T08:53:15Z</time>
      </trkpt>
      <trkpt lat="42.76524" lon="1.53629">
        <ele>1470.852</ele>
        <time>2021-03-06T08:53:17Z</time>
      </trkpt>
      <trkpt lat="42.76523" lon="1.53627">
        <ele>1470.923</ele>
        <time>2021-03-06T08:53:19Z</time>
      </trkpt>
      <trkpt lat="42.76522" lon="1.53625">
        <ele>1470.988</ele>
        <time>2021-03-06T08:53:21Z</time>
      </trkpt>
      <trkpt lat="42.76522" lon="1.53623">
        <ele>1471.326</ele>
        <time>2021-03-06T08:53:23Z</time>
      </trkpt>
      <trkpt lat="42.76521" lon="1.53621">
        <ele>1471.882</ele>
        <time>2021-03-06T08:53:25Z</time>
      </trkpt>
      <trkpt lat="42.7652" lon="1.5362">
        <ele>1472.267</ele>
        <time>2021-03-06T08:53:27Z</time>
      </trkpt>
      <trkpt lat="42.76519" lon="1.53619">
        <ele>1472.978</ele>
        <time>2021-03-06T08:53:29Z</time>
      </trkpt>
      <trkpt lat="42.76517" lon="1.53618">
        <ele>1473.272</ele>
        <time>2021-03-06T08:53:31Z</time>
      </trkpt>
      <trkpt lat="42.76516" lon="1.53616">
        <ele>1474.06</ele>
        <time>2021-03-06T08:53:33Z</time>
      </trkpt>
      <trkpt lat="42.76515" lon="1.53614">
        <ele>1475.936</ele>
        <time>2021-03-06T08:53:35Z</time>
      </trkpt>
      <trkpt lat="42.76513" lon="1.53614">
        <ele>1476.134</ele>
        <time>2021-03-06T08:53:37Z</time>
      </trkpt>
      <trkpt lat="42.76512" lon="1.53613">
        <ele>1477.222</ele>
        <time>2021-03-06T08:53:39Z</time>
      </trkpt>
      <trkpt lat="42.76511" lon="1.53612">
        <ele>1478.15</ele>
        <time>2021-03-06T08:53:41Z</time>
      </trkpt>
      <trkpt lat="42.7651" lon="1.5361">
        <ele>1479.2</ele>
        <time>2021-03-06T08:53:43Z</time>
      </trkpt>
      <trkpt lat="42.7651" lon="1.53609">
        <ele>1478.609</ele>
        <time>2021-03-06T08:53:45Z</time>
      </trkpt>
      <trkpt lat="42.76509" lon="1.53607">
        <ele>1478.928</ele>
        <time>2021-03-06T08:53:47Z</time>
      </trkpt>
      <trkpt lat="42.76509" lon="1.53606">
        <ele>1479.664</ele>
        <time>2021-03-06T08:53:49Z</time>
      </trkpt>
      <trkpt lat="42.76508" lon="1.53605">
        <ele>1480.314</ele>
        <time>2021-03-06T08:53:51Z</time>
      </trkpt>
      <trkpt lat="42.76507" lon="1.53604">
        <ele>1481.175</ele>
        <time>2021-03-06T08:53:53Z</time>
      </trkpt>
      <trkpt lat="42.76505" lon="1.53603">
        <ele>1482.508</ele>
        <time>2021-03-06T08:53:55Z</time>
      </trkpt>
      <trkpt lat="42.76504" lon="1.53602">
        <ele>1483.206</ele>
        <time>2021-03-06T08:53:57Z</time>
      </trkpt>
      <trkpt lat="42.76503" lon="1.53601">
        <ele>1484.061</ele>
        <time>2021-03-06T08:53:59Z</time>
      </trkpt>
      <trkpt lat="42.76502" lon="1.53599">
        <ele>1484.142</ele>
        <time>2021-03-06T08:54:01Z</time>
      </trkpt>
      <trkpt lat="42.76501" lon="1.53597">
        <ele>1484.776</ele>
        <time>2021-03-06T08:54:03Z</time>
      </trkpt>
      <trkpt lat="42.765" lon="1.53596">
        <ele>1485.231</ele>
        <time>2021-03-06T08:54:05Z</time>
      </trkpt>
      <trkpt lat="42.76498" lon="1.53595">
        <ele>1485.421</ele>
        <time>2021-03-06T08:54:07Z</time>
      </trkpt>
      <trkpt lat="42.76497" lon="1.53594">
        <ele>1485.565</ele>
        <time>2021-03-06T08:54:09Z</time>
      </trkpt>
      <trkpt lat="42.76497" lon="1.53592">
        <ele>1485.431</ele>
        <time>2021-03-06T08:54:11Z</time>
      </trkpt>
      <trkpt lat="42.76496" lon="1.53591">
        <ele>1485.589</ele>
        <time>2021-03-06T08:54:13Z</time>
      </trkpt>
      <trkpt lat="42.76495" lon="1.53589">
        <ele>1486.38</ele>
        <time>2021-03-06T08:54:15Z</time>
      </trkpt>
      <trkpt lat="42.76494" lon="1.53588">
        <ele>1487.269</ele>
        <time>2021-03-06T08:54:17Z</time>
      </trkpt>
      <trkpt lat="42.76493" lon="1.53586">
        <ele>1487.494</ele>
        <time>2021-03-06T08:54:19Z</time>
      </trkpt>
      <trkpt lat="42.76492" lon="1.53585">
        <ele>1488.306</ele>
        <time>2021-03-06T08:54:21Z</time>
      </trkpt>
      <trkpt lat="42.76492" lon="1.53584">
        <ele>1488.216</ele>
        <time>2021-03-06T08:54:23Z</time>
      </trkpt>
      <trkpt lat="42.76491" lon="1.53583">
        <ele>1488.351</ele>
        <time>2021-03-06T08:54:25Z</time>
      </trkpt>
      <trkpt lat="42.7649" lon="1.53582">
        <ele>1489.023</ele>
        <time>2021-03-06T08:54:27Z</time>
      </trkpt>
      <trkpt lat="42.76489" lon="1.53581">
        <ele>1489.698</ele>
        <time>2021-03-06T08:54:29Z</time>
      </trkpt>
      <trkpt lat="42.76488" lon="1.5358">
        <ele>1490.43</ele>
        <time>2021-03-06T08:54:31Z</time>
      </trkpt>
      <trkpt lat="42.76487" lon="1.53578">
        <ele>1491.106</ele>
        <time>2021-03-06T08:54:33Z</time>
      </trkpt>
      <trkpt lat="42.76486" lon="1.53577">
        <ele>1490.726</ele>
        <time>2021-03-06T08:54:35Z</time>
      </trkpt>
      <trkpt lat="42.76485" lon="1.53576">
        <ele>1491.55</ele>
        <time>2021-03-06T08:54:37Z</time>
      </trkpt>
      <trkpt lat="42.76484" lon="1.53575">
        <ele>1492.696</ele>
        <time>2021-03-06T08:54:39Z</time>
      </trkpt>
      <trkpt lat="42.76484" lon="1.53573">
        <ele>1493.625</ele>
        <time>2021-03-06T08:54:41Z</time>
      </trkpt>
      <trkpt lat="42.76484" lon="1.53572">
        <ele>1493.387</ele>
        <time>2021-03-06T08:54:43Z</time>
      </trkpt>
      <trkpt lat="42.76483" lon="1.53571">
        <ele>1492.912</ele>
        <time>2021-03-06T08:54:45Z</time>
      </trkpt>
      <trkpt lat="42.76482" lon="1.5357">
        <ele>1494.204</ele>
        <time>2021-03-06T08:54:47Z</time>
      </trkpt>
      <trkpt lat="42.76481" lon="1.53569">
        <ele>1494.718</ele>
        <time>2021-03-06T08:54:49Z</time>
      </trkpt>
      <trkpt lat="42.7648" lon="1.53568">
        <ele>1494.834</ele>
        <time>2021-03-06T08:54:51Z</time>
      </trkpt>
      <trkpt lat="42.76479" lon="1.53567">
        <ele>1495.393</ele>
        <time>2021-03-06T08:54:53Z</time>
      </trkpt>
      <trkpt lat="42.76478" lon="1.53565">
        <ele>1494.749</ele>
        <time>2021-03-06T08:54:55Z</time>
      </trkpt>
      <trkpt lat="42.76477" lon="1.53564">
        <ele>1495.373</ele>
        <time>2021-03-06T08:54:57Z</time>
      </trkpt>
      <trkpt lat="42.76476" lon="1.53563">
        <ele>1497.87</ele>
        <time>2021-03-06T08:54:59Z</time>
      </trkpt>
      <trkpt lat="42.76476" lon="1.53562">
        <ele>1498.834</ele>
        <time>2021-03-06T08:55:01Z</time>
      </trkpt>
      <trkpt lat="42.76476" lon="1.53561">
        <ele>1499.164</ele>
        <time>2021-03-06T08:55:02Z</time>
      </trkpt>
      <trkpt lat="42.76474" lon="1.53559">
        <ele>1499.199</ele>
        <time>2021-03-06T08:55:05Z</time>
      </trkpt>
      <trkpt lat="42.76474" lon="1.53558">
        <ele>1500.305</ele>
        <time>2021-03-06T08:55:07Z</time>
      </trkpt>
      <trkpt lat="42.76473" lon="1.53556">
        <ele>1499.891</ele>
        <time>2021-03-06T08:55:09Z</time>
      </trkpt>
      <trkpt lat="42.76472" lon="1.53555">
        <ele>1500.651</ele>
        <time>2021-03-06T08:55:11Z</time>
      </trkpt>
      <trkpt lat="42.76471" lon="1.53554">
        <ele>1501.285</ele>
        <time>2021-03-06T08:55:13Z</time>
      </trkpt>
      <trkpt lat="42.7647" lon="1.53553">
        <ele>1502.274</ele>
        <time>2021-03-06T08:55:15Z</time>
      </trkpt>
      <trkpt lat="42.76469" lon="1.53551">
        <ele>1501.699</ele>
        <time>2021-03-06T08:55:17Z</time>
      </trkpt>
      <trkpt lat="42.76468" lon="1.53551">
        <ele>1502.434</ele>
        <time>2021-03-06T08:55:19Z</time>
      </trkpt>
      <trkpt lat="42.76467" lon="1.5355">
        <ele>1502.563</ele>
        <time>2021-03-06T08:55:21Z</time>
      </trkpt>
      <trkpt lat="42.76467" lon="1.53548">
        <ele>1502.127</ele>
        <time>2021-03-06T08:55:23Z</time>
      </trkpt>
      <trkpt lat="42.76467" lon="1.53547">
        <ele>1501.882</ele>
        <time>2021-03-06T08:55:25Z</time>
      </trkpt>
      <trkpt lat="42.76467" lon="1.53546">
        <ele>1502.149</ele>
        <time>2021-03-06T08:55:27Z</time>
      </trkpt>
      <trkpt lat="42.76466" lon="1.53544">
        <ele>1501.322</ele>
        <time>2021-03-06T08:55:29Z</time>
      </trkpt>
      <trkpt lat="42.76465" lon="1.53543">
        <ele>1502.411</ele>
        <time>2021-03-06T08:55:31Z</time>
      </trkpt>
      <trkpt lat="42.76463" lon="1.53543">
        <ele>1503.474</ele>
        <time>2021-03-06T08:55:33Z</time>
      </trkpt>
      <trkpt lat="42.76462" lon="1.53542">
        <ele>1502.933</ele>
        <time>2021-03-06T08:55:35Z</time>
      </trkpt>
      <trkpt lat="42.76462" lon="1.53541">
        <ele>1502.946</ele>
        <time>2021-03-06T08:55:37Z</time>
      </trkpt>
      <trkpt lat="42.76461" lon="1.53539">
        <ele>1503.171</ele>
        <time>2021-03-06T08:55:39Z</time>
      </trkpt>
      <trkpt lat="42.7646" lon="1.53538">
        <ele>1502.806</ele>
        <time>2021-03-06T08:55:41Z</time>
      </trkpt>
      <trkpt lat="42.76459" lon="1.53536">
        <ele>1502.334</ele>
        <time>2021-03-06T08:55:43Z</time>
      </trkpt>
      <trkpt lat="42.76459" lon="1.53534">
        <ele>1502.004</ele>
        <time>2021-03-06T08:55:45Z</time>
      </trkpt>
      <trkpt lat="42.76458" lon="1.53532">
        <ele>1502.247</ele>
        <time>2021-03-06T08:55:47Z</time>
      </trkpt>
      <trkpt lat="42.76457" lon="1.53531">
        <ele>1501.708</ele>
        <time>2021-03-06T08:55:49Z</time>
      </trkpt>
      <trkpt lat="42.76456" lon="1.53529">
        <ele>1502.687</ele>
        <time>2021-03-06T08:55:51Z</time>
      </trkpt>
      <trkpt lat="42.76456" lon="1.53528">
        <ele>1501.985</ele>
        <time>2021-03-06T08:55:53Z</time>
      </trkpt>
      <trkpt lat="42.76455" lon="1.53526">
        <ele>1503.297</ele>
        <time>2021-03-06T08:55:55Z</time>
      </trkpt>
      <trkpt lat="42.76455" lon="1.53524">
        <ele>1502.987</ele>
        <time>2021-03-06T08:55:57Z</time>
      </trkpt>
      <trkpt lat="42.76455" lon="1.53523">
        <ele>1502.599</ele>
        <time>2021-03-06T08:55:59Z</time>
      </trkpt>
      <trkpt lat="42.76454" lon="1.53522">
        <ele>1502.37</ele>
        <time>2021-03-06T08:56:01Z</time>
      </trkpt>
      <trkpt lat="42.76453" lon="1.53521">
        <ele>1502.682</ele>
        <time>2021-03-06T08:56:03Z</time>
      </trkpt>
      <trkpt lat="42.76453" lon="1.5352">
        <ele>1502.205</ele>
        <time>2021-03-06T08:56:05Z</time>
      </trkpt>
      <trkpt lat="42.76452" lon="1.53519">
        <ele>1503.371</ele>
        <time>2021-03-06T08:56:07Z</time>
      </trkpt>
      <trkpt lat="42.7645" lon="1.53519">
        <ele>1504.786</ele>
        <time>2021-03-06T08:56:09Z</time>
      </trkpt>
      <trkpt lat="42.76449" lon="1.53517">
        <ele>1506.224</ele>
        <time>2021-03-06T08:56:11Z</time>
      </trkpt>
      <trkpt lat="42.76448" lon="1.53516">
        <ele>1506.796</ele>
        <time>2021-03-06T08:56:13Z</time>
      </trkpt>
      <trkpt lat="42.76447" lon="1.53514">
        <ele>1505.689</ele>
        <time>2021-03-06T08:56:15Z</time>
      </trkpt>
      <trkpt lat="42.76446" lon="1.53513">
        <ele>1505.67</ele>
        <time>2021-03-06T08:56:17Z</time>
      </trkpt>
      <trkpt lat="42.76445" lon="1.53511">
        <ele>1506.694</ele>
        <time>2021-03-06T08:56:19Z</time>
      </trkpt>
      <trkpt lat="42.76444" lon="1.5351">
        <ele>1506.23</ele>
        <time>2021-03-06T08:56:21Z</time>
      </trkpt>
      <trkpt lat="42.76443" lon="1.53509">
        <ele>1506.212</ele>
        <time>2021-03-06T08:56:23Z</time>
      </trkpt>
      <trkpt lat="42.76442" lon="1.53507">
        <ele>1506.552</ele>
        <time>2021-03-06T08:56:25Z</time>
      </trkpt>
      <trkpt lat="42.76441" lon="1.53506">
        <ele>1506.634</ele>
        <time>2021-03-06T08:56:27Z</time>
      </trkpt>
      <trkpt lat="42.7644" lon="1.53505">
        <ele>1507.128</ele>
        <time>2021-03-06T08:56:29Z</time>
      </trkpt>
      <trkpt lat="42.76439" lon="1.53504">
        <ele>1506.768</ele>
        <time>2021-03-06T08:56:31Z</time>
      </trkpt>
      <trkpt lat="42.76438" lon="1.53503">
        <ele>1505.891</ele>
        <time>2021-03-06T08:56:33Z</time>
      </trkpt>
      <trkpt lat="42.76438" lon="1.53501">
        <ele>1505.925</ele>
        <time>2021-03-06T08:56:35Z</time>
      </trkpt>
      <trkpt lat="42.76437" lon="1.53499">
        <ele>1506.798</ele>
        <time>2021-03-06T08:56:37Z</time>
      </trkpt>
      <trkpt lat="42.76435" lon="1.53498">
        <ele>1506.854</ele>
        <time>2021-03-06T08:56:39Z</time>
      </trkpt>
      <trkpt lat="42.76435" lon="1.53496">
        <ele>1507.026</ele>
        <time>2021-03-06T08:56:41Z</time>
      </trkpt>
      <trkpt lat="42.76434" lon="1.53494">
        <ele>1507.65</ele>
        <time>2021-03-06T08:56:43Z</time>
      </trkpt>
      <trkpt lat="42.76433" lon="1.53493">
        <ele>1508.275</ele>
        <time>2021-03-06T08:56:45Z</time>
      </trkpt>
      <trkpt lat="42.76433" lon="1.53492">
        <ele>1509.364</ele>
        <time>2021-03-06T08:56:47Z</time>
      </trkpt>
      <trkpt lat="42.76432" lon="1.5349">
        <ele>1508.735</ele>
        <time>2021-03-06T08:56:49Z</time>
      </trkpt>
      <trkpt lat="42.76431" lon="1.53488">
        <ele>1508.032</ele>
        <time>2021-03-06T08:56:51Z</time>
      </trkpt>
      <trkpt lat="42.76431" lon="1.53486">
        <ele>1508.377</ele>
        <time>2021-03-06T08:56:53Z</time>
      </trkpt>
      <trkpt lat="42.7643" lon="1.53485">
        <ele>1509.162</ele>
        <time>2021-03-06T08:56:55Z</time>
      </trkpt>
      <trkpt lat="42.76429" lon="1.53483">
        <ele>1507.947</ele>
        <time>2021-03-06T08:56:57Z</time>
      </trkpt>
      <trkpt lat="42.76428" lon="1.53481">
        <ele>1508.203</ele>
        <time>2021-03-06T08:56:59Z</time>
      </trkpt>
      <trkpt lat="42.76427" lon="1.5348">
        <ele>1508.504</ele>
        <time>2021-03-06T08:57:01Z</time>
      </trkpt>
      <trkpt lat="42.76426" lon="1.53479">
        <ele>1508.415</ele>
        <time>2021-03-06T08:57:03Z</time>
      </trkpt>
      <trkpt lat="42.76425" lon="1.53478">
        <ele>1508.92</ele>
        <time>2021-03-06T08:57:05Z</time>
      </trkpt>
      <trkpt lat="42.76425" lon="1.53476">
        <ele>1508.121</ele>
        <time>2021-03-06T08:57:07Z</time>
      </trkpt>
      <trkpt lat="42.76424" lon="1.53475">
        <ele>1508.245</ele>
        <time>2021-03-06T08:57:09Z</time>
      </trkpt>
      <trkpt lat="42.76424" lon="1.53473">
        <ele>1509.972</ele>
        <time>2021-03-06T08:57:11Z</time>
      </trkpt>
      <trkpt lat="42.76423" lon="1.53472">
        <ele>1511.975</ele>
        <time>2021-03-06T08:57:13Z</time>
      </trkpt>
      <trkpt lat="42.76422" lon="1.53471">
        <ele>1513.113</ele>
        <time>2021-03-06T08:57:15Z</time>
      </trkpt>
      <trkpt lat="42.76422" lon="1.53468">
        <ele>1511.811</ele>
        <time>2021-03-06T08:57:17Z</time>
      </trkpt>
      <trkpt lat="42.76421" lon="1.53466">
        <ele>1512.952</ele>
        <time>2021-03-06T08:57:19Z</time>
      </trkpt>
      <trkpt lat="42.76421" lon="1.53465">
        <ele>1514.621</ele>
        <time>2021-03-06T08:57:21Z</time>
      </trkpt>
      <trkpt lat="42.7642" lon="1.53462">
        <ele>1515.012</ele>
        <time>2021-03-06T08:57:23Z</time>
      </trkpt>
      <trkpt lat="42.76419" lon="1.53461">
        <ele>1516.804</ele>
        <time>2021-03-06T08:57:25Z</time>
      </trkpt>
      <trkpt lat="42.76418" lon="1.53459">
        <ele>1518.147</ele>
        <time>2021-03-06T08:57:27Z</time>
      </trkpt>
      <trkpt lat="42.76418" lon="1.53458">
        <ele>1519.035</ele>
        <time>2021-03-06T08:57:29Z</time>
      </trkpt>
      <trkpt lat="42.76417" lon="1.53456">
        <ele>1519.715</ele>
        <time>2021-03-06T08:57:31Z</time>
      </trkpt>
      <trkpt lat="42.76416" lon="1.53455">
        <ele>1519.966</ele>
        <time>2021-03-06T08:57:33Z</time>
      </trkpt>
      <trkpt lat="42.76416" lon="1.53454">
        <ele>1520.352</ele>
        <time>2021-03-06T08:57:35Z</time>
      </trkpt>
      <trkpt lat="42.76415" lon="1.53452">
        <ele>1520.45</ele>
        <time>2021-03-06T08:57:37Z</time>
      </trkpt>
      <trkpt lat="42.76414" lon="1.53451">
        <ele>1521.377</ele>
        <time>2021-03-06T08:57:39Z</time>
      </trkpt>
      <trkpt lat="42.76414" lon="1.53449">
        <ele>1521.988</ele>
        <time>2021-03-06T08:57:41Z</time>
      </trkpt>
      <trkpt lat="42.76413" lon="1.53448">
        <ele>1522.61</ele>
        <time>2021-03-06T08:57:43Z</time>
      </trkpt>
      <trkpt lat="42.76413" lon="1.53447">
        <ele>1522.455</ele>
        <time>2021-03-06T08:57:45Z</time>
      </trkpt>
      <trkpt lat="42.76413" lon="1.53445">
        <ele>1524.227</ele>
        <time>2021-03-06T08:57:47Z</time>
      </trkpt>
      <trkpt lat="42.76412" lon="1.53444">
        <ele>1524.312</ele>
        <time>2021-03-06T08:57:49Z</time>
      </trkpt>
      <trkpt lat="42.76411" lon="1.53442">
        <ele>1524.602</ele>
        <time>2021-03-06T08:57:51Z</time>
      </trkpt>
      <trkpt lat="42.7641" lon="1.5344">
        <ele>1525.4</ele>
        <time>2021-03-06T08:57:53Z</time>
      </trkpt>
      <trkpt lat="42.7641" lon="1.53439">
        <ele>1525.079</ele>
        <time>2021-03-06T08:57:55Z</time>
      </trkpt>
      <trkpt lat="42.76409" lon="1.53437">
        <ele>1524.113</ele>
        <time>2021-03-06T08:57:57Z</time>
      </trkpt>
      <trkpt lat="42.76408" lon="1.53435">
        <ele>1524.396</ele>
        <time>2021-03-06T08:57:59Z</time>
      </trkpt>
      <trkpt lat="42.76408" lon="1.53433">
        <ele>1523.21</ele>
        <time>2021-03-06T08:58:01Z</time>
      </trkpt>
      <trkpt lat="42.76407" lon="1.53432">
        <ele>1524.753</ele>
        <time>2021-03-06T08:58:03Z</time>
      </trkpt>
      <trkpt lat="42.76406" lon="1.53431">
        <ele>1525.474</ele>
        <time>2021-03-06T08:58:05Z</time>
      </trkpt>
      <trkpt lat="42.76405" lon="1.53429">
        <ele>1526.098</ele>
        <time>2021-03-06T08:58:07Z</time>
      </trkpt>
      <trkpt lat="42.76404" lon="1.53428">
        <ele>1525.685</ele>
        <time>2021-03-06T08:58:09Z</time>
      </trkpt>
      <trkpt lat="42.76403" lon="1.53426">
        <ele>1524.906</ele>
        <time>2021-03-06T08:58:11Z</time>
      </trkpt>
      <trkpt lat="42.76402" lon="1.53425">
        <ele>1526.013</ele>
        <time>2021-03-06T08:58:13Z</time>
      </trkpt>
      <trkpt lat="42.76401" lon="1.53424">
        <ele>1525.436</ele>
        <time>2021-03-06T08:58:15Z</time>
      </trkpt>
      <trkpt lat="42.764" lon="1.53424">
        <ele>1527.149</ele>
        <time>2021-03-06T08:58:17Z</time>
      </trkpt>
      <trkpt lat="42.76399" lon="1.53422">
        <ele>1526.041</ele>
        <time>2021-03-06T08:58:19Z</time>
      </trkpt>
      <trkpt lat="42.76398" lon="1.5342">
        <ele>1528.097</ele>
        <time>2021-03-06T08:58:21Z</time>
      </trkpt>
      <trkpt lat="42.76397" lon="1.53419">
        <ele>1527.093</ele>
        <time>2021-03-06T08:58:23Z</time>
      </trkpt>
      <trkpt lat="42.76396" lon="1.53417">
        <ele>1526.063</ele>
        <time>2021-03-06T08:58:25Z</time>
      </trkpt>
      <trkpt lat="42.76396" lon="1.53414">
        <ele>1526.511</ele>
        <time>2021-03-06T08:58:27Z</time>
      </trkpt>
      <trkpt lat="42.76395" lon="1.53412">
        <ele>1525.699</ele>
        <time>2021-03-06T08:58:29Z</time>
      </trkpt>
      <trkpt lat="42.76393" lon="1.5341">
        <ele>1525.771</ele>
        <time>2021-03-06T08:58:31Z</time>
      </trkpt>
      <trkpt lat="42.76393" lon="1.53409">
        <ele>1525.695</ele>
        <time>2021-03-06T08:58:33Z</time>
      </trkpt>
      <trkpt lat="42.76392" lon="1.53407">
        <ele>1525.175</ele>
        <time>2021-03-06T08:58:35Z</time>
      </trkpt>
      <trkpt lat="42.76391" lon="1.53405">
        <ele>1526.486</ele>
        <time>2021-03-06T08:58:37Z</time>
      </trkpt>
      <trkpt lat="42.76391" lon="1.53403">
        <ele>1526.622</ele>
        <time>2021-03-06T08:58:39Z</time>
      </trkpt>
      <trkpt lat="42.7639" lon="1.53402">
        <ele>1527.826</ele>
        <time>2021-03-06T08:58:41Z</time>
      </trkpt>
      <trkpt lat="42.76389" lon="1.534">
        <ele>1527.117</ele>
        <time>2021-03-06T08:58:43Z</time>
      </trkpt>
      <trkpt lat="42.76388" lon="1.53397">
        <ele>1526.341</ele>
        <time>2021-03-06T08:58:45Z</time>
      </trkpt>
      <trkpt lat="42.76387" lon="1.53396">
        <ele>1525.936</ele>
        <time>2021-03-06T08:58:47Z</time>
      </trkpt>
      <trkpt lat="42.76386" lon="1.53394">
        <ele>1525.964</ele>
        <time>2021-03-06T08:58:49Z</time>
      </trkpt>
      <trkpt lat="42.76385" lon="1.53392">
        <ele>1526.418</ele>
        <time>2021-03-06T08:58:51Z</time>
      </trkpt>
      <trkpt lat="42.76384" lon="1.53391">
        <ele>1526.563</ele>
        <time>2021-03-06T08:58:53Z</time>
      </trkpt>
      <trkpt lat="42.76383" lon="1.53389">
        <ele>1525.947</ele>
        <time>2021-03-06T08:58:55Z</time>
      </trkpt>
      <trkpt lat="42.76383" lon="1.53386">
        <ele>1526.301</ele>
        <time>2021-03-06T08:58:57Z</time>
      </trkpt>
      <trkpt lat="42.76382" lon="1.53385">
        <ele>1527.328</ele>
        <time>2021-03-06T08:58:59Z</time>
      </trkpt>
      <trkpt lat="42.76381" lon="1.53383">
        <ele>1530.116</ele>
        <time>2021-03-06T08:59:01Z</time>
      </trkpt>
      <trkpt lat="42.7638" lon="1.53382">
        <ele>1531.495</ele>
        <time>2021-03-06T08:59:03Z</time>
      </trkpt>
      <trkpt lat="42.76379" lon="1.53382">
        <ele>1534.423</ele>
        <time>2021-03-06T08:59:05Z</time>
      </trkpt>
      <trkpt lat="42.76377" lon="1.53382">
        <ele>1535.356</ele>
        <time>2021-03-06T08:59:07Z</time>
      </trkpt>
      <trkpt lat="42.76376" lon="1.5338">
        <ele>1534.43</ele>
        <time>2021-03-06T08:59:09Z</time>
      </trkpt>
      <trkpt lat="42.76375" lon="1.53378">
        <ele>1532.631</ele>
        <time>2021-03-06T08:59:11Z</time>
      </trkpt>
      <trkpt lat="42.76375" lon="1.53376">
        <ele>1532.99</ele>
        <time>2021-03-06T08:59:13Z</time>
      </trkpt>
      <trkpt lat="42.76374" lon="1.53374">
        <ele>1533.097</ele>
        <time>2021-03-06T08:59:15Z</time>
      </trkpt>
      <trkpt lat="42.76373" lon="1.53373">
        <ele>1535.009</ele>
        <time>2021-03-06T08:59:17Z</time>
      </trkpt>
      <trkpt lat="42.76372" lon="1.53371">
        <ele>1534.753</ele>
        <time>2021-03-06T08:59:19Z</time>
      </trkpt>
      <trkpt lat="42.76371" lon="1.53369">
        <ele>1534.186</ele>
        <time>2021-03-06T08:59:21Z</time>
      </trkpt>
      <trkpt lat="42.76371" lon="1.53367">
        <ele>1534.356</ele>
        <time>2021-03-06T08:59:23Z</time>
      </trkpt>
      <trkpt lat="42.7637" lon="1.53366">
        <ele>1536.911</ele>
        <time>2021-03-06T08:59:25Z</time>
      </trkpt>
      <trkpt lat="42.76368" lon="1.53365">
        <ele>1537.786</ele>
        <time>2021-03-06T08:59:27Z</time>
      </trkpt>
      <trkpt lat="42.76366" lon="1.53363">
        <ele>1538.967</ele>
        <time>2021-03-06T08:59:29Z</time>
      </trkpt>
      <trkpt lat="42.76364" lon="1.53362">
        <ele>1540.591</ele>
        <time>2021-03-06T08:59:31Z</time>
      </trkpt>
      <trkpt lat="42.76363" lon="1.53362">
        <ele>1542.061</ele>
        <time>2021-03-06T08:59:33Z</time>
      </trkpt>
      <trkpt lat="42.76362" lon="1.5336">
        <ele>1542.358</ele>
        <time>2021-03-06T08:59:35Z</time>
      </trkpt>
      <trkpt lat="42.7636" lon="1.53359">
        <ele>1541.654</ele>
        <time>2021-03-06T08:59:37Z</time>
      </trkpt>
      <trkpt lat="42.76359" lon="1.53359">
        <ele>1542.282</ele>
        <time>2021-03-06T08:59:39Z</time>
      </trkpt>
      <trkpt lat="42.76358" lon="1.53359">
        <ele>1543.014</ele>
        <time>2021-03-06T08:59:41Z</time>
      </trkpt>
      <trkpt lat="42.76357" lon="1.53357">
        <ele>1543.016</ele>
        <time>2021-03-06T08:59:43Z</time>
      </trkpt>
      <trkpt lat="42.76355" lon="1.53357">
        <ele>1544.148</ele>
        <time>2021-03-06T08:59:45Z</time>
      </trkpt>
      <trkpt lat="42.76354" lon="1.53357">
        <ele>1544.631</ele>
        <time>2021-03-06T08:59:47Z</time>
      </trkpt>
      <trkpt lat="42.76353" lon="1.53356">
        <ele>1544.872</ele>
        <time>2021-03-06T08:59:49Z</time>
      </trkpt>
      <trkpt lat="42.76351" lon="1.53355">
        <ele>1543.786</ele>
        <time>2021-03-06T08:59:51Z</time>
      </trkpt>
      <trkpt lat="42.7635" lon="1.53354">
        <ele>1543.099</ele>
        <time>2021-03-06T08:59:53Z</time>
      </trkpt>
      <trkpt lat="42.76349" lon="1.53353">
        <ele>1543.107</ele>
        <time>2021-03-06T08:59:55Z</time>
      </trkpt>
      <trkpt lat="42.76347" lon="1.53352">
        <ele>1544.086</ele>
        <time>2021-03-06T08:59:57Z</time>
      </trkpt>
      <trkpt lat="42.76346" lon="1.53352">
        <ele>1544.606</ele>
        <time>2021-03-06T08:59:59Z</time>
      </trkpt>
      <trkpt lat="42.76345" lon="1.53351">
        <ele>1544.212</ele>
        <time>2021-03-06T09:00:01Z</time>
      </trkpt>
      <trkpt lat="42.76344" lon="1.53351">
        <ele>1544.496</ele>
        <time>2021-03-06T09:00:03Z</time>
      </trkpt>
      <trkpt lat="42.76342" lon="1.5335">
        <ele>1544.228</ele>
        <time>2021-03-06T09:00:05Z</time>
      </trkpt>
      <trkpt lat="42.76341" lon="1.53349">
        <ele>1544.202</ele>
        <time>2021-03-06T09:00:07Z</time>
      </trkpt>
      <trkpt lat="42.7634" lon="1.53348">
        <ele>1544.299</ele>
        <time>2021-03-06T09:00:09Z</time>
      </trkpt>
      <trkpt lat="42.76338" lon="1.53346">
        <ele>1544.824</ele>
        <time>2021-03-06T09:00:11Z</time>
      </trkpt>
      <trkpt lat="42.76337" lon="1.53347">
        <ele>1546.866</ele>
        <time>2021-03-06T09:00:13Z</time>
      </trkpt>
      <trkpt lat="42.76335" lon="1.53346">
        <ele>1546.185</ele>
        <time>2021-03-06T09:00:15Z</time>
      </trkpt>
      <trkpt lat="42.76334" lon="1.53345">
        <ele>1546.94</ele>
        <time>2021-03-06T09:00:17Z</time>
      </trkpt>
      <trkpt lat="42.76333" lon="1.53344">
        <ele>1546.51</ele>
        <time>2021-03-06T09:00:19Z</time>
      </trkpt>
      <trkpt lat="42.76332" lon="1.53344">
        <ele>1546.912</ele>
        <time>2021-03-06T09:00:21Z</time>
      </trkpt>
      <trkpt lat="42.76331" lon="1.53343">
        <ele>1547.249</ele>
        <time>2021-03-06T09:00:23Z</time>
      </trkpt>
      <trkpt lat="42.76329" lon="1.53343">
        <ele>1546.359</ele>
        <time>2021-03-06T09:00:25Z</time>
      </trkpt>
      <trkpt lat="42.76328" lon="1.53341">
        <ele>1545.917</ele>
        <time>2021-03-06T09:00:27Z</time>
      </trkpt>
      <trkpt lat="42.76327" lon="1.5334">
        <ele>1545.24</ele>
        <time>2021-03-06T09:00:29Z</time>
      </trkpt>
      <trkpt lat="42.76326" lon="1.53338">
        <ele>1544.549</ele>
        <time>2021-03-06T09:00:31Z</time>
      </trkpt>
      <trkpt lat="42.76325" lon="1.53337">
        <ele>1545.002</ele>
        <time>2021-03-06T09:00:33Z</time>
      </trkpt>
      <trkpt lat="42.76324" lon="1.53336">
        <ele>1544.394</ele>
        <time>2021-03-06T09:00:35Z</time>
      </trkpt>
      <trkpt lat="42.76323" lon="1.53335">
        <ele>1544.535</ele>
        <time>2021-03-06T09:00:37Z</time>
      </trkpt>
      <trkpt lat="42.76322" lon="1.53335">
        <ele>1544.54</ele>
        <time>2021-03-06T09:00:39Z</time>
      </trkpt>
      <trkpt lat="42.76321" lon="1.53334">
        <ele>1544.521</ele>
        <time>2021-03-06T09:00:41Z</time>
      </trkpt>
      <trkpt lat="42.7632" lon="1.53334">
        <ele>1544.082</ele>
        <time>2021-03-06T09:00:43Z</time>
      </trkpt>
      <trkpt lat="42.76318" lon="1.53333">
        <ele>1544.972</ele>
        <time>2021-03-06T09:00:45Z</time>
      </trkpt>
      <trkpt lat="42.76317" lon="1.53333">
        <ele>1544.876</ele>
        <time>2021-03-06T09:00:47Z</time>
      </trkpt>
      <trkpt lat="42.76316" lon="1.53331">
        <ele>1544.573</ele>
        <time>2021-03-06T09:00:49Z</time>
      </trkpt>
      <trkpt lat="42.76314" lon="1.53329">
        <ele>1545.132</ele>
        <time>2021-03-06T09:00:51Z</time>
      </trkpt>
      <trkpt lat="42.76313" lon="1.53327">
        <ele>1545.661</ele>
        <time>2021-03-06T09:00:53Z</time>
      </trkpt>
      <trkpt lat="42.76312" lon="1.53325">
        <ele>1546.569</ele>
        <time>2021-03-06T09:00:55Z</time>
      </trkpt>
      <trkpt lat="42.76311" lon="1.53323">
        <ele>1546.116</ele>
        <time>2021-03-06T09:00:57Z</time>
      </trkpt>
      <trkpt lat="42.76309" lon="1.53322">
        <ele>1546.134</ele>
        <time>2021-03-06T09:00:59Z</time>
      </trkpt>
      <trkpt lat="42.76307" lon="1.5332">
        <ele>1546.507</ele>
        <time>2021-03-06T09:01:01Z</time>
      </trkpt>
      <trkpt lat="42.76306" lon="1.5332">
        <ele>1546.811</ele>
        <time>2021-03-06T09:01:03Z</time>
      </trkpt>
      <trkpt lat="42.76306" lon="1.53319">
        <ele>1546.747</ele>
        <time>2021-03-06T09:01:05Z</time>
      </trkpt>
      <trkpt lat="42.76306" lon="1.53319">
        <ele>1546.753</ele>
        <time>2021-03-06T09:01:07Z</time>
      </trkpt>
      <trkpt lat="42.76306" lon="1.53319">
        <ele>1546.749</ele>
        <time>2021-03-06T09:01:09Z</time>
      </trkpt>
      <trkpt lat="42.76306" lon="1.53319">
        <ele>1546.755</ele>
        <time>2021-03-06T09:01:11Z</time>
      </trkpt>
      <trkpt lat="42.76306" lon="1.53319">
        <ele>1546.775</ele>
        <time>2021-03-06T09:01:13Z</time>
      </trkpt>
      <trkpt lat="42.76306" lon="1.53319">
        <ele>1546.788</ele>
        <time>2021-03-06T09:01:15Z</time>
      </trkpt>
      <trkpt lat="42.76306" lon="1.53319">
        <ele>1546.796</ele>
        <time>2021-03-06T09:01:17Z</time>
      </trkpt>
      <trkpt lat="42.76306" lon="1.53319">
        <ele>1546.79</ele>
        <time>2021-03-06T09:01:19Z</time>
      </trkpt>
      <trkpt lat="42.76306" lon="1.53319">
        <ele>1546.782</ele>
        <time>2021-03-06T09:01:21Z</time>
      </trkpt>
      <trkpt lat="42.76306" lon="1.53319">
        <ele>1546.789</ele>
        <time>2021-03-06T09:01:23Z</time>
      </trkpt>
      <trkpt lat="42.76306" lon="1.53319">
        <ele>1546.806</ele>
        <time>2021-03-06T09:01:25Z</time>
      </trkpt>
      <trkpt lat="42.76306" lon="1.53319">
        <ele>1546.817</ele>
        <time>2021-03-06T09:01:27Z</time>
      </trkpt>
      <trkpt lat="42.76306" lon="1.53319">
        <ele>1546.839</ele>
        <time>2021-03-06T09:01:29Z</time>
      </trkpt>
      <trkpt lat="42.76306" lon="1.53319">
        <ele>1546.84</ele>
        <time>2021-03-06T09:01:31Z</time>
      </trkpt>
      <trkpt lat="42.76306" lon="1.53319">
        <ele>1546.837</ele>
        <time>2021-03-06T09:01:33Z</time>
      </trkpt>
      <trkpt lat="42.76306" lon="1.53319">
        <ele>1546.832</ele>
        <time>2021-03-06T09:01:35Z</time>
      </trkpt>
      <trkpt lat="42.76306" lon="1.53319">
        <ele>1546.838</ele>
        <time>2021-03-06T09:01:37Z</time>
      </trkpt>
      <trkpt lat="42.76306" lon="1.53319">
        <ele>1546.837</ele>
        <time>2021-03-06T09:01:39Z</time>
      </trkpt>
      <trkpt lat="42.76306" lon="1.53319">
        <ele>1546.846</ele>
        <time>2021-03-06T09:01:41Z</time>
      </trkpt>
      <trkpt lat="42.76306" lon="1.53319">
        <ele>1546.864</ele>
        <time>2021-03-06T09:01:43Z</time>
      </trkpt>
      <trkpt lat="42.76306" lon="1.53319">
        <ele>1546.88</ele>
        <time>2021-03-06T09:01:45Z</time>
      </trkpt>
      <trkpt lat="42.76306" lon="1.53319">
        <ele>1546.883</ele>
        <time>2021-03-06T09:01:47Z</time>
      </trkpt>
      <trkpt lat="42.76306" lon="1.53319">
        <ele>1546.894</ele>
        <time>2021-03-06T09:01:49Z</time>
      </trkpt>
      <trkpt lat="42.76306" lon="1.53319">
        <ele>1546.918</ele>
        <time>2021-03-06T09:01:51Z</time>
      </trkpt>
      <trkpt lat="42.76306" lon="1.53319">
        <ele>1546.933</ele>
        <time>2021-03-06T09:01:53Z</time>
      </trkpt>
      <trkpt lat="42.76306" lon="1.53319">
        <ele>1546.955</ele>
        <time>2021-03-06T09:01:55Z</time>
      </trkpt>
      <trkpt lat="42.76306" lon="1.53319">
        <ele>1547.001</ele>
        <time>2021-03-06T09:01:57Z</time>
      </trkpt>
      <trkpt lat="42.76306" lon="1.53319">
        <ele>1547.025</ele>
        <time>2021-03-06T09:01:59Z</time>
      </trkpt>
      <trkpt lat="42.76306" lon="1.53319">
        <ele>1547.035</ele>
        <time>2021-03-06T09:02:01Z</time>
      </trkpt>
      <trkpt lat="42.76306" lon="1.53319">
        <ele>1547.043</ele>
        <time>2021-03-06T09:02:03Z</time>
      </trkpt>
      <trkpt lat="42.76306" lon="1.53319">
        <ele>1547.069</ele>
        <time>2021-03-06T09:02:05Z</time>
      </trkpt>
      <trkpt lat="42.76306" lon="1.53319">
        <ele>1547.069</ele>
        <time>2021-03-06T09:02:07Z</time>
      </trkpt>
      <trkpt lat="42.76306" lon="1.53319">
        <ele>1547.063</ele>
        <time>2021-03-06T09:02:09Z</time>
      </trkpt>
      <trkpt lat="42.76305" lon="1.53319">
        <ele>1546.562</ele>
        <time>2021-03-06T09:02:11Z</time>
      </trkpt>
      <trkpt lat="42.76305" lon="1.53319">
        <ele>1546.565</ele>
        <time>2021-03-06T09:02:13Z</time>
      </trkpt>
      <trkpt lat="42.76305" lon="1.53319">
        <ele>1546.567</ele>
        <time>2021-03-06T09:02:15Z</time>
      </trkpt>
      <trkpt lat="42.76305" lon="1.53319">
        <ele>1546.568</ele>
        <time>2021-03-06T09:02:17Z</time>
      </trkpt>
      <trkpt lat="42.76305" lon="1.53319">
        <ele>1546.575</ele>
        <time>2021-03-06T09:02:19Z</time>
      </trkpt>
      <trkpt lat="42.76305" lon="1.53319">
        <ele>1546.629</ele>
        <time>2021-03-06T09:02:21Z</time>
      </trkpt>
      <trkpt lat="42.76305" lon="1.53318">
        <ele>1546.857</ele>
        <time>2021-03-06T09:02:23Z</time>
      </trkpt>
      <trkpt lat="42.76305" lon="1.53318">
        <ele>1546.223</ele>
        <time>2021-03-06T09:02:25Z</time>
      </trkpt>
      <trkpt lat="42.76304" lon="1.53318">
        <ele>1545.923</ele>
        <time>2021-03-06T09:02:27Z</time>
      </trkpt>
      <trkpt lat="42.76304" lon="1.53319">
        <ele>1545.829</ele>
        <time>2021-03-06T09:02:29Z</time>
      </trkpt>
      <trkpt lat="42.76304" lon="1.5332">
        <ele>1545.844</ele>
        <time>2021-03-06T09:02:31Z</time>
      </trkpt>
      <trkpt lat="42.76304" lon="1.5332">
        <ele>1545.345</ele>
        <time>2021-03-06T09:02:33Z</time>
      </trkpt>
      <trkpt lat="42.76304" lon="1.5332">
        <ele>1545.319</ele>
        <time>2021-03-06T09:02:35Z</time>
      </trkpt>
      <trkpt lat="42.76304" lon="1.5332">
        <ele>1545.314</ele>
        <time>2021-03-06T09:02:37Z</time>
      </trkpt>
      <trkpt lat="42.76304" lon="1.5332">
        <ele>1545.307</ele>
        <time>2021-03-06T09:02:39Z</time>
      </trkpt>
      <trkpt lat="42.76304" lon="1.5332">
        <ele>1545.305</ele>
        <time>2021-03-06T09:02:41Z</time>
      </trkpt>
      <trkpt lat="42.76304" lon="1.5332">
        <ele>1545.306</ele>
        <time>2021-03-06T09:02:43Z</time>
      </trkpt>
      <trkpt lat="42.76304" lon="1.5332">
        <ele>1544.955</ele>
        <time>2021-03-06T09:02:45Z</time>
      </trkpt>
      <trkpt lat="42.76304" lon="1.5332">
        <ele>1544.939</ele>
        <time>2021-03-06T09:02:47Z</time>
      </trkpt>
      <trkpt lat="42.76304" lon="1.53321">
        <ele>1545.014</ele>
        <time>2021-03-06T09:02:49Z</time>
      </trkpt>
      <trkpt lat="42.76304" lon="1.53321">
        <ele>1545.376</ele>
        <time>2021-03-06T09:02:51Z</time>
      </trkpt>
      <trkpt lat="42.76305" lon="1.53322">
        <ele>1547.166</ele>
        <time>2021-03-06T09:02:53Z</time>
      </trkpt>
      <trkpt lat="42.76305" lon="1.53322">
        <ele>1546.627</ele>
        <time>2021-03-06T09:02:55Z</time>
      </trkpt>
      <trkpt lat="42.76306" lon="1.53323">
        <ele>1546.14</ele>
        <time>2021-03-06T09:02:57Z</time>
      </trkpt>
      <trkpt lat="42.76307" lon="1.53323">
        <ele>1545.995</ele>
        <time>2021-03-06T09:02:59Z</time>
      </trkpt>
      <trkpt lat="42.76307" lon="1.53323">
        <ele>1545.957</ele>
        <time>2021-03-06T09:03:01Z</time>
      </trkpt>
      <trkpt lat="42.76307" lon="1.53323">
        <ele>1545.952</ele>
        <time>2021-03-06T09:03:03Z</time>
      </trkpt>
      <trkpt lat="42.76307" lon="1.53323">
        <ele>1545.956</ele>
        <time>2021-03-06T09:03:05Z</time>
      </trkpt>
      <trkpt lat="42.76307" lon="1.53324">
        <ele>1545.954</ele>
        <time>2021-03-06T09:03:07Z</time>
      </trkpt>
      <trkpt lat="42.76307" lon="1.53323">
        <ele>1545.961</ele>
        <time>2021-03-06T09:03:09Z</time>
      </trkpt>
      <trkpt lat="42.76307" lon="1.53323">
        <ele>1546.417</ele>
        <time>2021-03-06T09:03:11Z</time>
      </trkpt>
      <trkpt lat="42.76308" lon="1.53324">
        <ele>1546.149</ele>
        <time>2021-03-06T09:03:13Z</time>
      </trkpt>
      <trkpt lat="42.76308" lon="1.53324">
        <ele>1546.18</ele>
        <time>2021-03-06T09:03:15Z</time>
      </trkpt>
      <trkpt lat="42.76308" lon="1.53324">
        <ele>1546.188</ele>
        <time>2021-03-06T09:03:17Z</time>
      </trkpt>
      <trkpt lat="42.76308" lon="1.53324">
        <ele>1546.201</ele>
        <time>2021-03-06T09:03:19Z</time>
      </trkpt>
      <trkpt lat="42.76308" lon="1.53324">
        <ele>1546.214</ele>
        <time>2021-03-06T09:03:21Z</time>
      </trkpt>
      <trkpt lat="42.76308" lon="1.53324">
        <ele>1546.032</ele>
        <time>2021-03-06T09:03:23Z</time>
      </trkpt>
      <trkpt lat="42.76307" lon="1.53323">
        <ele>1547.045</ele>
        <time>2021-03-06T09:03:25Z</time>
      </trkpt>
      <trkpt lat="42.76307" lon="1.53323">
        <ele>1547.059</ele>
        <time>2021-03-06T09:03:27Z</time>
      </trkpt>
      <trkpt lat="42.76307" lon="1.53323">
        <ele>1547.067</ele>
        <time>2021-03-06T09:03:29Z</time>
      </trkpt>
      <trkpt lat="42.76307" lon="1.53324">
        <ele>1547.301</ele>
        <time>2021-03-06T09:03:31Z</time>
      </trkpt>
      <trkpt lat="42.76308" lon="1.53325">
        <ele>1547.116</ele>
        <time>2021-03-06T09:03:33Z</time>
      </trkpt>
      <trkpt lat="42.76309" lon="1.53326">
        <ele>1547.278</ele>
        <time>2021-03-06T09:03:35Z</time>
      </trkpt>
      <trkpt lat="42.7631" lon="1.53327">
        <ele>1547.886</ele>
        <time>2021-03-06T09:03:37Z</time>
      </trkpt>
      <trkpt lat="42.76311" lon="1.53327">
        <ele>1548.642</ele>
        <time>2021-03-06T09:03:39Z</time>
      </trkpt>
      <trkpt lat="42.76311" lon="1.53329">
        <ele>1547.98</ele>
        <time>2021-03-06T09:03:41Z</time>
      </trkpt>
      <trkpt lat="42.76312" lon="1.53328">
        <ele>1547.277</ele>
        <time>2021-03-06T09:03:43Z</time>
      </trkpt>
      <trkpt lat="42.76315" lon="1.53328">
        <ele>1548.526</ele>
        <time>2021-03-06T09:03:45Z</time>
      </trkpt>
      <trkpt lat="42.76318" lon="1.53329">
        <ele>1548.783</ele>
        <time>2021-03-06T09:03:47Z</time>
      </trkpt>
      <trkpt lat="42.7632" lon="1.5333">
        <ele>1548.529</ele>
        <time>2021-03-06T09:03:49Z</time>
      </trkpt>
      <trkpt lat="42.76322" lon="1.53331">
        <ele>1548.235</ele>
        <time>2021-03-06T09:03:51Z</time>
      </trkpt>
      <trkpt lat="42.76324" lon="1.53333">
        <ele>1548.004</ele>
        <time>2021-03-06T09:03:53Z</time>
      </trkpt>
      <trkpt lat="42.76326" lon="1.53333">
        <ele>1546.905</ele>
        <time>2021-03-06T09:03:55Z</time>
      </trkpt>
      <trkpt lat="42.76328" lon="1.53334">
        <ele>1546.43</ele>
        <time>2021-03-06T09:03:57Z</time>
      </trkpt>
      <trkpt lat="42.76329" lon="1.53336">
        <ele>1547.37</ele>
        <time>2021-03-06T09:03:59Z</time>
      </trkpt>
      <trkpt lat="42.76328" lon="1.53336">
        <ele>1546.155</ele>
        <time>2021-03-06T09:04:01Z</time>
      </trkpt>
      <trkpt lat="42.76327" lon="1.53337">
        <ele>1546.431</ele>
        <time>2021-03-06T09:04:03Z</time>
      </trkpt>
      <trkpt lat="42.76327" lon="1.53337">
        <ele>1546.429</ele>
        <time>2021-03-06T09:04:05Z</time>
      </trkpt>
      <trkpt lat="42.76327" lon="1.53337">
        <ele>1546.353</ele>
        <time>2021-03-06T09:04:07Z</time>
      </trkpt>
      <trkpt lat="42.76328" lon="1.53338">
        <ele>1546.549</ele>
        <time>2021-03-06T09:04:10Z</time>
      </trkpt>
      <trkpt lat="42.76328" lon="1.53338">
        <ele>1546.556</ele>
        <time>2021-03-06T09:04:12Z</time>
      </trkpt>
      <trkpt lat="42.76328" lon="1.53338">
        <ele>1546.565</ele>
        <time>2021-03-06T09:04:14Z</time>
      </trkpt>
      <trkpt lat="42.76328" lon="1.53338">
        <ele>1546.574</ele>
        <time>2021-03-06T09:04:16Z</time>
      </trkpt>
      <trkpt lat="42.76328" lon="1.53338">
        <ele>1546.58</ele>
        <time>2021-03-06T09:04:18Z</time>
      </trkpt>
      <trkpt lat="42.76328" lon="1.53338">
        <ele>1546.59</ele>
        <time>2021-03-06T09:04:20Z</time>
      </trkpt>
      <trkpt lat="42.76328" lon="1.53338">
        <ele>1546.588</ele>
        <time>2021-03-06T09:04:22Z</time>
      </trkpt>
      <trkpt lat="42.76328" lon="1.53338">
        <ele>1546.587</ele>
        <time>2021-03-06T09:04:24Z</time>
      </trkpt>
      <trkpt lat="42.76328" lon="1.53338">
        <ele>1546.587</ele>
        <time>2021-03-06T09:04:26Z</time>
      </trkpt>
      <trkpt lat="42.76328" lon="1.53338">
        <ele>1546.577</ele>
        <time>2021-03-06T09:04:28Z</time>
      </trkpt>
      <trkpt lat="42.76328" lon="1.53338">
        <ele>1546.572</ele>
        <time>2021-03-06T09:04:30Z</time>
      </trkpt>
      <trkpt lat="42.76328" lon="1.53338">
        <ele>1546.576</ele>
        <time>2021-03-06T09:04:32Z</time>
      </trkpt>
      <trkpt lat="42.76328" lon="1.53338">
        <ele>1546.579</ele>
        <time>2021-03-06T09:04:34Z</time>
      </trkpt>
      <trkpt lat="42.76328" lon="1.53338">
        <ele>1546.78</ele>
        <time>2021-03-06T09:04:36Z</time>
      </trkpt>
      <trkpt lat="42.76328" lon="1.53338">
        <ele>1546.369</ele>
        <time>2021-03-06T09:04:38Z</time>
      </trkpt>
      <trkpt lat="42.76328" lon="1.53338">
        <ele>1546.365</ele>
        <time>2021-03-06T09:04:40Z</time>
      </trkpt>
      <trkpt lat="42.76328" lon="1.53338">
        <ele>1546.368</ele>
        <time>2021-03-06T09:04:42Z</time>
      </trkpt>
      <trkpt lat="42.76328" lon="1.53338">
        <ele>1546.433</ele>
        <time>2021-03-06T09:04:44Z</time>
      </trkpt>
      <trkpt lat="42.76328" lon="1.53337">
        <ele>1546.722</ele>
        <time>2021-03-06T09:04:46Z</time>
      </trkpt>
      <trkpt lat="42.76327" lon="1.53336">
        <ele>1546.959</ele>
        <time>2021-03-06T09:04:48Z</time>
      </trkpt>
      <trkpt lat="42.76327" lon="1.53336">
        <ele>1546.953</ele>
        <time>2021-03-06T09:04:50Z</time>
      </trkpt>
      <trkpt lat="42.76327" lon="1.53336">
        <ele>1546.824</ele>
        <time>2021-03-06T09:04:52Z</time>
      </trkpt>
      <trkpt lat="42.76327" lon="1.53336">
        <ele>1546.877</ele>
        <time>2021-03-06T09:04:54Z</time>
      </trkpt>
      <trkpt lat="42.76327" lon="1.53336">
        <ele>1546.291</ele>
        <time>2021-03-06T09:04:56Z</time>
      </trkpt>
      <trkpt lat="42.76327" lon="1.53336">
        <ele>1546.129</ele>
        <time>2021-03-06T09:04:58Z</time>
      </trkpt>
      <trkpt lat="42.76327" lon="1.53336">
        <ele>1546.127</ele>
        <time>2021-03-06T09:05:00Z</time>
      </trkpt>
      <trkpt lat="42.76327" lon="1.53336">
        <ele>1546.123</ele>
        <time>2021-03-06T09:05:02Z</time>
      </trkpt>
      <trkpt lat="42.76327" lon="1.53336">
        <ele>1546.122</ele>
        <time>2021-03-06T09:05:04Z</time>
      </trkpt>
      <trkpt lat="42.76327" lon="1.53336">
        <ele>1546.119</ele>
        <time>2021-03-06T09:05:06Z</time>
      </trkpt>
      <trkpt lat="42.76327" lon="1.53335">
        <ele>1546.425</ele>
        <time>2021-03-06T09:05:08Z</time>
      </trkpt>
      <trkpt lat="42.76327" lon="1.53335">
        <ele>1546.692</ele>
        <time>2021-03-06T09:05:10Z</time>
      </trkpt>
      <trkpt lat="42.76327" lon="1.53335">
        <ele>1546.793</ele>
        <time>2021-03-06T09:05:12Z</time>
      </trkpt>
      <trkpt lat="42.76327" lon="1.53335">
        <ele>1546.796</ele>
        <time>2021-03-06T09:05:14Z</time>
      </trkpt>
      <trkpt lat="42.76326" lon="1.53335">
        <ele>1547.058</ele>
        <time>2021-03-06T09:05:16Z</time>
      </trkpt>
      <trkpt lat="42.76324" lon="1.53334">
        <ele>1547.284</ele>
        <time>2021-03-06T09:05:18Z</time>
      </trkpt>
      <trkpt lat="42.76323" lon="1.53334">
        <ele>1547.218</ele>
        <time>2021-03-06T09:05:20Z</time>
      </trkpt>
      <trkpt lat="42.76321" lon="1.53333">
        <ele>1547.107</ele>
        <time>2021-03-06T09:05:22Z</time>
      </trkpt>
      <trkpt lat="42.7632" lon="1.53332">
        <ele>1546.107</ele>
        <time>2021-03-06T09:05:24Z</time>
      </trkpt>
      <trkpt lat="42.76318" lon="1.53332">
        <ele>1545.317</ele>
        <time>2021-03-06T09:05:26Z</time>
      </trkpt>
      <trkpt lat="42.76317" lon="1.53331">
        <ele>1544.764</ele>
        <time>2021-03-06T09:05:28Z</time>
      </trkpt>
      <trkpt lat="42.76316" lon="1.53331">
        <ele>1543.687</ele>
        <time>2021-03-06T09:05:30Z</time>
      </trkpt>
      <trkpt lat="42.76314" lon="1.53331">
        <ele>1545.675</ele>
        <time>2021-03-06T09:05:32Z</time>
      </trkpt>
      <trkpt lat="42.76313" lon="1.5333">
        <ele>1548.068</ele>
        <time>2021-03-06T09:05:34Z</time>
      </trkpt>
      <trkpt lat="42.76313" lon="1.5333">
        <ele>1548.027</ele>
        <time>2021-03-06T09:05:36Z</time>
      </trkpt>
      <trkpt lat="42.76312" lon="1.53329">
        <ele>1547.938</ele>
        <time>2021-03-06T09:05:38Z</time>
      </trkpt>
      <trkpt lat="42.76309" lon="1.53328">
        <ele>1547.537</ele>
        <time>2021-03-06T09:05:40Z</time>
      </trkpt>
      <trkpt lat="42.76308" lon="1.53326">
        <ele>1548.131</ele>
        <time>2021-03-06T09:05:42Z</time>
      </trkpt>
      <trkpt lat="42.76308" lon="1.53324">
        <ele>1547.667</ele>
        <time>2021-03-06T09:05:44Z</time>
      </trkpt>
      <trkpt lat="42.76306" lon="1.53323">
        <ele>1545.76</ele>
        <time>2021-03-06T09:05:46Z</time>
      </trkpt>
      <trkpt lat="42.76305" lon="1.53321">
        <ele>1546.497</ele>
        <time>2021-03-06T09:05:48Z</time>
      </trkpt>
      <trkpt lat="42.76303" lon="1.5332">
        <ele>1546.164</ele>
        <time>2021-03-06T09:05:50Z</time>
      </trkpt>
      <trkpt lat="42.76302" lon="1.53317">
        <ele>1544.795</ele>
        <time>2021-03-06T09:05:52Z</time>
      </trkpt>
      <trkpt lat="42.76301" lon="1.53316">
        <ele>1543.946</ele>
        <time>2021-03-06T09:05:54Z</time>
      </trkpt>
      <trkpt lat="42.76299" lon="1.53316">
        <ele>1545.365</ele>
        <time>2021-03-06T09:05:56Z</time>
      </trkpt>
      <trkpt lat="42.76302" lon="1.53317">
        <ele>1547.931</ele>
        <time>2021-03-06T09:05:58Z</time>
      </trkpt>
      <trkpt lat="42.76303" lon="1.53317">
        <ele>1547.937</ele>
        <time>2021-03-06T09:06:00Z</time>
      </trkpt>
      <trkpt lat="42.76304" lon="1.53317">
        <ele>1547.934</ele>
        <time>2021-03-06T09:06:02Z</time>
      </trkpt>
      <trkpt lat="42.76303" lon="1.53316">
        <ele>1548.445</ele>
        <time>2021-03-06T09:06:04Z</time>
      </trkpt>
      <trkpt lat="42.76303" lon="1.53316">
        <ele>1548.453</ele>
        <time>2021-03-06T09:06:06Z</time>
      </trkpt>
      <trkpt lat="42.76303" lon="1.53316">
        <ele>1548.369</ele>
        <time>2021-03-06T09:06:08Z</time>
      </trkpt>
      <trkpt lat="42.76306" lon="1.53315">
        <ele>1547.965</ele>
        <time>2021-03-06T09:06:10Z</time>
      </trkpt>
      <trkpt lat="42.76306" lon="1.53315">
        <ele>1548.162</ele>
        <time>2021-03-06T09:06:12Z</time>
      </trkpt>
      <trkpt lat="42.76306" lon="1.53315">
        <ele>1548.375</ele>
        <time>2021-03-06T09:06:14Z</time>
      </trkpt>
      <trkpt lat="42.76306" lon="1.53316">
        <ele>1548.044</ele>
        <time>2021-03-06T09:06:16Z</time>
      </trkpt>
      <trkpt lat="42.76306" lon="1.53317">
        <ele>1547.719</ele>
        <time>2021-03-06T09:06:18Z</time>
      </trkpt>
      <trkpt lat="42.7631" lon="1.53319">
        <ele>1548.142</ele>
        <time>2021-03-06T09:06:20Z</time>
      </trkpt>
      <trkpt lat="42.76311" lon="1.5332">
        <ele>1549.146</ele>
        <time>2021-03-06T09:06:22Z</time>
      </trkpt>
      <trkpt lat="42.76311" lon="1.53322">
        <ele>1548.789</ele>
        <time>2021-03-06T09:06:24Z</time>
      </trkpt>
      <trkpt lat="42.76312" lon="1.53323">
        <ele>1547.989</ele>
        <time>2021-03-06T09:06:26Z</time>
      </trkpt>
      <trkpt lat="42.76313" lon="1.53324">
        <ele>1547.319</ele>
        <time>2021-03-06T09:06:28Z</time>
      </trkpt>
      <trkpt lat="42.76313" lon="1.53325">
        <ele>1547.776</ele>
        <time>2021-03-06T09:06:30Z</time>
      </trkpt>
      <trkpt lat="42.76314" lon="1.53326">
        <ele>1546.913</ele>
        <time>2021-03-06T09:06:32Z</time>
      </trkpt>
      <trkpt lat="42.76314" lon="1.53327">
        <ele>1548.476</ele>
        <time>2021-03-06T09:06:34Z</time>
      </trkpt>
      <trkpt lat="42.76315" lon="1.53329">
        <ele>1549.584</ele>
        <time>2021-03-06T09:06:36Z</time>
      </trkpt>
      <trkpt lat="42.76315" lon="1.53329">
        <ele>1548.124</ele>
        <time>2021-03-06T09:06:38Z</time>
      </trkpt>
      <trkpt lat="42.76315" lon="1.53328">
        <ele>1548.242</ele>
        <time>2021-03-06T09:06:40Z</time>
      </trkpt>
      <trkpt lat="42.76315" lon="1.53328">
        <ele>1548.241</ele>
        <time>2021-03-06T09:06:42Z</time>
      </trkpt>
      <trkpt lat="42.76315" lon="1.53328">
        <ele>1548.244</ele>
        <time>2021-03-06T09:06:44Z</time>
      </trkpt>
      <trkpt lat="42.76315" lon="1.53328">
        <ele>1548.246</ele>
        <time>2021-03-06T09:06:46Z</time>
      </trkpt>
      <trkpt lat="42.76315" lon="1.53328">
        <ele>1548.242</ele>
        <time>2021-03-06T09:06:48Z</time>
      </trkpt>
      <trkpt lat="42.76315" lon="1.53328">
        <ele>1548.243</ele>
        <time>2021-03-06T09:06:50Z</time>
      </trkpt>
      <trkpt lat="42.76315" lon="1.53328">
        <ele>1548.241</ele>
        <time>2021-03-06T09:06:52Z</time>
      </trkpt>
      <trkpt lat="42.76315" lon="1.53328">
        <ele>1548.028</ele>
        <time>2021-03-06T09:06:54Z</time>
      </trkpt>
      <trkpt lat="42.76314" lon="1.53328">
        <ele>1547.973</ele>
        <time>2021-03-06T09:06:56Z</time>
      </trkpt>
      <trkpt lat="42.76314" lon="1.53328">
        <ele>1547.635</ele>
        <time>2021-03-06T09:06:58Z</time>
      </trkpt>
      <trkpt lat="42.76314" lon="1.53328">
        <ele>1546.623</ele>
        <time>2021-03-06T09:07:00Z</time>
      </trkpt>
      <trkpt lat="42.76314" lon="1.53327">
        <ele>1546.635</ele>
        <time>2021-03-06T09:07:02Z</time>
      </trkpt>
      <trkpt lat="42.76314" lon="1.53327">
        <ele>1546.636</ele>
        <time>2021-03-06T09:07:04Z</time>
      </trkpt>
      <trkpt lat="42.76314" lon="1.53327">
        <ele>1546.462</ele>
        <time>2021-03-06T09:07:06Z</time>
      </trkpt>
      <trkpt lat="42.76314" lon="1.53327">
        <ele>1546.431</ele>
        <time>2021-03-06T09:07:08Z</time>
      </trkpt>
      <trkpt lat="42.76314" lon="1.53327">
        <ele>1546.422</ele>
        <time>2021-03-06T09:07:10Z</time>
      </trkpt>
      <trkpt lat="42.76314" lon="1.53327">
        <ele>1546.421</ele>
        <time>2021-03-06T09:07:12Z</time>
      </trkpt>
      <trkpt lat="42.76314" lon="1.53327">
        <ele>1546.418</ele>
        <time>2021-03-06T09:07:14Z</time>
      </trkpt>
      <trkpt lat="42.76314" lon="1.53327">
        <ele>1546.432</ele>
        <time>2021-03-06T09:07:16Z</time>
      </trkpt>
      <trkpt lat="42.76314" lon="1.53327">
        <ele>1546.419</ele>
        <time>2021-03-06T09:07:18Z</time>
      </trkpt>
      <trkpt lat="42.76314" lon="1.53327">
        <ele>1546.41</ele>
        <time>2021-03-06T09:07:20Z</time>
      </trkpt>
      <trkpt lat="42.76314" lon="1.53327">
        <ele>1546.406</ele>
        <time>2021-03-06T09:07:22Z</time>
      </trkpt>
      <trkpt lat="42.76314" lon="1.53327">
        <ele>1546.392</ele>
        <time>2021-03-06T09:07:24Z</time>
      </trkpt>
      <trkpt lat="42.76314" lon="1.53327">
        <ele>1546.447</ele>
        <time>2021-03-06T09:07:26Z</time>
      </trkpt>
      <trkpt lat="42.76314" lon="1.53327">
        <ele>1546.58</ele>
        <time>2021-03-06T09:07:28Z</time>
      </trkpt>
      <trkpt lat="42.76314" lon="1.53327">
        <ele>1546.587</ele>
        <time>2021-03-06T09:07:30Z</time>
      </trkpt>
      <trkpt lat="42.76314" lon="1.53327">
        <ele>1546.582</ele>
        <time>2021-03-06T09:07:32Z</time>
      </trkpt>
      <trkpt lat="42.76314" lon="1.53326">
        <ele>1546.537</ele>
        <time>2021-03-06T09:07:34Z</time>
      </trkpt>
      <trkpt lat="42.76314" lon="1.53325">
        <ele>1546.542</ele>
        <time>2021-03-06T09:07:36Z</time>
      </trkpt>
      <trkpt lat="42.76313" lon="1.53323">
        <ele>1546.239</ele>
        <time>2021-03-06T09:07:38Z</time>
      </trkpt>
      <trkpt lat="42.76311" lon="1.53322">
        <ele>1545.505</ele>
        <time>2021-03-06T09:07:40Z</time>
      </trkpt>
      <trkpt lat="42.76309" lon="1.53321">
        <ele>1545.01</ele>
        <time>2021-03-06T09:07:42Z</time>
      </trkpt>
      <trkpt lat="42.76307" lon="1.5332">
        <ele>1543.444</ele>
        <time>2021-03-06T09:07:44Z</time>
      </trkpt>
      <trkpt lat="42.76305" lon="1.53321">
        <ele>1543.126</ele>
        <time>2021-03-06T09:07:46Z</time>
      </trkpt>
      <trkpt lat="42.76304" lon="1.53321">
        <ele>1542.193</ele>
        <time>2021-03-06T09:07:48Z</time>
      </trkpt>
      <trkpt lat="42.76302" lon="1.53321">
        <ele>1541.148</ele>
        <time>2021-03-06T09:07:50Z</time>
      </trkpt>
      <trkpt lat="42.763" lon="1.5332">
        <ele>1539.675</ele>
        <time>2021-03-06T09:07:52Z</time>
      </trkpt>
      <trkpt lat="42.76299" lon="1.53319">
        <ele>1538.277</ele>
        <time>2021-03-06T09:07:54Z</time>
      </trkpt>
      <trkpt lat="42.76297" lon="1.53318">
        <ele>1536.973</ele>
        <time>2021-03-06T09:07:56Z</time>
      </trkpt>
      <trkpt lat="42.76296" lon="1.53317">
        <ele>1536.272</ele>
        <time>2021-03-06T09:07:58Z</time>
      </trkpt>
      <trkpt lat="42.76294" lon="1.53317">
        <ele>1536.315</ele>
        <time>2021-03-06T09:08:00Z</time>
      </trkpt>
      <trkpt lat="42.76293" lon="1.53317">
        <ele>1535.861</ele>
        <time>2021-03-06T09:08:02Z</time>
      </trkpt>
      <trkpt lat="42.76291" lon="1.53317">
        <ele>1535.367</ele>
        <time>2021-03-06T09:08:04Z</time>
      </trkpt>
      <trkpt lat="42.7629" lon="1.53315">
        <ele>1535.944</ele>
        <time>2021-03-06T09:08:06Z</time>
      </trkpt>
      <trkpt lat="42.76289" lon="1.53315">
        <ele>1535.547</ele>
        <time>2021-03-06T09:08:08Z</time>
      </trkpt>
      <trkpt lat="42.76288" lon="1.53313">
        <ele>1536.69</ele>
        <time>2021-03-06T09:08:10Z</time>
      </trkpt>
      <trkpt lat="42.76286" lon="1.53312">
        <ele>1537.201</ele>
        <time>2021-03-06T09:08:12Z</time>
      </trkpt>
      <trkpt lat="42.76284" lon="1.53311">
        <ele>1536.753</ele>
        <time>2021-03-06T09:08:14Z</time>
      </trkpt>
      <trkpt lat="42.76283" lon="1.5331">
        <ele>1538.4</ele>
        <time>2021-03-06T09:08:16Z</time>
      </trkpt>
      <trkpt lat="42.76281" lon="1.53309">
        <ele>1538.67</ele>
        <time>2021-03-06T09:08:18Z</time>
      </trkpt>
      <trkpt lat="42.7628" lon="1.53308">
        <ele>1539.318</ele>
        <time>2021-03-06T09:08:20Z</time>
      </trkpt>
      <trkpt lat="42.76278" lon="1.53308">
        <ele>1540.432</ele>
        <time>2021-03-06T09:08:22Z</time>
      </trkpt>
      <trkpt lat="42.76277" lon="1.53308">
        <ele>1539.975</ele>
        <time>2021-03-06T09:08:24Z</time>
      </trkpt>
      <trkpt lat="42.76275" lon="1.53309">
        <ele>1539.342</ele>
        <time>2021-03-06T09:08:26Z</time>
      </trkpt>
      <trkpt lat="42.76274" lon="1.53309">
        <ele>1539.474</ele>
        <time>2021-03-06T09:08:28Z</time>
      </trkpt>
      <trkpt lat="42.76272" lon="1.53309">
        <ele>1538.259</ele>
        <time>2021-03-06T09:08:30Z</time>
      </trkpt>
      <trkpt lat="42.7627" lon="1.5331">
        <ele>1538.148</ele>
        <time>2021-03-06T09:08:32Z</time>
      </trkpt>
      <trkpt lat="42.76268" lon="1.5331">
        <ele>1537.394</ele>
        <time>2021-03-06T09:08:34Z</time>
      </trkpt>
      <trkpt lat="42.76266" lon="1.5331">
        <ele>1538.146</ele>
        <time>2021-03-06T09:08:36Z</time>
      </trkpt>
      <trkpt lat="42.76265" lon="1.53312">
        <ele>1536.887</ele>
        <time>2021-03-06T09:08:38Z</time>
      </trkpt>
      <trkpt lat="42.76263" lon="1.53312">
        <ele>1536.857</ele>
        <time>2021-03-06T09:08:40Z</time>
      </trkpt>
      <trkpt lat="42.76261" lon="1.53313">
        <ele>1538.034</ele>
        <time>2021-03-06T09:08:42Z</time>
      </trkpt>
      <trkpt lat="42.76259" lon="1.53313">
        <ele>1538.553</ele>
        <time>2021-03-06T09:08:44Z</time>
      </trkpt>
      <trkpt lat="42.76257" lon="1.53313">
        <ele>1537.428</ele>
        <time>2021-03-06T09:08:46Z</time>
      </trkpt>
      <trkpt lat="42.76255" lon="1.53314">
        <ele>1538.166</ele>
        <time>2021-03-06T09:08:48Z</time>
      </trkpt>
      <trkpt lat="42.76254" lon="1.53314">
        <ele>1540.145</ele>
        <time>2021-03-06T09:08:50Z</time>
      </trkpt>
      <trkpt lat="42.76252" lon="1.53315">
        <ele>1539.921</ele>
        <time>2021-03-06T09:08:52Z</time>
      </trkpt>
      <trkpt lat="42.76251" lon="1.53316">
        <ele>1539.194</ele>
        <time>2021-03-06T09:08:54Z</time>
      </trkpt>
      <trkpt lat="42.76249" lon="1.53316">
        <ele>1538.334</ele>
        <time>2021-03-06T09:08:56Z</time>
      </trkpt>
      <trkpt lat="42.76247" lon="1.53317">
        <ele>1538.144</ele>
        <time>2021-03-06T09:08:58Z</time>
      </trkpt>
      <trkpt lat="42.76245" lon="1.53317">
        <ele>1538.481</ele>
        <time>2021-03-06T09:09:00Z</time>
      </trkpt>
      <trkpt lat="42.76242" lon="1.53317">
        <ele>1537.924</ele>
        <time>2021-03-06T09:09:02Z</time>
      </trkpt>
      <trkpt lat="42.7624" lon="1.53317">
        <ele>1538.183</ele>
        <time>2021-03-06T09:09:04Z</time>
      </trkpt>
      <trkpt lat="42.76239" lon="1.53318">
        <ele>1537.196</ele>
        <time>2021-03-06T09:09:06Z</time>
      </trkpt>
      <trkpt lat="42.76237" lon="1.53318">
        <ele>1536.881</ele>
        <time>2021-03-06T09:09:08Z</time>
      </trkpt>
      <trkpt lat="42.76235" lon="1.53318">
        <ele>1536.106</ele>
        <time>2021-03-06T09:09:10Z</time>
      </trkpt>
      <trkpt lat="42.76234" lon="1.53319">
        <ele>1536.441</ele>
        <time>2021-03-06T09:09:11Z</time>
      </trkpt>
      <trkpt lat="42.76233" lon="1.53319">
        <ele>1535.957</ele>
        <time>2021-03-06T09:09:13Z</time>
      </trkpt>
      <trkpt lat="42.7623" lon="1.5332">
        <ele>1535.959</ele>
        <time>2021-03-06T09:09:16Z</time>
      </trkpt>
      <trkpt lat="42.76228" lon="1.5332">
        <ele>1535.95</ele>
        <time>2021-03-06T09:09:18Z</time>
      </trkpt>
      <trkpt lat="42.76226" lon="1.53321">
        <ele>1536.726</ele>
        <time>2021-03-06T09:09:20Z</time>
      </trkpt>
      <trkpt lat="42.76224" lon="1.53321">
        <ele>1538.134</ele>
        <time>2021-03-06T09:09:22Z</time>
      </trkpt>
      <trkpt lat="42.76223" lon="1.53323">
        <ele>1538.931</ele>
        <time>2021-03-06T09:09:24Z</time>
      </trkpt>
      <trkpt lat="42.76222" lon="1.53324">
        <ele>1537.435</ele>
        <time>2021-03-06T09:09:26Z</time>
      </trkpt>
      <trkpt lat="42.76221" lon="1.53326">
        <ele>1538.216</ele>
        <time>2021-03-06T09:09:28Z</time>
      </trkpt>
      <trkpt lat="42.76221" lon="1.53328">
        <ele>1539.352</ele>
        <time>2021-03-06T09:09:30Z</time>
      </trkpt>
      <trkpt lat="42.7622" lon="1.53328">
        <ele>1541.854</ele>
        <time>2021-03-06T09:09:32Z</time>
      </trkpt>
      <trkpt lat="42.76218" lon="1.53331">
        <ele>1542</ele>
        <time>2021-03-06T09:09:34Z</time>
      </trkpt>
      <trkpt lat="42.76216" lon="1.53331">
        <ele>1542.41</ele>
        <time>2021-03-06T09:09:36Z</time>
      </trkpt>
      <trkpt lat="42.76214" lon="1.53331">
        <ele>1541.26</ele>
        <time>2021-03-06T09:09:38Z</time>
      </trkpt>
      <trkpt lat="42.76212" lon="1.53332">
        <ele>1540.073</ele>
        <time>2021-03-06T09:09:40Z</time>
      </trkpt>
      <trkpt lat="42.76209" lon="1.53332">
        <ele>1541.21</ele>
        <time>2021-03-06T09:09:42Z</time>
      </trkpt>
      <trkpt lat="42.76207" lon="1.53332">
        <ele>1542.837</ele>
        <time>2021-03-06T09:09:44Z</time>
      </trkpt>
      <trkpt lat="42.76203" lon="1.5333">
        <ele>1543.771</ele>
        <time>2021-03-06T09:09:46Z</time>
      </trkpt>
      <trkpt lat="42.76201" lon="1.53329">
        <ele>1544.877</ele>
        <time>2021-03-06T09:09:48Z</time>
      </trkpt>
      <trkpt lat="42.76198" lon="1.53327">
        <ele>1546.547</ele>
        <time>2021-03-06T09:09:50Z</time>
      </trkpt>
      <trkpt lat="42.76195" lon="1.53326">
        <ele>1545.469</ele>
        <time>2021-03-06T09:09:52Z</time>
      </trkpt>
      <trkpt lat="42.76193" lon="1.53324">
        <ele>1544.826</ele>
        <time>2021-03-06T09:09:54Z</time>
      </trkpt>
      <trkpt lat="42.76191" lon="1.53323">
        <ele>1545.119</ele>
        <time>2021-03-06T09:09:56Z</time>
      </trkpt>
      <trkpt lat="42.7619" lon="1.53321">
        <ele>1545.853</ele>
        <time>2021-03-06T09:09:58Z</time>
      </trkpt>
      <trkpt lat="42.76188" lon="1.5332">
        <ele>1545.633</ele>
        <time>2021-03-06T09:10:00Z</time>
      </trkpt>
      <trkpt lat="42.76186" lon="1.53319">
        <ele>1545.726</ele>
        <time>2021-03-06T09:10:02Z</time>
      </trkpt>
      <trkpt lat="42.76183" lon="1.53317">
        <ele>1545.883</ele>
        <time>2021-03-06T09:10:04Z</time>
      </trkpt>
      <trkpt lat="42.76181" lon="1.53317">
        <ele>1544.916</ele>
        <time>2021-03-06T09:10:06Z</time>
      </trkpt>
      <trkpt lat="42.76178" lon="1.53317">
        <ele>1544.326</ele>
        <time>2021-03-06T09:10:08Z</time>
      </trkpt>
      <trkpt lat="42.76176" lon="1.53316">
        <ele>1544.328</ele>
        <time>2021-03-06T09:10:10Z</time>
      </trkpt>
      <trkpt lat="42.76174" lon="1.53315">
        <ele>1544.217</ele>
        <time>2021-03-06T09:10:12Z</time>
      </trkpt>
      <trkpt lat="42.76172" lon="1.53314">
        <ele>1542.729</ele>
        <time>2021-03-06T09:10:14Z</time>
      </trkpt>
      <trkpt lat="42.7617" lon="1.53312">
        <ele>1543.785</ele>
        <time>2021-03-06T09:10:16Z</time>
      </trkpt>
      <trkpt lat="42.76168" lon="1.53311">
        <ele>1544.231</ele>
        <time>2021-03-06T09:10:18Z</time>
      </trkpt>
      <trkpt lat="42.76166" lon="1.53312">
        <ele>1543.696</ele>
        <time>2021-03-06T09:10:20Z</time>
      </trkpt>
      <trkpt lat="42.76164" lon="1.53311">
        <ele>1542.635</ele>
        <time>2021-03-06T09:10:22Z</time>
      </trkpt>
      <trkpt lat="42.76161" lon="1.5331">
        <ele>1543.153</ele>
        <time>2021-03-06T09:10:24Z</time>
      </trkpt>
      <trkpt lat="42.76159" lon="1.53309">
        <ele>1542.413</ele>
        <time>2021-03-06T09:10:26Z</time>
      </trkpt>
      <trkpt lat="42.76157" lon="1.53308">
        <ele>1541.856</ele>
        <time>2021-03-06T09:10:28Z</time>
      </trkpt>
      <trkpt lat="42.76155" lon="1.53308">
        <ele>1541.987</ele>
        <time>2021-03-06T09:10:30Z</time>
      </trkpt>
      <trkpt lat="42.76153" lon="1.53308">
        <ele>1542.099</ele>
        <time>2021-03-06T09:10:32Z</time>
      </trkpt>
      <trkpt lat="42.76151" lon="1.53307">
        <ele>1542.276</ele>
        <time>2021-03-06T09:10:34Z</time>
      </trkpt>
      <trkpt lat="42.76149" lon="1.53307">
        <ele>1541.046</ele>
        <time>2021-03-06T09:10:36Z</time>
      </trkpt>
      <trkpt lat="42.76147" lon="1.53306">
        <ele>1540.779</ele>
        <time>2021-03-06T09:10:38Z</time>
      </trkpt>
      <trkpt lat="42.76146" lon="1.53306">
        <ele>1541.11</ele>
        <time>2021-03-06T09:10:40Z</time>
      </trkpt>
      <trkpt lat="42.76143" lon="1.53304">
        <ele>1540.115</ele>
        <time>2021-03-06T09:10:42Z</time>
      </trkpt>
      <trkpt lat="42.76142" lon="1.53303">
        <ele>1539.895</ele>
        <time>2021-03-06T09:10:44Z</time>
      </trkpt>
      <trkpt lat="42.7614" lon="1.53301">
        <ele>1540.68</ele>
        <time>2021-03-06T09:10:46Z</time>
      </trkpt>
      <trkpt lat="42.76138" lon="1.53299">
        <ele>1540.937</ele>
        <time>2021-03-06T09:10:48Z</time>
      </trkpt>
      <trkpt lat="42.76137" lon="1.53297">
        <ele>1540.576</ele>
        <time>2021-03-06T09:10:50Z</time>
      </trkpt>
      <trkpt lat="42.76135" lon="1.53296">
        <ele>1541.177</ele>
        <time>2021-03-06T09:10:52Z</time>
      </trkpt>
      <trkpt lat="42.76133" lon="1.53294">
        <ele>1541</ele>
        <time>2021-03-06T09:10:54Z</time>
      </trkpt>
      <trkpt lat="42.76131" lon="1.53292">
        <ele>1541.626</ele>
        <time>2021-03-06T09:10:56Z</time>
      </trkpt>
      <trkpt lat="42.76129" lon="1.53291">
        <ele>1541.111</ele>
        <time>2021-03-06T09:10:58Z</time>
      </trkpt>
      <trkpt lat="42.76127" lon="1.53288">
        <ele>1541.077</ele>
        <time>2021-03-06T09:11:00Z</time>
      </trkpt>
      <trkpt lat="42.76125" lon="1.53287">
        <ele>1541.343</ele>
        <time>2021-03-06T09:11:02Z</time>
      </trkpt>
      <trkpt lat="42.76123" lon="1.53285">
        <ele>1542.39</ele>
        <time>2021-03-06T09:11:04Z</time>
      </trkpt>
      <trkpt lat="42.76121" lon="1.53284">
        <ele>1542.221</ele>
        <time>2021-03-06T09:11:06Z</time>
      </trkpt>
      <trkpt lat="42.76119" lon="1.53282">
        <ele>1540.214</ele>
        <time>2021-03-06T09:11:08Z</time>
      </trkpt>
      <trkpt lat="42.76117" lon="1.5328">
        <ele>1539.774</ele>
        <time>2021-03-06T09:11:10Z</time>
      </trkpt>
      <trkpt lat="42.76115" lon="1.53277">
        <ele>1540.586</ele>
        <time>2021-03-06T09:11:12Z</time>
      </trkpt>
      <trkpt lat="42.76113" lon="1.53274">
        <ele>1540.577</ele>
        <time>2021-03-06T09:11:14Z</time>
      </trkpt>
      <trkpt lat="42.7611" lon="1.53271">
        <ele>1539.614</ele>
        <time>2021-03-06T09:11:16Z</time>
      </trkpt>
      <trkpt lat="42.76108" lon="1.53267">
        <ele>1539.213</ele>
        <time>2021-03-06T09:11:18Z</time>
      </trkpt>
      <trkpt lat="42.76106" lon="1.53265">
        <ele>1537.556</ele>
        <time>2021-03-06T09:11:20Z</time>
      </trkpt>
      <trkpt lat="42.76104" lon="1.53263">
        <ele>1536.987</ele>
        <time>2021-03-06T09:11:22Z</time>
      </trkpt>
      <trkpt lat="42.76102" lon="1.5326">
        <ele>1536.437</ele>
        <time>2021-03-06T09:11:24Z</time>
      </trkpt>
      <trkpt lat="42.76101" lon="1.53259">
        <ele>1536.164</ele>
        <time>2021-03-06T09:11:26Z</time>
      </trkpt>
      <trkpt lat="42.76099" lon="1.53257">
        <ele>1535.17</ele>
        <time>2021-03-06T09:11:28Z</time>
      </trkpt>
      <trkpt lat="42.76098" lon="1.53255">
        <ele>1535.353</ele>
        <time>2021-03-06T09:11:30Z</time>
      </trkpt>
      <trkpt lat="42.76096" lon="1.53254">
        <ele>1535.774</ele>
        <time>2021-03-06T09:11:32Z</time>
      </trkpt>
      <trkpt lat="42.76095" lon="1.53252">
        <ele>1535.536</ele>
        <time>2021-03-06T09:11:34Z</time>
      </trkpt>
      <trkpt lat="42.76093" lon="1.5325">
        <ele>1534.599</ele>
        <time>2021-03-06T09:11:36Z</time>
      </trkpt>
      <trkpt lat="42.76091" lon="1.53248">
        <ele>1535.512</ele>
        <time>2021-03-06T09:11:38Z</time>
      </trkpt>
      <trkpt lat="42.76089" lon="1.53246">
        <ele>1537.241</ele>
        <time>2021-03-06T09:11:40Z</time>
      </trkpt>
      <trkpt lat="42.76087" lon="1.53243">
        <ele>1537.403</ele>
        <time>2021-03-06T09:11:42Z</time>
      </trkpt>
      <trkpt lat="42.76084" lon="1.53241">
        <ele>1535.731</ele>
        <time>2021-03-06T09:11:44Z</time>
      </trkpt>
      <trkpt lat="42.76083" lon="1.53238">
        <ele>1535.408</ele>
        <time>2021-03-06T09:11:46Z</time>
      </trkpt>
      <trkpt lat="42.76081" lon="1.53235">
        <ele>1534.84</ele>
        <time>2021-03-06T09:11:48Z</time>
      </trkpt>
      <trkpt lat="42.7608" lon="1.53233">
        <ele>1534.143</ele>
        <time>2021-03-06T09:11:50Z</time>
      </trkpt>
      <trkpt lat="42.76078" lon="1.53232">
        <ele>1532.947</ele>
        <time>2021-03-06T09:11:52Z</time>
      </trkpt>
      <trkpt lat="42.76076" lon="1.5323">
        <ele>1532.433</ele>
        <time>2021-03-06T09:11:54Z</time>
      </trkpt>
      <trkpt lat="42.76074" lon="1.53227">
        <ele>1532.268</ele>
        <time>2021-03-06T09:11:56Z</time>
      </trkpt>
      <trkpt lat="42.76072" lon="1.53225">
        <ele>1531.684</ele>
        <time>2021-03-06T09:11:58Z</time>
      </trkpt>
      <trkpt lat="42.7607" lon="1.53222">
        <ele>1532.812</ele>
        <time>2021-03-06T09:12:00Z</time>
      </trkpt>
      <trkpt lat="42.76068" lon="1.5322">
        <ele>1533.406</ele>
        <time>2021-03-06T09:12:02Z</time>
      </trkpt>
      <trkpt lat="42.76066" lon="1.53217">
        <ele>1534.292</ele>
        <time>2021-03-06T09:12:04Z</time>
      </trkpt>
      <trkpt lat="42.76065" lon="1.53215">
        <ele>1533.853</ele>
        <time>2021-03-06T09:12:06Z</time>
      </trkpt>
      <trkpt lat="42.76063" lon="1.53213">
        <ele>1534.066</ele>
        <time>2021-03-06T09:12:08Z</time>
      </trkpt>
      <trkpt lat="42.76061" lon="1.5321">
        <ele>1533.155</ele>
        <time>2021-03-06T09:12:10Z</time>
      </trkpt>
      <trkpt lat="42.76059" lon="1.53207">
        <ele>1533.33</ele>
        <time>2021-03-06T09:12:12Z</time>
      </trkpt>
      <trkpt lat="42.76057" lon="1.53205">
        <ele>1532.381</ele>
        <time>2021-03-06T09:12:14Z</time>
      </trkpt>
      <trkpt lat="42.76055" lon="1.53203">
        <ele>1532.508</ele>
        <time>2021-03-06T09:12:16Z</time>
      </trkpt>
      <trkpt lat="42.76053" lon="1.53201">
        <ele>1533.36</ele>
        <time>2021-03-06T09:12:18Z</time>
      </trkpt>
      <trkpt lat="42.7605" lon="1.53199">
        <ele>1531.788</ele>
        <time>2021-03-06T09:12:20Z</time>
      </trkpt>
      <trkpt lat="42.76048" lon="1.53196">
        <ele>1532.196</ele>
        <time>2021-03-06T09:12:22Z</time>
      </trkpt>
      <trkpt lat="42.76047" lon="1.53194">
        <ele>1531.633</ele>
        <time>2021-03-06T09:12:24Z</time>
      </trkpt>
      <trkpt lat="42.76045" lon="1.53192">
        <ele>1531.098</ele>
        <time>2021-03-06T09:12:26Z</time>
      </trkpt>
      <trkpt lat="42.76044" lon="1.53189">
        <ele>1531.533</ele>
        <time>2021-03-06T09:12:28Z</time>
      </trkpt>
      <trkpt lat="42.76042" lon="1.53188">
        <ele>1531.462</ele>
        <time>2021-03-06T09:12:30Z</time>
      </trkpt>
      <trkpt lat="42.76039" lon="1.53185">
        <ele>1529.356</ele>
        <time>2021-03-06T09:12:33Z</time>
      </trkpt>
      <trkpt lat="42.76037" lon="1.53185">
        <ele>1528.709</ele>
        <time>2021-03-06T09:12:35Z</time>
      </trkpt>
      <trkpt lat="42.76035" lon="1.53182">
        <ele>1529.182</ele>
        <time>2021-03-06T09:12:37Z</time>
      </trkpt>
      <trkpt lat="42.76034" lon="1.5318">
        <ele>1529.583</ele>
        <time>2021-03-06T09:12:39Z</time>
      </trkpt>
      <trkpt lat="42.76032" lon="1.53179">
        <ele>1529.26</ele>
        <time>2021-03-06T09:12:41Z</time>
      </trkpt>
      <trkpt lat="42.76031" lon="1.53176">
        <ele>1529.258</ele>
        <time>2021-03-06T09:12:43Z</time>
      </trkpt>
      <trkpt lat="42.76029" lon="1.53174">
        <ele>1529.192</ele>
        <time>2021-03-06T09:12:45Z</time>
      </trkpt>
      <trkpt lat="42.76027" lon="1.53173">
        <ele>1529.851</ele>
        <time>2021-03-06T09:12:47Z</time>
      </trkpt>
      <trkpt lat="42.76026" lon="1.5317">
        <ele>1530.504</ele>
        <time>2021-03-06T09:12:49Z</time>
      </trkpt>
      <trkpt lat="42.76024" lon="1.53168">
        <ele>1530.87</ele>
        <time>2021-03-06T09:12:51Z</time>
      </trkpt>
      <trkpt lat="42.76023" lon="1.53166">
        <ele>1531.779</ele>
        <time>2021-03-06T09:12:53Z</time>
      </trkpt>
      <trkpt lat="42.76021" lon="1.53165">
        <ele>1531.042</ele>
        <time>2021-03-06T09:12:55Z</time>
      </trkpt>
      <trkpt lat="42.76018" lon="1.53163">
        <ele>1530.273</ele>
        <time>2021-03-06T09:12:57Z</time>
      </trkpt>
      <trkpt lat="42.76016" lon="1.53161">
        <ele>1530.25</ele>
        <time>2021-03-06T09:12:59Z</time>
      </trkpt>
      <trkpt lat="42.76015" lon="1.53158">
        <ele>1529.69</ele>
        <time>2021-03-06T09:13:01Z</time>
      </trkpt>
      <trkpt lat="42.76013" lon="1.53154">
        <ele>1530.172</ele>
        <time>2021-03-06T09:13:03Z</time>
      </trkpt>
      <trkpt lat="42.76012" lon="1.53151">
        <ele>1530.777</ele>
        <time>2021-03-06T09:13:05Z</time>
      </trkpt>
      <trkpt lat="42.7601" lon="1.53148">
        <ele>1530.117</ele>
        <time>2021-03-06T09:13:07Z</time>
      </trkpt>
      <trkpt lat="42.76009" lon="1.53146">
        <ele>1529.946</ele>
        <time>2021-03-06T09:13:09Z</time>
      </trkpt>
      <trkpt lat="42.76007" lon="1.53145">
        <ele>1529.833</ele>
        <time>2021-03-06T09:13:11Z</time>
      </trkpt>
      <trkpt lat="42.76005" lon="1.53142">
        <ele>1529.962</ele>
        <time>2021-03-06T09:13:13Z</time>
      </trkpt>
      <trkpt lat="42.76003" lon="1.5314">
        <ele>1530.111</ele>
        <time>2021-03-06T09:13:15Z</time>
      </trkpt>
      <trkpt lat="42.76002" lon="1.53136">
        <ele>1530.492</ele>
        <time>2021-03-06T09:13:17Z</time>
      </trkpt>
      <trkpt lat="42.76" lon="1.53134">
        <ele>1530.972</ele>
        <time>2021-03-06T09:13:19Z</time>
      </trkpt>
      <trkpt lat="42.75998" lon="1.53131">
        <ele>1531.016</ele>
        <time>2021-03-06T09:13:21Z</time>
      </trkpt>
      <trkpt lat="42.75996" lon="1.53129">
        <ele>1528.703</ele>
        <time>2021-03-06T09:13:23Z</time>
      </trkpt>
      <trkpt lat="42.75994" lon="1.53128">
        <ele>1527.845</ele>
        <time>2021-03-06T09:13:25Z</time>
      </trkpt>
      <trkpt lat="42.75992" lon="1.53126">
        <ele>1527.056</ele>
        <time>2021-03-06T09:13:27Z</time>
      </trkpt>
      <trkpt lat="42.75991" lon="1.53124">
        <ele>1526.567</ele>
        <time>2021-03-06T09:13:29Z</time>
      </trkpt>
      <trkpt lat="42.75989" lon="1.53122">
        <ele>1525.654</ele>
        <time>2021-03-06T09:13:31Z</time>
      </trkpt>
      <trkpt lat="42.75987" lon="1.53121">
        <ele>1525.584</ele>
        <time>2021-03-06T09:13:33Z</time>
      </trkpt>
      <trkpt lat="42.75985" lon="1.53119">
        <ele>1525.54</ele>
        <time>2021-03-06T09:13:35Z</time>
      </trkpt>
      <trkpt lat="42.75983" lon="1.53118">
        <ele>1524.187</ele>
        <time>2021-03-06T09:13:37Z</time>
      </trkpt>
      <trkpt lat="42.75981" lon="1.53116">
        <ele>1523.614</ele>
        <time>2021-03-06T09:13:39Z</time>
      </trkpt>
      <trkpt lat="42.7598" lon="1.53113">
        <ele>1523.42</ele>
        <time>2021-03-06T09:13:41Z</time>
      </trkpt>
      <trkpt lat="42.75979" lon="1.53111">
        <ele>1523.61</ele>
        <time>2021-03-06T09:13:43Z</time>
      </trkpt>
      <trkpt lat="42.75977" lon="1.5311">
        <ele>1523.64</ele>
        <time>2021-03-06T09:13:45Z</time>
      </trkpt>
      <trkpt lat="42.75975" lon="1.53108">
        <ele>1523.662</ele>
        <time>2021-03-06T09:13:47Z</time>
      </trkpt>
      <trkpt lat="42.75974" lon="1.53106">
        <ele>1524.246</ele>
        <time>2021-03-06T09:13:49Z</time>
      </trkpt>
      <trkpt lat="42.75972" lon="1.53104">
        <ele>1524.047</ele>
        <time>2021-03-06T09:13:51Z</time>
      </trkpt>
      <trkpt lat="42.7597" lon="1.53102">
        <ele>1523.411</ele>
        <time>2021-03-06T09:13:53Z</time>
      </trkpt>
      <trkpt lat="42.75969" lon="1.53099">
        <ele>1525.13</ele>
        <time>2021-03-06T09:13:55Z</time>
      </trkpt>
      <trkpt lat="42.75967" lon="1.53097">
        <ele>1525.501</ele>
        <time>2021-03-06T09:13:57Z</time>
      </trkpt>
      <trkpt lat="42.75965" lon="1.53095">
        <ele>1524.476</ele>
        <time>2021-03-06T09:13:59Z</time>
      </trkpt>
      <trkpt lat="42.75963" lon="1.53093">
        <ele>1525.008</ele>
        <time>2021-03-06T09:14:01Z</time>
      </trkpt>
      <trkpt lat="42.75961" lon="1.53091">
        <ele>1524.216</ele>
        <time>2021-03-06T09:14:03Z</time>
      </trkpt>
      <trkpt lat="42.75959" lon="1.53089">
        <ele>1524.297</ele>
        <time>2021-03-06T09:14:05Z</time>
      </trkpt>
      <trkpt lat="42.75957" lon="1.53087">
        <ele>1524.937</ele>
        <time>2021-03-06T09:14:07Z</time>
      </trkpt>
      <trkpt lat="42.75955" lon="1.53085">
        <ele>1525.417</ele>
        <time>2021-03-06T09:14:09Z</time>
      </trkpt>
      <trkpt lat="42.75953" lon="1.53084">
        <ele>1525.111</ele>
        <time>2021-03-06T09:14:11Z</time>
      </trkpt>
      <trkpt lat="42.75952" lon="1.53083">
        <ele>1525.235</ele>
        <time>2021-03-06T09:14:13Z</time>
      </trkpt>
      <trkpt lat="42.7595" lon="1.53081">
        <ele>1525.231</ele>
        <time>2021-03-06T09:14:15Z</time>
      </trkpt>
      <trkpt lat="42.75948" lon="1.53079">
        <ele>1524.892</ele>
        <time>2021-03-06T09:14:17Z</time>
      </trkpt>
      <trkpt lat="42.75946" lon="1.53078">
        <ele>1525.067</ele>
        <time>2021-03-06T09:14:19Z</time>
      </trkpt>
      <trkpt lat="42.75944" lon="1.53076">
        <ele>1525.208</ele>
        <time>2021-03-06T09:14:21Z</time>
      </trkpt>
      <trkpt lat="42.75941" lon="1.53075">
        <ele>1524.511</ele>
        <time>2021-03-06T09:14:23Z</time>
      </trkpt>
      <trkpt lat="42.7594" lon="1.53075">
        <ele>1524.619</ele>
        <time>2021-03-06T09:14:25Z</time>
      </trkpt>
      <trkpt lat="42.75938" lon="1.53073">
        <ele>1525.995</ele>
        <time>2021-03-06T09:14:27Z</time>
      </trkpt>
      <trkpt lat="42.75936" lon="1.53071">
        <ele>1527.51</ele>
        <time>2021-03-06T09:14:29Z</time>
      </trkpt>
      <trkpt lat="42.75935" lon="1.53068">
        <ele>1526.719</ele>
        <time>2021-03-06T09:14:31Z</time>
      </trkpt>
      <trkpt lat="42.75934" lon="1.53065">
        <ele>1527.094</ele>
        <time>2021-03-06T09:14:33Z</time>
      </trkpt>
      <trkpt lat="42.75933" lon="1.53063">
        <ele>1527.84</ele>
        <time>2021-03-06T09:14:35Z</time>
      </trkpt>
      <trkpt lat="42.75931" lon="1.53061">
        <ele>1527.049</ele>
        <time>2021-03-06T09:14:37Z</time>
      </trkpt>
      <trkpt lat="42.75929" lon="1.5306">
        <ele>1527.251</ele>
        <time>2021-03-06T09:14:39Z</time>
      </trkpt>
      <trkpt lat="42.75928" lon="1.53058">
        <ele>1527.382</ele>
        <time>2021-03-06T09:14:41Z</time>
      </trkpt>
      <trkpt lat="42.75927" lon="1.53055">
        <ele>1527.537</ele>
        <time>2021-03-06T09:14:43Z</time>
      </trkpt>
      <trkpt lat="42.75925" lon="1.53053">
        <ele>1527.435</ele>
        <time>2021-03-06T09:14:45Z</time>
      </trkpt>
      <trkpt lat="42.75923" lon="1.53051">
        <ele>1527.527</ele>
        <time>2021-03-06T09:14:47Z</time>
      </trkpt>
      <trkpt lat="42.75922" lon="1.53049">
        <ele>1527.497</ele>
        <time>2021-03-06T09:14:49Z</time>
      </trkpt>
      <trkpt lat="42.75921" lon="1.53047">
        <ele>1528.068</ele>
        <time>2021-03-06T09:14:51Z</time>
      </trkpt>
      <trkpt lat="42.75919" lon="1.53045">
        <ele>1527.666</ele>
        <time>2021-03-06T09:14:53Z</time>
      </trkpt>
      <trkpt lat="42.75918" lon="1.53043">
        <ele>1527.655</ele>
        <time>2021-03-06T09:14:55Z</time>
      </trkpt>
      <trkpt lat="42.75916" lon="1.53041">
        <ele>1526.888</ele>
        <time>2021-03-06T09:14:57Z</time>
      </trkpt>
      <trkpt lat="42.75914" lon="1.53039">
        <ele>1525.966</ele>
        <time>2021-03-06T09:14:59Z</time>
      </trkpt>
      <trkpt lat="42.75912" lon="1.53039">
        <ele>1526.483</ele>
        <time>2021-03-06T09:15:01Z</time>
      </trkpt>
      <trkpt lat="42.75909" lon="1.53041">
        <ele>1525.771</ele>
        <time>2021-03-06T09:15:03Z</time>
      </trkpt>
      <trkpt lat="42.75907" lon="1.53042">
        <ele>1526.478</ele>
        <time>2021-03-06T09:15:05Z</time>
      </trkpt>
      <trkpt lat="42.75905" lon="1.53043">
        <ele>1526.519</ele>
        <time>2021-03-06T09:15:07Z</time>
      </trkpt>
      <trkpt lat="42.75902" lon="1.53043">
        <ele>1526.921</ele>
        <time>2021-03-06T09:15:09Z</time>
      </trkpt>
      <trkpt lat="42.759" lon="1.53044">
        <ele>1526.462</ele>
        <time>2021-03-06T09:15:11Z</time>
      </trkpt>
      <trkpt lat="42.75898" lon="1.53045">
        <ele>1525.225</ele>
        <time>2021-03-06T09:15:13Z</time>
      </trkpt>
      <trkpt lat="42.75896" lon="1.53046">
        <ele>1526.162</ele>
        <time>2021-03-06T09:15:15Z</time>
      </trkpt>
      <trkpt lat="42.75894" lon="1.53046">
        <ele>1525.886</ele>
        <time>2021-03-06T09:15:17Z</time>
      </trkpt>
      <trkpt lat="42.75892" lon="1.53047">
        <ele>1526.323</ele>
        <time>2021-03-06T09:15:19Z</time>
      </trkpt>
      <trkpt lat="42.7589" lon="1.53047">
        <ele>1525.736</ele>
        <time>2021-03-06T09:15:21Z</time>
      </trkpt>
      <trkpt lat="42.75888" lon="1.53048">
        <ele>1525.02</ele>
        <time>2021-03-06T09:15:23Z</time>
      </trkpt>
      <trkpt lat="42.75886" lon="1.53049">
        <ele>1523.963</ele>
        <time>2021-03-06T09:15:25Z</time>
      </trkpt>
      <trkpt lat="42.75884" lon="1.5305">
        <ele>1524.51</ele>
        <time>2021-03-06T09:15:27Z</time>
      </trkpt>
      <trkpt lat="42.75882" lon="1.53051">
        <ele>1523.912</ele>
        <time>2021-03-06T09:15:29Z</time>
      </trkpt>
      <trkpt lat="42.7588" lon="1.53053">
        <ele>1523.308</ele>
        <time>2021-03-06T09:15:31Z</time>
      </trkpt>
      <trkpt lat="42.75878" lon="1.53054">
        <ele>1523.149</ele>
        <time>2021-03-06T09:15:33Z</time>
      </trkpt>
      <trkpt lat="42.75876" lon="1.53052">
        <ele>1523.569</ele>
        <time>2021-03-06T09:15:35Z</time>
      </trkpt>
      <trkpt lat="42.75874" lon="1.53053">
        <ele>1524.177</ele>
        <time>2021-03-06T09:15:37Z</time>
      </trkpt>
      <trkpt lat="42.75872" lon="1.53055">
        <ele>1523.239</ele>
        <time>2021-03-06T09:15:39Z</time>
      </trkpt>
      <trkpt lat="42.7587" lon="1.53057">
        <ele>1523.592</ele>
        <time>2021-03-06T09:15:41Z</time>
      </trkpt>
      <trkpt lat="42.75868" lon="1.53058">
        <ele>1523.251</ele>
        <time>2021-03-06T09:15:43Z</time>
      </trkpt>
      <trkpt lat="42.75866" lon="1.53059">
        <ele>1522.927</ele>
        <time>2021-03-06T09:15:45Z</time>
      </trkpt>
      <trkpt lat="42.75863" lon="1.53061">
        <ele>1522.246</ele>
        <time>2021-03-06T09:15:47Z</time>
      </trkpt>
      <trkpt lat="42.7586" lon="1.53063">
        <ele>1523.426</ele>
        <time>2021-03-06T09:15:49Z</time>
      </trkpt>
      <trkpt lat="42.75858" lon="1.53064">
        <ele>1524.213</ele>
        <time>2021-03-06T09:15:51Z</time>
      </trkpt>
      <trkpt lat="42.75855" lon="1.53066">
        <ele>1525.222</ele>
        <time>2021-03-06T09:15:53Z</time>
      </trkpt>
      <trkpt lat="42.75853" lon="1.53066">
        <ele>1525.203</ele>
        <time>2021-03-06T09:15:55Z</time>
      </trkpt>
      <trkpt lat="42.75851" lon="1.53067">
        <ele>1525.271</ele>
        <time>2021-03-06T09:15:57Z</time>
      </trkpt>
      <trkpt lat="42.75849" lon="1.53068">
        <ele>1524.501</ele>
        <time>2021-03-06T09:15:59Z</time>
      </trkpt>
      <trkpt lat="42.75847" lon="1.53069">
        <ele>1525.199</ele>
        <time>2021-03-06T09:16:01Z</time>
      </trkpt>
      <trkpt lat="42.75844" lon="1.5307">
        <ele>1524.702</ele>
        <time>2021-03-06T09:16:03Z</time>
      </trkpt>
      <trkpt lat="42.75842" lon="1.53071">
        <ele>1524.979</ele>
        <time>2021-03-06T09:16:05Z</time>
      </trkpt>
      <trkpt lat="42.7584" lon="1.53073">
        <ele>1525.15</ele>
        <time>2021-03-06T09:16:07Z</time>
      </trkpt>
      <trkpt lat="42.75839" lon="1.53073">
        <ele>1524.045</ele>
        <time>2021-03-06T09:16:09Z</time>
      </trkpt>
      <trkpt lat="42.75837" lon="1.53073">
        <ele>1523.576</ele>
        <time>2021-03-06T09:16:11Z</time>
      </trkpt>
      <trkpt lat="42.75835" lon="1.53074">
        <ele>1522.938</ele>
        <time>2021-03-06T09:16:13Z</time>
      </trkpt>
      <trkpt lat="42.75834" lon="1.53075">
        <ele>1521.274</ele>
        <time>2021-03-06T09:16:15Z</time>
      </trkpt>
      <trkpt lat="42.75832" lon="1.53075">
        <ele>1522.011</ele>
        <time>2021-03-06T09:16:17Z</time>
      </trkpt>
      <trkpt lat="42.7583" lon="1.53075">
        <ele>1520.669</ele>
        <time>2021-03-06T09:16:19Z</time>
      </trkpt>
      <trkpt lat="42.75828" lon="1.53076">
        <ele>1519.75</ele>
        <time>2021-03-06T09:16:21Z</time>
      </trkpt>
      <trkpt lat="42.75826" lon="1.53076">
        <ele>1519.496</ele>
        <time>2021-03-06T09:16:23Z</time>
      </trkpt>
      <trkpt lat="42.75824" lon="1.53078">
        <ele>1518.747</ele>
        <time>2021-03-06T09:16:25Z</time>
      </trkpt>
      <trkpt lat="42.75822" lon="1.53078">
        <ele>1518.459</ele>
        <time>2021-03-06T09:16:27Z</time>
      </trkpt>
      <trkpt lat="42.75819" lon="1.53079">
        <ele>1519.18</ele>
        <time>2021-03-06T09:16:30Z</time>
      </trkpt>
      <trkpt lat="42.75818" lon="1.5308">
        <ele>1517.504</ele>
        <time>2021-03-06T09:16:32Z</time>
      </trkpt>
      <trkpt lat="42.75816" lon="1.5308">
        <ele>1517.746</ele>
        <time>2021-03-06T09:16:34Z</time>
      </trkpt>
      <trkpt lat="42.75814" lon="1.53079">
        <ele>1518.142</ele>
        <time>2021-03-06T09:16:36Z</time>
      </trkpt>
      <trkpt lat="42.75812" lon="1.53079">
        <ele>1517.911</ele>
        <time>2021-03-06T09:16:38Z</time>
      </trkpt>
      <trkpt lat="42.75809" lon="1.53079">
        <ele>1518.557</ele>
        <time>2021-03-06T09:16:40Z</time>
      </trkpt>
      <trkpt lat="42.75807" lon="1.53079">
        <ele>1519.014</ele>
        <time>2021-03-06T09:16:42Z</time>
      </trkpt>
      <trkpt lat="42.75804" lon="1.53077">
        <ele>1518.962</ele>
        <time>2021-03-06T09:16:44Z</time>
      </trkpt>
      <trkpt lat="42.75803" lon="1.53078">
        <ele>1518.229</ele>
        <time>2021-03-06T09:16:46Z</time>
      </trkpt>
      <trkpt lat="42.75799" lon="1.53079">
        <ele>1519.323</ele>
        <time>2021-03-06T09:16:48Z</time>
      </trkpt>
      <trkpt lat="42.75797" lon="1.5308">
        <ele>1520.015</ele>
        <time>2021-03-06T09:16:50Z</time>
      </trkpt>
      <trkpt lat="42.75794" lon="1.53082">
        <ele>1519.176</ele>
        <time>2021-03-06T09:16:52Z</time>
      </trkpt>
      <trkpt lat="42.7579" lon="1.53082">
        <ele>1519.954</ele>
        <time>2021-03-06T09:16:54Z</time>
      </trkpt>
      <trkpt lat="42.75787" lon="1.53081">
        <ele>1521.175</ele>
        <time>2021-03-06T09:16:56Z</time>
      </trkpt>
      <trkpt lat="42.75784" lon="1.53081">
        <ele>1523.518</ele>
        <time>2021-03-06T09:16:58Z</time>
      </trkpt>
      <trkpt lat="42.75781" lon="1.53081">
        <ele>1522.436</ele>
        <time>2021-03-06T09:17:00Z</time>
      </trkpt>
      <trkpt lat="42.75778" lon="1.53081">
        <ele>1521.605</ele>
        <time>2021-03-06T09:17:02Z</time>
      </trkpt>
      <trkpt lat="42.75776" lon="1.5308">
        <ele>1521.308</ele>
        <time>2021-03-06T09:17:04Z</time>
      </trkpt>
      <trkpt lat="42.75774" lon="1.53078">
        <ele>1521.709</ele>
        <time>2021-03-06T09:17:06Z</time>
      </trkpt>
      <trkpt lat="42.75772" lon="1.53077">
        <ele>1521.575</ele>
        <time>2021-03-06T09:17:08Z</time>
      </trkpt>
      <trkpt lat="42.75769" lon="1.53076">
        <ele>1520.568</ele>
        <time>2021-03-06T09:17:10Z</time>
      </trkpt>
      <trkpt lat="42.75768" lon="1.53076">
        <ele>1519.66</ele>
        <time>2021-03-06T09:17:12Z</time>
      </trkpt>
      <trkpt lat="42.75766" lon="1.53074">
        <ele>1518.789</ele>
        <time>2021-03-06T09:17:14Z</time>
      </trkpt>
      <trkpt lat="42.75764" lon="1.53073">
        <ele>1517.166</ele>
        <time>2021-03-06T09:17:16Z</time>
      </trkpt>
      <trkpt lat="42.75762" lon="1.53073">
        <ele>1516.643</ele>
        <time>2021-03-06T09:17:18Z</time>
      </trkpt>
      <trkpt lat="42.75759" lon="1.53073">
        <ele>1514.888</ele>
        <time>2021-03-06T09:17:20Z</time>
      </trkpt>
      <trkpt lat="42.75756" lon="1.53072">
        <ele>1514.417</ele>
        <time>2021-03-06T09:17:22Z</time>
      </trkpt>
      <trkpt lat="42.75753" lon="1.53071">
        <ele>1513.738</ele>
        <time>2021-03-06T09:17:24Z</time>
      </trkpt>
      <trkpt lat="42.75751" lon="1.53071">
        <ele>1513.521</ele>
        <time>2021-03-06T09:17:26Z</time>
      </trkpt>
      <trkpt lat="42.75749" lon="1.5307">
        <ele>1513.794</ele>
        <time>2021-03-06T09:17:28Z</time>
      </trkpt>
      <trkpt lat="42.75747" lon="1.5307">
        <ele>1513.814</ele>
        <time>2021-03-06T09:17:30Z</time>
      </trkpt>
      <trkpt lat="42.75745" lon="1.5307">
        <ele>1513.974</ele>
        <time>2021-03-06T09:17:32Z</time>
      </trkpt>
      <trkpt lat="42.75741" lon="1.53069">
        <ele>1514.066</ele>
        <time>2021-03-06T09:17:35Z</time>
      </trkpt>
      <trkpt lat="42.75739" lon="1.53067">
        <ele>1512.951</ele>
        <time>2021-03-06T09:17:37Z</time>
      </trkpt>
      <trkpt lat="42.75737" lon="1.53067">
        <ele>1511.507</ele>
        <time>2021-03-06T09:17:39Z</time>
      </trkpt>
      <trkpt lat="42.75735" lon="1.53067">
        <ele>1510.901</ele>
        <time>2021-03-06T09:17:41Z</time>
      </trkpt>
      <trkpt lat="42.75733" lon="1.53066">
        <ele>1510.184</ele>
        <time>2021-03-06T09:17:43Z</time>
      </trkpt>
      <trkpt lat="42.75731" lon="1.53064">
        <ele>1510.603</ele>
        <time>2021-03-06T09:17:45Z</time>
      </trkpt>
      <trkpt lat="42.75729" lon="1.53063">
        <ele>1510.967</ele>
        <time>2021-03-06T09:17:47Z</time>
      </trkpt>
      <trkpt lat="42.75726" lon="1.53061">
        <ele>1511.155</ele>
        <time>2021-03-06T09:17:49Z</time>
      </trkpt>
      <trkpt lat="42.75723" lon="1.5306">
        <ele>1511.17</ele>
        <time>2021-03-06T09:17:51Z</time>
      </trkpt>
      <trkpt lat="42.75721" lon="1.53058">
        <ele>1513.419</ele>
        <time>2021-03-06T09:17:53Z</time>
      </trkpt>
      <trkpt lat="42.75719" lon="1.53057">
        <ele>1513.039</ele>
        <time>2021-03-06T09:17:55Z</time>
      </trkpt>
      <trkpt lat="42.75717" lon="1.53056">
        <ele>1513.41</ele>
        <time>2021-03-06T09:17:57Z</time>
      </trkpt>
      <trkpt lat="42.75714" lon="1.53055">
        <ele>1513.641</ele>
        <time>2021-03-06T09:17:59Z</time>
      </trkpt>
      <trkpt lat="42.75712" lon="1.53054">
        <ele>1511.956</ele>
        <time>2021-03-06T09:18:01Z</time>
      </trkpt>
      <trkpt lat="42.75709" lon="1.53053">
        <ele>1510.898</ele>
        <time>2021-03-06T09:18:03Z</time>
      </trkpt>
      <trkpt lat="42.75707" lon="1.53051">
        <ele>1510.149</ele>
        <time>2021-03-06T09:18:05Z</time>
      </trkpt>
      <trkpt lat="42.75705" lon="1.53051">
        <ele>1509.876</ele>
        <time>2021-03-06T09:18:07Z</time>
      </trkpt>
      <trkpt lat="42.75703" lon="1.53051">
        <ele>1508.86</ele>
        <time>2021-03-06T09:18:09Z</time>
      </trkpt>
      <trkpt lat="42.757" lon="1.5305">
        <ele>1508.572</ele>
        <time>2021-03-06T09:18:11Z</time>
      </trkpt>
      <trkpt lat="42.75698" lon="1.5305">
        <ele>1507.855</ele>
        <time>2021-03-06T09:18:13Z</time>
      </trkpt>
      <trkpt lat="42.75696" lon="1.53048">
        <ele>1507.952</ele>
        <time>2021-03-06T09:18:15Z</time>
      </trkpt>
      <trkpt lat="42.75693" lon="1.53047">
        <ele>1507.746</ele>
        <time>2021-03-06T09:18:17Z</time>
      </trkpt>
      <trkpt lat="42.75691" lon="1.53046">
        <ele>1507.982</ele>
        <time>2021-03-06T09:18:19Z</time>
      </trkpt>
      <trkpt lat="42.75689" lon="1.53045">
        <ele>1508.337</ele>
        <time>2021-03-06T09:18:21Z</time>
      </trkpt>
      <trkpt lat="42.75687" lon="1.53044">
        <ele>1508.126</ele>
        <time>2021-03-06T09:18:23Z</time>
      </trkpt>
      <trkpt lat="42.75685" lon="1.53043">
        <ele>1507.75</ele>
        <time>2021-03-06T09:18:25Z</time>
      </trkpt>
      <trkpt lat="42.75682" lon="1.53042">
        <ele>1507.542</ele>
        <time>2021-03-06T09:18:27Z</time>
      </trkpt>
      <trkpt lat="42.7568" lon="1.53041">
        <ele>1507.995</ele>
        <time>2021-03-06T09:18:29Z</time>
      </trkpt>
      <trkpt lat="42.75678" lon="1.53041">
        <ele>1507.409</ele>
        <time>2021-03-06T09:18:31Z</time>
      </trkpt>
      <trkpt lat="42.75677" lon="1.5304">
        <ele>1507.448</ele>
        <time>2021-03-06T09:18:33Z</time>
      </trkpt>
      <trkpt lat="42.75675" lon="1.53039">
        <ele>1508.172</ele>
        <time>2021-03-06T09:18:35Z</time>
      </trkpt>
      <trkpt lat="42.75674" lon="1.53036">
        <ele>1508.573</ele>
        <time>2021-03-06T09:18:37Z</time>
      </trkpt>
      <trkpt lat="42.75674" lon="1.53038">
        <ele>1507.991</ele>
        <time>2021-03-06T09:18:39Z</time>
      </trkpt>
      <trkpt lat="42.75673" lon="1.53037">
        <ele>1506.886</ele>
        <time>2021-03-06T09:18:41Z</time>
      </trkpt>
      <trkpt lat="42.7567" lon="1.53034">
        <ele>1507.436</ele>
        <time>2021-03-06T09:18:43Z</time>
      </trkpt>
      <trkpt lat="42.75668" lon="1.53031">
        <ele>1506.663</ele>
        <time>2021-03-06T09:18:45Z</time>
      </trkpt>
      <trkpt lat="42.75666" lon="1.53028">
        <ele>1507.532</ele>
        <time>2021-03-06T09:18:47Z</time>
      </trkpt>
      <trkpt lat="42.75669" lon="1.53029">
        <ele>1504.728</ele>
        <time>2021-03-06T09:18:49Z</time>
      </trkpt>
      <trkpt lat="42.7567" lon="1.5303">
        <ele>1504.747</ele>
        <time>2021-03-06T09:18:51Z</time>
      </trkpt>
      <trkpt lat="42.7567" lon="1.5303">
        <ele>1505</ele>
        <time>2021-03-06T09:18:53Z</time>
      </trkpt>
      <trkpt lat="42.7567" lon="1.53029">
        <ele>1505.641</ele>
        <time>2021-03-06T09:18:55Z</time>
      </trkpt>
      <trkpt lat="42.7567" lon="1.53029">
        <ele>1505.213</ele>
        <time>2021-03-06T09:18:57Z</time>
      </trkpt>
      <trkpt lat="42.75672" lon="1.53028">
        <ele>1505.775</ele>
        <time>2021-03-06T09:18:59Z</time>
      </trkpt>
      <trkpt lat="42.75673" lon="1.53029">
        <ele>1506.968</ele>
        <time>2021-03-06T09:19:01Z</time>
      </trkpt>
      <trkpt lat="42.75672" lon="1.53029">
        <ele>1507.004</ele>
        <time>2021-03-06T09:19:03Z</time>
      </trkpt>
      <trkpt lat="42.75671" lon="1.53028">
        <ele>1507.037</ele>
        <time>2021-03-06T09:19:05Z</time>
      </trkpt>
      <trkpt lat="42.75671" lon="1.53029">
        <ele>1507.105</ele>
        <time>2021-03-06T09:19:07Z</time>
      </trkpt>
      <trkpt lat="42.75671" lon="1.53029">
        <ele>1508.318</ele>
        <time>2021-03-06T09:19:09Z</time>
      </trkpt>
      <trkpt lat="42.75672" lon="1.53029">
        <ele>1508.77</ele>
        <time>2021-03-06T09:19:11Z</time>
      </trkpt>
      <trkpt lat="42.75671" lon="1.53029">
        <ele>1508.797</ele>
        <time>2021-03-06T09:19:13Z</time>
      </trkpt>
      <trkpt lat="42.75671" lon="1.53028">
        <ele>1508.545</ele>
        <time>2021-03-06T09:19:15Z</time>
      </trkpt>
      <trkpt lat="42.7567" lon="1.53027">
        <ele>1508.161</ele>
        <time>2021-03-06T09:19:17Z</time>
      </trkpt>
      <trkpt lat="42.7567" lon="1.53028">
        <ele>1507.998</ele>
        <time>2021-03-06T09:19:19Z</time>
      </trkpt>
      <trkpt lat="42.7567" lon="1.53027">
        <ele>1507.913</ele>
        <time>2021-03-06T09:19:21Z</time>
      </trkpt>
      <trkpt lat="42.75669" lon="1.53026">
        <ele>1507.87</ele>
        <time>2021-03-06T09:19:23Z</time>
      </trkpt>
      <trkpt lat="42.75668" lon="1.53026">
        <ele>1509.069</ele>
        <time>2021-03-06T09:19:25Z</time>
      </trkpt>
      <trkpt lat="42.75667" lon="1.53025">
        <ele>1508.444</ele>
        <time>2021-03-06T09:19:27Z</time>
      </trkpt>
      <trkpt lat="42.75665" lon="1.53024">
        <ele>1508.579</ele>
        <time>2021-03-06T09:19:29Z</time>
      </trkpt>
      <trkpt lat="42.75664" lon="1.53024">
        <ele>1508.517</ele>
        <time>2021-03-06T09:19:31Z</time>
      </trkpt>
      <trkpt lat="42.75662" lon="1.53023">
        <ele>1509.145</ele>
        <time>2021-03-06T09:19:33Z</time>
      </trkpt>
      <trkpt lat="42.7566" lon="1.53022">
        <ele>1509.776</ele>
        <time>2021-03-06T09:19:35Z</time>
      </trkpt>
      <trkpt lat="42.75659" lon="1.5302">
        <ele>1510.196</ele>
        <time>2021-03-06T09:19:37Z</time>
      </trkpt>
      <trkpt lat="42.75658" lon="1.53018">
        <ele>1509.883</ele>
        <time>2021-03-06T09:19:39Z</time>
      </trkpt>
      <trkpt lat="42.75656" lon="1.53018">
        <ele>1510.021</ele>
        <time>2021-03-06T09:19:41Z</time>
      </trkpt>
      <trkpt lat="42.75653" lon="1.53015">
        <ele>1511.205</ele>
        <time>2021-03-06T09:19:43Z</time>
      </trkpt>
      <trkpt lat="42.75652" lon="1.53014">
        <ele>1510.955</ele>
        <time>2021-03-06T09:19:45Z</time>
      </trkpt>
      <trkpt lat="42.7565" lon="1.53014">
        <ele>1509.337</ele>
        <time>2021-03-06T09:19:47Z</time>
      </trkpt>
      <trkpt lat="42.75649" lon="1.53013">
        <ele>1509.346</ele>
        <time>2021-03-06T09:19:49Z</time>
      </trkpt>
      <trkpt lat="42.75647" lon="1.53013">
        <ele>1509.038</ele>
        <time>2021-03-06T09:19:51Z</time>
      </trkpt>
      <trkpt lat="42.75645" lon="1.53012">
        <ele>1509.852</ele>
        <time>2021-03-06T09:19:53Z</time>
      </trkpt>
      <trkpt lat="42.75643" lon="1.53011">
        <ele>1510.235</ele>
        <time>2021-03-06T09:19:55Z</time>
      </trkpt>
      <trkpt lat="42.75641" lon="1.53009">
        <ele>1510.19</ele>
        <time>2021-03-06T09:19:57Z</time>
      </trkpt>
      <trkpt lat="42.75639" lon="1.53007">
        <ele>1509.43</ele>
        <time>2021-03-06T09:19:59Z</time>
      </trkpt>
      <trkpt lat="42.75637" lon="1.53007">
        <ele>1508.593</ele>
        <time>2021-03-06T09:20:01Z</time>
      </trkpt>
      <trkpt lat="42.75636" lon="1.53007">
        <ele>1507.68</ele>
        <time>2021-03-06T09:20:03Z</time>
      </trkpt>
      <trkpt lat="42.75634" lon="1.53006">
        <ele>1507.257</ele>
        <time>2021-03-06T09:20:05Z</time>
      </trkpt>
      <trkpt lat="42.75632" lon="1.53005">
        <ele>1506.862</ele>
        <time>2021-03-06T09:20:07Z</time>
      </trkpt>
      <trkpt lat="42.7563" lon="1.53004">
        <ele>1506.316</ele>
        <time>2021-03-06T09:20:09Z</time>
      </trkpt>
      <trkpt lat="42.75628" lon="1.53003">
        <ele>1506.289</ele>
        <time>2021-03-06T09:20:11Z</time>
      </trkpt>
      <trkpt lat="42.75626" lon="1.53002">
        <ele>1505.525</ele>
        <time>2021-03-06T09:20:13Z</time>
      </trkpt>
      <trkpt lat="42.75624" lon="1.53001">
        <ele>1504.475</ele>
        <time>2021-03-06T09:20:15Z</time>
      </trkpt>
      <trkpt lat="42.75623" lon="1.53001">
        <ele>1504.486</ele>
        <time>2021-03-06T09:20:17Z</time>
      </trkpt>
      <trkpt lat="42.75621" lon="1.53001">
        <ele>1503.721</ele>
        <time>2021-03-06T09:20:19Z</time>
      </trkpt>
      <trkpt lat="42.75619" lon="1.53">
        <ele>1502.846</ele>
        <time>2021-03-06T09:20:21Z</time>
      </trkpt>
      <trkpt lat="42.75616" lon="1.53">
        <ele>1502.891</ele>
        <time>2021-03-06T09:20:23Z</time>
      </trkpt>
      <trkpt lat="42.75614" lon="1.53">
        <ele>1503.053</ele>
        <time>2021-03-06T09:20:25Z</time>
      </trkpt>
      <trkpt lat="42.75612" lon="1.52998">
        <ele>1502.891</ele>
        <time>2021-03-06T09:20:27Z</time>
      </trkpt>
      <trkpt lat="42.7561" lon="1.52998">
        <ele>1502.124</ele>
        <time>2021-03-06T09:20:29Z</time>
      </trkpt>
      <trkpt lat="42.75608" lon="1.52998">
        <ele>1501.33</ele>
        <time>2021-03-06T09:20:31Z</time>
      </trkpt>
      <trkpt lat="42.75606" lon="1.52998">
        <ele>1500.554</ele>
        <time>2021-03-06T09:20:33Z</time>
      </trkpt>
      <trkpt lat="42.75604" lon="1.52998">
        <ele>1500.019</ele>
        <time>2021-03-06T09:20:35Z</time>
      </trkpt>
      <trkpt lat="42.75602" lon="1.52997">
        <ele>1499.768</ele>
        <time>2021-03-06T09:20:37Z</time>
      </trkpt>
      <trkpt lat="42.756" lon="1.52996">
        <ele>1499.474</ele>
        <time>2021-03-06T09:20:39Z</time>
      </trkpt>
      <trkpt lat="42.75597" lon="1.52995">
        <ele>1499.522</ele>
        <time>2021-03-06T09:20:41Z</time>
      </trkpt>
      <trkpt lat="42.75595" lon="1.52994">
        <ele>1498.998</ele>
        <time>2021-03-06T09:20:43Z</time>
      </trkpt>
      <trkpt lat="42.75593" lon="1.52994">
        <ele>1498.589</ele>
        <time>2021-03-06T09:20:45Z</time>
      </trkpt>
      <trkpt lat="42.7559" lon="1.52993">
        <ele>1498.29</ele>
        <time>2021-03-06T09:20:47Z</time>
      </trkpt>
      <trkpt lat="42.75587" lon="1.52991">
        <ele>1498.236</ele>
        <time>2021-03-06T09:20:49Z</time>
      </trkpt>
      <trkpt lat="42.75584" lon="1.5299">
        <ele>1498.161</ele>
        <time>2021-03-06T09:20:51Z</time>
      </trkpt>
      <trkpt lat="42.75581" lon="1.52988">
        <ele>1498.065</ele>
        <time>2021-03-06T09:20:53Z</time>
      </trkpt>
      <trkpt lat="42.75579" lon="1.52987">
        <ele>1497.963</ele>
        <time>2021-03-06T09:20:55Z</time>
      </trkpt>
      <trkpt lat="42.75576" lon="1.52986">
        <ele>1497.669</ele>
        <time>2021-03-06T09:20:57Z</time>
      </trkpt>
      <trkpt lat="42.75574" lon="1.52986">
        <ele>1496.548</ele>
        <time>2021-03-06T09:20:59Z</time>
      </trkpt>
      <trkpt lat="42.75571" lon="1.52986">
        <ele>1496.445</ele>
        <time>2021-03-06T09:21:01Z</time>
      </trkpt>
      <trkpt lat="42.75569" lon="1.52986">
        <ele>1495.545</ele>
        <time>2021-03-06T09:21:03Z</time>
      </trkpt>
      <trkpt lat="42.75566" lon="1.52986">
        <ele>1495.267</ele>
        <time>2021-03-06T09:21:05Z</time>
      </trkpt>
      <trkpt lat="42.75563" lon="1.52985">
        <ele>1495.568</ele>
        <time>2021-03-06T09:21:07Z</time>
      </trkpt>
      <trkpt lat="42.75561" lon="1.52985">
        <ele>1495.819</ele>
        <time>2021-03-06T09:21:09Z</time>
      </trkpt>
      <trkpt lat="42.75558" lon="1.52985">
        <ele>1495.988</ele>
        <time>2021-03-06T09:21:11Z</time>
      </trkpt>
      <trkpt lat="42.75555" lon="1.52986">
        <ele>1496.234</ele>
        <time>2021-03-06T09:21:13Z</time>
      </trkpt>
      <trkpt lat="42.75553" lon="1.52985">
        <ele>1496.123</ele>
        <time>2021-03-06T09:21:15Z</time>
      </trkpt>
      <trkpt lat="42.75551" lon="1.52986">
        <ele>1495.871</ele>
        <time>2021-03-06T09:21:17Z</time>
      </trkpt>
      <trkpt lat="42.75548" lon="1.52987">
        <ele>1495.834</ele>
        <time>2021-03-06T09:21:19Z</time>
      </trkpt>
      <trkpt lat="42.75545" lon="1.52988">
        <ele>1496.48</ele>
        <time>2021-03-06T09:21:21Z</time>
      </trkpt>
      <trkpt lat="42.75543" lon="1.52989">
        <ele>1496.972</ele>
        <time>2021-03-06T09:21:23Z</time>
      </trkpt>
      <trkpt lat="42.7554" lon="1.52989">
        <ele>1497.349</ele>
        <time>2021-03-06T09:21:25Z</time>
      </trkpt>
      <trkpt lat="42.75538" lon="1.5299">
        <ele>1497.164</ele>
        <time>2021-03-06T09:21:27Z</time>
      </trkpt>
      <trkpt lat="42.75535" lon="1.52992">
        <ele>1497.5</ele>
        <time>2021-03-06T09:21:29Z</time>
      </trkpt>
      <trkpt lat="42.75533" lon="1.52992">
        <ele>1497.314</ele>
        <time>2021-03-06T09:21:31Z</time>
      </trkpt>
      <trkpt lat="42.7553" lon="1.52993">
        <ele>1497.684</ele>
        <time>2021-03-06T09:21:33Z</time>
      </trkpt>
      <trkpt lat="42.75528" lon="1.52994">
        <ele>1497.335</ele>
        <time>2021-03-06T09:21:35Z</time>
      </trkpt>
      <trkpt lat="42.75525" lon="1.52995">
        <ele>1497.968</ele>
        <time>2021-03-06T09:21:37Z</time>
      </trkpt>
      <trkpt lat="42.75523" lon="1.52996">
        <ele>1498.749</ele>
        <time>2021-03-06T09:21:39Z</time>
      </trkpt>
      <trkpt lat="42.75521" lon="1.52997">
        <ele>1498.617</ele>
        <time>2021-03-06T09:21:41Z</time>
      </trkpt>
      <trkpt lat="42.75518" lon="1.52998">
        <ele>1498.513</ele>
        <time>2021-03-06T09:21:43Z</time>
      </trkpt>
      <trkpt lat="42.75516" lon="1.52998">
        <ele>1499.284</ele>
        <time>2021-03-06T09:21:45Z</time>
      </trkpt>
      <trkpt lat="42.75513" lon="1.52998">
        <ele>1499.522</ele>
        <time>2021-03-06T09:21:47Z</time>
      </trkpt>
      <trkpt lat="42.75511" lon="1.52999">
        <ele>1499.388</ele>
        <time>2021-03-06T09:21:49Z</time>
      </trkpt>
      <trkpt lat="42.75508" lon="1.52999">
        <ele>1499.568</ele>
        <time>2021-03-06T09:21:51Z</time>
      </trkpt>
      <trkpt lat="42.75506" lon="1.52999">
        <ele>1500.393</ele>
        <time>2021-03-06T09:21:53Z</time>
      </trkpt>
      <trkpt lat="42.75503" lon="1.53">
        <ele>1501.012</ele>
        <time>2021-03-06T09:21:55Z</time>
      </trkpt>
      <trkpt lat="42.755" lon="1.53">
        <ele>1502.129</ele>
        <time>2021-03-06T09:21:57Z</time>
      </trkpt>
      <trkpt lat="42.75497" lon="1.53001">
        <ele>1502.207</ele>
        <time>2021-03-06T09:21:59Z</time>
      </trkpt>
      <trkpt lat="42.75495" lon="1.53002">
        <ele>1501.838</ele>
        <time>2021-03-06T09:22:01Z</time>
      </trkpt>
      <trkpt lat="42.75493" lon="1.53003">
        <ele>1502.043</ele>
        <time>2021-03-06T09:22:03Z</time>
      </trkpt>
      <trkpt lat="42.75491" lon="1.53005">
        <ele>1501.417</ele>
        <time>2021-03-06T09:22:05Z</time>
      </trkpt>
      <trkpt lat="42.75489" lon="1.53007">
        <ele>1500.02</ele>
        <time>2021-03-06T09:22:07Z</time>
      </trkpt>
      <trkpt lat="42.75487" lon="1.53008">
        <ele>1499.249</ele>
        <time>2021-03-06T09:22:09Z</time>
      </trkpt>
      <trkpt lat="42.75484" lon="1.53009">
        <ele>1499.215</ele>
        <time>2021-03-06T09:22:11Z</time>
      </trkpt>
      <trkpt lat="42.75483" lon="1.53011">
        <ele>1498.563</ele>
        <time>2021-03-06T09:22:13Z</time>
      </trkpt>
      <trkpt lat="42.75481" lon="1.53012">
        <ele>1497.752</ele>
        <time>2021-03-06T09:22:15Z</time>
      </trkpt>
      <trkpt lat="42.75478" lon="1.53013">
        <ele>1497.763</ele>
        <time>2021-03-06T09:22:17Z</time>
      </trkpt>
      <trkpt lat="42.75475" lon="1.53014">
        <ele>1498.49</ele>
        <time>2021-03-06T09:22:19Z</time>
      </trkpt>
      <trkpt lat="42.75471" lon="1.53014">
        <ele>1499.47</ele>
        <time>2021-03-06T09:22:21Z</time>
      </trkpt>
      <trkpt lat="42.75468" lon="1.53016">
        <ele>1500.311</ele>
        <time>2021-03-06T09:22:23Z</time>
      </trkpt>
      <trkpt lat="42.75464" lon="1.53016">
        <ele>1502.388</ele>
        <time>2021-03-06T09:22:25Z</time>
      </trkpt>
      <trkpt lat="42.75462" lon="1.53018">
        <ele>1503.426</ele>
        <time>2021-03-06T09:22:27Z</time>
      </trkpt>
      <trkpt lat="42.75459" lon="1.53019">
        <ele>1503.736</ele>
        <time>2021-03-06T09:22:29Z</time>
      </trkpt>
      <trkpt lat="42.75457" lon="1.5302">
        <ele>1504.19</ele>
        <time>2021-03-06T09:22:31Z</time>
      </trkpt>
      <trkpt lat="42.75454" lon="1.5302">
        <ele>1503.9</ele>
        <time>2021-03-06T09:22:33Z</time>
      </trkpt>
      <trkpt lat="42.75451" lon="1.53023">
        <ele>1503.637</ele>
        <time>2021-03-06T09:22:35Z</time>
      </trkpt>
      <trkpt lat="42.75448" lon="1.53024">
        <ele>1503.827</ele>
        <time>2021-03-06T09:22:37Z</time>
      </trkpt>
      <trkpt lat="42.75446" lon="1.53025">
        <ele>1504.527</ele>
        <time>2021-03-06T09:22:39Z</time>
      </trkpt>
      <trkpt lat="42.75444" lon="1.53027">
        <ele>1503.343</ele>
        <time>2021-03-06T09:22:41Z</time>
      </trkpt>
      <trkpt lat="42.75442" lon="1.53029">
        <ele>1503.299</ele>
        <time>2021-03-06T09:22:43Z</time>
      </trkpt>
      <trkpt lat="42.7544" lon="1.5303">
        <ele>1503.308</ele>
        <time>2021-03-06T09:22:45Z</time>
      </trkpt>
      <trkpt lat="42.75438" lon="1.53032">
        <ele>1502.78</ele>
        <time>2021-03-06T09:22:47Z</time>
      </trkpt>
      <trkpt lat="42.75436" lon="1.53034">
        <ele>1502.058</ele>
        <time>2021-03-06T09:22:49Z</time>
      </trkpt>
      <trkpt lat="42.75434" lon="1.53035">
        <ele>1501.838</ele>
        <time>2021-03-06T09:22:51Z</time>
      </trkpt>
      <trkpt lat="42.75433" lon="1.53037">
        <ele>1501.82</ele>
        <time>2021-03-06T09:22:53Z</time>
      </trkpt>
      <trkpt lat="42.75431" lon="1.53039">
        <ele>1501.089</ele>
        <time>2021-03-06T09:22:55Z</time>
      </trkpt>
      <trkpt lat="42.7543" lon="1.53042">
        <ele>1500.056</ele>
        <time>2021-03-06T09:22:57Z</time>
      </trkpt>
      <trkpt lat="42.75428" lon="1.53044">
        <ele>1499.218</ele>
        <time>2021-03-06T09:22:59Z</time>
      </trkpt>
      <trkpt lat="42.75427" lon="1.53046">
        <ele>1498.875</ele>
        <time>2021-03-06T09:23:01Z</time>
      </trkpt>
      <trkpt lat="42.75425" lon="1.53049">
        <ele>1498.189</ele>
        <time>2021-03-06T09:23:03Z</time>
      </trkpt>
      <trkpt lat="42.75423" lon="1.53051">
        <ele>1497.65</ele>
        <time>2021-03-06T09:23:05Z</time>
      </trkpt>
      <trkpt lat="42.75421" lon="1.53054">
        <ele>1496.865</ele>
        <time>2021-03-06T09:23:07Z</time>
      </trkpt>
      <trkpt lat="42.7542" lon="1.53057">
        <ele>1496.388</ele>
        <time>2021-03-06T09:23:09Z</time>
      </trkpt>
      <trkpt lat="42.75418" lon="1.5306">
        <ele>1494.521</ele>
        <time>2021-03-06T09:23:11Z</time>
      </trkpt>
      <trkpt lat="42.75417" lon="1.53063">
        <ele>1494.236</ele>
        <time>2021-03-06T09:23:13Z</time>
      </trkpt>
      <trkpt lat="42.75416" lon="1.53066">
        <ele>1493.718</ele>
        <time>2021-03-06T09:23:15Z</time>
      </trkpt>
      <trkpt lat="42.75415" lon="1.53069">
        <ele>1494.461</ele>
        <time>2021-03-06T09:23:17Z</time>
      </trkpt>
      <trkpt lat="42.75414" lon="1.53072">
        <ele>1494.462</ele>
        <time>2021-03-06T09:23:19Z</time>
      </trkpt>
      <trkpt lat="42.75413" lon="1.53075">
        <ele>1494.251</ele>
        <time>2021-03-06T09:23:21Z</time>
      </trkpt>
      <trkpt lat="42.75412" lon="1.53077">
        <ele>1492.959</ele>
        <time>2021-03-06T09:23:23Z</time>
      </trkpt>
      <trkpt lat="42.75411" lon="1.5308">
        <ele>1492.614</ele>
        <time>2021-03-06T09:23:25Z</time>
      </trkpt>
      <trkpt lat="42.75409" lon="1.53085">
        <ele>1491.068</ele>
        <time>2021-03-06T09:23:28Z</time>
      </trkpt>
      <trkpt lat="42.75408" lon="1.53088">
        <ele>1491.02</ele>
        <time>2021-03-06T09:23:30Z</time>
      </trkpt>
      <trkpt lat="42.75407" lon="1.53091">
        <ele>1490.029</ele>
        <time>2021-03-06T09:23:32Z</time>
      </trkpt>
      <trkpt lat="42.75407" lon="1.53094">
        <ele>1489.505</ele>
        <time>2021-03-06T09:23:34Z</time>
      </trkpt>
      <trkpt lat="42.75406" lon="1.53097">
        <ele>1489.063</ele>
        <time>2021-03-06T09:23:36Z</time>
      </trkpt>
      <trkpt lat="42.75405" lon="1.531">
        <ele>1489.373</ele>
        <time>2021-03-06T09:23:38Z</time>
      </trkpt>
      <trkpt lat="42.75404" lon="1.53103">
        <ele>1489.415</ele>
        <time>2021-03-06T09:23:40Z</time>
      </trkpt>
      <trkpt lat="42.75403" lon="1.53106">
        <ele>1489.234</ele>
        <time>2021-03-06T09:23:42Z</time>
      </trkpt>
      <trkpt lat="42.75402" lon="1.53109">
        <ele>1489.038</ele>
        <time>2021-03-06T09:23:44Z</time>
      </trkpt>
      <trkpt lat="42.75401" lon="1.53111">
        <ele>1488.338</ele>
        <time>2021-03-06T09:23:46Z</time>
      </trkpt>
      <trkpt lat="42.754" lon="1.53115">
        <ele>1488.134</ele>
        <time>2021-03-06T09:23:48Z</time>
      </trkpt>
      <trkpt lat="42.75399" lon="1.53117">
        <ele>1487.703</ele>
        <time>2021-03-06T09:23:50Z</time>
      </trkpt>
      <trkpt lat="42.75398" lon="1.5312">
        <ele>1487.96</ele>
        <time>2021-03-06T09:23:52Z</time>
      </trkpt>
      <trkpt lat="42.75397" lon="1.53123">
        <ele>1488.273</ele>
        <time>2021-03-06T09:23:54Z</time>
      </trkpt>
      <trkpt lat="42.75396" lon="1.53125">
        <ele>1488.101</ele>
        <time>2021-03-06T09:23:56Z</time>
      </trkpt>
      <trkpt lat="42.75395" lon="1.53127">
        <ele>1487.923</ele>
        <time>2021-03-06T09:23:57Z</time>
      </trkpt>
      <trkpt lat="42.75391" lon="1.53136">
        <ele>1485.971</ele>
        <time>2021-03-06T09:24:04Z</time>
      </trkpt>
      <trkpt lat="42.7539" lon="1.53138">
        <ele>1486.147</ele>
        <time>2021-03-06T09:24:06Z</time>
      </trkpt>
      <trkpt lat="42.75389" lon="1.53141">
        <ele>1485.56</ele>
        <time>2021-03-06T09:24:08Z</time>
      </trkpt>
      <trkpt lat="42.75386" lon="1.53151">
        <ele>1486.143</ele>
        <time>2021-03-06T09:24:15Z</time>
      </trkpt>
      <trkpt lat="42.75385" lon="1.53153">
        <ele>1486.267</ele>
        <time>2021-03-06T09:24:17Z</time>
      </trkpt>
      <trkpt lat="42.75384" lon="1.53156">
        <ele>1485.609</ele>
        <time>2021-03-06T09:24:19Z</time>
      </trkpt>
      <trkpt lat="42.75384" lon="1.53159">
        <ele>1485.175</ele>
        <time>2021-03-06T09:24:21Z</time>
      </trkpt>
      <trkpt lat="42.75383" lon="1.53162">
        <ele>1485.166</ele>
        <time>2021-03-06T09:24:23Z</time>
      </trkpt>
      <trkpt lat="42.75382" lon="1.53165">
        <ele>1485.004</ele>
        <time>2021-03-06T09:24:25Z</time>
      </trkpt>
      <trkpt lat="42.75381" lon="1.53167">
        <ele>1485.503</ele>
        <time>2021-03-06T09:24:27Z</time>
      </trkpt>
      <trkpt lat="42.7538" lon="1.5317">
        <ele>1484.311</ele>
        <time>2021-03-06T09:24:29Z</time>
      </trkpt>
      <trkpt lat="42.75379" lon="1.53173">
        <ele>1484.725</ele>
        <time>2021-03-06T09:24:31Z</time>
      </trkpt>
      <trkpt lat="42.75378" lon="1.53175">
        <ele>1483.751</ele>
        <time>2021-03-06T09:24:33Z</time>
      </trkpt>
      <trkpt lat="42.75378" lon="1.53178">
        <ele>1482.939</ele>
        <time>2021-03-06T09:24:35Z</time>
      </trkpt>
      <trkpt lat="42.75376" lon="1.53181">
        <ele>1483.622</ele>
        <time>2021-03-06T09:24:37Z</time>
      </trkpt>
      <trkpt lat="42.75374" lon="1.53184">
        <ele>1483.235</ele>
        <time>2021-03-06T09:24:39Z</time>
      </trkpt>
      <trkpt lat="42.75372" lon="1.53185">
        <ele>1484.506</ele>
        <time>2021-03-06T09:24:41Z</time>
      </trkpt>
      <trkpt lat="42.75371" lon="1.53187">
        <ele>1485.346</ele>
        <time>2021-03-06T09:24:43Z</time>
      </trkpt>
      <trkpt lat="42.7537" lon="1.53189">
        <ele>1485.671</ele>
        <time>2021-03-06T09:24:45Z</time>
      </trkpt>
      <trkpt lat="42.7537" lon="1.53192">
        <ele>1484.635</ele>
        <time>2021-03-06T09:24:47Z</time>
      </trkpt>
      <trkpt lat="42.75369" lon="1.53195">
        <ele>1484.277</ele>
        <time>2021-03-06T09:24:49Z</time>
      </trkpt>
      <trkpt lat="42.75368" lon="1.53196">
        <ele>1483.961</ele>
        <time>2021-03-06T09:24:51Z</time>
      </trkpt>
      <trkpt lat="42.75365" lon="1.53198">
        <ele>1485.038</ele>
        <time>2021-03-06T09:24:58Z</time>
      </trkpt>
      <trkpt lat="42.75366" lon="1.53199">
        <ele>1485.036</ele>
        <time>2021-03-06T09:25:00Z</time>
      </trkpt>
      <trkpt lat="42.75365" lon="1.53199">
        <ele>1484.214</ele>
        <time>2021-03-06T09:25:02Z</time>
      </trkpt>
      <trkpt lat="42.75366" lon="1.53201">
        <ele>1483.196</ele>
        <time>2021-03-06T09:25:04Z</time>
      </trkpt>
      <trkpt lat="42.75365" lon="1.53203">
        <ele>1483.141</ele>
        <time>2021-03-06T09:25:06Z</time>
      </trkpt>
      <trkpt lat="42.75365" lon="1.53203">
        <ele>1483.352</ele>
        <time>2021-03-06T09:25:08Z</time>
      </trkpt>
      <trkpt lat="42.75366" lon="1.53203">
        <ele>1483.276</ele>
        <time>2021-03-06T09:25:10Z</time>
      </trkpt>
      <trkpt lat="42.75366" lon="1.53203">
        <ele>1483.271</ele>
        <time>2021-03-06T09:25:12Z</time>
      </trkpt>
      <trkpt lat="42.75366" lon="1.53203">
        <ele>1483.261</ele>
        <time>2021-03-06T09:25:14Z</time>
      </trkpt>
      <trkpt lat="42.75366" lon="1.53203">
        <ele>1483.677</ele>
        <time>2021-03-06T09:25:16Z</time>
      </trkpt>
      <trkpt lat="42.75366" lon="1.53203">
        <ele>1483.667</ele>
        <time>2021-03-06T09:25:18Z</time>
      </trkpt>
      <trkpt lat="42.75366" lon="1.53203">
        <ele>1483.624</ele>
        <time>2021-03-06T09:25:20Z</time>
      </trkpt>
      <trkpt lat="42.75366" lon="1.53203">
        <ele>1483.633</ele>
        <time>2021-03-06T09:25:22Z</time>
      </trkpt>
      <trkpt lat="42.75366" lon="1.53203">
        <ele>1483.62</ele>
        <time>2021-03-06T09:25:24Z</time>
      </trkpt>
      <trkpt lat="42.75366" lon="1.53203">
        <ele>1483.602</ele>
        <time>2021-03-06T09:25:26Z</time>
      </trkpt>
      <trkpt lat="42.75366" lon="1.53203">
        <ele>1483.59</ele>
        <time>2021-03-06T09:25:28Z</time>
      </trkpt>
      <trkpt lat="42.75366" lon="1.53203">
        <ele>1483.592</ele>
        <time>2021-03-06T09:25:30Z</time>
      </trkpt>
      <trkpt lat="42.75366" lon="1.53203">
        <ele>1483.588</ele>
        <time>2021-03-06T09:25:32Z</time>
      </trkpt>
      <trkpt lat="42.75366" lon="1.53203">
        <ele>1483.587</ele>
        <time>2021-03-06T09:25:34Z</time>
      </trkpt>
      <trkpt lat="42.75366" lon="1.53203">
        <ele>1483.587</ele>
        <time>2021-03-06T09:25:36Z</time>
      </trkpt>
      <trkpt lat="42.75366" lon="1.53203">
        <ele>1483.584</ele>
        <time>2021-03-06T09:25:38Z</time>
      </trkpt>
      <trkpt lat="42.75366" lon="1.53202">
        <ele>1483.525</ele>
        <time>2021-03-06T09:25:40Z</time>
      </trkpt>
      <trkpt lat="42.75366" lon="1.53202">
        <ele>1483.527</ele>
        <time>2021-03-06T09:25:42Z</time>
      </trkpt>
      <trkpt lat="42.75366" lon="1.53202">
        <ele>1483.518</ele>
        <time>2021-03-06T09:25:44Z</time>
      </trkpt>
      <trkpt lat="42.75366" lon="1.53202">
        <ele>1483.504</ele>
        <time>2021-03-06T09:25:46Z</time>
      </trkpt>
      <trkpt lat="42.75366" lon="1.53202">
        <ele>1483.487</ele>
        <time>2021-03-06T09:25:48Z</time>
      </trkpt>
      <trkpt lat="42.75366" lon="1.53202">
        <ele>1483.479</ele>
        <time>2021-03-06T09:25:50Z</time>
      </trkpt>
      <trkpt lat="42.75366" lon="1.53202">
        <ele>1483.495</ele>
        <time>2021-03-06T09:25:52Z</time>
      </trkpt>
      <trkpt lat="42.75366" lon="1.53202">
        <ele>1483.493</ele>
        <time>2021-03-06T09:25:54Z</time>
      </trkpt>
      <trkpt lat="42.75366" lon="1.53202">
        <ele>1483.492</ele>
        <time>2021-03-06T09:25:56Z</time>
      </trkpt>
      <trkpt lat="42.75366" lon="1.53202">
        <ele>1483.492</ele>
        <time>2021-03-06T09:25:58Z</time>
      </trkpt>
      <trkpt lat="42.75366" lon="1.53202">
        <ele>1483.49</ele>
        <time>2021-03-06T09:26:00Z</time>
      </trkpt>
      <trkpt lat="42.75366" lon="1.53202">
        <ele>1483.494</ele>
        <time>2021-03-06T09:26:02Z</time>
      </trkpt>
      <trkpt lat="42.75366" lon="1.53202">
        <ele>1484.135</ele>
        <time>2021-03-06T09:26:04Z</time>
      </trkpt>
      <trkpt lat="42.75366" lon="1.53202">
        <ele>1484.227</ele>
        <time>2021-03-06T09:26:06Z</time>
      </trkpt>
      <trkpt lat="42.75366" lon="1.53201">
        <ele>1484.207</ele>
        <time>2021-03-06T09:26:07Z</time>
      </trkpt>
      <trkpt lat="42.75366" lon="1.53201">
        <ele>1484.218</ele>
        <time>2021-03-06T09:26:13Z</time>
      </trkpt>
      <trkpt lat="42.75366" lon="1.53201">
        <ele>1484.215</ele>
        <time>2021-03-06T09:26:15Z</time>
      </trkpt>
      <trkpt lat="42.75366" lon="1.53201">
        <ele>1484.219</ele>
        <time>2021-03-06T09:26:17Z</time>
      </trkpt>
      <trkpt lat="42.75366" lon="1.53201">
        <ele>1484.204</ele>
        <time>2021-03-06T09:26:19Z</time>
      </trkpt>
      <trkpt lat="42.75366" lon="1.53201">
        <ele>1484.21</ele>
        <time>2021-03-06T09:26:21Z</time>
      </trkpt>
      <trkpt lat="42.75366" lon="1.53201">
        <ele>1484.216</ele>
        <time>2021-03-06T09:26:23Z</time>
      </trkpt>
      <trkpt lat="42.75366" lon="1.53201">
        <ele>1484.214</ele>
        <time>2021-03-06T09:26:25Z</time>
      </trkpt>
      <trkpt lat="42.75366" lon="1.53201">
        <ele>1484.219</ele>
        <time>2021-03-06T09:26:27Z</time>
      </trkpt>
      <trkpt lat="42.75366" lon="1.53201">
        <ele>1484.226</ele>
        <time>2021-03-06T09:26:29Z</time>
      </trkpt>
      <trkpt lat="42.75366" lon="1.53201">
        <ele>1484.163</ele>
        <time>2021-03-06T09:26:31Z</time>
      </trkpt>
      <trkpt lat="42.75366" lon="1.532">
        <ele>1484.169</ele>
        <time>2021-03-06T09:26:33Z</time>
      </trkpt>
      <trkpt lat="42.75366" lon="1.532">
        <ele>1484.173</ele>
        <time>2021-03-06T09:26:35Z</time>
      </trkpt>
      <trkpt lat="42.75366" lon="1.532">
        <ele>1484.186</ele>
        <time>2021-03-06T09:26:37Z</time>
      </trkpt>
      <trkpt lat="42.75366" lon="1.532">
        <ele>1484.199</ele>
        <time>2021-03-06T09:26:39Z</time>
      </trkpt>
      <trkpt lat="42.75366" lon="1.53201">
        <ele>1484.235</ele>
        <time>2021-03-06T09:26:41Z</time>
      </trkpt>
      <trkpt lat="42.75366" lon="1.53201">
        <ele>1483.947</ele>
        <time>2021-03-06T09:26:43Z</time>
      </trkpt>
      <trkpt lat="42.75366" lon="1.53201">
        <ele>1483.959</ele>
        <time>2021-03-06T09:26:45Z</time>
      </trkpt>
      <trkpt lat="42.75366" lon="1.53201">
        <ele>1484.602</ele>
        <time>2021-03-06T09:26:47Z</time>
      </trkpt>
      <trkpt lat="42.75366" lon="1.53201">
        <ele>1484.601</ele>
        <time>2021-03-06T09:26:49Z</time>
      </trkpt>
      <trkpt lat="42.75366" lon="1.53201">
        <ele>1484.604</ele>
        <time>2021-03-06T09:26:51Z</time>
      </trkpt>
      <trkpt lat="42.75366" lon="1.53201">
        <ele>1484.861</ele>
        <time>2021-03-06T09:26:53Z</time>
      </trkpt>
      <trkpt lat="42.75366" lon="1.53201">
        <ele>1484.867</ele>
        <time>2021-03-06T09:26:55Z</time>
      </trkpt>
      <trkpt lat="42.75366" lon="1.53201">
        <ele>1484.886</ele>
        <time>2021-03-06T09:26:57Z</time>
      </trkpt>
      <trkpt lat="42.75366" lon="1.53201">
        <ele>1484.894</ele>
        <time>2021-03-06T09:26:59Z</time>
      </trkpt>
      <trkpt lat="42.75366" lon="1.53201">
        <ele>1484.885</ele>
        <time>2021-03-06T09:27:01Z</time>
      </trkpt>
      <trkpt lat="42.75367" lon="1.53201">
        <ele>1484.093</ele>
        <time>2021-03-06T09:27:03Z</time>
      </trkpt>
      <trkpt lat="42.75367" lon="1.53201">
        <ele>1484.223</ele>
        <time>2021-03-06T09:27:05Z</time>
      </trkpt>
      <trkpt lat="42.75367" lon="1.53201">
        <ele>1484.261</ele>
        <time>2021-03-06T09:27:07Z</time>
      </trkpt>
      <trkpt lat="42.75367" lon="1.53201">
        <ele>1484.267</ele>
        <time>2021-03-06T09:27:09Z</time>
      </trkpt>
      <trkpt lat="42.75367" lon="1.53201">
        <ele>1484.274</ele>
        <time>2021-03-06T09:27:11Z</time>
      </trkpt>
      <trkpt lat="42.75367" lon="1.53201">
        <ele>1484.283</ele>
        <time>2021-03-06T09:27:13Z</time>
      </trkpt>
      <trkpt lat="42.75367" lon="1.53201">
        <ele>1484.288</ele>
        <time>2021-03-06T09:27:15Z</time>
      </trkpt>
      <trkpt lat="42.75367" lon="1.53201">
        <ele>1484.295</ele>
        <time>2021-03-06T09:27:17Z</time>
      </trkpt>
      <trkpt lat="42.75367" lon="1.53201">
        <ele>1484.306</ele>
        <time>2021-03-06T09:27:19Z</time>
      </trkpt>
      <trkpt lat="42.75367" lon="1.53201">
        <ele>1484.316</ele>
        <time>2021-03-06T09:27:21Z</time>
      </trkpt>
      <trkpt lat="42.75367" lon="1.53201">
        <ele>1484.323</ele>
        <time>2021-03-06T09:27:23Z</time>
      </trkpt>
      <trkpt lat="42.75367" lon="1.53201">
        <ele>1484.331</ele>
        <time>2021-03-06T09:27:25Z</time>
      </trkpt>
      <trkpt lat="42.75367" lon="1.53201">
        <ele>1484.337</ele>
        <time>2021-03-06T09:27:27Z</time>
      </trkpt>
      <trkpt lat="42.75367" lon="1.53201">
        <ele>1484.358</ele>
        <time>2021-03-06T09:27:33Z</time>
      </trkpt>
      <trkpt lat="42.75367" lon="1.53201">
        <ele>1484.362</ele>
        <time>2021-03-06T09:27:35Z</time>
      </trkpt>
      <trkpt lat="42.75367" lon="1.53201">
        <ele>1484.368</ele>
        <time>2021-03-06T09:27:37Z</time>
      </trkpt>
      <trkpt lat="42.75367" lon="1.53201">
        <ele>1484.37</ele>
        <time>2021-03-06T09:27:39Z</time>
      </trkpt>
      <trkpt lat="42.75367" lon="1.53201">
        <ele>1484.427</ele>
        <time>2021-03-06T09:27:41Z</time>
      </trkpt>
      <trkpt lat="42.75367" lon="1.53201">
        <ele>1484.416</ele>
        <time>2021-03-06T09:27:43Z</time>
      </trkpt>
      <trkpt lat="42.75367" lon="1.53201">
        <ele>1484.418</ele>
        <time>2021-03-06T09:27:45Z</time>
      </trkpt>
      <trkpt lat="42.75367" lon="1.53201">
        <ele>1484.419</ele>
        <time>2021-03-06T09:27:47Z</time>
      </trkpt>
      <trkpt lat="42.75367" lon="1.53201">
        <ele>1484.416</ele>
        <time>2021-03-06T09:27:49Z</time>
      </trkpt>
      <trkpt lat="42.75367" lon="1.53201">
        <ele>1484.409</ele>
        <time>2021-03-06T09:27:51Z</time>
      </trkpt>
      <trkpt lat="42.75367" lon="1.53201">
        <ele>1484.412</ele>
        <time>2021-03-06T09:27:53Z</time>
      </trkpt>
      <trkpt lat="42.75367" lon="1.53201">
        <ele>1484.413</ele>
        <time>2021-03-06T09:27:55Z</time>
      </trkpt>
      <trkpt lat="42.75367" lon="1.53201">
        <ele>1484.416</ele>
        <time>2021-03-06T09:27:57Z</time>
      </trkpt>
      <trkpt lat="42.75367" lon="1.53201">
        <ele>1484.424</ele>
        <time>2021-03-06T09:27:59Z</time>
      </trkpt>
      <trkpt lat="42.75367" lon="1.53201">
        <ele>1484.429</ele>
        <time>2021-03-06T09:28:01Z</time>
      </trkpt>
      <trkpt lat="42.75367" lon="1.53201">
        <ele>1484.432</ele>
        <time>2021-03-06T09:28:03Z</time>
      </trkpt>
      <trkpt lat="42.75367" lon="1.53201">
        <ele>1484.511</ele>
        <time>2021-03-06T09:28:05Z</time>
      </trkpt>
      <trkpt lat="42.75366" lon="1.53202">
        <ele>1484.766</ele>
        <time>2021-03-06T09:28:07Z</time>
      </trkpt>
      <trkpt lat="42.75366" lon="1.53202">
        <ele>1485.204</ele>
        <time>2021-03-06T09:28:09Z</time>
      </trkpt>
      <trkpt lat="42.75366" lon="1.53202">
        <ele>1485.392</ele>
        <time>2021-03-06T09:28:11Z</time>
      </trkpt>
      <trkpt lat="42.75366" lon="1.53202">
        <ele>1485.268</ele>
        <time>2021-03-06T09:28:13Z</time>
      </trkpt>
      <trkpt lat="42.75366" lon="1.53201">
        <ele>1485.338</ele>
        <time>2021-03-06T09:28:15Z</time>
      </trkpt>
      <trkpt lat="42.75367" lon="1.53201">
        <ele>1485.344</ele>
        <time>2021-03-06T09:28:17Z</time>
      </trkpt>
      <trkpt lat="42.75367" lon="1.53201">
        <ele>1485.342</ele>
        <time>2021-03-06T09:28:19Z</time>
      </trkpt>
      <trkpt lat="42.75367" lon="1.53201">
        <ele>1485.347</ele>
        <time>2021-03-06T09:28:21Z</time>
      </trkpt>
      <trkpt lat="42.75367" lon="1.53201">
        <ele>1485.257</ele>
        <time>2021-03-06T09:28:23Z</time>
      </trkpt>
      <trkpt lat="42.75367" lon="1.53201">
        <ele>1485.378</ele>
        <time>2021-03-06T09:28:25Z</time>
      </trkpt>
      <trkpt lat="42.75367" lon="1.53201">
        <ele>1485.388</ele>
        <time>2021-03-06T09:28:27Z</time>
      </trkpt>
      <trkpt lat="42.75367" lon="1.53201">
        <ele>1485.386</ele>
        <time>2021-03-06T09:28:29Z</time>
      </trkpt>
      <trkpt lat="42.75367" lon="1.53201">
        <ele>1485.39</ele>
        <time>2021-03-06T09:28:31Z</time>
      </trkpt>
      <trkpt lat="42.75367" lon="1.53201">
        <ele>1485.39</ele>
        <time>2021-03-06T09:28:33Z</time>
      </trkpt>
      <trkpt lat="42.75367" lon="1.53201">
        <ele>1485.389</ele>
        <time>2021-03-06T09:28:35Z</time>
      </trkpt>
      <trkpt lat="42.75367" lon="1.53201">
        <ele>1485.393</ele>
        <time>2021-03-06T09:28:37Z</time>
      </trkpt>
      <trkpt lat="42.75367" lon="1.53201">
        <ele>1485.466</ele>
        <time>2021-03-06T09:28:39Z</time>
      </trkpt>
      <trkpt lat="42.75367" lon="1.53201">
        <ele>1485.542</ele>
        <time>2021-03-06T09:28:41Z</time>
      </trkpt>
      <trkpt lat="42.75367" lon="1.532">
        <ele>1485.642</ele>
        <time>2021-03-06T09:28:43Z</time>
      </trkpt>
      <trkpt lat="42.75367" lon="1.532">
        <ele>1485.601</ele>
        <time>2021-03-06T09:28:45Z</time>
      </trkpt>
      <trkpt lat="42.75367" lon="1.532">
        <ele>1485.881</ele>
        <time>2021-03-06T09:28:47Z</time>
      </trkpt>
      <trkpt lat="42.75367" lon="1.532">
        <ele>1486.159</ele>
        <time>2021-03-06T09:28:49Z</time>
      </trkpt>
      <trkpt lat="42.75368" lon="1.532">
        <ele>1486.509</ele>
        <time>2021-03-06T09:28:51Z</time>
      </trkpt>
      <trkpt lat="42.75368" lon="1.53201">
        <ele>1485.815</ele>
        <time>2021-03-06T09:28:53Z</time>
      </trkpt>
      <trkpt lat="42.75368" lon="1.53203">
        <ele>1484.921</ele>
        <time>2021-03-06T09:28:55Z</time>
      </trkpt>
      <trkpt lat="42.75368" lon="1.53206">
        <ele>1484.828</ele>
        <time>2021-03-06T09:28:57Z</time>
      </trkpt>
      <trkpt lat="42.75368" lon="1.53208">
        <ele>1483.545</ele>
        <time>2021-03-06T09:28:59Z</time>
      </trkpt>
      <trkpt lat="42.75368" lon="1.5321">
        <ele>1482.672</ele>
        <time>2021-03-06T09:29:01Z</time>
      </trkpt>
      <trkpt lat="42.75368" lon="1.53213">
        <ele>1481.834</ele>
        <time>2021-03-06T09:29:03Z</time>
      </trkpt>
      <trkpt lat="42.75367" lon="1.53216">
        <ele>1480.946</ele>
        <time>2021-03-06T09:29:05Z</time>
      </trkpt>
      <trkpt lat="42.75367" lon="1.53218">
        <ele>1480.698</ele>
        <time>2021-03-06T09:29:07Z</time>
      </trkpt>
      <trkpt lat="42.75366" lon="1.5322">
        <ele>1480.036</ele>
        <time>2021-03-06T09:29:09Z</time>
      </trkpt>
      <trkpt lat="42.75364" lon="1.53222">
        <ele>1479.415</ele>
        <time>2021-03-06T09:29:11Z</time>
      </trkpt>
      <trkpt lat="42.75363" lon="1.53223">
        <ele>1479.3</ele>
        <time>2021-03-06T09:29:13Z</time>
      </trkpt>
      <trkpt lat="42.75357" lon="1.53226">
        <ele>1479.5</ele>
        <time>2021-03-06T09:29:20Z</time>
      </trkpt>
      <trkpt lat="42.75353" lon="1.53225">
        <ele>1479.834</ele>
        <time>2021-03-06T09:29:22Z</time>
      </trkpt>
      <trkpt lat="42.75351" lon="1.53224">
        <ele>1479.76</ele>
        <time>2021-03-06T09:29:24Z</time>
      </trkpt>
      <trkpt lat="42.75349" lon="1.53222">
        <ele>1479.951</ele>
        <time>2021-03-06T09:29:26Z</time>
      </trkpt>
      <trkpt lat="42.75347" lon="1.53219">
        <ele>1479.913</ele>
        <time>2021-03-06T09:29:28Z</time>
      </trkpt>
      <trkpt lat="42.75345" lon="1.53218">
        <ele>1479.507</ele>
        <time>2021-03-06T09:29:30Z</time>
      </trkpt>
      <trkpt lat="42.75343" lon="1.53216">
        <ele>1479.892</ele>
        <time>2021-03-06T09:29:32Z</time>
      </trkpt>
      <trkpt lat="42.75341" lon="1.53214">
        <ele>1480.586</ele>
        <time>2021-03-06T09:29:34Z</time>
      </trkpt>
      <trkpt lat="42.75339" lon="1.53213">
        <ele>1481.278</ele>
        <time>2021-03-06T09:29:36Z</time>
      </trkpt>
      <trkpt lat="42.75337" lon="1.53212">
        <ele>1481.502</ele>
        <time>2021-03-06T09:29:38Z</time>
      </trkpt>
      <trkpt lat="42.75335" lon="1.53212">
        <ele>1481.446</ele>
        <time>2021-03-06T09:29:40Z</time>
      </trkpt>
      <trkpt lat="42.75333" lon="1.53213">
        <ele>1481.219</ele>
        <time>2021-03-06T09:29:42Z</time>
      </trkpt>
      <trkpt lat="42.75332" lon="1.53213">
        <ele>1481.356</ele>
        <time>2021-03-06T09:29:44Z</time>
      </trkpt>
      <trkpt lat="42.75332" lon="1.53214">
        <ele>1481.423</ele>
        <time>2021-03-06T09:29:46Z</time>
      </trkpt>
      <trkpt lat="42.7533" lon="1.53215">
        <ele>1482.077</ele>
        <time>2021-03-06T09:29:48Z</time>
      </trkpt>
      <trkpt lat="42.75329" lon="1.53214">
        <ele>1481.674</ele>
        <time>2021-03-06T09:29:50Z</time>
      </trkpt>
      <trkpt lat="42.75327" lon="1.53214">
        <ele>1481.914</ele>
        <time>2021-03-06T09:29:52Z</time>
      </trkpt>
      <trkpt lat="42.75325" lon="1.53214">
        <ele>1481.508</ele>
        <time>2021-03-06T09:29:54Z</time>
      </trkpt>
      <trkpt lat="42.75324" lon="1.53215">
        <ele>1482.662</ele>
        <time>2021-03-06T09:29:56Z</time>
      </trkpt>
      <trkpt lat="42.75318" lon="1.53221">
        <ele>1479.963</ele>
        <time>2021-03-06T09:30:03Z</time>
      </trkpt>
      <trkpt lat="42.75316" lon="1.53223">
        <ele>1479.148</ele>
        <time>2021-03-06T09:30:05Z</time>
      </trkpt>
      <trkpt lat="42.75315" lon="1.53225">
        <ele>1478.571</ele>
        <time>2021-03-06T09:30:07Z</time>
      </trkpt>
      <trkpt lat="42.75314" lon="1.53227">
        <ele>1478.412</ele>
        <time>2021-03-06T09:30:09Z</time>
      </trkpt>
      <trkpt lat="42.75313" lon="1.53229">
        <ele>1477.833</ele>
        <time>2021-03-06T09:30:11Z</time>
      </trkpt>
      <trkpt lat="42.75312" lon="1.53231">
        <ele>1477.998</ele>
        <time>2021-03-06T09:30:13Z</time>
      </trkpt>
      <trkpt lat="42.7531" lon="1.53234">
        <ele>1477.364</ele>
        <time>2021-03-06T09:30:15Z</time>
      </trkpt>
      <trkpt lat="42.75309" lon="1.53237">
        <ele>1477.244</ele>
        <time>2021-03-06T09:30:17Z</time>
      </trkpt>
      <trkpt lat="42.75308" lon="1.5324">
        <ele>1477.735</ele>
        <time>2021-03-06T09:30:19Z</time>
      </trkpt>
      <trkpt lat="42.75307" lon="1.53242">
        <ele>1477.784</ele>
        <time>2021-03-06T09:30:21Z</time>
      </trkpt>
      <trkpt lat="42.75307" lon="1.53245">
        <ele>1478.397</ele>
        <time>2021-03-06T09:30:23Z</time>
      </trkpt>
      <trkpt lat="42.75306" lon="1.53247">
        <ele>1478.587</ele>
        <time>2021-03-06T09:30:25Z</time>
      </trkpt>
      <trkpt lat="42.75305" lon="1.53249">
        <ele>1479.059</ele>
        <time>2021-03-06T09:30:27Z</time>
      </trkpt>
      <trkpt lat="42.75304" lon="1.53252">
        <ele>1479.017</ele>
        <time>2021-03-06T09:30:29Z</time>
      </trkpt>
      <trkpt lat="42.75303" lon="1.53254">
        <ele>1478.796</ele>
        <time>2021-03-06T09:30:31Z</time>
      </trkpt>
      <trkpt lat="42.75302" lon="1.53256">
        <ele>1478.338</ele>
        <time>2021-03-06T09:30:33Z</time>
      </trkpt>
      <trkpt lat="42.75301" lon="1.53259">
        <ele>1477.871</ele>
        <time>2021-03-06T09:30:35Z</time>
      </trkpt>
      <trkpt lat="42.75299" lon="1.53261">
        <ele>1477.69</ele>
        <time>2021-03-06T09:30:37Z</time>
      </trkpt>
      <trkpt lat="42.75298" lon="1.53264">
        <ele>1477.629</ele>
        <time>2021-03-06T09:30:39Z</time>
      </trkpt>
      <trkpt lat="42.75297" lon="1.53267">
        <ele>1477.735</ele>
        <time>2021-03-06T09:30:41Z</time>
      </trkpt>
      <trkpt lat="42.75296" lon="1.5327">
        <ele>1477.775</ele>
        <time>2021-03-06T09:30:43Z</time>
      </trkpt>
      <trkpt lat="42.75295" lon="1.53274">
        <ele>1478.046</ele>
        <time>2021-03-06T09:30:45Z</time>
      </trkpt>
      <trkpt lat="42.75291" lon="1.53285">
        <ele>1478.449</ele>
        <time>2021-03-06T09:30:52Z</time>
      </trkpt>
      <trkpt lat="42.7529" lon="1.53289">
        <ele>1478.341</ele>
        <time>2021-03-06T09:30:54Z</time>
      </trkpt>
      <trkpt lat="42.75289" lon="1.53292">
        <ele>1478.497</ele>
        <time>2021-03-06T09:30:56Z</time>
      </trkpt>
      <trkpt lat="42.75288" lon="1.53295">
        <ele>1478.951</ele>
        <time>2021-03-06T09:30:58Z</time>
      </trkpt>
      <trkpt lat="42.75287" lon="1.53298">
        <ele>1478.888</ele>
        <time>2021-03-06T09:31:00Z</time>
      </trkpt>
      <trkpt lat="42.75286" lon="1.53301">
        <ele>1478.704</ele>
        <time>2021-03-06T09:31:02Z</time>
      </trkpt>
      <trkpt lat="42.75284" lon="1.53304">
        <ele>1479.594</ele>
        <time>2021-03-06T09:31:04Z</time>
      </trkpt>
      <trkpt lat="42.75283" lon="1.53307">
        <ele>1479.129</ele>
        <time>2021-03-06T09:31:06Z</time>
      </trkpt>
      <trkpt lat="42.75281" lon="1.5331">
        <ele>1479.643</ele>
        <time>2021-03-06T09:31:08Z</time>
      </trkpt>
      <trkpt lat="42.7528" lon="1.53312">
        <ele>1478.762</ele>
        <time>2021-03-06T09:31:10Z</time>
      </trkpt>
      <trkpt lat="42.75278" lon="1.53314">
        <ele>1478.701</ele>
        <time>2021-03-06T09:31:12Z</time>
      </trkpt>
      <trkpt lat="42.75276" lon="1.53317">
        <ele>1480.319</ele>
        <time>2021-03-06T09:31:14Z</time>
      </trkpt>
      <trkpt lat="42.75274" lon="1.53318">
        <ele>1479.878</ele>
        <time>2021-03-06T09:31:16Z</time>
      </trkpt>
      <trkpt lat="42.75272" lon="1.5332">
        <ele>1478.738</ele>
        <time>2021-03-06T09:31:18Z</time>
      </trkpt>
      <trkpt lat="42.75267" lon="1.53323">
        <ele>1481.076</ele>
        <time>2021-03-06T09:31:23Z</time>
      </trkpt>
      <trkpt lat="42.75267" lon="1.53323">
        <ele>1480.73</ele>
        <time>2021-03-06T09:31:24Z</time>
      </trkpt>
      <trkpt lat="42.75268" lon="1.53324">
        <ele>1481.187</ele>
        <time>2021-03-06T09:31:30Z</time>
      </trkpt>
      <trkpt lat="42.75268" lon="1.53325">
        <ele>1481.317</ele>
        <time>2021-03-06T09:31:32Z</time>
      </trkpt>
      <trkpt lat="42.75267" lon="1.53328">
        <ele>1480.456</ele>
        <time>2021-03-06T09:31:34Z</time>
      </trkpt>
      <trkpt lat="42.75266" lon="1.53331">
        <ele>1480.714</ele>
        <time>2021-03-06T09:31:36Z</time>
      </trkpt>
      <trkpt lat="42.75265" lon="1.53334">
        <ele>1481.562</ele>
        <time>2021-03-06T09:31:38Z</time>
      </trkpt>
      <trkpt lat="42.75264" lon="1.53337">
        <ele>1481.514</ele>
        <time>2021-03-06T09:31:40Z</time>
      </trkpt>
      <trkpt lat="42.75263" lon="1.5334">
        <ele>1481.176</ele>
        <time>2021-03-06T09:31:42Z</time>
      </trkpt>
      <trkpt lat="42.7526" lon="1.53351">
        <ele>1482.366</ele>
        <time>2021-03-06T09:31:48Z</time>
      </trkpt>
      <trkpt lat="42.75259" lon="1.53354">
        <ele>1482.653</ele>
        <time>2021-03-06T09:31:50Z</time>
      </trkpt>
      <trkpt lat="42.75259" lon="1.53357">
        <ele>1482.368</ele>
        <time>2021-03-06T09:31:52Z</time>
      </trkpt>
      <trkpt lat="42.75258" lon="1.5336">
        <ele>1481.815</ele>
        <time>2021-03-06T09:31:54Z</time>
      </trkpt>
      <trkpt lat="42.75257" lon="1.53363">
        <ele>1482.033</ele>
        <time>2021-03-06T09:31:56Z</time>
      </trkpt>
      <trkpt lat="42.75256" lon="1.53366">
        <ele>1481.9</ele>
        <time>2021-03-06T09:31:58Z</time>
      </trkpt>
      <trkpt lat="42.75255" lon="1.53368">
        <ele>1482.1</ele>
        <time>2021-03-06T09:32:00Z</time>
      </trkpt>
      <trkpt lat="42.75252" lon="1.53376">
        <ele>1482.275</ele>
        <time>2021-03-06T09:32:06Z</time>
      </trkpt>
      <trkpt lat="42.75251" lon="1.53378">
        <ele>1482.59</ele>
        <time>2021-03-06T09:32:08Z</time>
      </trkpt>
      <trkpt lat="42.75249" lon="1.53381">
        <ele>1482.133</ele>
        <time>2021-03-06T09:32:10Z</time>
      </trkpt>
      <trkpt lat="42.75248" lon="1.53384">
        <ele>1482.289</ele>
        <time>2021-03-06T09:32:12Z</time>
      </trkpt>
      <trkpt lat="42.75247" lon="1.53387">
        <ele>1481.472</ele>
        <time>2021-03-06T09:32:14Z</time>
      </trkpt>
      <trkpt lat="42.75246" lon="1.53389">
        <ele>1480.614</ele>
        <time>2021-03-06T09:32:16Z</time>
      </trkpt>
      <trkpt lat="42.75244" lon="1.53393">
        <ele>1479.943</ele>
        <time>2021-03-06T09:32:18Z</time>
      </trkpt>
      <trkpt lat="42.7524" lon="1.53402">
        <ele>1479.301</ele>
        <time>2021-03-06T09:32:24Z</time>
      </trkpt>
      <trkpt lat="42.75238" lon="1.53406">
        <ele>1476.554</ele>
        <time>2021-03-06T09:32:28Z</time>
      </trkpt>
      <trkpt lat="42.75237" lon="1.53411">
        <ele>1477.887</ele>
        <time>2021-03-06T09:32:30Z</time>
      </trkpt>
      <trkpt lat="42.75236" lon="1.53415">
        <ele>1479.206</ele>
        <time>2021-03-06T09:32:32Z</time>
      </trkpt>
      <trkpt lat="42.75234" lon="1.53419">
        <ele>1480.387</ele>
        <time>2021-03-06T09:32:34Z</time>
      </trkpt>
      <trkpt lat="42.75233" lon="1.53422">
        <ele>1480.644</ele>
        <time>2021-03-06T09:32:36Z</time>
      </trkpt>
      <trkpt lat="42.75231" lon="1.53424">
        <ele>1479.662</ele>
        <time>2021-03-06T09:32:38Z</time>
      </trkpt>
      <trkpt lat="42.7523" lon="1.53426">
        <ele>1479.395</ele>
        <time>2021-03-06T09:32:40Z</time>
      </trkpt>
      <trkpt lat="42.75229" lon="1.53431">
        <ele>1481.121</ele>
        <time>2021-03-06T09:32:42Z</time>
      </trkpt>
      <trkpt lat="42.75228" lon="1.53434">
        <ele>1481.222</ele>
        <time>2021-03-06T09:32:44Z</time>
      </trkpt>
      <trkpt lat="42.75226" lon="1.53437">
        <ele>1481.307</ele>
        <time>2021-03-06T09:32:46Z</time>
      </trkpt>
      <trkpt lat="42.75224" lon="1.5344">
        <ele>1481.382</ele>
        <time>2021-03-06T09:32:48Z</time>
      </trkpt>
      <trkpt lat="42.75224" lon="1.53443">
        <ele>1481.004</ele>
        <time>2021-03-06T09:32:50Z</time>
      </trkpt>
      <trkpt lat="42.75221" lon="1.53446">
        <ele>1480.732</ele>
        <time>2021-03-06T09:32:52Z</time>
      </trkpt>
      <trkpt lat="42.75219" lon="1.53448">
        <ele>1480.41</ele>
        <time>2021-03-06T09:32:54Z</time>
      </trkpt>
      <trkpt lat="42.75218" lon="1.53451">
        <ele>1480.85</ele>
        <time>2021-03-06T09:32:56Z</time>
      </trkpt>
      <trkpt lat="42.75216" lon="1.53454">
        <ele>1480.845</ele>
        <time>2021-03-06T09:32:58Z</time>
      </trkpt>
      <trkpt lat="42.75214" lon="1.53457">
        <ele>1480.2</ele>
        <time>2021-03-06T09:33:00Z</time>
      </trkpt>
      <trkpt lat="42.75213" lon="1.53459">
        <ele>1479.798</ele>
        <time>2021-03-06T09:33:02Z</time>
      </trkpt>
      <trkpt lat="42.75211" lon="1.53463">
        <ele>1479.223</ele>
        <time>2021-03-06T09:33:04Z</time>
      </trkpt>
      <trkpt lat="42.7521" lon="1.53465">
        <ele>1478.074</ele>
        <time>2021-03-06T09:33:06Z</time>
      </trkpt>
      <trkpt lat="42.75209" lon="1.53468">
        <ele>1477.235</ele>
        <time>2021-03-06T09:33:08Z</time>
      </trkpt>
      <trkpt lat="42.75207" lon="1.53471">
        <ele>1476.996</ele>
        <time>2021-03-06T09:33:10Z</time>
      </trkpt>
      <trkpt lat="42.75202" lon="1.53481">
        <ele>1473.895</ele>
        <time>2021-03-06T09:33:17Z</time>
      </trkpt>
      <trkpt lat="42.752" lon="1.53484">
        <ele>1473.893</ele>
        <time>2021-03-06T09:33:19Z</time>
      </trkpt>
      <trkpt lat="42.75199" lon="1.53487">
        <ele>1473.476</ele>
        <time>2021-03-06T09:33:21Z</time>
      </trkpt>
      <trkpt lat="42.75197" lon="1.5349">
        <ele>1473.162</ele>
        <time>2021-03-06T09:33:23Z</time>
      </trkpt>
      <trkpt lat="42.75196" lon="1.53493">
        <ele>1472.778</ele>
        <time>2021-03-06T09:33:25Z</time>
      </trkpt>
      <trkpt lat="42.75194" lon="1.53496">
        <ele>1472.409</ele>
        <time>2021-03-06T09:33:27Z</time>
      </trkpt>
      <trkpt lat="42.75193" lon="1.53499">
        <ele>1472.417</ele>
        <time>2021-03-06T09:33:29Z</time>
      </trkpt>
      <trkpt lat="42.75192" lon="1.53502">
        <ele>1471.774</ele>
        <time>2021-03-06T09:33:31Z</time>
      </trkpt>
      <trkpt lat="42.7519" lon="1.53504">
        <ele>1472.558</ele>
        <time>2021-03-06T09:33:33Z</time>
      </trkpt>
      <trkpt lat="42.75189" lon="1.53508">
        <ele>1472.766</ele>
        <time>2021-03-06T09:33:35Z</time>
      </trkpt>
      <trkpt lat="42.75187" lon="1.53511">
        <ele>1473.142</ele>
        <time>2021-03-06T09:33:37Z</time>
      </trkpt>
      <trkpt lat="42.75186" lon="1.53515">
        <ele>1473.955</ele>
        <time>2021-03-06T09:33:39Z</time>
      </trkpt>
      <trkpt lat="42.75184" lon="1.53519">
        <ele>1474.559</ele>
        <time>2021-03-06T09:33:41Z</time>
      </trkpt>
      <trkpt lat="42.75183" lon="1.53522">
        <ele>1474.054</ele>
        <time>2021-03-06T09:33:43Z</time>
      </trkpt>
      <trkpt lat="42.75181" lon="1.53525">
        <ele>1474.405</ele>
        <time>2021-03-06T09:33:45Z</time>
      </trkpt>
      <trkpt lat="42.7518" lon="1.53528">
        <ele>1474.569</ele>
        <time>2021-03-06T09:33:47Z</time>
      </trkpt>
      <trkpt lat="42.75179" lon="1.53531">
        <ele>1475.378</ele>
        <time>2021-03-06T09:33:49Z</time>
      </trkpt>
      <trkpt lat="42.75177" lon="1.53534">
        <ele>1476.014</ele>
        <time>2021-03-06T09:33:51Z</time>
      </trkpt>
      <trkpt lat="42.75176" lon="1.53537">
        <ele>1476.03</ele>
        <time>2021-03-06T09:33:53Z</time>
      </trkpt>
      <trkpt lat="42.75174" lon="1.5354">
        <ele>1476.105</ele>
        <time>2021-03-06T09:33:55Z</time>
      </trkpt>
      <trkpt lat="42.75173" lon="1.53544">
        <ele>1476.174</ele>
        <time>2021-03-06T09:33:57Z</time>
      </trkpt>
      <trkpt lat="42.75171" lon="1.53547">
        <ele>1475.322</ele>
        <time>2021-03-06T09:33:59Z</time>
      </trkpt>
      <trkpt lat="42.7517" lon="1.5355">
        <ele>1474.573</ele>
        <time>2021-03-06T09:34:01Z</time>
      </trkpt>
      <trkpt lat="42.75168" lon="1.53552">
        <ele>1474.771</ele>
        <time>2021-03-06T09:34:03Z</time>
      </trkpt>
      <trkpt lat="42.75165" lon="1.53552">
        <ele>1474.511</ele>
        <time>2021-03-06T09:34:05Z</time>
      </trkpt>
      <trkpt lat="42.75161" lon="1.53556">
        <ele>1474.379</ele>
        <time>2021-03-06T09:34:07Z</time>
      </trkpt>
      <trkpt lat="42.7516" lon="1.53559">
        <ele>1474.333</ele>
        <time>2021-03-06T09:34:09Z</time>
      </trkpt>
      <trkpt lat="42.75159" lon="1.53562">
        <ele>1474.014</ele>
        <time>2021-03-06T09:34:11Z</time>
      </trkpt>
      <trkpt lat="42.75158" lon="1.53565">
        <ele>1473.296</ele>
        <time>2021-03-06T09:34:13Z</time>
      </trkpt>
      <trkpt lat="42.75157" lon="1.53568">
        <ele>1473.383</ele>
        <time>2021-03-06T09:34:15Z</time>
      </trkpt>
      <trkpt lat="42.75156" lon="1.53571">
        <ele>1473.04</ele>
        <time>2021-03-06T09:34:17Z</time>
      </trkpt>
      <trkpt lat="42.75155" lon="1.53574">
        <ele>1473.197</ele>
        <time>2021-03-06T09:34:19Z</time>
      </trkpt>
      <trkpt lat="42.75154" lon="1.53577">
        <ele>1473.051</ele>
        <time>2021-03-06T09:34:21Z</time>
      </trkpt>
      <trkpt lat="42.75153" lon="1.53579">
        <ele>1473.093</ele>
        <time>2021-03-06T09:34:23Z</time>
      </trkpt>
      <trkpt lat="42.75151" lon="1.53582">
        <ele>1473.336</ele>
        <time>2021-03-06T09:34:25Z</time>
      </trkpt>
      <trkpt lat="42.7515" lon="1.53585">
        <ele>1472.572</ele>
        <time>2021-03-06T09:34:27Z</time>
      </trkpt>
      <trkpt lat="42.7515" lon="1.53588">
        <ele>1473.115</ele>
        <time>2021-03-06T09:34:29Z</time>
      </trkpt>
      <trkpt lat="42.75149" lon="1.53591">
        <ele>1473.13</ele>
        <time>2021-03-06T09:34:31Z</time>
      </trkpt>
      <trkpt lat="42.75148" lon="1.53594">
        <ele>1472.759</ele>
        <time>2021-03-06T09:34:33Z</time>
      </trkpt>
      <trkpt lat="42.75147" lon="1.53597">
        <ele>1472.704</ele>
        <time>2021-03-06T09:34:35Z</time>
      </trkpt>
      <trkpt lat="42.75147" lon="1.536">
        <ele>1472.045</ele>
        <time>2021-03-06T09:34:37Z</time>
      </trkpt>
      <trkpt lat="42.75146" lon="1.53604">
        <ele>1472.157</ele>
        <time>2021-03-06T09:34:39Z</time>
      </trkpt>
      <trkpt lat="42.75145" lon="1.53607">
        <ele>1472.09</ele>
        <time>2021-03-06T09:34:41Z</time>
      </trkpt>
      <trkpt lat="42.75142" lon="1.53609">
        <ele>1473.009</ele>
        <time>2021-03-06T09:34:43Z</time>
      </trkpt>
      <trkpt lat="42.75141" lon="1.53611">
        <ele>1471.882</ele>
        <time>2021-03-06T09:34:45Z</time>
      </trkpt>
      <trkpt lat="42.75139" lon="1.53613">
        <ele>1471.063</ele>
        <time>2021-03-06T09:34:47Z</time>
      </trkpt>
      <trkpt lat="42.75138" lon="1.53616">
        <ele>1470.466</ele>
        <time>2021-03-06T09:34:49Z</time>
      </trkpt>
      <trkpt lat="42.75137" lon="1.53619">
        <ele>1470.666</ele>
        <time>2021-03-06T09:34:51Z</time>
      </trkpt>
      <trkpt lat="42.75136" lon="1.53622">
        <ele>1470.939</ele>
        <time>2021-03-06T09:34:53Z</time>
      </trkpt>
      <trkpt lat="42.75135" lon="1.53625">
        <ele>1471.551</ele>
        <time>2021-03-06T09:34:55Z</time>
      </trkpt>
      <trkpt lat="42.75135" lon="1.53628">
        <ele>1470.651</ele>
        <time>2021-03-06T09:34:57Z</time>
      </trkpt>
      <trkpt lat="42.75134" lon="1.5363">
        <ele>1469.307</ele>
        <time>2021-03-06T09:34:59Z</time>
      </trkpt>
      <trkpt lat="42.75134" lon="1.53633">
        <ele>1468.329</ele>
        <time>2021-03-06T09:35:01Z</time>
      </trkpt>
      <trkpt lat="42.75133" lon="1.53636">
        <ele>1468.353</ele>
        <time>2021-03-06T09:35:03Z</time>
      </trkpt>
      <trkpt lat="42.75131" lon="1.53638">
        <ele>1467.439</ele>
        <time>2021-03-06T09:35:05Z</time>
      </trkpt>
      <trkpt lat="42.7513" lon="1.53642">
        <ele>1469.711</ele>
        <time>2021-03-06T09:35:07Z</time>
      </trkpt>
      <trkpt lat="42.75129" lon="1.53645">
        <ele>1469.372</ele>
        <time>2021-03-06T09:35:09Z</time>
      </trkpt>
      <trkpt lat="42.75128" lon="1.53648">
        <ele>1469.928</ele>
        <time>2021-03-06T09:35:11Z</time>
      </trkpt>
      <trkpt lat="42.75127" lon="1.53652">
        <ele>1471.194</ele>
        <time>2021-03-06T09:35:13Z</time>
      </trkpt>
      <trkpt lat="42.75126" lon="1.53655">
        <ele>1470.905</ele>
        <time>2021-03-06T09:35:15Z</time>
      </trkpt>
      <trkpt lat="42.75125" lon="1.53658">
        <ele>1470.745</ele>
        <time>2021-03-06T09:35:17Z</time>
      </trkpt>
      <trkpt lat="42.75123" lon="1.53661">
        <ele>1470.532</ele>
        <time>2021-03-06T09:35:19Z</time>
      </trkpt>
      <trkpt lat="42.75121" lon="1.53664">
        <ele>1470.327</ele>
        <time>2021-03-06T09:35:21Z</time>
      </trkpt>
      <trkpt lat="42.75119" lon="1.53668">
        <ele>1471.23</ele>
        <time>2021-03-06T09:35:23Z</time>
      </trkpt>
      <trkpt lat="42.75118" lon="1.53672">
        <ele>1471.005</ele>
        <time>2021-03-06T09:35:25Z</time>
      </trkpt>
      <trkpt lat="42.75117" lon="1.53675">
        <ele>1470.742</ele>
        <time>2021-03-06T09:35:27Z</time>
      </trkpt>
      <trkpt lat="42.75116" lon="1.53676">
        <ele>1469.869</ele>
        <time>2021-03-06T09:35:28Z</time>
      </trkpt>
      <trkpt lat="42.7511" lon="1.53685">
        <ele>1465.855</ele>
        <time>2021-03-06T09:35:35Z</time>
      </trkpt>
      <trkpt lat="42.75108" lon="1.53687">
        <ele>1464.625</ele>
        <time>2021-03-06T09:35:37Z</time>
      </trkpt>
      <trkpt lat="42.75106" lon="1.53689">
        <ele>1463.861</ele>
        <time>2021-03-06T09:35:39Z</time>
      </trkpt>
      <trkpt lat="42.75105" lon="1.53692">
        <ele>1463.583</ele>
        <time>2021-03-06T09:35:41Z</time>
      </trkpt>
      <trkpt lat="42.75103" lon="1.53695">
        <ele>1463.234</ele>
        <time>2021-03-06T09:35:43Z</time>
      </trkpt>
      <trkpt lat="42.75102" lon="1.53697">
        <ele>1463.047</ele>
        <time>2021-03-06T09:35:45Z</time>
      </trkpt>
      <trkpt lat="42.751" lon="1.53699">
        <ele>1463.366</ele>
        <time>2021-03-06T09:35:47Z</time>
      </trkpt>
      <trkpt lat="42.75099" lon="1.53702">
        <ele>1463.416</ele>
        <time>2021-03-06T09:35:49Z</time>
      </trkpt>
      <trkpt lat="42.75097" lon="1.53705">
        <ele>1462.439</ele>
        <time>2021-03-06T09:35:51Z</time>
      </trkpt>
      <trkpt lat="42.75095" lon="1.53707">
        <ele>1462.341</ele>
        <time>2021-03-06T09:35:53Z</time>
      </trkpt>
      <trkpt lat="42.75094" lon="1.5371">
        <ele>1462.842</ele>
        <time>2021-03-06T09:35:55Z</time>
      </trkpt>
      <trkpt lat="42.75093" lon="1.53714">
        <ele>1462.74</ele>
        <time>2021-03-06T09:35:57Z</time>
      </trkpt>
      <trkpt lat="42.75091" lon="1.53717">
        <ele>1463.172</ele>
        <time>2021-03-06T09:35:59Z</time>
      </trkpt>
      <trkpt lat="42.7509" lon="1.5372">
        <ele>1462.323</ele>
        <time>2021-03-06T09:36:01Z</time>
      </trkpt>
      <trkpt lat="42.75088" lon="1.53723">
        <ele>1462.529</ele>
        <time>2021-03-06T09:36:03Z</time>
      </trkpt>
      <trkpt lat="42.75087" lon="1.53725">
        <ele>1461.246</ele>
        <time>2021-03-06T09:36:05Z</time>
      </trkpt>
      <trkpt lat="42.75085" lon="1.53728">
        <ele>1460.651</ele>
        <time>2021-03-06T09:36:07Z</time>
      </trkpt>
      <trkpt lat="42.75083" lon="1.5373">
        <ele>1461.205</ele>
        <time>2021-03-06T09:36:09Z</time>
      </trkpt>
      <trkpt lat="42.75081" lon="1.53732">
        <ele>1462.02</ele>
        <time>2021-03-06T09:36:11Z</time>
      </trkpt>
      <trkpt lat="42.75079" lon="1.53735">
        <ele>1462.395</ele>
        <time>2021-03-06T09:36:13Z</time>
      </trkpt>
      <trkpt lat="42.75077" lon="1.53737">
        <ele>1462.835</ele>
        <time>2021-03-06T09:36:15Z</time>
      </trkpt>
      <trkpt lat="42.75075" lon="1.53739">
        <ele>1463.351</ele>
        <time>2021-03-06T09:36:17Z</time>
      </trkpt>
      <trkpt lat="42.75073" lon="1.53742">
        <ele>1463.783</ele>
        <time>2021-03-06T09:36:19Z</time>
      </trkpt>
      <trkpt lat="42.75072" lon="1.53745">
        <ele>1465.84</ele>
        <time>2021-03-06T09:36:21Z</time>
      </trkpt>
      <trkpt lat="42.7507" lon="1.53748">
        <ele>1465.846</ele>
        <time>2021-03-06T09:36:23Z</time>
      </trkpt>
      <trkpt lat="42.75067" lon="1.5375">
        <ele>1465.889</ele>
        <time>2021-03-06T09:36:25Z</time>
      </trkpt>
      <trkpt lat="42.75065" lon="1.53752">
        <ele>1465.711</ele>
        <time>2021-03-06T09:36:27Z</time>
      </trkpt>
      <trkpt lat="42.75063" lon="1.53754">
        <ele>1465.229</ele>
        <time>2021-03-06T09:36:29Z</time>
      </trkpt>
      <trkpt lat="42.75061" lon="1.53757">
        <ele>1464.836</ele>
        <time>2021-03-06T09:36:31Z</time>
      </trkpt>
      <trkpt lat="42.75059" lon="1.53759">
        <ele>1465.897</ele>
        <time>2021-03-06T09:36:33Z</time>
      </trkpt>
      <trkpt lat="42.75057" lon="1.53763">
        <ele>1465.506</ele>
        <time>2021-03-06T09:36:35Z</time>
      </trkpt>
      <trkpt lat="42.75055" lon="1.53765">
        <ele>1465.12</ele>
        <time>2021-03-06T09:36:37Z</time>
      </trkpt>
      <trkpt lat="42.75053" lon="1.53768">
        <ele>1464.743</ele>
        <time>2021-03-06T09:36:39Z</time>
      </trkpt>
      <trkpt lat="42.75051" lon="1.5377">
        <ele>1463.928</ele>
        <time>2021-03-06T09:36:41Z</time>
      </trkpt>
      <trkpt lat="42.75048" lon="1.53773">
        <ele>1462.986</ele>
        <time>2021-03-06T09:36:43Z</time>
      </trkpt>
      <trkpt lat="42.75046" lon="1.53776">
        <ele>1462.938</ele>
        <time>2021-03-06T09:36:45Z</time>
      </trkpt>
      <trkpt lat="42.75045" lon="1.53779">
        <ele>1462.96</ele>
        <time>2021-03-06T09:36:47Z</time>
      </trkpt>
      <trkpt lat="42.75043" lon="1.53782">
        <ele>1462.491</ele>
        <time>2021-03-06T09:36:49Z</time>
      </trkpt>
      <trkpt lat="42.75041" lon="1.53785">
        <ele>1461.958</ele>
        <time>2021-03-06T09:36:51Z</time>
      </trkpt>
      <trkpt lat="42.7504" lon="1.53789">
        <ele>1462.494</ele>
        <time>2021-03-06T09:36:53Z</time>
      </trkpt>
      <trkpt lat="42.75039" lon="1.53792">
        <ele>1461.577</ele>
        <time>2021-03-06T09:36:55Z</time>
      </trkpt>
      <trkpt lat="42.75038" lon="1.53796">
        <ele>1459.772</ele>
        <time>2021-03-06T09:36:57Z</time>
      </trkpt>
      <trkpt lat="42.75037" lon="1.53798">
        <ele>1459.369</ele>
        <time>2021-03-06T09:36:59Z</time>
      </trkpt>
      <trkpt lat="42.75036" lon="1.53801">
        <ele>1458.953</ele>
        <time>2021-03-06T09:37:01Z</time>
      </trkpt>
      <trkpt lat="42.75035" lon="1.53804">
        <ele>1458.85</ele>
        <time>2021-03-06T09:37:03Z</time>
      </trkpt>
      <trkpt lat="42.75034" lon="1.53807">
        <ele>1459.155</ele>
        <time>2021-03-06T09:37:05Z</time>
      </trkpt>
      <trkpt lat="42.75033" lon="1.5381">
        <ele>1458.602</ele>
        <time>2021-03-06T09:37:07Z</time>
      </trkpt>
      <trkpt lat="42.75032" lon="1.53813">
        <ele>1458.008</ele>
        <time>2021-03-06T09:37:09Z</time>
      </trkpt>
      <trkpt lat="42.75031" lon="1.53817">
        <ele>1457.419</ele>
        <time>2021-03-06T09:37:11Z</time>
      </trkpt>
      <trkpt lat="42.7503" lon="1.5382">
        <ele>1456.47</ele>
        <time>2021-03-06T09:37:13Z</time>
      </trkpt>
      <trkpt lat="42.75029" lon="1.53823">
        <ele>1455.396</ele>
        <time>2021-03-06T09:37:15Z</time>
      </trkpt>
      <trkpt lat="42.75028" lon="1.53827">
        <ele>1454.674</ele>
        <time>2021-03-06T09:37:17Z</time>
      </trkpt>
      <trkpt lat="42.75026" lon="1.5383">
        <ele>1454.294</ele>
        <time>2021-03-06T09:37:19Z</time>
      </trkpt>
      <trkpt lat="42.75026" lon="1.53834">
        <ele>1453.192</ele>
        <time>2021-03-06T09:37:21Z</time>
      </trkpt>
      <trkpt lat="42.75025" lon="1.53837">
        <ele>1453.344</ele>
        <time>2021-03-06T09:37:23Z</time>
      </trkpt>
      <trkpt lat="42.75025" lon="1.53841">
        <ele>1453.794</ele>
        <time>2021-03-06T09:37:25Z</time>
      </trkpt>
      <trkpt lat="42.75024" lon="1.53844">
        <ele>1453.878</ele>
        <time>2021-03-06T09:37:27Z</time>
      </trkpt>
      <trkpt lat="42.75023" lon="1.53848">
        <ele>1454.357</ele>
        <time>2021-03-06T09:37:29Z</time>
      </trkpt>
      <trkpt lat="42.75022" lon="1.53851">
        <ele>1454.111</ele>
        <time>2021-03-06T09:37:31Z</time>
      </trkpt>
      <trkpt lat="42.75022" lon="1.53855">
        <ele>1453.82</ele>
        <time>2021-03-06T09:37:33Z</time>
      </trkpt>
      <trkpt lat="42.7502" lon="1.53858">
        <ele>1453.611</ele>
        <time>2021-03-06T09:37:35Z</time>
      </trkpt>
      <trkpt lat="42.75019" lon="1.53862">
        <ele>1452.58</ele>
        <time>2021-03-06T09:37:37Z</time>
      </trkpt>
      <trkpt lat="42.75018" lon="1.53865">
        <ele>1453.022</ele>
        <time>2021-03-06T09:37:39Z</time>
      </trkpt>
      <trkpt lat="42.75017" lon="1.53867">
        <ele>1452.356</ele>
        <time>2021-03-06T09:37:41Z</time>
      </trkpt>
      <trkpt lat="42.75016" lon="1.5387">
        <ele>1451.582</ele>
        <time>2021-03-06T09:37:43Z</time>
      </trkpt>
      <trkpt lat="42.75015" lon="1.53873">
        <ele>1451.766</ele>
        <time>2021-03-06T09:37:45Z</time>
      </trkpt>
      <trkpt lat="42.75014" lon="1.53877">
        <ele>1452.155</ele>
        <time>2021-03-06T09:37:47Z</time>
      </trkpt>
      <trkpt lat="42.75013" lon="1.5388">
        <ele>1453.13</ele>
        <time>2021-03-06T09:37:49Z</time>
      </trkpt>
      <trkpt lat="42.75012" lon="1.53883">
        <ele>1453.5</ele>
        <time>2021-03-06T09:37:51Z</time>
      </trkpt>
      <trkpt lat="42.75011" lon="1.53887">
        <ele>1454.185</ele>
        <time>2021-03-06T09:37:53Z</time>
      </trkpt>
      <trkpt lat="42.7501" lon="1.53891">
        <ele>1454.951</ele>
        <time>2021-03-06T09:37:55Z</time>
      </trkpt>
      <trkpt lat="42.75009" lon="1.53895">
        <ele>1455.609</ele>
        <time>2021-03-06T09:37:57Z</time>
      </trkpt>
      <trkpt lat="42.75008" lon="1.53898">
        <ele>1455.481</ele>
        <time>2021-03-06T09:37:59Z</time>
      </trkpt>
      <trkpt lat="42.75007" lon="1.53901">
        <ele>1455.273</ele>
        <time>2021-03-06T09:38:01Z</time>
      </trkpt>
      <trkpt lat="42.75006" lon="1.53904">
        <ele>1454.742</ele>
        <time>2021-03-06T09:38:03Z</time>
      </trkpt>
      <trkpt lat="42.75004" lon="1.53906">
        <ele>1454.111</ele>
        <time>2021-03-06T09:38:05Z</time>
      </trkpt>
      <trkpt lat="42.75003" lon="1.53909">
        <ele>1453.933</ele>
        <time>2021-03-06T09:38:07Z</time>
      </trkpt>
      <trkpt lat="42.75001" lon="1.53912">
        <ele>1453.494</ele>
        <time>2021-03-06T09:38:09Z</time>
      </trkpt>
      <trkpt lat="42.75" lon="1.53915">
        <ele>1453.656</ele>
        <time>2021-03-06T09:38:11Z</time>
      </trkpt>
      <trkpt lat="42.74998" lon="1.53918">
        <ele>1453.777</ele>
        <time>2021-03-06T09:38:13Z</time>
      </trkpt>
      <trkpt lat="42.74996" lon="1.5392">
        <ele>1453.14</ele>
        <time>2021-03-06T09:38:15Z</time>
      </trkpt>
      <trkpt lat="42.74995" lon="1.53923">
        <ele>1452.276</ele>
        <time>2021-03-06T09:38:17Z</time>
      </trkpt>
      <trkpt lat="42.74993" lon="1.53926">
        <ele>1451.721</ele>
        <time>2021-03-06T09:38:19Z</time>
      </trkpt>
      <trkpt lat="42.74991" lon="1.53929">
        <ele>1451.305</ele>
        <time>2021-03-06T09:38:21Z</time>
      </trkpt>
      <trkpt lat="42.74989" lon="1.5393">
        <ele>1451.303</ele>
        <time>2021-03-06T09:38:23Z</time>
      </trkpt>
      <trkpt lat="42.74987" lon="1.53933">
        <ele>1451.525</ele>
        <time>2021-03-06T09:38:25Z</time>
      </trkpt>
      <trkpt lat="42.74985" lon="1.53935">
        <ele>1451.777</ele>
        <time>2021-03-06T09:38:27Z</time>
      </trkpt>
      <trkpt lat="42.74983" lon="1.53936">
        <ele>1451.32</ele>
        <time>2021-03-06T09:38:29Z</time>
      </trkpt>
      <trkpt lat="42.74981" lon="1.53938">
        <ele>1450.487</ele>
        <time>2021-03-06T09:38:31Z</time>
      </trkpt>
      <trkpt lat="42.74977" lon="1.53941">
        <ele>1451.05</ele>
        <time>2021-03-06T09:38:34Z</time>
      </trkpt>
      <trkpt lat="42.74975" lon="1.53942">
        <ele>1450.402</ele>
        <time>2021-03-06T09:38:36Z</time>
      </trkpt>
      <trkpt lat="42.74973" lon="1.53944">
        <ele>1450.852</ele>
        <time>2021-03-06T09:38:38Z</time>
      </trkpt>
      <trkpt lat="42.74971" lon="1.53945">
        <ele>1449.676</ele>
        <time>2021-03-06T09:38:40Z</time>
      </trkpt>
      <trkpt lat="42.74969" lon="1.53946">
        <ele>1447.856</ele>
        <time>2021-03-06T09:38:42Z</time>
      </trkpt>
      <trkpt lat="42.74966" lon="1.53947">
        <ele>1444.502</ele>
        <time>2021-03-06T09:38:44Z</time>
      </trkpt>
      <trkpt lat="42.74964" lon="1.53949">
        <ele>1444.056</ele>
        <time>2021-03-06T09:38:46Z</time>
      </trkpt>
      <trkpt lat="42.74962" lon="1.53952">
        <ele>1444.241</ele>
        <time>2021-03-06T09:38:48Z</time>
      </trkpt>
      <trkpt lat="42.7496" lon="1.53956">
        <ele>1444.49</ele>
        <time>2021-03-06T09:38:50Z</time>
      </trkpt>
      <trkpt lat="42.74959" lon="1.5396">
        <ele>1444.337</ele>
        <time>2021-03-06T09:38:52Z</time>
      </trkpt>
      <trkpt lat="42.74957" lon="1.53963">
        <ele>1443.948</ele>
        <time>2021-03-06T09:38:54Z</time>
      </trkpt>
      <trkpt lat="42.74955" lon="1.53965">
        <ele>1444.194</ele>
        <time>2021-03-06T09:38:56Z</time>
      </trkpt>
      <trkpt lat="42.74954" lon="1.53968">
        <ele>1443.905</ele>
        <time>2021-03-06T09:38:58Z</time>
      </trkpt>
      <trkpt lat="42.74953" lon="1.5397">
        <ele>1443.684</ele>
        <time>2021-03-06T09:39:00Z</time>
      </trkpt>
      <trkpt lat="42.74951" lon="1.53972">
        <ele>1443.484</ele>
        <time>2021-03-06T09:39:02Z</time>
      </trkpt>
      <trkpt lat="42.7495" lon="1.53976">
        <ele>1444.067</ele>
        <time>2021-03-06T09:39:04Z</time>
      </trkpt>
      <trkpt lat="42.74948" lon="1.53979">
        <ele>1444.175</ele>
        <time>2021-03-06T09:39:06Z</time>
      </trkpt>
      <trkpt lat="42.74946" lon="1.53982">
        <ele>1444.337</ele>
        <time>2021-03-06T09:39:08Z</time>
      </trkpt>
      <trkpt lat="42.74944" lon="1.53984">
        <ele>1443.807</ele>
        <time>2021-03-06T09:39:10Z</time>
      </trkpt>
      <trkpt lat="42.74943" lon="1.53987">
        <ele>1443.415</ele>
        <time>2021-03-06T09:39:12Z</time>
      </trkpt>
      <trkpt lat="42.74941" lon="1.53989">
        <ele>1444.195</ele>
        <time>2021-03-06T09:39:14Z</time>
      </trkpt>
      <trkpt lat="42.74939" lon="1.53992">
        <ele>1443.895</ele>
        <time>2021-03-06T09:39:16Z</time>
      </trkpt>
      <trkpt lat="42.74937" lon="1.53995">
        <ele>1444.439</ele>
        <time>2021-03-06T09:39:18Z</time>
      </trkpt>
      <trkpt lat="42.74936" lon="1.53998">
        <ele>1444.528</ele>
        <time>2021-03-06T09:39:20Z</time>
      </trkpt>
      <trkpt lat="42.74934" lon="1.54001">
        <ele>1444.232</ele>
        <time>2021-03-06T09:39:22Z</time>
      </trkpt>
      <trkpt lat="42.74932" lon="1.54004">
        <ele>1444.878</ele>
        <time>2021-03-06T09:39:24Z</time>
      </trkpt>
      <trkpt lat="42.7493" lon="1.54007">
        <ele>1446.321</ele>
        <time>2021-03-06T09:39:26Z</time>
      </trkpt>
      <trkpt lat="42.74928" lon="1.54009">
        <ele>1445.629</ele>
        <time>2021-03-06T09:39:28Z</time>
      </trkpt>
      <trkpt lat="42.74926" lon="1.54011">
        <ele>1443.11</ele>
        <time>2021-03-06T09:39:30Z</time>
      </trkpt>
      <trkpt lat="42.74925" lon="1.54014">
        <ele>1443.663</ele>
        <time>2021-03-06T09:39:32Z</time>
      </trkpt>
      <trkpt lat="42.74923" lon="1.54017">
        <ele>1445.94</ele>
        <time>2021-03-06T09:39:34Z</time>
      </trkpt>
      <trkpt lat="42.74922" lon="1.5402">
        <ele>1446.361</ele>
        <time>2021-03-06T09:39:36Z</time>
      </trkpt>
      <trkpt lat="42.7492" lon="1.54023">
        <ele>1446.469</ele>
        <time>2021-03-06T09:39:38Z</time>
      </trkpt>
      <trkpt lat="42.74919" lon="1.54026">
        <ele>1446.01</ele>
        <time>2021-03-06T09:39:40Z</time>
      </trkpt>
      <trkpt lat="42.74918" lon="1.54029">
        <ele>1446.904</ele>
        <time>2021-03-06T09:39:42Z</time>
      </trkpt>
      <trkpt lat="42.74916" lon="1.54031">
        <ele>1445.895</ele>
        <time>2021-03-06T09:39:44Z</time>
      </trkpt>
      <trkpt lat="42.74914" lon="1.54034">
        <ele>1446.033</ele>
        <time>2021-03-06T09:39:46Z</time>
      </trkpt>
      <trkpt lat="42.74913" lon="1.54037">
        <ele>1445.285</ele>
        <time>2021-03-06T09:39:48Z</time>
      </trkpt>
      <trkpt lat="42.74911" lon="1.5404">
        <ele>1446.048</ele>
        <time>2021-03-06T09:39:50Z</time>
      </trkpt>
      <trkpt lat="42.7491" lon="1.54043">
        <ele>1446.505</ele>
        <time>2021-03-06T09:39:52Z</time>
      </trkpt>
      <trkpt lat="42.74908" lon="1.54047">
        <ele>1446.093</ele>
        <time>2021-03-06T09:39:54Z</time>
      </trkpt>
      <trkpt lat="42.74907" lon="1.54051">
        <ele>1446.236</ele>
        <time>2021-03-06T09:39:56Z</time>
      </trkpt>
      <trkpt lat="42.74906" lon="1.54054">
        <ele>1446.711</ele>
        <time>2021-03-06T09:39:58Z</time>
      </trkpt>
      <trkpt lat="42.74904" lon="1.54057">
        <ele>1445.955</ele>
        <time>2021-03-06T09:40:00Z</time>
      </trkpt>
      <trkpt lat="42.74903" lon="1.54062">
        <ele>1446.698</ele>
        <time>2021-03-06T09:40:02Z</time>
      </trkpt>
      <trkpt lat="42.74902" lon="1.54066">
        <ele>1447.317</ele>
        <time>2021-03-06T09:40:04Z</time>
      </trkpt>
      <trkpt lat="42.74901" lon="1.54071">
        <ele>1447.751</ele>
        <time>2021-03-06T09:40:06Z</time>
      </trkpt>
      <trkpt lat="42.749" lon="1.54075">
        <ele>1448.895</ele>
        <time>2021-03-06T09:40:08Z</time>
      </trkpt>
      <trkpt lat="42.74899" lon="1.54079">
        <ele>1448.833</ele>
        <time>2021-03-06T09:40:10Z</time>
      </trkpt>
      <trkpt lat="42.74899" lon="1.54082">
        <ele>1449.195</ele>
        <time>2021-03-06T09:40:12Z</time>
      </trkpt>
      <trkpt lat="42.74898" lon="1.54084">
        <ele>1446.612</ele>
        <time>2021-03-06T09:40:14Z</time>
      </trkpt>
      <trkpt lat="42.74896" lon="1.54085">
        <ele>1445.651</ele>
        <time>2021-03-06T09:40:16Z</time>
      </trkpt>
      <trkpt lat="42.74895" lon="1.54087">
        <ele>1444.24</ele>
        <time>2021-03-06T09:40:18Z</time>
      </trkpt>
      <trkpt lat="42.74893" lon="1.5409">
        <ele>1443.462</ele>
        <time>2021-03-06T09:40:20Z</time>
      </trkpt>
      <trkpt lat="42.74892" lon="1.54092">
        <ele>1443.655</ele>
        <time>2021-03-06T09:40:22Z</time>
      </trkpt>
      <trkpt lat="42.74891" lon="1.54095">
        <ele>1443.725</ele>
        <time>2021-03-06T09:40:24Z</time>
      </trkpt>
      <trkpt lat="42.74889" lon="1.54097">
        <ele>1443.618</ele>
        <time>2021-03-06T09:40:26Z</time>
      </trkpt>
      <trkpt lat="42.74888" lon="1.541">
        <ele>1443.578</ele>
        <time>2021-03-06T09:40:28Z</time>
      </trkpt>
      <trkpt lat="42.74886" lon="1.54102">
        <ele>1442.71</ele>
        <time>2021-03-06T09:40:30Z</time>
      </trkpt>
      <trkpt lat="42.74885" lon="1.54103">
        <ele>1442.389</ele>
        <time>2021-03-06T09:40:32Z</time>
      </trkpt>
      <trkpt lat="42.74884" lon="1.54105">
        <ele>1442.403</ele>
        <time>2021-03-06T09:40:34Z</time>
      </trkpt>
      <trkpt lat="42.74882" lon="1.54107">
        <ele>1442.64</ele>
        <time>2021-03-06T09:40:36Z</time>
      </trkpt>
      <trkpt lat="42.7488" lon="1.5411">
        <ele>1443.151</ele>
        <time>2021-03-06T09:40:38Z</time>
      </trkpt>
      <trkpt lat="42.74879" lon="1.54113">
        <ele>1443.737</ele>
        <time>2021-03-06T09:40:40Z</time>
      </trkpt>
      <trkpt lat="42.74877" lon="1.54115">
        <ele>1444.366</ele>
        <time>2021-03-06T09:40:42Z</time>
      </trkpt>
      <trkpt lat="42.74876" lon="1.54117">
        <ele>1445.34</ele>
        <time>2021-03-06T09:40:44Z</time>
      </trkpt>
      <trkpt lat="42.74875" lon="1.54118">
        <ele>1445.049</ele>
        <time>2021-03-06T09:40:46Z</time>
      </trkpt>
      <trkpt lat="42.74873" lon="1.54118">
        <ele>1445.838</ele>
        <time>2021-03-06T09:40:48Z</time>
      </trkpt>
      <trkpt lat="42.74872" lon="1.54118">
        <ele>1445.662</ele>
        <time>2021-03-06T09:40:50Z</time>
      </trkpt>
      <trkpt lat="42.7487" lon="1.5412">
        <ele>1446.539</ele>
        <time>2021-03-06T09:40:52Z</time>
      </trkpt>
      <trkpt lat="42.74868" lon="1.54121">
        <ele>1447.296</ele>
        <time>2021-03-06T09:40:54Z</time>
      </trkpt>
      <trkpt lat="42.74868" lon="1.54121">
        <ele>1444.86</ele>
        <time>2021-03-06T09:40:56Z</time>
      </trkpt>
      <trkpt lat="42.74867" lon="1.54122">
        <ele>1445.446</ele>
        <time>2021-03-06T09:40:58Z</time>
      </trkpt>
      <trkpt lat="42.74867" lon="1.54123">
        <ele>1445.339</ele>
        <time>2021-03-06T09:41:00Z</time>
      </trkpt>
      <trkpt lat="42.74867" lon="1.54123">
        <ele>1445.052</ele>
        <time>2021-03-06T09:41:02Z</time>
      </trkpt>
      <trkpt lat="42.74867" lon="1.54123">
        <ele>1444.756</ele>
        <time>2021-03-06T09:41:04Z</time>
      </trkpt>
      <trkpt lat="42.74867" lon="1.54124">
        <ele>1444.678</ele>
        <time>2021-03-06T09:41:06Z</time>
      </trkpt>
      <trkpt lat="42.74867" lon="1.54124">
        <ele>1444.265</ele>
        <time>2021-03-06T09:41:08Z</time>
      </trkpt>
      <trkpt lat="42.74868" lon="1.54125">
        <ele>1444.503</ele>
        <time>2021-03-06T09:41:10Z</time>
      </trkpt>
      <trkpt lat="42.74869" lon="1.54125">
        <ele>1443.884</ele>
        <time>2021-03-06T09:41:12Z</time>
      </trkpt>
      <trkpt lat="42.7487" lon="1.54125">
        <ele>1443.733</ele>
        <time>2021-03-06T09:41:14Z</time>
      </trkpt>
      <trkpt lat="42.74871" lon="1.54126">
        <ele>1444.146</ele>
        <time>2021-03-06T09:41:16Z</time>
      </trkpt>
      <trkpt lat="42.74873" lon="1.54126">
        <ele>1444.28</ele>
        <time>2021-03-06T09:41:18Z</time>
      </trkpt>
      <trkpt lat="42.74874" lon="1.54126">
        <ele>1445.716</ele>
        <time>2021-03-06T09:41:20Z</time>
      </trkpt>
      <trkpt lat="42.74875" lon="1.54127">
        <ele>1446.312</ele>
        <time>2021-03-06T09:41:22Z</time>
      </trkpt>
      <trkpt lat="42.74875" lon="1.54127">
        <ele>1446.334</ele>
        <time>2021-03-06T09:41:24Z</time>
      </trkpt>
      <trkpt lat="42.74875" lon="1.54127">
        <ele>1446.346</ele>
        <time>2021-03-06T09:41:26Z</time>
      </trkpt>
      <trkpt lat="42.74875" lon="1.54127">
        <ele>1446.349</ele>
        <time>2021-03-06T09:41:28Z</time>
      </trkpt>
      <trkpt lat="42.74875" lon="1.54127">
        <ele>1446.348</ele>
        <time>2021-03-06T09:41:30Z</time>
      </trkpt>
      <trkpt lat="42.74875" lon="1.54127">
        <ele>1446.349</ele>
        <time>2021-03-06T09:41:32Z</time>
      </trkpt>
      <trkpt lat="42.74875" lon="1.54127">
        <ele>1446.35</ele>
        <time>2021-03-06T09:41:34Z</time>
      </trkpt>
      <trkpt lat="42.74875" lon="1.54127">
        <ele>1446.358</ele>
        <time>2021-03-06T09:41:36Z</time>
      </trkpt>
      <trkpt lat="42.74875" lon="1.54127">
        <ele>1446.256</ele>
        <time>2021-03-06T09:41:38Z</time>
      </trkpt>
      <trkpt lat="42.74875" lon="1.54127">
        <ele>1446.252</ele>
        <time>2021-03-06T09:41:40Z</time>
      </trkpt>
      <trkpt lat="42.74875" lon="1.54127">
        <ele>1446.255</ele>
        <time>2021-03-06T09:41:42Z</time>
      </trkpt>
      <trkpt lat="42.74875" lon="1.54127">
        <ele>1446.251</ele>
        <time>2021-03-06T09:41:44Z</time>
      </trkpt>
      <trkpt lat="42.74875" lon="1.54127">
        <ele>1446.261</ele>
        <time>2021-03-06T09:41:46Z</time>
      </trkpt>
      <trkpt lat="42.74875" lon="1.54127">
        <ele>1445.923</ele>
        <time>2021-03-06T09:41:48Z</time>
      </trkpt>
      <trkpt lat="42.74875" lon="1.54128">
        <ele>1445.381</ele>
        <time>2021-03-06T09:41:50Z</time>
      </trkpt>
      <trkpt lat="42.74875" lon="1.54128">
        <ele>1445.503</ele>
        <time>2021-03-06T09:41:52Z</time>
      </trkpt>
      <trkpt lat="42.74875" lon="1.54128">
        <ele>1445.516</ele>
        <time>2021-03-06T09:41:54Z</time>
      </trkpt>
      <trkpt lat="42.74875" lon="1.54128">
        <ele>1445.022</ele>
        <time>2021-03-06T09:41:56Z</time>
      </trkpt>
      <trkpt lat="42.74875" lon="1.54128">
        <ele>1445.01</ele>
        <time>2021-03-06T09:41:58Z</time>
      </trkpt>
      <trkpt lat="42.74875" lon="1.54128">
        <ele>1445.007</ele>
        <time>2021-03-06T09:42:00Z</time>
      </trkpt>
      <trkpt lat="42.74875" lon="1.54128">
        <ele>1445.012</ele>
        <time>2021-03-06T09:42:02Z</time>
      </trkpt>
      <trkpt lat="42.74875" lon="1.54128">
        <ele>1445.025</ele>
        <time>2021-03-06T09:42:04Z</time>
      </trkpt>
      <trkpt lat="42.74875" lon="1.54128">
        <ele>1445.026</ele>
        <time>2021-03-06T09:42:06Z</time>
      </trkpt>
      <trkpt lat="42.74875" lon="1.54128">
        <ele>1444.708</ele>
        <time>2021-03-06T09:42:08Z</time>
      </trkpt>
      <trkpt lat="42.74873" lon="1.54128">
        <ele>1444.877</ele>
        <time>2021-03-06T09:42:10Z</time>
      </trkpt>
      <trkpt lat="42.74871" lon="1.54128">
        <ele>1444.76</ele>
        <time>2021-03-06T09:42:12Z</time>
      </trkpt>
      <trkpt lat="42.74869" lon="1.54128">
        <ele>1444.394</ele>
        <time>2021-03-06T09:42:14Z</time>
      </trkpt>
      <trkpt lat="42.74867" lon="1.54129">
        <ele>1444.749</ele>
        <time>2021-03-06T09:42:16Z</time>
      </trkpt>
      <trkpt lat="42.74865" lon="1.54129">
        <ele>1445.326</ele>
        <time>2021-03-06T09:42:18Z</time>
      </trkpt>
      <trkpt lat="42.74863" lon="1.5413">
        <ele>1444.946</ele>
        <time>2021-03-06T09:42:20Z</time>
      </trkpt>
      <trkpt lat="42.74861" lon="1.5413">
        <ele>1446.303</ele>
        <time>2021-03-06T09:42:22Z</time>
      </trkpt>
      <trkpt lat="42.74858" lon="1.54132">
        <ele>1447.222</ele>
        <time>2021-03-06T09:42:24Z</time>
      </trkpt>
      <trkpt lat="42.74856" lon="1.54133">
        <ele>1447.674</ele>
        <time>2021-03-06T09:42:26Z</time>
      </trkpt>
      <trkpt lat="42.74854" lon="1.54135">
        <ele>1447.889</ele>
        <time>2021-03-06T09:42:28Z</time>
      </trkpt>
      <trkpt lat="42.74852" lon="1.54136">
        <ele>1447.831</ele>
        <time>2021-03-06T09:42:30Z</time>
      </trkpt>
      <trkpt lat="42.7485" lon="1.54136">
        <ele>1447.753</ele>
        <time>2021-03-06T09:42:32Z</time>
      </trkpt>
      <trkpt lat="42.74848" lon="1.54137">
        <ele>1447.818</ele>
        <time>2021-03-06T09:42:34Z</time>
      </trkpt>
      <trkpt lat="42.74846" lon="1.54138">
        <ele>1448.682</ele>
        <time>2021-03-06T09:42:36Z</time>
      </trkpt>
      <trkpt lat="42.74843" lon="1.54138">
        <ele>1447.652</ele>
        <time>2021-03-06T09:42:38Z</time>
      </trkpt>
      <trkpt lat="42.74841" lon="1.54138">
        <ele>1447.264</ele>
        <time>2021-03-06T09:42:40Z</time>
      </trkpt>
      <trkpt lat="42.74838" lon="1.54139">
        <ele>1446.668</ele>
        <time>2021-03-06T09:42:42Z</time>
      </trkpt>
      <trkpt lat="42.74835" lon="1.54138">
        <ele>1446.14</ele>
        <time>2021-03-06T09:42:44Z</time>
      </trkpt>
      <trkpt lat="42.74832" lon="1.54137">
        <ele>1445.891</ele>
        <time>2021-03-06T09:42:46Z</time>
      </trkpt>
      <trkpt lat="42.7483" lon="1.54137">
        <ele>1445.333</ele>
        <time>2021-03-06T09:42:48Z</time>
      </trkpt>
      <trkpt lat="42.74828" lon="1.54137">
        <ele>1444.585</ele>
        <time>2021-03-06T09:42:50Z</time>
      </trkpt>
      <trkpt lat="42.74825" lon="1.54137">
        <ele>1443.739</ele>
        <time>2021-03-06T09:42:52Z</time>
      </trkpt>
      <trkpt lat="42.74823" lon="1.54137">
        <ele>1442.777</ele>
        <time>2021-03-06T09:42:54Z</time>
      </trkpt>
      <trkpt lat="42.74821" lon="1.54138">
        <ele>1443.846</ele>
        <time>2021-03-06T09:42:56Z</time>
      </trkpt>
      <trkpt lat="42.74819" lon="1.5414">
        <ele>1444.02</ele>
        <time>2021-03-06T09:42:58Z</time>
      </trkpt>
      <trkpt lat="42.74818" lon="1.54143">
        <ele>1444.19</ele>
        <time>2021-03-06T09:43:00Z</time>
      </trkpt>
      <trkpt lat="42.74817" lon="1.54145">
        <ele>1442.895</ele>
        <time>2021-03-06T09:43:02Z</time>
      </trkpt>
      <trkpt lat="42.74816" lon="1.54147">
        <ele>1443.95</ele>
        <time>2021-03-06T09:43:04Z</time>
      </trkpt>
      <trkpt lat="42.74816" lon="1.54151">
        <ele>1443.29</ele>
        <time>2021-03-06T09:43:06Z</time>
      </trkpt>
      <trkpt lat="42.74816" lon="1.54154">
        <ele>1442.517</ele>
        <time>2021-03-06T09:43:08Z</time>
      </trkpt>
      <trkpt lat="42.74815" lon="1.54157">
        <ele>1440.848</ele>
        <time>2021-03-06T09:43:10Z</time>
      </trkpt>
      <trkpt lat="42.74815" lon="1.5416">
        <ele>1440.181</ele>
        <time>2021-03-06T09:43:12Z</time>
      </trkpt>
      <trkpt lat="42.74815" lon="1.54163">
        <ele>1438.583</ele>
        <time>2021-03-06T09:43:14Z</time>
      </trkpt>
      <trkpt lat="42.74815" lon="1.54166">
        <ele>1438.239</ele>
        <time>2021-03-06T09:43:16Z</time>
      </trkpt>
      <trkpt lat="42.74814" lon="1.54169">
        <ele>1437.37</ele>
        <time>2021-03-06T09:43:18Z</time>
      </trkpt>
      <trkpt lat="42.74815" lon="1.54172">
        <ele>1437.718</ele>
        <time>2021-03-06T09:43:20Z</time>
      </trkpt>
      <trkpt lat="42.74815" lon="1.54175">
        <ele>1438.235</ele>
        <time>2021-03-06T09:43:22Z</time>
      </trkpt>
      <trkpt lat="42.74815" lon="1.54178">
        <ele>1438.599</ele>
        <time>2021-03-06T09:43:24Z</time>
      </trkpt>
      <trkpt lat="42.74816" lon="1.5418">
        <ele>1438.523</ele>
        <time>2021-03-06T09:43:26Z</time>
      </trkpt>
      <trkpt lat="42.74816" lon="1.54183">
        <ele>1437.872</ele>
        <time>2021-03-06T09:43:28Z</time>
      </trkpt>
      <trkpt lat="42.74816" lon="1.54185">
        <ele>1437.064</ele>
        <time>2021-03-06T09:43:30Z</time>
      </trkpt>
      <trkpt lat="42.74816" lon="1.54187">
        <ele>1436.708</ele>
        <time>2021-03-06T09:43:32Z</time>
      </trkpt>
      <trkpt lat="42.74817" lon="1.54191">
        <ele>1437.271</ele>
        <time>2021-03-06T09:43:34Z</time>
      </trkpt>
      <trkpt lat="42.74817" lon="1.54194">
        <ele>1436.761</ele>
        <time>2021-03-06T09:43:36Z</time>
      </trkpt>
      <trkpt lat="42.74818" lon="1.54197">
        <ele>1437.747</ele>
        <time>2021-03-06T09:43:38Z</time>
      </trkpt>
      <trkpt lat="42.74818" lon="1.542">
        <ele>1437.706</ele>
        <time>2021-03-06T09:43:40Z</time>
      </trkpt>
      <trkpt lat="42.74818" lon="1.54201">
        <ele>1438.182</ele>
        <time>2021-03-06T09:43:41Z</time>
      </trkpt>
      <trkpt lat="42.74817" lon="1.54205">
        <ele>1436.304</ele>
        <time>2021-03-06T09:43:44Z</time>
      </trkpt>
      <trkpt lat="42.74817" lon="1.54208">
        <ele>1436.32</ele>
        <time>2021-03-06T09:43:46Z</time>
      </trkpt>
      <trkpt lat="42.74815" lon="1.5421">
        <ele>1435.58</ele>
        <time>2021-03-06T09:43:48Z</time>
      </trkpt>
      <trkpt lat="42.74813" lon="1.54212">
        <ele>1434.492</ele>
        <time>2021-03-06T09:43:50Z</time>
      </trkpt>
      <trkpt lat="42.74812" lon="1.54213">
        <ele>1433.411</ele>
        <time>2021-03-06T09:43:52Z</time>
      </trkpt>
      <trkpt lat="42.7481" lon="1.54214">
        <ele>1432.109</ele>
        <time>2021-03-06T09:43:54Z</time>
      </trkpt>
      <trkpt lat="42.74809" lon="1.54216">
        <ele>1431.971</ele>
        <time>2021-03-06T09:43:56Z</time>
      </trkpt>
      <trkpt lat="42.74807" lon="1.54218">
        <ele>1431.988</ele>
        <time>2021-03-06T09:43:58Z</time>
      </trkpt>
      <trkpt lat="42.74805" lon="1.54218">
        <ele>1431.184</ele>
        <time>2021-03-06T09:44:00Z</time>
      </trkpt>
      <trkpt lat="42.74804" lon="1.5422">
        <ele>1431.415</ele>
        <time>2021-03-06T09:44:02Z</time>
      </trkpt>
      <trkpt lat="42.74802" lon="1.54221">
        <ele>1431.854</ele>
        <time>2021-03-06T09:44:04Z</time>
      </trkpt>
      <trkpt lat="42.748" lon="1.54222">
        <ele>1432.621</ele>
        <time>2021-03-06T09:44:06Z</time>
      </trkpt>
      <trkpt lat="42.74798" lon="1.54224">
        <ele>1432.3</ele>
        <time>2021-03-06T09:44:08Z</time>
      </trkpt>
      <trkpt lat="42.74796" lon="1.54225">
        <ele>1433.355</ele>
        <time>2021-03-06T09:44:10Z</time>
      </trkpt>
      <trkpt lat="42.74794" lon="1.54226">
        <ele>1432.79</ele>
        <time>2021-03-06T09:44:12Z</time>
      </trkpt>
      <trkpt lat="42.74792" lon="1.54227">
        <ele>1432.791</ele>
        <time>2021-03-06T09:44:14Z</time>
      </trkpt>
      <trkpt lat="42.7479" lon="1.54228">
        <ele>1431.526</ele>
        <time>2021-03-06T09:44:16Z</time>
      </trkpt>
      <trkpt lat="42.74788" lon="1.54229">
        <ele>1432.996</ele>
        <time>2021-03-06T09:44:18Z</time>
      </trkpt>
      <trkpt lat="42.74786" lon="1.5423">
        <ele>1433.734</ele>
        <time>2021-03-06T09:44:20Z</time>
      </trkpt>
      <trkpt lat="42.74784" lon="1.54231">
        <ele>1434.4</ele>
        <time>2021-03-06T09:44:22Z</time>
      </trkpt>
      <trkpt lat="42.74782" lon="1.54233">
        <ele>1435.23</ele>
        <time>2021-03-06T09:44:24Z</time>
      </trkpt>
      <trkpt lat="42.74781" lon="1.54235">
        <ele>1435.512</ele>
        <time>2021-03-06T09:44:26Z</time>
      </trkpt>
      <trkpt lat="42.74779" lon="1.54236">
        <ele>1435.378</ele>
        <time>2021-03-06T09:44:28Z</time>
      </trkpt>
      <trkpt lat="42.74776" lon="1.54237">
        <ele>1435.128</ele>
        <time>2021-03-06T09:44:30Z</time>
      </trkpt>
      <trkpt lat="42.74774" lon="1.54238">
        <ele>1436.082</ele>
        <time>2021-03-06T09:44:32Z</time>
      </trkpt>
      <trkpt lat="42.74772" lon="1.5424">
        <ele>1435.917</ele>
        <time>2021-03-06T09:44:34Z</time>
      </trkpt>
      <trkpt lat="42.7477" lon="1.54242">
        <ele>1437.066</ele>
        <time>2021-03-06T09:44:36Z</time>
      </trkpt>
      <trkpt lat="42.74768" lon="1.54243">
        <ele>1436.76</ele>
        <time>2021-03-06T09:44:38Z</time>
      </trkpt>
      <trkpt lat="42.74766" lon="1.54244">
        <ele>1436.879</ele>
        <time>2021-03-06T09:44:40Z</time>
      </trkpt>
      <trkpt lat="42.74764" lon="1.54246">
        <ele>1436.468</ele>
        <time>2021-03-06T09:44:42Z</time>
      </trkpt>
      <trkpt lat="42.74761" lon="1.54248">
        <ele>1436.101</ele>
        <time>2021-03-06T09:44:44Z</time>
      </trkpt>
      <trkpt lat="42.74759" lon="1.5425">
        <ele>1436.33</ele>
        <time>2021-03-06T09:44:46Z</time>
      </trkpt>
      <trkpt lat="42.74758" lon="1.54253">
        <ele>1436.745</ele>
        <time>2021-03-06T09:44:48Z</time>
      </trkpt>
      <trkpt lat="42.74756" lon="1.54256">
        <ele>1436.562</ele>
        <time>2021-03-06T09:44:50Z</time>
      </trkpt>
      <trkpt lat="42.74755" lon="1.54259">
        <ele>1436.297</ele>
        <time>2021-03-06T09:44:52Z</time>
      </trkpt>
      <trkpt lat="42.74754" lon="1.54262">
        <ele>1436.967</ele>
        <time>2021-03-06T09:44:54Z</time>
      </trkpt>
      <trkpt lat="42.74753" lon="1.54265">
        <ele>1437.504</ele>
        <time>2021-03-06T09:44:56Z</time>
      </trkpt>
      <trkpt lat="42.74752" lon="1.54268">
        <ele>1437.704</ele>
        <time>2021-03-06T09:44:58Z</time>
      </trkpt>
      <trkpt lat="42.74751" lon="1.54271">
        <ele>1436.374</ele>
        <time>2021-03-06T09:45:00Z</time>
      </trkpt>
      <trkpt lat="42.7475" lon="1.54274">
        <ele>1437.038</ele>
        <time>2021-03-06T09:45:02Z</time>
      </trkpt>
      <trkpt lat="42.74749" lon="1.54277">
        <ele>1437.021</ele>
        <time>2021-03-06T09:45:04Z</time>
      </trkpt>
      <trkpt lat="42.74748" lon="1.54279">
        <ele>1437.125</ele>
        <time>2021-03-06T09:45:06Z</time>
      </trkpt>
      <trkpt lat="42.74748" lon="1.54282">
        <ele>1436.88</ele>
        <time>2021-03-06T09:45:08Z</time>
      </trkpt>
      <trkpt lat="42.74747" lon="1.54285">
        <ele>1436.478</ele>
        <time>2021-03-06T09:45:10Z</time>
      </trkpt>
      <trkpt lat="42.74746" lon="1.54288">
        <ele>1436.282</ele>
        <time>2021-03-06T09:45:12Z</time>
      </trkpt>
      <trkpt lat="42.74745" lon="1.54291">
        <ele>1435.72</ele>
        <time>2021-03-06T09:45:14Z</time>
      </trkpt>
      <trkpt lat="42.74744" lon="1.54293">
        <ele>1433.597</ele>
        <time>2021-03-06T09:45:16Z</time>
      </trkpt>
      <trkpt lat="42.74743" lon="1.54297">
        <ele>1433.61</ele>
        <time>2021-03-06T09:45:18Z</time>
      </trkpt>
      <trkpt lat="42.74742" lon="1.54301">
        <ele>1433.853</ele>
        <time>2021-03-06T09:45:20Z</time>
      </trkpt>
      <trkpt lat="42.74741" lon="1.54304">
        <ele>1433.92</ele>
        <time>2021-03-06T09:45:22Z</time>
      </trkpt>
      <trkpt lat="42.7474" lon="1.54306">
        <ele>1434.114</ele>
        <time>2021-03-06T09:45:24Z</time>
      </trkpt>
      <trkpt lat="42.74738" lon="1.54308">
        <ele>1433.974</ele>
        <time>2021-03-06T09:45:26Z</time>
      </trkpt>
      <trkpt lat="42.74737" lon="1.5431">
        <ele>1434.896</ele>
        <time>2021-03-06T09:45:28Z</time>
      </trkpt>
      <trkpt lat="42.74736" lon="1.54312">
        <ele>1434.849</ele>
        <time>2021-03-06T09:45:30Z</time>
      </trkpt>
      <trkpt lat="42.74734" lon="1.54315">
        <ele>1435.401</ele>
        <time>2021-03-06T09:45:32Z</time>
      </trkpt>
      <trkpt lat="42.74732" lon="1.54316">
        <ele>1433.601</ele>
        <time>2021-03-06T09:45:34Z</time>
      </trkpt>
      <trkpt lat="42.74731" lon="1.54318">
        <ele>1431.741</ele>
        <time>2021-03-06T09:45:36Z</time>
      </trkpt>
      <trkpt lat="42.7473" lon="1.5432">
        <ele>1431.544</ele>
        <time>2021-03-06T09:45:38Z</time>
      </trkpt>
      <trkpt lat="42.74729" lon="1.54323">
        <ele>1431.566</ele>
        <time>2021-03-06T09:45:40Z</time>
      </trkpt>
      <trkpt lat="42.74729" lon="1.54325">
        <ele>1430.544</ele>
        <time>2021-03-06T09:45:42Z</time>
      </trkpt>
      <trkpt lat="42.74728" lon="1.54329">
        <ele>1429.408</ele>
        <time>2021-03-06T09:45:44Z</time>
      </trkpt>
      <trkpt lat="42.74728" lon="1.54332">
        <ele>1430.215</ele>
        <time>2021-03-06T09:45:46Z</time>
      </trkpt>
      <trkpt lat="42.74727" lon="1.54335">
        <ele>1430.4</ele>
        <time>2021-03-06T09:45:48Z</time>
      </trkpt>
      <trkpt lat="42.74727" lon="1.54338">
        <ele>1430.771</ele>
        <time>2021-03-06T09:45:50Z</time>
      </trkpt>
      <trkpt lat="42.74727" lon="1.54339">
        <ele>1430.862</ele>
        <time>2021-03-06T09:45:52Z</time>
      </trkpt>
      <trkpt lat="42.74726" lon="1.54341">
        <ele>1433.59</ele>
        <time>2021-03-06T09:45:54Z</time>
      </trkpt>
      <trkpt lat="42.74725" lon="1.54343">
        <ele>1432.523</ele>
        <time>2021-03-06T09:45:56Z</time>
      </trkpt>
      <trkpt lat="42.74725" lon="1.54345">
        <ele>1431.748</ele>
        <time>2021-03-06T09:45:58Z</time>
      </trkpt>
      <trkpt lat="42.74724" lon="1.54346">
        <ele>1431.125</ele>
        <time>2021-03-06T09:46:00Z</time>
      </trkpt>
      <trkpt lat="42.74724" lon="1.54349">
        <ele>1430.917</ele>
        <time>2021-03-06T09:46:02Z</time>
      </trkpt>
      <trkpt lat="42.74724" lon="1.54351">
        <ele>1431.791</ele>
        <time>2021-03-06T09:46:04Z</time>
      </trkpt>
      <trkpt lat="42.74722" lon="1.54354">
        <ele>1430.439</ele>
        <time>2021-03-06T09:46:06Z</time>
      </trkpt>
      <trkpt lat="42.74723" lon="1.54357">
        <ele>1433.453</ele>
        <time>2021-03-06T09:46:08Z</time>
      </trkpt>
      <trkpt lat="42.74725" lon="1.5436">
        <ele>1433.19</ele>
        <time>2021-03-06T09:46:10Z</time>
      </trkpt>
      <trkpt lat="42.74726" lon="1.54363">
        <ele>1433.711</ele>
        <time>2021-03-06T09:46:12Z</time>
      </trkpt>
      <trkpt lat="42.74726" lon="1.54366">
        <ele>1434.845</ele>
        <time>2021-03-06T09:46:14Z</time>
      </trkpt>
      <trkpt lat="42.74727" lon="1.54369">
        <ele>1434.761</ele>
        <time>2021-03-06T09:46:16Z</time>
      </trkpt>
      <trkpt lat="42.74727" lon="1.54372">
        <ele>1435.549</ele>
        <time>2021-03-06T09:46:18Z</time>
      </trkpt>
      <trkpt lat="42.74728" lon="1.54375">
        <ele>1435.304</ele>
        <time>2021-03-06T09:46:20Z</time>
      </trkpt>
      <trkpt lat="42.74729" lon="1.54377">
        <ele>1435.877</ele>
        <time>2021-03-06T09:46:22Z</time>
      </trkpt>
      <trkpt lat="42.7473" lon="1.5438">
        <ele>1435.321</ele>
        <time>2021-03-06T09:46:24Z</time>
      </trkpt>
      <trkpt lat="42.74731" lon="1.54382">
        <ele>1435.021</ele>
        <time>2021-03-06T09:46:26Z</time>
      </trkpt>
      <trkpt lat="42.74731" lon="1.54385">
        <ele>1435.703</ele>
        <time>2021-03-06T09:46:28Z</time>
      </trkpt>
      <trkpt lat="42.74732" lon="1.54388">
        <ele>1434.757</ele>
        <time>2021-03-06T09:46:30Z</time>
      </trkpt>
      <trkpt lat="42.74732" lon="1.54391">
        <ele>1436.27</ele>
        <time>2021-03-06T09:46:32Z</time>
      </trkpt>
      <trkpt lat="42.74732" lon="1.54393">
        <ele>1436.631</ele>
        <time>2021-03-06T09:46:34Z</time>
      </trkpt>
      <trkpt lat="42.74732" lon="1.54394">
        <ele>1437.155</ele>
        <time>2021-03-06T09:46:36Z</time>
      </trkpt>
      <trkpt lat="42.74732" lon="1.54396">
        <ele>1436.781</ele>
        <time>2021-03-06T09:46:38Z</time>
      </trkpt>
      <trkpt lat="42.74732" lon="1.54397">
        <ele>1436.764</ele>
        <time>2021-03-06T09:46:40Z</time>
      </trkpt>
      <trkpt lat="42.74732" lon="1.54397">
        <ele>1436.908</ele>
        <time>2021-03-06T09:46:42Z</time>
      </trkpt>
      <trkpt lat="42.74732" lon="1.54397">
        <ele>1436.913</ele>
        <time>2021-03-06T09:46:44Z</time>
      </trkpt>
      <trkpt lat="42.74732" lon="1.54397">
        <ele>1436.929</ele>
        <time>2021-03-06T09:46:46Z</time>
      </trkpt>
      <trkpt lat="42.74732" lon="1.54397">
        <ele>1436.949</ele>
        <time>2021-03-06T09:46:48Z</time>
      </trkpt>
      <trkpt lat="42.74732" lon="1.54397">
        <ele>1436.948</ele>
        <time>2021-03-06T09:46:50Z</time>
      </trkpt>
      <trkpt lat="42.74732" lon="1.54397">
        <ele>1436.934</ele>
        <time>2021-03-06T09:46:52Z</time>
      </trkpt>
      <trkpt lat="42.74732" lon="1.54398">
        <ele>1438.218</ele>
        <time>2021-03-06T09:46:54Z</time>
      </trkpt>
      <trkpt lat="42.74732" lon="1.54399">
        <ele>1439.375</ele>
        <time>2021-03-06T09:46:56Z</time>
      </trkpt>
      <trkpt lat="42.74732" lon="1.54399">
        <ele>1439.37</ele>
        <time>2021-03-06T09:46:58Z</time>
      </trkpt>
      <trkpt lat="42.74732" lon="1.54399">
        <ele>1439.349</ele>
        <time>2021-03-06T09:47:00Z</time>
      </trkpt>
      <trkpt lat="42.74732" lon="1.54399">
        <ele>1439.356</ele>
        <time>2021-03-06T09:47:02Z</time>
      </trkpt>
      <trkpt lat="42.74732" lon="1.54399">
        <ele>1439.364</ele>
        <time>2021-03-06T09:47:04Z</time>
      </trkpt>
      <trkpt lat="42.74732" lon="1.54399">
        <ele>1439.362</ele>
        <time>2021-03-06T09:47:06Z</time>
      </trkpt>
      <trkpt lat="42.74732" lon="1.54399">
        <ele>1439.343</ele>
        <time>2021-03-06T09:47:08Z</time>
      </trkpt>
      <trkpt lat="42.74732" lon="1.54399">
        <ele>1439.336</ele>
        <time>2021-03-06T09:47:10Z</time>
      </trkpt>
      <trkpt lat="42.74732" lon="1.54399">
        <ele>1439.331</ele>
        <time>2021-03-06T09:47:12Z</time>
      </trkpt>
      <trkpt lat="42.74732" lon="1.54399">
        <ele>1440.423</ele>
        <time>2021-03-06T09:47:14Z</time>
      </trkpt>
      <trkpt lat="42.74732" lon="1.54399">
        <ele>1439.646</ele>
        <time>2021-03-06T09:47:16Z</time>
      </trkpt>
      <trkpt lat="42.74732" lon="1.54398">
        <ele>1439.693</ele>
        <time>2021-03-06T09:47:18Z</time>
      </trkpt>
      <trkpt lat="42.74732" lon="1.54398">
        <ele>1439.693</ele>
        <time>2021-03-06T09:47:20Z</time>
      </trkpt>
      <trkpt lat="42.74732" lon="1.54398">
        <ele>1439.706</ele>
        <time>2021-03-06T09:47:22Z</time>
      </trkpt>
      <trkpt lat="42.74732" lon="1.54398">
        <ele>1439.717</ele>
        <time>2021-03-06T09:47:24Z</time>
      </trkpt>
      <trkpt lat="42.74732" lon="1.54398">
        <ele>1439.717</ele>
        <time>2021-03-06T09:47:26Z</time>
      </trkpt>
      <trkpt lat="42.74732" lon="1.54398">
        <ele>1439.72</ele>
        <time>2021-03-06T09:47:28Z</time>
      </trkpt>
      <trkpt lat="42.74732" lon="1.54398">
        <ele>1439.711</ele>
        <time>2021-03-06T09:47:30Z</time>
      </trkpt>
      <trkpt lat="42.74732" lon="1.54398">
        <ele>1439.629</ele>
        <time>2021-03-06T09:47:32Z</time>
      </trkpt>
      <trkpt lat="42.74732" lon="1.54398">
        <ele>1439.642</ele>
        <time>2021-03-06T09:47:34Z</time>
      </trkpt>
      <trkpt lat="42.74732" lon="1.54398">
        <ele>1439.639</ele>
        <time>2021-03-06T09:47:36Z</time>
      </trkpt>
      <trkpt lat="42.74732" lon="1.54398">
        <ele>1439.641</ele>
        <time>2021-03-06T09:47:38Z</time>
      </trkpt>
      <trkpt lat="42.74732" lon="1.54398">
        <ele>1439.636</ele>
        <time>2021-03-06T09:47:40Z</time>
      </trkpt>
      <trkpt lat="42.74732" lon="1.54398">
        <ele>1439.622</ele>
        <time>2021-03-06T09:47:42Z</time>
      </trkpt>
      <trkpt lat="42.74732" lon="1.54398">
        <ele>1439.598</ele>
        <time>2021-03-06T09:47:44Z</time>
      </trkpt>
      <trkpt lat="42.74732" lon="1.54398">
        <ele>1439.577</ele>
        <time>2021-03-06T09:47:46Z</time>
      </trkpt>
      <trkpt lat="42.74732" lon="1.54398">
        <ele>1439.579</ele>
        <time>2021-03-06T09:47:48Z</time>
      </trkpt>
      <trkpt lat="42.74732" lon="1.54398">
        <ele>1439.572</ele>
        <time>2021-03-06T09:47:50Z</time>
      </trkpt>
      <trkpt lat="42.74732" lon="1.54398">
        <ele>1439.563</ele>
        <time>2021-03-06T09:47:52Z</time>
      </trkpt>
      <trkpt lat="42.74732" lon="1.54398">
        <ele>1439.552</ele>
        <time>2021-03-06T09:47:54Z</time>
      </trkpt>
      <trkpt lat="42.74732" lon="1.54398">
        <ele>1439.553</ele>
        <time>2021-03-06T09:47:56Z</time>
      </trkpt>
      <trkpt lat="42.74732" lon="1.54398">
        <ele>1439.553</ele>
        <time>2021-03-06T09:47:58Z</time>
      </trkpt>
      <trkpt lat="42.74732" lon="1.54398">
        <ele>1439.538</ele>
        <time>2021-03-06T09:48:00Z</time>
      </trkpt>
      <trkpt lat="42.74732" lon="1.54398">
        <ele>1439.529</ele>
        <time>2021-03-06T09:48:02Z</time>
      </trkpt>
      <trkpt lat="42.74732" lon="1.54398">
        <ele>1439.505</ele>
        <time>2021-03-06T09:48:04Z</time>
      </trkpt>
      <trkpt lat="42.74732" lon="1.54398">
        <ele>1439.5</ele>
        <time>2021-03-06T09:48:06Z</time>
      </trkpt>
      <trkpt lat="42.74732" lon="1.54398">
        <ele>1439.496</ele>
        <time>2021-03-06T09:48:08Z</time>
      </trkpt>
      <trkpt lat="42.74732" lon="1.54398">
        <ele>1439.493</ele>
        <time>2021-03-06T09:48:10Z</time>
      </trkpt>
      <trkpt lat="42.74732" lon="1.54398">
        <ele>1439.483</ele>
        <time>2021-03-06T09:48:12Z</time>
      </trkpt>
      <trkpt lat="42.74732" lon="1.54398">
        <ele>1439.656</ele>
        <time>2021-03-06T09:48:14Z</time>
      </trkpt>
      <trkpt lat="42.74732" lon="1.54398">
        <ele>1439.554</ele>
        <time>2021-03-06T09:48:16Z</time>
      </trkpt>
      <trkpt lat="42.74732" lon="1.54398">
        <ele>1439.541</ele>
        <time>2021-03-06T09:48:18Z</time>
      </trkpt>
      <trkpt lat="42.74733" lon="1.54398">
        <ele>1439.757</ele>
        <time>2021-03-06T09:48:20Z</time>
      </trkpt>
      <trkpt lat="42.74733" lon="1.54399">
        <ele>1440.298</ele>
        <time>2021-03-06T09:48:22Z</time>
      </trkpt>
      <trkpt lat="42.74733" lon="1.544">
        <ele>1439.688</ele>
        <time>2021-03-06T09:48:24Z</time>
      </trkpt>
      <trkpt lat="42.74734" lon="1.54401">
        <ele>1439.304</ele>
        <time>2021-03-06T09:48:26Z</time>
      </trkpt>
      <trkpt lat="42.74734" lon="1.54403">
        <ele>1438.681</ele>
        <time>2021-03-06T09:48:28Z</time>
      </trkpt>
      <trkpt lat="42.74735" lon="1.54404">
        <ele>1439.167</ele>
        <time>2021-03-06T09:48:30Z</time>
      </trkpt>
      <trkpt lat="42.74737" lon="1.54406">
        <ele>1440.655</ele>
        <time>2021-03-06T09:48:32Z</time>
      </trkpt>
      <trkpt lat="42.74737" lon="1.5441">
        <ele>1441.85</ele>
        <time>2021-03-06T09:48:34Z</time>
      </trkpt>
      <trkpt lat="42.74737" lon="1.54412">
        <ele>1442.186</ele>
        <time>2021-03-06T09:48:36Z</time>
      </trkpt>
      <trkpt lat="42.74738" lon="1.54415">
        <ele>1442.196</ele>
        <time>2021-03-06T09:48:38Z</time>
      </trkpt>
      <trkpt lat="42.74738" lon="1.54419">
        <ele>1441.839</ele>
        <time>2021-03-06T09:48:40Z</time>
      </trkpt>
      <trkpt lat="42.74739" lon="1.54421">
        <ele>1441.989</ele>
        <time>2021-03-06T09:48:42Z</time>
      </trkpt>
      <trkpt lat="42.7474" lon="1.54423">
        <ele>1441.963</ele>
        <time>2021-03-06T09:48:44Z</time>
      </trkpt>
      <trkpt lat="42.74741" lon="1.54426">
        <ele>1441.96</ele>
        <time>2021-03-06T09:48:46Z</time>
      </trkpt>
      <trkpt lat="42.74742" lon="1.54429">
        <ele>1441.172</ele>
        <time>2021-03-06T09:48:48Z</time>
      </trkpt>
      <trkpt lat="42.74743" lon="1.54431">
        <ele>1439.324</ele>
        <time>2021-03-06T09:48:50Z</time>
      </trkpt>
      <trkpt lat="42.74744" lon="1.54434">
        <ele>1438.665</ele>
        <time>2021-03-06T09:48:52Z</time>
      </trkpt>
      <trkpt lat="42.74744" lon="1.54437">
        <ele>1439.472</ele>
        <time>2021-03-06T09:48:54Z</time>
      </trkpt>
      <trkpt lat="42.74743" lon="1.5444">
        <ele>1437.609</ele>
        <time>2021-03-06T09:48:56Z</time>
      </trkpt>
      <trkpt lat="42.74743" lon="1.54444">
        <ele>1437.762</ele>
        <time>2021-03-06T09:48:58Z</time>
      </trkpt>
      <trkpt lat="42.74743" lon="1.54447">
        <ele>1438.331</ele>
        <time>2021-03-06T09:49:00Z</time>
      </trkpt>
      <trkpt lat="42.74744" lon="1.54449">
        <ele>1439.465</ele>
        <time>2021-03-06T09:49:02Z</time>
      </trkpt>
      <trkpt lat="42.74745" lon="1.54453">
        <ele>1439.752</ele>
        <time>2021-03-06T09:49:04Z</time>
      </trkpt>
      <trkpt lat="42.74745" lon="1.54457">
        <ele>1438.165</ele>
        <time>2021-03-06T09:49:06Z</time>
      </trkpt>
      <trkpt lat="42.74745" lon="1.54461">
        <ele>1436.59</ele>
        <time>2021-03-06T09:49:08Z</time>
      </trkpt>
      <trkpt lat="42.74745" lon="1.54464">
        <ele>1435.819</ele>
        <time>2021-03-06T09:49:10Z</time>
      </trkpt>
      <trkpt lat="42.74745" lon="1.54466">
        <ele>1435.539</ele>
        <time>2021-03-06T09:49:11Z</time>
      </trkpt>
      <trkpt lat="42.74745" lon="1.54469">
        <ele>1435.603</ele>
        <time>2021-03-06T09:49:14Z</time>
      </trkpt>
      <trkpt lat="42.74746" lon="1.54473">
        <ele>1436.91</ele>
        <time>2021-03-06T09:49:16Z</time>
      </trkpt>
      <trkpt lat="42.74747" lon="1.54477">
        <ele>1437.13</ele>
        <time>2021-03-06T09:49:18Z</time>
      </trkpt>
      <trkpt lat="42.74747" lon="1.54481">
        <ele>1437.744</ele>
        <time>2021-03-06T09:49:20Z</time>
      </trkpt>
      <trkpt lat="42.74747" lon="1.54484">
        <ele>1438.913</ele>
        <time>2021-03-06T09:49:22Z</time>
      </trkpt>
      <trkpt lat="42.74747" lon="1.54488">
        <ele>1439.99</ele>
        <time>2021-03-06T09:49:24Z</time>
      </trkpt>
      <trkpt lat="42.74747" lon="1.54491">
        <ele>1441.724</ele>
        <time>2021-03-06T09:49:26Z</time>
      </trkpt>
      <trkpt lat="42.74747" lon="1.54494">
        <ele>1442.486</ele>
        <time>2021-03-06T09:49:28Z</time>
      </trkpt>
      <trkpt lat="42.74748" lon="1.54497">
        <ele>1442.057</ele>
        <time>2021-03-06T09:49:30Z</time>
      </trkpt>
      <trkpt lat="42.74748" lon="1.545">
        <ele>1443.142</ele>
        <time>2021-03-06T09:49:32Z</time>
      </trkpt>
      <trkpt lat="42.74749" lon="1.54503">
        <ele>1442.075</ele>
        <time>2021-03-06T09:49:34Z</time>
      </trkpt>
      <trkpt lat="42.74749" lon="1.54506">
        <ele>1441.664</ele>
        <time>2021-03-06T09:49:36Z</time>
      </trkpt>
      <trkpt lat="42.7475" lon="1.54509">
        <ele>1441.391</ele>
        <time>2021-03-06T09:49:38Z</time>
      </trkpt>
      <trkpt lat="42.7475" lon="1.54512">
        <ele>1440.643</ele>
        <time>2021-03-06T09:49:40Z</time>
      </trkpt>
      <trkpt lat="42.7475" lon="1.54514">
        <ele>1440.573</ele>
        <time>2021-03-06T09:49:42Z</time>
      </trkpt>
      <trkpt lat="42.74751" lon="1.54517">
        <ele>1440.028</ele>
        <time>2021-03-06T09:49:44Z</time>
      </trkpt>
      <trkpt lat="42.74751" lon="1.5452">
        <ele>1439.829</ele>
        <time>2021-03-06T09:49:46Z</time>
      </trkpt>
      <trkpt lat="42.74752" lon="1.54523">
        <ele>1438.868</ele>
        <time>2021-03-06T09:49:48Z</time>
      </trkpt>
      <trkpt lat="42.74752" lon="1.54528">
        <ele>1438.072</ele>
        <time>2021-03-06T09:49:50Z</time>
      </trkpt>
      <trkpt lat="42.74751" lon="1.54531">
        <ele>1435.985</ele>
        <time>2021-03-06T09:49:52Z</time>
      </trkpt>
      <trkpt lat="42.74751" lon="1.54535">
        <ele>1436.291</ele>
        <time>2021-03-06T09:49:54Z</time>
      </trkpt>
      <trkpt lat="42.74752" lon="1.54538">
        <ele>1435.971</ele>
        <time>2021-03-06T09:49:56Z</time>
      </trkpt>
      <trkpt lat="42.74751" lon="1.54541">
        <ele>1434.489</ele>
        <time>2021-03-06T09:49:58Z</time>
      </trkpt>
      <trkpt lat="42.74752" lon="1.54543">
        <ele>1433.739</ele>
        <time>2021-03-06T09:50:00Z</time>
      </trkpt>
      <trkpt lat="42.74752" lon="1.54546">
        <ele>1432.694</ele>
        <time>2021-03-06T09:50:02Z</time>
      </trkpt>
      <trkpt lat="42.74753" lon="1.54549">
        <ele>1431.151</ele>
        <time>2021-03-06T09:50:04Z</time>
      </trkpt>
      <trkpt lat="42.74753" lon="1.54551">
        <ele>1430.884</ele>
        <time>2021-03-06T09:50:06Z</time>
      </trkpt>
      <trkpt lat="42.74753" lon="1.54554">
        <ele>1430.967</ele>
        <time>2021-03-06T09:50:08Z</time>
      </trkpt>
      <trkpt lat="42.74754" lon="1.54558">
        <ele>1431.407</ele>
        <time>2021-03-06T09:50:10Z</time>
      </trkpt>
      <trkpt lat="42.74754" lon="1.54563">
        <ele>1428.483</ele>
        <time>2021-03-06T09:50:12Z</time>
      </trkpt>
      <trkpt lat="42.74754" lon="1.54566">
        <ele>1425.352</ele>
        <time>2021-03-06T09:50:14Z</time>
      </trkpt>
      <trkpt lat="42.74754" lon="1.54569">
        <ele>1425.592</ele>
        <time>2021-03-06T09:50:16Z</time>
      </trkpt>
      <trkpt lat="42.74754" lon="1.54572">
        <ele>1426.002</ele>
        <time>2021-03-06T09:50:18Z</time>
      </trkpt>
      <trkpt lat="42.74755" lon="1.54575">
        <ele>1426.131</ele>
        <time>2021-03-06T09:50:20Z</time>
      </trkpt>
      <trkpt lat="42.74755" lon="1.54579">
        <ele>1424.818</ele>
        <time>2021-03-06T09:50:22Z</time>
      </trkpt>
      <trkpt lat="42.74756" lon="1.54582">
        <ele>1423.447</ele>
        <time>2021-03-06T09:50:24Z</time>
      </trkpt>
      <trkpt lat="42.74756" lon="1.54585">
        <ele>1424.087</ele>
        <time>2021-03-06T09:50:26Z</time>
      </trkpt>
      <trkpt lat="42.74757" lon="1.54589">
        <ele>1423.334</ele>
        <time>2021-03-06T09:50:28Z</time>
      </trkpt>
      <trkpt lat="42.74757" lon="1.54593">
        <ele>1422.682</ele>
        <time>2021-03-06T09:50:30Z</time>
      </trkpt>
      <trkpt lat="42.74757" lon="1.54597">
        <ele>1424.004</ele>
        <time>2021-03-06T09:50:32Z</time>
      </trkpt>
      <trkpt lat="42.74758" lon="1.546">
        <ele>1424.518</ele>
        <time>2021-03-06T09:50:34Z</time>
      </trkpt>
      <trkpt lat="42.74759" lon="1.54602">
        <ele>1425.115</ele>
        <time>2021-03-06T09:50:36Z</time>
      </trkpt>
      <trkpt lat="42.74759" lon="1.54607">
        <ele>1425.874</ele>
        <time>2021-03-06T09:50:38Z</time>
      </trkpt>
      <trkpt lat="42.7476" lon="1.5461">
        <ele>1425.771</ele>
        <time>2021-03-06T09:50:40Z</time>
      </trkpt>
      <trkpt lat="42.7476" lon="1.54615">
        <ele>1426.37</ele>
        <time>2021-03-06T09:50:42Z</time>
      </trkpt>
      <trkpt lat="42.74761" lon="1.5462">
        <ele>1427.049</ele>
        <time>2021-03-06T09:50:44Z</time>
      </trkpt>
      <trkpt lat="42.74762" lon="1.54624">
        <ele>1425.845</ele>
        <time>2021-03-06T09:50:46Z</time>
      </trkpt>
      <trkpt lat="42.74763" lon="1.54627">
        <ele>1425.351</ele>
        <time>2021-03-06T09:50:48Z</time>
      </trkpt>
      <trkpt lat="42.74764" lon="1.5463">
        <ele>1424.984</ele>
        <time>2021-03-06T09:50:50Z</time>
      </trkpt>
      <trkpt lat="42.74765" lon="1.54633">
        <ele>1423.396</ele>
        <time>2021-03-06T09:50:52Z</time>
      </trkpt>
      <trkpt lat="42.74766" lon="1.54637">
        <ele>1423.131</ele>
        <time>2021-03-06T09:50:54Z</time>
      </trkpt>
      <trkpt lat="42.74767" lon="1.54641">
        <ele>1422.36</ele>
        <time>2021-03-06T09:50:56Z</time>
      </trkpt>
      <trkpt lat="42.74767" lon="1.54644">
        <ele>1422.553</ele>
        <time>2021-03-06T09:50:58Z</time>
      </trkpt>
      <trkpt lat="42.74768" lon="1.54647">
        <ele>1423.23</ele>
        <time>2021-03-06T09:51:00Z</time>
      </trkpt>
      <trkpt lat="42.74769" lon="1.5465">
        <ele>1424.925</ele>
        <time>2021-03-06T09:51:02Z</time>
      </trkpt>
      <trkpt lat="42.7477" lon="1.54653">
        <ele>1425.448</ele>
        <time>2021-03-06T09:51:04Z</time>
      </trkpt>
      <trkpt lat="42.74771" lon="1.54657">
        <ele>1425.53</ele>
        <time>2021-03-06T09:51:06Z</time>
      </trkpt>
      <trkpt lat="42.74772" lon="1.5466">
        <ele>1424.793</ele>
        <time>2021-03-06T09:51:08Z</time>
      </trkpt>
      <trkpt lat="42.74773" lon="1.54663">
        <ele>1424.347</ele>
        <time>2021-03-06T09:51:10Z</time>
      </trkpt>
      <trkpt lat="42.74774" lon="1.54666">
        <ele>1424.145</ele>
        <time>2021-03-06T09:51:12Z</time>
      </trkpt>
      <trkpt lat="42.74775" lon="1.54669">
        <ele>1423.421</ele>
        <time>2021-03-06T09:51:14Z</time>
      </trkpt>
      <trkpt lat="42.74776" lon="1.54673">
        <ele>1423.602</ele>
        <time>2021-03-06T09:51:16Z</time>
      </trkpt>
      <trkpt lat="42.74777" lon="1.54676">
        <ele>1423.119</ele>
        <time>2021-03-06T09:51:18Z</time>
      </trkpt>
      <trkpt lat="42.74775" lon="1.54681">
        <ele>1424.793</ele>
        <time>2021-03-06T09:51:20Z</time>
      </trkpt>
      <trkpt lat="42.74772" lon="1.5468">
        <ele>1420.691</ele>
        <time>2021-03-06T09:51:22Z</time>
      </trkpt>
      <trkpt lat="42.74769" lon="1.54684">
        <ele>1413.85</ele>
        <time>2021-03-06T09:51:24Z</time>
      </trkpt>
      <trkpt lat="42.7477" lon="1.54687">
        <ele>1415.002</ele>
        <time>2021-03-06T09:51:26Z</time>
      </trkpt>
      <trkpt lat="42.74772" lon="1.54689">
        <ele>1415.693</ele>
        <time>2021-03-06T09:51:28Z</time>
      </trkpt>
      <trkpt lat="42.74773" lon="1.54693">
        <ele>1413.372</ele>
        <time>2021-03-06T09:51:31Z</time>
      </trkpt>
      <trkpt lat="42.74774" lon="1.54695">
        <ele>1414.866</ele>
        <time>2021-03-06T09:51:33Z</time>
      </trkpt>
      <trkpt lat="42.74774" lon="1.54698">
        <ele>1414.472</ele>
        <time>2021-03-06T09:51:35Z</time>
      </trkpt>
      <trkpt lat="42.74775" lon="1.54701">
        <ele>1416.339</ele>
        <time>2021-03-06T09:51:37Z</time>
      </trkpt>
      <trkpt lat="42.74775" lon="1.54704">
        <ele>1419.059</ele>
        <time>2021-03-06T09:51:39Z</time>
      </trkpt>
      <trkpt lat="42.74775" lon="1.54706">
        <ele>1419.989</ele>
        <time>2021-03-06T09:51:41Z</time>
      </trkpt>
      <trkpt lat="42.74774" lon="1.54707">
        <ele>1420.128</ele>
        <time>2021-03-06T09:51:43Z</time>
      </trkpt>
      <trkpt lat="42.74774" lon="1.54707">
        <ele>1422.813</ele>
        <time>2021-03-06T09:51:45Z</time>
      </trkpt>
      <trkpt lat="42.74774" lon="1.54707">
        <ele>1425.176</ele>
        <time>2021-03-06T09:51:47Z</time>
      </trkpt>
      <trkpt lat="42.74774" lon="1.54708">
        <ele>1425.168</ele>
        <time>2021-03-06T09:51:49Z</time>
      </trkpt>
      <trkpt lat="42.74774" lon="1.54708">
        <ele>1425.208</ele>
        <time>2021-03-06T09:51:51Z</time>
      </trkpt>
      <trkpt lat="42.74774" lon="1.54708">
        <ele>1425.203</ele>
        <time>2021-03-06T09:51:53Z</time>
      </trkpt>
      <trkpt lat="42.74774" lon="1.54708">
        <ele>1424.652</ele>
        <time>2021-03-06T09:51:55Z</time>
      </trkpt>
      <trkpt lat="42.74774" lon="1.54708">
        <ele>1424.784</ele>
        <time>2021-03-06T09:51:57Z</time>
      </trkpt>
      <trkpt lat="42.74774" lon="1.54708">
        <ele>1424.78</ele>
        <time>2021-03-06T09:51:59Z</time>
      </trkpt>
      <trkpt lat="42.74774" lon="1.54709">
        <ele>1424.497</ele>
        <time>2021-03-06T09:52:01Z</time>
      </trkpt>
      <trkpt lat="42.74774" lon="1.54709">
        <ele>1424.521</ele>
        <time>2021-03-06T09:52:03Z</time>
      </trkpt>
      <trkpt lat="42.74775" lon="1.54711">
        <ele>1424.636</ele>
        <time>2021-03-06T09:52:05Z</time>
      </trkpt>
      <trkpt lat="42.74776" lon="1.54714">
        <ele>1424.139</ele>
        <time>2021-03-06T09:52:07Z</time>
      </trkpt>
      <trkpt lat="42.74776" lon="1.54716">
        <ele>1424.311</ele>
        <time>2021-03-06T09:52:09Z</time>
      </trkpt>
      <trkpt lat="42.74776" lon="1.54719">
        <ele>1424.951</ele>
        <time>2021-03-06T09:52:11Z</time>
      </trkpt>
      <trkpt lat="42.74775" lon="1.54721">
        <ele>1424.503</ele>
        <time>2021-03-06T09:52:13Z</time>
      </trkpt>
      <trkpt lat="42.74776" lon="1.54723">
        <ele>1424.829</ele>
        <time>2021-03-06T09:52:15Z</time>
      </trkpt>
      <trkpt lat="42.74775" lon="1.54726">
        <ele>1424.925</ele>
        <time>2021-03-06T09:52:17Z</time>
      </trkpt>
      <trkpt lat="42.74774" lon="1.54729">
        <ele>1424.843</ele>
        <time>2021-03-06T09:52:19Z</time>
      </trkpt>
      <trkpt lat="42.74774" lon="1.54731">
        <ele>1423.065</ele>
        <time>2021-03-06T09:52:21Z</time>
      </trkpt>
      <trkpt lat="42.74773" lon="1.54732">
        <ele>1422.798</ele>
        <time>2021-03-06T09:52:23Z</time>
      </trkpt>
      <trkpt lat="42.74772" lon="1.54734">
        <ele>1423.107</ele>
        <time>2021-03-06T09:52:25Z</time>
      </trkpt>
      <trkpt lat="42.74771" lon="1.54737">
        <ele>1423.458</ele>
        <time>2021-03-06T09:52:27Z</time>
      </trkpt>
      <trkpt lat="42.7477" lon="1.54739">
        <ele>1423.373</ele>
        <time>2021-03-06T09:52:29Z</time>
      </trkpt>
      <trkpt lat="42.7477" lon="1.54741">
        <ele>1423.127</ele>
        <time>2021-03-06T09:52:31Z</time>
      </trkpt>
      <trkpt lat="42.74769" lon="1.54744">
        <ele>1422.432</ele>
        <time>2021-03-06T09:52:33Z</time>
      </trkpt>
      <trkpt lat="42.74769" lon="1.54746">
        <ele>1423.345</ele>
        <time>2021-03-06T09:52:35Z</time>
      </trkpt>
      <trkpt lat="42.74769" lon="1.54749">
        <ele>1424.505</ele>
        <time>2021-03-06T09:52:37Z</time>
      </trkpt>
      <trkpt lat="42.74768" lon="1.54751">
        <ele>1424.368</ele>
        <time>2021-03-06T09:52:39Z</time>
      </trkpt>
      <trkpt lat="42.74767" lon="1.54752">
        <ele>1422.997</ele>
        <time>2021-03-06T09:52:41Z</time>
      </trkpt>
      <trkpt lat="42.74767" lon="1.54754">
        <ele>1423.307</ele>
        <time>2021-03-06T09:52:43Z</time>
      </trkpt>
      <trkpt lat="42.74766" lon="1.54756">
        <ele>1423.05</ele>
        <time>2021-03-06T09:52:45Z</time>
      </trkpt>
      <trkpt lat="42.74766" lon="1.54758">
        <ele>1423.819</ele>
        <time>2021-03-06T09:52:47Z</time>
      </trkpt>
      <trkpt lat="42.74765" lon="1.5476">
        <ele>1424.45</ele>
        <time>2021-03-06T09:52:49Z</time>
      </trkpt>
      <trkpt lat="42.74765" lon="1.54762">
        <ele>1425.891</ele>
        <time>2021-03-06T09:52:51Z</time>
      </trkpt>
      <trkpt lat="42.74764" lon="1.54765">
        <ele>1426.457</ele>
        <time>2021-03-06T09:52:53Z</time>
      </trkpt>
      <trkpt lat="42.74763" lon="1.54766">
        <ele>1425.891</ele>
        <time>2021-03-06T09:52:55Z</time>
      </trkpt>
      <trkpt lat="42.74761" lon="1.54767">
        <ele>1425.119</ele>
        <time>2021-03-06T09:52:57Z</time>
      </trkpt>
      <trkpt lat="42.7476" lon="1.54768">
        <ele>1422.975</ele>
        <time>2021-03-06T09:52:59Z</time>
      </trkpt>
      <trkpt lat="42.74758" lon="1.54769">
        <ele>1422.622</ele>
        <time>2021-03-06T09:53:01Z</time>
      </trkpt>
      <trkpt lat="42.74757" lon="1.54771">
        <ele>1423.726</ele>
        <time>2021-03-06T09:53:03Z</time>
      </trkpt>
      <trkpt lat="42.74756" lon="1.54772">
        <ele>1424.321</ele>
        <time>2021-03-06T09:53:05Z</time>
      </trkpt>
      <trkpt lat="42.74755" lon="1.54773">
        <ele>1423.88</ele>
        <time>2021-03-06T09:53:07Z</time>
      </trkpt>
      <trkpt lat="42.74753" lon="1.54775">
        <ele>1423.895</ele>
        <time>2021-03-06T09:53:09Z</time>
      </trkpt>
      <trkpt lat="42.74752" lon="1.54776">
        <ele>1422.751</ele>
        <time>2021-03-06T09:53:11Z</time>
      </trkpt>
      <trkpt lat="42.74751" lon="1.54777">
        <ele>1422.881</ele>
        <time>2021-03-06T09:53:13Z</time>
      </trkpt>
      <trkpt lat="42.7475" lon="1.54779">
        <ele>1427.463</ele>
        <time>2021-03-06T09:53:15Z</time>
      </trkpt>
      <trkpt lat="42.74749" lon="1.54783">
        <ele>1433.135</ele>
        <time>2021-03-06T09:53:17Z</time>
      </trkpt>
      <trkpt lat="42.74748" lon="1.54784">
        <ele>1434.392</ele>
        <time>2021-03-06T09:53:19Z</time>
      </trkpt>
      <trkpt lat="42.74747" lon="1.54785">
        <ele>1435.906</ele>
        <time>2021-03-06T09:53:21Z</time>
      </trkpt>
      <trkpt lat="42.74746" lon="1.54786">
        <ele>1437.423</ele>
        <time>2021-03-06T09:53:23Z</time>
      </trkpt>
      <trkpt lat="42.74744" lon="1.54786">
        <ele>1439.375</ele>
        <time>2021-03-06T09:53:25Z</time>
      </trkpt>
      <trkpt lat="42.74743" lon="1.54786">
        <ele>1440.826</ele>
        <time>2021-03-06T09:53:27Z</time>
      </trkpt>
      <trkpt lat="42.74742" lon="1.54787">
        <ele>1442.298</ele>
        <time>2021-03-06T09:53:29Z</time>
      </trkpt>
      <trkpt lat="42.7474" lon="1.54787">
        <ele>1443.442</ele>
        <time>2021-03-06T09:53:31Z</time>
      </trkpt>
      <trkpt lat="42.74739" lon="1.54787">
        <ele>1444.618</ele>
        <time>2021-03-06T09:53:33Z</time>
      </trkpt>
      <trkpt lat="42.74737" lon="1.54787">
        <ele>1444.678</ele>
        <time>2021-03-06T09:53:35Z</time>
      </trkpt>
      <trkpt lat="42.74736" lon="1.54786">
        <ele>1445.44</ele>
        <time>2021-03-06T09:53:37Z</time>
      </trkpt>
      <trkpt lat="42.74735" lon="1.54786">
        <ele>1446.32</ele>
        <time>2021-03-06T09:53:39Z</time>
      </trkpt>
      <trkpt lat="42.74734" lon="1.54787">
        <ele>1446.533</ele>
        <time>2021-03-06T09:53:41Z</time>
      </trkpt>
      <trkpt lat="42.74732" lon="1.54787">
        <ele>1447.578</ele>
        <time>2021-03-06T09:53:43Z</time>
      </trkpt>
      <trkpt lat="42.74731" lon="1.54788">
        <ele>1448.058</ele>
        <time>2021-03-06T09:53:45Z</time>
      </trkpt>
      <trkpt lat="42.74729" lon="1.54788">
        <ele>1448.092</ele>
        <time>2021-03-06T09:53:47Z</time>
      </trkpt>
      <trkpt lat="42.74728" lon="1.54789">
        <ele>1447.997</ele>
        <time>2021-03-06T09:53:49Z</time>
      </trkpt>
      <trkpt lat="42.74727" lon="1.5479">
        <ele>1447.621</ele>
        <time>2021-03-06T09:53:51Z</time>
      </trkpt>
      <trkpt lat="42.74725" lon="1.5479">
        <ele>1448.445</ele>
        <time>2021-03-06T09:53:53Z</time>
      </trkpt>
      <trkpt lat="42.74724" lon="1.54791">
        <ele>1448.077</ele>
        <time>2021-03-06T09:53:55Z</time>
      </trkpt>
      <trkpt lat="42.74723" lon="1.54792">
        <ele>1448.529</ele>
        <time>2021-03-06T09:53:57Z</time>
      </trkpt>
      <trkpt lat="42.74721" lon="1.54793">
        <ele>1449.15</ele>
        <time>2021-03-06T09:53:59Z</time>
      </trkpt>
      <trkpt lat="42.7472" lon="1.54794">
        <ele>1448.785</ele>
        <time>2021-03-06T09:54:01Z</time>
      </trkpt>
      <trkpt lat="42.74718" lon="1.54795">
        <ele>1448.963</ele>
        <time>2021-03-06T09:54:03Z</time>
      </trkpt>
      <trkpt lat="42.74717" lon="1.54796">
        <ele>1449.526</ele>
        <time>2021-03-06T09:54:05Z</time>
      </trkpt>
      <trkpt lat="42.74715" lon="1.54796">
        <ele>1450.855</ele>
        <time>2021-03-06T09:54:07Z</time>
      </trkpt>
      <trkpt lat="42.74713" lon="1.54797">
        <ele>1450.542</ele>
        <time>2021-03-06T09:54:09Z</time>
      </trkpt>
      <trkpt lat="42.74712" lon="1.54797">
        <ele>1451.501</ele>
        <time>2021-03-06T09:54:11Z</time>
      </trkpt>
      <trkpt lat="42.7471" lon="1.54798">
        <ele>1452.772</ele>
        <time>2021-03-06T09:54:13Z</time>
      </trkpt>
      <trkpt lat="42.74708" lon="1.54798">
        <ele>1453.717</ele>
        <time>2021-03-06T09:54:15Z</time>
      </trkpt>
      <trkpt lat="42.74706" lon="1.54799">
        <ele>1454.919</ele>
        <time>2021-03-06T09:54:17Z</time>
      </trkpt>
      <trkpt lat="42.74704" lon="1.54799">
        <ele>1456.01</ele>
        <time>2021-03-06T09:54:19Z</time>
      </trkpt>
      <trkpt lat="42.74703" lon="1.54799">
        <ele>1456.772</ele>
        <time>2021-03-06T09:54:21Z</time>
      </trkpt>
      <trkpt lat="42.74701" lon="1.548">
        <ele>1456.814</ele>
        <time>2021-03-06T09:54:23Z</time>
      </trkpt>
      <trkpt lat="42.747" lon="1.548">
        <ele>1457.02</ele>
        <time>2021-03-06T09:54:25Z</time>
      </trkpt>
      <trkpt lat="42.74698" lon="1.548">
        <ele>1457.565</ele>
        <time>2021-03-06T09:54:27Z</time>
      </trkpt>
      <trkpt lat="42.74697" lon="1.548">
        <ele>1457.946</ele>
        <time>2021-03-06T09:54:29Z</time>
      </trkpt>
      <trkpt lat="42.74695" lon="1.54801">
        <ele>1458.698</ele>
        <time>2021-03-06T09:54:31Z</time>
      </trkpt>
      <trkpt lat="42.74694" lon="1.54801">
        <ele>1459.008</ele>
        <time>2021-03-06T09:54:33Z</time>
      </trkpt>
      <trkpt lat="42.74692" lon="1.548">
        <ele>1459.562</ele>
        <time>2021-03-06T09:54:35Z</time>
      </trkpt>
      <trkpt lat="42.7469" lon="1.54801">
        <ele>1459.893</ele>
        <time>2021-03-06T09:54:37Z</time>
      </trkpt>
      <trkpt lat="42.74689" lon="1.54801">
        <ele>1459.863</ele>
        <time>2021-03-06T09:54:39Z</time>
      </trkpt>
      <trkpt lat="42.74687" lon="1.54801">
        <ele>1459.891</ele>
        <time>2021-03-06T09:54:41Z</time>
      </trkpt>
      <trkpt lat="42.74686" lon="1.54801">
        <ele>1460.704</ele>
        <time>2021-03-06T09:54:43Z</time>
      </trkpt>
      <trkpt lat="42.74684" lon="1.54801">
        <ele>1461.29</ele>
        <time>2021-03-06T09:54:45Z</time>
      </trkpt>
      <trkpt lat="42.74682" lon="1.548">
        <ele>1461.392</ele>
        <time>2021-03-06T09:54:47Z</time>
      </trkpt>
      <trkpt lat="42.74681" lon="1.548">
        <ele>1461.266</ele>
        <time>2021-03-06T09:54:49Z</time>
      </trkpt>
      <trkpt lat="42.7468" lon="1.54799">
        <ele>1461.685</ele>
        <time>2021-03-06T09:54:51Z</time>
      </trkpt>
      <trkpt lat="42.74678" lon="1.54799">
        <ele>1462.107</ele>
        <time>2021-03-06T09:54:53Z</time>
      </trkpt>
      <trkpt lat="42.74676" lon="1.54798">
        <ele>1462.389</ele>
        <time>2021-03-06T09:54:55Z</time>
      </trkpt>
      <trkpt lat="42.74675" lon="1.54798">
        <ele>1462.631</ele>
        <time>2021-03-06T09:54:57Z</time>
      </trkpt>
      <trkpt lat="42.74673" lon="1.54797">
        <ele>1463.768</ele>
        <time>2021-03-06T09:54:59Z</time>
      </trkpt>
      <trkpt lat="42.74672" lon="1.54796">
        <ele>1464.145</ele>
        <time>2021-03-06T09:55:01Z</time>
      </trkpt>
      <trkpt lat="42.7467" lon="1.54796">
        <ele>1464.262</ele>
        <time>2021-03-06T09:55:03Z</time>
      </trkpt>
      <trkpt lat="42.74668" lon="1.54796">
        <ele>1464.773</ele>
        <time>2021-03-06T09:55:05Z</time>
      </trkpt>
      <trkpt lat="42.74666" lon="1.54795">
        <ele>1465.027</ele>
        <time>2021-03-06T09:55:07Z</time>
      </trkpt>
      <trkpt lat="42.74665" lon="1.54795">
        <ele>1465.274</ele>
        <time>2021-03-06T09:55:09Z</time>
      </trkpt>
      <trkpt lat="42.74663" lon="1.54794">
        <ele>1465.556</ele>
        <time>2021-03-06T09:55:11Z</time>
      </trkpt>
      <trkpt lat="42.74662" lon="1.54794">
        <ele>1466.151</ele>
        <time>2021-03-06T09:55:13Z</time>
      </trkpt>
      <trkpt lat="42.7466" lon="1.54794">
        <ele>1466.759</ele>
        <time>2021-03-06T09:55:15Z</time>
      </trkpt>
      <trkpt lat="42.74658" lon="1.54793">
        <ele>1467.011</ele>
        <time>2021-03-06T09:55:17Z</time>
      </trkpt>
      <trkpt lat="42.74657" lon="1.54792">
        <ele>1467.831</ele>
        <time>2021-03-06T09:55:19Z</time>
      </trkpt>
      <trkpt lat="42.74655" lon="1.54791">
        <ele>1467.608</ele>
        <time>2021-03-06T09:55:21Z</time>
      </trkpt>
      <trkpt lat="42.74654" lon="1.54791">
        <ele>1468.093</ele>
        <time>2021-03-06T09:55:23Z</time>
      </trkpt>
      <trkpt lat="42.74652" lon="1.5479">
        <ele>1467.595</ele>
        <time>2021-03-06T09:55:25Z</time>
      </trkpt>
      <trkpt lat="42.7465" lon="1.54789">
        <ele>1467.958</ele>
        <time>2021-03-06T09:55:27Z</time>
      </trkpt>
      <trkpt lat="42.74648" lon="1.54788">
        <ele>1468.258</ele>
        <time>2021-03-06T09:55:29Z</time>
      </trkpt>
      <trkpt lat="42.74646" lon="1.54788">
        <ele>1469.033</ele>
        <time>2021-03-06T09:55:31Z</time>
      </trkpt>
      <trkpt lat="42.74644" lon="1.54787">
        <ele>1469.85</ele>
        <time>2021-03-06T09:55:33Z</time>
      </trkpt>
      <trkpt lat="42.74643" lon="1.54787">
        <ele>1470.591</ele>
        <time>2021-03-06T09:55:35Z</time>
      </trkpt>
      <trkpt lat="42.74641" lon="1.54786">
        <ele>1470.379</ele>
        <time>2021-03-06T09:55:37Z</time>
      </trkpt>
      <trkpt lat="42.74639" lon="1.54785">
        <ele>1470.765</ele>
        <time>2021-03-06T09:55:39Z</time>
      </trkpt>
      <trkpt lat="42.74637" lon="1.54786">
        <ele>1471.194</ele>
        <time>2021-03-06T09:55:41Z</time>
      </trkpt>
      <trkpt lat="42.74635" lon="1.54785">
        <ele>1471.508</ele>
        <time>2021-03-06T09:55:43Z</time>
      </trkpt>
      <trkpt lat="42.74633" lon="1.54785">
        <ele>1471.327</ele>
        <time>2021-03-06T09:55:45Z</time>
      </trkpt>
      <trkpt lat="42.74631" lon="1.54785">
        <ele>1471.88</ele>
        <time>2021-03-06T09:55:47Z</time>
      </trkpt>
      <trkpt lat="42.74629" lon="1.54785">
        <ele>1472.462</ele>
        <time>2021-03-06T09:55:49Z</time>
      </trkpt>
      <trkpt lat="42.74627" lon="1.54785">
        <ele>1471.765</ele>
        <time>2021-03-06T09:55:51Z</time>
      </trkpt>
      <trkpt lat="42.74625" lon="1.54785">
        <ele>1472.797</ele>
        <time>2021-03-06T09:55:53Z</time>
      </trkpt>
      <trkpt lat="42.74623" lon="1.54785">
        <ele>1474.179</ele>
        <time>2021-03-06T09:55:55Z</time>
      </trkpt>
      <trkpt lat="42.74622" lon="1.54784">
        <ele>1474.393</ele>
        <time>2021-03-06T09:55:57Z</time>
      </trkpt>
      <trkpt lat="42.74621" lon="1.54784">
        <ele>1474.688</ele>
        <time>2021-03-06T09:55:58Z</time>
      </trkpt>
      <trkpt lat="42.74618" lon="1.54785">
        <ele>1475.609</ele>
        <time>2021-03-06T09:56:01Z</time>
      </trkpt>
      <trkpt lat="42.74617" lon="1.54785">
        <ele>1475.699</ele>
        <time>2021-03-06T09:56:03Z</time>
      </trkpt>
      <trkpt lat="42.74615" lon="1.54784">
        <ele>1476.151</ele>
        <time>2021-03-06T09:56:05Z</time>
      </trkpt>
      <trkpt lat="42.74613" lon="1.54783">
        <ele>1476.246</ele>
        <time>2021-03-06T09:56:07Z</time>
      </trkpt>
      <trkpt lat="42.74612" lon="1.54783">
        <ele>1477.15</ele>
        <time>2021-03-06T09:56:09Z</time>
      </trkpt>
      <trkpt lat="42.7461" lon="1.54782">
        <ele>1477.14</ele>
        <time>2021-03-06T09:56:11Z</time>
      </trkpt>
      <trkpt lat="42.74609" lon="1.54782">
        <ele>1477.357</ele>
        <time>2021-03-06T09:56:13Z</time>
      </trkpt>
      <trkpt lat="42.74607" lon="1.54782">
        <ele>1478.097</ele>
        <time>2021-03-06T09:56:15Z</time>
      </trkpt>
      <trkpt lat="42.74606" lon="1.54781">
        <ele>1479.2</ele>
        <time>2021-03-06T09:56:17Z</time>
      </trkpt>
      <trkpt lat="42.74604" lon="1.54781">
        <ele>1479.219</ele>
        <time>2021-03-06T09:56:19Z</time>
      </trkpt>
      <trkpt lat="42.74603" lon="1.54781">
        <ele>1479.074</ele>
        <time>2021-03-06T09:56:21Z</time>
      </trkpt>
      <trkpt lat="42.74601" lon="1.5478">
        <ele>1479.234</ele>
        <time>2021-03-06T09:56:23Z</time>
      </trkpt>
      <trkpt lat="42.746" lon="1.5478">
        <ele>1479.605</ele>
        <time>2021-03-06T09:56:25Z</time>
      </trkpt>
      <trkpt lat="42.74598" lon="1.5478">
        <ele>1479.417</ele>
        <time>2021-03-06T09:56:27Z</time>
      </trkpt>
      <trkpt lat="42.74596" lon="1.54779">
        <ele>1479.341</ele>
        <time>2021-03-06T09:56:29Z</time>
      </trkpt>
      <trkpt lat="42.74595" lon="1.54779">
        <ele>1479.824</ele>
        <time>2021-03-06T09:56:31Z</time>
      </trkpt>
      <trkpt lat="42.74593" lon="1.54779">
        <ele>1480.128</ele>
        <time>2021-03-06T09:56:33Z</time>
      </trkpt>
      <trkpt lat="42.74592" lon="1.54778">
        <ele>1480.686</ele>
        <time>2021-03-06T09:56:35Z</time>
      </trkpt>
      <trkpt lat="42.7459" lon="1.54777">
        <ele>1480.575</ele>
        <time>2021-03-06T09:56:37Z</time>
      </trkpt>
      <trkpt lat="42.74589" lon="1.54776">
        <ele>1480.25</ele>
        <time>2021-03-06T09:56:39Z</time>
      </trkpt>
      <trkpt lat="42.74587" lon="1.54775">
        <ele>1479.753</ele>
        <time>2021-03-06T09:56:41Z</time>
      </trkpt>
      <trkpt lat="42.74586" lon="1.54773">
        <ele>1480.784</ele>
        <time>2021-03-06T09:56:43Z</time>
      </trkpt>
      <trkpt lat="42.74585" lon="1.54771">
        <ele>1481.256</ele>
        <time>2021-03-06T09:56:45Z</time>
      </trkpt>
      <trkpt lat="42.74584" lon="1.54769">
        <ele>1482.575</ele>
        <time>2021-03-06T09:56:47Z</time>
      </trkpt>
      <trkpt lat="42.74583" lon="1.54767">
        <ele>1483.13</ele>
        <time>2021-03-06T09:56:49Z</time>
      </trkpt>
      <trkpt lat="42.74583" lon="1.54764">
        <ele>1483.982</ele>
        <time>2021-03-06T09:56:51Z</time>
      </trkpt>
      <trkpt lat="42.74583" lon="1.54762">
        <ele>1484.305</ele>
        <time>2021-03-06T09:56:53Z</time>
      </trkpt>
      <trkpt lat="42.74583" lon="1.5476">
        <ele>1485.017</ele>
        <time>2021-03-06T09:56:55Z</time>
      </trkpt>
      <trkpt lat="42.74583" lon="1.54758">
        <ele>1486.16</ele>
        <time>2021-03-06T09:56:57Z</time>
      </trkpt>
      <trkpt lat="42.74584" lon="1.54755">
        <ele>1486.946</ele>
        <time>2021-03-06T09:56:59Z</time>
      </trkpt>
      <trkpt lat="42.74585" lon="1.54753">
        <ele>1486.973</ele>
        <time>2021-03-06T09:57:01Z</time>
      </trkpt>
      <trkpt lat="42.74585" lon="1.54751">
        <ele>1487.317</ele>
        <time>2021-03-06T09:57:03Z</time>
      </trkpt>
      <trkpt lat="42.74586" lon="1.54749">
        <ele>1487.038</ele>
        <time>2021-03-06T09:57:05Z</time>
      </trkpt>
      <trkpt lat="42.74588" lon="1.54747">
        <ele>1486.781</ele>
        <time>2021-03-06T09:57:07Z</time>
      </trkpt>
      <trkpt lat="42.74589" lon="1.54745">
        <ele>1487.068</ele>
        <time>2021-03-06T09:57:09Z</time>
      </trkpt>
      <trkpt lat="42.7459" lon="1.54743">
        <ele>1487.385</ele>
        <time>2021-03-06T09:57:11Z</time>
      </trkpt>
      <trkpt lat="42.74591" lon="1.54741">
        <ele>1488.232</ele>
        <time>2021-03-06T09:57:13Z</time>
      </trkpt>
      <trkpt lat="42.74592" lon="1.54738">
        <ele>1488.557</ele>
        <time>2021-03-06T09:57:15Z</time>
      </trkpt>
      <trkpt lat="42.74593" lon="1.54736">
        <ele>1488.673</ele>
        <time>2021-03-06T09:57:17Z</time>
      </trkpt>
      <trkpt lat="42.74595" lon="1.54734">
        <ele>1488.46</ele>
        <time>2021-03-06T09:57:19Z</time>
      </trkpt>
      <trkpt lat="42.74595" lon="1.54731">
        <ele>1488.277</ele>
        <time>2021-03-06T09:57:21Z</time>
      </trkpt>
      <trkpt lat="42.74596" lon="1.54729">
        <ele>1488.482</ele>
        <time>2021-03-06T09:57:23Z</time>
      </trkpt>
      <trkpt lat="42.74597" lon="1.54726">
        <ele>1488.751</ele>
        <time>2021-03-06T09:57:25Z</time>
      </trkpt>
      <trkpt lat="42.74598" lon="1.54723">
        <ele>1488.63</ele>
        <time>2021-03-06T09:57:27Z</time>
      </trkpt>
      <trkpt lat="42.74599" lon="1.5472">
        <ele>1488.878</ele>
        <time>2021-03-06T09:57:29Z</time>
      </trkpt>
      <trkpt lat="42.746" lon="1.54718">
        <ele>1488.726</ele>
        <time>2021-03-06T09:57:31Z</time>
      </trkpt>
      <trkpt lat="42.746" lon="1.54715">
        <ele>1489.916</ele>
        <time>2021-03-06T09:57:33Z</time>
      </trkpt>
      <trkpt lat="42.74601" lon="1.54712">
        <ele>1489.877</ele>
        <time>2021-03-06T09:57:35Z</time>
      </trkpt>
      <trkpt lat="42.74601" lon="1.54709">
        <ele>1489.445</ele>
        <time>2021-03-06T09:57:37Z</time>
      </trkpt>
      <trkpt lat="42.74601" lon="1.54707">
        <ele>1489.339</ele>
        <time>2021-03-06T09:57:39Z</time>
      </trkpt>
      <trkpt lat="42.74601" lon="1.54704">
        <ele>1489.705</ele>
        <time>2021-03-06T09:57:41Z</time>
      </trkpt>
      <trkpt lat="42.74602" lon="1.54702">
        <ele>1489.782</ele>
        <time>2021-03-06T09:57:43Z</time>
      </trkpt>
      <trkpt lat="42.74602" lon="1.54699">
        <ele>1489.573</ele>
        <time>2021-03-06T09:57:45Z</time>
      </trkpt>
      <trkpt lat="42.74603" lon="1.54697">
        <ele>1490.238</ele>
        <time>2021-03-06T09:57:47Z</time>
      </trkpt>
      <trkpt lat="42.74603" lon="1.54694">
        <ele>1491.062</ele>
        <time>2021-03-06T09:57:49Z</time>
      </trkpt>
      <trkpt lat="42.74602" lon="1.54692">
        <ele>1492.11</ele>
        <time>2021-03-06T09:57:51Z</time>
      </trkpt>
      <trkpt lat="42.74603" lon="1.54689">
        <ele>1491.87</ele>
        <time>2021-03-06T09:57:53Z</time>
      </trkpt>
      <trkpt lat="42.74603" lon="1.54687">
        <ele>1492.317</ele>
        <time>2021-03-06T09:57:55Z</time>
      </trkpt>
      <trkpt lat="42.74603" lon="1.54684">
        <ele>1492.783</ele>
        <time>2021-03-06T09:57:57Z</time>
      </trkpt>
      <trkpt lat="42.74603" lon="1.54682">
        <ele>1492.995</ele>
        <time>2021-03-06T09:57:59Z</time>
      </trkpt>
      <trkpt lat="42.74603" lon="1.54679">
        <ele>1493.596</ele>
        <time>2021-03-06T09:58:01Z</time>
      </trkpt>
      <trkpt lat="42.74603" lon="1.54677">
        <ele>1494.524</ele>
        <time>2021-03-06T09:58:03Z</time>
      </trkpt>
      <trkpt lat="42.74602" lon="1.54675">
        <ele>1494.724</ele>
        <time>2021-03-06T09:58:05Z</time>
      </trkpt>
      <trkpt lat="42.74601" lon="1.54673">
        <ele>1495.326</ele>
        <time>2021-03-06T09:58:07Z</time>
      </trkpt>
      <trkpt lat="42.74601" lon="1.54671">
        <ele>1495.479</ele>
        <time>2021-03-06T09:58:09Z</time>
      </trkpt>
      <trkpt lat="42.746" lon="1.54668">
        <ele>1496</ele>
        <time>2021-03-06T09:58:11Z</time>
      </trkpt>
      <trkpt lat="42.746" lon="1.54666">
        <ele>1495.993</ele>
        <time>2021-03-06T09:58:13Z</time>
      </trkpt>
      <trkpt lat="42.746" lon="1.54664">
        <ele>1497.157</ele>
        <time>2021-03-06T09:58:15Z</time>
      </trkpt>
      <trkpt lat="42.74599" lon="1.54662">
        <ele>1496.931</ele>
        <time>2021-03-06T09:58:17Z</time>
      </trkpt>
      <trkpt lat="42.74599" lon="1.54659">
        <ele>1497.206</ele>
        <time>2021-03-06T09:58:19Z</time>
      </trkpt>
      <trkpt lat="42.74599" lon="1.54657">
        <ele>1496.891</ele>
        <time>2021-03-06T09:58:21Z</time>
      </trkpt>
      <trkpt lat="42.74598" lon="1.54655">
        <ele>1498.129</ele>
        <time>2021-03-06T09:58:23Z</time>
      </trkpt>
      <trkpt lat="42.74598" lon="1.54653">
        <ele>1497.783</ele>
        <time>2021-03-06T09:58:25Z</time>
      </trkpt>
      <trkpt lat="42.74597" lon="1.54651">
        <ele>1497.971</ele>
        <time>2021-03-06T09:58:27Z</time>
      </trkpt>
      <trkpt lat="42.74597" lon="1.54649">
        <ele>1498.179</ele>
        <time>2021-03-06T09:58:29Z</time>
      </trkpt>
      <trkpt lat="42.74597" lon="1.54646">
        <ele>1498.584</ele>
        <time>2021-03-06T09:58:31Z</time>
      </trkpt>
      <trkpt lat="42.74597" lon="1.54644">
        <ele>1498.098</ele>
        <time>2021-03-06T09:58:33Z</time>
      </trkpt>
      <trkpt lat="42.74596" lon="1.54642">
        <ele>1498.991</ele>
        <time>2021-03-06T09:58:35Z</time>
      </trkpt>
      <trkpt lat="42.74596" lon="1.5464">
        <ele>1499.021</ele>
        <time>2021-03-06T09:58:37Z</time>
      </trkpt>
      <trkpt lat="42.74595" lon="1.54638">
        <ele>1499.471</ele>
        <time>2021-03-06T09:58:39Z</time>
      </trkpt>
      <trkpt lat="42.74595" lon="1.54635">
        <ele>1499.656</ele>
        <time>2021-03-06T09:58:41Z</time>
      </trkpt>
      <trkpt lat="42.74595" lon="1.54633">
        <ele>1500.469</ele>
        <time>2021-03-06T09:58:43Z</time>
      </trkpt>
      <trkpt lat="42.74594" lon="1.54631">
        <ele>1500.863</ele>
        <time>2021-03-06T09:58:45Z</time>
      </trkpt>
      <trkpt lat="42.74594" lon="1.54629">
        <ele>1501.891</ele>
        <time>2021-03-06T09:58:47Z</time>
      </trkpt>
      <trkpt lat="42.74594" lon="1.54627">
        <ele>1502.335</ele>
        <time>2021-03-06T09:58:49Z</time>
      </trkpt>
      <trkpt lat="42.74594" lon="1.54625">
        <ele>1503.479</ele>
        <time>2021-03-06T09:58:51Z</time>
      </trkpt>
      <trkpt lat="42.74594" lon="1.54623">
        <ele>1503.065</ele>
        <time>2021-03-06T09:58:53Z</time>
      </trkpt>
      <trkpt lat="42.74594" lon="1.54621">
        <ele>1503.308</ele>
        <time>2021-03-06T09:58:55Z</time>
      </trkpt>
      <trkpt lat="42.74593" lon="1.54619">
        <ele>1504.255</ele>
        <time>2021-03-06T09:58:57Z</time>
      </trkpt>
      <trkpt lat="42.74593" lon="1.54617">
        <ele>1504.929</ele>
        <time>2021-03-06T09:58:59Z</time>
      </trkpt>
      <trkpt lat="42.74592" lon="1.54615">
        <ele>1505.353</ele>
        <time>2021-03-06T09:59:01Z</time>
      </trkpt>
      <trkpt lat="42.74592" lon="1.54613">
        <ele>1505.449</ele>
        <time>2021-03-06T09:59:03Z</time>
      </trkpt>
      <trkpt lat="42.74591" lon="1.54611">
        <ele>1505.944</ele>
        <time>2021-03-06T09:59:05Z</time>
      </trkpt>
      <trkpt lat="42.7459" lon="1.54609">
        <ele>1506.931</ele>
        <time>2021-03-06T09:59:07Z</time>
      </trkpt>
      <trkpt lat="42.7459" lon="1.54607">
        <ele>1506.948</ele>
        <time>2021-03-06T09:59:09Z</time>
      </trkpt>
      <trkpt lat="42.74589" lon="1.54605">
        <ele>1507.777</ele>
        <time>2021-03-06T09:59:11Z</time>
      </trkpt>
      <trkpt lat="42.74588" lon="1.54603">
        <ele>1508.513</ele>
        <time>2021-03-06T09:59:13Z</time>
      </trkpt>
      <trkpt lat="42.74587" lon="1.54602">
        <ele>1509.269</ele>
        <time>2021-03-06T09:59:15Z</time>
      </trkpt>
      <trkpt lat="42.74586" lon="1.54599">
        <ele>1509.684</ele>
        <time>2021-03-06T09:59:17Z</time>
      </trkpt>
      <trkpt lat="42.74585" lon="1.54598">
        <ele>1509.148</ele>
        <time>2021-03-06T09:59:19Z</time>
      </trkpt>
      <trkpt lat="42.74584" lon="1.54595">
        <ele>1509.916</ele>
        <time>2021-03-06T09:59:21Z</time>
      </trkpt>
      <trkpt lat="42.74584" lon="1.54593">
        <ele>1510.338</ele>
        <time>2021-03-06T09:59:23Z</time>
      </trkpt>
      <trkpt lat="42.74583" lon="1.54591">
        <ele>1511.47</ele>
        <time>2021-03-06T09:59:25Z</time>
      </trkpt>
      <trkpt lat="42.74582" lon="1.54588">
        <ele>1512.093</ele>
        <time>2021-03-06T09:59:27Z</time>
      </trkpt>
      <trkpt lat="42.74581" lon="1.54586">
        <ele>1513.037</ele>
        <time>2021-03-06T09:59:29Z</time>
      </trkpt>
      <trkpt lat="42.7458" lon="1.54585">
        <ele>1512.635</ele>
        <time>2021-03-06T09:59:31Z</time>
      </trkpt>
      <trkpt lat="42.7458" lon="1.54582">
        <ele>1512.939</ele>
        <time>2021-03-06T09:59:33Z</time>
      </trkpt>
      <trkpt lat="42.74579" lon="1.5458">
        <ele>1512.941</ele>
        <time>2021-03-06T09:59:35Z</time>
      </trkpt>
      <trkpt lat="42.74579" lon="1.54578">
        <ele>1513.124</ele>
        <time>2021-03-06T09:59:37Z</time>
      </trkpt>
      <trkpt lat="42.74578" lon="1.54576">
        <ele>1514.048</ele>
        <time>2021-03-06T09:59:39Z</time>
      </trkpt>
      <trkpt lat="42.74578" lon="1.54574">
        <ele>1514.262</ele>
        <time>2021-03-06T09:59:41Z</time>
      </trkpt>
      <trkpt lat="42.74577" lon="1.54572">
        <ele>1514.904</ele>
        <time>2021-03-06T09:59:43Z</time>
      </trkpt>
      <trkpt lat="42.74576" lon="1.5457">
        <ele>1515.757</ele>
        <time>2021-03-06T09:59:45Z</time>
      </trkpt>
      <trkpt lat="42.74576" lon="1.54567">
        <ele>1516.861</ele>
        <time>2021-03-06T09:59:47Z</time>
      </trkpt>
      <trkpt lat="42.74575" lon="1.54565">
        <ele>1516.84</ele>
        <time>2021-03-06T09:59:49Z</time>
      </trkpt>
      <trkpt lat="42.74574" lon="1.54563">
        <ele>1516.841</ele>
        <time>2021-03-06T09:59:51Z</time>
      </trkpt>
      <trkpt lat="42.74573" lon="1.54561">
        <ele>1516.994</ele>
        <time>2021-03-06T09:59:53Z</time>
      </trkpt>
      <trkpt lat="42.74573" lon="1.54559">
        <ele>1517.194</ele>
        <time>2021-03-06T09:59:55Z</time>
      </trkpt>
      <trkpt lat="42.74572" lon="1.54557">
        <ele>1517.624</ele>
        <time>2021-03-06T09:59:57Z</time>
      </trkpt>
      <trkpt lat="42.74571" lon="1.54555">
        <ele>1518.632</ele>
        <time>2021-03-06T09:59:59Z</time>
      </trkpt>
      <trkpt lat="42.74571" lon="1.54553">
        <ele>1518.78</ele>
        <time>2021-03-06T10:00:01Z</time>
      </trkpt>
      <trkpt lat="42.7457" lon="1.54551">
        <ele>1519.083</ele>
        <time>2021-03-06T10:00:03Z</time>
      </trkpt>
      <trkpt lat="42.7457" lon="1.54549">
        <ele>1519.36</ele>
        <time>2021-03-06T10:00:05Z</time>
      </trkpt>
      <trkpt lat="42.74569" lon="1.54547">
        <ele>1519.612</ele>
        <time>2021-03-06T10:00:07Z</time>
      </trkpt>
      <trkpt lat="42.74569" lon="1.54545">
        <ele>1520.368</ele>
        <time>2021-03-06T10:00:09Z</time>
      </trkpt>
      <trkpt lat="42.74568" lon="1.54543">
        <ele>1520.783</ele>
        <time>2021-03-06T10:00:11Z</time>
      </trkpt>
      <trkpt lat="42.74568" lon="1.54541">
        <ele>1521.534</ele>
        <time>2021-03-06T10:00:13Z</time>
      </trkpt>
      <trkpt lat="42.74567" lon="1.54539">
        <ele>1521.709</ele>
        <time>2021-03-06T10:00:15Z</time>
      </trkpt>
      <trkpt lat="42.74567" lon="1.54537">
        <ele>1521.719</ele>
        <time>2021-03-06T10:00:17Z</time>
      </trkpt>
      <trkpt lat="42.74566" lon="1.54535">
        <ele>1522.293</ele>
        <time>2021-03-06T10:00:19Z</time>
      </trkpt>
      <trkpt lat="42.74566" lon="1.54533">
        <ele>1522.24</ele>
        <time>2021-03-06T10:00:21Z</time>
      </trkpt>
      <trkpt lat="42.74566" lon="1.54531">
        <ele>1522.497</ele>
        <time>2021-03-06T10:00:23Z</time>
      </trkpt>
      <trkpt lat="42.74566" lon="1.54529">
        <ele>1522.913</ele>
        <time>2021-03-06T10:00:25Z</time>
      </trkpt>
      <trkpt lat="42.74566" lon="1.54527">
        <ele>1523.078</ele>
        <time>2021-03-06T10:00:27Z</time>
      </trkpt>
      <trkpt lat="42.74565" lon="1.54525">
        <ele>1523.723</ele>
        <time>2021-03-06T10:00:29Z</time>
      </trkpt>
      <trkpt lat="42.74565" lon="1.54523">
        <ele>1523.788</ele>
        <time>2021-03-06T10:00:31Z</time>
      </trkpt>
      <trkpt lat="42.74565" lon="1.54521">
        <ele>1524.76</ele>
        <time>2021-03-06T10:00:33Z</time>
      </trkpt>
      <trkpt lat="42.74564" lon="1.54518">
        <ele>1526.163</ele>
        <time>2021-03-06T10:00:35Z</time>
      </trkpt>
      <trkpt lat="42.74564" lon="1.54517">
        <ele>1526.219</ele>
        <time>2021-03-06T10:00:37Z</time>
      </trkpt>
      <trkpt lat="42.74563" lon="1.54515">
        <ele>1525.941</ele>
        <time>2021-03-06T10:00:39Z</time>
      </trkpt>
      <trkpt lat="42.74563" lon="1.54512">
        <ele>1525.816</ele>
        <time>2021-03-06T10:00:41Z</time>
      </trkpt>
      <trkpt lat="42.74563" lon="1.5451">
        <ele>1526.598</ele>
        <time>2021-03-06T10:00:43Z</time>
      </trkpt>
      <trkpt lat="42.74563" lon="1.54508">
        <ele>1526.7</ele>
        <time>2021-03-06T10:00:45Z</time>
      </trkpt>
      <trkpt lat="42.74563" lon="1.54506">
        <ele>1527.593</ele>
        <time>2021-03-06T10:00:47Z</time>
      </trkpt>
      <trkpt lat="42.74563" lon="1.54504">
        <ele>1526.64</ele>
        <time>2021-03-06T10:00:49Z</time>
      </trkpt>
      <trkpt lat="42.74562" lon="1.54502">
        <ele>1527.126</ele>
        <time>2021-03-06T10:00:51Z</time>
      </trkpt>
      <trkpt lat="42.74562" lon="1.54499">
        <ele>1528.129</ele>
        <time>2021-03-06T10:00:53Z</time>
      </trkpt>
      <trkpt lat="42.74562" lon="1.54497">
        <ele>1529.551</ele>
        <time>2021-03-06T10:00:55Z</time>
      </trkpt>
      <trkpt lat="42.7456" lon="1.54495">
        <ele>1530.399</ele>
        <time>2021-03-06T10:00:57Z</time>
      </trkpt>
      <trkpt lat="42.74559" lon="1.54494">
        <ele>1530.766</ele>
        <time>2021-03-06T10:00:59Z</time>
      </trkpt>
      <trkpt lat="42.74558" lon="1.54493">
        <ele>1531.096</ele>
        <time>2021-03-06T10:01:01Z</time>
      </trkpt>
      <trkpt lat="42.74557" lon="1.54492">
        <ele>1532.18</ele>
        <time>2021-03-06T10:01:03Z</time>
      </trkpt>
      <trkpt lat="42.74556" lon="1.5449">
        <ele>1531.907</ele>
        <time>2021-03-06T10:01:05Z</time>
      </trkpt>
      <trkpt lat="42.74554" lon="1.5449">
        <ele>1532.755</ele>
        <time>2021-03-06T10:01:07Z</time>
      </trkpt>
      <trkpt lat="42.74553" lon="1.5449">
        <ele>1533.086</ele>
        <time>2021-03-06T10:01:09Z</time>
      </trkpt>
      <trkpt lat="42.74552" lon="1.54491">
        <ele>1533.517</ele>
        <time>2021-03-06T10:01:11Z</time>
      </trkpt>
      <trkpt lat="42.7455" lon="1.54491">
        <ele>1533.423</ele>
        <time>2021-03-06T10:01:13Z</time>
      </trkpt>
      <trkpt lat="42.74549" lon="1.54493">
        <ele>1533.521</ele>
        <time>2021-03-06T10:01:15Z</time>
      </trkpt>
      <trkpt lat="42.74548" lon="1.54495">
        <ele>1534.433</ele>
        <time>2021-03-06T10:01:17Z</time>
      </trkpt>
      <trkpt lat="42.74547" lon="1.54497">
        <ele>1535.577</ele>
        <time>2021-03-06T10:01:19Z</time>
      </trkpt>
      <trkpt lat="42.74546" lon="1.54498">
        <ele>1536.054</ele>
        <time>2021-03-06T10:01:21Z</time>
      </trkpt>
      <trkpt lat="42.74545" lon="1.545">
        <ele>1536.056</ele>
        <time>2021-03-06T10:01:23Z</time>
      </trkpt>
      <trkpt lat="42.74544" lon="1.54501">
        <ele>1536.563</ele>
        <time>2021-03-06T10:01:25Z</time>
      </trkpt>
      <trkpt lat="42.74543" lon="1.54502">
        <ele>1536.483</ele>
        <time>2021-03-06T10:01:27Z</time>
      </trkpt>
      <trkpt lat="42.74542" lon="1.54503">
        <ele>1537.025</ele>
        <time>2021-03-06T10:01:29Z</time>
      </trkpt>
      <trkpt lat="42.7454" lon="1.54504">
        <ele>1537.578</ele>
        <time>2021-03-06T10:01:31Z</time>
      </trkpt>
      <trkpt lat="42.74539" lon="1.54505">
        <ele>1538.161</ele>
        <time>2021-03-06T10:01:33Z</time>
      </trkpt>
      <trkpt lat="42.74537" lon="1.54505">
        <ele>1538.264</ele>
        <time>2021-03-06T10:01:35Z</time>
      </trkpt>
      <trkpt lat="42.74536" lon="1.54505">
        <ele>1538.66</ele>
        <time>2021-03-06T10:01:37Z</time>
      </trkpt>
      <trkpt lat="42.74535" lon="1.54505">
        <ele>1539.174</ele>
        <time>2021-03-06T10:01:39Z</time>
      </trkpt>
      <trkpt lat="42.74533" lon="1.54506">
        <ele>1539.695</ele>
        <time>2021-03-06T10:01:41Z</time>
      </trkpt>
      <trkpt lat="42.74532" lon="1.54506">
        <ele>1540.418</ele>
        <time>2021-03-06T10:01:43Z</time>
      </trkpt>
      <trkpt lat="42.74531" lon="1.54506">
        <ele>1540.817</ele>
        <time>2021-03-06T10:01:45Z</time>
      </trkpt>
      <trkpt lat="42.74529" lon="1.54506">
        <ele>1541.928</ele>
        <time>2021-03-06T10:01:47Z</time>
      </trkpt>
      <trkpt lat="42.74528" lon="1.54506">
        <ele>1542.115</ele>
        <time>2021-03-06T10:01:49Z</time>
      </trkpt>
      <trkpt lat="42.74527" lon="1.54505">
        <ele>1541.475</ele>
        <time>2021-03-06T10:01:51Z</time>
      </trkpt>
      <trkpt lat="42.74526" lon="1.54505">
        <ele>1541.654</ele>
        <time>2021-03-06T10:01:53Z</time>
      </trkpt>
      <trkpt lat="42.74525" lon="1.54506">
        <ele>1541.917</ele>
        <time>2021-03-06T10:01:55Z</time>
      </trkpt>
      <trkpt lat="42.74524" lon="1.54507">
        <ele>1542.142</ele>
        <time>2021-03-06T10:01:57Z</time>
      </trkpt>
      <trkpt lat="42.74523" lon="1.54505">
        <ele>1541.731</ele>
        <time>2021-03-06T10:01:59Z</time>
      </trkpt>
      <trkpt lat="42.74522" lon="1.54507">
        <ele>1542.43</ele>
        <time>2021-03-06T10:02:01Z</time>
      </trkpt>
      <trkpt lat="42.74521" lon="1.54508">
        <ele>1542.595</ele>
        <time>2021-03-06T10:02:03Z</time>
      </trkpt>
      <trkpt lat="42.7452" lon="1.5451">
        <ele>1542.888</ele>
        <time>2021-03-06T10:02:05Z</time>
      </trkpt>
      <trkpt lat="42.74519" lon="1.5451">
        <ele>1543.262</ele>
        <time>2021-03-06T10:02:07Z</time>
      </trkpt>
      <trkpt lat="42.74518" lon="1.54511">
        <ele>1543.303</ele>
        <time>2021-03-06T10:02:09Z</time>
      </trkpt>
      <trkpt lat="42.74517" lon="1.54511">
        <ele>1543.968</ele>
        <time>2021-03-06T10:02:11Z</time>
      </trkpt>
      <trkpt lat="42.74516" lon="1.54511">
        <ele>1544.695</ele>
        <time>2021-03-06T10:02:13Z</time>
      </trkpt>
      <trkpt lat="42.74515" lon="1.54512">
        <ele>1544.808</ele>
        <time>2021-03-06T10:02:15Z</time>
      </trkpt>
      <trkpt lat="42.74514" lon="1.54512">
        <ele>1545.054</ele>
        <time>2021-03-06T10:02:17Z</time>
      </trkpt>
      <trkpt lat="42.74512" lon="1.54512">
        <ele>1545.389</ele>
        <time>2021-03-06T10:02:19Z</time>
      </trkpt>
      <trkpt lat="42.74512" lon="1.54512">
        <ele>1545.674</ele>
        <time>2021-03-06T10:02:21Z</time>
      </trkpt>
      <trkpt lat="42.74511" lon="1.54512">
        <ele>1546.203</ele>
        <time>2021-03-06T10:02:23Z</time>
      </trkpt>
      <trkpt lat="42.7451" lon="1.54513">
        <ele>1546.761</ele>
        <time>2021-03-06T10:02:25Z</time>
      </trkpt>
      <trkpt lat="42.74508" lon="1.54513">
        <ele>1547.274</ele>
        <time>2021-03-06T10:02:27Z</time>
      </trkpt>
      <trkpt lat="42.74507" lon="1.54513">
        <ele>1546.664</ele>
        <time>2021-03-06T10:02:29Z</time>
      </trkpt>
      <trkpt lat="42.74506" lon="1.54513">
        <ele>1546.501</ele>
        <time>2021-03-06T10:02:31Z</time>
      </trkpt>
      <trkpt lat="42.74506" lon="1.54513">
        <ele>1546.372</ele>
        <time>2021-03-06T10:02:33Z</time>
      </trkpt>
      <trkpt lat="42.74505" lon="1.54513">
        <ele>1546.384</ele>
        <time>2021-03-06T10:02:35Z</time>
      </trkpt>
      <trkpt lat="42.74503" lon="1.54513">
        <ele>1547.355</ele>
        <time>2021-03-06T10:02:37Z</time>
      </trkpt>
      <trkpt lat="42.74502" lon="1.54513">
        <ele>1548.05</ele>
        <time>2021-03-06T10:02:39Z</time>
      </trkpt>
      <trkpt lat="42.74501" lon="1.54513">
        <ele>1548.403</ele>
        <time>2021-03-06T10:02:41Z</time>
      </trkpt>
      <trkpt lat="42.745" lon="1.54513">
        <ele>1548.64</ele>
        <time>2021-03-06T10:02:43Z</time>
      </trkpt>
      <trkpt lat="42.74498" lon="1.54513">
        <ele>1549.442</ele>
        <time>2021-03-06T10:02:45Z</time>
      </trkpt>
      <trkpt lat="42.74497" lon="1.54513">
        <ele>1549.983</ele>
        <time>2021-03-06T10:02:47Z</time>
      </trkpt>
      <trkpt lat="42.74495" lon="1.54514">
        <ele>1549.938</ele>
        <time>2021-03-06T10:02:49Z</time>
      </trkpt>
      <trkpt lat="42.74494" lon="1.54514">
        <ele>1550.459</ele>
        <time>2021-03-06T10:02:51Z</time>
      </trkpt>
      <trkpt lat="42.74492" lon="1.54515">
        <ele>1550.342</ele>
        <time>2021-03-06T10:02:53Z</time>
      </trkpt>
      <trkpt lat="42.74491" lon="1.54515">
        <ele>1550.889</ele>
        <time>2021-03-06T10:02:55Z</time>
      </trkpt>
      <trkpt lat="42.7449" lon="1.54515">
        <ele>1550.989</ele>
        <time>2021-03-06T10:02:57Z</time>
      </trkpt>
      <trkpt lat="42.74489" lon="1.54515">
        <ele>1551.86</ele>
        <time>2021-03-06T10:02:59Z</time>
      </trkpt>
      <trkpt lat="42.74487" lon="1.54515">
        <ele>1552.428</ele>
        <time>2021-03-06T10:03:01Z</time>
      </trkpt>
      <trkpt lat="42.74486" lon="1.54515">
        <ele>1552.164</ele>
        <time>2021-03-06T10:03:03Z</time>
      </trkpt>
      <trkpt lat="42.74484" lon="1.54515">
        <ele>1552.544</ele>
        <time>2021-03-06T10:03:05Z</time>
      </trkpt>
      <trkpt lat="42.74483" lon="1.54515">
        <ele>1553.166</ele>
        <time>2021-03-06T10:03:07Z</time>
      </trkpt>
      <trkpt lat="42.74481" lon="1.54514">
        <ele>1553.957</ele>
        <time>2021-03-06T10:03:09Z</time>
      </trkpt>
      <trkpt lat="42.7448" lon="1.54514">
        <ele>1554.177</ele>
        <time>2021-03-06T10:03:11Z</time>
      </trkpt>
      <trkpt lat="42.74479" lon="1.54514">
        <ele>1554.983</ele>
        <time>2021-03-06T10:03:13Z</time>
      </trkpt>
      <trkpt lat="42.74477" lon="1.54513">
        <ele>1556.154</ele>
        <time>2021-03-06T10:03:15Z</time>
      </trkpt>
      <trkpt lat="42.74476" lon="1.54513">
        <ele>1556.962</ele>
        <time>2021-03-06T10:03:17Z</time>
      </trkpt>
      <trkpt lat="42.74474" lon="1.54513">
        <ele>1557.357</ele>
        <time>2021-03-06T10:03:19Z</time>
      </trkpt>
      <trkpt lat="42.74473" lon="1.54512">
        <ele>1558.456</ele>
        <time>2021-03-06T10:03:21Z</time>
      </trkpt>
      <trkpt lat="42.74471" lon="1.54512">
        <ele>1559.056</ele>
        <time>2021-03-06T10:03:23Z</time>
      </trkpt>
      <trkpt lat="42.7447" lon="1.54511">
        <ele>1558.971</ele>
        <time>2021-03-06T10:03:25Z</time>
      </trkpt>
      <trkpt lat="42.74469" lon="1.5451">
        <ele>1559.977</ele>
        <time>2021-03-06T10:03:27Z</time>
      </trkpt>
      <trkpt lat="42.74468" lon="1.5451">
        <ele>1560.544</ele>
        <time>2021-03-06T10:03:29Z</time>
      </trkpt>
      <trkpt lat="42.74466" lon="1.54509">
        <ele>1561.253</ele>
        <time>2021-03-06T10:03:31Z</time>
      </trkpt>
      <trkpt lat="42.74465" lon="1.54509">
        <ele>1561.558</ele>
        <time>2021-03-06T10:03:33Z</time>
      </trkpt>
      <trkpt lat="42.74463" lon="1.54508">
        <ele>1561.478</ele>
        <time>2021-03-06T10:03:35Z</time>
      </trkpt>
      <trkpt lat="42.74462" lon="1.54508">
        <ele>1562.009</ele>
        <time>2021-03-06T10:03:37Z</time>
      </trkpt>
      <trkpt lat="42.74461" lon="1.54507">
        <ele>1562.188</ele>
        <time>2021-03-06T10:03:39Z</time>
      </trkpt>
      <trkpt lat="42.74459" lon="1.54507">
        <ele>1562.992</ele>
        <time>2021-03-06T10:03:41Z</time>
      </trkpt>
      <trkpt lat="42.74458" lon="1.54506">
        <ele>1563.504</ele>
        <time>2021-03-06T10:03:43Z</time>
      </trkpt>
      <trkpt lat="42.74457" lon="1.54506">
        <ele>1563.846</ele>
        <time>2021-03-06T10:03:45Z</time>
      </trkpt>
      <trkpt lat="42.74455" lon="1.54505">
        <ele>1563.311</ele>
        <time>2021-03-06T10:03:47Z</time>
      </trkpt>
      <trkpt lat="42.74454" lon="1.54505">
        <ele>1563.678</ele>
        <time>2021-03-06T10:03:49Z</time>
      </trkpt>
      <trkpt lat="42.74453" lon="1.54504">
        <ele>1563.96</ele>
        <time>2021-03-06T10:03:51Z</time>
      </trkpt>
      <trkpt lat="42.74451" lon="1.54504">
        <ele>1564.214</ele>
        <time>2021-03-06T10:03:53Z</time>
      </trkpt>
      <trkpt lat="42.7445" lon="1.54503">
        <ele>1564.963</ele>
        <time>2021-03-06T10:03:55Z</time>
      </trkpt>
      <trkpt lat="42.74449" lon="1.54502">
        <ele>1565.361</ele>
        <time>2021-03-06T10:03:57Z</time>
      </trkpt>
      <trkpt lat="42.74448" lon="1.54501">
        <ele>1565.809</ele>
        <time>2021-03-06T10:03:59Z</time>
      </trkpt>
      <trkpt lat="42.74446" lon="1.545">
        <ele>1566.502</ele>
        <time>2021-03-06T10:04:02Z</time>
      </trkpt>
      <trkpt lat="42.74445" lon="1.54499">
        <ele>1566.997</ele>
        <time>2021-03-06T10:04:04Z</time>
      </trkpt>
      <trkpt lat="42.74444" lon="1.54499">
        <ele>1567.464</ele>
        <time>2021-03-06T10:04:06Z</time>
      </trkpt>
      <trkpt lat="42.74442" lon="1.54498">
        <ele>1567.364</ele>
        <time>2021-03-06T10:04:08Z</time>
      </trkpt>
      <trkpt lat="42.74441" lon="1.54498">
        <ele>1568.186</ele>
        <time>2021-03-06T10:04:10Z</time>
      </trkpt>
      <trkpt lat="42.7444" lon="1.54497">
        <ele>1568.809</ele>
        <time>2021-03-06T10:04:12Z</time>
      </trkpt>
      <trkpt lat="42.74438" lon="1.54496">
        <ele>1569.607</ele>
        <time>2021-03-06T10:04:14Z</time>
      </trkpt>
      <trkpt lat="42.74437" lon="1.54495">
        <ele>1570.378</ele>
        <time>2021-03-06T10:04:16Z</time>
      </trkpt>
      <trkpt lat="42.74437" lon="1.54495">
        <ele>1570.24</ele>
        <time>2021-03-06T10:04:18Z</time>
      </trkpt>
      <trkpt lat="42.74435" lon="1.54495">
        <ele>1570.429</ele>
        <time>2021-03-06T10:04:20Z</time>
      </trkpt>
      <trkpt lat="42.74434" lon="1.54494">
        <ele>1570.571</ele>
        <time>2021-03-06T10:04:22Z</time>
      </trkpt>
      <trkpt lat="42.74433" lon="1.54494">
        <ele>1570.666</ele>
        <time>2021-03-06T10:04:24Z</time>
      </trkpt>
      <trkpt lat="42.74432" lon="1.54493">
        <ele>1571.349</ele>
        <time>2021-03-06T10:04:26Z</time>
      </trkpt>
      <trkpt lat="42.7443" lon="1.54492">
        <ele>1571.576</ele>
        <time>2021-03-06T10:04:28Z</time>
      </trkpt>
      <trkpt lat="42.74429" lon="1.54491">
        <ele>1571.68</ele>
        <time>2021-03-06T10:04:30Z</time>
      </trkpt>
      <trkpt lat="42.74428" lon="1.54491">
        <ele>1571.85</ele>
        <time>2021-03-06T10:04:32Z</time>
      </trkpt>
      <trkpt lat="42.74426" lon="1.5449">
        <ele>1572.25</ele>
        <time>2021-03-06T10:04:34Z</time>
      </trkpt>
      <trkpt lat="42.74425" lon="1.5449">
        <ele>1572.926</ele>
        <time>2021-03-06T10:04:36Z</time>
      </trkpt>
      <trkpt lat="42.74424" lon="1.54489">
        <ele>1573.33</ele>
        <time>2021-03-06T10:04:38Z</time>
      </trkpt>
      <trkpt lat="42.74422" lon="1.54489">
        <ele>1573.976</ele>
        <time>2021-03-06T10:04:40Z</time>
      </trkpt>
      <trkpt lat="42.74421" lon="1.54488">
        <ele>1574.417</ele>
        <time>2021-03-06T10:04:42Z</time>
      </trkpt>
      <trkpt lat="42.74419" lon="1.54488">
        <ele>1575.006</ele>
        <time>2021-03-06T10:04:44Z</time>
      </trkpt>
      <trkpt lat="42.74418" lon="1.54488">
        <ele>1575.332</ele>
        <time>2021-03-06T10:04:46Z</time>
      </trkpt>
      <trkpt lat="42.74418" lon="1.54488">
        <ele>1575.239</ele>
        <time>2021-03-06T10:04:48Z</time>
      </trkpt>
      <trkpt lat="42.74417" lon="1.54488">
        <ele>1575.573</ele>
        <time>2021-03-06T10:04:50Z</time>
      </trkpt>
      <trkpt lat="42.74417" lon="1.54488">
        <ele>1575.584</ele>
        <time>2021-03-06T10:04:52Z</time>
      </trkpt>
      <trkpt lat="42.74417" lon="1.54488">
        <ele>1575.635</ele>
        <time>2021-03-06T10:04:54Z</time>
      </trkpt>
      <trkpt lat="42.74416" lon="1.54489">
        <ele>1575.949</ele>
        <time>2021-03-06T10:04:56Z</time>
      </trkpt>
      <trkpt lat="42.74417" lon="1.5449">
        <ele>1575.948</ele>
        <time>2021-03-06T10:04:58Z</time>
      </trkpt>
      <trkpt lat="42.74417" lon="1.5449">
        <ele>1575.935</ele>
        <time>2021-03-06T10:05:00Z</time>
      </trkpt>
      <trkpt lat="42.74417" lon="1.5449">
        <ele>1575.929</ele>
        <time>2021-03-06T10:05:02Z</time>
      </trkpt>
      <trkpt lat="42.74417" lon="1.5449">
        <ele>1575.927</ele>
        <time>2021-03-06T10:05:04Z</time>
      </trkpt>
      <trkpt lat="42.74417" lon="1.5449">
        <ele>1576.068</ele>
        <time>2021-03-06T10:05:06Z</time>
      </trkpt>
      <trkpt lat="42.74417" lon="1.54491">
        <ele>1576.84</ele>
        <time>2021-03-06T10:05:08Z</time>
      </trkpt>
      <trkpt lat="42.74417" lon="1.54491">
        <ele>1576.716</ele>
        <time>2021-03-06T10:05:10Z</time>
      </trkpt>
      <trkpt lat="42.74417" lon="1.54491">
        <ele>1576.707</ele>
        <time>2021-03-06T10:05:12Z</time>
      </trkpt>
      <trkpt lat="42.74417" lon="1.54491">
        <ele>1576.701</ele>
        <time>2021-03-06T10:05:14Z</time>
      </trkpt>
      <trkpt lat="42.74417" lon="1.54491">
        <ele>1577.078</ele>
        <time>2021-03-06T10:05:16Z</time>
      </trkpt>
      <trkpt lat="42.74417" lon="1.54491">
        <ele>1577.077</ele>
        <time>2021-03-06T10:05:18Z</time>
      </trkpt>
      <trkpt lat="42.74417" lon="1.54491">
        <ele>1577.079</ele>
        <time>2021-03-06T10:05:20Z</time>
      </trkpt>
      <trkpt lat="42.74417" lon="1.54491">
        <ele>1576.79</ele>
        <time>2021-03-06T10:05:22Z</time>
      </trkpt>
      <trkpt lat="42.74417" lon="1.54491">
        <ele>1576.786</ele>
        <time>2021-03-06T10:05:24Z</time>
      </trkpt>
      <trkpt lat="42.74417" lon="1.54491">
        <ele>1576.786</ele>
        <time>2021-03-06T10:05:26Z</time>
      </trkpt>
      <trkpt lat="42.74417" lon="1.54491">
        <ele>1576.786</ele>
        <time>2021-03-06T10:05:28Z</time>
      </trkpt>
      <trkpt lat="42.74417" lon="1.54491">
        <ele>1576.782</ele>
        <time>2021-03-06T10:05:30Z</time>
      </trkpt>
      <trkpt lat="42.74417" lon="1.54491">
        <ele>1576.785</ele>
        <time>2021-03-06T10:05:32Z</time>
      </trkpt>
      <trkpt lat="42.74417" lon="1.54491">
        <ele>1576.786</ele>
        <time>2021-03-06T10:05:34Z</time>
      </trkpt>
      <trkpt lat="42.74417" lon="1.54491">
        <ele>1576.787</ele>
        <time>2021-03-06T10:05:36Z</time>
      </trkpt>
      <trkpt lat="42.74417" lon="1.54491">
        <ele>1576.606</ele>
        <time>2021-03-06T10:05:38Z</time>
      </trkpt>
      <trkpt lat="42.74417" lon="1.5449">
        <ele>1576.636</ele>
        <time>2021-03-06T10:05:40Z</time>
      </trkpt>
      <trkpt lat="42.74415" lon="1.5449">
        <ele>1577.012</ele>
        <time>2021-03-06T10:05:42Z</time>
      </trkpt>
      <trkpt lat="42.74414" lon="1.5449">
        <ele>1577.735</ele>
        <time>2021-03-06T10:05:44Z</time>
      </trkpt>
      <trkpt lat="42.74412" lon="1.5449">
        <ele>1578.489</ele>
        <time>2021-03-06T10:05:46Z</time>
      </trkpt>
      <trkpt lat="42.74411" lon="1.5449">
        <ele>1578.592</ele>
        <time>2021-03-06T10:05:48Z</time>
      </trkpt>
      <trkpt lat="42.74409" lon="1.5449">
        <ele>1578.765</ele>
        <time>2021-03-06T10:05:50Z</time>
      </trkpt>
      <trkpt lat="42.74408" lon="1.54491">
        <ele>1578.882</ele>
        <time>2021-03-06T10:05:52Z</time>
      </trkpt>
      <trkpt lat="42.74406" lon="1.54491">
        <ele>1579.438</ele>
        <time>2021-03-06T10:05:54Z</time>
      </trkpt>
      <trkpt lat="42.74404" lon="1.54491">
        <ele>1579.607</ele>
        <time>2021-03-06T10:05:56Z</time>
      </trkpt>
      <trkpt lat="42.74403" lon="1.5449">
        <ele>1579.872</ele>
        <time>2021-03-06T10:05:58Z</time>
      </trkpt>
      <trkpt lat="42.74401" lon="1.54489">
        <ele>1579.861</ele>
        <time>2021-03-06T10:06:00Z</time>
      </trkpt>
      <trkpt lat="42.744" lon="1.54487">
        <ele>1579.501</ele>
        <time>2021-03-06T10:06:02Z</time>
      </trkpt>
      <trkpt lat="42.74399" lon="1.54486">
        <ele>1579.927</ele>
        <time>2021-03-06T10:06:04Z</time>
      </trkpt>
      <trkpt lat="42.74398" lon="1.54484">
        <ele>1581.437</ele>
        <time>2021-03-06T10:06:06Z</time>
      </trkpt>
      <trkpt lat="42.74397" lon="1.54483">
        <ele>1581.373</ele>
        <time>2021-03-06T10:06:08Z</time>
      </trkpt>
      <trkpt lat="42.74396" lon="1.54481">
        <ele>1581.191</ele>
        <time>2021-03-06T10:06:10Z</time>
      </trkpt>
      <trkpt lat="42.74395" lon="1.54479">
        <ele>1581.368</ele>
        <time>2021-03-06T10:06:12Z</time>
      </trkpt>
      <trkpt lat="42.74394" lon="1.54476">
        <ele>1581.513</ele>
        <time>2021-03-06T10:06:14Z</time>
      </trkpt>
      <trkpt lat="42.74394" lon="1.54475">
        <ele>1581.887</ele>
        <time>2021-03-06T10:06:16Z</time>
      </trkpt>
      <trkpt lat="42.74395" lon="1.54473">
        <ele>1582.072</ele>
        <time>2021-03-06T10:06:18Z</time>
      </trkpt>
      <trkpt lat="42.74396" lon="1.54471">
        <ele>1582.677</ele>
        <time>2021-03-06T10:06:20Z</time>
      </trkpt>
      <trkpt lat="42.74396" lon="1.5447">
        <ele>1582.894</ele>
        <time>2021-03-06T10:06:22Z</time>
      </trkpt>
      <trkpt lat="42.74398" lon="1.54468">
        <ele>1583.452</ele>
        <time>2021-03-06T10:06:24Z</time>
      </trkpt>
      <trkpt lat="42.74399" lon="1.54467">
        <ele>1583.914</ele>
        <time>2021-03-06T10:06:26Z</time>
      </trkpt>
      <trkpt lat="42.744" lon="1.54466">
        <ele>1584.301</ele>
        <time>2021-03-06T10:06:28Z</time>
      </trkpt>
      <trkpt lat="42.74402" lon="1.54465">
        <ele>1584.489</ele>
        <time>2021-03-06T10:06:30Z</time>
      </trkpt>
      <trkpt lat="42.74403" lon="1.54464">
        <ele>1585.014</ele>
        <time>2021-03-06T10:06:32Z</time>
      </trkpt>
      <trkpt lat="42.74404" lon="1.54463">
        <ele>1585.201</ele>
        <time>2021-03-06T10:06:34Z</time>
      </trkpt>
      <trkpt lat="42.74406" lon="1.54462">
        <ele>1585.384</ele>
        <time>2021-03-06T10:06:36Z</time>
      </trkpt>
      <trkpt lat="42.74407" lon="1.54461">
        <ele>1585.325</ele>
        <time>2021-03-06T10:06:38Z</time>
      </trkpt>
      <trkpt lat="42.74408" lon="1.5446">
        <ele>1585.394</ele>
        <time>2021-03-06T10:06:40Z</time>
      </trkpt>
      <trkpt lat="42.7441" lon="1.54459">
        <ele>1585.401</ele>
        <time>2021-03-06T10:06:42Z</time>
      </trkpt>
      <trkpt lat="42.74411" lon="1.54458">
        <ele>1585.593</ele>
        <time>2021-03-06T10:06:44Z</time>
      </trkpt>
      <trkpt lat="42.74412" lon="1.54457">
        <ele>1585.965</ele>
        <time>2021-03-06T10:06:46Z</time>
      </trkpt>
      <trkpt lat="42.74413" lon="1.54456">
        <ele>1586.042</ele>
        <time>2021-03-06T10:06:48Z</time>
      </trkpt>
      <trkpt lat="42.74415" lon="1.54455">
        <ele>1586.612</ele>
        <time>2021-03-06T10:06:50Z</time>
      </trkpt>
      <trkpt lat="42.74416" lon="1.54454">
        <ele>1586.802</ele>
        <time>2021-03-06T10:06:52Z</time>
      </trkpt>
      <trkpt lat="42.74417" lon="1.54454">
        <ele>1586.722</ele>
        <time>2021-03-06T10:06:54Z</time>
      </trkpt>
      <trkpt lat="42.74419" lon="1.54453">
        <ele>1587</ele>
        <time>2021-03-06T10:06:56Z</time>
      </trkpt>
      <trkpt lat="42.7442" lon="1.54452">
        <ele>1587.114</ele>
        <time>2021-03-06T10:06:58Z</time>
      </trkpt>
      <trkpt lat="42.74421" lon="1.54451">
        <ele>1587.6</ele>
        <time>2021-03-06T10:07:00Z</time>
      </trkpt>
      <trkpt lat="42.74422" lon="1.5445">
        <ele>1587.897</ele>
        <time>2021-03-06T10:07:02Z</time>
      </trkpt>
      <trkpt lat="42.74423" lon="1.54449">
        <ele>1588.612</ele>
        <time>2021-03-06T10:07:04Z</time>
      </trkpt>
      <trkpt lat="42.74425" lon="1.54448">
        <ele>1589.154</ele>
        <time>2021-03-06T10:07:06Z</time>
      </trkpt>
      <trkpt lat="42.74426" lon="1.54447">
        <ele>1589.567</ele>
        <time>2021-03-06T10:07:08Z</time>
      </trkpt>
      <trkpt lat="42.74427" lon="1.54446">
        <ele>1589.454</ele>
        <time>2021-03-06T10:07:10Z</time>
      </trkpt>
      <trkpt lat="42.74428" lon="1.54445">
        <ele>1589.978</ele>
        <time>2021-03-06T10:07:12Z</time>
      </trkpt>
      <trkpt lat="42.74429" lon="1.54444">
        <ele>1589.718</ele>
        <time>2021-03-06T10:07:14Z</time>
      </trkpt>
      <trkpt lat="42.74431" lon="1.54442">
        <ele>1590.526</ele>
        <time>2021-03-06T10:07:16Z</time>
      </trkpt>
      <trkpt lat="42.74432" lon="1.54441">
        <ele>1590.538</ele>
        <time>2021-03-06T10:07:18Z</time>
      </trkpt>
      <trkpt lat="42.74433" lon="1.54439">
        <ele>1591.128</ele>
        <time>2021-03-06T10:07:20Z</time>
      </trkpt>
      <trkpt lat="42.74435" lon="1.54437">
        <ele>1591.427</ele>
        <time>2021-03-06T10:07:22Z</time>
      </trkpt>
      <trkpt lat="42.74436" lon="1.54436">
        <ele>1591.521</ele>
        <time>2021-03-06T10:07:24Z</time>
      </trkpt>
      <trkpt lat="42.74437" lon="1.54434">
        <ele>1591.718</ele>
        <time>2021-03-06T10:07:26Z</time>
      </trkpt>
      <trkpt lat="42.74438" lon="1.54432">
        <ele>1592.183</ele>
        <time>2021-03-06T10:07:28Z</time>
      </trkpt>
      <trkpt lat="42.74438" lon="1.5443">
        <ele>1593.15</ele>
        <time>2021-03-06T10:07:30Z</time>
      </trkpt>
      <trkpt lat="42.74439" lon="1.54428">
        <ele>1594.334</ele>
        <time>2021-03-06T10:07:32Z</time>
      </trkpt>
      <trkpt lat="42.7444" lon="1.54426">
        <ele>1594.603</ele>
        <time>2021-03-06T10:07:34Z</time>
      </trkpt>
      <trkpt lat="42.74441" lon="1.54424">
        <ele>1594.675</ele>
        <time>2021-03-06T10:07:36Z</time>
      </trkpt>
      <trkpt lat="42.74442" lon="1.54422">
        <ele>1595.879</ele>
        <time>2021-03-06T10:07:38Z</time>
      </trkpt>
      <trkpt lat="42.74443" lon="1.5442">
        <ele>1596.708</ele>
        <time>2021-03-06T10:07:40Z</time>
      </trkpt>
      <trkpt lat="42.74444" lon="1.54417">
        <ele>1596.93</ele>
        <time>2021-03-06T10:07:42Z</time>
      </trkpt>
      <trkpt lat="42.74445" lon="1.54415">
        <ele>1597.652</ele>
        <time>2021-03-06T10:07:44Z</time>
      </trkpt>
      <trkpt lat="42.74445" lon="1.54413">
        <ele>1597.763</ele>
        <time>2021-03-06T10:07:46Z</time>
      </trkpt>
      <trkpt lat="42.74446" lon="1.5441">
        <ele>1597.5</ele>
        <time>2021-03-06T10:07:48Z</time>
      </trkpt>
      <trkpt lat="42.74448" lon="1.54409">
        <ele>1599.056</ele>
        <time>2021-03-06T10:07:50Z</time>
      </trkpt>
      <trkpt lat="42.74448" lon="1.54407">
        <ele>1599.449</ele>
        <time>2021-03-06T10:07:52Z</time>
      </trkpt>
      <trkpt lat="42.74449" lon="1.54405">
        <ele>1600.161</ele>
        <time>2021-03-06T10:07:54Z</time>
      </trkpt>
      <trkpt lat="42.7445" lon="1.54403">
        <ele>1600.828</ele>
        <time>2021-03-06T10:07:56Z</time>
      </trkpt>
      <trkpt lat="42.74451" lon="1.54401">
        <ele>1601.263</ele>
        <time>2021-03-06T10:07:58Z</time>
      </trkpt>
      <trkpt lat="42.74451" lon="1.54399">
        <ele>1601.546</ele>
        <time>2021-03-06T10:08:00Z</time>
      </trkpt>
      <trkpt lat="42.74452" lon="1.54398">
        <ele>1601.603</ele>
        <time>2021-03-06T10:08:02Z</time>
      </trkpt>
      <trkpt lat="42.74453" lon="1.54396">
        <ele>1601.976</ele>
        <time>2021-03-06T10:08:04Z</time>
      </trkpt>
      <trkpt lat="42.74454" lon="1.54394">
        <ele>1602.285</ele>
        <time>2021-03-06T10:08:06Z</time>
      </trkpt>
      <trkpt lat="42.74454" lon="1.54392">
        <ele>1601.965</ele>
        <time>2021-03-06T10:08:08Z</time>
      </trkpt>
      <trkpt lat="42.74454" lon="1.54391">
        <ele>1602.738</ele>
        <time>2021-03-06T10:08:10Z</time>
      </trkpt>
      <trkpt lat="42.74454" lon="1.54389">
        <ele>1603.331</ele>
        <time>2021-03-06T10:08:12Z</time>
      </trkpt>
      <trkpt lat="42.74454" lon="1.54386">
        <ele>1603.086</ele>
        <time>2021-03-06T10:08:14Z</time>
      </trkpt>
      <trkpt lat="42.74454" lon="1.54385">
        <ele>1603.646</ele>
        <time>2021-03-06T10:08:16Z</time>
      </trkpt>
      <trkpt lat="42.74453" lon="1.54384">
        <ele>1603.681</ele>
        <time>2021-03-06T10:08:18Z</time>
      </trkpt>
      <trkpt lat="42.74452" lon="1.54382">
        <ele>1604.542</ele>
        <time>2021-03-06T10:08:20Z</time>
      </trkpt>
      <trkpt lat="42.74451" lon="1.54382">
        <ele>1604.517</ele>
        <time>2021-03-06T10:08:22Z</time>
      </trkpt>
      <trkpt lat="42.7445" lon="1.54381">
        <ele>1605.075</ele>
        <time>2021-03-06T10:08:24Z</time>
      </trkpt>
      <trkpt lat="42.74449" lon="1.5438">
        <ele>1605.29</ele>
        <time>2021-03-06T10:08:26Z</time>
      </trkpt>
      <trkpt lat="42.74448" lon="1.5438">
        <ele>1605.262</ele>
        <time>2021-03-06T10:08:28Z</time>
      </trkpt>
      <trkpt lat="42.74447" lon="1.54379">
        <ele>1605.39</ele>
        <time>2021-03-06T10:08:30Z</time>
      </trkpt>
      <trkpt lat="42.74446" lon="1.54378">
        <ele>1605.365</ele>
        <time>2021-03-06T10:08:32Z</time>
      </trkpt>
      <trkpt lat="42.74445" lon="1.54377">
        <ele>1605.595</ele>
        <time>2021-03-06T10:08:34Z</time>
      </trkpt>
      <trkpt lat="42.74444" lon="1.54376">
        <ele>1605.87</ele>
        <time>2021-03-06T10:08:36Z</time>
      </trkpt>
      <trkpt lat="42.74442" lon="1.54376">
        <ele>1606.86</ele>
        <time>2021-03-06T10:08:38Z</time>
      </trkpt>
      <trkpt lat="42.74441" lon="1.54375">
        <ele>1606.967</ele>
        <time>2021-03-06T10:08:40Z</time>
      </trkpt>
      <trkpt lat="42.7444" lon="1.54374">
        <ele>1607.119</ele>
        <time>2021-03-06T10:08:42Z</time>
      </trkpt>
      <trkpt lat="42.74439" lon="1.54373">
        <ele>1608.099</ele>
        <time>2021-03-06T10:08:44Z</time>
      </trkpt>
      <trkpt lat="42.74438" lon="1.54372">
        <ele>1608.397</ele>
        <time>2021-03-06T10:08:46Z</time>
      </trkpt>
      <trkpt lat="42.74437" lon="1.54371">
        <ele>1608.896</ele>
        <time>2021-03-06T10:08:48Z</time>
      </trkpt>
      <trkpt lat="42.74436" lon="1.5437">
        <ele>1608.984</ele>
        <time>2021-03-06T10:08:50Z</time>
      </trkpt>
      <trkpt lat="42.74436" lon="1.54369">
        <ele>1609.021</ele>
        <time>2021-03-06T10:08:52Z</time>
      </trkpt>
      <trkpt lat="42.74435" lon="1.54368">
        <ele>1609.217</ele>
        <time>2021-03-06T10:08:54Z</time>
      </trkpt>
      <trkpt lat="42.74433" lon="1.54368">
        <ele>1609.882</ele>
        <time>2021-03-06T10:08:56Z</time>
      </trkpt>
      <trkpt lat="42.74432" lon="1.54367">
        <ele>1610.477</ele>
        <time>2021-03-06T10:08:58Z</time>
      </trkpt>
      <trkpt lat="42.74431" lon="1.54366">
        <ele>1611.47</ele>
        <time>2021-03-06T10:09:00Z</time>
      </trkpt>
      <trkpt lat="42.7443" lon="1.54365">
        <ele>1612.108</ele>
        <time>2021-03-06T10:09:02Z</time>
      </trkpt>
      <trkpt lat="42.74429" lon="1.54364">
        <ele>1612.505</ele>
        <time>2021-03-06T10:09:04Z</time>
      </trkpt>
      <trkpt lat="42.74427" lon="1.54363">
        <ele>1612.211</ele>
        <time>2021-03-06T10:09:06Z</time>
      </trkpt>
      <trkpt lat="42.74426" lon="1.54362">
        <ele>1612.518</ele>
        <time>2021-03-06T10:09:08Z</time>
      </trkpt>
      <trkpt lat="42.74425" lon="1.54361">
        <ele>1613.26</ele>
        <time>2021-03-06T10:09:10Z</time>
      </trkpt>
      <trkpt lat="42.74424" lon="1.5436">
        <ele>1613.883</ele>
        <time>2021-03-06T10:09:12Z</time>
      </trkpt>
      <trkpt lat="42.74422" lon="1.5436">
        <ele>1614.37</ele>
        <time>2021-03-06T10:09:14Z</time>
      </trkpt>
      <trkpt lat="42.74421" lon="1.54359">
        <ele>1614.852</ele>
        <time>2021-03-06T10:09:16Z</time>
      </trkpt>
      <trkpt lat="42.7442" lon="1.54358">
        <ele>1615.25</ele>
        <time>2021-03-06T10:09:18Z</time>
      </trkpt>
      <trkpt lat="42.74418" lon="1.54358">
        <ele>1615.22</ele>
        <time>2021-03-06T10:09:20Z</time>
      </trkpt>
      <trkpt lat="42.74417" lon="1.54357">
        <ele>1615.951</ele>
        <time>2021-03-06T10:09:22Z</time>
      </trkpt>
      <trkpt lat="42.74416" lon="1.54357">
        <ele>1617.056</ele>
        <time>2021-03-06T10:09:24Z</time>
      </trkpt>
      <trkpt lat="42.74414" lon="1.54356">
        <ele>1617.362</ele>
        <time>2021-03-06T10:09:26Z</time>
      </trkpt>
      <trkpt lat="42.74413" lon="1.54356">
        <ele>1617.845</ele>
        <time>2021-03-06T10:09:28Z</time>
      </trkpt>
      <trkpt lat="42.74411" lon="1.54355">
        <ele>1617.851</ele>
        <time>2021-03-06T10:09:30Z</time>
      </trkpt>
      <trkpt lat="42.7441" lon="1.54354">
        <ele>1618.251</ele>
        <time>2021-03-06T10:09:32Z</time>
      </trkpt>
      <trkpt lat="42.74409" lon="1.54353">
        <ele>1618.908</ele>
        <time>2021-03-06T10:09:34Z</time>
      </trkpt>
      <trkpt lat="42.74407" lon="1.54352">
        <ele>1619.14</ele>
        <time>2021-03-06T10:09:36Z</time>
      </trkpt>
      <trkpt lat="42.74406" lon="1.54351">
        <ele>1620.058</ele>
        <time>2021-03-06T10:09:38Z</time>
      </trkpt>
      <trkpt lat="42.74406" lon="1.54349">
        <ele>1620.176</ele>
        <time>2021-03-06T10:09:40Z</time>
      </trkpt>
      <trkpt lat="42.74405" lon="1.54347">
        <ele>1621.022</ele>
        <time>2021-03-06T10:09:42Z</time>
      </trkpt>
      <trkpt lat="42.74405" lon="1.54345">
        <ele>1621.879</ele>
        <time>2021-03-06T10:09:44Z</time>
      </trkpt>
      <trkpt lat="42.74406" lon="1.54342">
        <ele>1622.274</ele>
        <time>2021-03-06T10:09:46Z</time>
      </trkpt>
      <trkpt lat="42.74406" lon="1.54341">
        <ele>1622.542</ele>
        <time>2021-03-06T10:09:48Z</time>
      </trkpt>
      <trkpt lat="42.74408" lon="1.54339">
        <ele>1622.84</ele>
        <time>2021-03-06T10:09:51Z</time>
      </trkpt>
      <trkpt lat="42.74409" lon="1.54338">
        <ele>1622.369</ele>
        <time>2021-03-06T10:09:53Z</time>
      </trkpt>
      <trkpt lat="42.74411" lon="1.54336">
        <ele>1622.957</ele>
        <time>2021-03-06T10:09:55Z</time>
      </trkpt>
      <trkpt lat="42.74412" lon="1.54335">
        <ele>1623.642</ele>
        <time>2021-03-06T10:09:57Z</time>
      </trkpt>
      <trkpt lat="42.74413" lon="1.54334">
        <ele>1623.614</ele>
        <time>2021-03-06T10:09:59Z</time>
      </trkpt>
      <trkpt lat="42.74414" lon="1.54333">
        <ele>1624.212</ele>
        <time>2021-03-06T10:10:01Z</time>
      </trkpt>
      <trkpt lat="42.74415" lon="1.54332">
        <ele>1623.834</ele>
        <time>2021-03-06T10:10:03Z</time>
      </trkpt>
      <trkpt lat="42.74416" lon="1.54331">
        <ele>1623.753</ele>
        <time>2021-03-06T10:10:05Z</time>
      </trkpt>
      <trkpt lat="42.74417" lon="1.5433">
        <ele>1624.15</ele>
        <time>2021-03-06T10:10:07Z</time>
      </trkpt>
      <trkpt lat="42.74418" lon="1.54329">
        <ele>1625.008</ele>
        <time>2021-03-06T10:10:09Z</time>
      </trkpt>
      <trkpt lat="42.74419" lon="1.54328">
        <ele>1625.212</ele>
        <time>2021-03-06T10:10:11Z</time>
      </trkpt>
      <trkpt lat="42.7442" lon="1.54326">
        <ele>1624.943</ele>
        <time>2021-03-06T10:10:13Z</time>
      </trkpt>
      <trkpt lat="42.74422" lon="1.54325">
        <ele>1625.377</ele>
        <time>2021-03-06T10:10:15Z</time>
      </trkpt>
      <trkpt lat="42.74422" lon="1.54324">
        <ele>1626.089</ele>
        <time>2021-03-06T10:10:17Z</time>
      </trkpt>
      <trkpt lat="42.74423" lon="1.54322">
        <ele>1626.222</ele>
        <time>2021-03-06T10:10:19Z</time>
      </trkpt>
      <trkpt lat="42.74425" lon="1.54321">
        <ele>1626.528</ele>
        <time>2021-03-06T10:10:21Z</time>
      </trkpt>
      <trkpt lat="42.74426" lon="1.5432">
        <ele>1626.764</ele>
        <time>2021-03-06T10:10:23Z</time>
      </trkpt>
      <trkpt lat="42.74427" lon="1.54318">
        <ele>1626.947</ele>
        <time>2021-03-06T10:10:25Z</time>
      </trkpt>
      <trkpt lat="42.74428" lon="1.54317">
        <ele>1628.047</ele>
        <time>2021-03-06T10:10:27Z</time>
      </trkpt>
      <trkpt lat="42.7443" lon="1.54315">
        <ele>1628.283</ele>
        <time>2021-03-06T10:10:29Z</time>
      </trkpt>
      <trkpt lat="42.7443" lon="1.54314">
        <ele>1628.466</ele>
        <time>2021-03-06T10:10:31Z</time>
      </trkpt>
      <trkpt lat="42.74431" lon="1.54312">
        <ele>1628.805</ele>
        <time>2021-03-06T10:10:33Z</time>
      </trkpt>
      <trkpt lat="42.74432" lon="1.54309">
        <ele>1629.342</ele>
        <time>2021-03-06T10:10:35Z</time>
      </trkpt>
      <trkpt lat="42.74432" lon="1.54307">
        <ele>1630.087</ele>
        <time>2021-03-06T10:10:37Z</time>
      </trkpt>
      <trkpt lat="42.74432" lon="1.54305">
        <ele>1630.549</ele>
        <time>2021-03-06T10:10:39Z</time>
      </trkpt>
      <trkpt lat="42.74432" lon="1.54303">
        <ele>1631.197</ele>
        <time>2021-03-06T10:10:41Z</time>
      </trkpt>
      <trkpt lat="42.74431" lon="1.54301">
        <ele>1631.547</ele>
        <time>2021-03-06T10:10:43Z</time>
      </trkpt>
      <trkpt lat="42.7443" lon="1.54299">
        <ele>1631.529</ele>
        <time>2021-03-06T10:10:45Z</time>
      </trkpt>
      <trkpt lat="42.7443" lon="1.54297">
        <ele>1630.822</ele>
        <time>2021-03-06T10:10:47Z</time>
      </trkpt>
      <trkpt lat="42.74429" lon="1.54296">
        <ele>1631.206</ele>
        <time>2021-03-06T10:10:49Z</time>
      </trkpt>
      <trkpt lat="42.74428" lon="1.54295">
        <ele>1631.18</ele>
        <time>2021-03-06T10:10:51Z</time>
      </trkpt>
      <trkpt lat="42.74427" lon="1.54294">
        <ele>1631.903</ele>
        <time>2021-03-06T10:10:53Z</time>
      </trkpt>
      <trkpt lat="42.74426" lon="1.54292">
        <ele>1632.598</ele>
        <time>2021-03-06T10:10:55Z</time>
      </trkpt>
      <trkpt lat="42.74425" lon="1.54292">
        <ele>1632.982</ele>
        <time>2021-03-06T10:10:57Z</time>
      </trkpt>
      <trkpt lat="42.74424" lon="1.5429">
        <ele>1633.409</ele>
        <time>2021-03-06T10:10:59Z</time>
      </trkpt>
      <trkpt lat="42.74423" lon="1.54289">
        <ele>1633.865</ele>
        <time>2021-03-06T10:11:01Z</time>
      </trkpt>
      <trkpt lat="42.74422" lon="1.54288">
        <ele>1634.39</ele>
        <time>2021-03-06T10:11:03Z</time>
      </trkpt>
      <trkpt lat="42.74421" lon="1.54287">
        <ele>1634.442</ele>
        <time>2021-03-06T10:11:05Z</time>
      </trkpt>
      <trkpt lat="42.7442" lon="1.54286">
        <ele>1634.985</ele>
        <time>2021-03-06T10:11:07Z</time>
      </trkpt>
      <trkpt lat="42.74418" lon="1.54285">
        <ele>1635.264</ele>
        <time>2021-03-06T10:11:09Z</time>
      </trkpt>
      <trkpt lat="42.74417" lon="1.54283">
        <ele>1635.739</ele>
        <time>2021-03-06T10:11:11Z</time>
      </trkpt>
      <trkpt lat="42.74416" lon="1.54282">
        <ele>1636.117</ele>
        <time>2021-03-06T10:11:13Z</time>
      </trkpt>
      <trkpt lat="42.74415" lon="1.5428">
        <ele>1636.379</ele>
        <time>2021-03-06T10:11:15Z</time>
      </trkpt>
      <trkpt lat="42.74414" lon="1.54279">
        <ele>1637.081</ele>
        <time>2021-03-06T10:11:17Z</time>
      </trkpt>
      <trkpt lat="42.74412" lon="1.54278">
        <ele>1637.34</ele>
        <time>2021-03-06T10:11:19Z</time>
      </trkpt>
      <trkpt lat="42.74411" lon="1.54276">
        <ele>1637.839</ele>
        <time>2021-03-06T10:11:21Z</time>
      </trkpt>
      <trkpt lat="42.7441" lon="1.54275">
        <ele>1638.881</ele>
        <time>2021-03-06T10:11:23Z</time>
      </trkpt>
      <trkpt lat="42.74409" lon="1.54274">
        <ele>1638.52</ele>
        <time>2021-03-06T10:11:25Z</time>
      </trkpt>
      <trkpt lat="42.74408" lon="1.54273">
        <ele>1639.681</ele>
        <time>2021-03-06T10:11:27Z</time>
      </trkpt>
      <trkpt lat="42.74407" lon="1.54272">
        <ele>1639.663</ele>
        <time>2021-03-06T10:11:29Z</time>
      </trkpt>
      <trkpt lat="42.74406" lon="1.54271">
        <ele>1639.862</ele>
        <time>2021-03-06T10:11:31Z</time>
      </trkpt>
      <trkpt lat="42.74405" lon="1.5427">
        <ele>1640.459</ele>
        <time>2021-03-06T10:11:33Z</time>
      </trkpt>
      <trkpt lat="42.74404" lon="1.54269">
        <ele>1640.685</ele>
        <time>2021-03-06T10:11:35Z</time>
      </trkpt>
      <trkpt lat="42.74403" lon="1.54268">
        <ele>1641.38</ele>
        <time>2021-03-06T10:11:37Z</time>
      </trkpt>
      <trkpt lat="42.74402" lon="1.54267">
        <ele>1641.848</ele>
        <time>2021-03-06T10:11:39Z</time>
      </trkpt>
      <trkpt lat="42.744" lon="1.54266">
        <ele>1641.934</ele>
        <time>2021-03-06T10:11:41Z</time>
      </trkpt>
      <trkpt lat="42.74399" lon="1.54265">
        <ele>1642.07</ele>
        <time>2021-03-06T10:11:43Z</time>
      </trkpt>
      <trkpt lat="42.74398" lon="1.54264">
        <ele>1642.767</ele>
        <time>2021-03-06T10:11:45Z</time>
      </trkpt>
      <trkpt lat="42.74397" lon="1.54263">
        <ele>1643.182</ele>
        <time>2021-03-06T10:11:47Z</time>
      </trkpt>
      <trkpt lat="42.74396" lon="1.54262">
        <ele>1643.426</ele>
        <time>2021-03-06T10:11:49Z</time>
      </trkpt>
      <trkpt lat="42.74395" lon="1.54261">
        <ele>1643.878</ele>
        <time>2021-03-06T10:11:51Z</time>
      </trkpt>
      <trkpt lat="42.74394" lon="1.5426">
        <ele>1644.555</ele>
        <time>2021-03-06T10:11:53Z</time>
      </trkpt>
      <trkpt lat="42.74392" lon="1.54259">
        <ele>1645.042</ele>
        <time>2021-03-06T10:11:55Z</time>
      </trkpt>
      <trkpt lat="42.74391" lon="1.54258">
        <ele>1645.369</ele>
        <time>2021-03-06T10:11:57Z</time>
      </trkpt>
      <trkpt lat="42.7439" lon="1.54257">
        <ele>1645.485</ele>
        <time>2021-03-06T10:11:59Z</time>
      </trkpt>
      <trkpt lat="42.74389" lon="1.54256">
        <ele>1645.762</ele>
        <time>2021-03-06T10:12:01Z</time>
      </trkpt>
      <trkpt lat="42.74388" lon="1.54255">
        <ele>1645.898</ele>
        <time>2021-03-06T10:12:03Z</time>
      </trkpt>
      <trkpt lat="42.74387" lon="1.54254">
        <ele>1646.381</ele>
        <time>2021-03-06T10:12:05Z</time>
      </trkpt>
      <trkpt lat="42.74386" lon="1.54253">
        <ele>1646.808</ele>
        <time>2021-03-06T10:12:07Z</time>
      </trkpt>
      <trkpt lat="42.74385" lon="1.54252">
        <ele>1646.36</ele>
        <time>2021-03-06T10:12:09Z</time>
      </trkpt>
      <trkpt lat="42.74384" lon="1.54251">
        <ele>1646.844</ele>
        <time>2021-03-06T10:12:11Z</time>
      </trkpt>
      <trkpt lat="42.74383" lon="1.5425">
        <ele>1647.261</ele>
        <time>2021-03-06T10:12:13Z</time>
      </trkpt>
      <trkpt lat="42.74381" lon="1.54249">
        <ele>1647.205</ele>
        <time>2021-03-06T10:12:15Z</time>
      </trkpt>
      <trkpt lat="42.7438" lon="1.54248">
        <ele>1647.645</ele>
        <time>2021-03-06T10:12:17Z</time>
      </trkpt>
      <trkpt lat="42.74379" lon="1.54247">
        <ele>1648.205</ele>
        <time>2021-03-06T10:12:19Z</time>
      </trkpt>
      <trkpt lat="42.74378" lon="1.54246">
        <ele>1648.177</ele>
        <time>2021-03-06T10:12:21Z</time>
      </trkpt>
      <trkpt lat="42.74377" lon="1.54244">
        <ele>1647.731</ele>
        <time>2021-03-06T10:12:23Z</time>
      </trkpt>
      <trkpt lat="42.74377" lon="1.54242">
        <ele>1648.202</ele>
        <time>2021-03-06T10:12:25Z</time>
      </trkpt>
      <trkpt lat="42.74377" lon="1.5424">
        <ele>1649.085</ele>
        <time>2021-03-06T10:12:27Z</time>
      </trkpt>
      <trkpt lat="42.74377" lon="1.54238">
        <ele>1649.572</ele>
        <time>2021-03-06T10:12:29Z</time>
      </trkpt>
      <trkpt lat="42.74378" lon="1.54237">
        <ele>1649.709</ele>
        <time>2021-03-06T10:12:31Z</time>
      </trkpt>
      <trkpt lat="42.74379" lon="1.54235">
        <ele>1650.183</ele>
        <time>2021-03-06T10:12:33Z</time>
      </trkpt>
      <trkpt lat="42.7438" lon="1.54233">
        <ele>1650.731</ele>
        <time>2021-03-06T10:12:35Z</time>
      </trkpt>
      <trkpt lat="42.74381" lon="1.54232">
        <ele>1651.239</ele>
        <time>2021-03-06T10:12:37Z</time>
      </trkpt>
      <trkpt lat="42.74381" lon="1.54231">
        <ele>1651.527</ele>
        <time>2021-03-06T10:12:39Z</time>
      </trkpt>
      <trkpt lat="42.74383" lon="1.5423">
        <ele>1651.951</ele>
        <time>2021-03-06T10:12:41Z</time>
      </trkpt>
      <trkpt lat="42.74383" lon="1.54228">
        <ele>1652.636</ele>
        <time>2021-03-06T10:12:43Z</time>
      </trkpt>
      <trkpt lat="42.74385" lon="1.54227">
        <ele>1653.157</ele>
        <time>2021-03-06T10:12:45Z</time>
      </trkpt>
      <trkpt lat="42.74386" lon="1.54226">
        <ele>1653.674</ele>
        <time>2021-03-06T10:12:47Z</time>
      </trkpt>
      <trkpt lat="42.74387" lon="1.54225">
        <ele>1654.458</ele>
        <time>2021-03-06T10:12:49Z</time>
      </trkpt>
      <trkpt lat="42.74388" lon="1.54223">
        <ele>1654.744</ele>
        <time>2021-03-06T10:12:51Z</time>
      </trkpt>
      <trkpt lat="42.74388" lon="1.54222">
        <ele>1654.904</ele>
        <time>2021-03-06T10:12:53Z</time>
      </trkpt>
      <trkpt lat="42.74389" lon="1.5422">
        <ele>1655.137</ele>
        <time>2021-03-06T10:12:55Z</time>
      </trkpt>
      <trkpt lat="42.7439" lon="1.54219">
        <ele>1655.353</ele>
        <time>2021-03-06T10:12:57Z</time>
      </trkpt>
      <trkpt lat="42.74391" lon="1.54217">
        <ele>1655.878</ele>
        <time>2021-03-06T10:12:59Z</time>
      </trkpt>
      <trkpt lat="42.74392" lon="1.54215">
        <ele>1656.446</ele>
        <time>2021-03-06T10:13:01Z</time>
      </trkpt>
      <trkpt lat="42.74393" lon="1.54214">
        <ele>1656.666</ele>
        <time>2021-03-06T10:13:03Z</time>
      </trkpt>
      <trkpt lat="42.74393" lon="1.54212">
        <ele>1657.054</ele>
        <time>2021-03-06T10:13:05Z</time>
      </trkpt>
      <trkpt lat="42.74394" lon="1.5421">
        <ele>1657.711</ele>
        <time>2021-03-06T10:13:07Z</time>
      </trkpt>
      <trkpt lat="42.74395" lon="1.54209">
        <ele>1658.291</ele>
        <time>2021-03-06T10:13:09Z</time>
      </trkpt>
      <trkpt lat="42.74395" lon="1.54207">
        <ele>1658.118</ele>
        <time>2021-03-06T10:13:11Z</time>
      </trkpt>
      <trkpt lat="42.74396" lon="1.54205">
        <ele>1658.51</ele>
        <time>2021-03-06T10:13:13Z</time>
      </trkpt>
      <trkpt lat="42.74397" lon="1.54204">
        <ele>1658.614</ele>
        <time>2021-03-06T10:13:15Z</time>
      </trkpt>
      <trkpt lat="42.74397" lon="1.54202">
        <ele>1659.201</ele>
        <time>2021-03-06T10:13:17Z</time>
      </trkpt>
      <trkpt lat="42.74398" lon="1.542">
        <ele>1659.506</ele>
        <time>2021-03-06T10:13:19Z</time>
      </trkpt>
      <trkpt lat="42.74399" lon="1.54199">
        <ele>1659.744</ele>
        <time>2021-03-06T10:13:21Z</time>
      </trkpt>
      <trkpt lat="42.744" lon="1.54197">
        <ele>1660.062</ele>
        <time>2021-03-06T10:13:23Z</time>
      </trkpt>
      <trkpt lat="42.74401" lon="1.54195">
        <ele>1660.066</ele>
        <time>2021-03-06T10:13:25Z</time>
      </trkpt>
      <trkpt lat="42.74402" lon="1.54193">
        <ele>1660.231</ele>
        <time>2021-03-06T10:13:27Z</time>
      </trkpt>
      <trkpt lat="42.74403" lon="1.54191">
        <ele>1660.372</ele>
        <time>2021-03-06T10:13:29Z</time>
      </trkpt>
      <trkpt lat="42.74403" lon="1.5419">
        <ele>1660.464</ele>
        <time>2021-03-06T10:13:31Z</time>
      </trkpt>
      <trkpt lat="42.74404" lon="1.54188">
        <ele>1661.096</ele>
        <time>2021-03-06T10:13:33Z</time>
      </trkpt>
      <trkpt lat="42.74405" lon="1.54186">
        <ele>1661.373</ele>
        <time>2021-03-06T10:13:35Z</time>
      </trkpt>
      <trkpt lat="42.74406" lon="1.54184">
        <ele>1661.018</ele>
        <time>2021-03-06T10:13:37Z</time>
      </trkpt>
      <trkpt lat="42.74406" lon="1.54182">
        <ele>1661.075</ele>
        <time>2021-03-06T10:13:39Z</time>
      </trkpt>
      <trkpt lat="42.74407" lon="1.54181">
        <ele>1661.319</ele>
        <time>2021-03-06T10:13:41Z</time>
      </trkpt>
      <trkpt lat="42.74408" lon="1.54179">
        <ele>1661.744</ele>
        <time>2021-03-06T10:13:43Z</time>
      </trkpt>
      <trkpt lat="42.74409" lon="1.54177">
        <ele>1662.338</ele>
        <time>2021-03-06T10:13:45Z</time>
      </trkpt>
      <trkpt lat="42.7441" lon="1.54175">
        <ele>1662.856</ele>
        <time>2021-03-06T10:13:47Z</time>
      </trkpt>
      <trkpt lat="42.7441" lon="1.54173">
        <ele>1663.427</ele>
        <time>2021-03-06T10:13:49Z</time>
      </trkpt>
      <trkpt lat="42.74411" lon="1.54172">
        <ele>1663.596</ele>
        <time>2021-03-06T10:13:51Z</time>
      </trkpt>
      <trkpt lat="42.74411" lon="1.5417">
        <ele>1663.683</ele>
        <time>2021-03-06T10:13:53Z</time>
      </trkpt>
      <trkpt lat="42.74411" lon="1.54168">
        <ele>1664.055</ele>
        <time>2021-03-06T10:13:55Z</time>
      </trkpt>
      <trkpt lat="42.74411" lon="1.54166">
        <ele>1664.239</ele>
        <time>2021-03-06T10:13:57Z</time>
      </trkpt>
      <trkpt lat="42.74411" lon="1.54164">
        <ele>1664.738</ele>
        <time>2021-03-06T10:13:59Z</time>
      </trkpt>
      <trkpt lat="42.74411" lon="1.54162">
        <ele>1665.663</ele>
        <time>2021-03-06T10:14:01Z</time>
      </trkpt>
      <trkpt lat="42.74412" lon="1.54161">
        <ele>1666.316</ele>
        <time>2021-03-06T10:14:03Z</time>
      </trkpt>
      <trkpt lat="42.74411" lon="1.54159">
        <ele>1666.111</ele>
        <time>2021-03-06T10:14:05Z</time>
      </trkpt>
      <trkpt lat="42.74412" lon="1.54157">
        <ele>1666.449</ele>
        <time>2021-03-06T10:14:07Z</time>
      </trkpt>
      <trkpt lat="42.74412" lon="1.54155">
        <ele>1666.786</ele>
        <time>2021-03-06T10:14:09Z</time>
      </trkpt>
      <trkpt lat="42.74412" lon="1.54154">
        <ele>1667.13</ele>
        <time>2021-03-06T10:14:11Z</time>
      </trkpt>
      <trkpt lat="42.74412" lon="1.54152">
        <ele>1667.417</ele>
        <time>2021-03-06T10:14:13Z</time>
      </trkpt>
      <trkpt lat="42.74411" lon="1.54151">
        <ele>1667.967</ele>
        <time>2021-03-06T10:14:15Z</time>
      </trkpt>
      <trkpt lat="42.74411" lon="1.5415">
        <ele>1668.058</ele>
        <time>2021-03-06T10:14:17Z</time>
      </trkpt>
      <trkpt lat="42.74411" lon="1.54149">
        <ele>1668.938</ele>
        <time>2021-03-06T10:14:19Z</time>
      </trkpt>
      <trkpt lat="42.74411" lon="1.54148">
        <ele>1669.203</ele>
        <time>2021-03-06T10:14:21Z</time>
      </trkpt>
      <trkpt lat="42.74411" lon="1.54147">
        <ele>1669.615</ele>
        <time>2021-03-06T10:14:23Z</time>
      </trkpt>
      <trkpt lat="42.74411" lon="1.54147">
        <ele>1669.514</ele>
        <time>2021-03-06T10:14:25Z</time>
      </trkpt>
      <trkpt lat="42.74411" lon="1.54147">
        <ele>1669.518</ele>
        <time>2021-03-06T10:14:27Z</time>
      </trkpt>
      <trkpt lat="42.7441" lon="1.54147">
        <ele>1669.435</ele>
        <time>2021-03-06T10:14:29Z</time>
      </trkpt>
      <trkpt lat="42.7441" lon="1.54147">
        <ele>1669.428</ele>
        <time>2021-03-06T10:14:31Z</time>
      </trkpt>
      <trkpt lat="42.7441" lon="1.54147">
        <ele>1669.421</ele>
        <time>2021-03-06T10:14:33Z</time>
      </trkpt>
      <trkpt lat="42.7441" lon="1.54147">
        <ele>1669.478</ele>
        <time>2021-03-06T10:14:35Z</time>
      </trkpt>
      <trkpt lat="42.74411" lon="1.54147">
        <ele>1669.48</ele>
        <time>2021-03-06T10:14:37Z</time>
      </trkpt>
      <trkpt lat="42.7441" lon="1.54147">
        <ele>1669.465</ele>
        <time>2021-03-06T10:14:39Z</time>
      </trkpt>
      <trkpt lat="42.7441" lon="1.54147">
        <ele>1669.466</ele>
        <time>2021-03-06T10:14:41Z</time>
      </trkpt>
      <trkpt lat="42.7441" lon="1.54147">
        <ele>1669.468</ele>
        <time>2021-03-06T10:14:43Z</time>
      </trkpt>
      <trkpt lat="42.7441" lon="1.54147">
        <ele>1669.469</ele>
        <time>2021-03-06T10:14:45Z</time>
      </trkpt>
      <trkpt lat="42.7441" lon="1.54146">
        <ele>1669.624</ele>
        <time>2021-03-06T10:14:47Z</time>
      </trkpt>
      <trkpt lat="42.7441" lon="1.54146">
        <ele>1669.566</ele>
        <time>2021-03-06T10:14:49Z</time>
      </trkpt>
      <trkpt lat="42.7441" lon="1.54146">
        <ele>1669.665</ele>
        <time>2021-03-06T10:14:51Z</time>
      </trkpt>
      <trkpt lat="42.7441" lon="1.54146">
        <ele>1669.664</ele>
        <time>2021-03-06T10:14:53Z</time>
      </trkpt>
      <trkpt lat="42.7441" lon="1.54146">
        <ele>1669.666</ele>
        <time>2021-03-06T10:14:55Z</time>
      </trkpt>
      <trkpt lat="42.7441" lon="1.54146">
        <ele>1669.662</ele>
        <time>2021-03-06T10:14:57Z</time>
      </trkpt>
      <trkpt lat="42.7441" lon="1.54146">
        <ele>1669.638</ele>
        <time>2021-03-06T10:14:59Z</time>
      </trkpt>
      <trkpt lat="42.7441" lon="1.54146">
        <ele>1669.432</ele>
        <time>2021-03-06T10:15:01Z</time>
      </trkpt>
      <trkpt lat="42.7441" lon="1.54146">
        <ele>1669.41</ele>
        <time>2021-03-06T10:15:03Z</time>
      </trkpt>
      <trkpt lat="42.7441" lon="1.54146">
        <ele>1669.41</ele>
        <time>2021-03-06T10:15:05Z</time>
      </trkpt>
      <trkpt lat="42.7441" lon="1.54146">
        <ele>1669.41</ele>
        <time>2021-03-06T10:15:07Z</time>
      </trkpt>
      <trkpt lat="42.7441" lon="1.54146">
        <ele>1669.409</ele>
        <time>2021-03-06T10:15:09Z</time>
      </trkpt>
      <trkpt lat="42.7441" lon="1.54146">
        <ele>1669.407</ele>
        <time>2021-03-06T10:15:11Z</time>
      </trkpt>
      <trkpt lat="42.7441" lon="1.54146">
        <ele>1669.441</ele>
        <time>2021-03-06T10:15:13Z</time>
      </trkpt>
      <trkpt lat="42.7441" lon="1.54146">
        <ele>1669.353</ele>
        <time>2021-03-06T10:15:15Z</time>
      </trkpt>
      <trkpt lat="42.7441" lon="1.54146">
        <ele>1669.35</ele>
        <time>2021-03-06T10:15:17Z</time>
      </trkpt>
      <trkpt lat="42.74407" lon="1.54145">
        <ele>1669.12</ele>
        <time>2021-03-06T10:15:19Z</time>
      </trkpt>
      <trkpt lat="42.74407" lon="1.54145">
        <ele>1669.124</ele>
        <time>2021-03-06T10:15:21Z</time>
      </trkpt>
      <trkpt lat="42.74407" lon="1.54145">
        <ele>1669.122</ele>
        <time>2021-03-06T10:15:23Z</time>
      </trkpt>
      <trkpt lat="42.74407" lon="1.54144">
        <ele>1669.118</ele>
        <time>2021-03-06T10:15:25Z</time>
      </trkpt>
      <trkpt lat="42.74407" lon="1.54144">
        <ele>1669.11</ele>
        <time>2021-03-06T10:15:27Z</time>
      </trkpt>
      <trkpt lat="42.74407" lon="1.54145">
        <ele>1668.905</ele>
        <time>2021-03-06T10:15:29Z</time>
      </trkpt>
      <trkpt lat="42.74407" lon="1.54145">
        <ele>1668.909</ele>
        <time>2021-03-06T10:15:31Z</time>
      </trkpt>
      <trkpt lat="42.74407" lon="1.54144">
        <ele>1669.107</ele>
        <time>2021-03-06T10:15:33Z</time>
      </trkpt>
      <trkpt lat="42.74407" lon="1.54144">
        <ele>1669.118</ele>
        <time>2021-03-06T10:15:35Z</time>
      </trkpt>
      <trkpt lat="42.74407" lon="1.54144">
        <ele>1669.122</ele>
        <time>2021-03-06T10:15:37Z</time>
      </trkpt>
      <trkpt lat="42.74407" lon="1.54144">
        <ele>1669.125</ele>
        <time>2021-03-06T10:15:39Z</time>
      </trkpt>
      <trkpt lat="42.74407" lon="1.54144">
        <ele>1669.121</ele>
        <time>2021-03-06T10:15:41Z</time>
      </trkpt>
      <trkpt lat="42.74407" lon="1.54144">
        <ele>1668.868</ele>
        <time>2021-03-06T10:15:43Z</time>
      </trkpt>
      <trkpt lat="42.74408" lon="1.54144">
        <ele>1668.801</ele>
        <time>2021-03-06T10:15:45Z</time>
      </trkpt>
      <trkpt lat="42.74408" lon="1.54144">
        <ele>1668.797</ele>
        <time>2021-03-06T10:15:47Z</time>
      </trkpt>
      <trkpt lat="42.74408" lon="1.54144">
        <ele>1668.792</ele>
        <time>2021-03-06T10:15:49Z</time>
      </trkpt>
      <trkpt lat="42.74408" lon="1.54144">
        <ele>1668.79</ele>
        <time>2021-03-06T10:15:51Z</time>
      </trkpt>
      <trkpt lat="42.74408" lon="1.54144">
        <ele>1668.787</ele>
        <time>2021-03-06T10:15:53Z</time>
      </trkpt>
      <trkpt lat="42.74408" lon="1.54144">
        <ele>1668.785</ele>
        <time>2021-03-06T10:15:55Z</time>
      </trkpt>
      <trkpt lat="42.74408" lon="1.54144">
        <ele>1668.781</ele>
        <time>2021-03-06T10:15:57Z</time>
      </trkpt>
      <trkpt lat="42.74408" lon="1.54144">
        <ele>1668.78</ele>
        <time>2021-03-06T10:15:59Z</time>
      </trkpt>
      <trkpt lat="42.74408" lon="1.54144">
        <ele>1668.706</ele>
        <time>2021-03-06T10:16:01Z</time>
      </trkpt>
      <trkpt lat="42.74408" lon="1.54144">
        <ele>1668.703</ele>
        <time>2021-03-06T10:16:03Z</time>
      </trkpt>
      <trkpt lat="42.74408" lon="1.54144">
        <ele>1668.7</ele>
        <time>2021-03-06T10:16:05Z</time>
      </trkpt>
      <trkpt lat="42.74408" lon="1.54144">
        <ele>1668.722</ele>
        <time>2021-03-06T10:16:07Z</time>
      </trkpt>
      <trkpt lat="42.74408" lon="1.54144">
        <ele>1668.748</ele>
        <time>2021-03-06T10:16:09Z</time>
      </trkpt>
      <trkpt lat="42.74408" lon="1.54144">
        <ele>1668.747</ele>
        <time>2021-03-06T10:16:11Z</time>
      </trkpt>
      <trkpt lat="42.74408" lon="1.54144">
        <ele>1668.744</ele>
        <time>2021-03-06T10:16:13Z</time>
      </trkpt>
      <trkpt lat="42.74408" lon="1.54144">
        <ele>1668.746</ele>
        <time>2021-03-06T10:16:15Z</time>
      </trkpt>
      <trkpt lat="42.74408" lon="1.54144">
        <ele>1668.721</ele>
        <time>2021-03-06T10:16:17Z</time>
      </trkpt>
      <trkpt lat="42.74409" lon="1.54144">
        <ele>1668.719</ele>
        <time>2021-03-06T10:16:19Z</time>
      </trkpt>
      <trkpt lat="42.74409" lon="1.54144">
        <ele>1668.714</ele>
        <time>2021-03-06T10:16:21Z</time>
      </trkpt>
      <trkpt lat="42.74409" lon="1.54144">
        <ele>1668.667</ele>
        <time>2021-03-06T10:16:23Z</time>
      </trkpt>
      <trkpt lat="42.74409" lon="1.54144">
        <ele>1668.665</ele>
        <time>2021-03-06T10:16:25Z</time>
      </trkpt>
      <trkpt lat="42.74409" lon="1.54144">
        <ele>1668.518</ele>
        <time>2021-03-06T10:16:27Z</time>
      </trkpt>
      <trkpt lat="42.74409" lon="1.54144">
        <ele>1668.412</ele>
        <time>2021-03-06T10:16:29Z</time>
      </trkpt>
      <trkpt lat="42.74409" lon="1.54144">
        <ele>1668.753</ele>
        <time>2021-03-06T10:16:31Z</time>
      </trkpt>
      <trkpt lat="42.7441" lon="1.54144">
        <ele>1668.599</ele>
        <time>2021-03-06T10:16:33Z</time>
      </trkpt>
      <trkpt lat="42.7441" lon="1.54144">
        <ele>1668.6</ele>
        <time>2021-03-06T10:16:35Z</time>
      </trkpt>
      <trkpt lat="42.7441" lon="1.54144">
        <ele>1668.603</ele>
        <time>2021-03-06T10:16:37Z</time>
      </trkpt>
      <trkpt lat="42.74409" lon="1.54144">
        <ele>1668.68</ele>
        <time>2021-03-06T10:16:39Z</time>
      </trkpt>
      <trkpt lat="42.7441" lon="1.54144">
        <ele>1668.987</ele>
        <time>2021-03-06T10:16:41Z</time>
      </trkpt>
      <trkpt lat="42.74409" lon="1.54144">
        <ele>1668.991</ele>
        <time>2021-03-06T10:16:43Z</time>
      </trkpt>
      <trkpt lat="42.7441" lon="1.54144">
        <ele>1668.995</ele>
        <time>2021-03-06T10:16:45Z</time>
      </trkpt>
      <trkpt lat="42.7441" lon="1.54144">
        <ele>1668.997</ele>
        <time>2021-03-06T10:16:47Z</time>
      </trkpt>
      <trkpt lat="42.7441" lon="1.54144">
        <ele>1668.772</ele>
        <time>2021-03-06T10:16:49Z</time>
      </trkpt>
      <trkpt lat="42.7441" lon="1.54144">
        <ele>1668.757</ele>
        <time>2021-03-06T10:16:51Z</time>
      </trkpt>
      <trkpt lat="42.7441" lon="1.54144">
        <ele>1668.749</ele>
        <time>2021-03-06T10:16:53Z</time>
      </trkpt>
      <trkpt lat="42.7441" lon="1.54144">
        <ele>1668.745</ele>
        <time>2021-03-06T10:16:55Z</time>
      </trkpt>
      <trkpt lat="42.7441" lon="1.54144">
        <ele>1668.742</ele>
        <time>2021-03-06T10:16:57Z</time>
      </trkpt>
      <trkpt lat="42.7441" lon="1.54144">
        <ele>1668.74</ele>
        <time>2021-03-06T10:16:59Z</time>
      </trkpt>
      <trkpt lat="42.7441" lon="1.54144">
        <ele>1668.738</ele>
        <time>2021-03-06T10:17:01Z</time>
      </trkpt>
      <trkpt lat="42.7441" lon="1.54144">
        <ele>1668.742</ele>
        <time>2021-03-06T10:17:03Z</time>
      </trkpt>
      <trkpt lat="42.7441" lon="1.54144">
        <ele>1668.738</ele>
        <time>2021-03-06T10:17:05Z</time>
      </trkpt>
      <trkpt lat="42.7441" lon="1.54144">
        <ele>1668.734</ele>
        <time>2021-03-06T10:17:07Z</time>
      </trkpt>
      <trkpt lat="42.7441" lon="1.54144">
        <ele>1668.731</ele>
        <time>2021-03-06T10:17:09Z</time>
      </trkpt>
      <trkpt lat="42.7441" lon="1.54145">
        <ele>1668.783</ele>
        <time>2021-03-06T10:17:11Z</time>
      </trkpt>
      <trkpt lat="42.7441" lon="1.54145">
        <ele>1668.781</ele>
        <time>2021-03-06T10:17:13Z</time>
      </trkpt>
      <trkpt lat="42.7441" lon="1.54145">
        <ele>1668.782</ele>
        <time>2021-03-06T10:17:15Z</time>
      </trkpt>
      <trkpt lat="42.7441" lon="1.54145">
        <ele>1668.783</ele>
        <time>2021-03-06T10:17:17Z</time>
      </trkpt>
      <trkpt lat="42.7441" lon="1.54145">
        <ele>1668.785</ele>
        <time>2021-03-06T10:17:19Z</time>
      </trkpt>
      <trkpt lat="42.7441" lon="1.54145">
        <ele>1668.784</ele>
        <time>2021-03-06T10:17:21Z</time>
      </trkpt>
      <trkpt lat="42.7441" lon="1.54145">
        <ele>1668.783</ele>
        <time>2021-03-06T10:17:23Z</time>
      </trkpt>
      <trkpt lat="42.7441" lon="1.54145">
        <ele>1668.759</ele>
        <time>2021-03-06T10:17:25Z</time>
      </trkpt>
      <trkpt lat="42.7441" lon="1.54145">
        <ele>1668.579</ele>
        <time>2021-03-06T10:17:27Z</time>
      </trkpt>
      <trkpt lat="42.74411" lon="1.54145">
        <ele>1668.522</ele>
        <time>2021-03-06T10:17:29Z</time>
      </trkpt>
      <trkpt lat="42.74411" lon="1.54145">
        <ele>1668.522</ele>
        <time>2021-03-06T10:17:31Z</time>
      </trkpt>
      <trkpt lat="42.74411" lon="1.54145">
        <ele>1668.52</ele>
        <time>2021-03-06T10:17:33Z</time>
      </trkpt>
      <trkpt lat="42.74411" lon="1.54145">
        <ele>1668.52</ele>
        <time>2021-03-06T10:17:35Z</time>
      </trkpt>
      <trkpt lat="42.74411" lon="1.54145">
        <ele>1668.736</ele>
        <time>2021-03-06T10:17:37Z</time>
      </trkpt>
      <trkpt lat="42.74411" lon="1.54146">
        <ele>1668.633</ele>
        <time>2021-03-06T10:17:39Z</time>
      </trkpt>
      <trkpt lat="42.74411" lon="1.54146">
        <ele>1668.623</ele>
        <time>2021-03-06T10:17:41Z</time>
      </trkpt>
      <trkpt lat="42.74411" lon="1.54146">
        <ele>1668.62</ele>
        <time>2021-03-06T10:17:43Z</time>
      </trkpt>
      <trkpt lat="42.74411" lon="1.54146">
        <ele>1668.615</ele>
        <time>2021-03-06T10:17:45Z</time>
      </trkpt>
      <trkpt lat="42.74411" lon="1.54146">
        <ele>1668.61</ele>
        <time>2021-03-06T10:17:47Z</time>
      </trkpt>
      <trkpt lat="42.74411" lon="1.54146">
        <ele>1668.598</ele>
        <time>2021-03-06T10:17:49Z</time>
      </trkpt>
      <trkpt lat="42.74411" lon="1.54146">
        <ele>1668.609</ele>
        <time>2021-03-06T10:17:51Z</time>
      </trkpt>
      <trkpt lat="42.74411" lon="1.54146">
        <ele>1668.605</ele>
        <time>2021-03-06T10:17:53Z</time>
      </trkpt>
      <trkpt lat="42.74411" lon="1.54146">
        <ele>1668.608</ele>
        <time>2021-03-06T10:17:55Z</time>
      </trkpt>
      <trkpt lat="42.74411" lon="1.54146">
        <ele>1668.611</ele>
        <time>2021-03-06T10:17:57Z</time>
      </trkpt>
      <trkpt lat="42.74411" lon="1.54146">
        <ele>1668.377</ele>
        <time>2021-03-06T10:17:59Z</time>
      </trkpt>
      <trkpt lat="42.74411" lon="1.54146">
        <ele>1668.378</ele>
        <time>2021-03-06T10:18:01Z</time>
      </trkpt>
      <trkpt lat="42.74411" lon="1.54146">
        <ele>1668.382</ele>
        <time>2021-03-06T10:18:03Z</time>
      </trkpt>
      <trkpt lat="42.74411" lon="1.54146">
        <ele>1668.386</ele>
        <time>2021-03-06T10:18:05Z</time>
      </trkpt>
      <trkpt lat="42.74411" lon="1.54146">
        <ele>1668.386</ele>
        <time>2021-03-06T10:18:07Z</time>
      </trkpt>
      <trkpt lat="42.74411" lon="1.54147">
        <ele>1668.732</ele>
        <time>2021-03-06T10:18:09Z</time>
      </trkpt>
      <trkpt lat="42.74411" lon="1.54147">
        <ele>1668.741</ele>
        <time>2021-03-06T10:18:11Z</time>
      </trkpt>
      <trkpt lat="42.74411" lon="1.54147">
        <ele>1668.797</ele>
        <time>2021-03-06T10:18:13Z</time>
      </trkpt>
      <trkpt lat="42.74411" lon="1.54147">
        <ele>1668.802</ele>
        <time>2021-03-06T10:18:15Z</time>
      </trkpt>
      <trkpt lat="42.74411" lon="1.54146">
        <ele>1668.879</ele>
        <time>2021-03-06T10:18:17Z</time>
      </trkpt>
      <trkpt lat="42.74411" lon="1.54146">
        <ele>1668.879</ele>
        <time>2021-03-06T10:18:19Z</time>
      </trkpt>
      <trkpt lat="42.74411" lon="1.54146">
        <ele>1668.88</ele>
        <time>2021-03-06T10:18:21Z</time>
      </trkpt>
      <trkpt lat="42.74411" lon="1.54146">
        <ele>1668.884</ele>
        <time>2021-03-06T10:18:23Z</time>
      </trkpt>
      <trkpt lat="42.74411" lon="1.54146">
        <ele>1669.125</ele>
        <time>2021-03-06T10:18:25Z</time>
      </trkpt>
      <trkpt lat="42.74411" lon="1.54146">
        <ele>1669.129</ele>
        <time>2021-03-06T10:18:27Z</time>
      </trkpt>
      <trkpt lat="42.74411" lon="1.54146">
        <ele>1669.301</ele>
        <time>2021-03-06T10:18:29Z</time>
      </trkpt>
      <trkpt lat="42.74411" lon="1.54146">
        <ele>1669.312</ele>
        <time>2021-03-06T10:18:31Z</time>
      </trkpt>
      <trkpt lat="42.74411" lon="1.54146">
        <ele>1669.319</ele>
        <time>2021-03-06T10:18:33Z</time>
      </trkpt>
      <trkpt lat="42.74411" lon="1.54146">
        <ele>1669.32</ele>
        <time>2021-03-06T10:18:35Z</time>
      </trkpt>
      <trkpt lat="42.74411" lon="1.54146">
        <ele>1669.322</ele>
        <time>2021-03-06T10:18:37Z</time>
      </trkpt>
      <trkpt lat="42.74411" lon="1.54146">
        <ele>1669.321</ele>
        <time>2021-03-06T10:18:39Z</time>
      </trkpt>
      <trkpt lat="42.74411" lon="1.54146">
        <ele>1669.322</ele>
        <time>2021-03-06T10:18:41Z</time>
      </trkpt>
      <trkpt lat="42.74411" lon="1.54146">
        <ele>1669.32</ele>
        <time>2021-03-06T10:18:43Z</time>
      </trkpt>
      <trkpt lat="42.74411" lon="1.54146">
        <ele>1669.322</ele>
        <time>2021-03-06T10:18:45Z</time>
      </trkpt>
      <trkpt lat="42.74411" lon="1.54146">
        <ele>1669.324</ele>
        <time>2021-03-06T10:18:47Z</time>
      </trkpt>
      <trkpt lat="42.74411" lon="1.54146">
        <ele>1669.325</ele>
        <time>2021-03-06T10:18:49Z</time>
      </trkpt>
      <trkpt lat="42.74411" lon="1.54146">
        <ele>1669.326</ele>
        <time>2021-03-06T10:18:51Z</time>
      </trkpt>
      <trkpt lat="42.74411" lon="1.54146">
        <ele>1669.328</ele>
        <time>2021-03-06T10:18:53Z</time>
      </trkpt>
      <trkpt lat="42.74411" lon="1.54146">
        <ele>1669.327</ele>
        <time>2021-03-06T10:18:55Z</time>
      </trkpt>
      <trkpt lat="42.74411" lon="1.54146">
        <ele>1669.325</ele>
        <time>2021-03-06T10:18:57Z</time>
      </trkpt>
      <trkpt lat="42.74411" lon="1.54146">
        <ele>1669.321</ele>
        <time>2021-03-06T10:18:59Z</time>
      </trkpt>
      <trkpt lat="42.74411" lon="1.54146">
        <ele>1669.321</ele>
        <time>2021-03-06T10:19:01Z</time>
      </trkpt>
      <trkpt lat="42.74411" lon="1.54146">
        <ele>1669.318</ele>
        <time>2021-03-06T10:19:03Z</time>
      </trkpt>
      <trkpt lat="42.74411" lon="1.54146">
        <ele>1669.311</ele>
        <time>2021-03-06T10:19:05Z</time>
      </trkpt>
      <trkpt lat="42.74411" lon="1.54146">
        <ele>1669.311</ele>
        <time>2021-03-06T10:19:07Z</time>
      </trkpt>
      <trkpt lat="42.74411" lon="1.54146">
        <ele>1669.314</ele>
        <time>2021-03-06T10:19:09Z</time>
      </trkpt>
      <trkpt lat="42.74411" lon="1.54146">
        <ele>1669.316</ele>
        <time>2021-03-06T10:19:11Z</time>
      </trkpt>
      <trkpt lat="42.74411" lon="1.54146">
        <ele>1669.319</ele>
        <time>2021-03-06T10:19:13Z</time>
      </trkpt>
      <trkpt lat="42.74411" lon="1.54146">
        <ele>1669.318</ele>
        <time>2021-03-06T10:19:15Z</time>
      </trkpt>
      <trkpt lat="42.74411" lon="1.54146">
        <ele>1669.318</ele>
        <time>2021-03-06T10:19:17Z</time>
      </trkpt>
      <trkpt lat="42.74411" lon="1.54146">
        <ele>1669.316</ele>
        <time>2021-03-06T10:19:19Z</time>
      </trkpt>
      <trkpt lat="42.74411" lon="1.54146">
        <ele>1669.314</ele>
        <time>2021-03-06T10:19:21Z</time>
      </trkpt>
      <trkpt lat="42.74411" lon="1.54146">
        <ele>1669.317</ele>
        <time>2021-03-06T10:19:23Z</time>
      </trkpt>
      <trkpt lat="42.74411" lon="1.54146">
        <ele>1669.318</ele>
        <time>2021-03-06T10:19:25Z</time>
      </trkpt>
      <trkpt lat="42.74411" lon="1.54146">
        <ele>1669.317</ele>
        <time>2021-03-06T10:19:27Z</time>
      </trkpt>
      <trkpt lat="42.74411" lon="1.54146">
        <ele>1669.314</ele>
        <time>2021-03-06T10:19:29Z</time>
      </trkpt>
      <trkpt lat="42.74411" lon="1.54146">
        <ele>1669.307</ele>
        <time>2021-03-06T10:19:31Z</time>
      </trkpt>
      <trkpt lat="42.74411" lon="1.54146">
        <ele>1669.306</ele>
        <time>2021-03-06T10:19:33Z</time>
      </trkpt>
      <trkpt lat="42.74411" lon="1.54146">
        <ele>1669.299</ele>
        <time>2021-03-06T10:19:35Z</time>
      </trkpt>
      <trkpt lat="42.74411" lon="1.54146">
        <ele>1669.955</ele>
        <time>2021-03-06T10:19:37Z</time>
      </trkpt>
      <trkpt lat="42.74411" lon="1.54147">
        <ele>1669.968</ele>
        <time>2021-03-06T10:19:39Z</time>
      </trkpt>
      <trkpt lat="42.74411" lon="1.54147">
        <ele>1669.979</ele>
        <time>2021-03-06T10:19:41Z</time>
      </trkpt>
      <trkpt lat="42.74411" lon="1.54147">
        <ele>1669.992</ele>
        <time>2021-03-06T10:19:43Z</time>
      </trkpt>
      <trkpt lat="42.74411" lon="1.54147">
        <ele>1669.999</ele>
        <time>2021-03-06T10:19:45Z</time>
      </trkpt>
      <trkpt lat="42.74411" lon="1.54147">
        <ele>1670.007</ele>
        <time>2021-03-06T10:19:47Z</time>
      </trkpt>
      <trkpt lat="42.74411" lon="1.54146">
        <ele>1670.079</ele>
        <time>2021-03-06T10:19:49Z</time>
      </trkpt>
      <trkpt lat="42.74411" lon="1.54146">
        <ele>1670.777</ele>
        <time>2021-03-06T10:19:51Z</time>
      </trkpt>
      <trkpt lat="42.74411" lon="1.54146">
        <ele>1670.519</ele>
        <time>2021-03-06T10:19:53Z</time>
      </trkpt>
      <trkpt lat="42.74411" lon="1.54146">
        <ele>1670.301</ele>
        <time>2021-03-06T10:19:55Z</time>
      </trkpt>
      <trkpt lat="42.74411" lon="1.54146">
        <ele>1670.301</ele>
        <time>2021-03-06T10:19:57Z</time>
      </trkpt>
      <trkpt lat="42.74411" lon="1.54146">
        <ele>1670.31</ele>
        <time>2021-03-06T10:19:59Z</time>
      </trkpt>
      <trkpt lat="42.74411" lon="1.54146">
        <ele>1670.349</ele>
        <time>2021-03-06T10:20:01Z</time>
      </trkpt>
      <trkpt lat="42.74411" lon="1.54146">
        <ele>1670.425</ele>
        <time>2021-03-06T10:20:03Z</time>
      </trkpt>
      <trkpt lat="42.74411" lon="1.54145">
        <ele>1670.443</ele>
        <time>2021-03-06T10:20:05Z</time>
      </trkpt>
      <trkpt lat="42.74411" lon="1.54145">
        <ele>1670.437</ele>
        <time>2021-03-06T10:20:07Z</time>
      </trkpt>
      <trkpt lat="42.74411" lon="1.54145">
        <ele>1670.431</ele>
        <time>2021-03-06T10:20:09Z</time>
      </trkpt>
      <trkpt lat="42.74411" lon="1.54145">
        <ele>1670.424</ele>
        <time>2021-03-06T10:20:11Z</time>
      </trkpt>
      <trkpt lat="42.74411" lon="1.54145">
        <ele>1670.419</ele>
        <time>2021-03-06T10:20:13Z</time>
      </trkpt>
      <trkpt lat="42.74411" lon="1.54145">
        <ele>1670.423</ele>
        <time>2021-03-06T10:20:15Z</time>
      </trkpt>
      <trkpt lat="42.74411" lon="1.54145">
        <ele>1670.398</ele>
        <time>2021-03-06T10:20:17Z</time>
      </trkpt>
      <trkpt lat="42.74411" lon="1.54145">
        <ele>1670.407</ele>
        <time>2021-03-06T10:20:19Z</time>
      </trkpt>
      <trkpt lat="42.74412" lon="1.54145">
        <ele>1670.851</ele>
        <time>2021-03-06T10:20:21Z</time>
      </trkpt>
      <trkpt lat="42.74412" lon="1.54145">
        <ele>1670.853</ele>
        <time>2021-03-06T10:20:23Z</time>
      </trkpt>
      <trkpt lat="42.74412" lon="1.54145">
        <ele>1670.851</ele>
        <time>2021-03-06T10:20:25Z</time>
      </trkpt>
      <trkpt lat="42.74412" lon="1.54145">
        <ele>1670.851</ele>
        <time>2021-03-06T10:20:27Z</time>
      </trkpt>
      <trkpt lat="42.74412" lon="1.54145">
        <ele>1670.848</ele>
        <time>2021-03-06T10:20:29Z</time>
      </trkpt>
      <trkpt lat="42.74412" lon="1.54145">
        <ele>1670.842</ele>
        <time>2021-03-06T10:20:31Z</time>
      </trkpt>
      <trkpt lat="42.74412" lon="1.54145">
        <ele>1670.841</ele>
        <time>2021-03-06T10:20:33Z</time>
      </trkpt>
      <trkpt lat="42.74412" lon="1.54145">
        <ele>1670.841</ele>
        <time>2021-03-06T10:20:35Z</time>
      </trkpt>
      <trkpt lat="42.74412" lon="1.54145">
        <ele>1670.84</ele>
        <time>2021-03-06T10:20:37Z</time>
      </trkpt>
      <trkpt lat="42.74412" lon="1.54145">
        <ele>1670.84</ele>
        <time>2021-03-06T10:20:39Z</time>
      </trkpt>
      <trkpt lat="42.74412" lon="1.54145">
        <ele>1670.837</ele>
        <time>2021-03-06T10:20:41Z</time>
      </trkpt>
      <trkpt lat="42.74412" lon="1.54145">
        <ele>1670.834</ele>
        <time>2021-03-06T10:20:43Z</time>
      </trkpt>
      <trkpt lat="42.74412" lon="1.54145">
        <ele>1670.834</ele>
        <time>2021-03-06T10:20:45Z</time>
      </trkpt>
      <trkpt lat="42.74412" lon="1.54145">
        <ele>1670.834</ele>
        <time>2021-03-06T10:20:47Z</time>
      </trkpt>
      <trkpt lat="42.74412" lon="1.54145">
        <ele>1670.833</ele>
        <time>2021-03-06T10:20:49Z</time>
      </trkpt>
      <trkpt lat="42.74412" lon="1.54145">
        <ele>1670.835</ele>
        <time>2021-03-06T10:20:51Z</time>
      </trkpt>
      <trkpt lat="42.74412" lon="1.54145">
        <ele>1670.836</ele>
        <time>2021-03-06T10:20:53Z</time>
      </trkpt>
      <trkpt lat="42.74412" lon="1.54145">
        <ele>1670.857</ele>
        <time>2021-03-06T10:20:55Z</time>
      </trkpt>
      <trkpt lat="42.74412" lon="1.54145">
        <ele>1670.855</ele>
        <time>2021-03-06T10:20:57Z</time>
      </trkpt>
      <trkpt lat="42.74412" lon="1.54145">
        <ele>1670.857</ele>
        <time>2021-03-06T10:20:59Z</time>
      </trkpt>
      <trkpt lat="42.74412" lon="1.54145">
        <ele>1670.854</ele>
        <time>2021-03-06T10:21:01Z</time>
      </trkpt>
      <trkpt lat="42.74412" lon="1.54145">
        <ele>1670.854</ele>
        <time>2021-03-06T10:21:03Z</time>
      </trkpt>
      <trkpt lat="42.74412" lon="1.54145">
        <ele>1670.851</ele>
        <time>2021-03-06T10:21:05Z</time>
      </trkpt>
      <trkpt lat="42.74412" lon="1.54145">
        <ele>1670.85</ele>
        <time>2021-03-06T10:21:07Z</time>
      </trkpt>
      <trkpt lat="42.74412" lon="1.54145">
        <ele>1670.849</ele>
        <time>2021-03-06T10:21:09Z</time>
      </trkpt>
      <trkpt lat="42.74412" lon="1.54145">
        <ele>1670.849</ele>
        <time>2021-03-06T10:21:11Z</time>
      </trkpt>
      <trkpt lat="42.74412" lon="1.54145">
        <ele>1670.848</ele>
        <time>2021-03-06T10:21:13Z</time>
      </trkpt>
      <trkpt lat="42.74412" lon="1.54145">
        <ele>1671.015</ele>
        <time>2021-03-06T10:21:15Z</time>
      </trkpt>
      <trkpt lat="42.74412" lon="1.54145">
        <ele>1671.017</ele>
        <time>2021-03-06T10:21:17Z</time>
      </trkpt>
      <trkpt lat="42.74412" lon="1.54145">
        <ele>1671.017</ele>
        <time>2021-03-06T10:21:19Z</time>
      </trkpt>
      <trkpt lat="42.74412" lon="1.54145">
        <ele>1671.017</ele>
        <time>2021-03-06T10:21:21Z</time>
      </trkpt>
      <trkpt lat="42.74412" lon="1.54145">
        <ele>1671.017</ele>
        <time>2021-03-06T10:21:23Z</time>
      </trkpt>
      <trkpt lat="42.74412" lon="1.54145">
        <ele>1671.018</ele>
        <time>2021-03-06T10:21:25Z</time>
      </trkpt>
      <trkpt lat="42.74412" lon="1.54145">
        <ele>1671.019</ele>
        <time>2021-03-06T10:21:27Z</time>
      </trkpt>
      <trkpt lat="42.74412" lon="1.54145">
        <ele>1671.022</ele>
        <time>2021-03-06T10:21:29Z</time>
      </trkpt>
      <trkpt lat="42.74412" lon="1.54145">
        <ele>1671.02</ele>
        <time>2021-03-06T10:21:31Z</time>
      </trkpt>
      <trkpt lat="42.74412" lon="1.54145">
        <ele>1671.016</ele>
        <time>2021-03-06T10:21:33Z</time>
      </trkpt>
      <trkpt lat="42.74412" lon="1.54145">
        <ele>1671.016</ele>
        <time>2021-03-06T10:21:35Z</time>
      </trkpt>
      <trkpt lat="42.74412" lon="1.54145">
        <ele>1671.013</ele>
        <time>2021-03-06T10:21:37Z</time>
      </trkpt>
      <trkpt lat="42.74412" lon="1.54145">
        <ele>1671.009</ele>
        <time>2021-03-06T10:21:39Z</time>
      </trkpt>
      <trkpt lat="42.74412" lon="1.54145">
        <ele>1671.009</ele>
        <time>2021-03-06T10:21:41Z</time>
      </trkpt>
      <trkpt lat="42.74412" lon="1.54145">
        <ele>1671.009</ele>
        <time>2021-03-06T10:21:43Z</time>
      </trkpt>
      <trkpt lat="42.74412" lon="1.54145">
        <ele>1671.009</ele>
        <time>2021-03-06T10:21:45Z</time>
      </trkpt>
      <trkpt lat="42.74412" lon="1.54145">
        <ele>1671.009</ele>
        <time>2021-03-06T10:21:47Z</time>
      </trkpt>
      <trkpt lat="42.74412" lon="1.54145">
        <ele>1671.009</ele>
        <time>2021-03-06T10:21:49Z</time>
      </trkpt>
      <trkpt lat="42.74412" lon="1.54145">
        <ele>1671.008</ele>
        <time>2021-03-06T10:21:51Z</time>
      </trkpt>
      <trkpt lat="42.74412" lon="1.54145">
        <ele>1671.008</ele>
        <time>2021-03-06T10:21:53Z</time>
      </trkpt>
      <trkpt lat="42.74412" lon="1.54145">
        <ele>1671.009</ele>
        <time>2021-03-06T10:21:55Z</time>
      </trkpt>
      <trkpt lat="42.74412" lon="1.54145">
        <ele>1671.008</ele>
        <time>2021-03-06T10:21:57Z</time>
      </trkpt>
      <trkpt lat="42.74412" lon="1.54145">
        <ele>1671.009</ele>
        <time>2021-03-06T10:21:59Z</time>
      </trkpt>
      <trkpt lat="42.74412" lon="1.54145">
        <ele>1671.009</ele>
        <time>2021-03-06T10:22:01Z</time>
      </trkpt>
      <trkpt lat="42.74412" lon="1.54145">
        <ele>1671.008</ele>
        <time>2021-03-06T10:22:03Z</time>
      </trkpt>
      <trkpt lat="42.74412" lon="1.54145">
        <ele>1671.005</ele>
        <time>2021-03-06T10:22:05Z</time>
      </trkpt>
      <trkpt lat="42.74412" lon="1.54145">
        <ele>1671.004</ele>
        <time>2021-03-06T10:22:07Z</time>
      </trkpt>
      <trkpt lat="42.74412" lon="1.54145">
        <ele>1671.104</ele>
        <time>2021-03-06T10:22:09Z</time>
      </trkpt>
      <trkpt lat="42.74412" lon="1.54145">
        <ele>1671.105</ele>
        <time>2021-03-06T10:22:11Z</time>
      </trkpt>
      <trkpt lat="42.74411" lon="1.54145">
        <ele>1670.959</ele>
        <time>2021-03-06T10:22:13Z</time>
      </trkpt>
      <trkpt lat="42.74411" lon="1.54145">
        <ele>1670.961</ele>
        <time>2021-03-06T10:22:15Z</time>
      </trkpt>
      <trkpt lat="42.74411" lon="1.54145">
        <ele>1671.101</ele>
        <time>2021-03-06T10:22:17Z</time>
      </trkpt>
      <trkpt lat="42.74409" lon="1.54146">
        <ele>1670.835</ele>
        <time>2021-03-06T10:22:19Z</time>
      </trkpt>
      <trkpt lat="42.74408" lon="1.54146">
        <ele>1671.002</ele>
        <time>2021-03-06T10:22:21Z</time>
      </trkpt>
      <trkpt lat="42.74407" lon="1.54146">
        <ele>1671.263</ele>
        <time>2021-03-06T10:22:23Z</time>
      </trkpt>
      <trkpt lat="42.74405" lon="1.54146">
        <ele>1671.754</ele>
        <time>2021-03-06T10:22:25Z</time>
      </trkpt>
      <trkpt lat="42.74404" lon="1.54147">
        <ele>1671.993</ele>
        <time>2021-03-06T10:22:27Z</time>
      </trkpt>
      <trkpt lat="42.74403" lon="1.54148">
        <ele>1672.619</ele>
        <time>2021-03-06T10:22:29Z</time>
      </trkpt>
      <trkpt lat="42.74402" lon="1.54148">
        <ele>1672.655</ele>
        <time>2021-03-06T10:22:31Z</time>
      </trkpt>
      <trkpt lat="42.74401" lon="1.54147">
        <ele>1673.295</ele>
        <time>2021-03-06T10:22:33Z</time>
      </trkpt>
      <trkpt lat="42.74399" lon="1.54146">
        <ele>1673.52</ele>
        <time>2021-03-06T10:22:35Z</time>
      </trkpt>
      <trkpt lat="42.74398" lon="1.54147">
        <ele>1674.041</ele>
        <time>2021-03-06T10:22:37Z</time>
      </trkpt>
      <trkpt lat="42.74397" lon="1.54147">
        <ele>1674.515</ele>
        <time>2021-03-06T10:22:39Z</time>
      </trkpt>
      <trkpt lat="42.74395" lon="1.54147">
        <ele>1675.326</ele>
        <time>2021-03-06T10:22:41Z</time>
      </trkpt>
      <trkpt lat="42.74394" lon="1.54147">
        <ele>1675.629</ele>
        <time>2021-03-06T10:22:43Z</time>
      </trkpt>
      <trkpt lat="42.74393" lon="1.54147">
        <ele>1675.813</ele>
        <time>2021-03-06T10:22:45Z</time>
      </trkpt>
      <trkpt lat="42.74392" lon="1.54148">
        <ele>1675.614</ele>
        <time>2021-03-06T10:22:47Z</time>
      </trkpt>
      <trkpt lat="42.74391" lon="1.54148">
        <ele>1675.715</ele>
        <time>2021-03-06T10:22:49Z</time>
      </trkpt>
      <trkpt lat="42.74389" lon="1.54148">
        <ele>1675.721</ele>
        <time>2021-03-06T10:22:51Z</time>
      </trkpt>
      <trkpt lat="42.74388" lon="1.54148">
        <ele>1676.171</ele>
        <time>2021-03-06T10:22:53Z</time>
      </trkpt>
      <trkpt lat="42.74387" lon="1.54148">
        <ele>1676.187</ele>
        <time>2021-03-06T10:22:55Z</time>
      </trkpt>
      <trkpt lat="42.74386" lon="1.54148">
        <ele>1676.611</ele>
        <time>2021-03-06T10:22:57Z</time>
      </trkpt>
      <trkpt lat="42.74385" lon="1.54148">
        <ele>1676.883</ele>
        <time>2021-03-06T10:22:59Z</time>
      </trkpt>
      <trkpt lat="42.74383" lon="1.54147">
        <ele>1677.179</ele>
        <time>2021-03-06T10:23:01Z</time>
      </trkpt>
      <trkpt lat="42.74382" lon="1.54146">
        <ele>1677.316</ele>
        <time>2021-03-06T10:23:03Z</time>
      </trkpt>
      <trkpt lat="42.74381" lon="1.54146">
        <ele>1677.999</ele>
        <time>2021-03-06T10:23:05Z</time>
      </trkpt>
      <trkpt lat="42.74379" lon="1.54146">
        <ele>1678.589</ele>
        <time>2021-03-06T10:23:07Z</time>
      </trkpt>
      <trkpt lat="42.74378" lon="1.54146">
        <ele>1678.967</ele>
        <time>2021-03-06T10:23:09Z</time>
      </trkpt>
      <trkpt lat="42.74377" lon="1.54145">
        <ele>1679.189</ele>
        <time>2021-03-06T10:23:11Z</time>
      </trkpt>
      <trkpt lat="42.74375" lon="1.54145">
        <ele>1679.811</ele>
        <time>2021-03-06T10:23:13Z</time>
      </trkpt>
      <trkpt lat="42.74374" lon="1.54145">
        <ele>1680.089</ele>
        <time>2021-03-06T10:23:15Z</time>
      </trkpt>
      <trkpt lat="42.74372" lon="1.54145">
        <ele>1681.168</ele>
        <time>2021-03-06T10:23:17Z</time>
      </trkpt>
      <trkpt lat="42.7437" lon="1.54144">
        <ele>1681.711</ele>
        <time>2021-03-06T10:23:19Z</time>
      </trkpt>
      <trkpt lat="42.74369" lon="1.54144">
        <ele>1682.088</ele>
        <time>2021-03-06T10:23:21Z</time>
      </trkpt>
      <trkpt lat="42.74367" lon="1.54144">
        <ele>1682.259</ele>
        <time>2021-03-06T10:23:23Z</time>
      </trkpt>
      <trkpt lat="42.74366" lon="1.54143">
        <ele>1682.527</ele>
        <time>2021-03-06T10:23:25Z</time>
      </trkpt>
      <trkpt lat="42.74364" lon="1.54143">
        <ele>1682.965</ele>
        <time>2021-03-06T10:23:27Z</time>
      </trkpt>
      <trkpt lat="42.74362" lon="1.54142">
        <ele>1683.563</ele>
        <time>2021-03-06T10:23:29Z</time>
      </trkpt>
      <trkpt lat="42.74361" lon="1.54142">
        <ele>1683.619</ele>
        <time>2021-03-06T10:23:31Z</time>
      </trkpt>
      <trkpt lat="42.74359" lon="1.54142">
        <ele>1683.936</ele>
        <time>2021-03-06T10:23:33Z</time>
      </trkpt>
      <trkpt lat="42.74357" lon="1.54141">
        <ele>1684.453</ele>
        <time>2021-03-06T10:23:35Z</time>
      </trkpt>
      <trkpt lat="42.74355" lon="1.54141">
        <ele>1684.671</ele>
        <time>2021-03-06T10:23:37Z</time>
      </trkpt>
      <trkpt lat="42.74354" lon="1.5414">
        <ele>1684.926</ele>
        <time>2021-03-06T10:23:39Z</time>
      </trkpt>
      <trkpt lat="42.74352" lon="1.5414">
        <ele>1685.295</ele>
        <time>2021-03-06T10:23:41Z</time>
      </trkpt>
      <trkpt lat="42.7435" lon="1.54139">
        <ele>1685.234</ele>
        <time>2021-03-06T10:23:43Z</time>
      </trkpt>
      <trkpt lat="42.74348" lon="1.54138">
        <ele>1685.645</ele>
        <time>2021-03-06T10:23:45Z</time>
      </trkpt>
      <trkpt lat="42.74347" lon="1.54136">
        <ele>1685.729</ele>
        <time>2021-03-06T10:23:47Z</time>
      </trkpt>
      <trkpt lat="42.74346" lon="1.54134">
        <ele>1686.152</ele>
        <time>2021-03-06T10:23:49Z</time>
      </trkpt>
      <trkpt lat="42.74345" lon="1.54132">
        <ele>1686.546</ele>
        <time>2021-03-06T10:23:51Z</time>
      </trkpt>
      <trkpt lat="42.74345" lon="1.5413">
        <ele>1687.053</ele>
        <time>2021-03-06T10:23:53Z</time>
      </trkpt>
      <trkpt lat="42.74345" lon="1.54129">
        <ele>1686.999</ele>
        <time>2021-03-06T10:23:55Z</time>
      </trkpt>
      <trkpt lat="42.74345" lon="1.54127">
        <ele>1687.482</ele>
        <time>2021-03-06T10:23:57Z</time>
      </trkpt>
      <trkpt lat="42.74346" lon="1.54125">
        <ele>1688.489</ele>
        <time>2021-03-06T10:23:59Z</time>
      </trkpt>
      <trkpt lat="42.74347" lon="1.54124">
        <ele>1689.312</ele>
        <time>2021-03-06T10:24:01Z</time>
      </trkpt>
      <trkpt lat="42.74348" lon="1.54122">
        <ele>1689.907</ele>
        <time>2021-03-06T10:24:03Z</time>
      </trkpt>
      <trkpt lat="42.74349" lon="1.54121">
        <ele>1689.99</ele>
        <time>2021-03-06T10:24:05Z</time>
      </trkpt>
      <trkpt lat="42.74351" lon="1.54121">
        <ele>1690.624</ele>
        <time>2021-03-06T10:24:07Z</time>
      </trkpt>
      <trkpt lat="42.74352" lon="1.5412">
        <ele>1690.788</ele>
        <time>2021-03-06T10:24:09Z</time>
      </trkpt>
      <trkpt lat="42.74353" lon="1.54119">
        <ele>1691.362</ele>
        <time>2021-03-06T10:24:11Z</time>
      </trkpt>
      <trkpt lat="42.74355" lon="1.54118">
        <ele>1691.219</ele>
        <time>2021-03-06T10:24:13Z</time>
      </trkpt>
      <trkpt lat="42.74356" lon="1.54117">
        <ele>1690.858</ele>
        <time>2021-03-06T10:24:15Z</time>
      </trkpt>
      <trkpt lat="42.74357" lon="1.54116">
        <ele>1690.61</ele>
        <time>2021-03-06T10:24:17Z</time>
      </trkpt>
      <trkpt lat="42.74358" lon="1.54115">
        <ele>1691.24</ele>
        <time>2021-03-06T10:24:19Z</time>
      </trkpt>
      <trkpt lat="42.7436" lon="1.54114">
        <ele>1691.13</ele>
        <time>2021-03-06T10:24:21Z</time>
      </trkpt>
      <trkpt lat="42.74361" lon="1.54113">
        <ele>1691.476</ele>
        <time>2021-03-06T10:24:23Z</time>
      </trkpt>
      <trkpt lat="42.74362" lon="1.54111">
        <ele>1691.855</ele>
        <time>2021-03-06T10:24:25Z</time>
      </trkpt>
      <trkpt lat="42.74363" lon="1.54109">
        <ele>1692.142</ele>
        <time>2021-03-06T10:24:27Z</time>
      </trkpt>
      <trkpt lat="42.74364" lon="1.54108">
        <ele>1692.298</ele>
        <time>2021-03-06T10:24:29Z</time>
      </trkpt>
      <trkpt lat="42.74365" lon="1.54106">
        <ele>1692.185</ele>
        <time>2021-03-06T10:24:31Z</time>
      </trkpt>
      <trkpt lat="42.74366" lon="1.54105">
        <ele>1692.844</ele>
        <time>2021-03-06T10:24:33Z</time>
      </trkpt>
      <trkpt lat="42.74367" lon="1.54103">
        <ele>1693.099</ele>
        <time>2021-03-06T10:24:35Z</time>
      </trkpt>
      <trkpt lat="42.74368" lon="1.54101">
        <ele>1693.269</ele>
        <time>2021-03-06T10:24:37Z</time>
      </trkpt>
      <trkpt lat="42.7437" lon="1.54099">
        <ele>1693.452</ele>
        <time>2021-03-06T10:24:39Z</time>
      </trkpt>
      <trkpt lat="42.7437" lon="1.54098">
        <ele>1693.786</ele>
        <time>2021-03-06T10:24:41Z</time>
      </trkpt>
      <trkpt lat="42.74371" lon="1.54096">
        <ele>1694.209</ele>
        <time>2021-03-06T10:24:43Z</time>
      </trkpt>
      <trkpt lat="42.74372" lon="1.54094">
        <ele>1694.34</ele>
        <time>2021-03-06T10:24:45Z</time>
      </trkpt>
      <trkpt lat="42.74373" lon="1.54092">
        <ele>1695.007</ele>
        <time>2021-03-06T10:24:47Z</time>
      </trkpt>
      <trkpt lat="42.74373" lon="1.5409">
        <ele>1695.301</ele>
        <time>2021-03-06T10:24:49Z</time>
      </trkpt>
      <trkpt lat="42.74374" lon="1.54089">
        <ele>1695.954</ele>
        <time>2021-03-06T10:24:51Z</time>
      </trkpt>
      <trkpt lat="42.74374" lon="1.54087">
        <ele>1696.971</ele>
        <time>2021-03-06T10:24:53Z</time>
      </trkpt>
      <trkpt lat="42.74373" lon="1.54085">
        <ele>1697.31</ele>
        <time>2021-03-06T10:24:55Z</time>
      </trkpt>
      <trkpt lat="42.74371" lon="1.54085">
        <ele>1697.67</ele>
        <time>2021-03-06T10:24:57Z</time>
      </trkpt>
      <trkpt lat="42.7437" lon="1.54085">
        <ele>1698.061</ele>
        <time>2021-03-06T10:24:59Z</time>
      </trkpt>
      <trkpt lat="42.74369" lon="1.54085">
        <ele>1698.606</ele>
        <time>2021-03-06T10:25:01Z</time>
      </trkpt>
      <trkpt lat="42.74368" lon="1.54086">
        <ele>1699.457</ele>
        <time>2021-03-06T10:25:03Z</time>
      </trkpt>
      <trkpt lat="42.74366" lon="1.54086">
        <ele>1699.933</ele>
        <time>2021-03-06T10:25:05Z</time>
      </trkpt>
      <trkpt lat="42.74365" lon="1.54087">
        <ele>1700.617</ele>
        <time>2021-03-06T10:25:07Z</time>
      </trkpt>
      <trkpt lat="42.74363" lon="1.54087">
        <ele>1700.612</ele>
        <time>2021-03-06T10:25:09Z</time>
      </trkpt>
      <trkpt lat="42.74362" lon="1.54087">
        <ele>1700.332</ele>
        <time>2021-03-06T10:25:11Z</time>
      </trkpt>
      <trkpt lat="42.7436" lon="1.54087">
        <ele>1701.142</ele>
        <time>2021-03-06T10:25:13Z</time>
      </trkpt>
      <trkpt lat="42.74358" lon="1.54086">
        <ele>1701.413</ele>
        <time>2021-03-06T10:25:15Z</time>
      </trkpt>
      <trkpt lat="42.74356" lon="1.54086">
        <ele>1701.755</ele>
        <time>2021-03-06T10:25:17Z</time>
      </trkpt>
      <trkpt lat="42.74354" lon="1.54086">
        <ele>1702.29</ele>
        <time>2021-03-06T10:25:19Z</time>
      </trkpt>
      <trkpt lat="42.74352" lon="1.54086">
        <ele>1702.763</ele>
        <time>2021-03-06T10:25:21Z</time>
      </trkpt>
      <trkpt lat="42.7435" lon="1.54085">
        <ele>1702.818</ele>
        <time>2021-03-06T10:25:23Z</time>
      </trkpt>
      <trkpt lat="42.74349" lon="1.54085">
        <ele>1703.206</ele>
        <time>2021-03-06T10:25:25Z</time>
      </trkpt>
      <trkpt lat="42.74348" lon="1.54084">
        <ele>1703.792</ele>
        <time>2021-03-06T10:25:27Z</time>
      </trkpt>
      <trkpt lat="42.74347" lon="1.54084">
        <ele>1703.953</ele>
        <time>2021-03-06T10:25:29Z</time>
      </trkpt>
      <trkpt lat="42.74347" lon="1.54084">
        <ele>1703.951</ele>
        <time>2021-03-06T10:25:31Z</time>
      </trkpt>
      <trkpt lat="42.74347" lon="1.54084">
        <ele>1703.952</ele>
        <time>2021-03-06T10:25:33Z</time>
      </trkpt>
      <trkpt lat="42.74345" lon="1.54085">
        <ele>1704.117</ele>
        <time>2021-03-06T10:25:35Z</time>
      </trkpt>
      <trkpt lat="42.74345" lon="1.54085">
        <ele>1704.336</ele>
        <time>2021-03-06T10:25:37Z</time>
      </trkpt>
      <trkpt lat="42.74345" lon="1.54084">
        <ele>1704.278</ele>
        <time>2021-03-06T10:25:39Z</time>
      </trkpt>
      <trkpt lat="42.74344" lon="1.54084">
        <ele>1704.491</ele>
        <time>2021-03-06T10:25:41Z</time>
      </trkpt>
      <trkpt lat="42.74343" lon="1.54083">
        <ele>1704.521</ele>
        <time>2021-03-06T10:25:43Z</time>
      </trkpt>
      <trkpt lat="42.74341" lon="1.54083">
        <ele>1704.311</ele>
        <time>2021-03-06T10:25:45Z</time>
      </trkpt>
      <trkpt lat="42.74339" lon="1.54083">
        <ele>1704.416</ele>
        <time>2021-03-06T10:25:47Z</time>
      </trkpt>
      <trkpt lat="42.74338" lon="1.54082">
        <ele>1704.545</ele>
        <time>2021-03-06T10:25:49Z</time>
      </trkpt>
      <trkpt lat="42.74336" lon="1.54082">
        <ele>1704.574</ele>
        <time>2021-03-06T10:25:51Z</time>
      </trkpt>
      <trkpt lat="42.74334" lon="1.54082">
        <ele>1704.945</ele>
        <time>2021-03-06T10:25:53Z</time>
      </trkpt>
      <trkpt lat="42.74333" lon="1.54082">
        <ele>1704.846</ele>
        <time>2021-03-06T10:25:55Z</time>
      </trkpt>
      <trkpt lat="42.74331" lon="1.54081">
        <ele>1704.999</ele>
        <time>2021-03-06T10:25:57Z</time>
      </trkpt>
      <trkpt lat="42.74329" lon="1.54081">
        <ele>1705.344</ele>
        <time>2021-03-06T10:25:59Z</time>
      </trkpt>
      <trkpt lat="42.74327" lon="1.5408">
        <ele>1705.74</ele>
        <time>2021-03-06T10:26:01Z</time>
      </trkpt>
      <trkpt lat="42.74325" lon="1.5408">
        <ele>1705.853</ele>
        <time>2021-03-06T10:26:03Z</time>
      </trkpt>
      <trkpt lat="42.74324" lon="1.5408">
        <ele>1706.107</ele>
        <time>2021-03-06T10:26:05Z</time>
      </trkpt>
      <trkpt lat="42.74322" lon="1.54079">
        <ele>1706.554</ele>
        <time>2021-03-06T10:26:07Z</time>
      </trkpt>
      <trkpt lat="42.7432" lon="1.54079">
        <ele>1707.061</ele>
        <time>2021-03-06T10:26:09Z</time>
      </trkpt>
      <trkpt lat="42.7432" lon="1.54079">
        <ele>1706.704</ele>
        <time>2021-03-06T10:26:11Z</time>
      </trkpt>
      <trkpt lat="42.7432" lon="1.54079">
        <ele>1706.681</ele>
        <time>2021-03-06T10:26:13Z</time>
      </trkpt>
      <trkpt lat="42.7432" lon="1.54079">
        <ele>1706.682</ele>
        <time>2021-03-06T10:26:15Z</time>
      </trkpt>
      <trkpt lat="42.7432" lon="1.54078">
        <ele>1706.788</ele>
        <time>2021-03-06T10:26:17Z</time>
      </trkpt>
      <trkpt lat="42.7432" lon="1.54078">
        <ele>1707.007</ele>
        <time>2021-03-06T10:26:19Z</time>
      </trkpt>
      <trkpt lat="42.7432" lon="1.54078">
        <ele>1706.841</ele>
        <time>2021-03-06T10:26:21Z</time>
      </trkpt>
      <trkpt lat="42.74321" lon="1.54078">
        <ele>1706.797</ele>
        <time>2021-03-06T10:26:23Z</time>
      </trkpt>
      <trkpt lat="42.74322" lon="1.54078">
        <ele>1706.591</ele>
        <time>2021-03-06T10:26:25Z</time>
      </trkpt>
      <trkpt lat="42.74324" lon="1.54079">
        <ele>1706.609</ele>
        <time>2021-03-06T10:26:27Z</time>
      </trkpt>
      <trkpt lat="42.74326" lon="1.54079">
        <ele>1706.854</ele>
        <time>2021-03-06T10:26:29Z</time>
      </trkpt>
      <trkpt lat="42.74328" lon="1.5408">
        <ele>1706.655</ele>
        <time>2021-03-06T10:26:31Z</time>
      </trkpt>
      <trkpt lat="42.74329" lon="1.5408">
        <ele>1706.069</ele>
        <time>2021-03-06T10:26:33Z</time>
      </trkpt>
      <trkpt lat="42.74331" lon="1.54081">
        <ele>1705.657</ele>
        <time>2021-03-06T10:26:35Z</time>
      </trkpt>
      <trkpt lat="42.74333" lon="1.54081">
        <ele>1705.295</ele>
        <time>2021-03-06T10:26:37Z</time>
      </trkpt>
      <trkpt lat="42.74334" lon="1.54081">
        <ele>1705.404</ele>
        <time>2021-03-06T10:26:39Z</time>
      </trkpt>
      <trkpt lat="42.74335" lon="1.54082">
        <ele>1705.387</ele>
        <time>2021-03-06T10:26:41Z</time>
      </trkpt>
      <trkpt lat="42.74338" lon="1.54082">
        <ele>1706.804</ele>
        <time>2021-03-06T10:26:43Z</time>
      </trkpt>
      <trkpt lat="42.74339" lon="1.54082">
        <ele>1706.388</ele>
        <time>2021-03-06T10:26:45Z</time>
      </trkpt>
      <trkpt lat="42.7434" lon="1.54083">
        <ele>1705.873</ele>
        <time>2021-03-06T10:26:47Z</time>
      </trkpt>
      <trkpt lat="42.74342" lon="1.54083">
        <ele>1705.298</ele>
        <time>2021-03-06T10:26:49Z</time>
      </trkpt>
      <trkpt lat="42.74345" lon="1.54083">
        <ele>1704.752</ele>
        <time>2021-03-06T10:26:51Z</time>
      </trkpt>
      <trkpt lat="42.74347" lon="1.54084">
        <ele>1704.539</ele>
        <time>2021-03-06T10:26:53Z</time>
      </trkpt>
      <trkpt lat="42.74349" lon="1.54084">
        <ele>1704.166</ele>
        <time>2021-03-06T10:26:55Z</time>
      </trkpt>
      <trkpt lat="42.74351" lon="1.54084">
        <ele>1704.03</ele>
        <time>2021-03-06T10:26:57Z</time>
      </trkpt>
      <trkpt lat="42.74352" lon="1.54085">
        <ele>1704.041</ele>
        <time>2021-03-06T10:26:59Z</time>
      </trkpt>
      <trkpt lat="42.74354" lon="1.54085">
        <ele>1703.537</ele>
        <time>2021-03-06T10:27:01Z</time>
      </trkpt>
      <trkpt lat="42.74356" lon="1.54087">
        <ele>1702.95</ele>
        <time>2021-03-06T10:27:03Z</time>
      </trkpt>
      <trkpt lat="42.74357" lon="1.54087">
        <ele>1703.061</ele>
        <time>2021-03-06T10:27:05Z</time>
      </trkpt>
      <trkpt lat="42.74359" lon="1.54086">
        <ele>1703.941</ele>
        <time>2021-03-06T10:27:07Z</time>
      </trkpt>
      <trkpt lat="42.74361" lon="1.54082">
        <ele>1703.766</ele>
        <time>2021-03-06T10:27:09Z</time>
      </trkpt>
      <trkpt lat="42.74363" lon="1.54085">
        <ele>1703.07</ele>
        <time>2021-03-06T10:27:11Z</time>
      </trkpt>
      <trkpt lat="42.74364" lon="1.54086">
        <ele>1702.791</ele>
        <time>2021-03-06T10:27:13Z</time>
      </trkpt>
      <trkpt lat="42.74366" lon="1.54087">
        <ele>1703.028</ele>
        <time>2021-03-06T10:27:15Z</time>
      </trkpt>
      <trkpt lat="42.74368" lon="1.54086">
        <ele>1703.397</ele>
        <time>2021-03-06T10:27:17Z</time>
      </trkpt>
      <trkpt lat="42.74369" lon="1.54086">
        <ele>1702.852</ele>
        <time>2021-03-06T10:27:19Z</time>
      </trkpt>
      <trkpt lat="42.74371" lon="1.54086">
        <ele>1702.831</ele>
        <time>2021-03-06T10:27:21Z</time>
      </trkpt>
      <trkpt lat="42.74373" lon="1.54085">
        <ele>1702.663</ele>
        <time>2021-03-06T10:27:23Z</time>
      </trkpt>
      <trkpt lat="42.74374" lon="1.54086">
        <ele>1701.928</ele>
        <time>2021-03-06T10:27:25Z</time>
      </trkpt>
      <trkpt lat="42.74376" lon="1.54086">
        <ele>1700.728</ele>
        <time>2021-03-06T10:27:27Z</time>
      </trkpt>
      <trkpt lat="42.74377" lon="1.54085">
        <ele>1700.243</ele>
        <time>2021-03-06T10:27:29Z</time>
      </trkpt>
      <trkpt lat="42.74378" lon="1.54083">
        <ele>1700.15</ele>
        <time>2021-03-06T10:27:31Z</time>
      </trkpt>
      <trkpt lat="42.74379" lon="1.54081">
        <ele>1700.346</ele>
        <time>2021-03-06T10:27:33Z</time>
      </trkpt>
      <trkpt lat="42.74379" lon="1.54079">
        <ele>1700.448</ele>
        <time>2021-03-06T10:27:35Z</time>
      </trkpt>
      <trkpt lat="42.7438" lon="1.54077">
        <ele>1700.614</ele>
        <time>2021-03-06T10:27:37Z</time>
      </trkpt>
      <trkpt lat="42.74381" lon="1.54075">
        <ele>1700.568</ele>
        <time>2021-03-06T10:27:39Z</time>
      </trkpt>
      <trkpt lat="42.74382" lon="1.54072">
        <ele>1700.829</ele>
        <time>2021-03-06T10:27:41Z</time>
      </trkpt>
      <trkpt lat="42.74382" lon="1.5407">
        <ele>1701.429</ele>
        <time>2021-03-06T10:27:43Z</time>
      </trkpt>
      <trkpt lat="42.74383" lon="1.54068">
        <ele>1701.861</ele>
        <time>2021-03-06T10:27:45Z</time>
      </trkpt>
      <trkpt lat="42.74384" lon="1.54066">
        <ele>1702.223</ele>
        <time>2021-03-06T10:27:47Z</time>
      </trkpt>
      <trkpt lat="42.74384" lon="1.54064">
        <ele>1702.596</ele>
        <time>2021-03-06T10:27:49Z</time>
      </trkpt>
      <trkpt lat="42.74385" lon="1.54063">
        <ele>1702.854</ele>
        <time>2021-03-06T10:27:51Z</time>
      </trkpt>
      <trkpt lat="42.74386" lon="1.54061">
        <ele>1703.13</ele>
        <time>2021-03-06T10:27:53Z</time>
      </trkpt>
      <trkpt lat="42.74386" lon="1.54059">
        <ele>1703.061</ele>
        <time>2021-03-06T10:27:55Z</time>
      </trkpt>
      <trkpt lat="42.74387" lon="1.54057">
        <ele>1703.336</ele>
        <time>2021-03-06T10:27:57Z</time>
      </trkpt>
      <trkpt lat="42.74387" lon="1.54055">
        <ele>1702.889</ele>
        <time>2021-03-06T10:27:59Z</time>
      </trkpt>
      <trkpt lat="42.74388" lon="1.54053">
        <ele>1703.055</ele>
        <time>2021-03-06T10:28:01Z</time>
      </trkpt>
      <trkpt lat="42.74389" lon="1.54051">
        <ele>1704.097</ele>
        <time>2021-03-06T10:28:03Z</time>
      </trkpt>
      <trkpt lat="42.7439" lon="1.54048">
        <ele>1704.385</ele>
        <time>2021-03-06T10:28:05Z</time>
      </trkpt>
      <trkpt lat="42.7439" lon="1.54046">
        <ele>1705.092</ele>
        <time>2021-03-06T10:28:07Z</time>
      </trkpt>
      <trkpt lat="42.74391" lon="1.54044">
        <ele>1705.93</ele>
        <time>2021-03-06T10:28:09Z</time>
      </trkpt>
      <trkpt lat="42.74392" lon="1.54041">
        <ele>1705.867</ele>
        <time>2021-03-06T10:28:11Z</time>
      </trkpt>
      <trkpt lat="42.74392" lon="1.54039">
        <ele>1706.006</ele>
        <time>2021-03-06T10:28:13Z</time>
      </trkpt>
      <trkpt lat="42.74392" lon="1.54037">
        <ele>1706.171</ele>
        <time>2021-03-06T10:28:15Z</time>
      </trkpt>
      <trkpt lat="42.74393" lon="1.54035">
        <ele>1706.519</ele>
        <time>2021-03-06T10:28:17Z</time>
      </trkpt>
      <trkpt lat="42.74393" lon="1.54033">
        <ele>1706.632</ele>
        <time>2021-03-06T10:28:19Z</time>
      </trkpt>
      <trkpt lat="42.74394" lon="1.54031">
        <ele>1707.096</ele>
        <time>2021-03-06T10:28:21Z</time>
      </trkpt>
      <trkpt lat="42.74394" lon="1.5403">
        <ele>1707.374</ele>
        <time>2021-03-06T10:28:22Z</time>
      </trkpt>
      <trkpt lat="42.74395" lon="1.54027">
        <ele>1706.907</ele>
        <time>2021-03-06T10:28:25Z</time>
      </trkpt>
      <trkpt lat="42.74395" lon="1.54025">
        <ele>1707.252</ele>
        <time>2021-03-06T10:28:27Z</time>
      </trkpt>
      <trkpt lat="42.74396" lon="1.54023">
        <ele>1707.681</ele>
        <time>2021-03-06T10:28:29Z</time>
      </trkpt>
      <trkpt lat="42.74396" lon="1.54021">
        <ele>1707.618</ele>
        <time>2021-03-06T10:28:31Z</time>
      </trkpt>
      <trkpt lat="42.74397" lon="1.54019">
        <ele>1707.702</ele>
        <time>2021-03-06T10:28:33Z</time>
      </trkpt>
      <trkpt lat="42.74397" lon="1.54017">
        <ele>1707.649</ele>
        <time>2021-03-06T10:28:35Z</time>
      </trkpt>
      <trkpt lat="42.74398" lon="1.54016">
        <ele>1707.864</ele>
        <time>2021-03-06T10:28:37Z</time>
      </trkpt>
      <trkpt lat="42.74399" lon="1.54014">
        <ele>1707.736</ele>
        <time>2021-03-06T10:28:39Z</time>
      </trkpt>
      <trkpt lat="42.74399" lon="1.54013">
        <ele>1707.819</ele>
        <time>2021-03-06T10:28:41Z</time>
      </trkpt>
      <trkpt lat="42.744" lon="1.54011">
        <ele>1707.616</ele>
        <time>2021-03-06T10:28:43Z</time>
      </trkpt>
      <trkpt lat="42.74401" lon="1.54009">
        <ele>1707.459</ele>
        <time>2021-03-06T10:28:45Z</time>
      </trkpt>
      <trkpt lat="42.74401" lon="1.54007">
        <ele>1708.692</ele>
        <time>2021-03-06T10:28:47Z</time>
      </trkpt>
      <trkpt lat="42.74402" lon="1.54005">
        <ele>1708.459</ele>
        <time>2021-03-06T10:28:49Z</time>
      </trkpt>
      <trkpt lat="42.74402" lon="1.54003">
        <ele>1709.242</ele>
        <time>2021-03-06T10:28:51Z</time>
      </trkpt>
      <trkpt lat="42.74403" lon="1.54001">
        <ele>1709.404</ele>
        <time>2021-03-06T10:28:53Z</time>
      </trkpt>
      <trkpt lat="42.74404" lon="1.53999">
        <ele>1710.363</ele>
        <time>2021-03-06T10:28:55Z</time>
      </trkpt>
      <trkpt lat="42.74404" lon="1.53998">
        <ele>1710.659</ele>
        <time>2021-03-06T10:28:56Z</time>
      </trkpt>
      <trkpt lat="42.74404" lon="1.53997">
        <ele>1711.105</ele>
        <time>2021-03-06T10:28:59Z</time>
      </trkpt>
      <trkpt lat="42.74405" lon="1.53997">
        <ele>1711.29</ele>
        <time>2021-03-06T10:29:01Z</time>
      </trkpt>
      <trkpt lat="42.74405" lon="1.53997">
        <ele>1711.711</ele>
        <time>2021-03-06T10:29:03Z</time>
      </trkpt>
      <trkpt lat="42.74406" lon="1.53996">
        <ele>1712.343</ele>
        <time>2021-03-06T10:29:05Z</time>
      </trkpt>
      <trkpt lat="42.74405" lon="1.53995">
        <ele>1712.159</ele>
        <time>2021-03-06T10:29:07Z</time>
      </trkpt>
      <trkpt lat="42.74405" lon="1.53995">
        <ele>1712.207</ele>
        <time>2021-03-06T10:29:09Z</time>
      </trkpt>
      <trkpt lat="42.74405" lon="1.53995">
        <ele>1712.027</ele>
        <time>2021-03-06T10:29:11Z</time>
      </trkpt>
      <trkpt lat="42.74406" lon="1.53995">
        <ele>1712.025</ele>
        <time>2021-03-06T10:29:13Z</time>
      </trkpt>
      <trkpt lat="42.74406" lon="1.53995">
        <ele>1712.098</ele>
        <time>2021-03-06T10:29:15Z</time>
      </trkpt>
      <trkpt lat="42.74406" lon="1.53993">
        <ele>1712.83</ele>
        <time>2021-03-06T10:29:17Z</time>
      </trkpt>
      <trkpt lat="42.74406" lon="1.53992">
        <ele>1713.059</ele>
        <time>2021-03-06T10:29:19Z</time>
      </trkpt>
      <trkpt lat="42.74406" lon="1.53992">
        <ele>1712.886</ele>
        <time>2021-03-06T10:29:21Z</time>
      </trkpt>
      <trkpt lat="42.74405" lon="1.53993">
        <ele>1712.814</ele>
        <time>2021-03-06T10:29:23Z</time>
      </trkpt>
      <trkpt lat="42.74404" lon="1.53992">
        <ele>1713.308</ele>
        <time>2021-03-06T10:29:25Z</time>
      </trkpt>
      <trkpt lat="42.74404" lon="1.53992">
        <ele>1712.705</ele>
        <time>2021-03-06T10:29:27Z</time>
      </trkpt>
      <trkpt lat="42.74406" lon="1.53991">
        <ele>1712.485</ele>
        <time>2021-03-06T10:29:29Z</time>
      </trkpt>
      <trkpt lat="42.74407" lon="1.53989">
        <ele>1712.874</ele>
        <time>2021-03-06T10:29:31Z</time>
      </trkpt>
      <trkpt lat="42.74405" lon="1.53988">
        <ele>1713.967</ele>
        <time>2021-03-06T10:29:33Z</time>
      </trkpt>
      <trkpt lat="42.74404" lon="1.53988">
        <ele>1715.009</ele>
        <time>2021-03-06T10:29:35Z</time>
      </trkpt>
      <trkpt lat="42.74403" lon="1.53988">
        <ele>1714.723</ele>
        <time>2021-03-06T10:29:37Z</time>
      </trkpt>
      <trkpt lat="42.74402" lon="1.53988">
        <ele>1714.932</ele>
        <time>2021-03-06T10:29:39Z</time>
      </trkpt>
      <trkpt lat="42.74401" lon="1.53988">
        <ele>1715.286</ele>
        <time>2021-03-06T10:29:41Z</time>
      </trkpt>
      <trkpt lat="42.744" lon="1.53988">
        <ele>1715.357</ele>
        <time>2021-03-06T10:29:43Z</time>
      </trkpt>
      <trkpt lat="42.74399" lon="1.53988">
        <ele>1715.455</ele>
        <time>2021-03-06T10:29:45Z</time>
      </trkpt>
      <trkpt lat="42.74398" lon="1.53987">
        <ele>1715.558</ele>
        <time>2021-03-06T10:29:47Z</time>
      </trkpt>
      <trkpt lat="42.74396" lon="1.53987">
        <ele>1716.661</ele>
        <time>2021-03-06T10:29:49Z</time>
      </trkpt>
      <trkpt lat="42.74395" lon="1.53987">
        <ele>1716.787</ele>
        <time>2021-03-06T10:29:51Z</time>
      </trkpt>
      <trkpt lat="42.74394" lon="1.53987">
        <ele>1717.554</ele>
        <time>2021-03-06T10:29:53Z</time>
      </trkpt>
      <trkpt lat="42.74393" lon="1.53986">
        <ele>1717.998</ele>
        <time>2021-03-06T10:29:55Z</time>
      </trkpt>
      <trkpt lat="42.74393" lon="1.53986">
        <ele>1718.454</ele>
        <time>2021-03-06T10:29:57Z</time>
      </trkpt>
      <trkpt lat="42.74392" lon="1.53986">
        <ele>1719.115</ele>
        <time>2021-03-06T10:29:59Z</time>
      </trkpt>
      <trkpt lat="42.74391" lon="1.53985">
        <ele>1719.577</ele>
        <time>2021-03-06T10:30:01Z</time>
      </trkpt>
      <trkpt lat="42.7439" lon="1.53985">
        <ele>1719.923</ele>
        <time>2021-03-06T10:30:03Z</time>
      </trkpt>
      <trkpt lat="42.74389" lon="1.53985">
        <ele>1720.371</ele>
        <time>2021-03-06T10:30:05Z</time>
      </trkpt>
      <trkpt lat="42.74388" lon="1.53986">
        <ele>1720.281</ele>
        <time>2021-03-06T10:30:07Z</time>
      </trkpt>
      <trkpt lat="42.74387" lon="1.53985">
        <ele>1720.754</ele>
        <time>2021-03-06T10:30:09Z</time>
      </trkpt>
      <trkpt lat="42.74385" lon="1.53986">
        <ele>1721.341</ele>
        <time>2021-03-06T10:30:11Z</time>
      </trkpt>
      <trkpt lat="42.74384" lon="1.53986">
        <ele>1721.685</ele>
        <time>2021-03-06T10:30:13Z</time>
      </trkpt>
      <trkpt lat="42.74384" lon="1.53986">
        <ele>1721.968</ele>
        <time>2021-03-06T10:30:15Z</time>
      </trkpt>
      <trkpt lat="42.74383" lon="1.53987">
        <ele>1721.385</ele>
        <time>2021-03-06T10:30:17Z</time>
      </trkpt>
      <trkpt lat="42.74382" lon="1.53987">
        <ele>1721.568</ele>
        <time>2021-03-06T10:30:19Z</time>
      </trkpt>
      <trkpt lat="42.74381" lon="1.53987">
        <ele>1721.53</ele>
        <time>2021-03-06T10:30:21Z</time>
      </trkpt>
      <trkpt lat="42.7438" lon="1.53987">
        <ele>1721.689</ele>
        <time>2021-03-06T10:30:23Z</time>
      </trkpt>
      <trkpt lat="42.7438" lon="1.53987">
        <ele>1721.608</ele>
        <time>2021-03-06T10:30:25Z</time>
      </trkpt>
      <trkpt lat="42.7438" lon="1.53987">
        <ele>1721.543</ele>
        <time>2021-03-06T10:30:27Z</time>
      </trkpt>
      <trkpt lat="42.74379" lon="1.53987">
        <ele>1721.724</ele>
        <time>2021-03-06T10:30:29Z</time>
      </trkpt>
      <trkpt lat="42.74378" lon="1.53987">
        <ele>1722.19</ele>
        <time>2021-03-06T10:30:31Z</time>
      </trkpt>
      <trkpt lat="42.74377" lon="1.53987">
        <ele>1722.496</ele>
        <time>2021-03-06T10:30:33Z</time>
      </trkpt>
      <trkpt lat="42.74376" lon="1.53988">
        <ele>1723.035</ele>
        <time>2021-03-06T10:30:35Z</time>
      </trkpt>
      <trkpt lat="42.74375" lon="1.53988">
        <ele>1722.815</ele>
        <time>2021-03-06T10:30:37Z</time>
      </trkpt>
      <trkpt lat="42.74374" lon="1.53989">
        <ele>1723.475</ele>
        <time>2021-03-06T10:30:39Z</time>
      </trkpt>
      <trkpt lat="42.74373" lon="1.53989">
        <ele>1724.042</ele>
        <time>2021-03-06T10:30:41Z</time>
      </trkpt>
      <trkpt lat="42.74371" lon="1.53989">
        <ele>1724.021</ele>
        <time>2021-03-06T10:30:43Z</time>
      </trkpt>
      <trkpt lat="42.7437" lon="1.53989">
        <ele>1724.33</ele>
        <time>2021-03-06T10:30:45Z</time>
      </trkpt>
      <trkpt lat="42.74369" lon="1.53989">
        <ele>1724.332</ele>
        <time>2021-03-06T10:30:47Z</time>
      </trkpt>
      <trkpt lat="42.74368" lon="1.53989">
        <ele>1724.82</ele>
        <time>2021-03-06T10:30:49Z</time>
      </trkpt>
      <trkpt lat="42.74367" lon="1.5399">
        <ele>1725.104</ele>
        <time>2021-03-06T10:30:51Z</time>
      </trkpt>
      <trkpt lat="42.74366" lon="1.53991">
        <ele>1725.212</ele>
        <time>2021-03-06T10:30:53Z</time>
      </trkpt>
      <trkpt lat="42.74364" lon="1.53992">
        <ele>1725.442</ele>
        <time>2021-03-06T10:30:55Z</time>
      </trkpt>
      <trkpt lat="42.74363" lon="1.53992">
        <ele>1725.686</ele>
        <time>2021-03-06T10:30:57Z</time>
      </trkpt>
      <trkpt lat="42.74362" lon="1.53992">
        <ele>1725.496</ele>
        <time>2021-03-06T10:30:59Z</time>
      </trkpt>
      <trkpt lat="42.7436" lon="1.53992">
        <ele>1725.63</ele>
        <time>2021-03-06T10:31:01Z</time>
      </trkpt>
      <trkpt lat="42.74358" lon="1.53992">
        <ele>1726.668</ele>
        <time>2021-03-06T10:31:03Z</time>
      </trkpt>
      <trkpt lat="42.74357" lon="1.53992">
        <ele>1727.143</ele>
        <time>2021-03-06T10:31:05Z</time>
      </trkpt>
      <trkpt lat="42.74355" lon="1.53992">
        <ele>1727.858</ele>
        <time>2021-03-06T10:31:07Z</time>
      </trkpt>
      <trkpt lat="42.74354" lon="1.53991">
        <ele>1728.607</ele>
        <time>2021-03-06T10:31:09Z</time>
      </trkpt>
      <trkpt lat="42.74352" lon="1.53991">
        <ele>1728.969</ele>
        <time>2021-03-06T10:31:11Z</time>
      </trkpt>
      <trkpt lat="42.74351" lon="1.53991">
        <ele>1729.972</ele>
        <time>2021-03-06T10:31:13Z</time>
      </trkpt>
      <trkpt lat="42.7435" lon="1.53991">
        <ele>1729.736</ele>
        <time>2021-03-06T10:31:15Z</time>
      </trkpt>
      <trkpt lat="42.74348" lon="1.53991">
        <ele>1730.312</ele>
        <time>2021-03-06T10:31:17Z</time>
      </trkpt>
      <trkpt lat="42.74347" lon="1.53991">
        <ele>1730.799</ele>
        <time>2021-03-06T10:31:19Z</time>
      </trkpt>
      <trkpt lat="42.74345" lon="1.5399">
        <ele>1730.726</ele>
        <time>2021-03-06T10:31:21Z</time>
      </trkpt>
      <trkpt lat="42.74344" lon="1.5399">
        <ele>1731.194</ele>
        <time>2021-03-06T10:31:23Z</time>
      </trkpt>
      <trkpt lat="42.74343" lon="1.5399">
        <ele>1731.355</ele>
        <time>2021-03-06T10:31:25Z</time>
      </trkpt>
      <trkpt lat="42.74341" lon="1.5399">
        <ele>1731.496</ele>
        <time>2021-03-06T10:31:27Z</time>
      </trkpt>
      <trkpt lat="42.7434" lon="1.5399">
        <ele>1731.369</ele>
        <time>2021-03-06T10:31:29Z</time>
      </trkpt>
      <trkpt lat="42.74338" lon="1.5399">
        <ele>1731.85</ele>
        <time>2021-03-06T10:31:31Z</time>
      </trkpt>
      <trkpt lat="42.74337" lon="1.53989">
        <ele>1731.366</ele>
        <time>2021-03-06T10:31:33Z</time>
      </trkpt>
      <trkpt lat="42.74336" lon="1.53989">
        <ele>1731.849</ele>
        <time>2021-03-06T10:31:35Z</time>
      </trkpt>
      <trkpt lat="42.74334" lon="1.53989">
        <ele>1731.637</ele>
        <time>2021-03-06T10:31:37Z</time>
      </trkpt>
      <trkpt lat="42.74333" lon="1.53989">
        <ele>1731.756</ele>
        <time>2021-03-06T10:31:39Z</time>
      </trkpt>
      <trkpt lat="42.74331" lon="1.53989">
        <ele>1732.026</ele>
        <time>2021-03-06T10:31:41Z</time>
      </trkpt>
      <trkpt lat="42.74329" lon="1.53988">
        <ele>1732.254</ele>
        <time>2021-03-06T10:31:43Z</time>
      </trkpt>
      <trkpt lat="42.74328" lon="1.53988">
        <ele>1732.283</ele>
        <time>2021-03-06T10:31:45Z</time>
      </trkpt>
      <trkpt lat="42.74326" lon="1.53988">
        <ele>1733.02</ele>
        <time>2021-03-06T10:31:47Z</time>
      </trkpt>
      <trkpt lat="42.74325" lon="1.53988">
        <ele>1733.685</ele>
        <time>2021-03-06T10:31:49Z</time>
      </trkpt>
      <trkpt lat="42.74323" lon="1.53988">
        <ele>1733.795</ele>
        <time>2021-03-06T10:31:51Z</time>
      </trkpt>
      <trkpt lat="42.74322" lon="1.53988">
        <ele>1734.179</ele>
        <time>2021-03-06T10:31:53Z</time>
      </trkpt>
      <trkpt lat="42.7432" lon="1.53988">
        <ele>1734.819</ele>
        <time>2021-03-06T10:31:55Z</time>
      </trkpt>
      <trkpt lat="42.74319" lon="1.53987">
        <ele>1735.35</ele>
        <time>2021-03-06T10:31:57Z</time>
      </trkpt>
      <trkpt lat="42.74318" lon="1.53987">
        <ele>1735.687</ele>
        <time>2021-03-06T10:31:59Z</time>
      </trkpt>
      <trkpt lat="42.74316" lon="1.53987">
        <ele>1735.969</ele>
        <time>2021-03-06T10:32:01Z</time>
      </trkpt>
      <trkpt lat="42.74315" lon="1.53987">
        <ele>1735.943</ele>
        <time>2021-03-06T10:32:03Z</time>
      </trkpt>
      <trkpt lat="42.74313" lon="1.53986">
        <ele>1735.951</ele>
        <time>2021-03-06T10:32:05Z</time>
      </trkpt>
      <trkpt lat="42.74311" lon="1.53986">
        <ele>1736.399</ele>
        <time>2021-03-06T10:32:07Z</time>
      </trkpt>
      <trkpt lat="42.7431" lon="1.53985">
        <ele>1736.843</ele>
        <time>2021-03-06T10:32:09Z</time>
      </trkpt>
      <trkpt lat="42.74309" lon="1.53985">
        <ele>1737.071</ele>
        <time>2021-03-06T10:32:11Z</time>
      </trkpt>
      <trkpt lat="42.74307" lon="1.53984">
        <ele>1737.477</ele>
        <time>2021-03-06T10:32:13Z</time>
      </trkpt>
      <trkpt lat="42.74306" lon="1.53984">
        <ele>1738.172</ele>
        <time>2021-03-06T10:32:15Z</time>
      </trkpt>
      <trkpt lat="42.74305" lon="1.53983">
        <ele>1738.173</ele>
        <time>2021-03-06T10:32:17Z</time>
      </trkpt>
      <trkpt lat="42.74304" lon="1.53982">
        <ele>1738.806</ele>
        <time>2021-03-06T10:32:19Z</time>
      </trkpt>
      <trkpt lat="42.74302" lon="1.53982">
        <ele>1739.085</ele>
        <time>2021-03-06T10:32:21Z</time>
      </trkpt>
      <trkpt lat="42.74301" lon="1.53982">
        <ele>1739.08</ele>
        <time>2021-03-06T10:32:23Z</time>
      </trkpt>
      <trkpt lat="42.74299" lon="1.53981">
        <ele>1739.556</ele>
        <time>2021-03-06T10:32:25Z</time>
      </trkpt>
      <trkpt lat="42.74298" lon="1.5398">
        <ele>1740.33</ele>
        <time>2021-03-06T10:32:27Z</time>
      </trkpt>
      <trkpt lat="42.74297" lon="1.5398">
        <ele>1740.074</ele>
        <time>2021-03-06T10:32:29Z</time>
      </trkpt>
      <trkpt lat="42.74295" lon="1.53979">
        <ele>1740.923</ele>
        <time>2021-03-06T10:32:31Z</time>
      </trkpt>
      <trkpt lat="42.74294" lon="1.53979">
        <ele>1741.103</ele>
        <time>2021-03-06T10:32:33Z</time>
      </trkpt>
      <trkpt lat="42.74292" lon="1.53978">
        <ele>1741.575</ele>
        <time>2021-03-06T10:32:35Z</time>
      </trkpt>
      <trkpt lat="42.74291" lon="1.53978">
        <ele>1742.114</ele>
        <time>2021-03-06T10:32:37Z</time>
      </trkpt>
      <trkpt lat="42.7429" lon="1.53978">
        <ele>1742.622</ele>
        <time>2021-03-06T10:32:39Z</time>
      </trkpt>
      <trkpt lat="42.74288" lon="1.53977">
        <ele>1742.778</ele>
        <time>2021-03-06T10:32:41Z</time>
      </trkpt>
      <trkpt lat="42.74287" lon="1.53977">
        <ele>1743.001</ele>
        <time>2021-03-06T10:32:43Z</time>
      </trkpt>
      <trkpt lat="42.74286" lon="1.53976">
        <ele>1743.198</ele>
        <time>2021-03-06T10:32:45Z</time>
      </trkpt>
      <trkpt lat="42.74285" lon="1.53976">
        <ele>1743.581</ele>
        <time>2021-03-06T10:32:47Z</time>
      </trkpt>
      <trkpt lat="42.74283" lon="1.53975">
        <ele>1744.554</ele>
        <time>2021-03-06T10:32:49Z</time>
      </trkpt>
      <trkpt lat="42.74282" lon="1.53974">
        <ele>1744.442</ele>
        <time>2021-03-06T10:32:51Z</time>
      </trkpt>
      <trkpt lat="42.74281" lon="1.53974">
        <ele>1744.72</ele>
        <time>2021-03-06T10:32:53Z</time>
      </trkpt>
      <trkpt lat="42.7428" lon="1.53972">
        <ele>1744.209</ele>
        <time>2021-03-06T10:32:55Z</time>
      </trkpt>
      <trkpt lat="42.74278" lon="1.5397">
        <ele>1744.695</ele>
        <time>2021-03-06T10:32:57Z</time>
      </trkpt>
      <trkpt lat="42.74277" lon="1.53968">
        <ele>1745.36</ele>
        <time>2021-03-06T10:32:59Z</time>
      </trkpt>
      <trkpt lat="42.74276" lon="1.53966">
        <ele>1745.383</ele>
        <time>2021-03-06T10:33:01Z</time>
      </trkpt>
      <trkpt lat="42.74276" lon="1.53964">
        <ele>1745.234</ele>
        <time>2021-03-06T10:33:03Z</time>
      </trkpt>
      <trkpt lat="42.74275" lon="1.53962">
        <ele>1745.933</ele>
        <time>2021-03-06T10:33:05Z</time>
      </trkpt>
      <trkpt lat="42.74274" lon="1.5396">
        <ele>1746.699</ele>
        <time>2021-03-06T10:33:07Z</time>
      </trkpt>
      <trkpt lat="42.74273" lon="1.53959">
        <ele>1747.298</ele>
        <time>2021-03-06T10:33:09Z</time>
      </trkpt>
      <trkpt lat="42.74272" lon="1.53957">
        <ele>1747.437</ele>
        <time>2021-03-06T10:33:11Z</time>
      </trkpt>
      <trkpt lat="42.74272" lon="1.53956">
        <ele>1747.675</ele>
        <time>2021-03-06T10:33:13Z</time>
      </trkpt>
      <trkpt lat="42.74274" lon="1.53955">
        <ele>1748.568</ele>
        <time>2021-03-06T10:33:15Z</time>
      </trkpt>
      <trkpt lat="42.74275" lon="1.53954">
        <ele>1748.918</ele>
        <time>2021-03-06T10:33:17Z</time>
      </trkpt>
      <trkpt lat="42.74276" lon="1.53953">
        <ele>1749.439</ele>
        <time>2021-03-06T10:33:19Z</time>
      </trkpt>
      <trkpt lat="42.74277" lon="1.53952">
        <ele>1748.85</ele>
        <time>2021-03-06T10:33:21Z</time>
      </trkpt>
      <trkpt lat="42.74279" lon="1.53952">
        <ele>1749.253</ele>
        <time>2021-03-06T10:33:23Z</time>
      </trkpt>
      <trkpt lat="42.7428" lon="1.53951">
        <ele>1750.152</ele>
        <time>2021-03-06T10:33:25Z</time>
      </trkpt>
      <trkpt lat="42.74281" lon="1.5395">
        <ele>1750.515</ele>
        <time>2021-03-06T10:33:27Z</time>
      </trkpt>
      <trkpt lat="42.74282" lon="1.5395">
        <ele>1751.187</ele>
        <time>2021-03-06T10:33:29Z</time>
      </trkpt>
      <trkpt lat="42.74283" lon="1.53949">
        <ele>1752.21</ele>
        <time>2021-03-06T10:33:31Z</time>
      </trkpt>
      <trkpt lat="42.74284" lon="1.53948">
        <ele>1752.725</ele>
        <time>2021-03-06T10:33:33Z</time>
      </trkpt>
      <trkpt lat="42.74285" lon="1.53948">
        <ele>1753.747</ele>
        <time>2021-03-06T10:33:35Z</time>
      </trkpt>
      <trkpt lat="42.74286" lon="1.53947">
        <ele>1753.869</ele>
        <time>2021-03-06T10:33:37Z</time>
      </trkpt>
      <trkpt lat="42.74287" lon="1.53947">
        <ele>1753.851</ele>
        <time>2021-03-06T10:33:39Z</time>
      </trkpt>
      <trkpt lat="42.74288" lon="1.53947">
        <ele>1754.234</ele>
        <time>2021-03-06T10:33:41Z</time>
      </trkpt>
      <trkpt lat="42.74289" lon="1.53946">
        <ele>1755.216</ele>
        <time>2021-03-06T10:33:43Z</time>
      </trkpt>
      <trkpt lat="42.74291" lon="1.53946">
        <ele>1755.95</ele>
        <time>2021-03-06T10:33:45Z</time>
      </trkpt>
      <trkpt lat="42.74292" lon="1.53945">
        <ele>1755.668</ele>
        <time>2021-03-06T10:33:47Z</time>
      </trkpt>
      <trkpt lat="42.74293" lon="1.53945">
        <ele>1756.181</ele>
        <time>2021-03-06T10:33:49Z</time>
      </trkpt>
      <trkpt lat="42.74294" lon="1.53944">
        <ele>1755.818</ele>
        <time>2021-03-06T10:33:51Z</time>
      </trkpt>
      <trkpt lat="42.74295" lon="1.53943">
        <ele>1756.606</ele>
        <time>2021-03-06T10:33:53Z</time>
      </trkpt>
      <trkpt lat="42.74296" lon="1.53942">
        <ele>1757.558</ele>
        <time>2021-03-06T10:33:55Z</time>
      </trkpt>
      <trkpt lat="42.74297" lon="1.53941">
        <ele>1757.409</ele>
        <time>2021-03-06T10:33:57Z</time>
      </trkpt>
      <trkpt lat="42.74298" lon="1.53941">
        <ele>1757.759</ele>
        <time>2021-03-06T10:33:59Z</time>
      </trkpt>
      <trkpt lat="42.74299" lon="1.5394">
        <ele>1758.09</ele>
        <time>2021-03-06T10:34:01Z</time>
      </trkpt>
      <trkpt lat="42.743" lon="1.53939">
        <ele>1758.297</ele>
        <time>2021-03-06T10:34:03Z</time>
      </trkpt>
      <trkpt lat="42.74301" lon="1.53938">
        <ele>1758.795</ele>
        <time>2021-03-06T10:34:05Z</time>
      </trkpt>
      <trkpt lat="42.74302" lon="1.53937">
        <ele>1759.317</ele>
        <time>2021-03-06T10:34:07Z</time>
      </trkpt>
      <trkpt lat="42.74302" lon="1.53935">
        <ele>1759.262</ele>
        <time>2021-03-06T10:34:09Z</time>
      </trkpt>
      <trkpt lat="42.74303" lon="1.53934">
        <ele>1759.344</ele>
        <time>2021-03-06T10:34:11Z</time>
      </trkpt>
      <trkpt lat="42.74304" lon="1.53932">
        <ele>1760.238</ele>
        <time>2021-03-06T10:34:13Z</time>
      </trkpt>
      <trkpt lat="42.74305" lon="1.53931">
        <ele>1760.89</ele>
        <time>2021-03-06T10:34:15Z</time>
      </trkpt>
      <trkpt lat="42.74305" lon="1.5393">
        <ele>1761.07</ele>
        <time>2021-03-06T10:34:17Z</time>
      </trkpt>
      <trkpt lat="42.74306" lon="1.53929">
        <ele>1761.378</ele>
        <time>2021-03-06T10:34:19Z</time>
      </trkpt>
      <trkpt lat="42.74307" lon="1.53929">
        <ele>1761.17</ele>
        <time>2021-03-06T10:34:21Z</time>
      </trkpt>
      <trkpt lat="42.74309" lon="1.53928">
        <ele>1761.541</ele>
        <time>2021-03-06T10:34:23Z</time>
      </trkpt>
      <trkpt lat="42.7431" lon="1.53927">
        <ele>1761.452</ele>
        <time>2021-03-06T10:34:25Z</time>
      </trkpt>
      <trkpt lat="42.74311" lon="1.53927">
        <ele>1761.2</ele>
        <time>2021-03-06T10:34:27Z</time>
      </trkpt>
      <trkpt lat="42.74313" lon="1.53926">
        <ele>1761.729</ele>
        <time>2021-03-06T10:34:29Z</time>
      </trkpt>
      <trkpt lat="42.74314" lon="1.53925">
        <ele>1761.603</ele>
        <time>2021-03-06T10:34:31Z</time>
      </trkpt>
      <trkpt lat="42.74315" lon="1.53924">
        <ele>1761.543</ele>
        <time>2021-03-06T10:34:33Z</time>
      </trkpt>
      <trkpt lat="42.74316" lon="1.53923">
        <ele>1762.183</ele>
        <time>2021-03-06T10:34:35Z</time>
      </trkpt>
      <trkpt lat="42.74317" lon="1.53922">
        <ele>1762.122</ele>
        <time>2021-03-06T10:34:37Z</time>
      </trkpt>
      <trkpt lat="42.74318" lon="1.53921">
        <ele>1761.985</ele>
        <time>2021-03-06T10:34:39Z</time>
      </trkpt>
      <trkpt lat="42.74319" lon="1.5392">
        <ele>1762.385</ele>
        <time>2021-03-06T10:34:41Z</time>
      </trkpt>
      <trkpt lat="42.7432" lon="1.53919">
        <ele>1762.079</ele>
        <time>2021-03-06T10:34:43Z</time>
      </trkpt>
      <trkpt lat="42.74322" lon="1.53919">
        <ele>1762.178</ele>
        <time>2021-03-06T10:34:45Z</time>
      </trkpt>
      <trkpt lat="42.74323" lon="1.53918">
        <ele>1762.74</ele>
        <time>2021-03-06T10:34:47Z</time>
      </trkpt>
      <trkpt lat="42.74325" lon="1.53917">
        <ele>1762.64</ele>
        <time>2021-03-06T10:34:49Z</time>
      </trkpt>
      <trkpt lat="42.74326" lon="1.53918">
        <ele>1762.614</ele>
        <time>2021-03-06T10:34:51Z</time>
      </trkpt>
      <trkpt lat="42.74327" lon="1.53919">
        <ele>1762.318</ele>
        <time>2021-03-06T10:34:53Z</time>
      </trkpt>
      <trkpt lat="42.74328" lon="1.53918">
        <ele>1763.122</ele>
        <time>2021-03-06T10:34:55Z</time>
      </trkpt>
      <trkpt lat="42.7433" lon="1.53917">
        <ele>1763.391</ele>
        <time>2021-03-06T10:34:57Z</time>
      </trkpt>
      <trkpt lat="42.74331" lon="1.53916">
        <ele>1762.952</ele>
        <time>2021-03-06T10:34:59Z</time>
      </trkpt>
      <trkpt lat="42.74332" lon="1.53915">
        <ele>1763.186</ele>
        <time>2021-03-06T10:35:01Z</time>
      </trkpt>
      <trkpt lat="42.74333" lon="1.53914">
        <ele>1762.86</ele>
        <time>2021-03-06T10:35:03Z</time>
      </trkpt>
      <trkpt lat="42.74335" lon="1.53912">
        <ele>1763.105</ele>
        <time>2021-03-06T10:35:05Z</time>
      </trkpt>
      <trkpt lat="42.74336" lon="1.53909">
        <ele>1763.005</ele>
        <time>2021-03-06T10:35:07Z</time>
      </trkpt>
      <trkpt lat="42.74337" lon="1.53907">
        <ele>1762.807</ele>
        <time>2021-03-06T10:35:09Z</time>
      </trkpt>
      <trkpt lat="42.74338" lon="1.53906">
        <ele>1762.83</ele>
        <time>2021-03-06T10:35:11Z</time>
      </trkpt>
      <trkpt lat="42.74338" lon="1.53903">
        <ele>1763.152</ele>
        <time>2021-03-06T10:35:13Z</time>
      </trkpt>
      <trkpt lat="42.74339" lon="1.53901">
        <ele>1762.905</ele>
        <time>2021-03-06T10:35:15Z</time>
      </trkpt>
      <trkpt lat="42.7434" lon="1.53899">
        <ele>1762.955</ele>
        <time>2021-03-06T10:35:17Z</time>
      </trkpt>
      <trkpt lat="42.7434" lon="1.53896">
        <ele>1762.976</ele>
        <time>2021-03-06T10:35:19Z</time>
      </trkpt>
      <trkpt lat="42.74341" lon="1.53894">
        <ele>1763.615</ele>
        <time>2021-03-06T10:35:21Z</time>
      </trkpt>
      <trkpt lat="42.74343" lon="1.53891">
        <ele>1763.224</ele>
        <time>2021-03-06T10:35:23Z</time>
      </trkpt>
      <trkpt lat="42.74344" lon="1.53889">
        <ele>1763.434</ele>
        <time>2021-03-06T10:35:25Z</time>
      </trkpt>
      <trkpt lat="42.74345" lon="1.53887">
        <ele>1763.621</ele>
        <time>2021-03-06T10:35:27Z</time>
      </trkpt>
      <trkpt lat="42.74345" lon="1.53885">
        <ele>1763.397</ele>
        <time>2021-03-06T10:35:29Z</time>
      </trkpt>
      <trkpt lat="42.74346" lon="1.53883">
        <ele>1763.861</ele>
        <time>2021-03-06T10:35:31Z</time>
      </trkpt>
      <trkpt lat="42.74348" lon="1.53882">
        <ele>1764.452</ele>
        <time>2021-03-06T10:35:33Z</time>
      </trkpt>
      <trkpt lat="42.74349" lon="1.5388">
        <ele>1765.156</ele>
        <time>2021-03-06T10:35:35Z</time>
      </trkpt>
      <trkpt lat="42.7435" lon="1.53878">
        <ele>1765.436</ele>
        <time>2021-03-06T10:35:37Z</time>
      </trkpt>
      <trkpt lat="42.74351" lon="1.53879">
        <ele>1765.757</ele>
        <time>2021-03-06T10:35:39Z</time>
      </trkpt>
      <trkpt lat="42.74353" lon="1.53879">
        <ele>1766.013</ele>
        <time>2021-03-06T10:35:41Z</time>
      </trkpt>
      <trkpt lat="42.74353" lon="1.53878">
        <ele>1766.864</ele>
        <time>2021-03-06T10:35:43Z</time>
      </trkpt>
      <trkpt lat="42.74355" lon="1.53879">
        <ele>1767.814</ele>
        <time>2021-03-06T10:35:45Z</time>
      </trkpt>
      <trkpt lat="42.74354" lon="1.53879">
        <ele>1767.741</ele>
        <time>2021-03-06T10:35:47Z</time>
      </trkpt>
      <trkpt lat="42.74354" lon="1.53879">
        <ele>1767.511</ele>
        <time>2021-03-06T10:35:49Z</time>
      </trkpt>
      <trkpt lat="42.74354" lon="1.53879">
        <ele>1767.492</ele>
        <time>2021-03-06T10:35:51Z</time>
      </trkpt>
      <trkpt lat="42.74354" lon="1.53879">
        <ele>1767.487</ele>
        <time>2021-03-06T10:35:53Z</time>
      </trkpt>
      <trkpt lat="42.74354" lon="1.53879">
        <ele>1767.481</ele>
        <time>2021-03-06T10:35:55Z</time>
      </trkpt>
      <trkpt lat="42.74354" lon="1.53879">
        <ele>1767.481</ele>
        <time>2021-03-06T10:35:57Z</time>
      </trkpt>
      <trkpt lat="42.74354" lon="1.53879">
        <ele>1767.482</ele>
        <time>2021-03-06T10:35:59Z</time>
      </trkpt>
      <trkpt lat="42.74354" lon="1.53879">
        <ele>1767.485</ele>
        <time>2021-03-06T10:36:01Z</time>
      </trkpt>
      <trkpt lat="42.74354" lon="1.53879">
        <ele>1767.486</ele>
        <time>2021-03-06T10:36:03Z</time>
      </trkpt>
      <trkpt lat="42.74354" lon="1.53879">
        <ele>1767.484</ele>
        <time>2021-03-06T10:36:05Z</time>
      </trkpt>
      <trkpt lat="42.74354" lon="1.53879">
        <ele>1767.48</ele>
        <time>2021-03-06T10:36:07Z</time>
      </trkpt>
      <trkpt lat="42.74354" lon="1.53879">
        <ele>1767.477</ele>
        <time>2021-03-06T10:36:09Z</time>
      </trkpt>
      <trkpt lat="42.74354" lon="1.53879">
        <ele>1767.469</ele>
        <time>2021-03-06T10:36:11Z</time>
      </trkpt>
      <trkpt lat="42.74354" lon="1.53879">
        <ele>1767.469</ele>
        <time>2021-03-06T10:36:13Z</time>
      </trkpt>
      <trkpt lat="42.74354" lon="1.53879">
        <ele>1767.461</ele>
        <time>2021-03-06T10:36:15Z</time>
      </trkpt>
      <trkpt lat="42.74354" lon="1.53879">
        <ele>1767.459</ele>
        <time>2021-03-06T10:36:17Z</time>
      </trkpt>
      <trkpt lat="42.74354" lon="1.53879">
        <ele>1767.466</ele>
        <time>2021-03-06T10:36:19Z</time>
      </trkpt>
      <trkpt lat="42.74354" lon="1.53879">
        <ele>1767.463</ele>
        <time>2021-03-06T10:36:21Z</time>
      </trkpt>
      <trkpt lat="42.74354" lon="1.53878">
        <ele>1768.034</ele>
        <time>2021-03-06T10:36:23Z</time>
      </trkpt>
      <trkpt lat="42.74355" lon="1.53878">
        <ele>1768.402</ele>
        <time>2021-03-06T10:36:25Z</time>
      </trkpt>
      <trkpt lat="42.74354" lon="1.53878">
        <ele>1768.238</ele>
        <time>2021-03-06T10:36:27Z</time>
      </trkpt>
      <trkpt lat="42.74354" lon="1.53878">
        <ele>1768.189</ele>
        <time>2021-03-06T10:36:29Z</time>
      </trkpt>
      <trkpt lat="42.74354" lon="1.53878">
        <ele>1768.192</ele>
        <time>2021-03-06T10:36:31Z</time>
      </trkpt>
      <trkpt lat="42.74354" lon="1.53878">
        <ele>1768.191</ele>
        <time>2021-03-06T10:36:33Z</time>
      </trkpt>
      <trkpt lat="42.74354" lon="1.53878">
        <ele>1768.187</ele>
        <time>2021-03-06T10:36:35Z</time>
      </trkpt>
      <trkpt lat="42.74354" lon="1.53878">
        <ele>1768.176</ele>
        <time>2021-03-06T10:36:37Z</time>
      </trkpt>
      <trkpt lat="42.74354" lon="1.53878">
        <ele>1768.164</ele>
        <time>2021-03-06T10:36:39Z</time>
      </trkpt>
      <trkpt lat="42.74354" lon="1.53878">
        <ele>1768.149</ele>
        <time>2021-03-06T10:36:41Z</time>
      </trkpt>
      <trkpt lat="42.74354" lon="1.53878">
        <ele>1768.142</ele>
        <time>2021-03-06T10:36:43Z</time>
      </trkpt>
      <trkpt lat="42.74354" lon="1.53878">
        <ele>1768.139</ele>
        <time>2021-03-06T10:36:45Z</time>
      </trkpt>
      <trkpt lat="42.74354" lon="1.53878">
        <ele>1768.135</ele>
        <time>2021-03-06T10:36:47Z</time>
      </trkpt>
      <trkpt lat="42.74354" lon="1.53878">
        <ele>1768.129</ele>
        <time>2021-03-06T10:36:49Z</time>
      </trkpt>
      <trkpt lat="42.74354" lon="1.53878">
        <ele>1768.117</ele>
        <time>2021-03-06T10:36:51Z</time>
      </trkpt>
      <trkpt lat="42.74354" lon="1.53878">
        <ele>1768.115</ele>
        <time>2021-03-06T10:36:53Z</time>
      </trkpt>
      <trkpt lat="42.74354" lon="1.53878">
        <ele>1768.113</ele>
        <time>2021-03-06T10:36:55Z</time>
      </trkpt>
      <trkpt lat="42.74354" lon="1.53878">
        <ele>1768.115</ele>
        <time>2021-03-06T10:36:57Z</time>
      </trkpt>
      <trkpt lat="42.74354" lon="1.53878">
        <ele>1768.111</ele>
        <time>2021-03-06T10:36:59Z</time>
      </trkpt>
      <trkpt lat="42.74354" lon="1.53878">
        <ele>1768.109</ele>
        <time>2021-03-06T10:37:01Z</time>
      </trkpt>
      <trkpt lat="42.74354" lon="1.53878">
        <ele>1768.111</ele>
        <time>2021-03-06T10:37:03Z</time>
      </trkpt>
      <trkpt lat="42.74354" lon="1.53878">
        <ele>1768.103</ele>
        <time>2021-03-06T10:37:05Z</time>
      </trkpt>
      <trkpt lat="42.74354" lon="1.53877">
        <ele>1768.142</ele>
        <time>2021-03-06T10:37:07Z</time>
      </trkpt>
      <trkpt lat="42.74354" lon="1.53877">
        <ele>1768.061</ele>
        <time>2021-03-06T10:37:09Z</time>
      </trkpt>
      <trkpt lat="42.74353" lon="1.53877">
        <ele>1768.066</ele>
        <time>2021-03-06T10:37:11Z</time>
      </trkpt>
      <trkpt lat="42.74353" lon="1.53876">
        <ele>1768.07</ele>
        <time>2021-03-06T10:37:13Z</time>
      </trkpt>
      <trkpt lat="42.74353" lon="1.53876">
        <ele>1768.068</ele>
        <time>2021-03-06T10:37:15Z</time>
      </trkpt>
      <trkpt lat="42.74353" lon="1.53876">
        <ele>1768.068</ele>
        <time>2021-03-06T10:37:18Z</time>
      </trkpt>
      <trkpt lat="42.74353" lon="1.53876">
        <ele>1767.707</ele>
        <time>2021-03-06T10:37:20Z</time>
      </trkpt>
      <trkpt lat="42.74353" lon="1.53876">
        <ele>1767.7</ele>
        <time>2021-03-06T10:37:22Z</time>
      </trkpt>
      <trkpt lat="42.74353" lon="1.53876">
        <ele>1767.693</ele>
        <time>2021-03-06T10:37:24Z</time>
      </trkpt>
      <trkpt lat="42.74353" lon="1.53876">
        <ele>1767.683</ele>
        <time>2021-03-06T10:37:26Z</time>
      </trkpt>
      <trkpt lat="42.74353" lon="1.53876">
        <ele>1767.434</ele>
        <time>2021-03-06T10:37:28Z</time>
      </trkpt>
      <trkpt lat="42.74353" lon="1.53876">
        <ele>1767.428</ele>
        <time>2021-03-06T10:37:30Z</time>
      </trkpt>
      <trkpt lat="42.74353" lon="1.53876">
        <ele>1766.959</ele>
        <time>2021-03-06T10:37:32Z</time>
      </trkpt>
      <trkpt lat="42.74353" lon="1.53876">
        <ele>1766.715</ele>
        <time>2021-03-06T10:37:34Z</time>
      </trkpt>
      <trkpt lat="42.74352" lon="1.53876">
        <ele>1766.973</ele>
        <time>2021-03-06T10:37:36Z</time>
      </trkpt>
      <trkpt lat="42.74352" lon="1.53876">
        <ele>1766.979</ele>
        <time>2021-03-06T10:37:38Z</time>
      </trkpt>
      <trkpt lat="42.74352" lon="1.53876">
        <ele>1766.982</ele>
        <time>2021-03-06T10:37:40Z</time>
      </trkpt>
      <trkpt lat="42.74352" lon="1.53876">
        <ele>1766.977</ele>
        <time>2021-03-06T10:37:42Z</time>
      </trkpt>
      <trkpt lat="42.74352" lon="1.53876">
        <ele>1766.974</ele>
        <time>2021-03-06T10:37:44Z</time>
      </trkpt>
      <trkpt lat="42.74352" lon="1.53876">
        <ele>1766.969</ele>
        <time>2021-03-06T10:37:46Z</time>
      </trkpt>
      <trkpt lat="42.74352" lon="1.53876">
        <ele>1766.971</ele>
        <time>2021-03-06T10:37:48Z</time>
      </trkpt>
      <trkpt lat="42.74352" lon="1.53876">
        <ele>1766.973</ele>
        <time>2021-03-06T10:37:50Z</time>
      </trkpt>
      <trkpt lat="42.74352" lon="1.53876">
        <ele>1766.975</ele>
        <time>2021-03-06T10:37:52Z</time>
      </trkpt>
      <trkpt lat="42.74352" lon="1.53876">
        <ele>1766.977</ele>
        <time>2021-03-06T10:37:54Z</time>
      </trkpt>
      <trkpt lat="42.74352" lon="1.53876">
        <ele>1766.975</ele>
        <time>2021-03-06T10:37:56Z</time>
      </trkpt>
      <trkpt lat="42.74352" lon="1.53876">
        <ele>1766.973</ele>
        <time>2021-03-06T10:37:58Z</time>
      </trkpt>
      <trkpt lat="42.74352" lon="1.53876">
        <ele>1766.972</ele>
        <time>2021-03-06T10:38:00Z</time>
      </trkpt>
      <trkpt lat="42.74352" lon="1.53876">
        <ele>1766.97</ele>
        <time>2021-03-06T10:38:02Z</time>
      </trkpt>
      <trkpt lat="42.74352" lon="1.53876">
        <ele>1766.973</ele>
        <time>2021-03-06T10:38:04Z</time>
      </trkpt>
      <trkpt lat="42.74352" lon="1.53876">
        <ele>1766.974</ele>
        <time>2021-03-06T10:38:06Z</time>
      </trkpt>
      <trkpt lat="42.74352" lon="1.53876">
        <ele>1766.975</ele>
        <time>2021-03-06T10:38:08Z</time>
      </trkpt>
      <trkpt lat="42.74352" lon="1.53876">
        <ele>1766.975</ele>
        <time>2021-03-06T10:38:10Z</time>
      </trkpt>
      <trkpt lat="42.74352" lon="1.53876">
        <ele>1766.973</ele>
        <time>2021-03-06T10:38:12Z</time>
      </trkpt>
      <trkpt lat="42.74352" lon="1.53876">
        <ele>1766.972</ele>
        <time>2021-03-06T10:38:14Z</time>
      </trkpt>
      <trkpt lat="42.74352" lon="1.53876">
        <ele>1766.968</ele>
        <time>2021-03-06T10:38:16Z</time>
      </trkpt>
      <trkpt lat="42.74352" lon="1.53876">
        <ele>1766.968</ele>
        <time>2021-03-06T10:38:18Z</time>
      </trkpt>
      <trkpt lat="42.74352" lon="1.53876">
        <ele>1766.971</ele>
        <time>2021-03-06T10:38:20Z</time>
      </trkpt>
      <trkpt lat="42.74352" lon="1.53876">
        <ele>1766.975</ele>
        <time>2021-03-06T10:38:22Z</time>
      </trkpt>
      <trkpt lat="42.74352" lon="1.53876">
        <ele>1766.974</ele>
        <time>2021-03-06T10:38:24Z</time>
      </trkpt>
      <trkpt lat="42.74352" lon="1.53875">
        <ele>1767.127</ele>
        <time>2021-03-06T10:38:26Z</time>
      </trkpt>
      <trkpt lat="42.74353" lon="1.53873">
        <ele>1766.758</ele>
        <time>2021-03-06T10:38:28Z</time>
      </trkpt>
      <trkpt lat="42.74354" lon="1.53871">
        <ele>1767.254</ele>
        <time>2021-03-06T10:38:30Z</time>
      </trkpt>
      <trkpt lat="42.74355" lon="1.53869">
        <ele>1767.07</ele>
        <time>2021-03-06T10:38:32Z</time>
      </trkpt>
      <trkpt lat="42.74356" lon="1.53867">
        <ele>1767.365</ele>
        <time>2021-03-06T10:38:34Z</time>
      </trkpt>
      <trkpt lat="42.74357" lon="1.53865">
        <ele>1768.467</ele>
        <time>2021-03-06T10:38:36Z</time>
      </trkpt>
      <trkpt lat="42.74358" lon="1.53863">
        <ele>1768.606</ele>
        <time>2021-03-06T10:38:38Z</time>
      </trkpt>
      <trkpt lat="42.74358" lon="1.53861">
        <ele>1768.81</ele>
        <time>2021-03-06T10:38:40Z</time>
      </trkpt>
      <trkpt lat="42.7436" lon="1.53859">
        <ele>1769.573</ele>
        <time>2021-03-06T10:38:42Z</time>
      </trkpt>
      <trkpt lat="42.74361" lon="1.53857">
        <ele>1770.414</ele>
        <time>2021-03-06T10:38:44Z</time>
      </trkpt>
      <trkpt lat="42.74362" lon="1.53855">
        <ele>1770.614</ele>
        <time>2021-03-06T10:38:46Z</time>
      </trkpt>
      <trkpt lat="42.74363" lon="1.53853">
        <ele>1770.675</ele>
        <time>2021-03-06T10:38:48Z</time>
      </trkpt>
      <trkpt lat="42.74364" lon="1.53851">
        <ele>1770.732</ele>
        <time>2021-03-06T10:38:50Z</time>
      </trkpt>
      <trkpt lat="42.74365" lon="1.53848">
        <ele>1771.659</ele>
        <time>2021-03-06T10:38:52Z</time>
      </trkpt>
      <trkpt lat="42.74365" lon="1.53846">
        <ele>1772.078</ele>
        <time>2021-03-06T10:38:54Z</time>
      </trkpt>
      <trkpt lat="42.74367" lon="1.53843">
        <ele>1772.958</ele>
        <time>2021-03-06T10:38:56Z</time>
      </trkpt>
      <trkpt lat="42.74368" lon="1.53841">
        <ele>1772.945</ele>
        <time>2021-03-06T10:38:58Z</time>
      </trkpt>
      <trkpt lat="42.74369" lon="1.5384">
        <ele>1772.882</ele>
        <time>2021-03-06T10:39:00Z</time>
      </trkpt>
      <trkpt lat="42.7437" lon="1.53837">
        <ele>1773.689</ele>
        <time>2021-03-06T10:39:02Z</time>
      </trkpt>
      <trkpt lat="42.74371" lon="1.53835">
        <ele>1774.008</ele>
        <time>2021-03-06T10:39:04Z</time>
      </trkpt>
      <trkpt lat="42.74372" lon="1.53833">
        <ele>1774.083</ele>
        <time>2021-03-06T10:39:06Z</time>
      </trkpt>
      <trkpt lat="42.74373" lon="1.5383">
        <ele>1774.13</ele>
        <time>2021-03-06T10:39:08Z</time>
      </trkpt>
      <trkpt lat="42.74373" lon="1.53828">
        <ele>1774.117</ele>
        <time>2021-03-06T10:39:10Z</time>
      </trkpt>
      <trkpt lat="42.74374" lon="1.53825">
        <ele>1774.38</ele>
        <time>2021-03-06T10:39:12Z</time>
      </trkpt>
      <trkpt lat="42.74375" lon="1.53823">
        <ele>1774.438</ele>
        <time>2021-03-06T10:39:14Z</time>
      </trkpt>
      <trkpt lat="42.74375" lon="1.53821">
        <ele>1774.683</ele>
        <time>2021-03-06T10:39:16Z</time>
      </trkpt>
      <trkpt lat="42.74376" lon="1.53819">
        <ele>1775.006</ele>
        <time>2021-03-06T10:39:18Z</time>
      </trkpt>
      <trkpt lat="42.74377" lon="1.53817">
        <ele>1774.921</ele>
        <time>2021-03-06T10:39:20Z</time>
      </trkpt>
      <trkpt lat="42.74378" lon="1.53815">
        <ele>1775.097</ele>
        <time>2021-03-06T10:39:22Z</time>
      </trkpt>
      <trkpt lat="42.74379" lon="1.53813">
        <ele>1776.002</ele>
        <time>2021-03-06T10:39:24Z</time>
      </trkpt>
      <trkpt lat="42.74379" lon="1.5381">
        <ele>1775.935</ele>
        <time>2021-03-06T10:39:26Z</time>
      </trkpt>
      <trkpt lat="42.7438" lon="1.53808">
        <ele>1776.071</ele>
        <time>2021-03-06T10:39:28Z</time>
      </trkpt>
      <trkpt lat="42.7438" lon="1.53806">
        <ele>1776.863</ele>
        <time>2021-03-06T10:39:30Z</time>
      </trkpt>
      <trkpt lat="42.74381" lon="1.53804">
        <ele>1777.485</ele>
        <time>2021-03-06T10:39:32Z</time>
      </trkpt>
      <trkpt lat="42.74382" lon="1.53803">
        <ele>1777.58</ele>
        <time>2021-03-06T10:39:34Z</time>
      </trkpt>
      <trkpt lat="42.74384" lon="1.53802">
        <ele>1777.893</ele>
        <time>2021-03-06T10:39:36Z</time>
      </trkpt>
      <trkpt lat="42.74385" lon="1.538">
        <ele>1778.016</ele>
        <time>2021-03-06T10:39:38Z</time>
      </trkpt>
      <trkpt lat="42.74385" lon="1.53798">
        <ele>1778.643</ele>
        <time>2021-03-06T10:39:40Z</time>
      </trkpt>
      <trkpt lat="42.74385" lon="1.53797">
        <ele>1777.521</ele>
        <time>2021-03-06T10:39:42Z</time>
      </trkpt>
      <trkpt lat="42.74384" lon="1.53797">
        <ele>1776.922</ele>
        <time>2021-03-06T10:39:44Z</time>
      </trkpt>
      <trkpt lat="42.74383" lon="1.53795">
        <ele>1776.78</ele>
        <time>2021-03-06T10:39:46Z</time>
      </trkpt>
      <trkpt lat="42.74384" lon="1.53795">
        <ele>1776.593</ele>
        <time>2021-03-06T10:39:48Z</time>
      </trkpt>
      <trkpt lat="42.74384" lon="1.53794">
        <ele>1777.381</ele>
        <time>2021-03-06T10:39:50Z</time>
      </trkpt>
      <trkpt lat="42.74384" lon="1.53793">
        <ele>1777.872</ele>
        <time>2021-03-06T10:39:52Z</time>
      </trkpt>
      <trkpt lat="42.74385" lon="1.53791">
        <ele>1778.229</ele>
        <time>2021-03-06T10:39:54Z</time>
      </trkpt>
      <trkpt lat="42.74386" lon="1.5379">
        <ele>1779.199</ele>
        <time>2021-03-06T10:39:56Z</time>
      </trkpt>
      <trkpt lat="42.74386" lon="1.53789">
        <ele>1780.491</ele>
        <time>2021-03-06T10:39:58Z</time>
      </trkpt>
      <trkpt lat="42.74387" lon="1.53787">
        <ele>1780.588</ele>
        <time>2021-03-06T10:40:00Z</time>
      </trkpt>
      <trkpt lat="42.74388" lon="1.53787">
        <ele>1780.661</ele>
        <time>2021-03-06T10:40:02Z</time>
      </trkpt>
      <trkpt lat="42.74389" lon="1.53787">
        <ele>1780.698</ele>
        <time>2021-03-06T10:40:04Z</time>
      </trkpt>
      <trkpt lat="42.74389" lon="1.53787">
        <ele>1780.691</ele>
        <time>2021-03-06T10:40:06Z</time>
      </trkpt>
      <trkpt lat="42.74389" lon="1.53787">
        <ele>1780.686</ele>
        <time>2021-03-06T10:40:08Z</time>
      </trkpt>
      <trkpt lat="42.74389" lon="1.53787">
        <ele>1780.686</ele>
        <time>2021-03-06T10:40:10Z</time>
      </trkpt>
      <trkpt lat="42.7439" lon="1.53787">
        <ele>1780.778</ele>
        <time>2021-03-06T10:40:12Z</time>
      </trkpt>
      <trkpt lat="42.74389" lon="1.53787">
        <ele>1780.752</ele>
        <time>2021-03-06T10:40:14Z</time>
      </trkpt>
      <trkpt lat="42.74389" lon="1.53787">
        <ele>1780.751</ele>
        <time>2021-03-06T10:40:16Z</time>
      </trkpt>
      <trkpt lat="42.74389" lon="1.53787">
        <ele>1780.752</ele>
        <time>2021-03-06T10:40:18Z</time>
      </trkpt>
      <trkpt lat="42.74389" lon="1.53786">
        <ele>1780.716</ele>
        <time>2021-03-06T10:40:20Z</time>
      </trkpt>
      <trkpt lat="42.74389" lon="1.53786">
        <ele>1780.455</ele>
        <time>2021-03-06T10:40:22Z</time>
      </trkpt>
      <trkpt lat="42.74389" lon="1.53785">
        <ele>1781.077</ele>
        <time>2021-03-06T10:40:24Z</time>
      </trkpt>
      <trkpt lat="42.7439" lon="1.53783">
        <ele>1781.443</ele>
        <time>2021-03-06T10:40:26Z</time>
      </trkpt>
      <trkpt lat="42.7439" lon="1.53781">
        <ele>1782.452</ele>
        <time>2021-03-06T10:40:28Z</time>
      </trkpt>
      <trkpt lat="42.74391" lon="1.53779">
        <ele>1782.705</ele>
        <time>2021-03-06T10:40:30Z</time>
      </trkpt>
      <trkpt lat="42.74392" lon="1.53777">
        <ele>1783.294</ele>
        <time>2021-03-06T10:40:32Z</time>
      </trkpt>
      <trkpt lat="42.74393" lon="1.53776">
        <ele>1783.401</ele>
        <time>2021-03-06T10:40:34Z</time>
      </trkpt>
      <trkpt lat="42.74394" lon="1.53774">
        <ele>1783.407</ele>
        <time>2021-03-06T10:40:36Z</time>
      </trkpt>
      <trkpt lat="42.74395" lon="1.53772">
        <ele>1783.245</ele>
        <time>2021-03-06T10:40:38Z</time>
      </trkpt>
      <trkpt lat="42.74395" lon="1.5377">
        <ele>1784.209</ele>
        <time>2021-03-06T10:40:40Z</time>
      </trkpt>
      <trkpt lat="42.74396" lon="1.53769">
        <ele>1784.397</ele>
        <time>2021-03-06T10:40:42Z</time>
      </trkpt>
      <trkpt lat="42.74397" lon="1.53767">
        <ele>1783.798</ele>
        <time>2021-03-06T10:40:44Z</time>
      </trkpt>
      <trkpt lat="42.74397" lon="1.53765">
        <ele>1784.131</ele>
        <time>2021-03-06T10:40:46Z</time>
      </trkpt>
      <trkpt lat="42.74398" lon="1.53764">
        <ele>1783.834</ele>
        <time>2021-03-06T10:40:48Z</time>
      </trkpt>
      <trkpt lat="42.74399" lon="1.53762">
        <ele>1783.905</ele>
        <time>2021-03-06T10:40:50Z</time>
      </trkpt>
      <trkpt lat="42.74399" lon="1.5376">
        <ele>1784.321</ele>
        <time>2021-03-06T10:40:52Z</time>
      </trkpt>
      <trkpt lat="42.744" lon="1.53759">
        <ele>1783.864</ele>
        <time>2021-03-06T10:40:54Z</time>
      </trkpt>
      <trkpt lat="42.74401" lon="1.53758">
        <ele>1785.066</ele>
        <time>2021-03-06T10:40:56Z</time>
      </trkpt>
      <trkpt lat="42.744" lon="1.53758">
        <ele>1784.549</ele>
        <time>2021-03-06T10:40:58Z</time>
      </trkpt>
      <trkpt lat="42.744" lon="1.53758">
        <ele>1784.51</ele>
        <time>2021-03-06T10:41:00Z</time>
      </trkpt>
      <trkpt lat="42.744" lon="1.53758">
        <ele>1784.507</ele>
        <time>2021-03-06T10:41:02Z</time>
      </trkpt>
      <trkpt lat="42.744" lon="1.53759">
        <ele>1784.445</ele>
        <time>2021-03-06T10:41:04Z</time>
      </trkpt>
      <trkpt lat="42.74401" lon="1.53758">
        <ele>1784.227</ele>
        <time>2021-03-06T10:41:06Z</time>
      </trkpt>
      <trkpt lat="42.74401" lon="1.53757">
        <ele>1784.454</ele>
        <time>2021-03-06T10:41:08Z</time>
      </trkpt>
      <trkpt lat="42.74401" lon="1.53757">
        <ele>1784.464</ele>
        <time>2021-03-06T10:41:10Z</time>
      </trkpt>
      <trkpt lat="42.74402" lon="1.53756">
        <ele>1784.431</ele>
        <time>2021-03-06T10:41:12Z</time>
      </trkpt>
      <trkpt lat="42.74402" lon="1.53755">
        <ele>1784.465</ele>
        <time>2021-03-06T10:41:14Z</time>
      </trkpt>
      <trkpt lat="42.74402" lon="1.53754">
        <ele>1784.352</ele>
        <time>2021-03-06T10:41:16Z</time>
      </trkpt>
      <trkpt lat="42.74402" lon="1.53752">
        <ele>1785.071</ele>
        <time>2021-03-06T10:41:18Z</time>
      </trkpt>
      <trkpt lat="42.74402" lon="1.53752">
        <ele>1785.054</ele>
        <time>2021-03-06T10:41:20Z</time>
      </trkpt>
      <trkpt lat="42.74403" lon="1.5375">
        <ele>1784.767</ele>
        <time>2021-03-06T10:41:22Z</time>
      </trkpt>
      <trkpt lat="42.74403" lon="1.53749">
        <ele>1785.206</ele>
        <time>2021-03-06T10:41:24Z</time>
      </trkpt>
      <trkpt lat="42.74404" lon="1.53748">
        <ele>1785.954</ele>
        <time>2021-03-06T10:41:26Z</time>
      </trkpt>
      <trkpt lat="42.74404" lon="1.53746">
        <ele>1785.931</ele>
        <time>2021-03-06T10:41:28Z</time>
      </trkpt>
      <trkpt lat="42.74405" lon="1.53745">
        <ele>1786.241</ele>
        <time>2021-03-06T10:41:30Z</time>
      </trkpt>
      <trkpt lat="42.74406" lon="1.53744">
        <ele>1786.452</ele>
        <time>2021-03-06T10:41:32Z</time>
      </trkpt>
      <trkpt lat="42.74406" lon="1.53743">
        <ele>1786.564</ele>
        <time>2021-03-06T10:41:34Z</time>
      </trkpt>
      <trkpt lat="42.74407" lon="1.53741">
        <ele>1787.104</ele>
        <time>2021-03-06T10:41:36Z</time>
      </trkpt>
      <trkpt lat="42.74407" lon="1.5374">
        <ele>1787.193</ele>
        <time>2021-03-06T10:41:38Z</time>
      </trkpt>
      <trkpt lat="42.74408" lon="1.53738">
        <ele>1787.623</ele>
        <time>2021-03-06T10:41:40Z</time>
      </trkpt>
      <trkpt lat="42.74409" lon="1.53737">
        <ele>1787.612</ele>
        <time>2021-03-06T10:41:42Z</time>
      </trkpt>
      <trkpt lat="42.74409" lon="1.53735">
        <ele>1787.699</ele>
        <time>2021-03-06T10:41:44Z</time>
      </trkpt>
      <trkpt lat="42.7441" lon="1.53734">
        <ele>1788.018</ele>
        <time>2021-03-06T10:41:46Z</time>
      </trkpt>
      <trkpt lat="42.74411" lon="1.53732">
        <ele>1788.685</ele>
        <time>2021-03-06T10:41:48Z</time>
      </trkpt>
      <trkpt lat="42.74411" lon="1.53731">
        <ele>1788.371</ele>
        <time>2021-03-06T10:41:50Z</time>
      </trkpt>
      <trkpt lat="42.74412" lon="1.5373">
        <ele>1788.497</ele>
        <time>2021-03-06T10:41:52Z</time>
      </trkpt>
      <trkpt lat="42.74412" lon="1.53729">
        <ele>1789.161</ele>
        <time>2021-03-06T10:41:54Z</time>
      </trkpt>
      <trkpt lat="42.74414" lon="1.53728">
        <ele>1790.215</ele>
        <time>2021-03-06T10:41:56Z</time>
      </trkpt>
      <trkpt lat="42.74413" lon="1.53728">
        <ele>1789.965</ele>
        <time>2021-03-06T10:41:58Z</time>
      </trkpt>
      <trkpt lat="42.74413" lon="1.53728">
        <ele>1789.972</ele>
        <time>2021-03-06T10:42:00Z</time>
      </trkpt>
      <trkpt lat="42.74413" lon="1.53728">
        <ele>1789.97</ele>
        <time>2021-03-06T10:42:02Z</time>
      </trkpt>
      <trkpt lat="42.74413" lon="1.53728">
        <ele>1790.066</ele>
        <time>2021-03-06T10:42:04Z</time>
      </trkpt>
      <trkpt lat="42.74413" lon="1.53727">
        <ele>1789.66</ele>
        <time>2021-03-06T10:42:06Z</time>
      </trkpt>
      <trkpt lat="42.74414" lon="1.53726">
        <ele>1790.195</ele>
        <time>2021-03-06T10:42:08Z</time>
      </trkpt>
      <trkpt lat="42.74414" lon="1.53724">
        <ele>1790.938</ele>
        <time>2021-03-06T10:42:10Z</time>
      </trkpt>
      <trkpt lat="42.74415" lon="1.53723">
        <ele>1791.074</ele>
        <time>2021-03-06T10:42:12Z</time>
      </trkpt>
      <trkpt lat="42.74415" lon="1.53722">
        <ele>1791.357</ele>
        <time>2021-03-06T10:42:14Z</time>
      </trkpt>
      <trkpt lat="42.74416" lon="1.5372">
        <ele>1791.5</ele>
        <time>2021-03-06T10:42:16Z</time>
      </trkpt>
      <trkpt lat="42.74416" lon="1.53719">
        <ele>1791.354</ele>
        <time>2021-03-06T10:42:18Z</time>
      </trkpt>
      <trkpt lat="42.74417" lon="1.53718">
        <ele>1791.87</ele>
        <time>2021-03-06T10:42:20Z</time>
      </trkpt>
      <trkpt lat="42.74417" lon="1.53717">
        <ele>1792.035</ele>
        <time>2021-03-06T10:42:22Z</time>
      </trkpt>
      <trkpt lat="42.74418" lon="1.53716">
        <ele>1792.103</ele>
        <time>2021-03-06T10:42:24Z</time>
      </trkpt>
      <trkpt lat="42.7442" lon="1.53715">
        <ele>1791.767</ele>
        <time>2021-03-06T10:42:26Z</time>
      </trkpt>
      <trkpt lat="42.74419" lon="1.53714">
        <ele>1791.69</ele>
        <time>2021-03-06T10:42:28Z</time>
      </trkpt>
      <trkpt lat="42.74419" lon="1.53714">
        <ele>1791.693</ele>
        <time>2021-03-06T10:42:30Z</time>
      </trkpt>
      <trkpt lat="42.74419" lon="1.53714">
        <ele>1791.544</ele>
        <time>2021-03-06T10:42:32Z</time>
      </trkpt>
      <trkpt lat="42.74419" lon="1.53714">
        <ele>1791.452</ele>
        <time>2021-03-06T10:42:34Z</time>
      </trkpt>
      <trkpt lat="42.74419" lon="1.53714">
        <ele>1791.453</ele>
        <time>2021-03-06T10:42:36Z</time>
      </trkpt>
      <trkpt lat="42.74419" lon="1.53714">
        <ele>1791.456</ele>
        <time>2021-03-06T10:42:38Z</time>
      </trkpt>
      <trkpt lat="42.74419" lon="1.53714">
        <ele>1791.881</ele>
        <time>2021-03-06T10:42:40Z</time>
      </trkpt>
      <trkpt lat="42.7442" lon="1.53713">
        <ele>1791.781</ele>
        <time>2021-03-06T10:42:42Z</time>
      </trkpt>
      <trkpt lat="42.7442" lon="1.53713">
        <ele>1791.787</ele>
        <time>2021-03-06T10:42:44Z</time>
      </trkpt>
      <trkpt lat="42.7442" lon="1.53713">
        <ele>1791.526</ele>
        <time>2021-03-06T10:42:46Z</time>
      </trkpt>
      <trkpt lat="42.7442" lon="1.53713">
        <ele>1791.727</ele>
        <time>2021-03-06T10:42:48Z</time>
      </trkpt>
      <trkpt lat="42.7442" lon="1.53714">
        <ele>1791.667</ele>
        <time>2021-03-06T10:42:50Z</time>
      </trkpt>
      <trkpt lat="42.74419" lon="1.53715">
        <ele>1791.307</ele>
        <time>2021-03-06T10:42:52Z</time>
      </trkpt>
      <trkpt lat="42.74419" lon="1.53715">
        <ele>1791.107</ele>
        <time>2021-03-06T10:42:54Z</time>
      </trkpt>
      <trkpt lat="42.74419" lon="1.53715">
        <ele>1791.131</ele>
        <time>2021-03-06T10:42:56Z</time>
      </trkpt>
      <trkpt lat="42.74419" lon="1.53715">
        <ele>1791.133</ele>
        <time>2021-03-06T10:42:58Z</time>
      </trkpt>
      <trkpt lat="42.74419" lon="1.53715">
        <ele>1791.131</ele>
        <time>2021-03-06T10:43:00Z</time>
      </trkpt>
      <trkpt lat="42.74419" lon="1.53715">
        <ele>1791.128</ele>
        <time>2021-03-06T10:43:02Z</time>
      </trkpt>
      <trkpt lat="42.74419" lon="1.53715">
        <ele>1791.129</ele>
        <time>2021-03-06T10:43:04Z</time>
      </trkpt>
      <trkpt lat="42.74419" lon="1.53715">
        <ele>1791.126</ele>
        <time>2021-03-06T10:43:06Z</time>
      </trkpt>
      <trkpt lat="42.74419" lon="1.53715">
        <ele>1791.127</ele>
        <time>2021-03-06T10:43:08Z</time>
      </trkpt>
      <trkpt lat="42.74419" lon="1.53715">
        <ele>1791.128</ele>
        <time>2021-03-06T10:43:10Z</time>
      </trkpt>
      <trkpt lat="42.74419" lon="1.53715">
        <ele>1791.13</ele>
        <time>2021-03-06T10:43:12Z</time>
      </trkpt>
      <trkpt lat="42.74419" lon="1.53715">
        <ele>1791.139</ele>
        <time>2021-03-06T10:43:14Z</time>
      </trkpt>
      <trkpt lat="42.74419" lon="1.53715">
        <ele>1791.144</ele>
        <time>2021-03-06T10:43:16Z</time>
      </trkpt>
      <trkpt lat="42.74419" lon="1.53715">
        <ele>1791.149</ele>
        <time>2021-03-06T10:43:18Z</time>
      </trkpt>
      <trkpt lat="42.74419" lon="1.53715">
        <ele>1791.146</ele>
        <time>2021-03-06T10:43:20Z</time>
      </trkpt>
      <trkpt lat="42.74419" lon="1.53715">
        <ele>1791.139</ele>
        <time>2021-03-06T10:43:22Z</time>
      </trkpt>
      <trkpt lat="42.74418" lon="1.53715">
        <ele>1791.217</ele>
        <time>2021-03-06T10:43:24Z</time>
      </trkpt>
      <trkpt lat="42.74418" lon="1.53713">
        <ele>1791.17</ele>
        <time>2021-03-06T10:43:26Z</time>
      </trkpt>
      <trkpt lat="42.74419" lon="1.53711">
        <ele>1790.632</ele>
        <time>2021-03-06T10:43:28Z</time>
      </trkpt>
      <trkpt lat="42.7442" lon="1.5371">
        <ele>1791.204</ele>
        <time>2021-03-06T10:43:30Z</time>
      </trkpt>
      <trkpt lat="42.74421" lon="1.53707">
        <ele>1791.716</ele>
        <time>2021-03-06T10:43:32Z</time>
      </trkpt>
      <trkpt lat="42.74421" lon="1.53706">
        <ele>1792.012</ele>
        <time>2021-03-06T10:43:34Z</time>
      </trkpt>
      <trkpt lat="42.74421" lon="1.53704">
        <ele>1792.279</ele>
        <time>2021-03-06T10:43:36Z</time>
      </trkpt>
      <trkpt lat="42.74422" lon="1.53703">
        <ele>1792.532</ele>
        <time>2021-03-06T10:43:38Z</time>
      </trkpt>
      <trkpt lat="42.74422" lon="1.53701">
        <ele>1792.511</ele>
        <time>2021-03-06T10:43:40Z</time>
      </trkpt>
      <trkpt lat="42.74423" lon="1.537">
        <ele>1792.513</ele>
        <time>2021-03-06T10:43:42Z</time>
      </trkpt>
      <trkpt lat="42.74424" lon="1.53698">
        <ele>1792.365</ele>
        <time>2021-03-06T10:43:44Z</time>
      </trkpt>
      <trkpt lat="42.74425" lon="1.53696">
        <ele>1793.135</ele>
        <time>2021-03-06T10:43:46Z</time>
      </trkpt>
      <trkpt lat="42.74425" lon="1.53695">
        <ele>1792.985</ele>
        <time>2021-03-06T10:43:48Z</time>
      </trkpt>
      <trkpt lat="42.74425" lon="1.53693">
        <ele>1793.27</ele>
        <time>2021-03-06T10:43:50Z</time>
      </trkpt>
      <trkpt lat="42.74426" lon="1.53692">
        <ele>1793.325</ele>
        <time>2021-03-06T10:43:52Z</time>
      </trkpt>
      <trkpt lat="42.74426" lon="1.5369">
        <ele>1793.651</ele>
        <time>2021-03-06T10:43:54Z</time>
      </trkpt>
      <trkpt lat="42.74427" lon="1.53688">
        <ele>1793.61</ele>
        <time>2021-03-06T10:43:56Z</time>
      </trkpt>
      <trkpt lat="42.74427" lon="1.53686">
        <ele>1794.159</ele>
        <time>2021-03-06T10:43:58Z</time>
      </trkpt>
      <trkpt lat="42.74428" lon="1.53685">
        <ele>1794.739</ele>
        <time>2021-03-06T10:44:00Z</time>
      </trkpt>
      <trkpt lat="42.74429" lon="1.53683">
        <ele>1794.977</ele>
        <time>2021-03-06T10:44:02Z</time>
      </trkpt>
      <trkpt lat="42.74429" lon="1.53682">
        <ele>1794.778</ele>
        <time>2021-03-06T10:44:04Z</time>
      </trkpt>
      <trkpt lat="42.7443" lon="1.5368">
        <ele>1795.317</ele>
        <time>2021-03-06T10:44:06Z</time>
      </trkpt>
      <trkpt lat="42.74431" lon="1.53678">
        <ele>1795.569</ele>
        <time>2021-03-06T10:44:08Z</time>
      </trkpt>
      <trkpt lat="42.74431" lon="1.53677">
        <ele>1795.691</ele>
        <time>2021-03-06T10:44:10Z</time>
      </trkpt>
      <trkpt lat="42.74432" lon="1.53675">
        <ele>1796.122</ele>
        <time>2021-03-06T10:44:12Z</time>
      </trkpt>
      <trkpt lat="42.74433" lon="1.53674">
        <ele>1796.576</ele>
        <time>2021-03-06T10:44:14Z</time>
      </trkpt>
      <trkpt lat="42.74433" lon="1.53672">
        <ele>1796.712</ele>
        <time>2021-03-06T10:44:16Z</time>
      </trkpt>
      <trkpt lat="42.74434" lon="1.53671">
        <ele>1796.875</ele>
        <time>2021-03-06T10:44:18Z</time>
      </trkpt>
      <trkpt lat="42.74434" lon="1.5367">
        <ele>1797.182</ele>
        <time>2021-03-06T10:44:19Z</time>
      </trkpt>
      <trkpt lat="42.74435" lon="1.53667">
        <ele>1797.608</ele>
        <time>2021-03-06T10:44:22Z</time>
      </trkpt>
      <trkpt lat="42.74435" lon="1.53665">
        <ele>1797.685</ele>
        <time>2021-03-06T10:44:24Z</time>
      </trkpt>
      <trkpt lat="42.74436" lon="1.53664">
        <ele>1798.049</ele>
        <time>2021-03-06T10:44:26Z</time>
      </trkpt>
      <trkpt lat="42.74436" lon="1.53662">
        <ele>1798.244</ele>
        <time>2021-03-06T10:44:28Z</time>
      </trkpt>
      <trkpt lat="42.74436" lon="1.5366">
        <ele>1798.635</ele>
        <time>2021-03-06T10:44:30Z</time>
      </trkpt>
      <trkpt lat="42.74436" lon="1.53658">
        <ele>1798.852</ele>
        <time>2021-03-06T10:44:32Z</time>
      </trkpt>
      <trkpt lat="42.74436" lon="1.53657">
        <ele>1798.974</ele>
        <time>2021-03-06T10:44:34Z</time>
      </trkpt>
      <trkpt lat="42.74436" lon="1.53655">
        <ele>1799.74</ele>
        <time>2021-03-06T10:44:36Z</time>
      </trkpt>
      <trkpt lat="42.74437" lon="1.53653">
        <ele>1800.173</ele>
        <time>2021-03-06T10:44:38Z</time>
      </trkpt>
      <trkpt lat="42.74437" lon="1.53651">
        <ele>1800.407</ele>
        <time>2021-03-06T10:44:40Z</time>
      </trkpt>
      <trkpt lat="42.74437" lon="1.5365">
        <ele>1800.629</ele>
        <time>2021-03-06T10:44:42Z</time>
      </trkpt>
      <trkpt lat="42.74437" lon="1.53648">
        <ele>1800.586</ele>
        <time>2021-03-06T10:44:44Z</time>
      </trkpt>
      <trkpt lat="42.74437" lon="1.53646">
        <ele>1800.784</ele>
        <time>2021-03-06T10:44:46Z</time>
      </trkpt>
      <trkpt lat="42.74437" lon="1.53645">
        <ele>1800.464</ele>
        <time>2021-03-06T10:44:48Z</time>
      </trkpt>
      <trkpt lat="42.74437" lon="1.53643">
        <ele>1800.464</ele>
        <time>2021-03-06T10:44:50Z</time>
      </trkpt>
      <trkpt lat="42.74437" lon="1.53642">
        <ele>1800.923</ele>
        <time>2021-03-06T10:44:52Z</time>
      </trkpt>
      <trkpt lat="42.74437" lon="1.5364">
        <ele>1800.801</ele>
        <time>2021-03-06T10:44:54Z</time>
      </trkpt>
      <trkpt lat="42.74437" lon="1.53639">
        <ele>1800.827</ele>
        <time>2021-03-06T10:44:56Z</time>
      </trkpt>
      <trkpt lat="42.74437" lon="1.53637">
        <ele>1800.909</ele>
        <time>2021-03-06T10:44:58Z</time>
      </trkpt>
      <trkpt lat="42.74437" lon="1.53636">
        <ele>1801.11</ele>
        <time>2021-03-06T10:45:00Z</time>
      </trkpt>
      <trkpt lat="42.74438" lon="1.53634">
        <ele>1801.204</ele>
        <time>2021-03-06T10:45:02Z</time>
      </trkpt>
      <trkpt lat="42.74438" lon="1.53633">
        <ele>1801.377</ele>
        <time>2021-03-06T10:45:04Z</time>
      </trkpt>
      <trkpt lat="42.74438" lon="1.53631">
        <ele>1801.975</ele>
        <time>2021-03-06T10:45:06Z</time>
      </trkpt>
      <trkpt lat="42.74438" lon="1.53629">
        <ele>1802.054</ele>
        <time>2021-03-06T10:45:08Z</time>
      </trkpt>
      <trkpt lat="42.74439" lon="1.5363">
        <ele>1802.22</ele>
        <time>2021-03-06T10:45:10Z</time>
      </trkpt>
      <trkpt lat="42.74439" lon="1.5363">
        <ele>1802.224</ele>
        <time>2021-03-06T10:45:12Z</time>
      </trkpt>
      <trkpt lat="42.74439" lon="1.5363">
        <ele>1802.225</ele>
        <time>2021-03-06T10:45:14Z</time>
      </trkpt>
      <trkpt lat="42.74439" lon="1.53629">
        <ele>1802.373</ele>
        <time>2021-03-06T10:45:16Z</time>
      </trkpt>
      <trkpt lat="42.74439" lon="1.53628">
        <ele>1802.487</ele>
        <time>2021-03-06T10:45:18Z</time>
      </trkpt>
      <trkpt lat="42.74439" lon="1.53628">
        <ele>1802.466</ele>
        <time>2021-03-06T10:45:20Z</time>
      </trkpt>
      <trkpt lat="42.74439" lon="1.53628">
        <ele>1802.41</ele>
        <time>2021-03-06T10:45:22Z</time>
      </trkpt>
      <trkpt lat="42.74439" lon="1.53627">
        <ele>1802.548</ele>
        <time>2021-03-06T10:45:23Z</time>
      </trkpt>
      <trkpt lat="42.74439" lon="1.53625">
        <ele>1802.243</ele>
        <time>2021-03-06T10:45:26Z</time>
      </trkpt>
      <trkpt lat="42.74439" lon="1.53624">
        <ele>1802.814</ele>
        <time>2021-03-06T10:45:28Z</time>
      </trkpt>
      <trkpt lat="42.74439" lon="1.53622">
        <ele>1802.971</ele>
        <time>2021-03-06T10:45:30Z</time>
      </trkpt>
      <trkpt lat="42.74439" lon="1.53621">
        <ele>1803.192</ele>
        <time>2021-03-06T10:45:32Z</time>
      </trkpt>
      <trkpt lat="42.74439" lon="1.5362">
        <ele>1802.899</ele>
        <time>2021-03-06T10:45:34Z</time>
      </trkpt>
      <trkpt lat="42.74438" lon="1.53618">
        <ele>1803.18</ele>
        <time>2021-03-06T10:45:36Z</time>
      </trkpt>
      <trkpt lat="42.74438" lon="1.53617">
        <ele>1803.3</ele>
        <time>2021-03-06T10:45:38Z</time>
      </trkpt>
      <trkpt lat="42.74438" lon="1.53616">
        <ele>1803.67</ele>
        <time>2021-03-06T10:45:40Z</time>
      </trkpt>
      <trkpt lat="42.74438" lon="1.53614">
        <ele>1803.903</ele>
        <time>2021-03-06T10:45:42Z</time>
      </trkpt>
      <trkpt lat="42.74438" lon="1.53613">
        <ele>1804.016</ele>
        <time>2021-03-06T10:45:44Z</time>
      </trkpt>
      <trkpt lat="42.74438" lon="1.53613">
        <ele>1804.051</ele>
        <time>2021-03-06T10:45:46Z</time>
      </trkpt>
      <trkpt lat="42.74438" lon="1.53613">
        <ele>1804.053</ele>
        <time>2021-03-06T10:45:48Z</time>
      </trkpt>
      <trkpt lat="42.74438" lon="1.53613">
        <ele>1804.051</ele>
        <time>2021-03-06T10:45:50Z</time>
      </trkpt>
      <trkpt lat="42.74438" lon="1.53612">
        <ele>1804.017</ele>
        <time>2021-03-06T10:45:52Z</time>
      </trkpt>
      <trkpt lat="42.74439" lon="1.5361">
        <ele>1804.652</ele>
        <time>2021-03-06T10:45:54Z</time>
      </trkpt>
      <trkpt lat="42.74439" lon="1.53609">
        <ele>1804.867</ele>
        <time>2021-03-06T10:45:56Z</time>
      </trkpt>
      <trkpt lat="42.74438" lon="1.53607">
        <ele>1805.213</ele>
        <time>2021-03-06T10:45:58Z</time>
      </trkpt>
      <trkpt lat="42.74438" lon="1.53606">
        <ele>1805.085</ele>
        <time>2021-03-06T10:46:00Z</time>
      </trkpt>
      <trkpt lat="42.74438" lon="1.53605">
        <ele>1805.313</ele>
        <time>2021-03-06T10:46:02Z</time>
      </trkpt>
      <trkpt lat="42.74437" lon="1.53603">
        <ele>1805.309</ele>
        <time>2021-03-06T10:46:04Z</time>
      </trkpt>
      <trkpt lat="42.74437" lon="1.53601">
        <ele>1805.436</ele>
        <time>2021-03-06T10:46:06Z</time>
      </trkpt>
      <trkpt lat="42.74437" lon="1.536">
        <ele>1805.435</ele>
        <time>2021-03-06T10:46:08Z</time>
      </trkpt>
      <trkpt lat="42.74437" lon="1.53598">
        <ele>1805.595</ele>
        <time>2021-03-06T10:46:10Z</time>
      </trkpt>
      <trkpt lat="42.74437" lon="1.53596">
        <ele>1806.028</ele>
        <time>2021-03-06T10:46:12Z</time>
      </trkpt>
      <trkpt lat="42.74436" lon="1.53595">
        <ele>1806.046</ele>
        <time>2021-03-06T10:46:14Z</time>
      </trkpt>
      <trkpt lat="42.74436" lon="1.53593">
        <ele>1806.279</ele>
        <time>2021-03-06T10:46:16Z</time>
      </trkpt>
      <trkpt lat="42.74436" lon="1.53591">
        <ele>1806.531</ele>
        <time>2021-03-06T10:46:18Z</time>
      </trkpt>
      <trkpt lat="42.74436" lon="1.53588">
        <ele>1806.765</ele>
        <time>2021-03-06T10:46:20Z</time>
      </trkpt>
      <trkpt lat="42.74436" lon="1.53586">
        <ele>1807.686</ele>
        <time>2021-03-06T10:46:22Z</time>
      </trkpt>
      <trkpt lat="42.74436" lon="1.53584">
        <ele>1807.84</ele>
        <time>2021-03-06T10:46:24Z</time>
      </trkpt>
      <trkpt lat="42.74435" lon="1.53583">
        <ele>1808.566</ele>
        <time>2021-03-06T10:46:26Z</time>
      </trkpt>
      <trkpt lat="42.74436" lon="1.53581">
        <ele>1809.039</ele>
        <time>2021-03-06T10:46:28Z</time>
      </trkpt>
      <trkpt lat="42.74436" lon="1.53579">
        <ele>1808.864</ele>
        <time>2021-03-06T10:46:30Z</time>
      </trkpt>
      <trkpt lat="42.74436" lon="1.53577">
        <ele>1809.603</ele>
        <time>2021-03-06T10:46:32Z</time>
      </trkpt>
      <trkpt lat="42.74436" lon="1.53575">
        <ele>1809.39</ele>
        <time>2021-03-06T10:46:34Z</time>
      </trkpt>
      <trkpt lat="42.74436" lon="1.53574">
        <ele>1809.842</ele>
        <time>2021-03-06T10:46:35Z</time>
      </trkpt>
      <trkpt lat="42.74435" lon="1.53571">
        <ele>1810.253</ele>
        <time>2021-03-06T10:46:38Z</time>
      </trkpt>
      <trkpt lat="42.74435" lon="1.53568">
        <ele>1810.475</ele>
        <time>2021-03-06T10:46:40Z</time>
      </trkpt>
      <trkpt lat="42.74435" lon="1.53566">
        <ele>1811.029</ele>
        <time>2021-03-06T10:46:42Z</time>
      </trkpt>
      <trkpt lat="42.74434" lon="1.53564">
        <ele>1811.694</ele>
        <time>2021-03-06T10:46:44Z</time>
      </trkpt>
      <trkpt lat="42.74434" lon="1.53562">
        <ele>1811.522</ele>
        <time>2021-03-06T10:46:46Z</time>
      </trkpt>
      <trkpt lat="42.74433" lon="1.53561">
        <ele>1811.29</ele>
        <time>2021-03-06T10:46:48Z</time>
      </trkpt>
      <trkpt lat="42.74433" lon="1.53558">
        <ele>1811.305</ele>
        <time>2021-03-06T10:46:50Z</time>
      </trkpt>
      <trkpt lat="42.74433" lon="1.53557">
        <ele>1811.905</ele>
        <time>2021-03-06T10:46:52Z</time>
      </trkpt>
      <trkpt lat="42.74432" lon="1.53555">
        <ele>1812.097</ele>
        <time>2021-03-06T10:46:54Z</time>
      </trkpt>
      <trkpt lat="42.74431" lon="1.53553">
        <ele>1812.112</ele>
        <time>2021-03-06T10:46:56Z</time>
      </trkpt>
      <trkpt lat="42.7443" lon="1.53551">
        <ele>1812.532</ele>
        <time>2021-03-06T10:46:58Z</time>
      </trkpt>
      <trkpt lat="42.7443" lon="1.53549">
        <ele>1812.721</ele>
        <time>2021-03-06T10:47:00Z</time>
      </trkpt>
      <trkpt lat="42.74428" lon="1.53547">
        <ele>1812.676</ele>
        <time>2021-03-06T10:47:02Z</time>
      </trkpt>
      <trkpt lat="42.74428" lon="1.53546">
        <ele>1813.522</ele>
        <time>2021-03-06T10:47:04Z</time>
      </trkpt>
      <trkpt lat="42.74427" lon="1.53544">
        <ele>1813.322</ele>
        <time>2021-03-06T10:47:06Z</time>
      </trkpt>
      <trkpt lat="42.74426" lon="1.53542">
        <ele>1813.657</ele>
        <time>2021-03-06T10:47:08Z</time>
      </trkpt>
      <trkpt lat="42.74425" lon="1.5354">
        <ele>1814.168</ele>
        <time>2021-03-06T10:47:10Z</time>
      </trkpt>
      <trkpt lat="42.74423" lon="1.53538">
        <ele>1814.766</ele>
        <time>2021-03-06T10:47:12Z</time>
      </trkpt>
      <trkpt lat="42.74422" lon="1.53536">
        <ele>1814.48</ele>
        <time>2021-03-06T10:47:14Z</time>
      </trkpt>
      <trkpt lat="42.74421" lon="1.53533">
        <ele>1814.508</ele>
        <time>2021-03-06T10:47:16Z</time>
      </trkpt>
      <trkpt lat="42.7442" lon="1.53531">
        <ele>1814.941</ele>
        <time>2021-03-06T10:47:18Z</time>
      </trkpt>
      <trkpt lat="42.7442" lon="1.53529">
        <ele>1814.752</ele>
        <time>2021-03-06T10:47:20Z</time>
      </trkpt>
      <trkpt lat="42.74418" lon="1.53527">
        <ele>1814.919</ele>
        <time>2021-03-06T10:47:22Z</time>
      </trkpt>
      <trkpt lat="42.74417" lon="1.53525">
        <ele>1815.29</ele>
        <time>2021-03-06T10:47:24Z</time>
      </trkpt>
      <trkpt lat="42.74416" lon="1.53523">
        <ele>1816.092</ele>
        <time>2021-03-06T10:47:26Z</time>
      </trkpt>
      <trkpt lat="42.74415" lon="1.53522">
        <ele>1815.906</ele>
        <time>2021-03-06T10:47:28Z</time>
      </trkpt>
      <trkpt lat="42.74414" lon="1.53521">
        <ele>1816.355</ele>
        <time>2021-03-06T10:47:30Z</time>
      </trkpt>
      <trkpt lat="42.74413" lon="1.53519">
        <ele>1816.699</ele>
        <time>2021-03-06T10:47:32Z</time>
      </trkpt>
      <trkpt lat="42.74412" lon="1.53518">
        <ele>1817.526</ele>
        <time>2021-03-06T10:47:34Z</time>
      </trkpt>
      <trkpt lat="42.7441" lon="1.53517">
        <ele>1817.724</ele>
        <time>2021-03-06T10:47:36Z</time>
      </trkpt>
      <trkpt lat="42.74408" lon="1.53516">
        <ele>1817.528</ele>
        <time>2021-03-06T10:47:38Z</time>
      </trkpt>
      <trkpt lat="42.74406" lon="1.53515">
        <ele>1817.763</ele>
        <time>2021-03-06T10:47:40Z</time>
      </trkpt>
      <trkpt lat="42.74405" lon="1.53514">
        <ele>1817.293</ele>
        <time>2021-03-06T10:47:42Z</time>
      </trkpt>
      <trkpt lat="42.74403" lon="1.53513">
        <ele>1817.855</ele>
        <time>2021-03-06T10:47:44Z</time>
      </trkpt>
      <trkpt lat="42.74401" lon="1.53512">
        <ele>1818.377</ele>
        <time>2021-03-06T10:47:46Z</time>
      </trkpt>
      <trkpt lat="42.744" lon="1.53511">
        <ele>1818.872</ele>
        <time>2021-03-06T10:47:48Z</time>
      </trkpt>
      <trkpt lat="42.74398" lon="1.5351">
        <ele>1818.916</ele>
        <time>2021-03-06T10:47:50Z</time>
      </trkpt>
      <trkpt lat="42.74396" lon="1.53509">
        <ele>1819.358</ele>
        <time>2021-03-06T10:47:52Z</time>
      </trkpt>
      <trkpt lat="42.74394" lon="1.53509">
        <ele>1819.912</ele>
        <time>2021-03-06T10:47:54Z</time>
      </trkpt>
      <trkpt lat="42.74392" lon="1.53509">
        <ele>1820.084</ele>
        <time>2021-03-06T10:47:56Z</time>
      </trkpt>
      <trkpt lat="42.7439" lon="1.53509">
        <ele>1819.842</ele>
        <time>2021-03-06T10:47:58Z</time>
      </trkpt>
      <trkpt lat="42.74389" lon="1.53508">
        <ele>1820.602</ele>
        <time>2021-03-06T10:48:00Z</time>
      </trkpt>
      <trkpt lat="42.74387" lon="1.53509">
        <ele>1821.136</ele>
        <time>2021-03-06T10:48:02Z</time>
      </trkpt>
      <trkpt lat="42.74385" lon="1.53509">
        <ele>1821.591</ele>
        <time>2021-03-06T10:48:04Z</time>
      </trkpt>
      <trkpt lat="42.74384" lon="1.5351">
        <ele>1822.328</ele>
        <time>2021-03-06T10:48:06Z</time>
      </trkpt>
      <trkpt lat="42.74382" lon="1.5351">
        <ele>1822.693</ele>
        <time>2021-03-06T10:48:08Z</time>
      </trkpt>
      <trkpt lat="42.74381" lon="1.5351">
        <ele>1822.826</ele>
        <time>2021-03-06T10:48:10Z</time>
      </trkpt>
      <trkpt lat="42.74379" lon="1.53511">
        <ele>1823.158</ele>
        <time>2021-03-06T10:48:12Z</time>
      </trkpt>
      <trkpt lat="42.74377" lon="1.53511">
        <ele>1823.711</ele>
        <time>2021-03-06T10:48:14Z</time>
      </trkpt>
      <trkpt lat="42.74376" lon="1.53512">
        <ele>1824.038</ele>
        <time>2021-03-06T10:48:16Z</time>
      </trkpt>
      <trkpt lat="42.74374" lon="1.53512">
        <ele>1824.525</ele>
        <time>2021-03-06T10:48:18Z</time>
      </trkpt>
      <trkpt lat="42.74373" lon="1.53513">
        <ele>1824.866</ele>
        <time>2021-03-06T10:48:20Z</time>
      </trkpt>
      <trkpt lat="42.74371" lon="1.53514">
        <ele>1825.407</ele>
        <time>2021-03-06T10:48:22Z</time>
      </trkpt>
      <trkpt lat="42.7437" lon="1.53514">
        <ele>1825.838</ele>
        <time>2021-03-06T10:48:24Z</time>
      </trkpt>
      <trkpt lat="42.74369" lon="1.53513">
        <ele>1826.459</ele>
        <time>2021-03-06T10:48:26Z</time>
      </trkpt>
      <trkpt lat="42.74367" lon="1.53513">
        <ele>1827.619</ele>
        <time>2021-03-06T10:48:28Z</time>
      </trkpt>
      <trkpt lat="42.74365" lon="1.53513">
        <ele>1827.675</ele>
        <time>2021-03-06T10:48:30Z</time>
      </trkpt>
      <trkpt lat="42.74364" lon="1.53513">
        <ele>1827.995</ele>
        <time>2021-03-06T10:48:32Z</time>
      </trkpt>
      <trkpt lat="42.74363" lon="1.53514">
        <ele>1828.568</ele>
        <time>2021-03-06T10:48:34Z</time>
      </trkpt>
      <trkpt lat="42.74361" lon="1.53514">
        <ele>1828.973</ele>
        <time>2021-03-06T10:48:36Z</time>
      </trkpt>
      <trkpt lat="42.7436" lon="1.53515">
        <ele>1828.747</ele>
        <time>2021-03-06T10:48:38Z</time>
      </trkpt>
      <trkpt lat="42.74359" lon="1.53515">
        <ele>1829.37</ele>
        <time>2021-03-06T10:48:40Z</time>
      </trkpt>
      <trkpt lat="42.74357" lon="1.53516">
        <ele>1829.696</ele>
        <time>2021-03-06T10:48:42Z</time>
      </trkpt>
      <trkpt lat="42.74356" lon="1.53516">
        <ele>1830.188</ele>
        <time>2021-03-06T10:48:44Z</time>
      </trkpt>
      <trkpt lat="42.74354" lon="1.53515">
        <ele>1830.249</ele>
        <time>2021-03-06T10:48:46Z</time>
      </trkpt>
      <trkpt lat="42.74352" lon="1.53516">
        <ele>1830.428</ele>
        <time>2021-03-06T10:48:48Z</time>
      </trkpt>
      <trkpt lat="42.74351" lon="1.53516">
        <ele>1831.404</ele>
        <time>2021-03-06T10:48:50Z</time>
      </trkpt>
      <trkpt lat="42.74349" lon="1.53516">
        <ele>1832.123</ele>
        <time>2021-03-06T10:48:52Z</time>
      </trkpt>
      <trkpt lat="42.74347" lon="1.53516">
        <ele>1831.527</ele>
        <time>2021-03-06T10:48:54Z</time>
      </trkpt>
      <trkpt lat="42.74346" lon="1.53516">
        <ele>1832.163</ele>
        <time>2021-03-06T10:48:56Z</time>
      </trkpt>
      <trkpt lat="42.74344" lon="1.53515">
        <ele>1832.589</ele>
        <time>2021-03-06T10:48:58Z</time>
      </trkpt>
      <trkpt lat="42.74342" lon="1.53515">
        <ele>1833.007</ele>
        <time>2021-03-06T10:49:00Z</time>
      </trkpt>
      <trkpt lat="42.74341" lon="1.53515">
        <ele>1833.531</ele>
        <time>2021-03-06T10:49:02Z</time>
      </trkpt>
      <trkpt lat="42.74339" lon="1.53515">
        <ele>1833.924</ele>
        <time>2021-03-06T10:49:04Z</time>
      </trkpt>
      <trkpt lat="42.74338" lon="1.53514">
        <ele>1834.28</ele>
        <time>2021-03-06T10:49:06Z</time>
      </trkpt>
      <trkpt lat="42.74336" lon="1.53514">
        <ele>1834.417</ele>
        <time>2021-03-06T10:49:08Z</time>
      </trkpt>
      <trkpt lat="42.74335" lon="1.53513">
        <ele>1834.802</ele>
        <time>2021-03-06T10:49:10Z</time>
      </trkpt>
      <trkpt lat="42.74334" lon="1.53512">
        <ele>1834.866</ele>
        <time>2021-03-06T10:49:12Z</time>
      </trkpt>
      <trkpt lat="42.74333" lon="1.53512">
        <ele>1834.583</ele>
        <time>2021-03-06T10:49:14Z</time>
      </trkpt>
      <trkpt lat="42.74331" lon="1.53511">
        <ele>1835.238</ele>
        <time>2021-03-06T10:49:16Z</time>
      </trkpt>
      <trkpt lat="42.7433" lon="1.5351">
        <ele>1835.492</ele>
        <time>2021-03-06T10:49:18Z</time>
      </trkpt>
      <trkpt lat="42.74328" lon="1.53509">
        <ele>1835.702</ele>
        <time>2021-03-06T10:49:20Z</time>
      </trkpt>
      <trkpt lat="42.74327" lon="1.53508">
        <ele>1835.79</ele>
        <time>2021-03-06T10:49:22Z</time>
      </trkpt>
      <trkpt lat="42.74326" lon="1.53507">
        <ele>1835.95</ele>
        <time>2021-03-06T10:49:24Z</time>
      </trkpt>
      <trkpt lat="42.74324" lon="1.53506">
        <ele>1836.58</ele>
        <time>2021-03-06T10:49:26Z</time>
      </trkpt>
      <trkpt lat="42.74323" lon="1.53505">
        <ele>1836.896</ele>
        <time>2021-03-06T10:49:28Z</time>
      </trkpt>
      <trkpt lat="42.74321" lon="1.53504">
        <ele>1837.51</ele>
        <time>2021-03-06T10:49:30Z</time>
      </trkpt>
      <trkpt lat="42.7432" lon="1.53504">
        <ele>1837.551</ele>
        <time>2021-03-06T10:49:32Z</time>
      </trkpt>
      <trkpt lat="42.74319" lon="1.53502">
        <ele>1837.887</ele>
        <time>2021-03-06T10:49:35Z</time>
      </trkpt>
      <trkpt lat="42.74317" lon="1.53501">
        <ele>1838.464</ele>
        <time>2021-03-06T10:49:37Z</time>
      </trkpt>
      <trkpt lat="42.74316" lon="1.53501">
        <ele>1838.578</ele>
        <time>2021-03-06T10:49:39Z</time>
      </trkpt>
      <trkpt lat="42.74314" lon="1.535">
        <ele>1838.825</ele>
        <time>2021-03-06T10:49:41Z</time>
      </trkpt>
      <trkpt lat="42.74313" lon="1.535">
        <ele>1838.782</ele>
        <time>2021-03-06T10:49:43Z</time>
      </trkpt>
      <trkpt lat="42.74313" lon="1.535">
        <ele>1839.362</ele>
        <time>2021-03-06T10:49:45Z</time>
      </trkpt>
      <trkpt lat="42.74313" lon="1.53499">
        <ele>1839.333</ele>
        <time>2021-03-06T10:49:47Z</time>
      </trkpt>
      <trkpt lat="42.74312" lon="1.535">
        <ele>1839.516</ele>
        <time>2021-03-06T10:49:49Z</time>
      </trkpt>
      <trkpt lat="42.74312" lon="1.535">
        <ele>1839.514</ele>
        <time>2021-03-06T10:49:51Z</time>
      </trkpt>
      <trkpt lat="42.74312" lon="1.535">
        <ele>1839.513</ele>
        <time>2021-03-06T10:49:53Z</time>
      </trkpt>
      <trkpt lat="42.74312" lon="1.535">
        <ele>1839.507</ele>
        <time>2021-03-06T10:49:55Z</time>
      </trkpt>
      <trkpt lat="42.74312" lon="1.535">
        <ele>1839.463</ele>
        <time>2021-03-06T10:49:57Z</time>
      </trkpt>
      <trkpt lat="42.74312" lon="1.535">
        <ele>1839.707</ele>
        <time>2021-03-06T10:49:59Z</time>
      </trkpt>
      <trkpt lat="42.74312" lon="1.535">
        <ele>1839.708</ele>
        <time>2021-03-06T10:50:01Z</time>
      </trkpt>
      <trkpt lat="42.74312" lon="1.535">
        <ele>1839.698</ele>
        <time>2021-03-06T10:50:03Z</time>
      </trkpt>
      <trkpt lat="42.74312" lon="1.535">
        <ele>1839.695</ele>
        <time>2021-03-06T10:50:05Z</time>
      </trkpt>
      <trkpt lat="42.74312" lon="1.535">
        <ele>1839.697</ele>
        <time>2021-03-06T10:50:07Z</time>
      </trkpt>
      <trkpt lat="42.74312" lon="1.535">
        <ele>1839.699</ele>
        <time>2021-03-06T10:50:09Z</time>
      </trkpt>
      <trkpt lat="42.74312" lon="1.535">
        <ele>1839.677</ele>
        <time>2021-03-06T10:50:11Z</time>
      </trkpt>
      <trkpt lat="42.74312" lon="1.535">
        <ele>1840.297</ele>
        <time>2021-03-06T10:50:13Z</time>
      </trkpt>
      <trkpt lat="42.74312" lon="1.53501">
        <ele>1840.293</ele>
        <time>2021-03-06T10:50:15Z</time>
      </trkpt>
      <trkpt lat="42.74312" lon="1.53501">
        <ele>1840.292</ele>
        <time>2021-03-06T10:50:17Z</time>
      </trkpt>
      <trkpt lat="42.74312" lon="1.53501">
        <ele>1840.298</ele>
        <time>2021-03-06T10:50:19Z</time>
      </trkpt>
      <trkpt lat="42.74313" lon="1.535">
        <ele>1840.288</ele>
        <time>2021-03-06T10:50:21Z</time>
      </trkpt>
      <trkpt lat="42.74313" lon="1.535">
        <ele>1840.286</ele>
        <time>2021-03-06T10:50:22Z</time>
      </trkpt>
      <trkpt lat="42.74313" lon="1.535">
        <ele>1840.28</ele>
        <time>2021-03-06T10:50:25Z</time>
      </trkpt>
      <trkpt lat="42.74313" lon="1.535">
        <ele>1840.278</ele>
        <time>2021-03-06T10:50:27Z</time>
      </trkpt>
      <trkpt lat="42.74313" lon="1.535">
        <ele>1840.274</ele>
        <time>2021-03-06T10:50:29Z</time>
      </trkpt>
      <trkpt lat="42.74313" lon="1.535">
        <ele>1840.269</ele>
        <time>2021-03-06T10:50:31Z</time>
      </trkpt>
      <trkpt lat="42.74313" lon="1.535">
        <ele>1840.47</ele>
        <time>2021-03-06T10:50:33Z</time>
      </trkpt>
      <trkpt lat="42.74313" lon="1.535">
        <ele>1840.526</ele>
        <time>2021-03-06T10:50:35Z</time>
      </trkpt>
      <trkpt lat="42.74313" lon="1.535">
        <ele>1840.519</ele>
        <time>2021-03-06T10:50:37Z</time>
      </trkpt>
      <trkpt lat="42.74313" lon="1.535">
        <ele>1840.521</ele>
        <time>2021-03-06T10:50:39Z</time>
      </trkpt>
      <trkpt lat="42.74313" lon="1.535">
        <ele>1840.514</ele>
        <time>2021-03-06T10:50:41Z</time>
      </trkpt>
      <trkpt lat="42.74313" lon="1.535">
        <ele>1840.513</ele>
        <time>2021-03-06T10:50:43Z</time>
      </trkpt>
      <trkpt lat="42.74313" lon="1.535">
        <ele>1839.907</ele>
        <time>2021-03-06T10:50:45Z</time>
      </trkpt>
      <trkpt lat="42.74313" lon="1.535">
        <ele>1839.753</ele>
        <time>2021-03-06T10:50:47Z</time>
      </trkpt>
      <trkpt lat="42.74313" lon="1.535">
        <ele>1839.751</ele>
        <time>2021-03-06T10:50:49Z</time>
      </trkpt>
      <trkpt lat="42.74313" lon="1.535">
        <ele>1839.747</ele>
        <time>2021-03-06T10:50:51Z</time>
      </trkpt>
      <trkpt lat="42.74313" lon="1.535">
        <ele>1839.743</ele>
        <time>2021-03-06T10:50:53Z</time>
      </trkpt>
      <trkpt lat="42.74313" lon="1.535">
        <ele>1839.747</ele>
        <time>2021-03-06T10:50:56Z</time>
      </trkpt>
      <trkpt lat="42.74313" lon="1.535">
        <ele>1839.747</ele>
        <time>2021-03-06T10:50:58Z</time>
      </trkpt>
      <trkpt lat="42.74313" lon="1.535">
        <ele>1839.748</ele>
        <time>2021-03-06T10:51:00Z</time>
      </trkpt>
      <trkpt lat="42.74313" lon="1.535">
        <ele>1839.749</ele>
        <time>2021-03-06T10:51:02Z</time>
      </trkpt>
      <trkpt lat="42.74313" lon="1.535">
        <ele>1839.752</ele>
        <time>2021-03-06T10:51:04Z</time>
      </trkpt>
      <trkpt lat="42.74313" lon="1.535">
        <ele>1839.754</ele>
        <time>2021-03-06T10:51:06Z</time>
      </trkpt>
      <trkpt lat="42.74313" lon="1.535">
        <ele>1839.531</ele>
        <time>2021-03-06T10:51:08Z</time>
      </trkpt>
      <trkpt lat="42.74314" lon="1.535">
        <ele>1839.613</ele>
        <time>2021-03-06T10:51:10Z</time>
      </trkpt>
      <trkpt lat="42.74314" lon="1.535">
        <ele>1839.615</ele>
        <time>2021-03-06T10:51:12Z</time>
      </trkpt>
      <trkpt lat="42.74314" lon="1.535">
        <ele>1839.626</ele>
        <time>2021-03-06T10:51:14Z</time>
      </trkpt>
      <trkpt lat="42.74314" lon="1.535">
        <ele>1839.628</ele>
        <time>2021-03-06T10:51:16Z</time>
      </trkpt>
      <trkpt lat="42.74314" lon="1.535">
        <ele>1839.63</ele>
        <time>2021-03-06T10:51:18Z</time>
      </trkpt>
      <trkpt lat="42.74314" lon="1.535">
        <ele>1839.626</ele>
        <time>2021-03-06T10:51:20Z</time>
      </trkpt>
      <trkpt lat="42.74314" lon="1.535">
        <ele>1839.62</ele>
        <time>2021-03-06T10:51:22Z</time>
      </trkpt>
      <trkpt lat="42.74314" lon="1.535">
        <ele>1839.622</ele>
        <time>2021-03-06T10:51:24Z</time>
      </trkpt>
      <trkpt lat="42.74314" lon="1.535">
        <ele>1839.624</ele>
        <time>2021-03-06T10:51:26Z</time>
      </trkpt>
      <trkpt lat="42.74314" lon="1.535">
        <ele>1839.621</ele>
        <time>2021-03-06T10:51:28Z</time>
      </trkpt>
      <trkpt lat="42.74314" lon="1.535">
        <ele>1839.631</ele>
        <time>2021-03-06T10:51:30Z</time>
      </trkpt>
      <trkpt lat="42.74314" lon="1.535">
        <ele>1839.632</ele>
        <time>2021-03-06T10:51:32Z</time>
      </trkpt>
      <trkpt lat="42.74314" lon="1.535">
        <ele>1839.636</ele>
        <time>2021-03-06T10:51:34Z</time>
      </trkpt>
      <trkpt lat="42.74314" lon="1.535">
        <ele>1839.637</ele>
        <time>2021-03-06T10:51:36Z</time>
      </trkpt>
      <trkpt lat="42.74314" lon="1.535">
        <ele>1839.633</ele>
        <time>2021-03-06T10:51:38Z</time>
      </trkpt>
      <trkpt lat="42.74314" lon="1.535">
        <ele>1839.633</ele>
        <time>2021-03-06T10:51:40Z</time>
      </trkpt>
      <trkpt lat="42.74314" lon="1.535">
        <ele>1839.633</ele>
        <time>2021-03-06T10:51:42Z</time>
      </trkpt>
      <trkpt lat="42.74314" lon="1.535">
        <ele>1839.634</ele>
        <time>2021-03-06T10:51:44Z</time>
      </trkpt>
      <trkpt lat="42.74314" lon="1.535">
        <ele>1839.638</ele>
        <time>2021-03-06T10:51:46Z</time>
      </trkpt>
      <trkpt lat="42.74314" lon="1.535">
        <ele>1839.638</ele>
        <time>2021-03-06T10:51:48Z</time>
      </trkpt>
      <trkpt lat="42.74313" lon="1.535">
        <ele>1839.632</ele>
        <time>2021-03-06T10:51:50Z</time>
      </trkpt>
      <trkpt lat="42.74313" lon="1.535">
        <ele>1839.639</ele>
        <time>2021-03-06T10:51:52Z</time>
      </trkpt>
      <trkpt lat="42.74313" lon="1.535">
        <ele>1839.639</ele>
        <time>2021-03-06T10:51:54Z</time>
      </trkpt>
      <trkpt lat="42.74314" lon="1.535">
        <ele>1839.435</ele>
        <time>2021-03-06T10:51:56Z</time>
      </trkpt>
      <trkpt lat="42.74314" lon="1.535">
        <ele>1839.434</ele>
        <time>2021-03-06T10:51:58Z</time>
      </trkpt>
      <trkpt lat="42.74314" lon="1.535">
        <ele>1839.436</ele>
        <time>2021-03-06T10:52:00Z</time>
      </trkpt>
      <trkpt lat="42.74314" lon="1.535">
        <ele>1839.434</ele>
        <time>2021-03-06T10:52:02Z</time>
      </trkpt>
      <trkpt lat="42.74314" lon="1.535">
        <ele>1839.437</ele>
        <time>2021-03-06T10:52:04Z</time>
      </trkpt>
      <trkpt lat="42.74314" lon="1.535">
        <ele>1839.439</ele>
        <time>2021-03-06T10:52:06Z</time>
      </trkpt>
      <trkpt lat="42.74314" lon="1.535">
        <ele>1839.438</ele>
        <time>2021-03-06T10:52:08Z</time>
      </trkpt>
      <trkpt lat="42.74314" lon="1.535">
        <ele>1839.44</ele>
        <time>2021-03-06T10:52:10Z</time>
      </trkpt>
      <trkpt lat="42.74312" lon="1.535">
        <ele>1839.583</ele>
        <time>2021-03-06T10:52:12Z</time>
      </trkpt>
      <trkpt lat="42.74311" lon="1.535">
        <ele>1839.89</ele>
        <time>2021-03-06T10:52:14Z</time>
      </trkpt>
      <trkpt lat="42.74309" lon="1.53499">
        <ele>1840.518</ele>
        <time>2021-03-06T10:52:16Z</time>
      </trkpt>
      <trkpt lat="42.74307" lon="1.53498">
        <ele>1841.203</ele>
        <time>2021-03-06T10:52:18Z</time>
      </trkpt>
      <trkpt lat="42.74305" lon="1.53498">
        <ele>1841.492</ele>
        <time>2021-03-06T10:52:20Z</time>
      </trkpt>
      <trkpt lat="42.74303" lon="1.53497">
        <ele>1841.667</ele>
        <time>2021-03-06T10:52:22Z</time>
      </trkpt>
      <trkpt lat="42.74301" lon="1.53497">
        <ele>1842.429</ele>
        <time>2021-03-06T10:52:24Z</time>
      </trkpt>
      <trkpt lat="42.74298" lon="1.53497">
        <ele>1842.82</ele>
        <time>2021-03-06T10:52:26Z</time>
      </trkpt>
      <trkpt lat="42.74296" lon="1.53496">
        <ele>1842.503</ele>
        <time>2021-03-06T10:52:28Z</time>
      </trkpt>
      <trkpt lat="42.74294" lon="1.53496">
        <ele>1842.824</ele>
        <time>2021-03-06T10:52:30Z</time>
      </trkpt>
      <trkpt lat="42.74292" lon="1.53496">
        <ele>1843.233</ele>
        <time>2021-03-06T10:52:32Z</time>
      </trkpt>
      <trkpt lat="42.7429" lon="1.53496">
        <ele>1843.929</ele>
        <time>2021-03-06T10:52:34Z</time>
      </trkpt>
      <trkpt lat="42.74288" lon="1.53496">
        <ele>1844.015</ele>
        <time>2021-03-06T10:52:36Z</time>
      </trkpt>
      <trkpt lat="42.74286" lon="1.53496">
        <ele>1844.21</ele>
        <time>2021-03-06T10:52:38Z</time>
      </trkpt>
      <trkpt lat="42.74284" lon="1.53496">
        <ele>1844.302</ele>
        <time>2021-03-06T10:52:40Z</time>
      </trkpt>
      <trkpt lat="42.74282" lon="1.53495">
        <ele>1844.634</ele>
        <time>2021-03-06T10:52:42Z</time>
      </trkpt>
      <trkpt lat="42.7428" lon="1.53495">
        <ele>1845.513</ele>
        <time>2021-03-06T10:52:44Z</time>
      </trkpt>
      <trkpt lat="42.74278" lon="1.53495">
        <ele>1846.064</ele>
        <time>2021-03-06T10:52:46Z</time>
      </trkpt>
      <trkpt lat="42.74275" lon="1.53494">
        <ele>1846.809</ele>
        <time>2021-03-06T10:52:48Z</time>
      </trkpt>
      <trkpt lat="42.74273" lon="1.53494">
        <ele>1847.171</ele>
        <time>2021-03-06T10:52:50Z</time>
      </trkpt>
      <trkpt lat="42.74271" lon="1.53494">
        <ele>1848.007</ele>
        <time>2021-03-06T10:52:52Z</time>
      </trkpt>
      <trkpt lat="42.74269" lon="1.53493">
        <ele>1847.947</ele>
        <time>2021-03-06T10:52:54Z</time>
      </trkpt>
      <trkpt lat="42.74267" lon="1.53493">
        <ele>1847.687</ele>
        <time>2021-03-06T10:52:56Z</time>
      </trkpt>
      <trkpt lat="42.74265" lon="1.53492">
        <ele>1847.869</ele>
        <time>2021-03-06T10:52:58Z</time>
      </trkpt>
      <trkpt lat="42.74262" lon="1.53492">
        <ele>1847.487</ele>
        <time>2021-03-06T10:53:01Z</time>
      </trkpt>
      <trkpt lat="42.7426" lon="1.53491">
        <ele>1848.331</ele>
        <time>2021-03-06T10:53:03Z</time>
      </trkpt>
      <trkpt lat="42.74258" lon="1.53491">
        <ele>1848.913</ele>
        <time>2021-03-06T10:53:05Z</time>
      </trkpt>
      <trkpt lat="42.74256" lon="1.5349">
        <ele>1849.231</ele>
        <time>2021-03-06T10:53:07Z</time>
      </trkpt>
      <trkpt lat="42.74254" lon="1.5349">
        <ele>1849.094</ele>
        <time>2021-03-06T10:53:09Z</time>
      </trkpt>
      <trkpt lat="42.74252" lon="1.5349">
        <ele>1849.558</ele>
        <time>2021-03-06T10:53:11Z</time>
      </trkpt>
      <trkpt lat="42.7425" lon="1.53489">
        <ele>1849.829</ele>
        <time>2021-03-06T10:53:13Z</time>
      </trkpt>
      <trkpt lat="42.74248" lon="1.53488">
        <ele>1849.904</ele>
        <time>2021-03-06T10:53:15Z</time>
      </trkpt>
      <trkpt lat="42.74246" lon="1.53488">
        <ele>1849.926</ele>
        <time>2021-03-06T10:53:17Z</time>
      </trkpt>
      <trkpt lat="42.74244" lon="1.53487">
        <ele>1850.693</ele>
        <time>2021-03-06T10:53:19Z</time>
      </trkpt>
      <trkpt lat="42.74242" lon="1.53486">
        <ele>1851.393</ele>
        <time>2021-03-06T10:53:21Z</time>
      </trkpt>
      <trkpt lat="42.7424" lon="1.53485">
        <ele>1851.763</ele>
        <time>2021-03-06T10:53:23Z</time>
      </trkpt>
      <trkpt lat="42.74238" lon="1.53485">
        <ele>1851.282</ele>
        <time>2021-03-06T10:53:25Z</time>
      </trkpt>
      <trkpt lat="42.74237" lon="1.53484">
        <ele>1851.444</ele>
        <time>2021-03-06T10:53:27Z</time>
      </trkpt>
      <trkpt lat="42.74235" lon="1.53483">
        <ele>1851.75</ele>
        <time>2021-03-06T10:53:29Z</time>
      </trkpt>
      <trkpt lat="42.74233" lon="1.53482">
        <ele>1851.786</ele>
        <time>2021-03-06T10:53:31Z</time>
      </trkpt>
      <trkpt lat="42.74232" lon="1.53482">
        <ele>1851.835</ele>
        <time>2021-03-06T10:53:33Z</time>
      </trkpt>
      <trkpt lat="42.7423" lon="1.53481">
        <ele>1851.823</ele>
        <time>2021-03-06T10:53:35Z</time>
      </trkpt>
      <trkpt lat="42.74228" lon="1.5348">
        <ele>1852.297</ele>
        <time>2021-03-06T10:53:37Z</time>
      </trkpt>
      <trkpt lat="42.74227" lon="1.53479">
        <ele>1852.434</ele>
        <time>2021-03-06T10:53:39Z</time>
      </trkpt>
      <trkpt lat="42.74225" lon="1.53478">
        <ele>1852.518</ele>
        <time>2021-03-06T10:53:41Z</time>
      </trkpt>
      <trkpt lat="42.74223" lon="1.53477">
        <ele>1852.547</ele>
        <time>2021-03-06T10:53:43Z</time>
      </trkpt>
      <trkpt lat="42.74222" lon="1.53476">
        <ele>1852.741</ele>
        <time>2021-03-06T10:53:45Z</time>
      </trkpt>
      <trkpt lat="42.7422" lon="1.53475">
        <ele>1852.371</ele>
        <time>2021-03-06T10:53:47Z</time>
      </trkpt>
      <trkpt lat="42.74218" lon="1.53473">
        <ele>1852.815</ele>
        <time>2021-03-06T10:53:49Z</time>
      </trkpt>
      <trkpt lat="42.74216" lon="1.53472">
        <ele>1852.944</ele>
        <time>2021-03-06T10:53:51Z</time>
      </trkpt>
      <trkpt lat="42.74214" lon="1.53471">
        <ele>1853.317</ele>
        <time>2021-03-06T10:53:53Z</time>
      </trkpt>
      <trkpt lat="42.74212" lon="1.53469">
        <ele>1853.675</ele>
        <time>2021-03-06T10:53:55Z</time>
      </trkpt>
      <trkpt lat="42.7421" lon="1.53467">
        <ele>1853.718</ele>
        <time>2021-03-06T10:53:57Z</time>
      </trkpt>
      <trkpt lat="42.74207" lon="1.53466">
        <ele>1853.761</ele>
        <time>2021-03-06T10:53:59Z</time>
      </trkpt>
      <trkpt lat="42.74205" lon="1.53464">
        <ele>1853.923</ele>
        <time>2021-03-06T10:54:01Z</time>
      </trkpt>
      <trkpt lat="42.74203" lon="1.53463">
        <ele>1854.032</ele>
        <time>2021-03-06T10:54:03Z</time>
      </trkpt>
      <trkpt lat="42.74202" lon="1.53462">
        <ele>1854.087</ele>
        <time>2021-03-06T10:54:05Z</time>
      </trkpt>
      <trkpt lat="42.74199" lon="1.5346">
        <ele>1854.95</ele>
        <time>2021-03-06T10:54:07Z</time>
      </trkpt>
      <trkpt lat="42.74197" lon="1.53459">
        <ele>1855.214</ele>
        <time>2021-03-06T10:54:09Z</time>
      </trkpt>
      <trkpt lat="42.74195" lon="1.53458">
        <ele>1855.277</ele>
        <time>2021-03-06T10:54:11Z</time>
      </trkpt>
      <trkpt lat="42.74193" lon="1.53457">
        <ele>1855.447</ele>
        <time>2021-03-06T10:54:13Z</time>
      </trkpt>
      <trkpt lat="42.74191" lon="1.53455">
        <ele>1855.506</ele>
        <time>2021-03-06T10:54:15Z</time>
      </trkpt>
      <trkpt lat="42.74189" lon="1.53454">
        <ele>1855.676</ele>
        <time>2021-03-06T10:54:17Z</time>
      </trkpt>
      <trkpt lat="42.74186" lon="1.53453">
        <ele>1855.671</ele>
        <time>2021-03-06T10:54:19Z</time>
      </trkpt>
      <trkpt lat="42.74184" lon="1.53451">
        <ele>1855.556</ele>
        <time>2021-03-06T10:54:21Z</time>
      </trkpt>
      <trkpt lat="42.74182" lon="1.5345">
        <ele>1855.439</ele>
        <time>2021-03-06T10:54:23Z</time>
      </trkpt>
      <trkpt lat="42.7418" lon="1.53449">
        <ele>1855.836</ele>
        <time>2021-03-06T10:54:25Z</time>
      </trkpt>
      <trkpt lat="42.74178" lon="1.53448">
        <ele>1855.856</ele>
        <time>2021-03-06T10:54:27Z</time>
      </trkpt>
      <trkpt lat="42.74176" lon="1.53446">
        <ele>1855.631</ele>
        <time>2021-03-06T10:54:29Z</time>
      </trkpt>
      <trkpt lat="42.74174" lon="1.53445">
        <ele>1856.027</ele>
        <time>2021-03-06T10:54:31Z</time>
      </trkpt>
      <trkpt lat="42.74171" lon="1.53444">
        <ele>1856.968</ele>
        <time>2021-03-06T10:54:33Z</time>
      </trkpt>
      <trkpt lat="42.74169" lon="1.53442">
        <ele>1857.271</ele>
        <time>2021-03-06T10:54:35Z</time>
      </trkpt>
      <trkpt lat="42.74167" lon="1.53441">
        <ele>1857.437</ele>
        <time>2021-03-06T10:54:37Z</time>
      </trkpt>
      <trkpt lat="42.74165" lon="1.5344">
        <ele>1857.475</ele>
        <time>2021-03-06T10:54:39Z</time>
      </trkpt>
      <trkpt lat="42.74164" lon="1.53438">
        <ele>1857.677</ele>
        <time>2021-03-06T10:54:41Z</time>
      </trkpt>
      <trkpt lat="42.74162" lon="1.53437">
        <ele>1858.081</ele>
        <time>2021-03-06T10:54:43Z</time>
      </trkpt>
      <trkpt lat="42.7416" lon="1.53436">
        <ele>1858.16</ele>
        <time>2021-03-06T10:54:45Z</time>
      </trkpt>
      <trkpt lat="42.74158" lon="1.53435">
        <ele>1858.216</ele>
        <time>2021-03-06T10:54:47Z</time>
      </trkpt>
      <trkpt lat="42.74156" lon="1.53434">
        <ele>1858.226</ele>
        <time>2021-03-06T10:54:49Z</time>
      </trkpt>
      <trkpt lat="42.74154" lon="1.53433">
        <ele>1858.685</ele>
        <time>2021-03-06T10:54:51Z</time>
      </trkpt>
      <trkpt lat="42.74151" lon="1.53432">
        <ele>1859.218</ele>
        <time>2021-03-06T10:54:53Z</time>
      </trkpt>
      <trkpt lat="42.74149" lon="1.53431">
        <ele>1859.993</ele>
        <time>2021-03-06T10:54:55Z</time>
      </trkpt>
      <trkpt lat="42.74147" lon="1.53429">
        <ele>1860.15</ele>
        <time>2021-03-06T10:54:57Z</time>
      </trkpt>
      <trkpt lat="42.74145" lon="1.53428">
        <ele>1860.071</ele>
        <time>2021-03-06T10:54:59Z</time>
      </trkpt>
      <trkpt lat="42.74143" lon="1.53427">
        <ele>1860.084</ele>
        <time>2021-03-06T10:55:01Z</time>
      </trkpt>
      <trkpt lat="42.74141" lon="1.53426">
        <ele>1860.442</ele>
        <time>2021-03-06T10:55:03Z</time>
      </trkpt>
      <trkpt lat="42.74139" lon="1.53425">
        <ele>1860.318</ele>
        <time>2021-03-06T10:55:05Z</time>
      </trkpt>
      <trkpt lat="42.74137" lon="1.53423">
        <ele>1860.511</ele>
        <time>2021-03-06T10:55:07Z</time>
      </trkpt>
      <trkpt lat="42.74135" lon="1.53422">
        <ele>1860.712</ele>
        <time>2021-03-06T10:55:09Z</time>
      </trkpt>
      <trkpt lat="42.74133" lon="1.53421">
        <ele>1860.494</ele>
        <time>2021-03-06T10:55:11Z</time>
      </trkpt>
      <trkpt lat="42.74131" lon="1.5342">
        <ele>1861.139</ele>
        <time>2021-03-06T10:55:13Z</time>
      </trkpt>
      <trkpt lat="42.74129" lon="1.53419">
        <ele>1860.828</ele>
        <time>2021-03-06T10:55:15Z</time>
      </trkpt>
      <trkpt lat="42.74127" lon="1.53418">
        <ele>1861.435</ele>
        <time>2021-03-06T10:55:17Z</time>
      </trkpt>
      <trkpt lat="42.74125" lon="1.53417">
        <ele>1861.503</ele>
        <time>2021-03-06T10:55:19Z</time>
      </trkpt>
      <trkpt lat="42.74123" lon="1.53416">
        <ele>1861.74</ele>
        <time>2021-03-06T10:55:21Z</time>
      </trkpt>
      <trkpt lat="42.74121" lon="1.53416">
        <ele>1862.103</ele>
        <time>2021-03-06T10:55:23Z</time>
      </trkpt>
      <trkpt lat="42.74119" lon="1.53415">
        <ele>1862.44</ele>
        <time>2021-03-06T10:55:25Z</time>
      </trkpt>
      <trkpt lat="42.74117" lon="1.53414">
        <ele>1863.503</ele>
        <time>2021-03-06T10:55:27Z</time>
      </trkpt>
      <trkpt lat="42.74116" lon="1.53414">
        <ele>1863.874</ele>
        <time>2021-03-06T10:55:29Z</time>
      </trkpt>
      <trkpt lat="42.74113" lon="1.53413">
        <ele>1864.474</ele>
        <time>2021-03-06T10:55:31Z</time>
      </trkpt>
      <trkpt lat="42.74111" lon="1.53413">
        <ele>1864.951</ele>
        <time>2021-03-06T10:55:33Z</time>
      </trkpt>
      <trkpt lat="42.7411" lon="1.53412">
        <ele>1864.651</ele>
        <time>2021-03-06T10:55:35Z</time>
      </trkpt>
      <trkpt lat="42.74108" lon="1.53411">
        <ele>1865.279</ele>
        <time>2021-03-06T10:55:37Z</time>
      </trkpt>
      <trkpt lat="42.74106" lon="1.53411">
        <ele>1865.676</ele>
        <time>2021-03-06T10:55:39Z</time>
      </trkpt>
      <trkpt lat="42.74104" lon="1.5341">
        <ele>1866.138</ele>
        <time>2021-03-06T10:55:41Z</time>
      </trkpt>
      <trkpt lat="42.74102" lon="1.5341">
        <ele>1866.203</ele>
        <time>2021-03-06T10:55:43Z</time>
      </trkpt>
      <trkpt lat="42.741" lon="1.53409">
        <ele>1866.256</ele>
        <time>2021-03-06T10:55:45Z</time>
      </trkpt>
      <trkpt lat="42.74098" lon="1.53409">
        <ele>1866.399</ele>
        <time>2021-03-06T10:55:47Z</time>
      </trkpt>
      <trkpt lat="42.74096" lon="1.53408">
        <ele>1866.595</ele>
        <time>2021-03-06T10:55:49Z</time>
      </trkpt>
      <trkpt lat="42.74095" lon="1.53408">
        <ele>1866.815</ele>
        <time>2021-03-06T10:55:50Z</time>
      </trkpt>
      <trkpt lat="42.74093" lon="1.53408">
        <ele>1867.31</ele>
        <time>2021-03-06T10:55:52Z</time>
      </trkpt>
      <trkpt lat="42.74091" lon="1.53407">
        <ele>1867.611</ele>
        <time>2021-03-06T10:55:55Z</time>
      </trkpt>
      <trkpt lat="42.74088" lon="1.53406">
        <ele>1868.052</ele>
        <time>2021-03-06T10:55:58Z</time>
      </trkpt>
      <trkpt lat="42.74086" lon="1.53406">
        <ele>1868.58</ele>
        <time>2021-03-06T10:56:00Z</time>
      </trkpt>
      <trkpt lat="42.74084" lon="1.53405">
        <ele>1869.007</ele>
        <time>2021-03-06T10:56:02Z</time>
      </trkpt>
      <trkpt lat="42.74082" lon="1.53405">
        <ele>1869.268</ele>
        <time>2021-03-06T10:56:04Z</time>
      </trkpt>
      <trkpt lat="42.7408" lon="1.53404">
        <ele>1869.256</ele>
        <time>2021-03-06T10:56:06Z</time>
      </trkpt>
      <trkpt lat="42.74078" lon="1.53403">
        <ele>1869.789</ele>
        <time>2021-03-06T10:56:08Z</time>
      </trkpt>
      <trkpt lat="42.74076" lon="1.53403">
        <ele>1869.44</ele>
        <time>2021-03-06T10:56:10Z</time>
      </trkpt>
      <trkpt lat="42.74075" lon="1.53402">
        <ele>1869.689</ele>
        <time>2021-03-06T10:56:12Z</time>
      </trkpt>
      <trkpt lat="42.74073" lon="1.53401">
        <ele>1870.153</ele>
        <time>2021-03-06T10:56:14Z</time>
      </trkpt>
      <trkpt lat="42.74071" lon="1.53401">
        <ele>1870.95</ele>
        <time>2021-03-06T10:56:16Z</time>
      </trkpt>
      <trkpt lat="42.7407" lon="1.534">
        <ele>1872.101</ele>
        <time>2021-03-06T10:56:18Z</time>
      </trkpt>
      <trkpt lat="42.74068" lon="1.53399">
        <ele>1872.766</ele>
        <time>2021-03-06T10:56:20Z</time>
      </trkpt>
      <trkpt lat="42.74066" lon="1.53399">
        <ele>1873.028</ele>
        <time>2021-03-06T10:56:22Z</time>
      </trkpt>
      <trkpt lat="42.74065" lon="1.53398">
        <ele>1873.469</ele>
        <time>2021-03-06T10:56:24Z</time>
      </trkpt>
      <trkpt lat="42.74063" lon="1.53398">
        <ele>1873.9</ele>
        <time>2021-03-06T10:56:26Z</time>
      </trkpt>
      <trkpt lat="42.74061" lon="1.53397">
        <ele>1874.293</ele>
        <time>2021-03-06T10:56:28Z</time>
      </trkpt>
      <trkpt lat="42.7406" lon="1.53396">
        <ele>1874.554</ele>
        <time>2021-03-06T10:56:30Z</time>
      </trkpt>
      <trkpt lat="42.74058" lon="1.53396">
        <ele>1874.715</ele>
        <time>2021-03-06T10:56:32Z</time>
      </trkpt>
      <trkpt lat="42.74056" lon="1.53395">
        <ele>1874.615</ele>
        <time>2021-03-06T10:56:34Z</time>
      </trkpt>
      <trkpt lat="42.74054" lon="1.53394">
        <ele>1874.305</ele>
        <time>2021-03-06T10:56:37Z</time>
      </trkpt>
      <trkpt lat="42.74052" lon="1.53394">
        <ele>1873.951</ele>
        <time>2021-03-06T10:56:39Z</time>
      </trkpt>
      <trkpt lat="42.7405" lon="1.53393">
        <ele>1874.164</ele>
        <time>2021-03-06T10:56:41Z</time>
      </trkpt>
      <trkpt lat="42.74048" lon="1.53392">
        <ele>1874.147</ele>
        <time>2021-03-06T10:56:43Z</time>
      </trkpt>
      <trkpt lat="42.74046" lon="1.53391">
        <ele>1874.248</ele>
        <time>2021-03-06T10:56:45Z</time>
      </trkpt>
      <trkpt lat="42.74044" lon="1.5339">
        <ele>1873.864</ele>
        <time>2021-03-06T10:56:47Z</time>
      </trkpt>
      <trkpt lat="42.74042" lon="1.5339">
        <ele>1874.343</ele>
        <time>2021-03-06T10:56:49Z</time>
      </trkpt>
      <trkpt lat="42.74041" lon="1.53389">
        <ele>1875.097</ele>
        <time>2021-03-06T10:56:51Z</time>
      </trkpt>
      <trkpt lat="42.74039" lon="1.53388">
        <ele>1874.932</ele>
        <time>2021-03-06T10:56:53Z</time>
      </trkpt>
      <trkpt lat="42.74037" lon="1.53388">
        <ele>1875.155</ele>
        <time>2021-03-06T10:56:55Z</time>
      </trkpt>
      <trkpt lat="42.74035" lon="1.53388">
        <ele>1874.953</ele>
        <time>2021-03-06T10:56:57Z</time>
      </trkpt>
      <trkpt lat="42.74034" lon="1.53387">
        <ele>1874.984</ele>
        <time>2021-03-06T10:56:59Z</time>
      </trkpt>
      <trkpt lat="42.74032" lon="1.53387">
        <ele>1875.407</ele>
        <time>2021-03-06T10:57:01Z</time>
      </trkpt>
      <trkpt lat="42.7403" lon="1.53386">
        <ele>1875.539</ele>
        <time>2021-03-06T10:57:03Z</time>
      </trkpt>
      <trkpt lat="42.74031" lon="1.53386">
        <ele>1875.9</ele>
        <time>2021-03-06T10:57:05Z</time>
      </trkpt>
      <trkpt lat="42.74031" lon="1.53386">
        <ele>1875.367</ele>
        <time>2021-03-06T10:57:07Z</time>
      </trkpt>
      <trkpt lat="42.7403" lon="1.53386">
        <ele>1875.33</ele>
        <time>2021-03-06T10:57:09Z</time>
      </trkpt>
      <trkpt lat="42.7403" lon="1.53386">
        <ele>1875.321</ele>
        <time>2021-03-06T10:57:11Z</time>
      </trkpt>
      <trkpt lat="42.7403" lon="1.53386">
        <ele>1875.411</ele>
        <time>2021-03-06T10:57:13Z</time>
      </trkpt>
      <trkpt lat="42.74029" lon="1.53386">
        <ele>1876.004</ele>
        <time>2021-03-06T10:57:15Z</time>
      </trkpt>
      <trkpt lat="42.74027" lon="1.53386">
        <ele>1876.466</ele>
        <time>2021-03-06T10:57:17Z</time>
      </trkpt>
      <trkpt lat="42.74026" lon="1.53386">
        <ele>1876.439</ele>
        <time>2021-03-06T10:57:19Z</time>
      </trkpt>
      <trkpt lat="42.74024" lon="1.53386">
        <ele>1876.472</ele>
        <time>2021-03-06T10:57:21Z</time>
      </trkpt>
      <trkpt lat="42.74023" lon="1.53386">
        <ele>1876.891</ele>
        <time>2021-03-06T10:57:23Z</time>
      </trkpt>
      <trkpt lat="42.74021" lon="1.53387">
        <ele>1877.044</ele>
        <time>2021-03-06T10:57:25Z</time>
      </trkpt>
      <trkpt lat="42.7402" lon="1.53387">
        <ele>1877.838</ele>
        <time>2021-03-06T10:57:27Z</time>
      </trkpt>
      <trkpt lat="42.74018" lon="1.53388">
        <ele>1877.964</ele>
        <time>2021-03-06T10:57:29Z</time>
      </trkpt>
      <trkpt lat="42.74016" lon="1.53388">
        <ele>1878.5</ele>
        <time>2021-03-06T10:57:31Z</time>
      </trkpt>
      <trkpt lat="42.74015" lon="1.53388">
        <ele>1878.817</ele>
        <time>2021-03-06T10:57:33Z</time>
      </trkpt>
      <trkpt lat="42.74013" lon="1.53388">
        <ele>1879.318</ele>
        <time>2021-03-06T10:57:35Z</time>
      </trkpt>
      <trkpt lat="42.74011" lon="1.53389">
        <ele>1879.582</ele>
        <time>2021-03-06T10:57:37Z</time>
      </trkpt>
      <trkpt lat="42.7401" lon="1.53389">
        <ele>1879.817</ele>
        <time>2021-03-06T10:57:39Z</time>
      </trkpt>
      <trkpt lat="42.74008" lon="1.53389">
        <ele>1879.881</ele>
        <time>2021-03-06T10:57:41Z</time>
      </trkpt>
      <trkpt lat="42.74006" lon="1.53389">
        <ele>1879.964</ele>
        <time>2021-03-06T10:57:43Z</time>
      </trkpt>
      <trkpt lat="42.74005" lon="1.53389">
        <ele>1880.49</ele>
        <time>2021-03-06T10:57:45Z</time>
      </trkpt>
      <trkpt lat="42.74004" lon="1.53388">
        <ele>1880.82</ele>
        <time>2021-03-06T10:57:47Z</time>
      </trkpt>
      <trkpt lat="42.74002" lon="1.53386">
        <ele>1881.119</ele>
        <time>2021-03-06T10:57:49Z</time>
      </trkpt>
      <trkpt lat="42.74001" lon="1.53388">
        <ele>1881.119</ele>
        <time>2021-03-06T10:57:51Z</time>
      </trkpt>
      <trkpt lat="42.73999" lon="1.53388">
        <ele>1881.025</ele>
        <time>2021-03-06T10:57:53Z</time>
      </trkpt>
      <trkpt lat="42.73998" lon="1.53388">
        <ele>1881.018</ele>
        <time>2021-03-06T10:57:55Z</time>
      </trkpt>
      <trkpt lat="42.73997" lon="1.53388">
        <ele>1880.703</ele>
        <time>2021-03-06T10:57:57Z</time>
      </trkpt>
      <trkpt lat="42.73995" lon="1.53388">
        <ele>1881.13</ele>
        <time>2021-03-06T10:57:59Z</time>
      </trkpt>
      <trkpt lat="42.73993" lon="1.53388">
        <ele>1881.033</ele>
        <time>2021-03-06T10:58:01Z</time>
      </trkpt>
      <trkpt lat="42.73992" lon="1.53387">
        <ele>1880.697</ele>
        <time>2021-03-06T10:58:03Z</time>
      </trkpt>
      <trkpt lat="42.7399" lon="1.53387">
        <ele>1881.019</ele>
        <time>2021-03-06T10:58:05Z</time>
      </trkpt>
      <trkpt lat="42.73988" lon="1.53387">
        <ele>1880.956</ele>
        <time>2021-03-06T10:58:07Z</time>
      </trkpt>
      <trkpt lat="42.73987" lon="1.53387">
        <ele>1881.539</ele>
        <time>2021-03-06T10:58:09Z</time>
      </trkpt>
      <trkpt lat="42.73985" lon="1.53387">
        <ele>1881.828</ele>
        <time>2021-03-06T10:58:11Z</time>
      </trkpt>
      <trkpt lat="42.73984" lon="1.53387">
        <ele>1882.714</ele>
        <time>2021-03-06T10:58:13Z</time>
      </trkpt>
      <trkpt lat="42.73983" lon="1.53388">
        <ele>1883.049</ele>
        <time>2021-03-06T10:58:15Z</time>
      </trkpt>
      <trkpt lat="42.73981" lon="1.53387">
        <ele>1883.649</ele>
        <time>2021-03-06T10:58:17Z</time>
      </trkpt>
      <trkpt lat="42.7398" lon="1.53387">
        <ele>1883.942</ele>
        <time>2021-03-06T10:58:19Z</time>
      </trkpt>
      <trkpt lat="42.73979" lon="1.53387">
        <ele>1883.661</ele>
        <time>2021-03-06T10:58:21Z</time>
      </trkpt>
      <trkpt lat="42.73977" lon="1.53387">
        <ele>1883.935</ele>
        <time>2021-03-06T10:58:23Z</time>
      </trkpt>
      <trkpt lat="42.73976" lon="1.53386">
        <ele>1884.095</ele>
        <time>2021-03-06T10:58:25Z</time>
      </trkpt>
      <trkpt lat="42.73974" lon="1.53387">
        <ele>1883.888</ele>
        <time>2021-03-06T10:58:27Z</time>
      </trkpt>
      <trkpt lat="42.73972" lon="1.53387">
        <ele>1884.315</ele>
        <time>2021-03-06T10:58:29Z</time>
      </trkpt>
      <trkpt lat="42.7397" lon="1.53387">
        <ele>1884.984</ele>
        <time>2021-03-06T10:58:31Z</time>
      </trkpt>
      <trkpt lat="42.73969" lon="1.53387">
        <ele>1885.267</ele>
        <time>2021-03-06T10:58:33Z</time>
      </trkpt>
      <trkpt lat="42.73967" lon="1.53387">
        <ele>1885.426</ele>
        <time>2021-03-06T10:58:35Z</time>
      </trkpt>
      <trkpt lat="42.73966" lon="1.53387">
        <ele>1885.633</ele>
        <time>2021-03-06T10:58:37Z</time>
      </trkpt>
      <trkpt lat="42.73964" lon="1.53387">
        <ele>1886.194</ele>
        <time>2021-03-06T10:58:39Z</time>
      </trkpt>
      <trkpt lat="42.73962" lon="1.53386">
        <ele>1886.654</ele>
        <time>2021-03-06T10:58:41Z</time>
      </trkpt>
      <trkpt lat="42.73961" lon="1.53386">
        <ele>1886.898</ele>
        <time>2021-03-06T10:58:43Z</time>
      </trkpt>
      <trkpt lat="42.73959" lon="1.53386">
        <ele>1887.596</ele>
        <time>2021-03-06T10:58:45Z</time>
      </trkpt>
      <trkpt lat="42.73958" lon="1.53386">
        <ele>1887.857</ele>
        <time>2021-03-06T10:58:47Z</time>
      </trkpt>
      <trkpt lat="42.73956" lon="1.53385">
        <ele>1888.319</ele>
        <time>2021-03-06T10:58:49Z</time>
      </trkpt>
      <trkpt lat="42.73955" lon="1.53385">
        <ele>1888.451</ele>
        <time>2021-03-06T10:58:51Z</time>
      </trkpt>
      <trkpt lat="42.73953" lon="1.53385">
        <ele>1888.766</ele>
        <time>2021-03-06T10:58:53Z</time>
      </trkpt>
      <trkpt lat="42.73952" lon="1.53385">
        <ele>1888.799</ele>
        <time>2021-03-06T10:58:55Z</time>
      </trkpt>
      <trkpt lat="42.73951" lon="1.53384">
        <ele>1888.275</ele>
        <time>2021-03-06T10:58:56Z</time>
      </trkpt>
      <trkpt lat="42.73948" lon="1.53384">
        <ele>1888.283</ele>
        <time>2021-03-06T10:59:02Z</time>
      </trkpt>
      <trkpt lat="42.73948" lon="1.53384">
        <ele>1887.838</ele>
        <time>2021-03-06T10:59:04Z</time>
      </trkpt>
      <trkpt lat="42.73947" lon="1.53383">
        <ele>1888.247</ele>
        <time>2021-03-06T10:59:06Z</time>
      </trkpt>
      <trkpt lat="42.73946" lon="1.53383">
        <ele>1888.249</ele>
        <time>2021-03-06T10:59:08Z</time>
      </trkpt>
      <trkpt lat="42.73946" lon="1.53383">
        <ele>1888.22</ele>
        <time>2021-03-06T10:59:10Z</time>
      </trkpt>
      <trkpt lat="42.73946" lon="1.53383">
        <ele>1888.222</ele>
        <time>2021-03-06T10:59:12Z</time>
      </trkpt>
      <trkpt lat="42.73946" lon="1.53383">
        <ele>1888.226</ele>
        <time>2021-03-06T10:59:14Z</time>
      </trkpt>
      <trkpt lat="42.73946" lon="1.53383">
        <ele>1888.224</ele>
        <time>2021-03-06T10:59:16Z</time>
      </trkpt>
      <trkpt lat="42.73946" lon="1.53383">
        <ele>1888.225</ele>
        <time>2021-03-06T10:59:18Z</time>
      </trkpt>
      <trkpt lat="42.73946" lon="1.53383">
        <ele>1888.222</ele>
        <time>2021-03-06T10:59:20Z</time>
      </trkpt>
      <trkpt lat="42.73946" lon="1.53383">
        <ele>1888.222</ele>
        <time>2021-03-06T10:59:22Z</time>
      </trkpt>
      <trkpt lat="42.73946" lon="1.53383">
        <ele>1888.223</ele>
        <time>2021-03-06T10:59:24Z</time>
      </trkpt>
      <trkpt lat="42.73945" lon="1.53383">
        <ele>1887.883</ele>
        <time>2021-03-06T10:59:26Z</time>
      </trkpt>
      <trkpt lat="42.73945" lon="1.53383">
        <ele>1888.563</ele>
        <time>2021-03-06T10:59:28Z</time>
      </trkpt>
      <trkpt lat="42.73944" lon="1.53382">
        <ele>1888.582</ele>
        <time>2021-03-06T10:59:30Z</time>
      </trkpt>
      <trkpt lat="42.73942" lon="1.53381">
        <ele>1889.242</ele>
        <time>2021-03-06T10:59:32Z</time>
      </trkpt>
      <trkpt lat="42.73942" lon="1.5338">
        <ele>1889.943</ele>
        <time>2021-03-06T10:59:34Z</time>
      </trkpt>
      <trkpt lat="42.7394" lon="1.5338">
        <ele>1890.293</ele>
        <time>2021-03-06T10:59:36Z</time>
      </trkpt>
      <trkpt lat="42.73939" lon="1.53379">
        <ele>1890.607</ele>
        <time>2021-03-06T10:59:38Z</time>
      </trkpt>
      <trkpt lat="42.73938" lon="1.53378">
        <ele>1890.934</ele>
        <time>2021-03-06T10:59:40Z</time>
      </trkpt>
      <trkpt lat="42.73937" lon="1.53378">
        <ele>1891.476</ele>
        <time>2021-03-06T10:59:42Z</time>
      </trkpt>
      <trkpt lat="42.73935" lon="1.53377">
        <ele>1891.356</ele>
        <time>2021-03-06T10:59:44Z</time>
      </trkpt>
      <trkpt lat="42.73934" lon="1.53376">
        <ele>1891.733</ele>
        <time>2021-03-06T10:59:46Z</time>
      </trkpt>
      <trkpt lat="42.73933" lon="1.53374">
        <ele>1891.439</ele>
        <time>2021-03-06T10:59:48Z</time>
      </trkpt>
      <trkpt lat="42.73932" lon="1.53373">
        <ele>1891.875</ele>
        <time>2021-03-06T10:59:50Z</time>
      </trkpt>
      <trkpt lat="42.73932" lon="1.53372">
        <ele>1891.443</ele>
        <time>2021-03-06T10:59:52Z</time>
      </trkpt>
      <trkpt lat="42.73931" lon="1.53371">
        <ele>1891.437</ele>
        <time>2021-03-06T10:59:54Z</time>
      </trkpt>
      <trkpt lat="42.7393" lon="1.5337">
        <ele>1891.495</ele>
        <time>2021-03-06T10:59:56Z</time>
      </trkpt>
      <trkpt lat="42.73929" lon="1.53369">
        <ele>1891.527</ele>
        <time>2021-03-06T10:59:58Z</time>
      </trkpt>
      <trkpt lat="42.73929" lon="1.53367">
        <ele>1892.221</ele>
        <time>2021-03-06T11:00:00Z</time>
      </trkpt>
      <trkpt lat="42.73929" lon="1.53365">
        <ele>1891.942</ele>
        <time>2021-03-06T11:00:02Z</time>
      </trkpt>
      <trkpt lat="42.73929" lon="1.53365">
        <ele>1892.981</ele>
        <time>2021-03-06T11:00:04Z</time>
      </trkpt>
      <trkpt lat="42.73929" lon="1.53364">
        <ele>1893.45</ele>
        <time>2021-03-06T11:00:06Z</time>
      </trkpt>
      <trkpt lat="42.73929" lon="1.53363">
        <ele>1894.258</ele>
        <time>2021-03-06T11:00:08Z</time>
      </trkpt>
      <trkpt lat="42.73929" lon="1.53362">
        <ele>1893.882</ele>
        <time>2021-03-06T11:00:10Z</time>
      </trkpt>
      <trkpt lat="42.73929" lon="1.53362">
        <ele>1894.727</ele>
        <time>2021-03-06T11:00:12Z</time>
      </trkpt>
      <trkpt lat="42.73928" lon="1.53361">
        <ele>1895.142</ele>
        <time>2021-03-06T11:00:14Z</time>
      </trkpt>
      <trkpt lat="42.73928" lon="1.5336">
        <ele>1895.071</ele>
        <time>2021-03-06T11:00:16Z</time>
      </trkpt>
      <trkpt lat="42.73928" lon="1.53359">
        <ele>1895.539</ele>
        <time>2021-03-06T11:00:18Z</time>
      </trkpt>
      <trkpt lat="42.73929" lon="1.53358">
        <ele>1896.329</ele>
        <time>2021-03-06T11:00:20Z</time>
      </trkpt>
      <trkpt lat="42.73929" lon="1.53358">
        <ele>1896.629</ele>
        <time>2021-03-06T11:00:22Z</time>
      </trkpt>
      <trkpt lat="42.73929" lon="1.53357">
        <ele>1897.219</ele>
        <time>2021-03-06T11:00:24Z</time>
      </trkpt>
      <trkpt lat="42.73929" lon="1.53355">
        <ele>1898</ele>
        <time>2021-03-06T11:00:26Z</time>
      </trkpt>
      <trkpt lat="42.73929" lon="1.53354">
        <ele>1897.99</ele>
        <time>2021-03-06T11:00:28Z</time>
      </trkpt>
      <trkpt lat="42.73929" lon="1.53354">
        <ele>1898.429</ele>
        <time>2021-03-06T11:00:30Z</time>
      </trkpt>
      <trkpt lat="42.73929" lon="1.53353">
        <ele>1898.555</ele>
        <time>2021-03-06T11:00:32Z</time>
      </trkpt>
      <trkpt lat="42.73928" lon="1.53351">
        <ele>1899.262</ele>
        <time>2021-03-06T11:00:34Z</time>
      </trkpt>
      <trkpt lat="42.73928" lon="1.53352">
        <ele>1899.629</ele>
        <time>2021-03-06T11:00:36Z</time>
      </trkpt>
      <trkpt lat="42.73928" lon="1.53351">
        <ele>1900.044</ele>
        <time>2021-03-06T11:00:38Z</time>
      </trkpt>
      <trkpt lat="42.73928" lon="1.53351">
        <ele>1900.132</ele>
        <time>2021-03-06T11:00:40Z</time>
      </trkpt>
      <trkpt lat="42.73928" lon="1.5335">
        <ele>1900.195</ele>
        <time>2021-03-06T11:00:42Z</time>
      </trkpt>
      <trkpt lat="42.73928" lon="1.53349">
        <ele>1900.166</ele>
        <time>2021-03-06T11:00:44Z</time>
      </trkpt>
      <trkpt lat="42.73928" lon="1.53348">
        <ele>1900.689</ele>
        <time>2021-03-06T11:00:46Z</time>
      </trkpt>
      <trkpt lat="42.73927" lon="1.53347">
        <ele>1899.835</ele>
        <time>2021-03-06T11:00:48Z</time>
      </trkpt>
      <trkpt lat="42.73927" lon="1.53348">
        <ele>1899.949</ele>
        <time>2021-03-06T11:00:50Z</time>
      </trkpt>
      <trkpt lat="42.73927" lon="1.53348">
        <ele>1901.02</ele>
        <time>2021-03-06T11:00:52Z</time>
      </trkpt>
      <trkpt lat="42.73926" lon="1.53347">
        <ele>1901.625</ele>
        <time>2021-03-06T11:00:54Z</time>
      </trkpt>
      <trkpt lat="42.73925" lon="1.53347">
        <ele>1902.487</ele>
        <time>2021-03-06T11:00:56Z</time>
      </trkpt>
      <trkpt lat="42.73925" lon="1.53346">
        <ele>1903.8</ele>
        <time>2021-03-06T11:00:58Z</time>
      </trkpt>
      <trkpt lat="42.73925" lon="1.53346">
        <ele>1904.177</ele>
        <time>2021-03-06T11:01:00Z</time>
      </trkpt>
      <trkpt lat="42.73924" lon="1.53345">
        <ele>1904.527</ele>
        <time>2021-03-06T11:01:02Z</time>
      </trkpt>
      <trkpt lat="42.73924" lon="1.53345">
        <ele>1905.087</ele>
        <time>2021-03-06T11:01:04Z</time>
      </trkpt>
      <trkpt lat="42.73924" lon="1.53345">
        <ele>1905.079</ele>
        <time>2021-03-06T11:01:06Z</time>
      </trkpt>
      <trkpt lat="42.73924" lon="1.53345">
        <ele>1905.087</ele>
        <time>2021-03-06T11:01:08Z</time>
      </trkpt>
      <trkpt lat="42.73924" lon="1.53345">
        <ele>1905.079</ele>
        <time>2021-03-06T11:01:10Z</time>
      </trkpt>
      <trkpt lat="42.73924" lon="1.53345">
        <ele>1905.065</ele>
        <time>2021-03-06T11:01:12Z</time>
      </trkpt>
      <trkpt lat="42.73924" lon="1.53345">
        <ele>1904.728</ele>
        <time>2021-03-06T11:01:14Z</time>
      </trkpt>
      <trkpt lat="42.73924" lon="1.53345">
        <ele>1904.733</ele>
        <time>2021-03-06T11:01:16Z</time>
      </trkpt>
      <trkpt lat="42.73924" lon="1.53345">
        <ele>1904.43</ele>
        <time>2021-03-06T11:01:18Z</time>
      </trkpt>
      <trkpt lat="42.73924" lon="1.53345">
        <ele>1904.934</ele>
        <time>2021-03-06T11:01:20Z</time>
      </trkpt>
      <trkpt lat="42.73922" lon="1.53346">
        <ele>1905.291</ele>
        <time>2021-03-06T11:01:22Z</time>
      </trkpt>
      <trkpt lat="42.73921" lon="1.53346">
        <ele>1905.996</ele>
        <time>2021-03-06T11:01:24Z</time>
      </trkpt>
      <trkpt lat="42.7392" lon="1.53345">
        <ele>1906.896</ele>
        <time>2021-03-06T11:01:26Z</time>
      </trkpt>
      <trkpt lat="42.7392" lon="1.53343">
        <ele>1908.18</ele>
        <time>2021-03-06T11:01:28Z</time>
      </trkpt>
      <trkpt lat="42.7392" lon="1.53342">
        <ele>1908.577</ele>
        <time>2021-03-06T11:01:30Z</time>
      </trkpt>
      <trkpt lat="42.7392" lon="1.53343">
        <ele>1908.536</ele>
        <time>2021-03-06T11:01:32Z</time>
      </trkpt>
      <trkpt lat="42.7392" lon="1.53343">
        <ele>1908.644</ele>
        <time>2021-03-06T11:01:34Z</time>
      </trkpt>
      <trkpt lat="42.7392" lon="1.53341">
        <ele>1908.571</ele>
        <time>2021-03-06T11:01:36Z</time>
      </trkpt>
      <trkpt lat="42.7392" lon="1.5334">
        <ele>1908.363</ele>
        <time>2021-03-06T11:01:38Z</time>
      </trkpt>
      <trkpt lat="42.73919" lon="1.53339">
        <ele>1908.293</ele>
        <time>2021-03-06T11:01:40Z</time>
      </trkpt>
      <trkpt lat="42.73919" lon="1.53338">
        <ele>1908.455</ele>
        <time>2021-03-06T11:01:42Z</time>
      </trkpt>
      <trkpt lat="42.73918" lon="1.53337">
        <ele>1909.088</ele>
        <time>2021-03-06T11:01:44Z</time>
      </trkpt>
      <trkpt lat="42.73917" lon="1.53337">
        <ele>1909.419</ele>
        <time>2021-03-06T11:01:46Z</time>
      </trkpt>
      <trkpt lat="42.73916" lon="1.53336">
        <ele>1910.07</ele>
        <time>2021-03-06T11:01:48Z</time>
      </trkpt>
      <trkpt lat="42.73916" lon="1.53336">
        <ele>1910.191</ele>
        <time>2021-03-06T11:01:50Z</time>
      </trkpt>
      <trkpt lat="42.73915" lon="1.53335">
        <ele>1910.544</ele>
        <time>2021-03-06T11:01:52Z</time>
      </trkpt>
      <trkpt lat="42.73915" lon="1.53333">
        <ele>1911.274</ele>
        <time>2021-03-06T11:01:54Z</time>
      </trkpt>
      <trkpt lat="42.73914" lon="1.53332">
        <ele>1911.781</ele>
        <time>2021-03-06T11:01:56Z</time>
      </trkpt>
      <trkpt lat="42.73913" lon="1.53332">
        <ele>1911.901</ele>
        <time>2021-03-06T11:01:58Z</time>
      </trkpt>
      <trkpt lat="42.73912" lon="1.53331">
        <ele>1911.637</ele>
        <time>2021-03-06T11:02:00Z</time>
      </trkpt>
      <trkpt lat="42.73912" lon="1.53329">
        <ele>1911.698</ele>
        <time>2021-03-06T11:02:02Z</time>
      </trkpt>
      <trkpt lat="42.73911" lon="1.53328">
        <ele>1911.942</ele>
        <time>2021-03-06T11:02:04Z</time>
      </trkpt>
      <trkpt lat="42.7391" lon="1.53328">
        <ele>1912.307</ele>
        <time>2021-03-06T11:02:06Z</time>
      </trkpt>
      <trkpt lat="42.73909" lon="1.53327">
        <ele>1912.898</ele>
        <time>2021-03-06T11:02:08Z</time>
      </trkpt>
      <trkpt lat="42.73909" lon="1.53325">
        <ele>1913.367</ele>
        <time>2021-03-06T11:02:10Z</time>
      </trkpt>
      <trkpt lat="42.73909" lon="1.53324">
        <ele>1913.544</ele>
        <time>2021-03-06T11:02:12Z</time>
      </trkpt>
      <trkpt lat="42.73909" lon="1.53323">
        <ele>1913.629</ele>
        <time>2021-03-06T11:02:14Z</time>
      </trkpt>
      <trkpt lat="42.73909" lon="1.53322">
        <ele>1914.122</ele>
        <time>2021-03-06T11:02:16Z</time>
      </trkpt>
      <trkpt lat="42.73908" lon="1.53321">
        <ele>1914.758</ele>
        <time>2021-03-06T11:02:18Z</time>
      </trkpt>
      <trkpt lat="42.73908" lon="1.5332">
        <ele>1915.358</ele>
        <time>2021-03-06T11:02:20Z</time>
      </trkpt>
      <trkpt lat="42.73906" lon="1.53319">
        <ele>1915.761</ele>
        <time>2021-03-06T11:02:22Z</time>
      </trkpt>
      <trkpt lat="42.73905" lon="1.53318">
        <ele>1916.708</ele>
        <time>2021-03-06T11:02:24Z</time>
      </trkpt>
      <trkpt lat="42.73904" lon="1.53317">
        <ele>1917.323</ele>
        <time>2021-03-06T11:02:26Z</time>
      </trkpt>
      <trkpt lat="42.73903" lon="1.53317">
        <ele>1917.832</ele>
        <time>2021-03-06T11:02:28Z</time>
      </trkpt>
      <trkpt lat="42.73901" lon="1.53317">
        <ele>1917.619</ele>
        <time>2021-03-06T11:02:30Z</time>
      </trkpt>
      <trkpt lat="42.739" lon="1.53316">
        <ele>1917.968</ele>
        <time>2021-03-06T11:02:32Z</time>
      </trkpt>
      <trkpt lat="42.73899" lon="1.53315">
        <ele>1918.035</ele>
        <time>2021-03-06T11:02:34Z</time>
      </trkpt>
      <trkpt lat="42.73899" lon="1.53314">
        <ele>1918.204</ele>
        <time>2021-03-06T11:02:36Z</time>
      </trkpt>
      <trkpt lat="42.73899" lon="1.53314">
        <ele>1918.207</ele>
        <time>2021-03-06T11:02:38Z</time>
      </trkpt>
      <trkpt lat="42.73898" lon="1.53314">
        <ele>1918.253</ele>
        <time>2021-03-06T11:02:40Z</time>
      </trkpt>
      <trkpt lat="42.73898" lon="1.53312">
        <ele>1918.649</ele>
        <time>2021-03-06T11:02:42Z</time>
      </trkpt>
      <trkpt lat="42.73897" lon="1.5331">
        <ele>1918.901</ele>
        <time>2021-03-06T11:02:44Z</time>
      </trkpt>
      <trkpt lat="42.73897" lon="1.53309">
        <ele>1918.781</ele>
        <time>2021-03-06T11:02:46Z</time>
      </trkpt>
      <trkpt lat="42.73896" lon="1.53307">
        <ele>1919.122</ele>
        <time>2021-03-06T11:02:48Z</time>
      </trkpt>
      <trkpt lat="42.73896" lon="1.53306">
        <ele>1919.25</ele>
        <time>2021-03-06T11:02:50Z</time>
      </trkpt>
      <trkpt lat="42.73896" lon="1.53305">
        <ele>1919.26</ele>
        <time>2021-03-06T11:02:52Z</time>
      </trkpt>
      <trkpt lat="42.73895" lon="1.53304">
        <ele>1920.044</ele>
        <time>2021-03-06T11:02:54Z</time>
      </trkpt>
      <trkpt lat="42.73895" lon="1.53302">
        <ele>1920.382</ele>
        <time>2021-03-06T11:02:56Z</time>
      </trkpt>
      <trkpt lat="42.73894" lon="1.53301">
        <ele>1920.926</ele>
        <time>2021-03-06T11:02:58Z</time>
      </trkpt>
      <trkpt lat="42.73893" lon="1.533">
        <ele>1920.952</ele>
        <time>2021-03-06T11:03:00Z</time>
      </trkpt>
      <trkpt lat="42.73893" lon="1.53299">
        <ele>1921.501</ele>
        <time>2021-03-06T11:03:02Z</time>
      </trkpt>
      <trkpt lat="42.73892" lon="1.53297">
        <ele>1921.864</ele>
        <time>2021-03-06T11:03:04Z</time>
      </trkpt>
      <trkpt lat="42.73892" lon="1.53296">
        <ele>1921.955</ele>
        <time>2021-03-06T11:03:06Z</time>
      </trkpt>
      <trkpt lat="42.73891" lon="1.53295">
        <ele>1921.978</ele>
        <time>2021-03-06T11:03:08Z</time>
      </trkpt>
      <trkpt lat="42.7389" lon="1.53294">
        <ele>1922.171</ele>
        <time>2021-03-06T11:03:10Z</time>
      </trkpt>
      <trkpt lat="42.73888" lon="1.53293">
        <ele>1922.357</ele>
        <time>2021-03-06T11:03:12Z</time>
      </trkpt>
      <trkpt lat="42.73887" lon="1.53292">
        <ele>1922.623</ele>
        <time>2021-03-06T11:03:14Z</time>
      </trkpt>
      <trkpt lat="42.73886" lon="1.53291">
        <ele>1923.092</ele>
        <time>2021-03-06T11:03:16Z</time>
      </trkpt>
      <trkpt lat="42.73885" lon="1.53289">
        <ele>1923.304</ele>
        <time>2021-03-06T11:03:18Z</time>
      </trkpt>
      <trkpt lat="42.73884" lon="1.53288">
        <ele>1923.635</ele>
        <time>2021-03-06T11:03:20Z</time>
      </trkpt>
      <trkpt lat="42.73883" lon="1.53287">
        <ele>1924.031</ele>
        <time>2021-03-06T11:03:22Z</time>
      </trkpt>
      <trkpt lat="42.73883" lon="1.53285">
        <ele>1924.311</ele>
        <time>2021-03-06T11:03:24Z</time>
      </trkpt>
      <trkpt lat="42.73882" lon="1.53284">
        <ele>1924.24</ele>
        <time>2021-03-06T11:03:26Z</time>
      </trkpt>
      <trkpt lat="42.73881" lon="1.53282">
        <ele>1924.779</ele>
        <time>2021-03-06T11:03:28Z</time>
      </trkpt>
      <trkpt lat="42.7388" lon="1.53281">
        <ele>1924.624</ele>
        <time>2021-03-06T11:03:30Z</time>
      </trkpt>
      <trkpt lat="42.73879" lon="1.5328">
        <ele>1924.483</ele>
        <time>2021-03-06T11:03:32Z</time>
      </trkpt>
      <trkpt lat="42.73878" lon="1.53279">
        <ele>1924.517</ele>
        <time>2021-03-06T11:03:34Z</time>
      </trkpt>
      <trkpt lat="42.73877" lon="1.53277">
        <ele>1924.745</ele>
        <time>2021-03-06T11:03:36Z</time>
      </trkpt>
      <trkpt lat="42.73877" lon="1.53275">
        <ele>1925.032</ele>
        <time>2021-03-06T11:03:38Z</time>
      </trkpt>
      <trkpt lat="42.73876" lon="1.53273">
        <ele>1925.895</ele>
        <time>2021-03-06T11:03:40Z</time>
      </trkpt>
      <trkpt lat="42.73875" lon="1.53272">
        <ele>1925.582</ele>
        <time>2021-03-06T11:03:42Z</time>
      </trkpt>
      <trkpt lat="42.73874" lon="1.5327">
        <ele>1925.247</ele>
        <time>2021-03-06T11:03:44Z</time>
      </trkpt>
      <trkpt lat="42.73873" lon="1.53269">
        <ele>1925.105</ele>
        <time>2021-03-06T11:03:46Z</time>
      </trkpt>
      <trkpt lat="42.73872" lon="1.53268">
        <ele>1925.086</ele>
        <time>2021-03-06T11:03:48Z</time>
      </trkpt>
      <trkpt lat="42.73872" lon="1.53267">
        <ele>1925.663</ele>
        <time>2021-03-06T11:03:50Z</time>
      </trkpt>
      <trkpt lat="42.73871" lon="1.53265">
        <ele>1926.106</ele>
        <time>2021-03-06T11:03:52Z</time>
      </trkpt>
      <trkpt lat="42.7387" lon="1.53264">
        <ele>1926.101</ele>
        <time>2021-03-06T11:03:54Z</time>
      </trkpt>
      <trkpt lat="42.7387" lon="1.53264">
        <ele>1926.105</ele>
        <time>2021-03-06T11:03:56Z</time>
      </trkpt>
      <trkpt lat="42.7387" lon="1.53264">
        <ele>1926.096</ele>
        <time>2021-03-06T11:03:58Z</time>
      </trkpt>
      <trkpt lat="42.7387" lon="1.53264">
        <ele>1926.187</ele>
        <time>2021-03-06T11:04:00Z</time>
      </trkpt>
      <trkpt lat="42.7387" lon="1.53264">
        <ele>1926.174</ele>
        <time>2021-03-06T11:04:02Z</time>
      </trkpt>
      <trkpt lat="42.7387" lon="1.53264">
        <ele>1926.167</ele>
        <time>2021-03-06T11:04:04Z</time>
      </trkpt>
      <trkpt lat="42.7387" lon="1.53263">
        <ele>1926.887</ele>
        <time>2021-03-06T11:04:06Z</time>
      </trkpt>
      <trkpt lat="42.73869" lon="1.53263">
        <ele>1927.006</ele>
        <time>2021-03-06T11:04:08Z</time>
      </trkpt>
      <trkpt lat="42.73869" lon="1.53263">
        <ele>1927.008</ele>
        <time>2021-03-06T11:04:10Z</time>
      </trkpt>
      <trkpt lat="42.73869" lon="1.53263">
        <ele>1926.744</ele>
        <time>2021-03-06T11:04:12Z</time>
      </trkpt>
      <trkpt lat="42.73869" lon="1.53263">
        <ele>1926.742</ele>
        <time>2021-03-06T11:04:14Z</time>
      </trkpt>
      <trkpt lat="42.73869" lon="1.53263">
        <ele>1926.739</ele>
        <time>2021-03-06T11:04:16Z</time>
      </trkpt>
      <trkpt lat="42.73869" lon="1.53263">
        <ele>1926.741</ele>
        <time>2021-03-06T11:04:18Z</time>
      </trkpt>
      <trkpt lat="42.73869" lon="1.53263">
        <ele>1926.738</ele>
        <time>2021-03-06T11:04:20Z</time>
      </trkpt>
      <trkpt lat="42.73869" lon="1.53263">
        <ele>1926.738</ele>
        <time>2021-03-06T11:04:22Z</time>
      </trkpt>
      <trkpt lat="42.73869" lon="1.53263">
        <ele>1926.738</ele>
        <time>2021-03-06T11:04:24Z</time>
      </trkpt>
      <trkpt lat="42.73869" lon="1.53263">
        <ele>1926.741</ele>
        <time>2021-03-06T11:04:26Z</time>
      </trkpt>
      <trkpt lat="42.73869" lon="1.53263">
        <ele>1926.744</ele>
        <time>2021-03-06T11:04:28Z</time>
      </trkpt>
      <trkpt lat="42.73869" lon="1.53263">
        <ele>1926.742</ele>
        <time>2021-03-06T11:04:30Z</time>
      </trkpt>
      <trkpt lat="42.73869" lon="1.53263">
        <ele>1926.744</ele>
        <time>2021-03-06T11:04:32Z</time>
      </trkpt>
      <trkpt lat="42.73869" lon="1.53263">
        <ele>1926.744</ele>
        <time>2021-03-06T11:04:34Z</time>
      </trkpt>
      <trkpt lat="42.73869" lon="1.53263">
        <ele>1926.692</ele>
        <time>2021-03-06T11:04:36Z</time>
      </trkpt>
      <trkpt lat="42.73869" lon="1.53263">
        <ele>1926.684</ele>
        <time>2021-03-06T11:04:38Z</time>
      </trkpt>
      <trkpt lat="42.73869" lon="1.53263">
        <ele>1926.677</ele>
        <time>2021-03-06T11:04:40Z</time>
      </trkpt>
      <trkpt lat="42.73869" lon="1.53263">
        <ele>1926.674</ele>
        <time>2021-03-06T11:04:42Z</time>
      </trkpt>
      <trkpt lat="42.73869" lon="1.53263">
        <ele>1926.669</ele>
        <time>2021-03-06T11:04:44Z</time>
      </trkpt>
      <trkpt lat="42.73869" lon="1.53263">
        <ele>1926.667</ele>
        <time>2021-03-06T11:04:46Z</time>
      </trkpt>
      <trkpt lat="42.73869" lon="1.53263">
        <ele>1926.69</ele>
        <time>2021-03-06T11:04:48Z</time>
      </trkpt>
      <trkpt lat="42.73869" lon="1.53262">
        <ele>1926.422</ele>
        <time>2021-03-06T11:04:50Z</time>
      </trkpt>
      <trkpt lat="42.73869" lon="1.53262">
        <ele>1926.628</ele>
        <time>2021-03-06T11:04:52Z</time>
      </trkpt>
      <trkpt lat="42.73869" lon="1.53262">
        <ele>1926.628</ele>
        <time>2021-03-06T11:04:54Z</time>
      </trkpt>
      <trkpt lat="42.73869" lon="1.53263">
        <ele>1926.621</ele>
        <time>2021-03-06T11:04:56Z</time>
      </trkpt>
      <trkpt lat="42.73869" lon="1.53263">
        <ele>1926.625</ele>
        <time>2021-03-06T11:04:58Z</time>
      </trkpt>
      <trkpt lat="42.73869" lon="1.53263">
        <ele>1926.626</ele>
        <time>2021-03-06T11:05:00Z</time>
      </trkpt>
      <trkpt lat="42.73869" lon="1.53263">
        <ele>1926.627</ele>
        <time>2021-03-06T11:05:02Z</time>
      </trkpt>
      <trkpt lat="42.73869" lon="1.53263">
        <ele>1926.629</ele>
        <time>2021-03-06T11:05:04Z</time>
      </trkpt>
      <trkpt lat="42.73869" lon="1.53263">
        <ele>1926.627</ele>
        <time>2021-03-06T11:05:06Z</time>
      </trkpt>
      <trkpt lat="42.7387" lon="1.53263">
        <ele>1926.466</ele>
        <time>2021-03-06T11:05:08Z</time>
      </trkpt>
      <trkpt lat="42.7387" lon="1.53262">
        <ele>1926.551</ele>
        <time>2021-03-06T11:05:10Z</time>
      </trkpt>
      <trkpt lat="42.73869" lon="1.53262">
        <ele>1926.52</ele>
        <time>2021-03-06T11:05:12Z</time>
      </trkpt>
      <trkpt lat="42.7387" lon="1.53262">
        <ele>1926.416</ele>
        <time>2021-03-06T11:05:14Z</time>
      </trkpt>
      <trkpt lat="42.7387" lon="1.53262">
        <ele>1926.627</ele>
        <time>2021-03-06T11:05:16Z</time>
      </trkpt>
      <trkpt lat="42.7387" lon="1.53262">
        <ele>1926.862</ele>
        <time>2021-03-06T11:05:18Z</time>
      </trkpt>
      <trkpt lat="42.73869" lon="1.5326">
        <ele>1927.447</ele>
        <time>2021-03-06T11:05:20Z</time>
      </trkpt>
      <trkpt lat="42.73867" lon="1.5326">
        <ele>1927.683</ele>
        <time>2021-03-06T11:05:22Z</time>
      </trkpt>
      <trkpt lat="42.73866" lon="1.53259">
        <ele>1927.496</ele>
        <time>2021-03-06T11:05:24Z</time>
      </trkpt>
      <trkpt lat="42.73865" lon="1.53258">
        <ele>1927.835</ele>
        <time>2021-03-06T11:05:26Z</time>
      </trkpt>
      <trkpt lat="42.73864" lon="1.53257">
        <ele>1927.735</ele>
        <time>2021-03-06T11:05:28Z</time>
      </trkpt>
      <trkpt lat="42.73865" lon="1.53255">
        <ele>1927.898</ele>
        <time>2021-03-06T11:05:30Z</time>
      </trkpt>
      <trkpt lat="42.73865" lon="1.53253">
        <ele>1927.946</ele>
        <time>2021-03-06T11:05:32Z</time>
      </trkpt>
      <trkpt lat="42.73866" lon="1.53253">
        <ele>1927.129</ele>
        <time>2021-03-06T11:05:34Z</time>
      </trkpt>
      <trkpt lat="42.73866" lon="1.53253">
        <ele>1927.129</ele>
        <time>2021-03-06T11:05:36Z</time>
      </trkpt>
      <trkpt lat="42.73866" lon="1.53253">
        <ele>1927.133</ele>
        <time>2021-03-06T11:05:38Z</time>
      </trkpt>
      <trkpt lat="42.73865" lon="1.53253">
        <ele>1927.481</ele>
        <time>2021-03-06T11:05:40Z</time>
      </trkpt>
      <trkpt lat="42.73865" lon="1.53253">
        <ele>1927.482</ele>
        <time>2021-03-06T11:05:42Z</time>
      </trkpt>
      <trkpt lat="42.73865" lon="1.53253">
        <ele>1927.482</ele>
        <time>2021-03-06T11:05:44Z</time>
      </trkpt>
      <trkpt lat="42.73865" lon="1.53253">
        <ele>1927.481</ele>
        <time>2021-03-06T11:05:46Z</time>
      </trkpt>
      <trkpt lat="42.73865" lon="1.53253">
        <ele>1927.478</ele>
        <time>2021-03-06T11:05:48Z</time>
      </trkpt>
      <trkpt lat="42.73865" lon="1.53253">
        <ele>1927.475</ele>
        <time>2021-03-06T11:05:50Z</time>
      </trkpt>
      <trkpt lat="42.73865" lon="1.53253">
        <ele>1927.591</ele>
        <time>2021-03-06T11:05:52Z</time>
      </trkpt>
      <trkpt lat="42.73865" lon="1.53253">
        <ele>1928.203</ele>
        <time>2021-03-06T11:05:54Z</time>
      </trkpt>
      <trkpt lat="42.73865" lon="1.53253">
        <ele>1928.207</ele>
        <time>2021-03-06T11:05:56Z</time>
      </trkpt>
      <trkpt lat="42.73865" lon="1.53253">
        <ele>1928.025</ele>
        <time>2021-03-06T11:05:58Z</time>
      </trkpt>
      <trkpt lat="42.73865" lon="1.53252">
        <ele>1927.313</ele>
        <time>2021-03-06T11:06:00Z</time>
      </trkpt>
      <trkpt lat="42.73865" lon="1.53252">
        <ele>1927.673</ele>
        <time>2021-03-06T11:06:02Z</time>
      </trkpt>
      <trkpt lat="42.73865" lon="1.53252">
        <ele>1927.68</ele>
        <time>2021-03-06T11:06:04Z</time>
      </trkpt>
      <trkpt lat="42.73865" lon="1.53252">
        <ele>1927.683</ele>
        <time>2021-03-06T11:06:06Z</time>
      </trkpt>
      <trkpt lat="42.73865" lon="1.53252">
        <ele>1927.685</ele>
        <time>2021-03-06T11:06:07Z</time>
      </trkpt>
      <trkpt lat="42.73865" lon="1.53252">
        <ele>1927.687</ele>
        <time>2021-03-06T11:06:10Z</time>
      </trkpt>
      <trkpt lat="42.73865" lon="1.53252">
        <ele>1927.684</ele>
        <time>2021-03-06T11:06:12Z</time>
      </trkpt>
      <trkpt lat="42.73865" lon="1.53252">
        <ele>1927.681</ele>
        <time>2021-03-06T11:06:14Z</time>
      </trkpt>
      <trkpt lat="42.73865" lon="1.53252">
        <ele>1927.685</ele>
        <time>2021-03-06T11:06:16Z</time>
      </trkpt>
      <trkpt lat="42.73865" lon="1.53252">
        <ele>1927.688</ele>
        <time>2021-03-06T11:06:18Z</time>
      </trkpt>
      <trkpt lat="42.73865" lon="1.53252">
        <ele>1927.691</ele>
        <time>2021-03-06T11:06:20Z</time>
      </trkpt>
      <trkpt lat="42.73865" lon="1.53252">
        <ele>1927.691</ele>
        <time>2021-03-06T11:06:22Z</time>
      </trkpt>
      <trkpt lat="42.73865" lon="1.53252">
        <ele>1927.693</ele>
        <time>2021-03-06T11:06:24Z</time>
      </trkpt>
      <trkpt lat="42.73865" lon="1.53252">
        <ele>1927.691</ele>
        <time>2021-03-06T11:06:26Z</time>
      </trkpt>
      <trkpt lat="42.73865" lon="1.53252">
        <ele>1927.695</ele>
        <time>2021-03-06T11:06:28Z</time>
      </trkpt>
      <trkpt lat="42.73865" lon="1.53252">
        <ele>1927.696</ele>
        <time>2021-03-06T11:06:30Z</time>
      </trkpt>
      <trkpt lat="42.73865" lon="1.53252">
        <ele>1927.695</ele>
        <time>2021-03-06T11:06:32Z</time>
      </trkpt>
      <trkpt lat="42.73865" lon="1.53252">
        <ele>1927.693</ele>
        <time>2021-03-06T11:06:34Z</time>
      </trkpt>
      <trkpt lat="42.73865" lon="1.53252">
        <ele>1927.696</ele>
        <time>2021-03-06T11:06:36Z</time>
      </trkpt>
      <trkpt lat="42.73865" lon="1.53252">
        <ele>1927.689</ele>
        <time>2021-03-06T11:06:38Z</time>
      </trkpt>
      <trkpt lat="42.73865" lon="1.53252">
        <ele>1927.693</ele>
        <time>2021-03-06T11:06:40Z</time>
      </trkpt>
      <trkpt lat="42.73865" lon="1.53252">
        <ele>1927.69</ele>
        <time>2021-03-06T11:06:42Z</time>
      </trkpt>
      <trkpt lat="42.73865" lon="1.53252">
        <ele>1927.686</ele>
        <time>2021-03-06T11:06:44Z</time>
      </trkpt>
      <trkpt lat="42.73865" lon="1.53252">
        <ele>1927.704</ele>
        <time>2021-03-06T11:06:46Z</time>
      </trkpt>
      <trkpt lat="42.73865" lon="1.53252">
        <ele>1927.701</ele>
        <time>2021-03-06T11:06:48Z</time>
      </trkpt>
      <trkpt lat="42.73865" lon="1.53252">
        <ele>1927.701</ele>
        <time>2021-03-06T11:06:50Z</time>
      </trkpt>
      <trkpt lat="42.73865" lon="1.53252">
        <ele>1927.694</ele>
        <time>2021-03-06T11:06:52Z</time>
      </trkpt>
      <trkpt lat="42.73865" lon="1.53252">
        <ele>1927.691</ele>
        <time>2021-03-06T11:06:54Z</time>
      </trkpt>
      <trkpt lat="42.73865" lon="1.53252">
        <ele>1927.686</ele>
        <time>2021-03-06T11:06:56Z</time>
      </trkpt>
      <trkpt lat="42.73865" lon="1.53252">
        <ele>1927.679</ele>
        <time>2021-03-06T11:06:58Z</time>
      </trkpt>
      <trkpt lat="42.73865" lon="1.5325">
        <ele>1928.004</ele>
        <time>2021-03-06T11:07:00Z</time>
      </trkpt>
      <trkpt lat="42.73866" lon="1.5325">
        <ele>1928.055</ele>
        <time>2021-03-06T11:07:02Z</time>
      </trkpt>
      <trkpt lat="42.73866" lon="1.5325">
        <ele>1928.052</ele>
        <time>2021-03-06T11:07:04Z</time>
      </trkpt>
      <trkpt lat="42.73866" lon="1.5325">
        <ele>1928.052</ele>
        <time>2021-03-06T11:07:06Z</time>
      </trkpt>
      <trkpt lat="42.73866" lon="1.53251">
        <ele>1928.15</ele>
        <time>2021-03-06T11:07:08Z</time>
      </trkpt>
      <trkpt lat="42.73866" lon="1.53251">
        <ele>1928.153</ele>
        <time>2021-03-06T11:07:10Z</time>
      </trkpt>
      <trkpt lat="42.73866" lon="1.53251">
        <ele>1928.153</ele>
        <time>2021-03-06T11:07:12Z</time>
      </trkpt>
      <trkpt lat="42.73866" lon="1.53251">
        <ele>1928.157</ele>
        <time>2021-03-06T11:07:14Z</time>
      </trkpt>
      <trkpt lat="42.73866" lon="1.53249">
        <ele>1927.845</ele>
        <time>2021-03-06T11:07:16Z</time>
      </trkpt>
      <trkpt lat="42.73867" lon="1.53249">
        <ele>1927.931</ele>
        <time>2021-03-06T11:07:18Z</time>
      </trkpt>
      <trkpt lat="42.73867" lon="1.53249">
        <ele>1927.869</ele>
        <time>2021-03-06T11:07:20Z</time>
      </trkpt>
      <trkpt lat="42.73868" lon="1.53249">
        <ele>1927.494</ele>
        <time>2021-03-06T11:07:22Z</time>
      </trkpt>
      <trkpt lat="42.73868" lon="1.5325">
        <ele>1927.617</ele>
        <time>2021-03-06T11:07:24Z</time>
      </trkpt>
      <trkpt lat="42.73868" lon="1.5325">
        <ele>1927.603</ele>
        <time>2021-03-06T11:07:26Z</time>
      </trkpt>
      <trkpt lat="42.73868" lon="1.5325">
        <ele>1927.332</ele>
        <time>2021-03-06T11:07:28Z</time>
      </trkpt>
      <trkpt lat="42.73867" lon="1.5325">
        <ele>1927.271</ele>
        <time>2021-03-06T11:07:30Z</time>
      </trkpt>
      <trkpt lat="42.73867" lon="1.53249">
        <ele>1927.923</ele>
        <time>2021-03-06T11:07:32Z</time>
      </trkpt>
      <trkpt lat="42.73868" lon="1.53248">
        <ele>1928.082</ele>
        <time>2021-03-06T11:07:34Z</time>
      </trkpt>
      <trkpt lat="42.73869" lon="1.53249">
        <ele>1927.839</ele>
        <time>2021-03-06T11:07:36Z</time>
      </trkpt>
      <trkpt lat="42.73869" lon="1.53249">
        <ele>1927.84</ele>
        <time>2021-03-06T11:07:38Z</time>
      </trkpt>
      <trkpt lat="42.73869" lon="1.53249">
        <ele>1927.661</ele>
        <time>2021-03-06T11:07:40Z</time>
      </trkpt>
      <trkpt lat="42.73868" lon="1.53249">
        <ele>1927.662</ele>
        <time>2021-03-06T11:07:42Z</time>
      </trkpt>
      <trkpt lat="42.73868" lon="1.53249">
        <ele>1927.659</ele>
        <time>2021-03-06T11:07:44Z</time>
      </trkpt>
      <trkpt lat="42.73869" lon="1.53248">
        <ele>1927.976</ele>
        <time>2021-03-06T11:07:46Z</time>
      </trkpt>
      <trkpt lat="42.7387" lon="1.53247">
        <ele>1928.061</ele>
        <time>2021-03-06T11:07:48Z</time>
      </trkpt>
      <trkpt lat="42.73871" lon="1.53246">
        <ele>1928.03</ele>
        <time>2021-03-06T11:07:50Z</time>
      </trkpt>
      <trkpt lat="42.73872" lon="1.53245">
        <ele>1928.051</ele>
        <time>2021-03-06T11:07:52Z</time>
      </trkpt>
      <trkpt lat="42.73872" lon="1.53244">
        <ele>1928</ele>
        <time>2021-03-06T11:07:54Z</time>
      </trkpt>
      <trkpt lat="42.73872" lon="1.53244">
        <ele>1928.168</ele>
        <time>2021-03-06T11:07:56Z</time>
      </trkpt>
      <trkpt lat="42.73873" lon="1.53243">
        <ele>1928.406</ele>
        <time>2021-03-06T11:07:58Z</time>
      </trkpt>
      <trkpt lat="42.73873" lon="1.53242">
        <ele>1928.451</ele>
        <time>2021-03-06T11:08:00Z</time>
      </trkpt>
      <trkpt lat="42.73874" lon="1.53241">
        <ele>1928.319</ele>
        <time>2021-03-06T11:08:02Z</time>
      </trkpt>
      <trkpt lat="42.73874" lon="1.5324">
        <ele>1928.155</ele>
        <time>2021-03-06T11:08:04Z</time>
      </trkpt>
      <trkpt lat="42.73876" lon="1.53239">
        <ele>1927.886</ele>
        <time>2021-03-06T11:08:06Z</time>
      </trkpt>
      <trkpt lat="42.73877" lon="1.53239">
        <ele>1927.739</ele>
        <time>2021-03-06T11:08:08Z</time>
      </trkpt>
      <trkpt lat="42.73879" lon="1.53238">
        <ele>1927.8</ele>
        <time>2021-03-06T11:08:10Z</time>
      </trkpt>
      <trkpt lat="42.7388" lon="1.53238">
        <ele>1927.266</ele>
        <time>2021-03-06T11:08:12Z</time>
      </trkpt>
      <trkpt lat="42.73881" lon="1.53237">
        <ele>1927.075</ele>
        <time>2021-03-06T11:08:14Z</time>
      </trkpt>
      <trkpt lat="42.73882" lon="1.53237">
        <ele>1926.362</ele>
        <time>2021-03-06T11:08:16Z</time>
      </trkpt>
      <trkpt lat="42.73884" lon="1.53237">
        <ele>1926.252</ele>
        <time>2021-03-06T11:08:18Z</time>
      </trkpt>
      <trkpt lat="42.73885" lon="1.53237">
        <ele>1926.021</ele>
        <time>2021-03-06T11:08:20Z</time>
      </trkpt>
      <trkpt lat="42.73887" lon="1.53237">
        <ele>1925.536</ele>
        <time>2021-03-06T11:08:22Z</time>
      </trkpt>
      <trkpt lat="42.73888" lon="1.53237">
        <ele>1924.865</ele>
        <time>2021-03-06T11:08:24Z</time>
      </trkpt>
      <trkpt lat="42.7389" lon="1.53236">
        <ele>1924.758</ele>
        <time>2021-03-06T11:08:26Z</time>
      </trkpt>
      <trkpt lat="42.73891" lon="1.53235">
        <ele>1924.06</ele>
        <time>2021-03-06T11:08:28Z</time>
      </trkpt>
      <trkpt lat="42.73893" lon="1.53234">
        <ele>1923.744</ele>
        <time>2021-03-06T11:08:30Z</time>
      </trkpt>
      <trkpt lat="42.73894" lon="1.53233">
        <ele>1924.474</ele>
        <time>2021-03-06T11:08:32Z</time>
      </trkpt>
      <trkpt lat="42.73895" lon="1.53231">
        <ele>1924.466</ele>
        <time>2021-03-06T11:08:34Z</time>
      </trkpt>
      <trkpt lat="42.73895" lon="1.5323">
        <ele>1924.451</ele>
        <time>2021-03-06T11:08:36Z</time>
      </trkpt>
      <trkpt lat="42.73895" lon="1.53228">
        <ele>1924.66</ele>
        <time>2021-03-06T11:08:38Z</time>
      </trkpt>
      <trkpt lat="42.73895" lon="1.53228">
        <ele>1924.532</ele>
        <time>2021-03-06T11:08:40Z</time>
      </trkpt>
      <trkpt lat="42.73895" lon="1.53228">
        <ele>1924.575</ele>
        <time>2021-03-06T11:08:42Z</time>
      </trkpt>
      <trkpt lat="42.73895" lon="1.53227">
        <ele>1924.742</ele>
        <time>2021-03-06T11:08:44Z</time>
      </trkpt>
      <trkpt lat="42.73895" lon="1.53227">
        <ele>1924.518</ele>
        <time>2021-03-06T11:08:46Z</time>
      </trkpt>
      <trkpt lat="42.73895" lon="1.53228">
        <ele>1924.511</ele>
        <time>2021-03-06T11:08:48Z</time>
      </trkpt>
      <trkpt lat="42.73895" lon="1.53228">
        <ele>1924.51</ele>
        <time>2021-03-06T11:08:50Z</time>
      </trkpt>
      <trkpt lat="42.73894" lon="1.53226">
        <ele>1924.557</ele>
        <time>2021-03-06T11:08:52Z</time>
      </trkpt>
      <trkpt lat="42.73894" lon="1.53226">
        <ele>1924.557</ele>
        <time>2021-03-06T11:08:54Z</time>
      </trkpt>
      <trkpt lat="42.73894" lon="1.53226">
        <ele>1924.554</ele>
        <time>2021-03-06T11:08:56Z</time>
      </trkpt>
      <trkpt lat="42.73894" lon="1.53226">
        <ele>1924.553</ele>
        <time>2021-03-06T11:08:58Z</time>
      </trkpt>
      <trkpt lat="42.73894" lon="1.53226">
        <ele>1924.549</ele>
        <time>2021-03-06T11:09:00Z</time>
      </trkpt>
      <trkpt lat="42.73894" lon="1.53226">
        <ele>1924.548</ele>
        <time>2021-03-06T11:09:02Z</time>
      </trkpt>
      <trkpt lat="42.73894" lon="1.53226">
        <ele>1924.253</ele>
        <time>2021-03-06T11:09:04Z</time>
      </trkpt>
      <trkpt lat="42.73894" lon="1.53227">
        <ele>1924.247</ele>
        <time>2021-03-06T11:09:06Z</time>
      </trkpt>
      <trkpt lat="42.73894" lon="1.53227">
        <ele>1924.243</ele>
        <time>2021-03-06T11:09:08Z</time>
      </trkpt>
      <trkpt lat="42.73894" lon="1.53227">
        <ele>1924.273</ele>
        <time>2021-03-06T11:09:10Z</time>
      </trkpt>
      <trkpt lat="42.73894" lon="1.53227">
        <ele>1924.278</ele>
        <time>2021-03-06T11:09:12Z</time>
      </trkpt>
      <trkpt lat="42.73894" lon="1.53227">
        <ele>1924.275</ele>
        <time>2021-03-06T11:09:14Z</time>
      </trkpt>
      <trkpt lat="42.73894" lon="1.53227">
        <ele>1924.341</ele>
        <time>2021-03-06T11:09:16Z</time>
      </trkpt>
      <trkpt lat="42.73894" lon="1.53227">
        <ele>1924.342</ele>
        <time>2021-03-06T11:09:18Z</time>
      </trkpt>
      <trkpt lat="42.73894" lon="1.53227">
        <ele>1924.34</ele>
        <time>2021-03-06T11:09:20Z</time>
      </trkpt>
      <trkpt lat="42.73894" lon="1.53227">
        <ele>1924.343</ele>
        <time>2021-03-06T11:09:22Z</time>
      </trkpt>
      <trkpt lat="42.73894" lon="1.53226">
        <ele>1924.183</ele>
        <time>2021-03-06T11:09:24Z</time>
      </trkpt>
      <trkpt lat="42.73894" lon="1.53226">
        <ele>1924.181</ele>
        <time>2021-03-06T11:09:26Z</time>
      </trkpt>
      <trkpt lat="42.73894" lon="1.53227">
        <ele>1924.505</ele>
        <time>2021-03-06T11:09:28Z</time>
      </trkpt>
      <trkpt lat="42.73894" lon="1.53227">
        <ele>1924.512</ele>
        <time>2021-03-06T11:09:30Z</time>
      </trkpt>
      <trkpt lat="42.73894" lon="1.53227">
        <ele>1924.516</ele>
        <time>2021-03-06T11:09:32Z</time>
      </trkpt>
      <trkpt lat="42.73894" lon="1.53227">
        <ele>1924.518</ele>
        <time>2021-03-06T11:09:34Z</time>
      </trkpt>
      <trkpt lat="42.73894" lon="1.53227">
        <ele>1924.516</ele>
        <time>2021-03-06T11:09:36Z</time>
      </trkpt>
      <trkpt lat="42.73894" lon="1.53227">
        <ele>1924.516</ele>
        <time>2021-03-06T11:09:38Z</time>
      </trkpt>
      <trkpt lat="42.73894" lon="1.53227">
        <ele>1924.518</ele>
        <time>2021-03-06T11:09:40Z</time>
      </trkpt>
      <trkpt lat="42.73894" lon="1.53227">
        <ele>1924.516</ele>
        <time>2021-03-06T11:09:42Z</time>
      </trkpt>
      <trkpt lat="42.73894" lon="1.53227">
        <ele>1924.513</ele>
        <time>2021-03-06T11:09:44Z</time>
      </trkpt>
      <trkpt lat="42.73894" lon="1.53227">
        <ele>1924.005</ele>
        <time>2021-03-06T11:09:46Z</time>
      </trkpt>
      <trkpt lat="42.73894" lon="1.53227">
        <ele>1923.643</ele>
        <time>2021-03-06T11:09:48Z</time>
      </trkpt>
      <trkpt lat="42.73894" lon="1.53227">
        <ele>1923.639</ele>
        <time>2021-03-06T11:09:50Z</time>
      </trkpt>
      <trkpt lat="42.73894" lon="1.53227">
        <ele>1923.64</ele>
        <time>2021-03-06T11:09:52Z</time>
      </trkpt>
      <trkpt lat="42.73894" lon="1.53227">
        <ele>1923.593</ele>
        <time>2021-03-06T11:09:54Z</time>
      </trkpt>
      <trkpt lat="42.73894" lon="1.53227">
        <ele>1923.592</ele>
        <time>2021-03-06T11:09:56Z</time>
      </trkpt>
      <trkpt lat="42.73894" lon="1.53227">
        <ele>1923.589</ele>
        <time>2021-03-06T11:09:58Z</time>
      </trkpt>
      <trkpt lat="42.73894" lon="1.53227">
        <ele>1923.586</ele>
        <time>2021-03-06T11:10:00Z</time>
      </trkpt>
      <trkpt lat="42.73894" lon="1.53227">
        <ele>1923.582</ele>
        <time>2021-03-06T11:10:02Z</time>
      </trkpt>
      <trkpt lat="42.73894" lon="1.53227">
        <ele>1923.587</ele>
        <time>2021-03-06T11:10:04Z</time>
      </trkpt>
      <trkpt lat="42.73894" lon="1.53227">
        <ele>1923.385</ele>
        <time>2021-03-06T11:10:06Z</time>
      </trkpt>
      <trkpt lat="42.73893" lon="1.53225">
        <ele>1923.088</ele>
        <time>2021-03-06T11:10:08Z</time>
      </trkpt>
      <trkpt lat="42.73893" lon="1.53223">
        <ele>1923.424</ele>
        <time>2021-03-06T11:10:10Z</time>
      </trkpt>
      <trkpt lat="42.73893" lon="1.53221">
        <ele>1923.091</ele>
        <time>2021-03-06T11:10:12Z</time>
      </trkpt>
      <trkpt lat="42.73892" lon="1.53219">
        <ele>1923.17</ele>
        <time>2021-03-06T11:10:14Z</time>
      </trkpt>
      <trkpt lat="42.73891" lon="1.53217">
        <ele>1923.548</ele>
        <time>2021-03-06T11:10:16Z</time>
      </trkpt>
      <trkpt lat="42.7389" lon="1.53215">
        <ele>1923.905</ele>
        <time>2021-03-06T11:10:18Z</time>
      </trkpt>
      <trkpt lat="42.73888" lon="1.53213">
        <ele>1923.982</ele>
        <time>2021-03-06T11:10:20Z</time>
      </trkpt>
      <trkpt lat="42.73888" lon="1.53212">
        <ele>1924.766</ele>
        <time>2021-03-06T11:10:22Z</time>
      </trkpt>
      <trkpt lat="42.73887" lon="1.5321">
        <ele>1924.924</ele>
        <time>2021-03-06T11:10:24Z</time>
      </trkpt>
      <trkpt lat="42.73886" lon="1.5321">
        <ele>1925.481</ele>
        <time>2021-03-06T11:10:26Z</time>
      </trkpt>
      <trkpt lat="42.73884" lon="1.53209">
        <ele>1925.924</ele>
        <time>2021-03-06T11:10:28Z</time>
      </trkpt>
      <trkpt lat="42.73883" lon="1.53207">
        <ele>1926.126</ele>
        <time>2021-03-06T11:10:30Z</time>
      </trkpt>
      <trkpt lat="42.73881" lon="1.53207">
        <ele>1926.194</ele>
        <time>2021-03-06T11:10:32Z</time>
      </trkpt>
      <trkpt lat="42.7388" lon="1.53206">
        <ele>1926.295</ele>
        <time>2021-03-06T11:10:34Z</time>
      </trkpt>
      <trkpt lat="42.73879" lon="1.53205">
        <ele>1926.41</ele>
        <time>2021-03-06T11:10:36Z</time>
      </trkpt>
      <trkpt lat="42.73878" lon="1.53204">
        <ele>1926.684</ele>
        <time>2021-03-06T11:10:38Z</time>
      </trkpt>
      <trkpt lat="42.73877" lon="1.53204">
        <ele>1926.739</ele>
        <time>2021-03-06T11:10:40Z</time>
      </trkpt>
      <trkpt lat="42.73876" lon="1.53204">
        <ele>1926.695</ele>
        <time>2021-03-06T11:10:42Z</time>
      </trkpt>
      <trkpt lat="42.73875" lon="1.53204">
        <ele>1926.941</ele>
        <time>2021-03-06T11:10:44Z</time>
      </trkpt>
      <trkpt lat="42.73874" lon="1.53204">
        <ele>1927.065</ele>
        <time>2021-03-06T11:10:46Z</time>
      </trkpt>
      <trkpt lat="42.73874" lon="1.53203">
        <ele>1926.869</ele>
        <time>2021-03-06T11:10:48Z</time>
      </trkpt>
      <trkpt lat="42.73873" lon="1.53203">
        <ele>1926.683</ele>
        <time>2021-03-06T11:10:50Z</time>
      </trkpt>
      <trkpt lat="42.73872" lon="1.53204">
        <ele>1926.482</ele>
        <time>2021-03-06T11:10:52Z</time>
      </trkpt>
      <trkpt lat="42.73871" lon="1.53203">
        <ele>1926.734</ele>
        <time>2021-03-06T11:10:54Z</time>
      </trkpt>
      <trkpt lat="42.73871" lon="1.53204">
        <ele>1926.546</ele>
        <time>2021-03-06T11:10:56Z</time>
      </trkpt>
      <trkpt lat="42.7387" lon="1.53205">
        <ele>1926.733</ele>
        <time>2021-03-06T11:10:58Z</time>
      </trkpt>
      <trkpt lat="42.73869" lon="1.53206">
        <ele>1927.412</ele>
        <time>2021-03-06T11:11:00Z</time>
      </trkpt>
      <trkpt lat="42.73868" lon="1.53207">
        <ele>1927.994</ele>
        <time>2021-03-06T11:11:02Z</time>
      </trkpt>
      <trkpt lat="42.73867" lon="1.53207">
        <ele>1928.274</ele>
        <time>2021-03-06T11:11:04Z</time>
      </trkpt>
      <trkpt lat="42.73866" lon="1.53208">
        <ele>1928.257</ele>
        <time>2021-03-06T11:11:06Z</time>
      </trkpt>
      <trkpt lat="42.73865" lon="1.53208">
        <ele>1928.418</ele>
        <time>2021-03-06T11:11:08Z</time>
      </trkpt>
      <trkpt lat="42.73865" lon="1.53208">
        <ele>1928.353</ele>
        <time>2021-03-06T11:11:10Z</time>
      </trkpt>
      <trkpt lat="42.73865" lon="1.53208">
        <ele>1928.282</ele>
        <time>2021-03-06T11:11:12Z</time>
      </trkpt>
      <trkpt lat="42.73864" lon="1.53208">
        <ele>1928.077</ele>
        <time>2021-03-06T11:11:14Z</time>
      </trkpt>
      <trkpt lat="42.73864" lon="1.53208">
        <ele>1928.556</ele>
        <time>2021-03-06T11:11:16Z</time>
      </trkpt>
      <trkpt lat="42.73863" lon="1.53208">
        <ele>1928.65</ele>
        <time>2021-03-06T11:11:18Z</time>
      </trkpt>
      <trkpt lat="42.73861" lon="1.53208">
        <ele>1929.119</ele>
        <time>2021-03-06T11:11:20Z</time>
      </trkpt>
      <trkpt lat="42.73861" lon="1.53208">
        <ele>1929.488</ele>
        <time>2021-03-06T11:11:22Z</time>
      </trkpt>
      <trkpt lat="42.73859" lon="1.53208">
        <ele>1929.951</ele>
        <time>2021-03-06T11:11:24Z</time>
      </trkpt>
      <trkpt lat="42.73858" lon="1.53207">
        <ele>1930.233</ele>
        <time>2021-03-06T11:11:26Z</time>
      </trkpt>
      <trkpt lat="42.73857" lon="1.53207">
        <ele>1930.509</ele>
        <time>2021-03-06T11:11:28Z</time>
      </trkpt>
      <trkpt lat="42.73856" lon="1.53207">
        <ele>1930.774</ele>
        <time>2021-03-06T11:11:30Z</time>
      </trkpt>
      <trkpt lat="42.73855" lon="1.53206">
        <ele>1931.459</ele>
        <time>2021-03-06T11:11:32Z</time>
      </trkpt>
      <trkpt lat="42.73854" lon="1.53205">
        <ele>1932.048</ele>
        <time>2021-03-06T11:11:34Z</time>
      </trkpt>
      <trkpt lat="42.73853" lon="1.53204">
        <ele>1932.195</ele>
        <time>2021-03-06T11:11:36Z</time>
      </trkpt>
      <trkpt lat="42.73852" lon="1.53203">
        <ele>1932.47</ele>
        <time>2021-03-06T11:11:38Z</time>
      </trkpt>
      <trkpt lat="42.73851" lon="1.53202">
        <ele>1932.744</ele>
        <time>2021-03-06T11:11:40Z</time>
      </trkpt>
      <trkpt lat="42.7385" lon="1.53201">
        <ele>1932.727</ele>
        <time>2021-03-06T11:11:42Z</time>
      </trkpt>
      <trkpt lat="42.73849" lon="1.532">
        <ele>1933.113</ele>
        <time>2021-03-06T11:11:44Z</time>
      </trkpt>
      <trkpt lat="42.73849" lon="1.53199">
        <ele>1933.552</ele>
        <time>2021-03-06T11:11:46Z</time>
      </trkpt>
      <trkpt lat="42.73848" lon="1.53198">
        <ele>1933.81</ele>
        <time>2021-03-06T11:11:48Z</time>
      </trkpt>
      <trkpt lat="42.73847" lon="1.53197">
        <ele>1934.009</ele>
        <time>2021-03-06T11:11:50Z</time>
      </trkpt>
      <trkpt lat="42.73846" lon="1.53197">
        <ele>1934.134</ele>
        <time>2021-03-06T11:11:52Z</time>
      </trkpt>
      <trkpt lat="42.73845" lon="1.53196">
        <ele>1933.935</ele>
        <time>2021-03-06T11:11:54Z</time>
      </trkpt>
      <trkpt lat="42.73845" lon="1.53195">
        <ele>1934.324</ele>
        <time>2021-03-06T11:11:56Z</time>
      </trkpt>
      <trkpt lat="42.73844" lon="1.53194">
        <ele>1934.592</ele>
        <time>2021-03-06T11:11:58Z</time>
      </trkpt>
      <trkpt lat="42.73843" lon="1.53192">
        <ele>1934.856</ele>
        <time>2021-03-06T11:12:00Z</time>
      </trkpt>
      <trkpt lat="42.73843" lon="1.53191">
        <ele>1935.149</ele>
        <time>2021-03-06T11:12:02Z</time>
      </trkpt>
      <trkpt lat="42.73842" lon="1.5319">
        <ele>1935.204</ele>
        <time>2021-03-06T11:12:04Z</time>
      </trkpt>
      <trkpt lat="42.73842" lon="1.53188">
        <ele>1935.554</ele>
        <time>2021-03-06T11:12:06Z</time>
      </trkpt>
      <trkpt lat="42.73841" lon="1.53187">
        <ele>1935.815</ele>
        <time>2021-03-06T11:12:08Z</time>
      </trkpt>
      <trkpt lat="42.7384" lon="1.53186">
        <ele>1936.143</ele>
        <time>2021-03-06T11:12:10Z</time>
      </trkpt>
      <trkpt lat="42.73839" lon="1.53185">
        <ele>1936.554</ele>
        <time>2021-03-06T11:12:12Z</time>
      </trkpt>
      <trkpt lat="42.73839" lon="1.53184">
        <ele>1936.564</ele>
        <time>2021-03-06T11:12:14Z</time>
      </trkpt>
      <trkpt lat="42.73838" lon="1.53183">
        <ele>1937.197</ele>
        <time>2021-03-06T11:12:16Z</time>
      </trkpt>
      <trkpt lat="42.73838" lon="1.53182">
        <ele>1937.2</ele>
        <time>2021-03-06T11:12:18Z</time>
      </trkpt>
      <trkpt lat="42.73837" lon="1.53181">
        <ele>1937.29</ele>
        <time>2021-03-06T11:12:20Z</time>
      </trkpt>
      <trkpt lat="42.73837" lon="1.5318">
        <ele>1937.258</ele>
        <time>2021-03-06T11:12:22Z</time>
      </trkpt>
      <trkpt lat="42.73837" lon="1.53179">
        <ele>1937.124</ele>
        <time>2021-03-06T11:12:24Z</time>
      </trkpt>
      <trkpt lat="42.73836" lon="1.53177">
        <ele>1937.258</ele>
        <time>2021-03-06T11:12:26Z</time>
      </trkpt>
      <trkpt lat="42.73836" lon="1.53176">
        <ele>1938.003</ele>
        <time>2021-03-06T11:12:28Z</time>
      </trkpt>
      <trkpt lat="42.73836" lon="1.53174">
        <ele>1938.158</ele>
        <time>2021-03-06T11:12:30Z</time>
      </trkpt>
      <trkpt lat="42.73836" lon="1.53172">
        <ele>1937.878</ele>
        <time>2021-03-06T11:12:32Z</time>
      </trkpt>
      <trkpt lat="42.73835" lon="1.53171">
        <ele>1938.396</ele>
        <time>2021-03-06T11:12:34Z</time>
      </trkpt>
      <trkpt lat="42.73835" lon="1.53169">
        <ele>1938.598</ele>
        <time>2021-03-06T11:12:36Z</time>
      </trkpt>
      <trkpt lat="42.73834" lon="1.53167">
        <ele>1938.767</ele>
        <time>2021-03-06T11:12:38Z</time>
      </trkpt>
      <trkpt lat="42.73834" lon="1.53166">
        <ele>1938.803</ele>
        <time>2021-03-06T11:12:40Z</time>
      </trkpt>
      <trkpt lat="42.73832" lon="1.53164">
        <ele>1938.761</ele>
        <time>2021-03-06T11:12:42Z</time>
      </trkpt>
      <trkpt lat="42.73833" lon="1.53162">
        <ele>1939.158</ele>
        <time>2021-03-06T11:12:44Z</time>
      </trkpt>
      <trkpt lat="42.73833" lon="1.53161">
        <ele>1939.673</ele>
        <time>2021-03-06T11:12:46Z</time>
      </trkpt>
      <trkpt lat="42.73833" lon="1.5316">
        <ele>1940.281</ele>
        <time>2021-03-06T11:12:48Z</time>
      </trkpt>
      <trkpt lat="42.73833" lon="1.53158">
        <ele>1941.328</ele>
        <time>2021-03-06T11:12:50Z</time>
      </trkpt>
      <trkpt lat="42.73833" lon="1.53157">
        <ele>1941.341</ele>
        <time>2021-03-06T11:12:52Z</time>
      </trkpt>
      <trkpt lat="42.73833" lon="1.53156">
        <ele>1941.61</ele>
        <time>2021-03-06T11:12:54Z</time>
      </trkpt>
      <trkpt lat="42.73833" lon="1.53154">
        <ele>1942.133</ele>
        <time>2021-03-06T11:12:56Z</time>
      </trkpt>
      <trkpt lat="42.73832" lon="1.53152">
        <ele>1942.471</ele>
        <time>2021-03-06T11:12:58Z</time>
      </trkpt>
      <trkpt lat="42.73832" lon="1.53151">
        <ele>1942.389</ele>
        <time>2021-03-06T11:13:00Z</time>
      </trkpt>
      <trkpt lat="42.73831" lon="1.53149">
        <ele>1942.191</ele>
        <time>2021-03-06T11:13:02Z</time>
      </trkpt>
      <trkpt lat="42.7383" lon="1.53148">
        <ele>1942.381</ele>
        <time>2021-03-06T11:13:04Z</time>
      </trkpt>
      <trkpt lat="42.7383" lon="1.53146">
        <ele>1942.473</ele>
        <time>2021-03-06T11:13:06Z</time>
      </trkpt>
      <trkpt lat="42.73829" lon="1.53145">
        <ele>1942.724</ele>
        <time>2021-03-06T11:13:08Z</time>
      </trkpt>
      <trkpt lat="42.73829" lon="1.53143">
        <ele>1942.677</ele>
        <time>2021-03-06T11:13:10Z</time>
      </trkpt>
      <trkpt lat="42.73829" lon="1.53141">
        <ele>1942.744</ele>
        <time>2021-03-06T11:13:12Z</time>
      </trkpt>
      <trkpt lat="42.73829" lon="1.53139">
        <ele>1942.572</ele>
        <time>2021-03-06T11:13:14Z</time>
      </trkpt>
      <trkpt lat="42.7383" lon="1.53137">
        <ele>1943.302</ele>
        <time>2021-03-06T11:13:16Z</time>
      </trkpt>
      <trkpt lat="42.7383" lon="1.53134">
        <ele>1943.487</ele>
        <time>2021-03-06T11:13:18Z</time>
      </trkpt>
      <trkpt lat="42.7383" lon="1.53132">
        <ele>1943.624</ele>
        <time>2021-03-06T11:13:20Z</time>
      </trkpt>
      <trkpt lat="42.73829" lon="1.5313">
        <ele>1944.176</ele>
        <time>2021-03-06T11:13:22Z</time>
      </trkpt>
      <trkpt lat="42.73828" lon="1.53128">
        <ele>1944.621</ele>
        <time>2021-03-06T11:13:24Z</time>
      </trkpt>
      <trkpt lat="42.73827" lon="1.53127">
        <ele>1944.44</ele>
        <time>2021-03-06T11:13:26Z</time>
      </trkpt>
      <trkpt lat="42.73827" lon="1.53125">
        <ele>1944.798</ele>
        <time>2021-03-06T11:13:28Z</time>
      </trkpt>
      <trkpt lat="42.73827" lon="1.53123">
        <ele>1945.394</ele>
        <time>2021-03-06T11:13:30Z</time>
      </trkpt>
      <trkpt lat="42.73826" lon="1.53122">
        <ele>1945.419</ele>
        <time>2021-03-06T11:13:32Z</time>
      </trkpt>
      <trkpt lat="42.73825" lon="1.53121">
        <ele>1945.341</ele>
        <time>2021-03-06T11:13:34Z</time>
      </trkpt>
      <trkpt lat="42.73824" lon="1.53119">
        <ele>1945.607</ele>
        <time>2021-03-06T11:13:36Z</time>
      </trkpt>
      <trkpt lat="42.73823" lon="1.53118">
        <ele>1945.98</ele>
        <time>2021-03-06T11:13:38Z</time>
      </trkpt>
      <trkpt lat="42.73822" lon="1.53117">
        <ele>1946.521</ele>
        <time>2021-03-06T11:13:40Z</time>
      </trkpt>
      <trkpt lat="42.73821" lon="1.53116">
        <ele>1947.53</ele>
        <time>2021-03-06T11:13:42Z</time>
      </trkpt>
      <trkpt lat="42.7382" lon="1.53115">
        <ele>1947.534</ele>
        <time>2021-03-06T11:13:44Z</time>
      </trkpt>
      <trkpt lat="42.73819" lon="1.53114">
        <ele>1947.977</ele>
        <time>2021-03-06T11:13:46Z</time>
      </trkpt>
      <trkpt lat="42.73818" lon="1.53113">
        <ele>1947.786</ele>
        <time>2021-03-06T11:13:48Z</time>
      </trkpt>
      <trkpt lat="42.73817" lon="1.53112">
        <ele>1948.33</ele>
        <time>2021-03-06T11:13:50Z</time>
      </trkpt>
      <trkpt lat="42.73816" lon="1.5311">
        <ele>1948.452</ele>
        <time>2021-03-06T11:13:52Z</time>
      </trkpt>
      <trkpt lat="42.73815" lon="1.53109">
        <ele>1948.952</ele>
        <time>2021-03-06T11:13:54Z</time>
      </trkpt>
      <trkpt lat="42.73814" lon="1.53108">
        <ele>1949.394</ele>
        <time>2021-03-06T11:13:56Z</time>
      </trkpt>
      <trkpt lat="42.73813" lon="1.53107">
        <ele>1950.29</ele>
        <time>2021-03-06T11:13:58Z</time>
      </trkpt>
      <trkpt lat="42.73813" lon="1.53105">
        <ele>1950.71</ele>
        <time>2021-03-06T11:14:00Z</time>
      </trkpt>
      <trkpt lat="42.73812" lon="1.53104">
        <ele>1950.998</ele>
        <time>2021-03-06T11:14:02Z</time>
      </trkpt>
      <trkpt lat="42.73811" lon="1.53103">
        <ele>1951.654</ele>
        <time>2021-03-06T11:14:04Z</time>
      </trkpt>
      <trkpt lat="42.73812" lon="1.53102">
        <ele>1952.966</ele>
        <time>2021-03-06T11:14:06Z</time>
      </trkpt>
      <trkpt lat="42.73812" lon="1.53103">
        <ele>1951.874</ele>
        <time>2021-03-06T11:14:08Z</time>
      </trkpt>
      <trkpt lat="42.73811" lon="1.53102">
        <ele>1952.528</ele>
        <time>2021-03-06T11:14:10Z</time>
      </trkpt>
      <trkpt lat="42.7381" lon="1.53101">
        <ele>1952.908</ele>
        <time>2021-03-06T11:14:13Z</time>
      </trkpt>
      <trkpt lat="42.7381" lon="1.53099">
        <ele>1953.361</ele>
        <time>2021-03-06T11:14:15Z</time>
      </trkpt>
      <trkpt lat="42.7381" lon="1.53097">
        <ele>1954.049</ele>
        <time>2021-03-06T11:14:17Z</time>
      </trkpt>
      <trkpt lat="42.73809" lon="1.53095">
        <ele>1954.389</ele>
        <time>2021-03-06T11:14:19Z</time>
      </trkpt>
      <trkpt lat="42.73809" lon="1.53093">
        <ele>1955.134</ele>
        <time>2021-03-06T11:14:21Z</time>
      </trkpt>
      <trkpt lat="42.73809" lon="1.53091">
        <ele>1955.271</ele>
        <time>2021-03-06T11:14:23Z</time>
      </trkpt>
      <trkpt lat="42.73809" lon="1.53089">
        <ele>1955.838</ele>
        <time>2021-03-06T11:14:25Z</time>
      </trkpt>
      <trkpt lat="42.73808" lon="1.53087">
        <ele>1955.871</ele>
        <time>2021-03-06T11:14:27Z</time>
      </trkpt>
      <trkpt lat="42.73808" lon="1.53085">
        <ele>1955.873</ele>
        <time>2021-03-06T11:14:29Z</time>
      </trkpt>
      <trkpt lat="42.73807" lon="1.53083">
        <ele>1955.681</ele>
        <time>2021-03-06T11:14:31Z</time>
      </trkpt>
      <trkpt lat="42.73806" lon="1.53081">
        <ele>1956.045</ele>
        <time>2021-03-06T11:14:33Z</time>
      </trkpt>
      <trkpt lat="42.73806" lon="1.5308">
        <ele>1956.429</ele>
        <time>2021-03-06T11:14:35Z</time>
      </trkpt>
      <trkpt lat="42.73805" lon="1.53078">
        <ele>1956.669</ele>
        <time>2021-03-06T11:14:37Z</time>
      </trkpt>
      <trkpt lat="42.73804" lon="1.53077">
        <ele>1957.106</ele>
        <time>2021-03-06T11:14:39Z</time>
      </trkpt>
      <trkpt lat="42.73803" lon="1.53075">
        <ele>1957.388</ele>
        <time>2021-03-06T11:14:41Z</time>
      </trkpt>
      <trkpt lat="42.73803" lon="1.53074">
        <ele>1957.726</ele>
        <time>2021-03-06T11:14:43Z</time>
      </trkpt>
      <trkpt lat="42.73802" lon="1.53073">
        <ele>1957.807</ele>
        <time>2021-03-06T11:14:45Z</time>
      </trkpt>
      <trkpt lat="42.73801" lon="1.53072">
        <ele>1958.1</ele>
        <time>2021-03-06T11:14:47Z</time>
      </trkpt>
      <trkpt lat="42.73801" lon="1.5307">
        <ele>1958.74</ele>
        <time>2021-03-06T11:14:49Z</time>
      </trkpt>
      <trkpt lat="42.738" lon="1.53069">
        <ele>1958.972</ele>
        <time>2021-03-06T11:14:51Z</time>
      </trkpt>
      <trkpt lat="42.73799" lon="1.53067">
        <ele>1958.764</ele>
        <time>2021-03-06T11:14:53Z</time>
      </trkpt>
      <trkpt lat="42.73799" lon="1.53066">
        <ele>1959.46</ele>
        <time>2021-03-06T11:14:55Z</time>
      </trkpt>
      <trkpt lat="42.73798" lon="1.53065">
        <ele>1959.186</ele>
        <time>2021-03-06T11:14:57Z</time>
      </trkpt>
      <trkpt lat="42.73797" lon="1.53063">
        <ele>1959.337</ele>
        <time>2021-03-06T11:14:59Z</time>
      </trkpt>
      <trkpt lat="42.73796" lon="1.53062">
        <ele>1960.189</ele>
        <time>2021-03-06T11:15:01Z</time>
      </trkpt>
      <trkpt lat="42.73795" lon="1.5306">
        <ele>1960.612</ele>
        <time>2021-03-06T11:15:03Z</time>
      </trkpt>
      <trkpt lat="42.73794" lon="1.53059">
        <ele>1961.263</ele>
        <time>2021-03-06T11:15:05Z</time>
      </trkpt>
      <trkpt lat="42.73794" lon="1.53058">
        <ele>1961.786</ele>
        <time>2021-03-06T11:15:07Z</time>
      </trkpt>
      <trkpt lat="42.73793" lon="1.53056">
        <ele>1962.083</ele>
        <time>2021-03-06T11:15:09Z</time>
      </trkpt>
      <trkpt lat="42.73792" lon="1.53055">
        <ele>1962.805</ele>
        <time>2021-03-06T11:15:11Z</time>
      </trkpt>
      <trkpt lat="42.73791" lon="1.53053">
        <ele>1962.608</ele>
        <time>2021-03-06T11:15:13Z</time>
      </trkpt>
      <trkpt lat="42.7379" lon="1.53052">
        <ele>1962.946</ele>
        <time>2021-03-06T11:15:15Z</time>
      </trkpt>
      <trkpt lat="42.73789" lon="1.53051">
        <ele>1962.442</ele>
        <time>2021-03-06T11:15:17Z</time>
      </trkpt>
      <trkpt lat="42.73788" lon="1.5305">
        <ele>1962.904</ele>
        <time>2021-03-06T11:15:19Z</time>
      </trkpt>
      <trkpt lat="42.73787" lon="1.53049">
        <ele>1963.575</ele>
        <time>2021-03-06T11:15:21Z</time>
      </trkpt>
      <trkpt lat="42.73786" lon="1.53048">
        <ele>1963.998</ele>
        <time>2021-03-06T11:15:23Z</time>
      </trkpt>
      <trkpt lat="42.73785" lon="1.53047">
        <ele>1964.59</ele>
        <time>2021-03-06T11:15:25Z</time>
      </trkpt>
      <trkpt lat="42.73784" lon="1.53046">
        <ele>1965.153</ele>
        <time>2021-03-06T11:15:27Z</time>
      </trkpt>
      <trkpt lat="42.73783" lon="1.53045">
        <ele>1965.423</ele>
        <time>2021-03-06T11:15:29Z</time>
      </trkpt>
      <trkpt lat="42.73782" lon="1.53044">
        <ele>1966.485</ele>
        <time>2021-03-06T11:15:31Z</time>
      </trkpt>
      <trkpt lat="42.73781" lon="1.53043">
        <ele>1966.644</ele>
        <time>2021-03-06T11:15:33Z</time>
      </trkpt>
      <trkpt lat="42.73779" lon="1.53042">
        <ele>1967.111</ele>
        <time>2021-03-06T11:15:35Z</time>
      </trkpt>
      <trkpt lat="42.73778" lon="1.53041">
        <ele>1967.24</ele>
        <time>2021-03-06T11:15:37Z</time>
      </trkpt>
      <trkpt lat="42.73778" lon="1.5304">
        <ele>1967.815</ele>
        <time>2021-03-06T11:15:39Z</time>
      </trkpt>
      <trkpt lat="42.73776" lon="1.53039">
        <ele>1968.208</ele>
        <time>2021-03-06T11:15:41Z</time>
      </trkpt>
      <trkpt lat="42.73775" lon="1.53039">
        <ele>1968.82</ele>
        <time>2021-03-06T11:15:43Z</time>
      </trkpt>
      <trkpt lat="42.73774" lon="1.53037">
        <ele>1969.153</ele>
        <time>2021-03-06T11:15:45Z</time>
      </trkpt>
      <trkpt lat="42.73773" lon="1.53037">
        <ele>1969.458</ele>
        <time>2021-03-06T11:15:47Z</time>
      </trkpt>
      <trkpt lat="42.73772" lon="1.53035">
        <ele>1969.936</ele>
        <time>2021-03-06T11:15:49Z</time>
      </trkpt>
      <trkpt lat="42.73771" lon="1.53034">
        <ele>1970.425</ele>
        <time>2021-03-06T11:15:51Z</time>
      </trkpt>
      <trkpt lat="42.7377" lon="1.53033">
        <ele>1970.52</ele>
        <time>2021-03-06T11:15:53Z</time>
      </trkpt>
      <trkpt lat="42.7377" lon="1.53032">
        <ele>1970.633</ele>
        <time>2021-03-06T11:15:55Z</time>
      </trkpt>
      <trkpt lat="42.73769" lon="1.53031">
        <ele>1970.35</ele>
        <time>2021-03-06T11:15:57Z</time>
      </trkpt>
      <trkpt lat="42.73768" lon="1.5303">
        <ele>1970.663</ele>
        <time>2021-03-06T11:15:59Z</time>
      </trkpt>
      <trkpt lat="42.73768" lon="1.53029">
        <ele>1970.955</ele>
        <time>2021-03-06T11:16:01Z</time>
      </trkpt>
      <trkpt lat="42.73767" lon="1.53028">
        <ele>1971.399</ele>
        <time>2021-03-06T11:16:03Z</time>
      </trkpt>
      <trkpt lat="42.73766" lon="1.53027">
        <ele>1971.881</ele>
        <time>2021-03-06T11:16:05Z</time>
      </trkpt>
      <trkpt lat="42.73766" lon="1.53027">
        <ele>1972.372</ele>
        <time>2021-03-06T11:16:07Z</time>
      </trkpt>
      <trkpt lat="42.73765" lon="1.53025">
        <ele>1972.78</ele>
        <time>2021-03-06T11:16:09Z</time>
      </trkpt>
      <trkpt lat="42.73765" lon="1.53024">
        <ele>1972.778</ele>
        <time>2021-03-06T11:16:11Z</time>
      </trkpt>
      <trkpt lat="42.73764" lon="1.53023">
        <ele>1973.121</ele>
        <time>2021-03-06T11:16:13Z</time>
      </trkpt>
      <trkpt lat="42.73764" lon="1.53021">
        <ele>1973.058</ele>
        <time>2021-03-06T11:16:15Z</time>
      </trkpt>
      <trkpt lat="42.73764" lon="1.53021">
        <ele>1973.592</ele>
        <time>2021-03-06T11:16:17Z</time>
      </trkpt>
      <trkpt lat="42.73764" lon="1.53021">
        <ele>1973.594</ele>
        <time>2021-03-06T11:16:19Z</time>
      </trkpt>
      <trkpt lat="42.73764" lon="1.53021">
        <ele>1973.598</ele>
        <time>2021-03-06T11:16:21Z</time>
      </trkpt>
      <trkpt lat="42.73764" lon="1.53021">
        <ele>1973.586</ele>
        <time>2021-03-06T11:16:23Z</time>
      </trkpt>
      <trkpt lat="42.73764" lon="1.53021">
        <ele>1973.753</ele>
        <time>2021-03-06T11:16:25Z</time>
      </trkpt>
      <trkpt lat="42.73764" lon="1.53021">
        <ele>1973.759</ele>
        <time>2021-03-06T11:16:27Z</time>
      </trkpt>
      <trkpt lat="42.73764" lon="1.53021">
        <ele>1973.762</ele>
        <time>2021-03-06T11:16:29Z</time>
      </trkpt>
      <trkpt lat="42.73764" lon="1.53021">
        <ele>1973.762</ele>
        <time>2021-03-06T11:16:31Z</time>
      </trkpt>
      <trkpt lat="42.73764" lon="1.5302">
        <ele>1973.568</ele>
        <time>2021-03-06T11:16:33Z</time>
      </trkpt>
      <trkpt lat="42.73764" lon="1.5302">
        <ele>1973.662</ele>
        <time>2021-03-06T11:16:35Z</time>
      </trkpt>
      <trkpt lat="42.73763" lon="1.53019">
        <ele>1974.01</ele>
        <time>2021-03-06T11:16:37Z</time>
      </trkpt>
      <trkpt lat="42.73762" lon="1.53018">
        <ele>1974.396</ele>
        <time>2021-03-06T11:16:39Z</time>
      </trkpt>
      <trkpt lat="42.73762" lon="1.53017">
        <ele>1975.08</ele>
        <time>2021-03-06T11:16:41Z</time>
      </trkpt>
      <trkpt lat="42.73761" lon="1.53016">
        <ele>1975.651</ele>
        <time>2021-03-06T11:16:43Z</time>
      </trkpt>
      <trkpt lat="42.7376" lon="1.53015">
        <ele>1976.215</ele>
        <time>2021-03-06T11:16:45Z</time>
      </trkpt>
      <trkpt lat="42.73759" lon="1.53014">
        <ele>1975.904</ele>
        <time>2021-03-06T11:16:47Z</time>
      </trkpt>
      <trkpt lat="42.73758" lon="1.53013">
        <ele>1976.389</ele>
        <time>2021-03-06T11:16:49Z</time>
      </trkpt>
      <trkpt lat="42.73757" lon="1.53013">
        <ele>1976.657</ele>
        <time>2021-03-06T11:16:51Z</time>
      </trkpt>
      <trkpt lat="42.73756" lon="1.53013">
        <ele>1977.57</ele>
        <time>2021-03-06T11:16:53Z</time>
      </trkpt>
      <trkpt lat="42.73754" lon="1.53012">
        <ele>1977.824</ele>
        <time>2021-03-06T11:16:55Z</time>
      </trkpt>
      <trkpt lat="42.73753" lon="1.53013">
        <ele>1978.367</ele>
        <time>2021-03-06T11:16:57Z</time>
      </trkpt>
      <trkpt lat="42.73752" lon="1.53013">
        <ele>1978.864</ele>
        <time>2021-03-06T11:16:59Z</time>
      </trkpt>
      <trkpt lat="42.73751" lon="1.53013">
        <ele>1978.398</ele>
        <time>2021-03-06T11:17:01Z</time>
      </trkpt>
      <trkpt lat="42.7375" lon="1.53013">
        <ele>1978.815</ele>
        <time>2021-03-06T11:17:03Z</time>
      </trkpt>
      <trkpt lat="42.73748" lon="1.53013">
        <ele>1979.378</ele>
        <time>2021-03-06T11:17:05Z</time>
      </trkpt>
      <trkpt lat="42.73747" lon="1.53013">
        <ele>1979.698</ele>
        <time>2021-03-06T11:17:07Z</time>
      </trkpt>
      <trkpt lat="42.73746" lon="1.53014">
        <ele>1980.022</ele>
        <time>2021-03-06T11:17:09Z</time>
      </trkpt>
      <trkpt lat="42.73745" lon="1.53014">
        <ele>1979.994</ele>
        <time>2021-03-06T11:17:11Z</time>
      </trkpt>
      <trkpt lat="42.73744" lon="1.53015">
        <ele>1980.411</ele>
        <time>2021-03-06T11:17:13Z</time>
      </trkpt>
      <trkpt lat="42.73743" lon="1.53015">
        <ele>1981.082</ele>
        <time>2021-03-06T11:17:15Z</time>
      </trkpt>
      <trkpt lat="42.73741" lon="1.53015">
        <ele>1981.365</ele>
        <time>2021-03-06T11:17:17Z</time>
      </trkpt>
      <trkpt lat="42.7374" lon="1.53016">
        <ele>1981.835</ele>
        <time>2021-03-06T11:17:19Z</time>
      </trkpt>
      <trkpt lat="42.73739" lon="1.53016">
        <ele>1982.493</ele>
        <time>2021-03-06T11:17:21Z</time>
      </trkpt>
      <trkpt lat="42.73738" lon="1.53017">
        <ele>1982.46</ele>
        <time>2021-03-06T11:17:23Z</time>
      </trkpt>
      <trkpt lat="42.73737" lon="1.53017">
        <ele>1983.295</ele>
        <time>2021-03-06T11:17:25Z</time>
      </trkpt>
      <trkpt lat="42.73736" lon="1.53017">
        <ele>1983.915</ele>
        <time>2021-03-06T11:17:27Z</time>
      </trkpt>
      <trkpt lat="42.73735" lon="1.53017">
        <ele>1984.208</ele>
        <time>2021-03-06T11:17:29Z</time>
      </trkpt>
      <trkpt lat="42.73734" lon="1.53018">
        <ele>1984.528</ele>
        <time>2021-03-06T11:17:31Z</time>
      </trkpt>
      <trkpt lat="42.73733" lon="1.53017">
        <ele>1985.514</ele>
        <time>2021-03-06T11:17:33Z</time>
      </trkpt>
      <trkpt lat="42.73731" lon="1.53017">
        <ele>1985.475</ele>
        <time>2021-03-06T11:17:35Z</time>
      </trkpt>
      <trkpt lat="42.73731" lon="1.53017">
        <ele>1986.117</ele>
        <time>2021-03-06T11:17:37Z</time>
      </trkpt>
      <trkpt lat="42.7373" lon="1.53017">
        <ele>1986.906</ele>
        <time>2021-03-06T11:17:39Z</time>
      </trkpt>
      <trkpt lat="42.73729" lon="1.53017">
        <ele>1987.114</ele>
        <time>2021-03-06T11:17:41Z</time>
      </trkpt>
      <trkpt lat="42.73728" lon="1.53017">
        <ele>1987.525</ele>
        <time>2021-03-06T11:17:43Z</time>
      </trkpt>
      <trkpt lat="42.73727" lon="1.53017">
        <ele>1987.44</ele>
        <time>2021-03-06T11:17:45Z</time>
      </trkpt>
      <trkpt lat="42.73726" lon="1.53016">
        <ele>1987.878</ele>
        <time>2021-03-06T11:17:47Z</time>
      </trkpt>
      <trkpt lat="42.73726" lon="1.53016">
        <ele>1987.991</ele>
        <time>2021-03-06T11:17:49Z</time>
      </trkpt>
      <trkpt lat="42.73724" lon="1.53015">
        <ele>1988.171</ele>
        <time>2021-03-06T11:17:51Z</time>
      </trkpt>
      <trkpt lat="42.73723" lon="1.53013">
        <ele>1988.823</ele>
        <time>2021-03-06T11:17:53Z</time>
      </trkpt>
      <trkpt lat="42.73722" lon="1.53012">
        <ele>1989.039</ele>
        <time>2021-03-06T11:17:55Z</time>
      </trkpt>
      <trkpt lat="42.73722" lon="1.53012">
        <ele>1989.601</ele>
        <time>2021-03-06T11:17:57Z</time>
      </trkpt>
      <trkpt lat="42.73722" lon="1.5301">
        <ele>1989.649</ele>
        <time>2021-03-06T11:17:59Z</time>
      </trkpt>
      <trkpt lat="42.73721" lon="1.53009">
        <ele>1990.221</ele>
        <time>2021-03-06T11:18:01Z</time>
      </trkpt>
      <trkpt lat="42.7372" lon="1.53008">
        <ele>1990.551</ele>
        <time>2021-03-06T11:18:03Z</time>
      </trkpt>
      <trkpt lat="42.73719" lon="1.53007">
        <ele>1991.129</ele>
        <time>2021-03-06T11:18:05Z</time>
      </trkpt>
      <trkpt lat="42.73719" lon="1.53007">
        <ele>1991.521</ele>
        <time>2021-03-06T11:18:07Z</time>
      </trkpt>
      <trkpt lat="42.73718" lon="1.53006">
        <ele>1992.322</ele>
        <time>2021-03-06T11:18:09Z</time>
      </trkpt>
      <trkpt lat="42.73717" lon="1.53005">
        <ele>1992.423</ele>
        <time>2021-03-06T11:18:11Z</time>
      </trkpt>
      <trkpt lat="42.73716" lon="1.53004">
        <ele>1992.691</ele>
        <time>2021-03-06T11:18:13Z</time>
      </trkpt>
      <trkpt lat="42.73715" lon="1.53004">
        <ele>1992.675</ele>
        <time>2021-03-06T11:18:15Z</time>
      </trkpt>
      <trkpt lat="42.73714" lon="1.53003">
        <ele>1993.014</ele>
        <time>2021-03-06T11:18:17Z</time>
      </trkpt>
      <trkpt lat="42.73713" lon="1.53003">
        <ele>1993.432</ele>
        <time>2021-03-06T11:18:19Z</time>
      </trkpt>
      <trkpt lat="42.73712" lon="1.53002">
        <ele>1993.542</ele>
        <time>2021-03-06T11:18:21Z</time>
      </trkpt>
      <trkpt lat="42.73711" lon="1.53001">
        <ele>1994.161</ele>
        <time>2021-03-06T11:18:23Z</time>
      </trkpt>
      <trkpt lat="42.7371" lon="1.53">
        <ele>1993.859</ele>
        <time>2021-03-06T11:18:25Z</time>
      </trkpt>
      <trkpt lat="42.73709" lon="1.53">
        <ele>1993.834</ele>
        <time>2021-03-06T11:18:27Z</time>
      </trkpt>
      <trkpt lat="42.73708" lon="1.52999">
        <ele>1993.606</ele>
        <time>2021-03-06T11:18:29Z</time>
      </trkpt>
      <trkpt lat="42.73707" lon="1.52998">
        <ele>1994.576</ele>
        <time>2021-03-06T11:18:31Z</time>
      </trkpt>
      <trkpt lat="42.73706" lon="1.52997">
        <ele>1995.015</ele>
        <time>2021-03-06T11:18:33Z</time>
      </trkpt>
      <trkpt lat="42.73706" lon="1.52997">
        <ele>1995.67</ele>
        <time>2021-03-06T11:18:35Z</time>
      </trkpt>
      <trkpt lat="42.73705" lon="1.52996">
        <ele>1995.786</ele>
        <time>2021-03-06T11:18:37Z</time>
      </trkpt>
      <trkpt lat="42.73704" lon="1.52995">
        <ele>1996.461</ele>
        <time>2021-03-06T11:18:39Z</time>
      </trkpt>
      <trkpt lat="42.73703" lon="1.52994">
        <ele>1996.821</ele>
        <time>2021-03-06T11:18:41Z</time>
      </trkpt>
      <trkpt lat="42.73702" lon="1.52993">
        <ele>1997.359</ele>
        <time>2021-03-06T11:18:43Z</time>
      </trkpt>
      <trkpt lat="42.73701" lon="1.52992">
        <ele>1998.263</ele>
        <time>2021-03-06T11:18:45Z</time>
      </trkpt>
      <trkpt lat="42.737" lon="1.52992">
        <ele>1999.105</ele>
        <time>2021-03-06T11:18:47Z</time>
      </trkpt>
      <trkpt lat="42.73699" lon="1.52991">
        <ele>1999.191</ele>
        <time>2021-03-06T11:18:49Z</time>
      </trkpt>
      <trkpt lat="42.73698" lon="1.5299">
        <ele>1999.694</ele>
        <time>2021-03-06T11:18:51Z</time>
      </trkpt>
      <trkpt lat="42.73697" lon="1.52989">
        <ele>1999.826</ele>
        <time>2021-03-06T11:18:53Z</time>
      </trkpt>
      <trkpt lat="42.73696" lon="1.52988">
        <ele>2000.223</ele>
        <time>2021-03-06T11:18:55Z</time>
      </trkpt>
      <trkpt lat="42.73696" lon="1.52988">
        <ele>2000.135</ele>
        <time>2021-03-06T11:18:57Z</time>
      </trkpt>
      <trkpt lat="42.73694" lon="1.52987">
        <ele>2000.638</ele>
        <time>2021-03-06T11:18:59Z</time>
      </trkpt>
      <trkpt lat="42.73693" lon="1.52987">
        <ele>2001.022</ele>
        <time>2021-03-06T11:19:01Z</time>
      </trkpt>
      <trkpt lat="42.73692" lon="1.52986">
        <ele>2001.089</ele>
        <time>2021-03-06T11:19:03Z</time>
      </trkpt>
      <trkpt lat="42.73691" lon="1.52986">
        <ele>2001.245</ele>
        <time>2021-03-06T11:19:05Z</time>
      </trkpt>
      <trkpt lat="42.7369" lon="1.52985">
        <ele>2001.174</ele>
        <time>2021-03-06T11:19:07Z</time>
      </trkpt>
      <trkpt lat="42.73689" lon="1.52984">
        <ele>2000.902</ele>
        <time>2021-03-06T11:19:09Z</time>
      </trkpt>
      <trkpt lat="42.73688" lon="1.52984">
        <ele>2001.455</ele>
        <time>2021-03-06T11:19:11Z</time>
      </trkpt>
      <trkpt lat="42.73687" lon="1.52983">
        <ele>2001.692</ele>
        <time>2021-03-06T11:19:13Z</time>
      </trkpt>
      <trkpt lat="42.73685" lon="1.52982">
        <ele>2002.376</ele>
        <time>2021-03-06T11:19:15Z</time>
      </trkpt>
      <trkpt lat="42.73684" lon="1.52982">
        <ele>2002.858</ele>
        <time>2021-03-06T11:19:17Z</time>
      </trkpt>
      <trkpt lat="42.73682" lon="1.52981">
        <ele>2003.216</ele>
        <time>2021-03-06T11:19:19Z</time>
      </trkpt>
      <trkpt lat="42.73681" lon="1.5298">
        <ele>2003.587</ele>
        <time>2021-03-06T11:19:21Z</time>
      </trkpt>
      <trkpt lat="42.7368" lon="1.5298">
        <ele>2003.521</ele>
        <time>2021-03-06T11:19:23Z</time>
      </trkpt>
      <trkpt lat="42.73679" lon="1.52979">
        <ele>2003.212</ele>
        <time>2021-03-06T11:19:25Z</time>
      </trkpt>
      <trkpt lat="42.73677" lon="1.52978">
        <ele>2003.446</ele>
        <time>2021-03-06T11:19:27Z</time>
      </trkpt>
      <trkpt lat="42.73676" lon="1.52977">
        <ele>2003.907</ele>
        <time>2021-03-06T11:19:29Z</time>
      </trkpt>
      <trkpt lat="42.73675" lon="1.52977">
        <ele>2004.4</ele>
        <time>2021-03-06T11:19:31Z</time>
      </trkpt>
      <trkpt lat="42.73674" lon="1.52976">
        <ele>2004.627</ele>
        <time>2021-03-06T11:19:33Z</time>
      </trkpt>
      <trkpt lat="42.73672" lon="1.52975">
        <ele>2005.085</ele>
        <time>2021-03-06T11:19:35Z</time>
      </trkpt>
      <trkpt lat="42.73671" lon="1.52974">
        <ele>2005.302</ele>
        <time>2021-03-06T11:19:37Z</time>
      </trkpt>
      <trkpt lat="42.7367" lon="1.52974">
        <ele>2005.568</ele>
        <time>2021-03-06T11:19:39Z</time>
      </trkpt>
      <trkpt lat="42.73669" lon="1.52973">
        <ele>2006.067</ele>
        <time>2021-03-06T11:19:41Z</time>
      </trkpt>
      <trkpt lat="42.73667" lon="1.52972">
        <ele>2006.179</ele>
        <time>2021-03-06T11:19:43Z</time>
      </trkpt>
      <trkpt lat="42.73666" lon="1.52972">
        <ele>2006.718</ele>
        <time>2021-03-06T11:19:45Z</time>
      </trkpt>
      <trkpt lat="42.73664" lon="1.5297">
        <ele>2007.26</ele>
        <time>2021-03-06T11:19:48Z</time>
      </trkpt>
      <trkpt lat="42.73663" lon="1.52969">
        <ele>2007.81</ele>
        <time>2021-03-06T11:19:50Z</time>
      </trkpt>
      <trkpt lat="42.73662" lon="1.52969">
        <ele>2007.921</ele>
        <time>2021-03-06T11:19:52Z</time>
      </trkpt>
      <trkpt lat="42.73661" lon="1.52968">
        <ele>2008.078</ele>
        <time>2021-03-06T11:19:54Z</time>
      </trkpt>
      <trkpt lat="42.73659" lon="1.52967">
        <ele>2008.544</ele>
        <time>2021-03-06T11:19:56Z</time>
      </trkpt>
      <trkpt lat="42.73658" lon="1.52966">
        <ele>2009.315</ele>
        <time>2021-03-06T11:19:58Z</time>
      </trkpt>
      <trkpt lat="42.73657" lon="1.52965">
        <ele>2009.59</ele>
        <time>2021-03-06T11:20:00Z</time>
      </trkpt>
      <trkpt lat="42.73655" lon="1.52964">
        <ele>2010.271</ele>
        <time>2021-03-06T11:20:02Z</time>
      </trkpt>
      <trkpt lat="42.73654" lon="1.52964">
        <ele>2010.357</ele>
        <time>2021-03-06T11:20:04Z</time>
      </trkpt>
      <trkpt lat="42.73653" lon="1.52963">
        <ele>2010.629</ele>
        <time>2021-03-06T11:20:06Z</time>
      </trkpt>
      <trkpt lat="42.73652" lon="1.52963">
        <ele>2010.887</ele>
        <time>2021-03-06T11:20:08Z</time>
      </trkpt>
      <trkpt lat="42.7365" lon="1.52962">
        <ele>2010.924</ele>
        <time>2021-03-06T11:20:10Z</time>
      </trkpt>
      <trkpt lat="42.7365" lon="1.52961">
        <ele>2010.926</ele>
        <time>2021-03-06T11:20:12Z</time>
      </trkpt>
      <trkpt lat="42.73649" lon="1.52961">
        <ele>2011.803</ele>
        <time>2021-03-06T11:20:14Z</time>
      </trkpt>
      <trkpt lat="42.73647" lon="1.5296">
        <ele>2012.112</ele>
        <time>2021-03-06T11:20:16Z</time>
      </trkpt>
      <trkpt lat="42.73646" lon="1.5296">
        <ele>2012.415</ele>
        <time>2021-03-06T11:20:18Z</time>
      </trkpt>
      <trkpt lat="42.73645" lon="1.5296">
        <ele>2012.919</ele>
        <time>2021-03-06T11:20:20Z</time>
      </trkpt>
      <trkpt lat="42.73644" lon="1.52959">
        <ele>2013.8</ele>
        <time>2021-03-06T11:20:22Z</time>
      </trkpt>
      <trkpt lat="42.73643" lon="1.52959">
        <ele>2014.435</ele>
        <time>2021-03-06T11:20:24Z</time>
      </trkpt>
      <trkpt lat="42.73642" lon="1.52958">
        <ele>2015.483</ele>
        <time>2021-03-06T11:20:26Z</time>
      </trkpt>
      <trkpt lat="42.73641" lon="1.52958">
        <ele>2015.933</ele>
        <time>2021-03-06T11:20:28Z</time>
      </trkpt>
      <trkpt lat="42.7364" lon="1.52957">
        <ele>2015.62</ele>
        <time>2021-03-06T11:20:30Z</time>
      </trkpt>
      <trkpt lat="42.73639" lon="1.52956">
        <ele>2016.212</ele>
        <time>2021-03-06T11:20:32Z</time>
      </trkpt>
      <trkpt lat="42.73638" lon="1.52956">
        <ele>2016.704</ele>
        <time>2021-03-06T11:20:34Z</time>
      </trkpt>
      <trkpt lat="42.73637" lon="1.52956">
        <ele>2017.447</ele>
        <time>2021-03-06T11:20:36Z</time>
      </trkpt>
      <trkpt lat="42.73636" lon="1.52955">
        <ele>2017.807</ele>
        <time>2021-03-06T11:20:38Z</time>
      </trkpt>
      <trkpt lat="42.73635" lon="1.52955">
        <ele>2018.192</ele>
        <time>2021-03-06T11:20:40Z</time>
      </trkpt>
      <trkpt lat="42.73634" lon="1.52954">
        <ele>2018.828</ele>
        <time>2021-03-06T11:20:42Z</time>
      </trkpt>
      <trkpt lat="42.73633" lon="1.52954">
        <ele>2018.88</ele>
        <time>2021-03-06T11:20:44Z</time>
      </trkpt>
      <trkpt lat="42.73632" lon="1.52953">
        <ele>2019.188</ele>
        <time>2021-03-06T11:20:46Z</time>
      </trkpt>
      <trkpt lat="42.73631" lon="1.52953">
        <ele>2019.499</ele>
        <time>2021-03-06T11:20:48Z</time>
      </trkpt>
      <trkpt lat="42.73629" lon="1.52953">
        <ele>2019.945</ele>
        <time>2021-03-06T11:20:50Z</time>
      </trkpt>
      <trkpt lat="42.73628" lon="1.52953">
        <ele>2019.937</ele>
        <time>2021-03-06T11:20:52Z</time>
      </trkpt>
      <trkpt lat="42.73627" lon="1.52953">
        <ele>2019.604</ele>
        <time>2021-03-06T11:20:54Z</time>
      </trkpt>
      <trkpt lat="42.73626" lon="1.52952">
        <ele>2020.185</ele>
        <time>2021-03-06T11:20:56Z</time>
      </trkpt>
      <trkpt lat="42.73624" lon="1.52951">
        <ele>2020.321</ele>
        <time>2021-03-06T11:20:58Z</time>
      </trkpt>
      <trkpt lat="42.73623" lon="1.52951">
        <ele>2020.415</ele>
        <time>2021-03-06T11:21:00Z</time>
      </trkpt>
      <trkpt lat="42.73622" lon="1.52951">
        <ele>2020.417</ele>
        <time>2021-03-06T11:21:02Z</time>
      </trkpt>
      <trkpt lat="42.73621" lon="1.5295">
        <ele>2020.506</ele>
        <time>2021-03-06T11:21:04Z</time>
      </trkpt>
      <trkpt lat="42.7362" lon="1.52949">
        <ele>2020.91</ele>
        <time>2021-03-06T11:21:06Z</time>
      </trkpt>
      <trkpt lat="42.73619" lon="1.52949">
        <ele>2021.386</ele>
        <time>2021-03-06T11:21:08Z</time>
      </trkpt>
      <trkpt lat="42.73618" lon="1.52949">
        <ele>2021.74</ele>
        <time>2021-03-06T11:21:10Z</time>
      </trkpt>
      <trkpt lat="42.73617" lon="1.52949">
        <ele>2022.718</ele>
        <time>2021-03-06T11:21:12Z</time>
      </trkpt>
      <trkpt lat="42.73615" lon="1.52948">
        <ele>2023.076</ele>
        <time>2021-03-06T11:21:14Z</time>
      </trkpt>
      <trkpt lat="42.73614" lon="1.52948">
        <ele>2023.709</ele>
        <time>2021-03-06T11:21:16Z</time>
      </trkpt>
      <trkpt lat="42.73613" lon="1.52947">
        <ele>2024.224</ele>
        <time>2021-03-06T11:21:18Z</time>
      </trkpt>
      <trkpt lat="42.73612" lon="1.52947">
        <ele>2024.261</ele>
        <time>2021-03-06T11:21:20Z</time>
      </trkpt>
      <trkpt lat="42.73611" lon="1.52946">
        <ele>2024.437</ele>
        <time>2021-03-06T11:21:22Z</time>
      </trkpt>
      <trkpt lat="42.73609" lon="1.52946">
        <ele>2025.169</ele>
        <time>2021-03-06T11:21:24Z</time>
      </trkpt>
      <trkpt lat="42.73608" lon="1.52946">
        <ele>2025.374</ele>
        <time>2021-03-06T11:21:26Z</time>
      </trkpt>
      <trkpt lat="42.73607" lon="1.52946">
        <ele>2025.549</ele>
        <time>2021-03-06T11:21:28Z</time>
      </trkpt>
      <trkpt lat="42.73606" lon="1.52945">
        <ele>2026.111</ele>
        <time>2021-03-06T11:21:30Z</time>
      </trkpt>
      <trkpt lat="42.73605" lon="1.52944">
        <ele>2026.212</ele>
        <time>2021-03-06T11:21:32Z</time>
      </trkpt>
      <trkpt lat="42.73604" lon="1.52943">
        <ele>2026.135</ele>
        <time>2021-03-06T11:21:34Z</time>
      </trkpt>
      <trkpt lat="42.73602" lon="1.52942">
        <ele>2025.902</ele>
        <time>2021-03-06T11:21:36Z</time>
      </trkpt>
      <trkpt lat="42.73601" lon="1.52942">
        <ele>2026.165</ele>
        <time>2021-03-06T11:21:38Z</time>
      </trkpt>
      <trkpt lat="42.736" lon="1.52941">
        <ele>2026.264</ele>
        <time>2021-03-06T11:21:40Z</time>
      </trkpt>
      <trkpt lat="42.73599" lon="1.5294">
        <ele>2026.534</ele>
        <time>2021-03-06T11:21:42Z</time>
      </trkpt>
      <trkpt lat="42.73598" lon="1.5294">
        <ele>2026.898</ele>
        <time>2021-03-06T11:21:44Z</time>
      </trkpt>
      <trkpt lat="42.73597" lon="1.52939">
        <ele>2027.14</ele>
        <time>2021-03-06T11:21:46Z</time>
      </trkpt>
      <trkpt lat="42.73596" lon="1.52938">
        <ele>2027.362</ele>
        <time>2021-03-06T11:21:48Z</time>
      </trkpt>
      <trkpt lat="42.73595" lon="1.52937">
        <ele>2027.715</ele>
        <time>2021-03-06T11:21:50Z</time>
      </trkpt>
      <trkpt lat="42.73594" lon="1.52937">
        <ele>2027.857</ele>
        <time>2021-03-06T11:21:52Z</time>
      </trkpt>
      <trkpt lat="42.73592" lon="1.52936">
        <ele>2028.319</ele>
        <time>2021-03-06T11:21:54Z</time>
      </trkpt>
      <trkpt lat="42.73591" lon="1.52936">
        <ele>2028.842</ele>
        <time>2021-03-06T11:21:56Z</time>
      </trkpt>
      <trkpt lat="42.7359" lon="1.52935">
        <ele>2029.273</ele>
        <time>2021-03-06T11:21:58Z</time>
      </trkpt>
      <trkpt lat="42.73589" lon="1.52935">
        <ele>2029.735</ele>
        <time>2021-03-06T11:22:00Z</time>
      </trkpt>
      <trkpt lat="42.73587" lon="1.52936">
        <ele>2030.296</ele>
        <time>2021-03-06T11:22:02Z</time>
      </trkpt>
      <trkpt lat="42.73586" lon="1.52936">
        <ele>2030.463</ele>
        <time>2021-03-06T11:22:04Z</time>
      </trkpt>
      <trkpt lat="42.73585" lon="1.52936">
        <ele>2030.535</ele>
        <time>2021-03-06T11:22:06Z</time>
      </trkpt>
      <trkpt lat="42.73583" lon="1.52937">
        <ele>2030.673</ele>
        <time>2021-03-06T11:22:08Z</time>
      </trkpt>
      <trkpt lat="42.73582" lon="1.52937">
        <ele>2031.153</ele>
        <time>2021-03-06T11:22:10Z</time>
      </trkpt>
      <trkpt lat="42.73581" lon="1.52938">
        <ele>2031.743</ele>
        <time>2021-03-06T11:22:12Z</time>
      </trkpt>
      <trkpt lat="42.73579" lon="1.52938">
        <ele>2032.801</ele>
        <time>2021-03-06T11:22:14Z</time>
      </trkpt>
      <trkpt lat="42.73578" lon="1.52939">
        <ele>2033.657</ele>
        <time>2021-03-06T11:22:16Z</time>
      </trkpt>
      <trkpt lat="42.73576" lon="1.5294">
        <ele>2033.9</ele>
        <time>2021-03-06T11:22:18Z</time>
      </trkpt>
      <trkpt lat="42.73575" lon="1.5294">
        <ele>2034.161</ele>
        <time>2021-03-06T11:22:20Z</time>
      </trkpt>
      <trkpt lat="42.73573" lon="1.52941">
        <ele>2034.578</ele>
        <time>2021-03-06T11:22:22Z</time>
      </trkpt>
      <trkpt lat="42.73572" lon="1.52942">
        <ele>2035.223</ele>
        <time>2021-03-06T11:22:24Z</time>
      </trkpt>
      <trkpt lat="42.7357" lon="1.52943">
        <ele>2035.959</ele>
        <time>2021-03-06T11:22:26Z</time>
      </trkpt>
      <trkpt lat="42.73569" lon="1.52944">
        <ele>2036.211</ele>
        <time>2021-03-06T11:22:28Z</time>
      </trkpt>
      <trkpt lat="42.73568" lon="1.52945">
        <ele>2036.833</ele>
        <time>2021-03-06T11:22:30Z</time>
      </trkpt>
      <trkpt lat="42.73567" lon="1.52947">
        <ele>2037.384</ele>
        <time>2021-03-06T11:22:32Z</time>
      </trkpt>
      <trkpt lat="42.73566" lon="1.52948">
        <ele>2037.505</ele>
        <time>2021-03-06T11:22:34Z</time>
      </trkpt>
      <trkpt lat="42.73564" lon="1.52949">
        <ele>2037.434</ele>
        <time>2021-03-06T11:22:36Z</time>
      </trkpt>
      <trkpt lat="42.73563" lon="1.5295">
        <ele>2037.225</ele>
        <time>2021-03-06T11:22:38Z</time>
      </trkpt>
      <trkpt lat="42.73561" lon="1.52952">
        <ele>2037.771</ele>
        <time>2021-03-06T11:22:40Z</time>
      </trkpt>
      <trkpt lat="42.7356" lon="1.52953">
        <ele>2037.363</ele>
        <time>2021-03-06T11:22:42Z</time>
      </trkpt>
      <trkpt lat="42.73559" lon="1.52954">
        <ele>2037.479</ele>
        <time>2021-03-06T11:22:44Z</time>
      </trkpt>
      <trkpt lat="42.73557" lon="1.52955">
        <ele>2037.697</ele>
        <time>2021-03-06T11:22:46Z</time>
      </trkpt>
      <trkpt lat="42.73556" lon="1.52957">
        <ele>2038.311</ele>
        <time>2021-03-06T11:22:48Z</time>
      </trkpt>
      <trkpt lat="42.73555" lon="1.52958">
        <ele>2038.494</ele>
        <time>2021-03-06T11:22:50Z</time>
      </trkpt>
      <trkpt lat="42.73554" lon="1.52959">
        <ele>2038.583</ele>
        <time>2021-03-06T11:22:52Z</time>
      </trkpt>
      <trkpt lat="42.73553" lon="1.52961">
        <ele>2038.948</ele>
        <time>2021-03-06T11:22:54Z</time>
      </trkpt>
      <trkpt lat="42.73551" lon="1.52962">
        <ele>2039.575</ele>
        <time>2021-03-06T11:22:56Z</time>
      </trkpt>
      <trkpt lat="42.7355" lon="1.52963">
        <ele>2039.866</ele>
        <time>2021-03-06T11:22:58Z</time>
      </trkpt>
      <trkpt lat="42.73548" lon="1.52964">
        <ele>2039.552</ele>
        <time>2021-03-06T11:23:00Z</time>
      </trkpt>
      <trkpt lat="42.73547" lon="1.52965">
        <ele>2039.824</ele>
        <time>2021-03-06T11:23:02Z</time>
      </trkpt>
      <trkpt lat="42.73546" lon="1.52966">
        <ele>2040.014</ele>
        <time>2021-03-06T11:23:04Z</time>
      </trkpt>
      <trkpt lat="42.73544" lon="1.52967">
        <ele>2039.838</ele>
        <time>2021-03-06T11:23:06Z</time>
      </trkpt>
      <trkpt lat="42.73543" lon="1.52968">
        <ele>2040.399</ele>
        <time>2021-03-06T11:23:08Z</time>
      </trkpt>
      <trkpt lat="42.73542" lon="1.52968">
        <ele>2040.931</ele>
        <time>2021-03-06T11:23:10Z</time>
      </trkpt>
      <trkpt lat="42.73541" lon="1.52969">
        <ele>2040.869</ele>
        <time>2021-03-06T11:23:12Z</time>
      </trkpt>
      <trkpt lat="42.7354" lon="1.5297">
        <ele>2041.429</ele>
        <time>2021-03-06T11:23:14Z</time>
      </trkpt>
      <trkpt lat="42.73538" lon="1.52971">
        <ele>2041.794</ele>
        <time>2021-03-06T11:23:16Z</time>
      </trkpt>
      <trkpt lat="42.73537" lon="1.52972">
        <ele>2042.654</ele>
        <time>2021-03-06T11:23:18Z</time>
      </trkpt>
      <trkpt lat="42.73536" lon="1.52973">
        <ele>2042.953</ele>
        <time>2021-03-06T11:23:20Z</time>
      </trkpt>
      <trkpt lat="42.73535" lon="1.52974">
        <ele>2043.161</ele>
        <time>2021-03-06T11:23:22Z</time>
      </trkpt>
      <trkpt lat="42.73534" lon="1.52974">
        <ele>2043.683</ele>
        <time>2021-03-06T11:23:24Z</time>
      </trkpt>
      <trkpt lat="42.73533" lon="1.52974">
        <ele>2043.972</ele>
        <time>2021-03-06T11:23:26Z</time>
      </trkpt>
      <trkpt lat="42.73532" lon="1.52975">
        <ele>2044.334</ele>
        <time>2021-03-06T11:23:28Z</time>
      </trkpt>
      <trkpt lat="42.73531" lon="1.52976">
        <ele>2044.57</ele>
        <time>2021-03-06T11:23:30Z</time>
      </trkpt>
      <trkpt lat="42.73531" lon="1.52978">
        <ele>2044.443</ele>
        <time>2021-03-06T11:23:32Z</time>
      </trkpt>
      <trkpt lat="42.7353" lon="1.5298">
        <ele>2044.339</ele>
        <time>2021-03-06T11:23:34Z</time>
      </trkpt>
      <trkpt lat="42.7353" lon="1.52981">
        <ele>2044.253</ele>
        <time>2021-03-06T11:23:36Z</time>
      </trkpt>
      <trkpt lat="42.73529" lon="1.52983">
        <ele>2044.105</ele>
        <time>2021-03-06T11:23:38Z</time>
      </trkpt>
      <trkpt lat="42.73529" lon="1.52983">
        <ele>2044.451</ele>
        <time>2021-03-06T11:23:40Z</time>
      </trkpt>
      <trkpt lat="42.73529" lon="1.52985">
        <ele>2044.333</ele>
        <time>2021-03-06T11:23:42Z</time>
      </trkpt>
      <trkpt lat="42.73529" lon="1.52986">
        <ele>2043.763</ele>
        <time>2021-03-06T11:23:44Z</time>
      </trkpt>
      <trkpt lat="42.73528" lon="1.52987">
        <ele>2043.858</ele>
        <time>2021-03-06T11:23:46Z</time>
      </trkpt>
      <trkpt lat="42.73528" lon="1.52988">
        <ele>2044.324</ele>
        <time>2021-03-06T11:23:48Z</time>
      </trkpt>
      <trkpt lat="42.73528" lon="1.5299">
        <ele>2045.167</ele>
        <time>2021-03-06T11:23:50Z</time>
      </trkpt>
      <trkpt lat="42.73528" lon="1.5299">
        <ele>2045.674</ele>
        <time>2021-03-06T11:23:51Z</time>
      </trkpt>
      <trkpt lat="42.73528" lon="1.5299">
        <ele>2047.651</ele>
        <time>2021-03-06T11:24:03Z</time>
      </trkpt>
      <trkpt lat="42.73528" lon="1.5299">
        <ele>2047.797</ele>
        <time>2021-03-06T11:24:04Z</time>
      </trkpt>
      <trkpt lat="42.73528" lon="1.52993">
        <ele>2049.573</ele>
        <time>2021-03-06T11:24:10Z</time>
      </trkpt>
      <trkpt lat="42.73528" lon="1.52994">
        <ele>2049.789</ele>
        <time>2021-03-06T11:24:12Z</time>
      </trkpt>
      <trkpt lat="42.73528" lon="1.52995">
        <ele>2050.349</ele>
        <time>2021-03-06T11:24:14Z</time>
      </trkpt>
      <trkpt lat="42.73527" lon="1.52995">
        <ele>2050.556</ele>
        <time>2021-03-06T11:24:16Z</time>
      </trkpt>
      <trkpt lat="42.73528" lon="1.52997">
        <ele>2051.329</ele>
        <time>2021-03-06T11:24:23Z</time>
      </trkpt>
      <trkpt lat="42.73528" lon="1.52997">
        <ele>2051.208</ele>
        <time>2021-03-06T11:24:25Z</time>
      </trkpt>
      <trkpt lat="42.73528" lon="1.52996">
        <ele>2051.244</ele>
        <time>2021-03-06T11:24:26Z</time>
      </trkpt>
      <trkpt lat="42.73528" lon="1.52994">
        <ele>2050.663</ele>
        <time>2021-03-06T11:24:37Z</time>
      </trkpt>
      <trkpt lat="42.73528" lon="1.52993">
        <ele>2050.584</ele>
        <time>2021-03-06T11:24:39Z</time>
      </trkpt>
      <trkpt lat="42.73527" lon="1.52993">
        <ele>2050.471</ele>
        <time>2021-03-06T11:24:41Z</time>
      </trkpt>
      <trkpt lat="42.73527" lon="1.52993">
        <ele>2050.712</ele>
        <time>2021-03-06T11:24:43Z</time>
      </trkpt>
      <trkpt lat="42.73527" lon="1.52994">
        <ele>2050.713</ele>
        <time>2021-03-06T11:24:45Z</time>
      </trkpt>
      <trkpt lat="42.73528" lon="1.52994">
        <ele>2050.554</ele>
        <time>2021-03-06T11:24:47Z</time>
      </trkpt>
      <trkpt lat="42.73527" lon="1.52994">
        <ele>2050.483</ele>
        <time>2021-03-06T11:24:49Z</time>
      </trkpt>
      <trkpt lat="42.73527" lon="1.52993">
        <ele>2050.765</ele>
        <time>2021-03-06T11:24:51Z</time>
      </trkpt>
      <trkpt lat="42.73528" lon="1.52994">
        <ele>2051.293</ele>
        <time>2021-03-06T11:24:53Z</time>
      </trkpt>
      <trkpt lat="42.73528" lon="1.52994">
        <ele>2051.588</ele>
        <time>2021-03-06T11:24:55Z</time>
      </trkpt>
      <trkpt lat="42.73528" lon="1.52994">
        <ele>2051.581</ele>
        <time>2021-03-06T11:24:57Z</time>
      </trkpt>
      <trkpt lat="42.73528" lon="1.52994">
        <ele>2051.438</ele>
        <time>2021-03-06T11:24:59Z</time>
      </trkpt>
      <trkpt lat="42.73528" lon="1.52994">
        <ele>2051.409</ele>
        <time>2021-03-06T11:25:01Z</time>
      </trkpt>
      <trkpt lat="42.73529" lon="1.52995">
        <ele>2051.421</ele>
        <time>2021-03-06T11:25:03Z</time>
      </trkpt>
      <trkpt lat="42.7353" lon="1.52995">
        <ele>2051.193</ele>
        <time>2021-03-06T11:25:05Z</time>
      </trkpt>
      <trkpt lat="42.73531" lon="1.52995">
        <ele>2051.625</ele>
        <time>2021-03-06T11:25:07Z</time>
      </trkpt>
      <trkpt lat="42.73532" lon="1.52996">
        <ele>2051.053</ele>
        <time>2021-03-06T11:25:09Z</time>
      </trkpt>
      <trkpt lat="42.73532" lon="1.52996">
        <ele>2051.052</ele>
        <time>2021-03-06T11:25:11Z</time>
      </trkpt>
      <trkpt lat="42.73532" lon="1.52996">
        <ele>2051.05</ele>
        <time>2021-03-06T11:25:13Z</time>
      </trkpt>
      <trkpt lat="42.73532" lon="1.52996">
        <ele>2051.049</ele>
        <time>2021-03-06T11:25:15Z</time>
      </trkpt>
      <trkpt lat="42.73532" lon="1.52996">
        <ele>2051.055</ele>
        <time>2021-03-06T11:25:17Z</time>
      </trkpt>
      <trkpt lat="42.73532" lon="1.52996">
        <ele>2051.049</ele>
        <time>2021-03-06T11:25:19Z</time>
      </trkpt>
      <trkpt lat="42.73532" lon="1.52996">
        <ele>2051.046</ele>
        <time>2021-03-06T11:25:21Z</time>
      </trkpt>
      <trkpt lat="42.73532" lon="1.52996">
        <ele>2051.049</ele>
        <time>2021-03-06T11:25:23Z</time>
      </trkpt>
      <trkpt lat="42.73532" lon="1.52996">
        <ele>2051.232</ele>
        <time>2021-03-06T11:25:25Z</time>
      </trkpt>
      <trkpt lat="42.73532" lon="1.52996">
        <ele>2051.394</ele>
        <time>2021-03-06T11:25:27Z</time>
      </trkpt>
      <trkpt lat="42.73532" lon="1.52996">
        <ele>2051.395</ele>
        <time>2021-03-06T11:25:29Z</time>
      </trkpt>
      <trkpt lat="42.73532" lon="1.52996">
        <ele>2052.219</ele>
        <time>2021-03-06T11:25:31Z</time>
      </trkpt>
      <trkpt lat="42.73532" lon="1.52996">
        <ele>2052.29</ele>
        <time>2021-03-06T11:25:33Z</time>
      </trkpt>
      <trkpt lat="42.73531" lon="1.52995">
        <ele>2052.178</ele>
        <time>2021-03-06T11:25:35Z</time>
      </trkpt>
      <trkpt lat="42.7353" lon="1.52995">
        <ele>2051.998</ele>
        <time>2021-03-06T11:25:37Z</time>
      </trkpt>
      <trkpt lat="42.7353" lon="1.52995">
        <ele>2051.996</ele>
        <time>2021-03-06T11:25:39Z</time>
      </trkpt>
      <trkpt lat="42.7353" lon="1.52995">
        <ele>2051.989</ele>
        <time>2021-03-06T11:25:41Z</time>
      </trkpt>
      <trkpt lat="42.7353" lon="1.52995">
        <ele>2051.985</ele>
        <time>2021-03-06T11:25:43Z</time>
      </trkpt>
      <trkpt lat="42.7353" lon="1.52995">
        <ele>2051.982</ele>
        <time>2021-03-06T11:25:45Z</time>
      </trkpt>
      <trkpt lat="42.7353" lon="1.52995">
        <ele>2051.983</ele>
        <time>2021-03-06T11:25:47Z</time>
      </trkpt>
      <trkpt lat="42.7353" lon="1.52995">
        <ele>2051.986</ele>
        <time>2021-03-06T11:25:49Z</time>
      </trkpt>
      <trkpt lat="42.7353" lon="1.52995">
        <ele>2051.99</ele>
        <time>2021-03-06T11:25:51Z</time>
      </trkpt>
      <trkpt lat="42.7353" lon="1.52995">
        <ele>2051.99</ele>
        <time>2021-03-06T11:25:53Z</time>
      </trkpt>
      <trkpt lat="42.7353" lon="1.52995">
        <ele>2051.991</ele>
        <time>2021-03-06T11:25:55Z</time>
      </trkpt>
      <trkpt lat="42.73531" lon="1.52995">
        <ele>2051.889</ele>
        <time>2021-03-06T11:25:57Z</time>
      </trkpt>
      <trkpt lat="42.7353" lon="1.52995">
        <ele>2051.332</ele>
        <time>2021-03-06T11:25:59Z</time>
      </trkpt>
      <trkpt lat="42.73529" lon="1.52995">
        <ele>2050.999</ele>
        <time>2021-03-06T11:26:01Z</time>
      </trkpt>
      <trkpt lat="42.73529" lon="1.52996">
        <ele>2051.859</ele>
        <time>2021-03-06T11:26:03Z</time>
      </trkpt>
      <trkpt lat="42.73528" lon="1.52997">
        <ele>2051.175</ele>
        <time>2021-03-06T11:26:05Z</time>
      </trkpt>
      <trkpt lat="42.73528" lon="1.52997">
        <ele>2051.13</ele>
        <time>2021-03-06T11:26:07Z</time>
      </trkpt>
      <trkpt lat="42.73528" lon="1.52997">
        <ele>2051.125</ele>
        <time>2021-03-06T11:26:09Z</time>
      </trkpt>
      <trkpt lat="42.73529" lon="1.52997">
        <ele>2051.123</ele>
        <time>2021-03-06T11:26:11Z</time>
      </trkpt>
      <trkpt lat="42.73528" lon="1.52997">
        <ele>2051.202</ele>
        <time>2021-03-06T11:26:13Z</time>
      </trkpt>
      <trkpt lat="42.73528" lon="1.52997">
        <ele>2051.197</ele>
        <time>2021-03-06T11:26:15Z</time>
      </trkpt>
      <trkpt lat="42.73528" lon="1.52997">
        <ele>2051.193</ele>
        <time>2021-03-06T11:26:17Z</time>
      </trkpt>
      <trkpt lat="42.73528" lon="1.52997">
        <ele>2051.178</ele>
        <time>2021-03-06T11:26:19Z</time>
      </trkpt>
      <trkpt lat="42.73528" lon="1.52997">
        <ele>2051.178</ele>
        <time>2021-03-06T11:26:21Z</time>
      </trkpt>
      <trkpt lat="42.73528" lon="1.52997">
        <ele>2050.948</ele>
        <time>2021-03-06T11:26:23Z</time>
      </trkpt>
      <trkpt lat="42.73528" lon="1.52997">
        <ele>2050.945</ele>
        <time>2021-03-06T11:26:25Z</time>
      </trkpt>
      <trkpt lat="42.73528" lon="1.52997">
        <ele>2050.942</ele>
        <time>2021-03-06T11:26:27Z</time>
      </trkpt>
      <trkpt lat="42.73528" lon="1.52997">
        <ele>2050.939</ele>
        <time>2021-03-06T11:26:29Z</time>
      </trkpt>
      <trkpt lat="42.73528" lon="1.52997">
        <ele>2050.933</ele>
        <time>2021-03-06T11:26:31Z</time>
      </trkpt>
      <trkpt lat="42.73528" lon="1.52997">
        <ele>2050.927</ele>
        <time>2021-03-06T11:26:33Z</time>
      </trkpt>
      <trkpt lat="42.73528" lon="1.52997">
        <ele>2050.93</ele>
        <time>2021-03-06T11:26:35Z</time>
      </trkpt>
      <trkpt lat="42.73529" lon="1.52997">
        <ele>2050.611</ele>
        <time>2021-03-06T11:26:37Z</time>
      </trkpt>
      <trkpt lat="42.73529" lon="1.52997">
        <ele>2050.608</ele>
        <time>2021-03-06T11:26:39Z</time>
      </trkpt>
      <trkpt lat="42.73529" lon="1.52998">
        <ele>2050.453</ele>
        <time>2021-03-06T11:26:41Z</time>
      </trkpt>
      <trkpt lat="42.73529" lon="1.52998">
        <ele>2050.461</ele>
        <time>2021-03-06T11:26:43Z</time>
      </trkpt>
      <trkpt lat="42.73529" lon="1.52998">
        <ele>2050.463</ele>
        <time>2021-03-06T11:26:45Z</time>
      </trkpt>
      <trkpt lat="42.73529" lon="1.52998">
        <ele>2050.458</ele>
        <time>2021-03-06T11:26:47Z</time>
      </trkpt>
      <trkpt lat="42.73528" lon="1.52998">
        <ele>2050.079</ele>
        <time>2021-03-06T11:26:49Z</time>
      </trkpt>
      <trkpt lat="42.73528" lon="1.52997">
        <ele>2050.103</ele>
        <time>2021-03-06T11:26:51Z</time>
      </trkpt>
      <trkpt lat="42.73528" lon="1.52997">
        <ele>2050.108</ele>
        <time>2021-03-06T11:26:53Z</time>
      </trkpt>
      <trkpt lat="42.73528" lon="1.52997">
        <ele>2050.427</ele>
        <time>2021-03-06T11:26:55Z</time>
      </trkpt>
      <trkpt lat="42.73528" lon="1.52997">
        <ele>2050.599</ele>
        <time>2021-03-06T11:26:57Z</time>
      </trkpt>
      <trkpt lat="42.73528" lon="1.52997">
        <ele>2050.609</ele>
        <time>2021-03-06T11:26:59Z</time>
      </trkpt>
      <trkpt lat="42.73528" lon="1.52997">
        <ele>2050.612</ele>
        <time>2021-03-06T11:27:01Z</time>
      </trkpt>
      <trkpt lat="42.73528" lon="1.52997">
        <ele>2050.62</ele>
        <time>2021-03-06T11:27:03Z</time>
      </trkpt>
      <trkpt lat="42.73528" lon="1.52997">
        <ele>2050.656</ele>
        <time>2021-03-06T11:27:05Z</time>
      </trkpt>
      <trkpt lat="42.73528" lon="1.52997">
        <ele>2050.655</ele>
        <time>2021-03-06T11:27:07Z</time>
      </trkpt>
      <trkpt lat="42.73528" lon="1.52997">
        <ele>2050.66</ele>
        <time>2021-03-06T11:27:09Z</time>
      </trkpt>
      <trkpt lat="42.73528" lon="1.52997">
        <ele>2050.666</ele>
        <time>2021-03-06T11:27:11Z</time>
      </trkpt>
      <trkpt lat="42.73528" lon="1.52997">
        <ele>2050.661</ele>
        <time>2021-03-06T11:27:13Z</time>
      </trkpt>
      <trkpt lat="42.73528" lon="1.52996">
        <ele>2050.503</ele>
        <time>2021-03-06T11:27:15Z</time>
      </trkpt>
      <trkpt lat="42.73528" lon="1.52996">
        <ele>2050.506</ele>
        <time>2021-03-06T11:27:17Z</time>
      </trkpt>
      <trkpt lat="42.73528" lon="1.52997">
        <ele>2050.362</ele>
        <time>2021-03-06T11:27:19Z</time>
      </trkpt>
      <trkpt lat="42.73528" lon="1.52997">
        <ele>2050.252</ele>
        <time>2021-03-06T11:27:21Z</time>
      </trkpt>
      <trkpt lat="42.73528" lon="1.52997">
        <ele>2050.452</ele>
        <time>2021-03-06T11:27:23Z</time>
      </trkpt>
      <trkpt lat="42.73528" lon="1.52997">
        <ele>2050.453</ele>
        <time>2021-03-06T11:27:25Z</time>
      </trkpt>
      <trkpt lat="42.73528" lon="1.52997">
        <ele>2050.452</ele>
        <time>2021-03-06T11:27:27Z</time>
      </trkpt>
      <trkpt lat="42.73528" lon="1.52997">
        <ele>2050.453</ele>
        <time>2021-03-06T11:27:29Z</time>
      </trkpt>
      <trkpt lat="42.73528" lon="1.52997">
        <ele>2050.421</ele>
        <time>2021-03-06T11:27:31Z</time>
      </trkpt>
      <trkpt lat="42.73528" lon="1.52997">
        <ele>2050.648</ele>
        <time>2021-03-06T11:27:33Z</time>
      </trkpt>
      <trkpt lat="42.73528" lon="1.52997">
        <ele>2050.693</ele>
        <time>2021-03-06T11:27:35Z</time>
      </trkpt>
      <trkpt lat="42.73528" lon="1.52996">
        <ele>2050.785</ele>
        <time>2021-03-06T11:27:37Z</time>
      </trkpt>
      <trkpt lat="42.73528" lon="1.52996">
        <ele>2050.898</ele>
        <time>2021-03-06T11:27:39Z</time>
      </trkpt>
      <trkpt lat="42.73529" lon="1.52996">
        <ele>2050.894</ele>
        <time>2021-03-06T11:27:41Z</time>
      </trkpt>
      <trkpt lat="42.73529" lon="1.52996">
        <ele>2050.893</ele>
        <time>2021-03-06T11:27:43Z</time>
      </trkpt>
      <trkpt lat="42.73529" lon="1.52996">
        <ele>2050.915</ele>
        <time>2021-03-06T11:27:45Z</time>
      </trkpt>
      <trkpt lat="42.73529" lon="1.52996">
        <ele>2051.013</ele>
        <time>2021-03-06T11:27:47Z</time>
      </trkpt>
      <trkpt lat="42.73529" lon="1.52996">
        <ele>2050.999</ele>
        <time>2021-03-06T11:27:49Z</time>
      </trkpt>
      <trkpt lat="42.73529" lon="1.52996">
        <ele>2050.994</ele>
        <time>2021-03-06T11:27:51Z</time>
      </trkpt>
      <trkpt lat="42.73529" lon="1.52996">
        <ele>2050.993</ele>
        <time>2021-03-06T11:27:53Z</time>
      </trkpt>
      <trkpt lat="42.73529" lon="1.52995">
        <ele>2050.986</ele>
        <time>2021-03-06T11:27:55Z</time>
      </trkpt>
      <trkpt lat="42.73528" lon="1.52996">
        <ele>2050.704</ele>
        <time>2021-03-06T11:27:57Z</time>
      </trkpt>
      <trkpt lat="42.73528" lon="1.52996">
        <ele>2050.703</ele>
        <time>2021-03-06T11:27:59Z</time>
      </trkpt>
      <trkpt lat="42.73529" lon="1.52996">
        <ele>2050.706</ele>
        <time>2021-03-06T11:28:01Z</time>
      </trkpt>
      <trkpt lat="42.73529" lon="1.52996">
        <ele>2050.709</ele>
        <time>2021-03-06T11:28:03Z</time>
      </trkpt>
      <trkpt lat="42.73529" lon="1.52996">
        <ele>2050.707</ele>
        <time>2021-03-06T11:28:05Z</time>
      </trkpt>
      <trkpt lat="42.73529" lon="1.52996">
        <ele>2050.71</ele>
        <time>2021-03-06T11:28:07Z</time>
      </trkpt>
      <trkpt lat="42.73529" lon="1.52996">
        <ele>2050.484</ele>
        <time>2021-03-06T11:28:09Z</time>
      </trkpt>
      <trkpt lat="42.73529" lon="1.52996">
        <ele>2050.484</ele>
        <time>2021-03-06T11:28:11Z</time>
      </trkpt>
      <trkpt lat="42.73529" lon="1.52997">
        <ele>2050.527</ele>
        <time>2021-03-06T11:28:13Z</time>
      </trkpt>
      <trkpt lat="42.73529" lon="1.52997">
        <ele>2050.525</ele>
        <time>2021-03-06T11:28:15Z</time>
      </trkpt>
      <trkpt lat="42.73529" lon="1.52997">
        <ele>2050.526</ele>
        <time>2021-03-06T11:28:17Z</time>
      </trkpt>
      <trkpt lat="42.73529" lon="1.52997">
        <ele>2050.467</ele>
        <time>2021-03-06T11:28:19Z</time>
      </trkpt>
      <trkpt lat="42.73529" lon="1.52997">
        <ele>2050.457</ele>
        <time>2021-03-06T11:28:21Z</time>
      </trkpt>
      <trkpt lat="42.73529" lon="1.52997">
        <ele>2050.451</ele>
        <time>2021-03-06T11:28:23Z</time>
      </trkpt>
      <trkpt lat="42.73529" lon="1.52997">
        <ele>2050.452</ele>
        <time>2021-03-06T11:28:25Z</time>
      </trkpt>
      <trkpt lat="42.73529" lon="1.52997">
        <ele>2050.566</ele>
        <time>2021-03-06T11:28:27Z</time>
      </trkpt>
      <trkpt lat="42.73528" lon="1.52997">
        <ele>2050.727</ele>
        <time>2021-03-06T11:28:29Z</time>
      </trkpt>
      <trkpt lat="42.73528" lon="1.52997">
        <ele>2050.729</ele>
        <time>2021-03-06T11:28:31Z</time>
      </trkpt>
      <trkpt lat="42.73529" lon="1.52996">
        <ele>2050.624</ele>
        <time>2021-03-06T11:28:33Z</time>
      </trkpt>
      <trkpt lat="42.73529" lon="1.52995">
        <ele>2050.225</ele>
        <time>2021-03-06T11:28:35Z</time>
      </trkpt>
      <trkpt lat="42.73529" lon="1.52994">
        <ele>2050.046</ele>
        <time>2021-03-06T11:28:37Z</time>
      </trkpt>
      <trkpt lat="42.73529" lon="1.52994">
        <ele>2050.035</ele>
        <time>2021-03-06T11:28:39Z</time>
      </trkpt>
      <trkpt lat="42.73529" lon="1.52994">
        <ele>2050.028</ele>
        <time>2021-03-06T11:28:41Z</time>
      </trkpt>
      <trkpt lat="42.73529" lon="1.52994">
        <ele>2050.018</ele>
        <time>2021-03-06T11:28:43Z</time>
      </trkpt>
      <trkpt lat="42.73529" lon="1.52994">
        <ele>2050.069</ele>
        <time>2021-03-06T11:28:45Z</time>
      </trkpt>
      <trkpt lat="42.73529" lon="1.52994">
        <ele>2050.081</ele>
        <time>2021-03-06T11:28:46Z</time>
      </trkpt>
      <trkpt lat="42.73529" lon="1.52993">
        <ele>2049.566</ele>
        <time>2021-03-06T11:28:49Z</time>
      </trkpt>
      <trkpt lat="42.73529" lon="1.52993">
        <ele>2050.058</ele>
        <time>2021-03-06T11:28:51Z</time>
      </trkpt>
      <trkpt lat="42.73529" lon="1.52993">
        <ele>2050.062</ele>
        <time>2021-03-06T11:28:53Z</time>
      </trkpt>
      <trkpt lat="42.73529" lon="1.52993">
        <ele>2050.207</ele>
        <time>2021-03-06T11:28:55Z</time>
      </trkpt>
      <trkpt lat="42.73529" lon="1.52993">
        <ele>2050.233</ele>
        <time>2021-03-06T11:28:57Z</time>
      </trkpt>
      <trkpt lat="42.73529" lon="1.52993">
        <ele>2050.227</ele>
        <time>2021-03-06T11:28:59Z</time>
      </trkpt>
      <trkpt lat="42.73529" lon="1.52993">
        <ele>2050.228</ele>
        <time>2021-03-06T11:29:01Z</time>
      </trkpt>
      <trkpt lat="42.73529" lon="1.52993">
        <ele>2050.225</ele>
        <time>2021-03-06T11:29:03Z</time>
      </trkpt>
      <trkpt lat="42.73529" lon="1.52993">
        <ele>2050.226</ele>
        <time>2021-03-06T11:29:05Z</time>
      </trkpt>
      <trkpt lat="42.73529" lon="1.52993">
        <ele>2050.231</ele>
        <time>2021-03-06T11:29:07Z</time>
      </trkpt>
      <trkpt lat="42.73529" lon="1.52993">
        <ele>2050.23</ele>
        <time>2021-03-06T11:29:09Z</time>
      </trkpt>
      <trkpt lat="42.73529" lon="1.52993">
        <ele>2050.231</ele>
        <time>2021-03-06T11:29:11Z</time>
      </trkpt>
      <trkpt lat="42.73529" lon="1.52993">
        <ele>2050.234</ele>
        <time>2021-03-06T11:29:13Z</time>
      </trkpt>
      <trkpt lat="42.73529" lon="1.52993">
        <ele>2050.238</ele>
        <time>2021-03-06T11:29:15Z</time>
      </trkpt>
      <trkpt lat="42.73529" lon="1.52993">
        <ele>2050.237</ele>
        <time>2021-03-06T11:29:17Z</time>
      </trkpt>
      <trkpt lat="42.73529" lon="1.52993">
        <ele>2050.233</ele>
        <time>2021-03-06T11:29:19Z</time>
      </trkpt>
      <trkpt lat="42.73529" lon="1.52993">
        <ele>2050.23</ele>
        <time>2021-03-06T11:29:21Z</time>
      </trkpt>
      <trkpt lat="42.73529" lon="1.52993">
        <ele>2050.221</ele>
        <time>2021-03-06T11:29:23Z</time>
      </trkpt>
      <trkpt lat="42.73529" lon="1.52993">
        <ele>2050.219</ele>
        <time>2021-03-06T11:29:25Z</time>
      </trkpt>
      <trkpt lat="42.73528" lon="1.52993">
        <ele>2050.713</ele>
        <time>2021-03-06T11:29:28Z</time>
      </trkpt>
      <trkpt lat="42.73528" lon="1.52993">
        <ele>2050.917</ele>
        <time>2021-03-06T11:29:30Z</time>
      </trkpt>
      <trkpt lat="42.73528" lon="1.52993">
        <ele>2050.914</ele>
        <time>2021-03-06T11:29:32Z</time>
      </trkpt>
      <trkpt lat="42.73528" lon="1.52993">
        <ele>2050.911</ele>
        <time>2021-03-06T11:29:34Z</time>
      </trkpt>
      <trkpt lat="42.73528" lon="1.52993">
        <ele>2050.905</ele>
        <time>2021-03-06T11:29:36Z</time>
      </trkpt>
      <trkpt lat="42.73528" lon="1.52993">
        <ele>2050.906</ele>
        <time>2021-03-06T11:29:38Z</time>
      </trkpt>
      <trkpt lat="42.73528" lon="1.52993">
        <ele>2050.491</ele>
        <time>2021-03-06T11:29:40Z</time>
      </trkpt>
      <trkpt lat="42.73528" lon="1.52993">
        <ele>2050.477</ele>
        <time>2021-03-06T11:29:42Z</time>
      </trkpt>
      <trkpt lat="42.73528" lon="1.52993">
        <ele>2050.471</ele>
        <time>2021-03-06T11:29:44Z</time>
      </trkpt>
      <trkpt lat="42.73528" lon="1.52993">
        <ele>2050.469</ele>
        <time>2021-03-06T11:29:46Z</time>
      </trkpt>
      <trkpt lat="42.73528" lon="1.52993">
        <ele>2050.468</ele>
        <time>2021-03-06T11:29:48Z</time>
      </trkpt>
      <trkpt lat="42.73528" lon="1.52993">
        <ele>2050.467</ele>
        <time>2021-03-06T11:29:50Z</time>
      </trkpt>
      <trkpt lat="42.73529" lon="1.52993">
        <ele>2050.23</ele>
        <time>2021-03-06T11:29:52Z</time>
      </trkpt>
      <trkpt lat="42.73529" lon="1.52993">
        <ele>2050.35</ele>
        <time>2021-03-06T11:29:54Z</time>
      </trkpt>
      <trkpt lat="42.73531" lon="1.52993">
        <ele>2050.312</ele>
        <time>2021-03-06T11:29:56Z</time>
      </trkpt>
      <trkpt lat="42.73531" lon="1.52993">
        <ele>2050.204</ele>
        <time>2021-03-06T11:29:58Z</time>
      </trkpt>
      <trkpt lat="42.73532" lon="1.52993">
        <ele>2050.306</ele>
        <time>2021-03-06T11:30:00Z</time>
      </trkpt>
      <trkpt lat="42.73532" lon="1.52994">
        <ele>2050.182</ele>
        <time>2021-03-06T11:30:02Z</time>
      </trkpt>
      <trkpt lat="42.73532" lon="1.52994">
        <ele>2050.18</ele>
        <time>2021-03-06T11:30:04Z</time>
      </trkpt>
      <trkpt lat="42.73532" lon="1.52994">
        <ele>2050.117</ele>
        <time>2021-03-06T11:30:06Z</time>
      </trkpt>
      <trkpt lat="42.73532" lon="1.52994">
        <ele>2050.11</ele>
        <time>2021-03-06T11:30:08Z</time>
      </trkpt>
      <trkpt lat="42.73532" lon="1.52994">
        <ele>2050.112</ele>
        <time>2021-03-06T11:30:10Z</time>
      </trkpt>
      <trkpt lat="42.73532" lon="1.52994">
        <ele>2050.116</ele>
        <time>2021-03-06T11:30:12Z</time>
      </trkpt>
      <trkpt lat="42.73532" lon="1.52994">
        <ele>2050.111</ele>
        <time>2021-03-06T11:30:14Z</time>
      </trkpt>
      <trkpt lat="42.73532" lon="1.52994">
        <ele>2050.107</ele>
        <time>2021-03-06T11:30:16Z</time>
      </trkpt>
      <trkpt lat="42.73532" lon="1.52994">
        <ele>2050.109</ele>
        <time>2021-03-06T11:30:18Z</time>
      </trkpt>
      <trkpt lat="42.73532" lon="1.52994">
        <ele>2050.108</ele>
        <time>2021-03-06T11:30:20Z</time>
      </trkpt>
      <trkpt lat="42.73532" lon="1.52994">
        <ele>2050.108</ele>
        <time>2021-03-06T11:30:22Z</time>
      </trkpt>
      <trkpt lat="42.73532" lon="1.52994">
        <ele>2050.106</ele>
        <time>2021-03-06T11:30:24Z</time>
      </trkpt>
      <trkpt lat="42.73532" lon="1.52994">
        <ele>2050.112</ele>
        <time>2021-03-06T11:30:26Z</time>
      </trkpt>
      <trkpt lat="42.73532" lon="1.52994">
        <ele>2050.107</ele>
        <time>2021-03-06T11:30:28Z</time>
      </trkpt>
      <trkpt lat="42.73532" lon="1.52994">
        <ele>2050.107</ele>
        <time>2021-03-06T11:30:30Z</time>
      </trkpt>
      <trkpt lat="42.73532" lon="1.52994">
        <ele>2050.109</ele>
        <time>2021-03-06T11:30:32Z</time>
      </trkpt>
      <trkpt lat="42.73532" lon="1.52994">
        <ele>2050.103</ele>
        <time>2021-03-06T11:30:34Z</time>
      </trkpt>
      <trkpt lat="42.73532" lon="1.52994">
        <ele>2050.107</ele>
        <time>2021-03-06T11:30:36Z</time>
      </trkpt>
      <trkpt lat="42.73532" lon="1.52994">
        <ele>2050.109</ele>
        <time>2021-03-06T11:30:38Z</time>
      </trkpt>
      <trkpt lat="42.73532" lon="1.52994">
        <ele>2050.11</ele>
        <time>2021-03-06T11:30:40Z</time>
      </trkpt>
      <trkpt lat="42.73532" lon="1.52994">
        <ele>2050.103</ele>
        <time>2021-03-06T11:30:42Z</time>
      </trkpt>
      <trkpt lat="42.73532" lon="1.52994">
        <ele>2050.099</ele>
        <time>2021-03-06T11:30:44Z</time>
      </trkpt>
      <trkpt lat="42.73532" lon="1.52994">
        <ele>2050.098</ele>
        <time>2021-03-06T11:30:46Z</time>
      </trkpt>
      <trkpt lat="42.73532" lon="1.52994">
        <ele>2050.099</ele>
        <time>2021-03-06T11:30:48Z</time>
      </trkpt>
      <trkpt lat="42.73532" lon="1.52994">
        <ele>2050.099</ele>
        <time>2021-03-06T11:30:50Z</time>
      </trkpt>
      <trkpt lat="42.73532" lon="1.52994">
        <ele>2050.094</ele>
        <time>2021-03-06T11:30:52Z</time>
      </trkpt>
      <trkpt lat="42.73532" lon="1.52995">
        <ele>2050.492</ele>
        <time>2021-03-06T11:30:54Z</time>
      </trkpt>
      <trkpt lat="42.73531" lon="1.52996">
        <ele>2051.099</ele>
        <time>2021-03-06T11:30:56Z</time>
      </trkpt>
      <trkpt lat="42.73531" lon="1.52996">
        <ele>2051.515</ele>
        <time>2021-03-06T11:30:58Z</time>
      </trkpt>
      <trkpt lat="42.73531" lon="1.52996">
        <ele>2051.507</ele>
        <time>2021-03-06T11:31:00Z</time>
      </trkpt>
      <trkpt lat="42.73531" lon="1.52996">
        <ele>2051.503</ele>
        <time>2021-03-06T11:31:02Z</time>
      </trkpt>
      <trkpt lat="42.73531" lon="1.52996">
        <ele>2051.508</ele>
        <time>2021-03-06T11:31:04Z</time>
      </trkpt>
      <trkpt lat="42.73531" lon="1.52996">
        <ele>2051.512</ele>
        <time>2021-03-06T11:31:06Z</time>
      </trkpt>
      <trkpt lat="42.73531" lon="1.52996">
        <ele>2051.515</ele>
        <time>2021-03-06T11:31:08Z</time>
      </trkpt>
      <trkpt lat="42.73531" lon="1.52996">
        <ele>2051.501</ele>
        <time>2021-03-06T11:31:10Z</time>
      </trkpt>
      <trkpt lat="42.73531" lon="1.52996">
        <ele>2051.496</ele>
        <time>2021-03-06T11:31:12Z</time>
      </trkpt>
      <trkpt lat="42.73531" lon="1.52996">
        <ele>2051.48</ele>
        <time>2021-03-06T11:31:14Z</time>
      </trkpt>
      <trkpt lat="42.73531" lon="1.52996">
        <ele>2051.468</ele>
        <time>2021-03-06T11:31:16Z</time>
      </trkpt>
      <trkpt lat="42.73531" lon="1.52996">
        <ele>2051.371</ele>
        <time>2021-03-06T11:31:18Z</time>
      </trkpt>
      <trkpt lat="42.73531" lon="1.52995">
        <ele>2051.409</ele>
        <time>2021-03-06T11:31:20Z</time>
      </trkpt>
      <trkpt lat="42.7353" lon="1.52994">
        <ele>2051.417</ele>
        <time>2021-03-06T11:31:22Z</time>
      </trkpt>
      <trkpt lat="42.73529" lon="1.52993">
        <ele>2051.452</ele>
        <time>2021-03-06T11:31:24Z</time>
      </trkpt>
      <trkpt lat="42.73529" lon="1.52993">
        <ele>2051.744</ele>
        <time>2021-03-06T11:31:26Z</time>
      </trkpt>
      <trkpt lat="42.73529" lon="1.52993">
        <ele>2051.747</ele>
        <time>2021-03-06T11:31:28Z</time>
      </trkpt>
      <trkpt lat="42.73529" lon="1.52993">
        <ele>2051.75</ele>
        <time>2021-03-06T11:31:30Z</time>
      </trkpt>
      <trkpt lat="42.73529" lon="1.52993">
        <ele>2051.754</ele>
        <time>2021-03-06T11:31:32Z</time>
      </trkpt>
      <trkpt lat="42.73529" lon="1.52993">
        <ele>2051.771</ele>
        <time>2021-03-06T11:31:34Z</time>
      </trkpt>
      <trkpt lat="42.7353" lon="1.52994">
        <ele>2052.019</ele>
        <time>2021-03-06T11:31:36Z</time>
      </trkpt>
      <trkpt lat="42.7353" lon="1.52994">
        <ele>2052.012</ele>
        <time>2021-03-06T11:31:38Z</time>
      </trkpt>
      <trkpt lat="42.7353" lon="1.52994">
        <ele>2052.011</ele>
        <time>2021-03-06T11:31:40Z</time>
      </trkpt>
      <trkpt lat="42.7353" lon="1.52994">
        <ele>2052.009</ele>
        <time>2021-03-06T11:31:42Z</time>
      </trkpt>
      <trkpt lat="42.7353" lon="1.52994">
        <ele>2052.014</ele>
        <time>2021-03-06T11:31:44Z</time>
      </trkpt>
      <trkpt lat="42.7353" lon="1.52994">
        <ele>2052.005</ele>
        <time>2021-03-06T11:31:46Z</time>
      </trkpt>
      <trkpt lat="42.7353" lon="1.52994">
        <ele>2052.004</ele>
        <time>2021-03-06T11:31:48Z</time>
      </trkpt>
      <trkpt lat="42.7353" lon="1.52994">
        <ele>2051.999</ele>
        <time>2021-03-06T11:31:50Z</time>
      </trkpt>
      <trkpt lat="42.7353" lon="1.52994">
        <ele>2051.99</ele>
        <time>2021-03-06T11:31:52Z</time>
      </trkpt>
      <trkpt lat="42.7353" lon="1.52994">
        <ele>2051.981</ele>
        <time>2021-03-06T11:31:54Z</time>
      </trkpt>
      <trkpt lat="42.7353" lon="1.52994">
        <ele>2051.97</ele>
        <time>2021-03-06T11:31:56Z</time>
      </trkpt>
      <trkpt lat="42.7353" lon="1.52994">
        <ele>2051.958</ele>
        <time>2021-03-06T11:31:58Z</time>
      </trkpt>
      <trkpt lat="42.7353" lon="1.52994">
        <ele>2051.95</ele>
        <time>2021-03-06T11:32:00Z</time>
      </trkpt>
      <trkpt lat="42.7353" lon="1.52994">
        <ele>2051.945</ele>
        <time>2021-03-06T11:32:02Z</time>
      </trkpt>
      <trkpt lat="42.7353" lon="1.52994">
        <ele>2051.945</ele>
        <time>2021-03-06T11:32:04Z</time>
      </trkpt>
      <trkpt lat="42.7353" lon="1.52994">
        <ele>2051.94</ele>
        <time>2021-03-06T11:32:06Z</time>
      </trkpt>
      <trkpt lat="42.7353" lon="1.52994">
        <ele>2051.94</ele>
        <time>2021-03-06T11:32:08Z</time>
      </trkpt>
      <trkpt lat="42.7353" lon="1.52994">
        <ele>2051.93</ele>
        <time>2021-03-06T11:32:10Z</time>
      </trkpt>
      <trkpt lat="42.7353" lon="1.52994">
        <ele>2051.926</ele>
        <time>2021-03-06T11:32:12Z</time>
      </trkpt>
      <trkpt lat="42.7353" lon="1.52994">
        <ele>2051.916</ele>
        <time>2021-03-06T11:32:14Z</time>
      </trkpt>
      <trkpt lat="42.7353" lon="1.52994">
        <ele>2051.905</ele>
        <time>2021-03-06T11:32:16Z</time>
      </trkpt>
      <trkpt lat="42.7353" lon="1.52994">
        <ele>2051.908</ele>
        <time>2021-03-06T11:32:18Z</time>
      </trkpt>
      <trkpt lat="42.7353" lon="1.52994">
        <ele>2051.903</ele>
        <time>2021-03-06T11:32:20Z</time>
      </trkpt>
      <trkpt lat="42.7353" lon="1.52995">
        <ele>2051.89</ele>
        <time>2021-03-06T11:32:22Z</time>
      </trkpt>
      <trkpt lat="42.7353" lon="1.52995">
        <ele>2051.74</ele>
        <time>2021-03-06T11:32:24Z</time>
      </trkpt>
      <trkpt lat="42.7353" lon="1.52995">
        <ele>2051.732</ele>
        <time>2021-03-06T11:32:26Z</time>
      </trkpt>
      <trkpt lat="42.7353" lon="1.52995">
        <ele>2051.722</ele>
        <time>2021-03-06T11:32:28Z</time>
      </trkpt>
      <trkpt lat="42.7353" lon="1.52995">
        <ele>2051.713</ele>
        <time>2021-03-06T11:32:30Z</time>
      </trkpt>
      <trkpt lat="42.7353" lon="1.52995">
        <ele>2051.711</ele>
        <time>2021-03-06T11:32:32Z</time>
      </trkpt>
      <trkpt lat="42.7353" lon="1.52995">
        <ele>2051.708</ele>
        <time>2021-03-06T11:32:34Z</time>
      </trkpt>
      <trkpt lat="42.7353" lon="1.52995">
        <ele>2051.705</ele>
        <time>2021-03-06T11:32:36Z</time>
      </trkpt>
      <trkpt lat="42.7353" lon="1.52995">
        <ele>2051.704</ele>
        <time>2021-03-06T11:32:38Z</time>
      </trkpt>
      <trkpt lat="42.7353" lon="1.52995">
        <ele>2051.704</ele>
        <time>2021-03-06T11:32:40Z</time>
      </trkpt>
      <trkpt lat="42.7353" lon="1.52995">
        <ele>2051.7</ele>
        <time>2021-03-06T11:32:42Z</time>
      </trkpt>
      <trkpt lat="42.7353" lon="1.52995">
        <ele>2051.701</ele>
        <time>2021-03-06T11:32:44Z</time>
      </trkpt>
      <trkpt lat="42.7353" lon="1.52995">
        <ele>2051.693</ele>
        <time>2021-03-06T11:32:46Z</time>
      </trkpt>
      <trkpt lat="42.7353" lon="1.52995">
        <ele>2051.82</ele>
        <time>2021-03-06T11:32:48Z</time>
      </trkpt>
      <trkpt lat="42.73529" lon="1.52996">
        <ele>2051.988</ele>
        <time>2021-03-06T11:32:50Z</time>
      </trkpt>
      <trkpt lat="42.73528" lon="1.52997">
        <ele>2051.884</ele>
        <time>2021-03-06T11:32:52Z</time>
      </trkpt>
      <trkpt lat="42.73528" lon="1.52998">
        <ele>2051.334</ele>
        <time>2021-03-06T11:32:54Z</time>
      </trkpt>
      <trkpt lat="42.73528" lon="1.52998">
        <ele>2051.334</ele>
        <time>2021-03-06T11:32:56Z</time>
      </trkpt>
      <trkpt lat="42.73528" lon="1.52998">
        <ele>2051.009</ele>
        <time>2021-03-06T11:32:58Z</time>
      </trkpt>
      <trkpt lat="42.73528" lon="1.52998">
        <ele>2051.357</ele>
        <time>2021-03-06T11:33:00Z</time>
      </trkpt>
      <trkpt lat="42.73528" lon="1.52998">
        <ele>2051.353</ele>
        <time>2021-03-06T11:33:02Z</time>
      </trkpt>
      <trkpt lat="42.73528" lon="1.52998">
        <ele>2051.358</ele>
        <time>2021-03-06T11:33:04Z</time>
      </trkpt>
      <trkpt lat="42.73528" lon="1.52998">
        <ele>2051.352</ele>
        <time>2021-03-06T11:33:06Z</time>
      </trkpt>
      <trkpt lat="42.73529" lon="1.52998">
        <ele>2051.448</ele>
        <time>2021-03-06T11:33:08Z</time>
      </trkpt>
      <trkpt lat="42.73529" lon="1.52998">
        <ele>2051.45</ele>
        <time>2021-03-06T11:33:10Z</time>
      </trkpt>
      <trkpt lat="42.73529" lon="1.52998">
        <ele>2051.452</ele>
        <time>2021-03-06T11:33:12Z</time>
      </trkpt>
      <trkpt lat="42.73529" lon="1.52998">
        <ele>2051.451</ele>
        <time>2021-03-06T11:33:14Z</time>
      </trkpt>
      <trkpt lat="42.73529" lon="1.52998">
        <ele>2051.443</ele>
        <time>2021-03-06T11:33:16Z</time>
      </trkpt>
      <trkpt lat="42.73529" lon="1.52998">
        <ele>2051.429</ele>
        <time>2021-03-06T11:33:18Z</time>
      </trkpt>
      <trkpt lat="42.73529" lon="1.52998">
        <ele>2051.411</ele>
        <time>2021-03-06T11:33:20Z</time>
      </trkpt>
      <trkpt lat="42.73529" lon="1.52998">
        <ele>2051.403</ele>
        <time>2021-03-06T11:33:22Z</time>
      </trkpt>
      <trkpt lat="42.73529" lon="1.52998">
        <ele>2051.393</ele>
        <time>2021-03-06T11:33:24Z</time>
      </trkpt>
      <trkpt lat="42.73529" lon="1.52998">
        <ele>2051.391</ele>
        <time>2021-03-06T11:33:26Z</time>
      </trkpt>
      <trkpt lat="42.73529" lon="1.52998">
        <ele>2051.387</ele>
        <time>2021-03-06T11:33:28Z</time>
      </trkpt>
      <trkpt lat="42.73529" lon="1.52998">
        <ele>2051.386</ele>
        <time>2021-03-06T11:33:30Z</time>
      </trkpt>
      <trkpt lat="42.73529" lon="1.52998">
        <ele>2051.386</ele>
        <time>2021-03-06T11:33:32Z</time>
      </trkpt>
      <trkpt lat="42.73529" lon="1.52998">
        <ele>2051.381</ele>
        <time>2021-03-06T11:33:34Z</time>
      </trkpt>
      <trkpt lat="42.73529" lon="1.52998">
        <ele>2051.38</ele>
        <time>2021-03-06T11:33:36Z</time>
      </trkpt>
      <trkpt lat="42.73529" lon="1.52998">
        <ele>2051.378</ele>
        <time>2021-03-06T11:33:38Z</time>
      </trkpt>
      <trkpt lat="42.73529" lon="1.52998">
        <ele>2051.556</ele>
        <time>2021-03-06T11:33:40Z</time>
      </trkpt>
      <trkpt lat="42.73529" lon="1.52998">
        <ele>2051.703</ele>
        <time>2021-03-06T11:33:42Z</time>
      </trkpt>
      <trkpt lat="42.73529" lon="1.52998">
        <ele>2051.725</ele>
        <time>2021-03-06T11:33:44Z</time>
      </trkpt>
      <trkpt lat="42.73529" lon="1.52998">
        <ele>2051.72</ele>
        <time>2021-03-06T11:33:46Z</time>
      </trkpt>
      <trkpt lat="42.73529" lon="1.52998">
        <ele>2051.719</ele>
        <time>2021-03-06T11:33:48Z</time>
      </trkpt>
      <trkpt lat="42.73529" lon="1.52998">
        <ele>2051.717</ele>
        <time>2021-03-06T11:33:50Z</time>
      </trkpt>
      <trkpt lat="42.73529" lon="1.52998">
        <ele>2051.712</ele>
        <time>2021-03-06T11:33:52Z</time>
      </trkpt>
      <trkpt lat="42.73529" lon="1.52998">
        <ele>2051.711</ele>
        <time>2021-03-06T11:33:54Z</time>
      </trkpt>
      <trkpt lat="42.73529" lon="1.52998">
        <ele>2051.705</ele>
        <time>2021-03-06T11:33:56Z</time>
      </trkpt>
      <trkpt lat="42.73529" lon="1.52998">
        <ele>2051.761</ele>
        <time>2021-03-06T11:33:58Z</time>
      </trkpt>
      <trkpt lat="42.73529" lon="1.52998">
        <ele>2051.178</ele>
        <time>2021-03-06T11:34:00Z</time>
      </trkpt>
      <trkpt lat="42.73529" lon="1.52999">
        <ele>2050.889</ele>
        <time>2021-03-06T11:34:02Z</time>
      </trkpt>
      <trkpt lat="42.7353" lon="1.53">
        <ele>2050.408</ele>
        <time>2021-03-06T11:34:04Z</time>
      </trkpt>
      <trkpt lat="42.7353" lon="1.53001">
        <ele>2050.408</ele>
        <time>2021-03-06T11:34:06Z</time>
      </trkpt>
      <trkpt lat="42.7353" lon="1.53">
        <ele>2050.232</ele>
        <time>2021-03-06T11:34:08Z</time>
      </trkpt>
      <trkpt lat="42.7353" lon="1.53">
        <ele>2049.983</ele>
        <time>2021-03-06T11:34:10Z</time>
      </trkpt>
      <trkpt lat="42.7353" lon="1.53">
        <ele>2049.566</ele>
        <time>2021-03-06T11:34:12Z</time>
      </trkpt>
      <trkpt lat="42.7353" lon="1.52999">
        <ele>2049.214</ele>
        <time>2021-03-06T11:34:14Z</time>
      </trkpt>
      <trkpt lat="42.7353" lon="1.52999">
        <ele>2049.218</ele>
        <time>2021-03-06T11:34:16Z</time>
      </trkpt>
      <trkpt lat="42.7353" lon="1.52999">
        <ele>2049.223</ele>
        <time>2021-03-06T11:34:18Z</time>
      </trkpt>
      <trkpt lat="42.7353" lon="1.52999">
        <ele>2049.227</ele>
        <time>2021-03-06T11:34:20Z</time>
      </trkpt>
      <trkpt lat="42.7353" lon="1.52999">
        <ele>2049.23</ele>
        <time>2021-03-06T11:34:22Z</time>
      </trkpt>
      <trkpt lat="42.7353" lon="1.53">
        <ele>2049.04</ele>
        <time>2021-03-06T11:34:24Z</time>
      </trkpt>
      <trkpt lat="42.7353" lon="1.53">
        <ele>2048.826</ele>
        <time>2021-03-06T11:34:26Z</time>
      </trkpt>
      <trkpt lat="42.7353" lon="1.53">
        <ele>2048.846</ele>
        <time>2021-03-06T11:34:28Z</time>
      </trkpt>
      <trkpt lat="42.7353" lon="1.53">
        <ele>2048.857</ele>
        <time>2021-03-06T11:34:30Z</time>
      </trkpt>
      <trkpt lat="42.7353" lon="1.52999">
        <ele>2048.765</ele>
        <time>2021-03-06T11:34:32Z</time>
      </trkpt>
      <trkpt lat="42.7353" lon="1.52999">
        <ele>2048.432</ele>
        <time>2021-03-06T11:34:34Z</time>
      </trkpt>
      <trkpt lat="42.7353" lon="1.52997">
        <ele>2048.495</ele>
        <time>2021-03-06T11:34:36Z</time>
      </trkpt>
      <trkpt lat="42.73529" lon="1.52996">
        <ele>2048.616</ele>
        <time>2021-03-06T11:34:38Z</time>
      </trkpt>
      <trkpt lat="42.73529" lon="1.52994">
        <ele>2048.73</ele>
        <time>2021-03-06T11:34:40Z</time>
      </trkpt>
      <trkpt lat="42.73529" lon="1.52994">
        <ele>2048.717</ele>
        <time>2021-03-06T11:34:42Z</time>
      </trkpt>
      <trkpt lat="42.73529" lon="1.52994">
        <ele>2048.711</ele>
        <time>2021-03-06T11:34:44Z</time>
      </trkpt>
      <trkpt lat="42.73529" lon="1.52994">
        <ele>2048.707</ele>
        <time>2021-03-06T11:34:46Z</time>
      </trkpt>
      <trkpt lat="42.73529" lon="1.52994">
        <ele>2048.696</ele>
        <time>2021-03-06T11:34:48Z</time>
      </trkpt>
      <trkpt lat="42.73529" lon="1.52994">
        <ele>2048.388</ele>
        <time>2021-03-06T11:34:50Z</time>
      </trkpt>
      <trkpt lat="42.73529" lon="1.52994">
        <ele>2048.396</ele>
        <time>2021-03-06T11:34:52Z</time>
      </trkpt>
      <trkpt lat="42.73529" lon="1.52994">
        <ele>2048.396</ele>
        <time>2021-03-06T11:34:54Z</time>
      </trkpt>
      <trkpt lat="42.73529" lon="1.52994">
        <ele>2048.399</ele>
        <time>2021-03-06T11:34:56Z</time>
      </trkpt>
      <trkpt lat="42.73529" lon="1.52994">
        <ele>2048.418</ele>
        <time>2021-03-06T11:34:58Z</time>
      </trkpt>
      <trkpt lat="42.73529" lon="1.52994">
        <ele>2048.421</ele>
        <time>2021-03-06T11:35:00Z</time>
      </trkpt>
      <trkpt lat="42.73529" lon="1.52995">
        <ele>2048.595</ele>
        <time>2021-03-06T11:35:02Z</time>
      </trkpt>
      <trkpt lat="42.73529" lon="1.52995">
        <ele>2048.586</ele>
        <time>2021-03-06T11:35:04Z</time>
      </trkpt>
      <trkpt lat="42.73529" lon="1.52995">
        <ele>2048.577</ele>
        <time>2021-03-06T11:35:06Z</time>
      </trkpt>
      <trkpt lat="42.73529" lon="1.52995">
        <ele>2048.571</ele>
        <time>2021-03-06T11:35:08Z</time>
      </trkpt>
      <trkpt lat="42.73529" lon="1.52995">
        <ele>2048.563</ele>
        <time>2021-03-06T11:35:10Z</time>
      </trkpt>
      <trkpt lat="42.73529" lon="1.52995">
        <ele>2048.561</ele>
        <time>2021-03-06T11:35:12Z</time>
      </trkpt>
      <trkpt lat="42.73529" lon="1.52995">
        <ele>2048.557</ele>
        <time>2021-03-06T11:35:14Z</time>
      </trkpt>
      <trkpt lat="42.73529" lon="1.52995">
        <ele>2048.549</ele>
        <time>2021-03-06T11:35:16Z</time>
      </trkpt>
      <trkpt lat="42.73529" lon="1.52995">
        <ele>2048.548</ele>
        <time>2021-03-06T11:35:18Z</time>
      </trkpt>
      <trkpt lat="42.73529" lon="1.52995">
        <ele>2048.543</ele>
        <time>2021-03-06T11:35:20Z</time>
      </trkpt>
      <trkpt lat="42.73529" lon="1.52995">
        <ele>2048.546</ele>
        <time>2021-03-06T11:35:22Z</time>
      </trkpt>
      <trkpt lat="42.73529" lon="1.52995">
        <ele>2048.544</ele>
        <time>2021-03-06T11:35:24Z</time>
      </trkpt>
      <trkpt lat="42.73529" lon="1.52995">
        <ele>2048.542</ele>
        <time>2021-03-06T11:35:26Z</time>
      </trkpt>
      <trkpt lat="42.73529" lon="1.52995">
        <ele>2048.537</ele>
        <time>2021-03-06T11:35:28Z</time>
      </trkpt>
      <trkpt lat="42.73529" lon="1.52995">
        <ele>2048.53</ele>
        <time>2021-03-06T11:35:30Z</time>
      </trkpt>
      <trkpt lat="42.73529" lon="1.52995">
        <ele>2048.53</ele>
        <time>2021-03-06T11:35:32Z</time>
      </trkpt>
      <trkpt lat="42.73529" lon="1.52995">
        <ele>2048.529</ele>
        <time>2021-03-06T11:35:34Z</time>
      </trkpt>
      <trkpt lat="42.73529" lon="1.52995">
        <ele>2048.527</ele>
        <time>2021-03-06T11:35:36Z</time>
      </trkpt>
      <trkpt lat="42.73529" lon="1.52995">
        <ele>2048.525</ele>
        <time>2021-03-06T11:35:38Z</time>
      </trkpt>
      <trkpt lat="42.73529" lon="1.52995">
        <ele>2048.516</ele>
        <time>2021-03-06T11:35:40Z</time>
      </trkpt>
      <trkpt lat="42.73529" lon="1.52995">
        <ele>2048.511</ele>
        <time>2021-03-06T11:35:42Z</time>
      </trkpt>
      <trkpt lat="42.73529" lon="1.52995">
        <ele>2048.507</ele>
        <time>2021-03-06T11:35:44Z</time>
      </trkpt>
      <trkpt lat="42.73529" lon="1.52995">
        <ele>2048.505</ele>
        <time>2021-03-06T11:35:46Z</time>
      </trkpt>
      <trkpt lat="42.73529" lon="1.52995">
        <ele>2048.504</ele>
        <time>2021-03-06T11:35:48Z</time>
      </trkpt>
      <trkpt lat="42.73529" lon="1.52995">
        <ele>2048.5</ele>
        <time>2021-03-06T11:35:50Z</time>
      </trkpt>
      <trkpt lat="42.73529" lon="1.52995">
        <ele>2048.497</ele>
        <time>2021-03-06T11:35:52Z</time>
      </trkpt>
      <trkpt lat="42.73529" lon="1.52995">
        <ele>2048.49</ele>
        <time>2021-03-06T11:35:54Z</time>
      </trkpt>
      <trkpt lat="42.73529" lon="1.52995">
        <ele>2048.488</ele>
        <time>2021-03-06T11:35:56Z</time>
      </trkpt>
      <trkpt lat="42.73529" lon="1.52995">
        <ele>2048.492</ele>
        <time>2021-03-06T11:35:58Z</time>
      </trkpt>
      <trkpt lat="42.73529" lon="1.52995">
        <ele>2048.492</ele>
        <time>2021-03-06T11:36:00Z</time>
      </trkpt>
      <trkpt lat="42.73529" lon="1.52995">
        <ele>2048.486</ele>
        <time>2021-03-06T11:36:02Z</time>
      </trkpt>
      <trkpt lat="42.73529" lon="1.52995">
        <ele>2048.486</ele>
        <time>2021-03-06T11:36:04Z</time>
      </trkpt>
      <trkpt lat="42.73529" lon="1.52995">
        <ele>2048.484</ele>
        <time>2021-03-06T11:36:06Z</time>
      </trkpt>
      <trkpt lat="42.73529" lon="1.52995">
        <ele>2048.477</ele>
        <time>2021-03-06T11:36:08Z</time>
      </trkpt>
      <trkpt lat="42.73529" lon="1.52995">
        <ele>2048.478</ele>
        <time>2021-03-06T11:36:10Z</time>
      </trkpt>
      <trkpt lat="42.73529" lon="1.52995">
        <ele>2048.471</ele>
        <time>2021-03-06T11:36:12Z</time>
      </trkpt>
      <trkpt lat="42.73529" lon="1.52995">
        <ele>2048.467</ele>
        <time>2021-03-06T11:36:14Z</time>
      </trkpt>
      <trkpt lat="42.73529" lon="1.52995">
        <ele>2048.468</ele>
        <time>2021-03-06T11:36:16Z</time>
      </trkpt>
      <trkpt lat="42.73529" lon="1.52995">
        <ele>2048.459</ele>
        <time>2021-03-06T11:36:18Z</time>
      </trkpt>
      <trkpt lat="42.73529" lon="1.52995">
        <ele>2048.453</ele>
        <time>2021-03-06T11:36:20Z</time>
      </trkpt>
      <trkpt lat="42.73529" lon="1.52995">
        <ele>2048.453</ele>
        <time>2021-03-06T11:36:22Z</time>
      </trkpt>
      <trkpt lat="42.73529" lon="1.52995">
        <ele>2048.442</ele>
        <time>2021-03-06T11:36:24Z</time>
      </trkpt>
      <trkpt lat="42.73529" lon="1.52995">
        <ele>2048.438</ele>
        <time>2021-03-06T11:36:26Z</time>
      </trkpt>
      <trkpt lat="42.73529" lon="1.52995">
        <ele>2048.438</ele>
        <time>2021-03-06T11:36:28Z</time>
      </trkpt>
      <trkpt lat="42.73529" lon="1.52995">
        <ele>2048.435</ele>
        <time>2021-03-06T11:36:30Z</time>
      </trkpt>
      <trkpt lat="42.73529" lon="1.52995">
        <ele>2048.432</ele>
        <time>2021-03-06T11:36:32Z</time>
      </trkpt>
      <trkpt lat="42.73529" lon="1.52995">
        <ele>2048.424</ele>
        <time>2021-03-06T11:36:34Z</time>
      </trkpt>
      <trkpt lat="42.73529" lon="1.52995">
        <ele>2048.413</ele>
        <time>2021-03-06T11:36:36Z</time>
      </trkpt>
      <trkpt lat="42.73529" lon="1.52995">
        <ele>2048.354</ele>
        <time>2021-03-06T11:36:38Z</time>
      </trkpt>
      <trkpt lat="42.73528" lon="1.52995">
        <ele>2048.175</ele>
        <time>2021-03-06T11:36:40Z</time>
      </trkpt>
      <trkpt lat="42.73528" lon="1.52995">
        <ele>2048.126</ele>
        <time>2021-03-06T11:36:42Z</time>
      </trkpt>
      <trkpt lat="42.73527" lon="1.52995">
        <ele>2049.092</ele>
        <time>2021-03-06T11:36:44Z</time>
      </trkpt>
      <trkpt lat="42.73527" lon="1.52995">
        <ele>2049.106</ele>
        <time>2021-03-06T11:36:46Z</time>
      </trkpt>
      <trkpt lat="42.73527" lon="1.52995">
        <ele>2049.107</ele>
        <time>2021-03-06T11:36:49Z</time>
      </trkpt>
      <trkpt lat="42.73527" lon="1.52995">
        <ele>2049.11</ele>
        <time>2021-03-06T11:36:51Z</time>
      </trkpt>
      <trkpt lat="42.73527" lon="1.52995">
        <ele>2049.106</ele>
        <time>2021-03-06T11:36:53Z</time>
      </trkpt>
      <trkpt lat="42.73527" lon="1.52995">
        <ele>2049.107</ele>
        <time>2021-03-06T11:36:55Z</time>
      </trkpt>
      <trkpt lat="42.73527" lon="1.52995">
        <ele>2049.104</ele>
        <time>2021-03-06T11:36:57Z</time>
      </trkpt>
      <trkpt lat="42.73527" lon="1.52995">
        <ele>2049.101</ele>
        <time>2021-03-06T11:36:59Z</time>
      </trkpt>
      <trkpt lat="42.73527" lon="1.52995">
        <ele>2049.108</ele>
        <time>2021-03-06T11:37:01Z</time>
      </trkpt>
      <trkpt lat="42.73527" lon="1.52995">
        <ele>2049.112</ele>
        <time>2021-03-06T11:37:03Z</time>
      </trkpt>
      <trkpt lat="42.73527" lon="1.52995">
        <ele>2049.119</ele>
        <time>2021-03-06T11:37:05Z</time>
      </trkpt>
      <trkpt lat="42.73527" lon="1.52996">
        <ele>2049.452</ele>
        <time>2021-03-06T11:37:07Z</time>
      </trkpt>
      <trkpt lat="42.73528" lon="1.52995">
        <ele>2049.6</ele>
        <time>2021-03-06T11:37:09Z</time>
      </trkpt>
      <trkpt lat="42.73529" lon="1.52994">
        <ele>2049.748</ele>
        <time>2021-03-06T11:37:11Z</time>
      </trkpt>
      <trkpt lat="42.7353" lon="1.52993">
        <ele>2049.408</ele>
        <time>2021-03-06T11:37:13Z</time>
      </trkpt>
      <trkpt lat="42.7353" lon="1.52992">
        <ele>2049.247</ele>
        <time>2021-03-06T11:37:15Z</time>
      </trkpt>
      <trkpt lat="42.73529" lon="1.52991">
        <ele>2048.955</ele>
        <time>2021-03-06T11:37:17Z</time>
      </trkpt>
      <trkpt lat="42.73529" lon="1.52989">
        <ele>2048.771</ele>
        <time>2021-03-06T11:37:19Z</time>
      </trkpt>
      <trkpt lat="42.73529" lon="1.52987">
        <ele>2048.583</ele>
        <time>2021-03-06T11:37:21Z</time>
      </trkpt>
      <trkpt lat="42.73528" lon="1.52986">
        <ele>2048.118</ele>
        <time>2021-03-06T11:37:22Z</time>
      </trkpt>
      <trkpt lat="42.73528" lon="1.52984">
        <ele>2047.181</ele>
        <time>2021-03-06T11:37:25Z</time>
      </trkpt>
      <trkpt lat="42.73527" lon="1.52982">
        <ele>2046.918</ele>
        <time>2021-03-06T11:37:27Z</time>
      </trkpt>
      <trkpt lat="42.73526" lon="1.5298">
        <ele>2046.773</ele>
        <time>2021-03-06T11:37:29Z</time>
      </trkpt>
      <trkpt lat="42.73527" lon="1.5298">
        <ele>2045.492</ele>
        <time>2021-03-06T11:37:31Z</time>
      </trkpt>
      <trkpt lat="42.73526" lon="1.52978">
        <ele>2045.658</ele>
        <time>2021-03-06T11:37:33Z</time>
      </trkpt>
      <trkpt lat="42.73526" lon="1.52975">
        <ele>2045.555</ele>
        <time>2021-03-06T11:37:35Z</time>
      </trkpt>
      <trkpt lat="42.73526" lon="1.52974">
        <ele>2044.703</ele>
        <time>2021-03-06T11:37:37Z</time>
      </trkpt>
      <trkpt lat="42.73526" lon="1.52972">
        <ele>2044.314</ele>
        <time>2021-03-06T11:37:39Z</time>
      </trkpt>
      <trkpt lat="42.73526" lon="1.5297">
        <ele>2043.991</ele>
        <time>2021-03-06T11:37:41Z</time>
      </trkpt>
      <trkpt lat="42.73526" lon="1.52969">
        <ele>2043.776</ele>
        <time>2021-03-06T11:37:43Z</time>
      </trkpt>
      <trkpt lat="42.73526" lon="1.52967">
        <ele>2043.256</ele>
        <time>2021-03-06T11:37:45Z</time>
      </trkpt>
      <trkpt lat="42.73526" lon="1.52965">
        <ele>2043.408</ele>
        <time>2021-03-06T11:37:47Z</time>
      </trkpt>
      <trkpt lat="42.73525" lon="1.52963">
        <ele>2042.918</ele>
        <time>2021-03-06T11:37:49Z</time>
      </trkpt>
      <trkpt lat="42.73525" lon="1.52961">
        <ele>2042.762</ele>
        <time>2021-03-06T11:37:51Z</time>
      </trkpt>
      <trkpt lat="42.73525" lon="1.52959">
        <ele>2042.676</ele>
        <time>2021-03-06T11:37:53Z</time>
      </trkpt>
      <trkpt lat="42.73526" lon="1.52957">
        <ele>2042.457</ele>
        <time>2021-03-06T11:37:55Z</time>
      </trkpt>
      <trkpt lat="42.73525" lon="1.52955">
        <ele>2043.043</ele>
        <time>2021-03-06T11:37:57Z</time>
      </trkpt>
      <trkpt lat="42.73526" lon="1.52953">
        <ele>2043.141</ele>
        <time>2021-03-06T11:37:59Z</time>
      </trkpt>
      <trkpt lat="42.73525" lon="1.52951">
        <ele>2043.619</ele>
        <time>2021-03-06T11:38:01Z</time>
      </trkpt>
      <trkpt lat="42.73524" lon="1.5295">
        <ele>2043.218</ele>
        <time>2021-03-06T11:38:03Z</time>
      </trkpt>
      <trkpt lat="42.73523" lon="1.52948">
        <ele>2042.967</ele>
        <time>2021-03-06T11:38:05Z</time>
      </trkpt>
      <trkpt lat="42.73522" lon="1.52947">
        <ele>2043.235</ele>
        <time>2021-03-06T11:38:07Z</time>
      </trkpt>
      <trkpt lat="42.73521" lon="1.52945">
        <ele>2043.282</ele>
        <time>2021-03-06T11:38:09Z</time>
      </trkpt>
      <trkpt lat="42.7352" lon="1.52944">
        <ele>2043.589</ele>
        <time>2021-03-06T11:38:11Z</time>
      </trkpt>
      <trkpt lat="42.73519" lon="1.52943">
        <ele>2043.306</ele>
        <time>2021-03-06T11:38:13Z</time>
      </trkpt>
      <trkpt lat="42.73518" lon="1.52941">
        <ele>2043.991</ele>
        <time>2021-03-06T11:38:15Z</time>
      </trkpt>
      <trkpt lat="42.73517" lon="1.5294">
        <ele>2044.331</ele>
        <time>2021-03-06T11:38:17Z</time>
      </trkpt>
      <trkpt lat="42.73515" lon="1.52938">
        <ele>2044.61</ele>
        <time>2021-03-06T11:38:19Z</time>
      </trkpt>
      <trkpt lat="42.73514" lon="1.52937">
        <ele>2045.601</ele>
        <time>2021-03-06T11:38:21Z</time>
      </trkpt>
      <trkpt lat="42.73513" lon="1.52936">
        <ele>2045.639</ele>
        <time>2021-03-06T11:38:23Z</time>
      </trkpt>
      <trkpt lat="42.73511" lon="1.52935">
        <ele>2045.623</ele>
        <time>2021-03-06T11:38:25Z</time>
      </trkpt>
      <trkpt lat="42.7351" lon="1.52934">
        <ele>2045.71</ele>
        <time>2021-03-06T11:38:27Z</time>
      </trkpt>
      <trkpt lat="42.73508" lon="1.52932">
        <ele>2045.937</ele>
        <time>2021-03-06T11:38:29Z</time>
      </trkpt>
      <trkpt lat="42.73507" lon="1.52931">
        <ele>2045.94</ele>
        <time>2021-03-06T11:38:31Z</time>
      </trkpt>
      <trkpt lat="42.73506" lon="1.5293">
        <ele>2046.175</ele>
        <time>2021-03-06T11:38:33Z</time>
      </trkpt>
      <trkpt lat="42.73505" lon="1.52929">
        <ele>2045.91</ele>
        <time>2021-03-06T11:38:35Z</time>
      </trkpt>
      <trkpt lat="42.73504" lon="1.52928">
        <ele>2046.37</ele>
        <time>2021-03-06T11:38:37Z</time>
      </trkpt>
      <trkpt lat="42.73502" lon="1.52926">
        <ele>2046.495</ele>
        <time>2021-03-06T11:38:39Z</time>
      </trkpt>
      <trkpt lat="42.73501" lon="1.52925">
        <ele>2046.469</ele>
        <time>2021-03-06T11:38:41Z</time>
      </trkpt>
      <trkpt lat="42.735" lon="1.52924">
        <ele>2046.68</ele>
        <time>2021-03-06T11:38:43Z</time>
      </trkpt>
      <trkpt lat="42.73499" lon="1.52923">
        <ele>2046.837</ele>
        <time>2021-03-06T11:38:45Z</time>
      </trkpt>
      <trkpt lat="42.73498" lon="1.52922">
        <ele>2046.838</ele>
        <time>2021-03-06T11:38:47Z</time>
      </trkpt>
      <trkpt lat="42.73496" lon="1.5292">
        <ele>2046.656</ele>
        <time>2021-03-06T11:38:49Z</time>
      </trkpt>
      <trkpt lat="42.73495" lon="1.5292">
        <ele>2047.024</ele>
        <time>2021-03-06T11:38:51Z</time>
      </trkpt>
      <trkpt lat="42.73493" lon="1.52919">
        <ele>2046.585</ele>
        <time>2021-03-06T11:38:53Z</time>
      </trkpt>
      <trkpt lat="42.73492" lon="1.52919">
        <ele>2046.655</ele>
        <time>2021-03-06T11:38:55Z</time>
      </trkpt>
      <trkpt lat="42.73491" lon="1.52919">
        <ele>2046.31</ele>
        <time>2021-03-06T11:38:57Z</time>
      </trkpt>
      <trkpt lat="42.73491" lon="1.52919">
        <ele>2046.313</ele>
        <time>2021-03-06T11:38:59Z</time>
      </trkpt>
      <trkpt lat="42.73491" lon="1.52919">
        <ele>2046.304</ele>
        <time>2021-03-06T11:39:01Z</time>
      </trkpt>
      <trkpt lat="42.73491" lon="1.52919">
        <ele>2046.304</ele>
        <time>2021-03-06T11:39:03Z</time>
      </trkpt>
      <trkpt lat="42.73491" lon="1.52919">
        <ele>2046.299</ele>
        <time>2021-03-06T11:39:05Z</time>
      </trkpt>
      <trkpt lat="42.7349" lon="1.52919">
        <ele>2046.132</ele>
        <time>2021-03-06T11:39:07Z</time>
      </trkpt>
      <trkpt lat="42.7349" lon="1.52919">
        <ele>2046.098</ele>
        <time>2021-03-06T11:39:09Z</time>
      </trkpt>
      <trkpt lat="42.7349" lon="1.52919">
        <ele>2046.098</ele>
        <time>2021-03-06T11:39:11Z</time>
      </trkpt>
      <trkpt lat="42.7349" lon="1.52919">
        <ele>2046.097</ele>
        <time>2021-03-06T11:39:13Z</time>
      </trkpt>
      <trkpt lat="42.7349" lon="1.52919">
        <ele>2046.099</ele>
        <time>2021-03-06T11:39:15Z</time>
      </trkpt>
      <trkpt lat="42.7349" lon="1.52919">
        <ele>2046.097</ele>
        <time>2021-03-06T11:39:17Z</time>
      </trkpt>
      <trkpt lat="42.7349" lon="1.52919">
        <ele>2046.098</ele>
        <time>2021-03-06T11:39:19Z</time>
      </trkpt>
      <trkpt lat="42.7349" lon="1.52919">
        <ele>2046.096</ele>
        <time>2021-03-06T11:39:21Z</time>
      </trkpt>
      <trkpt lat="42.7349" lon="1.52919">
        <ele>2046.093</ele>
        <time>2021-03-06T11:39:23Z</time>
      </trkpt>
      <trkpt lat="42.7349" lon="1.52919">
        <ele>2046.093</ele>
        <time>2021-03-06T11:39:25Z</time>
      </trkpt>
      <trkpt lat="42.7349" lon="1.52919">
        <ele>2046.089</ele>
        <time>2021-03-06T11:39:27Z</time>
      </trkpt>
      <trkpt lat="42.7349" lon="1.52919">
        <ele>2045.952</ele>
        <time>2021-03-06T11:39:29Z</time>
      </trkpt>
      <trkpt lat="42.73489" lon="1.52919">
        <ele>2045.838</ele>
        <time>2021-03-06T11:39:31Z</time>
      </trkpt>
      <trkpt lat="42.73489" lon="1.52919">
        <ele>2045.814</ele>
        <time>2021-03-06T11:39:33Z</time>
      </trkpt>
      <trkpt lat="42.73489" lon="1.52919">
        <ele>2045.816</ele>
        <time>2021-03-06T11:39:35Z</time>
      </trkpt>
      <trkpt lat="42.73489" lon="1.52919">
        <ele>2045.816</ele>
        <time>2021-03-06T11:39:37Z</time>
      </trkpt>
      <trkpt lat="42.7349" lon="1.52919">
        <ele>2045.872</ele>
        <time>2021-03-06T11:39:39Z</time>
      </trkpt>
      <trkpt lat="42.73491" lon="1.5292">
        <ele>2045.848</ele>
        <time>2021-03-06T11:39:41Z</time>
      </trkpt>
      <trkpt lat="42.73492" lon="1.5292">
        <ele>2045.577</ele>
        <time>2021-03-06T11:39:43Z</time>
      </trkpt>
      <trkpt lat="42.73493" lon="1.52921">
        <ele>2045.487</ele>
        <time>2021-03-06T11:39:45Z</time>
      </trkpt>
      <trkpt lat="42.73494" lon="1.52922">
        <ele>2045.302</ele>
        <time>2021-03-06T11:39:47Z</time>
      </trkpt>
      <trkpt lat="42.73494" lon="1.52924">
        <ele>2045.549</ele>
        <time>2021-03-06T11:39:49Z</time>
      </trkpt>
      <trkpt lat="42.73495" lon="1.52924">
        <ele>2045.689</ele>
        <time>2021-03-06T11:39:51Z</time>
      </trkpt>
      <trkpt lat="42.73496" lon="1.52924">
        <ele>2045.676</ele>
        <time>2021-03-06T11:39:53Z</time>
      </trkpt>
      <trkpt lat="42.73496" lon="1.52924">
        <ele>2045.674</ele>
        <time>2021-03-06T11:39:55Z</time>
      </trkpt>
      <trkpt lat="42.73496" lon="1.52924">
        <ele>2045.583</ele>
        <time>2021-03-06T11:39:57Z</time>
      </trkpt>
      <trkpt lat="42.73497" lon="1.52925">
        <ele>2045.585</ele>
        <time>2021-03-06T11:39:59Z</time>
      </trkpt>
      <trkpt lat="42.73498" lon="1.52926">
        <ele>2045.259</ele>
        <time>2021-03-06T11:40:01Z</time>
      </trkpt>
      <trkpt lat="42.73499" lon="1.52926">
        <ele>2044.989</ele>
        <time>2021-03-06T11:40:03Z</time>
      </trkpt>
      <trkpt lat="42.735" lon="1.52926">
        <ele>2044.881</ele>
        <time>2021-03-06T11:40:05Z</time>
      </trkpt>
      <trkpt lat="42.73502" lon="1.52926">
        <ele>2044.681</ele>
        <time>2021-03-06T11:40:07Z</time>
      </trkpt>
      <trkpt lat="42.73504" lon="1.52927">
        <ele>2043.931</ele>
        <time>2021-03-06T11:40:10Z</time>
      </trkpt>
      <trkpt lat="42.73505" lon="1.52927">
        <ele>2043.98</ele>
        <time>2021-03-06T11:40:12Z</time>
      </trkpt>
      <trkpt lat="42.73506" lon="1.52928">
        <ele>2044.285</ele>
        <time>2021-03-06T11:40:14Z</time>
      </trkpt>
      <trkpt lat="42.73507" lon="1.52928">
        <ele>2044.1</ele>
        <time>2021-03-06T11:40:16Z</time>
      </trkpt>
      <trkpt lat="42.73509" lon="1.52928">
        <ele>2044.034</ele>
        <time>2021-03-06T11:40:18Z</time>
      </trkpt>
      <trkpt lat="42.7351" lon="1.5293">
        <ele>2043.679</ele>
        <time>2021-03-06T11:40:20Z</time>
      </trkpt>
      <trkpt lat="42.73512" lon="1.52932">
        <ele>2043.702</ele>
        <time>2021-03-06T11:40:22Z</time>
      </trkpt>
      <trkpt lat="42.73513" lon="1.52934">
        <ele>2043.749</ele>
        <time>2021-03-06T11:40:24Z</time>
      </trkpt>
      <trkpt lat="42.73514" lon="1.52935">
        <ele>2043.521</ele>
        <time>2021-03-06T11:40:26Z</time>
      </trkpt>
      <trkpt lat="42.73515" lon="1.52936">
        <ele>2043.37</ele>
        <time>2021-03-06T11:40:28Z</time>
      </trkpt>
      <trkpt lat="42.73516" lon="1.52938">
        <ele>2043.483</ele>
        <time>2021-03-06T11:40:30Z</time>
      </trkpt>
      <trkpt lat="42.73517" lon="1.52939">
        <ele>2043.856</ele>
        <time>2021-03-06T11:40:32Z</time>
      </trkpt>
      <trkpt lat="42.73519" lon="1.52939">
        <ele>2044.172</ele>
        <time>2021-03-06T11:40:34Z</time>
      </trkpt>
      <trkpt lat="42.73521" lon="1.5294">
        <ele>2044.109</ele>
        <time>2021-03-06T11:40:36Z</time>
      </trkpt>
      <trkpt lat="42.73522" lon="1.52941">
        <ele>2043.867</ele>
        <time>2021-03-06T11:40:38Z</time>
      </trkpt>
      <trkpt lat="42.73523" lon="1.52942">
        <ele>2043.694</ele>
        <time>2021-03-06T11:40:40Z</time>
      </trkpt>
      <trkpt lat="42.73524" lon="1.52943">
        <ele>2043.896</ele>
        <time>2021-03-06T11:40:42Z</time>
      </trkpt>
      <trkpt lat="42.73525" lon="1.52944">
        <ele>2043.857</ele>
        <time>2021-03-06T11:40:44Z</time>
      </trkpt>
      <trkpt lat="42.73525" lon="1.52945">
        <ele>2043.643</ele>
        <time>2021-03-06T11:40:46Z</time>
      </trkpt>
      <trkpt lat="42.73525" lon="1.52945">
        <ele>2043.554</ele>
        <time>2021-03-06T11:40:48Z</time>
      </trkpt>
      <trkpt lat="42.73525" lon="1.52945">
        <ele>2043.557</ele>
        <time>2021-03-06T11:40:50Z</time>
      </trkpt>
      <trkpt lat="42.73525" lon="1.52945">
        <ele>2043.554</ele>
        <time>2021-03-06T11:40:52Z</time>
      </trkpt>
      <trkpt lat="42.73526" lon="1.52945">
        <ele>2043.396</ele>
        <time>2021-03-06T11:40:54Z</time>
      </trkpt>
      <trkpt lat="42.73526" lon="1.52946">
        <ele>2043.506</ele>
        <time>2021-03-06T11:40:56Z</time>
      </trkpt>
      <trkpt lat="42.73527" lon="1.52948">
        <ele>2043.989</ele>
        <time>2021-03-06T11:40:58Z</time>
      </trkpt>
      <trkpt lat="42.73527" lon="1.52948">
        <ele>2043.569</ele>
        <time>2021-03-06T11:41:00Z</time>
      </trkpt>
      <trkpt lat="42.73527" lon="1.52948">
        <ele>2043.534</ele>
        <time>2021-03-06T11:41:02Z</time>
      </trkpt>
      <trkpt lat="42.73527" lon="1.52948">
        <ele>2043.533</ele>
        <time>2021-03-06T11:41:04Z</time>
      </trkpt>
      <trkpt lat="42.73527" lon="1.52948">
        <ele>2043.533</ele>
        <time>2021-03-06T11:41:06Z</time>
      </trkpt>
      <trkpt lat="42.73527" lon="1.52948">
        <ele>2043.533</ele>
        <time>2021-03-06T11:41:08Z</time>
      </trkpt>
      <trkpt lat="42.73527" lon="1.52948">
        <ele>2043.531</ele>
        <time>2021-03-06T11:41:10Z</time>
      </trkpt>
      <trkpt lat="42.73527" lon="1.52948">
        <ele>2043.527</ele>
        <time>2021-03-06T11:41:12Z</time>
      </trkpt>
      <trkpt lat="42.73527" lon="1.52948">
        <ele>2043.519</ele>
        <time>2021-03-06T11:41:14Z</time>
      </trkpt>
      <trkpt lat="42.73527" lon="1.52948">
        <ele>2043.517</ele>
        <time>2021-03-06T11:41:16Z</time>
      </trkpt>
      <trkpt lat="42.73527" lon="1.52948">
        <ele>2043.515</ele>
        <time>2021-03-06T11:41:18Z</time>
      </trkpt>
      <trkpt lat="42.73527" lon="1.52948">
        <ele>2043.511</ele>
        <time>2021-03-06T11:41:20Z</time>
      </trkpt>
      <trkpt lat="42.73527" lon="1.52948">
        <ele>2043.511</ele>
        <time>2021-03-06T11:41:22Z</time>
      </trkpt>
      <trkpt lat="42.73527" lon="1.52948">
        <ele>2043.513</ele>
        <time>2021-03-06T11:41:24Z</time>
      </trkpt>
      <trkpt lat="42.73527" lon="1.52949">
        <ele>2043.633</ele>
        <time>2021-03-06T11:41:26Z</time>
      </trkpt>
      <trkpt lat="42.73526" lon="1.5295">
        <ele>2043.201</ele>
        <time>2021-03-06T11:41:28Z</time>
      </trkpt>
      <trkpt lat="42.73526" lon="1.52951">
        <ele>2043.004</ele>
        <time>2021-03-06T11:41:30Z</time>
      </trkpt>
      <trkpt lat="42.73526" lon="1.52953">
        <ele>2043.13</ele>
        <time>2021-03-06T11:41:32Z</time>
      </trkpt>
      <trkpt lat="42.73526" lon="1.52954">
        <ele>2042.835</ele>
        <time>2021-03-06T11:41:34Z</time>
      </trkpt>
      <trkpt lat="42.73525" lon="1.52956">
        <ele>2042.699</ele>
        <time>2021-03-06T11:41:36Z</time>
      </trkpt>
      <trkpt lat="42.73525" lon="1.52957">
        <ele>2042.762</ele>
        <time>2021-03-06T11:41:38Z</time>
      </trkpt>
      <trkpt lat="42.73525" lon="1.52959">
        <ele>2042.413</ele>
        <time>2021-03-06T11:41:40Z</time>
      </trkpt>
      <trkpt lat="42.73525" lon="1.52961">
        <ele>2042.384</ele>
        <time>2021-03-06T11:41:42Z</time>
      </trkpt>
      <trkpt lat="42.73525" lon="1.52963">
        <ele>2042.622</ele>
        <time>2021-03-06T11:41:44Z</time>
      </trkpt>
      <trkpt lat="42.73526" lon="1.52964">
        <ele>2042.883</ele>
        <time>2021-03-06T11:41:46Z</time>
      </trkpt>
      <trkpt lat="42.73526" lon="1.52966">
        <ele>2043.624</ele>
        <time>2021-03-06T11:41:48Z</time>
      </trkpt>
      <trkpt lat="42.73525" lon="1.52968">
        <ele>2043.758</ele>
        <time>2021-03-06T11:41:50Z</time>
      </trkpt>
      <trkpt lat="42.73525" lon="1.5297">
        <ele>2044.344</ele>
        <time>2021-03-06T11:41:52Z</time>
      </trkpt>
      <trkpt lat="42.73525" lon="1.52972">
        <ele>2044.58</ele>
        <time>2021-03-06T11:41:54Z</time>
      </trkpt>
      <trkpt lat="42.73525" lon="1.52974">
        <ele>2044.969</ele>
        <time>2021-03-06T11:41:56Z</time>
      </trkpt>
      <trkpt lat="42.73525" lon="1.52975">
        <ele>2044.108</ele>
        <time>2021-03-06T11:41:58Z</time>
      </trkpt>
      <trkpt lat="42.73525" lon="1.52977">
        <ele>2044.393</ele>
        <time>2021-03-06T11:42:00Z</time>
      </trkpt>
      <trkpt lat="42.73526" lon="1.52978">
        <ele>2044.225</ele>
        <time>2021-03-06T11:42:02Z</time>
      </trkpt>
      <trkpt lat="42.73526" lon="1.5298">
        <ele>2044.776</ele>
        <time>2021-03-06T11:42:04Z</time>
      </trkpt>
      <trkpt lat="42.73526" lon="1.52981">
        <ele>2044.924</ele>
        <time>2021-03-06T11:42:06Z</time>
      </trkpt>
      <trkpt lat="42.73526" lon="1.52982">
        <ele>2045.912</ele>
        <time>2021-03-06T11:42:08Z</time>
      </trkpt>
      <trkpt lat="42.73526" lon="1.52984">
        <ele>2045.89</ele>
        <time>2021-03-06T11:42:10Z</time>
      </trkpt>
      <trkpt lat="42.73526" lon="1.52985">
        <ele>2046.076</ele>
        <time>2021-03-06T11:42:12Z</time>
      </trkpt>
      <trkpt lat="42.73526" lon="1.52986">
        <ele>2045.913</ele>
        <time>2021-03-06T11:42:14Z</time>
      </trkpt>
      <trkpt lat="42.73527" lon="1.52987">
        <ele>2046.121</ele>
        <time>2021-03-06T11:42:16Z</time>
      </trkpt>
      <trkpt lat="42.73527" lon="1.52989">
        <ele>2046.221</ele>
        <time>2021-03-06T11:42:18Z</time>
      </trkpt>
      <trkpt lat="42.73527" lon="1.5299">
        <ele>2046.098</ele>
        <time>2021-03-06T11:42:20Z</time>
      </trkpt>
      <trkpt lat="42.73528" lon="1.52992">
        <ele>2046.081</ele>
        <time>2021-03-06T11:42:22Z</time>
      </trkpt>
      <trkpt lat="42.73528" lon="1.52993">
        <ele>2046.173</ele>
        <time>2021-03-06T11:42:24Z</time>
      </trkpt>
      <trkpt lat="42.73528" lon="1.52994">
        <ele>2046.397</ele>
        <time>2021-03-06T11:42:26Z</time>
      </trkpt>
      <trkpt lat="42.73528" lon="1.52995">
        <ele>2046.367</ele>
        <time>2021-03-06T11:42:28Z</time>
      </trkpt>
      <trkpt lat="42.73528" lon="1.52995">
        <ele>2046.373</ele>
        <time>2021-03-06T11:42:30Z</time>
      </trkpt>
      <trkpt lat="42.73529" lon="1.52996">
        <ele>2046.51</ele>
        <time>2021-03-06T11:42:32Z</time>
      </trkpt>
      <trkpt lat="42.73529" lon="1.52996">
        <ele>2046.509</ele>
        <time>2021-03-06T11:42:34Z</time>
      </trkpt>
      <trkpt lat="42.73529" lon="1.52996">
        <ele>2046.51</ele>
        <time>2021-03-06T11:42:36Z</time>
      </trkpt>
      <trkpt lat="42.73529" lon="1.52996">
        <ele>2047.015</ele>
        <time>2021-03-06T11:42:38Z</time>
      </trkpt>
      <trkpt lat="42.73529" lon="1.52995">
        <ele>2047.015</ele>
        <time>2021-03-06T11:42:40Z</time>
      </trkpt>
      <trkpt lat="42.73529" lon="1.52995">
        <ele>2047.009</ele>
        <time>2021-03-06T11:42:42Z</time>
      </trkpt>
      <trkpt lat="42.73529" lon="1.52995">
        <ele>2047.007</ele>
        <time>2021-03-06T11:42:44Z</time>
      </trkpt>
      <trkpt lat="42.73529" lon="1.52995">
        <ele>2047</ele>
        <time>2021-03-06T11:42:46Z</time>
      </trkpt>
      <trkpt lat="42.73529" lon="1.52995">
        <ele>2046.995</ele>
        <time>2021-03-06T11:42:48Z</time>
      </trkpt>
      <trkpt lat="42.73529" lon="1.52995">
        <ele>2046.993</ele>
        <time>2021-03-06T11:42:50Z</time>
      </trkpt>
      <trkpt lat="42.73529" lon="1.52995">
        <ele>2046.989</ele>
        <time>2021-03-06T11:42:52Z</time>
      </trkpt>
      <trkpt lat="42.73529" lon="1.52995">
        <ele>2046.993</ele>
        <time>2021-03-06T11:42:54Z</time>
      </trkpt>
      <trkpt lat="42.73529" lon="1.52995">
        <ele>2046.822</ele>
        <time>2021-03-06T11:42:56Z</time>
      </trkpt>
      <trkpt lat="42.73529" lon="1.52996">
        <ele>2046.808</ele>
        <time>2021-03-06T11:42:58Z</time>
      </trkpt>
      <trkpt lat="42.73529" lon="1.52996">
        <ele>2046.804</ele>
        <time>2021-03-06T11:43:00Z</time>
      </trkpt>
      <trkpt lat="42.73529" lon="1.52996">
        <ele>2046.8</ele>
        <time>2021-03-06T11:43:02Z</time>
      </trkpt>
      <trkpt lat="42.73529" lon="1.52996">
        <ele>2046.803</ele>
        <time>2021-03-06T11:43:04Z</time>
      </trkpt>
      <trkpt lat="42.73529" lon="1.52996">
        <ele>2046.807</ele>
        <time>2021-03-06T11:43:06Z</time>
      </trkpt>
      <trkpt lat="42.73529" lon="1.52996">
        <ele>2046.736</ele>
        <time>2021-03-06T11:43:08Z</time>
      </trkpt>
      <trkpt lat="42.73529" lon="1.52996">
        <ele>2046.752</ele>
        <time>2021-03-06T11:43:10Z</time>
      </trkpt>
      <trkpt lat="42.73528" lon="1.52996">
        <ele>2046.663</ele>
        <time>2021-03-06T11:43:12Z</time>
      </trkpt>
      <trkpt lat="42.73528" lon="1.52995">
        <ele>2046.612</ele>
        <time>2021-03-06T11:43:14Z</time>
      </trkpt>
      <trkpt lat="42.73528" lon="1.52995">
        <ele>2046.587</ele>
        <time>2021-03-06T11:43:16Z</time>
      </trkpt>
      <trkpt lat="42.73528" lon="1.52995">
        <ele>2046.173</ele>
        <time>2021-03-06T11:43:18Z</time>
      </trkpt>
      <trkpt lat="42.73528" lon="1.52995">
        <ele>2046.349</ele>
        <time>2021-03-06T11:43:20Z</time>
      </trkpt>
      <trkpt lat="42.73529" lon="1.52995">
        <ele>2046.138</ele>
        <time>2021-03-06T11:43:22Z</time>
      </trkpt>
      <trkpt lat="42.73529" lon="1.52994">
        <ele>2046.132</ele>
        <time>2021-03-06T11:43:24Z</time>
      </trkpt>
      <trkpt lat="42.73529" lon="1.52994">
        <ele>2046.129</ele>
        <time>2021-03-06T11:43:26Z</time>
      </trkpt>
      <trkpt lat="42.73529" lon="1.52994">
        <ele>2046.126</ele>
        <time>2021-03-06T11:43:28Z</time>
      </trkpt>
      <trkpt lat="42.73529" lon="1.52994">
        <ele>2046.124</ele>
        <time>2021-03-06T11:43:30Z</time>
      </trkpt>
      <trkpt lat="42.73529" lon="1.52994">
        <ele>2046.125</ele>
        <time>2021-03-06T11:43:32Z</time>
      </trkpt>
      <trkpt lat="42.73529" lon="1.52994">
        <ele>2046.124</ele>
        <time>2021-03-06T11:43:34Z</time>
      </trkpt>
      <trkpt lat="42.73529" lon="1.52994">
        <ele>2046.123</ele>
        <time>2021-03-06T11:43:36Z</time>
      </trkpt>
      <trkpt lat="42.73529" lon="1.52994">
        <ele>2046.122</ele>
        <time>2021-03-06T11:43:38Z</time>
      </trkpt>
      <trkpt lat="42.73529" lon="1.52994">
        <ele>2046.121</ele>
        <time>2021-03-06T11:43:40Z</time>
      </trkpt>
      <trkpt lat="42.73529" lon="1.52994">
        <ele>2046.122</ele>
        <time>2021-03-06T11:43:42Z</time>
      </trkpt>
      <trkpt lat="42.73529" lon="1.52994">
        <ele>2046.122</ele>
        <time>2021-03-06T11:43:44Z</time>
      </trkpt>
      <trkpt lat="42.73529" lon="1.52994">
        <ele>2046.122</ele>
        <time>2021-03-06T11:43:46Z</time>
      </trkpt>
      <trkpt lat="42.73529" lon="1.52994">
        <ele>2046.12</ele>
        <time>2021-03-06T11:43:48Z</time>
      </trkpt>
      <trkpt lat="42.73529" lon="1.52994">
        <ele>2046.121</ele>
        <time>2021-03-06T11:43:50Z</time>
      </trkpt>
      <trkpt lat="42.73529" lon="1.52994">
        <ele>2046.121</ele>
        <time>2021-03-06T11:43:52Z</time>
      </trkpt>
      <trkpt lat="42.73529" lon="1.52994">
        <ele>2046.121</ele>
        <time>2021-03-06T11:43:54Z</time>
      </trkpt>
      <trkpt lat="42.73529" lon="1.52994">
        <ele>2046.123</ele>
        <time>2021-03-06T11:43:56Z</time>
      </trkpt>
      <trkpt lat="42.73529" lon="1.52994">
        <ele>2046.124</ele>
        <time>2021-03-06T11:43:58Z</time>
      </trkpt>
      <trkpt lat="42.73529" lon="1.52994">
        <ele>2046.12</ele>
        <time>2021-03-06T11:44:00Z</time>
      </trkpt>
      <trkpt lat="42.73529" lon="1.52994">
        <ele>2046.119</ele>
        <time>2021-03-06T11:44:02Z</time>
      </trkpt>
      <trkpt lat="42.73528" lon="1.52994">
        <ele>2046.136</ele>
        <time>2021-03-06T11:44:04Z</time>
      </trkpt>
      <trkpt lat="42.73528" lon="1.52993">
        <ele>2046.419</ele>
        <time>2021-03-06T11:44:06Z</time>
      </trkpt>
      <trkpt lat="42.73527" lon="1.52993">
        <ele>2046.555</ele>
        <time>2021-03-06T11:44:08Z</time>
      </trkpt>
      <trkpt lat="42.73527" lon="1.52992">
        <ele>2046.099</ele>
        <time>2021-03-06T11:44:10Z</time>
      </trkpt>
      <trkpt lat="42.73527" lon="1.52992">
        <ele>2046.104</ele>
        <time>2021-03-06T11:44:12Z</time>
      </trkpt>
      <trkpt lat="42.73527" lon="1.52993">
        <ele>2045.651</ele>
        <time>2021-03-06T11:44:14Z</time>
      </trkpt>
      <trkpt lat="42.73527" lon="1.52993">
        <ele>2045.661</ele>
        <time>2021-03-06T11:44:16Z</time>
      </trkpt>
      <trkpt lat="42.73527" lon="1.52993">
        <ele>2045.583</ele>
        <time>2021-03-06T11:44:18Z</time>
      </trkpt>
      <trkpt lat="42.73528" lon="1.52992">
        <ele>2045.602</ele>
        <time>2021-03-06T11:44:20Z</time>
      </trkpt>
      <trkpt lat="42.73528" lon="1.52991">
        <ele>2045.712</ele>
        <time>2021-03-06T11:44:22Z</time>
      </trkpt>
      <trkpt lat="42.73527" lon="1.52991">
        <ele>2045.989</ele>
        <time>2021-03-06T11:44:24Z</time>
      </trkpt>
      <trkpt lat="42.73527" lon="1.52991">
        <ele>2045.799</ele>
        <time>2021-03-06T11:44:26Z</time>
      </trkpt>
      <trkpt lat="42.73526" lon="1.52991">
        <ele>2046.055</ele>
        <time>2021-03-06T11:44:28Z</time>
      </trkpt>
      <trkpt lat="42.73527" lon="1.52991">
        <ele>2046.011</ele>
        <time>2021-03-06T11:44:30Z</time>
      </trkpt>
      <trkpt lat="42.73527" lon="1.52991">
        <ele>2046.121</ele>
        <time>2021-03-06T11:44:32Z</time>
      </trkpt>
      <trkpt lat="42.73527" lon="1.52991">
        <ele>2046.113</ele>
        <time>2021-03-06T11:44:34Z</time>
      </trkpt>
      <trkpt lat="42.73527" lon="1.52991">
        <ele>2046.109</ele>
        <time>2021-03-06T11:44:36Z</time>
      </trkpt>
      <trkpt lat="42.73527" lon="1.52992">
        <ele>2046.162</ele>
        <time>2021-03-06T11:44:38Z</time>
      </trkpt>
      <trkpt lat="42.73527" lon="1.52992">
        <ele>2046.162</ele>
        <time>2021-03-06T11:44:40Z</time>
      </trkpt>
      <trkpt lat="42.73527" lon="1.52992">
        <ele>2046.169</ele>
        <time>2021-03-06T11:44:42Z</time>
      </trkpt>
      <trkpt lat="42.73528" lon="1.52992">
        <ele>2046.239</ele>
        <time>2021-03-06T11:44:44Z</time>
      </trkpt>
      <trkpt lat="42.73528" lon="1.52992">
        <ele>2046.113</ele>
        <time>2021-03-06T11:44:46Z</time>
      </trkpt>
      <trkpt lat="42.73528" lon="1.52991">
        <ele>2046.108</ele>
        <time>2021-03-06T11:44:48Z</time>
      </trkpt>
      <trkpt lat="42.73527" lon="1.52991">
        <ele>2045.462</ele>
        <time>2021-03-06T11:44:50Z</time>
      </trkpt>
      <trkpt lat="42.73527" lon="1.52991">
        <ele>2045.452</ele>
        <time>2021-03-06T11:44:52Z</time>
      </trkpt>
      <trkpt lat="42.73527" lon="1.52991">
        <ele>2045.705</ele>
        <time>2021-03-06T11:44:54Z</time>
      </trkpt>
      <trkpt lat="42.73527" lon="1.52991">
        <ele>2045.711</ele>
        <time>2021-03-06T11:44:56Z</time>
      </trkpt>
      <trkpt lat="42.73527" lon="1.52991">
        <ele>2045.714</ele>
        <time>2021-03-06T11:44:58Z</time>
      </trkpt>
      <trkpt lat="42.73527" lon="1.52991">
        <ele>2045.719</ele>
        <time>2021-03-06T11:45:00Z</time>
      </trkpt>
      <trkpt lat="42.73527" lon="1.52991">
        <ele>2045.723</ele>
        <time>2021-03-06T11:45:02Z</time>
      </trkpt>
      <trkpt lat="42.73527" lon="1.52991">
        <ele>2045.727</ele>
        <time>2021-03-06T11:45:04Z</time>
      </trkpt>
      <trkpt lat="42.73527" lon="1.52991">
        <ele>2045.728</ele>
        <time>2021-03-06T11:45:06Z</time>
      </trkpt>
      <trkpt lat="42.73527" lon="1.52991">
        <ele>2045.732</ele>
        <time>2021-03-06T11:45:08Z</time>
      </trkpt>
      <trkpt lat="42.73527" lon="1.52991">
        <ele>2045.734</ele>
        <time>2021-03-06T11:45:10Z</time>
      </trkpt>
      <trkpt lat="42.73527" lon="1.52991">
        <ele>2045.737</ele>
        <time>2021-03-06T11:45:12Z</time>
      </trkpt>
      <trkpt lat="42.73527" lon="1.52991">
        <ele>2045.742</ele>
        <time>2021-03-06T11:45:14Z</time>
      </trkpt>
      <trkpt lat="42.73527" lon="1.52991">
        <ele>2045.748</ele>
        <time>2021-03-06T11:45:16Z</time>
      </trkpt>
      <trkpt lat="42.73527" lon="1.52991">
        <ele>2045.75</ele>
        <time>2021-03-06T11:45:18Z</time>
      </trkpt>
      <trkpt lat="42.73527" lon="1.52991">
        <ele>2045.752</ele>
        <time>2021-03-06T11:45:19Z</time>
      </trkpt>
      <trkpt lat="42.73527" lon="1.52991">
        <ele>2045.756</ele>
        <time>2021-03-06T11:45:22Z</time>
      </trkpt>
      <trkpt lat="42.73527" lon="1.52991">
        <ele>2045.755</ele>
        <time>2021-03-06T11:45:24Z</time>
      </trkpt>
      <trkpt lat="42.73527" lon="1.52991">
        <ele>2045.753</ele>
        <time>2021-03-06T11:45:26Z</time>
      </trkpt>
      <trkpt lat="42.73527" lon="1.52991">
        <ele>2045.755</ele>
        <time>2021-03-06T11:45:28Z</time>
      </trkpt>
      <trkpt lat="42.73527" lon="1.52991">
        <ele>2045.756</ele>
        <time>2021-03-06T11:45:30Z</time>
      </trkpt>
      <trkpt lat="42.73527" lon="1.52991">
        <ele>2045.757</ele>
        <time>2021-03-06T11:45:32Z</time>
      </trkpt>
      <trkpt lat="42.73527" lon="1.52991">
        <ele>2045.759</ele>
        <time>2021-03-06T11:45:34Z</time>
      </trkpt>
      <trkpt lat="42.73527" lon="1.52991">
        <ele>2045.762</ele>
        <time>2021-03-06T11:45:36Z</time>
      </trkpt>
      <trkpt lat="42.73527" lon="1.52991">
        <ele>2045.767</ele>
        <time>2021-03-06T11:45:38Z</time>
      </trkpt>
      <trkpt lat="42.73527" lon="1.52991">
        <ele>2045.772</ele>
        <time>2021-03-06T11:45:40Z</time>
      </trkpt>
      <trkpt lat="42.73527" lon="1.52991">
        <ele>2045.775</ele>
        <time>2021-03-06T11:45:42Z</time>
      </trkpt>
      <trkpt lat="42.73527" lon="1.52991">
        <ele>2045.775</ele>
        <time>2021-03-06T11:45:44Z</time>
      </trkpt>
      <trkpt lat="42.73527" lon="1.52991">
        <ele>2045.777</ele>
        <time>2021-03-06T11:45:46Z</time>
      </trkpt>
      <trkpt lat="42.73527" lon="1.52991">
        <ele>2045.784</ele>
        <time>2021-03-06T11:45:48Z</time>
      </trkpt>
      <trkpt lat="42.73527" lon="1.52991">
        <ele>2045.791</ele>
        <time>2021-03-06T11:45:50Z</time>
      </trkpt>
      <trkpt lat="42.73527" lon="1.52991">
        <ele>2045.794</ele>
        <time>2021-03-06T11:45:52Z</time>
      </trkpt>
      <trkpt lat="42.73527" lon="1.52991">
        <ele>2045.798</ele>
        <time>2021-03-06T11:45:54Z</time>
      </trkpt>
      <trkpt lat="42.73527" lon="1.52991">
        <ele>2045.801</ele>
        <time>2021-03-06T11:45:56Z</time>
      </trkpt>
      <trkpt lat="42.73527" lon="1.52991">
        <ele>2045.806</ele>
        <time>2021-03-06T11:45:58Z</time>
      </trkpt>
      <trkpt lat="42.73527" lon="1.52991">
        <ele>2045.812</ele>
        <time>2021-03-06T11:46:00Z</time>
      </trkpt>
      <trkpt lat="42.73527" lon="1.52991">
        <ele>2045.813</ele>
        <time>2021-03-06T11:46:02Z</time>
      </trkpt>
      <trkpt lat="42.73527" lon="1.52991">
        <ele>2045.812</ele>
        <time>2021-03-06T11:46:04Z</time>
      </trkpt>
      <trkpt lat="42.73527" lon="1.52991">
        <ele>2045.814</ele>
        <time>2021-03-06T11:46:06Z</time>
      </trkpt>
      <trkpt lat="42.73527" lon="1.52991">
        <ele>2045.816</ele>
        <time>2021-03-06T11:46:08Z</time>
      </trkpt>
      <trkpt lat="42.73527" lon="1.52991">
        <ele>2045.815</ele>
        <time>2021-03-06T11:46:10Z</time>
      </trkpt>
      <trkpt lat="42.73527" lon="1.52991">
        <ele>2045.815</ele>
        <time>2021-03-06T11:46:11Z</time>
      </trkpt>
      <trkpt lat="42.73527" lon="1.52991">
        <ele>2045.815</ele>
        <time>2021-03-06T11:46:14Z</time>
      </trkpt>
      <trkpt lat="42.73527" lon="1.52991">
        <ele>2045.816</ele>
        <time>2021-03-06T11:46:16Z</time>
      </trkpt>
      <trkpt lat="42.73527" lon="1.52991">
        <ele>2045.814</ele>
        <time>2021-03-06T11:46:18Z</time>
      </trkpt>
      <trkpt lat="42.73527" lon="1.52991">
        <ele>2045.814</ele>
        <time>2021-03-06T11:46:20Z</time>
      </trkpt>
      <trkpt lat="42.73527" lon="1.52991">
        <ele>2045.815</ele>
        <time>2021-03-06T11:46:22Z</time>
      </trkpt>
      <trkpt lat="42.73527" lon="1.52991">
        <ele>2045.819</ele>
        <time>2021-03-06T11:46:24Z</time>
      </trkpt>
      <trkpt lat="42.73527" lon="1.52991">
        <ele>2045.825</ele>
        <time>2021-03-06T11:46:26Z</time>
      </trkpt>
      <trkpt lat="42.73527" lon="1.52991">
        <ele>2045.826</ele>
        <time>2021-03-06T11:46:28Z</time>
      </trkpt>
      <trkpt lat="42.73527" lon="1.52991">
        <ele>2045.825</ele>
        <time>2021-03-06T11:46:30Z</time>
      </trkpt>
      <trkpt lat="42.73527" lon="1.52991">
        <ele>2045.83</ele>
        <time>2021-03-06T11:46:32Z</time>
      </trkpt>
      <trkpt lat="42.73527" lon="1.52991">
        <ele>2045.83</ele>
        <time>2021-03-06T11:46:34Z</time>
      </trkpt>
      <trkpt lat="42.73527" lon="1.52991">
        <ele>2045.831</ele>
        <time>2021-03-06T11:46:36Z</time>
      </trkpt>
      <trkpt lat="42.73527" lon="1.52991">
        <ele>2045.832</ele>
        <time>2021-03-06T11:46:38Z</time>
      </trkpt>
      <trkpt lat="42.73527" lon="1.52991">
        <ele>2045.834</ele>
        <time>2021-03-06T11:46:40Z</time>
      </trkpt>
      <trkpt lat="42.73527" lon="1.52991">
        <ele>2045.834</ele>
        <time>2021-03-06T11:46:42Z</time>
      </trkpt>
      <trkpt lat="42.73527" lon="1.52991">
        <ele>2045.833</ele>
        <time>2021-03-06T11:46:44Z</time>
      </trkpt>
      <trkpt lat="42.73527" lon="1.52991">
        <ele>2045.836</ele>
        <time>2021-03-06T11:46:46Z</time>
      </trkpt>
      <trkpt lat="42.73527" lon="1.52991">
        <ele>2045.835</ele>
        <time>2021-03-06T11:46:48Z</time>
      </trkpt>
      <trkpt lat="42.73527" lon="1.52991">
        <ele>2045.838</ele>
        <time>2021-03-06T11:46:50Z</time>
      </trkpt>
      <trkpt lat="42.73527" lon="1.52991">
        <ele>2045.839</ele>
        <time>2021-03-06T11:46:52Z</time>
      </trkpt>
      <trkpt lat="42.73527" lon="1.52991">
        <ele>2045.839</ele>
        <time>2021-03-06T11:46:55Z</time>
      </trkpt>
      <trkpt lat="42.73527" lon="1.52991">
        <ele>2045.839</ele>
        <time>2021-03-06T11:46:56Z</time>
      </trkpt>
      <trkpt lat="42.73527" lon="1.52991">
        <ele>2045.842</ele>
        <time>2021-03-06T11:46:58Z</time>
      </trkpt>
      <trkpt lat="42.73527" lon="1.52991">
        <ele>2045.842</ele>
        <time>2021-03-06T11:47:01Z</time>
      </trkpt>
      <trkpt lat="42.73527" lon="1.52991">
        <ele>2045.84</ele>
        <time>2021-03-06T11:47:03Z</time>
      </trkpt>
      <trkpt lat="42.73527" lon="1.52991">
        <ele>2045.842</ele>
        <time>2021-03-06T11:47:05Z</time>
      </trkpt>
      <trkpt lat="42.73527" lon="1.52991">
        <ele>2045.84</ele>
        <time>2021-03-06T11:47:07Z</time>
      </trkpt>
      <trkpt lat="42.73527" lon="1.52991">
        <ele>2045.841</ele>
        <time>2021-03-06T11:47:09Z</time>
      </trkpt>
      <trkpt lat="42.73527" lon="1.52991">
        <ele>2045.845</ele>
        <time>2021-03-06T11:47:11Z</time>
      </trkpt>
      <trkpt lat="42.73527" lon="1.52991">
        <ele>2045.847</ele>
        <time>2021-03-06T11:47:13Z</time>
      </trkpt>
      <trkpt lat="42.73527" lon="1.52991">
        <ele>2045.846</ele>
        <time>2021-03-06T11:47:15Z</time>
      </trkpt>
      <trkpt lat="42.73527" lon="1.52991">
        <ele>2045.848</ele>
        <time>2021-03-06T11:47:17Z</time>
      </trkpt>
      <trkpt lat="42.73527" lon="1.52991">
        <ele>2045.854</ele>
        <time>2021-03-06T11:47:19Z</time>
      </trkpt>
      <trkpt lat="42.73527" lon="1.52991">
        <ele>2045.856</ele>
        <time>2021-03-06T11:47:21Z</time>
      </trkpt>
      <trkpt lat="42.73527" lon="1.52991">
        <ele>2045.855</ele>
        <time>2021-03-06T11:47:23Z</time>
      </trkpt>
      <trkpt lat="42.73527" lon="1.52991">
        <ele>2045.857</ele>
        <time>2021-03-06T11:47:25Z</time>
      </trkpt>
      <trkpt lat="42.73527" lon="1.52991">
        <ele>2045.859</ele>
        <time>2021-03-06T11:47:27Z</time>
      </trkpt>
      <trkpt lat="42.73527" lon="1.52991">
        <ele>2045.859</ele>
        <time>2021-03-06T11:47:29Z</time>
      </trkpt>
      <trkpt lat="42.73527" lon="1.52991">
        <ele>2045.86</ele>
        <time>2021-03-06T11:47:31Z</time>
      </trkpt>
      <trkpt lat="42.73527" lon="1.52991">
        <ele>2045.86</ele>
        <time>2021-03-06T11:47:33Z</time>
      </trkpt>
      <trkpt lat="42.73527" lon="1.52991">
        <ele>2045.857</ele>
        <time>2021-03-06T11:47:35Z</time>
      </trkpt>
      <trkpt lat="42.73527" lon="1.52991">
        <ele>2045.858</ele>
        <time>2021-03-06T11:47:37Z</time>
      </trkpt>
      <trkpt lat="42.73527" lon="1.52991">
        <ele>2045.86</ele>
        <time>2021-03-06T11:47:39Z</time>
      </trkpt>
      <trkpt lat="42.73527" lon="1.52991">
        <ele>2045.863</ele>
        <time>2021-03-06T11:47:41Z</time>
      </trkpt>
      <trkpt lat="42.73527" lon="1.52991">
        <ele>2045.865</ele>
        <time>2021-03-06T11:47:43Z</time>
      </trkpt>
      <trkpt lat="42.73527" lon="1.52991">
        <ele>2045.866</ele>
        <time>2021-03-06T11:47:45Z</time>
      </trkpt>
      <trkpt lat="42.73527" lon="1.52991">
        <ele>2045.866</ele>
        <time>2021-03-06T11:47:47Z</time>
      </trkpt>
      <trkpt lat="42.73527" lon="1.52991">
        <ele>2045.865</ele>
        <time>2021-03-06T11:47:49Z</time>
      </trkpt>
      <trkpt lat="42.73527" lon="1.52991">
        <ele>2045.863</ele>
        <time>2021-03-06T11:47:51Z</time>
      </trkpt>
      <trkpt lat="42.73527" lon="1.52991">
        <ele>2045.864</ele>
        <time>2021-03-06T11:47:53Z</time>
      </trkpt>
      <trkpt lat="42.73527" lon="1.52991">
        <ele>2045.863</ele>
        <time>2021-03-06T11:47:55Z</time>
      </trkpt>
      <trkpt lat="42.73527" lon="1.52991">
        <ele>2045.863</ele>
        <time>2021-03-06T11:47:57Z</time>
      </trkpt>
      <trkpt lat="42.73527" lon="1.52991">
        <ele>2045.865</ele>
        <time>2021-03-06T11:47:59Z</time>
      </trkpt>
      <trkpt lat="42.73527" lon="1.52991">
        <ele>2045.866</ele>
        <time>2021-03-06T11:48:01Z</time>
      </trkpt>
      <trkpt lat="42.73527" lon="1.52991">
        <ele>2045.868</ele>
        <time>2021-03-06T11:48:03Z</time>
      </trkpt>
      <trkpt lat="42.73527" lon="1.52991">
        <ele>2045.87</ele>
        <time>2021-03-06T11:48:05Z</time>
      </trkpt>
      <trkpt lat="42.73527" lon="1.52991">
        <ele>2045.873</ele>
        <time>2021-03-06T11:48:07Z</time>
      </trkpt>
      <trkpt lat="42.73527" lon="1.52991">
        <ele>2045.876</ele>
        <time>2021-03-06T11:48:09Z</time>
      </trkpt>
      <trkpt lat="42.73527" lon="1.52991">
        <ele>2045.88</ele>
        <time>2021-03-06T11:48:11Z</time>
      </trkpt>
      <trkpt lat="42.73527" lon="1.52991">
        <ele>2045.881</ele>
        <time>2021-03-06T11:48:13Z</time>
      </trkpt>
      <trkpt lat="42.73527" lon="1.52991">
        <ele>2045.885</ele>
        <time>2021-03-06T11:48:15Z</time>
      </trkpt>
      <trkpt lat="42.73527" lon="1.52991">
        <ele>2045.888</ele>
        <time>2021-03-06T11:48:17Z</time>
      </trkpt>
      <trkpt lat="42.73527" lon="1.52991">
        <ele>2045.89</ele>
        <time>2021-03-06T11:48:19Z</time>
      </trkpt>
      <trkpt lat="42.73527" lon="1.52991">
        <ele>2045.893</ele>
        <time>2021-03-06T11:48:21Z</time>
      </trkpt>
      <trkpt lat="42.73527" lon="1.52991">
        <ele>2045.897</ele>
        <time>2021-03-06T11:48:23Z</time>
      </trkpt>
      <trkpt lat="42.73527" lon="1.52991">
        <ele>2045.898</ele>
        <time>2021-03-06T11:48:25Z</time>
      </trkpt>
      <trkpt lat="42.73527" lon="1.52991">
        <ele>2045.898</ele>
        <time>2021-03-06T11:48:27Z</time>
      </trkpt>
      <trkpt lat="42.73527" lon="1.52991">
        <ele>2045.902</ele>
        <time>2021-03-06T11:48:29Z</time>
      </trkpt>
      <trkpt lat="42.73527" lon="1.52991">
        <ele>2045.9</ele>
        <time>2021-03-06T11:48:31Z</time>
      </trkpt>
      <trkpt lat="42.73527" lon="1.52991">
        <ele>2045.93</ele>
        <time>2021-03-06T11:48:33Z</time>
      </trkpt>
      <trkpt lat="42.73527" lon="1.5299">
        <ele>2046.269</ele>
        <time>2021-03-06T11:48:35Z</time>
      </trkpt>
      <trkpt lat="42.73527" lon="1.5299">
        <ele>2046.297</ele>
        <time>2021-03-06T11:48:37Z</time>
      </trkpt>
      <trkpt lat="42.73527" lon="1.5299">
        <ele>2046.508</ele>
        <time>2021-03-06T11:48:39Z</time>
      </trkpt>
      <trkpt lat="42.73526" lon="1.52989">
        <ele>2046.637</ele>
        <time>2021-03-06T11:48:41Z</time>
      </trkpt>
      <trkpt lat="42.73526" lon="1.52987">
        <ele>2046.457</ele>
        <time>2021-03-06T11:48:43Z</time>
      </trkpt>
      <trkpt lat="42.73526" lon="1.52986">
        <ele>2045.982</ele>
        <time>2021-03-06T11:48:45Z</time>
      </trkpt>
      <trkpt lat="42.73526" lon="1.52984">
        <ele>2046.308</ele>
        <time>2021-03-06T11:48:47Z</time>
      </trkpt>
      <trkpt lat="42.73526" lon="1.52982">
        <ele>2046.109</ele>
        <time>2021-03-06T11:48:49Z</time>
      </trkpt>
      <trkpt lat="42.73526" lon="1.52982">
        <ele>2046.099</ele>
        <time>2021-03-06T11:48:51Z</time>
      </trkpt>
      <trkpt lat="42.73526" lon="1.52982">
        <ele>2046.096</ele>
        <time>2021-03-06T11:48:53Z</time>
      </trkpt>
      <trkpt lat="42.73526" lon="1.52982">
        <ele>2045.826</ele>
        <time>2021-03-06T11:48:55Z</time>
      </trkpt>
      <trkpt lat="42.73527" lon="1.52981">
        <ele>2045.832</ele>
        <time>2021-03-06T11:48:57Z</time>
      </trkpt>
      <trkpt lat="42.73528" lon="1.52982">
        <ele>2045.571</ele>
        <time>2021-03-06T11:48:59Z</time>
      </trkpt>
      <trkpt lat="42.7353" lon="1.52979">
        <ele>2045.226</ele>
        <time>2021-03-06T11:49:01Z</time>
      </trkpt>
      <trkpt lat="42.7353" lon="1.52976">
        <ele>2044.971</ele>
        <time>2021-03-06T11:49:03Z</time>
      </trkpt>
      <trkpt lat="42.73529" lon="1.52976">
        <ele>2045.358</ele>
        <time>2021-03-06T11:49:05Z</time>
      </trkpt>
      <trkpt lat="42.73529" lon="1.52976">
        <ele>2045.106</ele>
        <time>2021-03-06T11:49:07Z</time>
      </trkpt>
      <trkpt lat="42.73529" lon="1.52974">
        <ele>2044.807</ele>
        <time>2021-03-06T11:49:09Z</time>
      </trkpt>
      <trkpt lat="42.73529" lon="1.52974">
        <ele>2044.488</ele>
        <time>2021-03-06T11:49:11Z</time>
      </trkpt>
      <trkpt lat="42.7353" lon="1.52974">
        <ele>2044.071</ele>
        <time>2021-03-06T11:49:13Z</time>
      </trkpt>
      <trkpt lat="42.7353" lon="1.52972">
        <ele>2043.856</ele>
        <time>2021-03-06T11:49:15Z</time>
      </trkpt>
      <trkpt lat="42.73531" lon="1.52973">
        <ele>2043.113</ele>
        <time>2021-03-06T11:49:17Z</time>
      </trkpt>
      <trkpt lat="42.73532" lon="1.52973">
        <ele>2043.858</ele>
        <time>2021-03-06T11:49:19Z</time>
      </trkpt>
      <trkpt lat="42.73532" lon="1.52973">
        <ele>2043.855</ele>
        <time>2021-03-06T11:49:21Z</time>
      </trkpt>
      <trkpt lat="42.73532" lon="1.52974">
        <ele>2044.212</ele>
        <time>2021-03-06T11:49:23Z</time>
      </trkpt>
      <trkpt lat="42.73532" lon="1.52974">
        <ele>2044.207</ele>
        <time>2021-03-06T11:49:25Z</time>
      </trkpt>
      <trkpt lat="42.73532" lon="1.52974">
        <ele>2044.209</ele>
        <time>2021-03-06T11:49:27Z</time>
      </trkpt>
      <trkpt lat="42.73533" lon="1.52975">
        <ele>2043.886</ele>
        <time>2021-03-06T11:49:29Z</time>
      </trkpt>
      <trkpt lat="42.73534" lon="1.52975">
        <ele>2043.522</ele>
        <time>2021-03-06T11:49:31Z</time>
      </trkpt>
      <trkpt lat="42.73534" lon="1.52975">
        <ele>2043.527</ele>
        <time>2021-03-06T11:49:33Z</time>
      </trkpt>
      <trkpt lat="42.73534" lon="1.52975">
        <ele>2043.52</ele>
        <time>2021-03-06T11:49:35Z</time>
      </trkpt>
      <trkpt lat="42.73534" lon="1.52975">
        <ele>2043.356</ele>
        <time>2021-03-06T11:49:37Z</time>
      </trkpt>
      <trkpt lat="42.73535" lon="1.52975">
        <ele>2042.546</ele>
        <time>2021-03-06T11:49:39Z</time>
      </trkpt>
      <trkpt lat="42.73536" lon="1.52975">
        <ele>2041.472</ele>
        <time>2021-03-06T11:49:41Z</time>
      </trkpt>
      <trkpt lat="42.73537" lon="1.52975">
        <ele>2042.067</ele>
        <time>2021-03-06T11:49:43Z</time>
      </trkpt>
      <trkpt lat="42.73537" lon="1.52974">
        <ele>2042.152</ele>
        <time>2021-03-06T11:49:45Z</time>
      </trkpt>
      <trkpt lat="42.73537" lon="1.52974">
        <ele>2042.22</ele>
        <time>2021-03-06T11:49:47Z</time>
      </trkpt>
      <trkpt lat="42.73538" lon="1.52973">
        <ele>2041.612</ele>
        <time>2021-03-06T11:49:49Z</time>
      </trkpt>
      <trkpt lat="42.73539" lon="1.52973">
        <ele>2040.92</ele>
        <time>2021-03-06T11:49:51Z</time>
      </trkpt>
      <trkpt lat="42.73539" lon="1.52973">
        <ele>2040.897</ele>
        <time>2021-03-06T11:49:53Z</time>
      </trkpt>
      <trkpt lat="42.73539" lon="1.52972">
        <ele>2040.771</ele>
        <time>2021-03-06T11:49:55Z</time>
      </trkpt>
      <trkpt lat="42.7354" lon="1.52972">
        <ele>2040.268</ele>
        <time>2021-03-06T11:49:57Z</time>
      </trkpt>
      <trkpt lat="42.7354" lon="1.52972">
        <ele>2040.252</ele>
        <time>2021-03-06T11:49:59Z</time>
      </trkpt>
      <trkpt lat="42.7354" lon="1.52972">
        <ele>2040.248</ele>
        <time>2021-03-06T11:50:01Z</time>
      </trkpt>
      <trkpt lat="42.7354" lon="1.52972">
        <ele>2040.242</ele>
        <time>2021-03-06T11:50:03Z</time>
      </trkpt>
      <trkpt lat="42.73539" lon="1.52973">
        <ele>2040.245</ele>
        <time>2021-03-06T11:50:05Z</time>
      </trkpt>
      <trkpt lat="42.73539" lon="1.52973">
        <ele>2040.461</ele>
        <time>2021-03-06T11:50:07Z</time>
      </trkpt>
      <trkpt lat="42.73538" lon="1.52974">
        <ele>2040.832</ele>
        <time>2021-03-06T11:50:09Z</time>
      </trkpt>
      <trkpt lat="42.73537" lon="1.52975">
        <ele>2040.786</ele>
        <time>2021-03-06T11:50:11Z</time>
      </trkpt>
      <trkpt lat="42.73536" lon="1.52975">
        <ele>2040.614</ele>
        <time>2021-03-06T11:50:13Z</time>
      </trkpt>
      <trkpt lat="42.73534" lon="1.52976">
        <ele>2041.729</ele>
        <time>2021-03-06T11:50:15Z</time>
      </trkpt>
      <trkpt lat="42.73534" lon="1.52978">
        <ele>2042.525</ele>
        <time>2021-03-06T11:50:17Z</time>
      </trkpt>
      <trkpt lat="42.73533" lon="1.52979">
        <ele>2043.18</ele>
        <time>2021-03-06T11:50:19Z</time>
      </trkpt>
      <trkpt lat="42.73532" lon="1.5298">
        <ele>2042.927</ele>
        <time>2021-03-06T11:50:21Z</time>
      </trkpt>
      <trkpt lat="42.73531" lon="1.5298">
        <ele>2043.445</ele>
        <time>2021-03-06T11:50:23Z</time>
      </trkpt>
      <trkpt lat="42.7353" lon="1.52982">
        <ele>2043.504</ele>
        <time>2021-03-06T11:50:25Z</time>
      </trkpt>
      <trkpt lat="42.7353" lon="1.52983">
        <ele>2044.225</ele>
        <time>2021-03-06T11:50:27Z</time>
      </trkpt>
      <trkpt lat="42.73529" lon="1.52984">
        <ele>2044.743</ele>
        <time>2021-03-06T11:50:29Z</time>
      </trkpt>
      <trkpt lat="42.73528" lon="1.52986">
        <ele>2045.441</ele>
        <time>2021-03-06T11:50:31Z</time>
      </trkpt>
      <trkpt lat="42.73528" lon="1.52987">
        <ele>2045.95</ele>
        <time>2021-03-06T11:50:33Z</time>
      </trkpt>
      <trkpt lat="42.73528" lon="1.52989">
        <ele>2046.119</ele>
        <time>2021-03-06T11:50:35Z</time>
      </trkpt>
      <trkpt lat="42.73528" lon="1.5299">
        <ele>2046.72</ele>
        <time>2021-03-06T11:50:37Z</time>
      </trkpt>
      <trkpt lat="42.73527" lon="1.52991">
        <ele>2046.534</ele>
        <time>2021-03-06T11:50:39Z</time>
      </trkpt>
      <trkpt lat="42.73527" lon="1.52991">
        <ele>2046.424</ele>
        <time>2021-03-06T11:50:41Z</time>
      </trkpt>
      <trkpt lat="42.73527" lon="1.52991">
        <ele>2046.356</ele>
        <time>2021-03-06T11:50:43Z</time>
      </trkpt>
      <trkpt lat="42.73527" lon="1.52991">
        <ele>2046.357</ele>
        <time>2021-03-06T11:50:45Z</time>
      </trkpt>
      <trkpt lat="42.73527" lon="1.52991">
        <ele>2046.357</ele>
        <time>2021-03-06T11:50:47Z</time>
      </trkpt>
      <trkpt lat="42.73526" lon="1.52991">
        <ele>2046.356</ele>
        <time>2021-03-06T11:50:49Z</time>
      </trkpt>
      <trkpt lat="42.73526" lon="1.52991">
        <ele>2046.354</ele>
        <time>2021-03-06T11:50:51Z</time>
      </trkpt>
      <trkpt lat="42.73526" lon="1.52991">
        <ele>2046.355</ele>
        <time>2021-03-06T11:50:53Z</time>
      </trkpt>
      <trkpt lat="42.73526" lon="1.52991">
        <ele>2046.351</ele>
        <time>2021-03-06T11:50:55Z</time>
      </trkpt>
      <trkpt lat="42.73526" lon="1.52991">
        <ele>2046.347</ele>
        <time>2021-03-06T11:50:57Z</time>
      </trkpt>
      <trkpt lat="42.73526" lon="1.52991">
        <ele>2046.349</ele>
        <time>2021-03-06T11:50:59Z</time>
      </trkpt>
      <trkpt lat="42.73526" lon="1.52991">
        <ele>2046.354</ele>
        <time>2021-03-06T11:51:01Z</time>
      </trkpt>
      <trkpt lat="42.73526" lon="1.52991">
        <ele>2046.361</ele>
        <time>2021-03-06T11:51:03Z</time>
      </trkpt>
      <trkpt lat="42.73526" lon="1.52991">
        <ele>2046.366</ele>
        <time>2021-03-06T11:51:05Z</time>
      </trkpt>
      <trkpt lat="42.73526" lon="1.52991">
        <ele>2046.366</ele>
        <time>2021-03-06T11:51:07Z</time>
      </trkpt>
      <trkpt lat="42.73526" lon="1.52992">
        <ele>2046.203</ele>
        <time>2021-03-06T11:51:09Z</time>
      </trkpt>
      <trkpt lat="42.73526" lon="1.52992">
        <ele>2046.442</ele>
        <time>2021-03-06T11:51:11Z</time>
      </trkpt>
      <trkpt lat="42.73526" lon="1.52991">
        <ele>2046.717</ele>
        <time>2021-03-06T11:51:13Z</time>
      </trkpt>
      <trkpt lat="42.73526" lon="1.52991">
        <ele>2046.483</ele>
        <time>2021-03-06T11:51:15Z</time>
      </trkpt>
      <trkpt lat="42.73526" lon="1.52991">
        <ele>2046.485</ele>
        <time>2021-03-06T11:51:17Z</time>
      </trkpt>
      <trkpt lat="42.73526" lon="1.52991">
        <ele>2046.486</ele>
        <time>2021-03-06T11:51:19Z</time>
      </trkpt>
      <trkpt lat="42.73526" lon="1.52991">
        <ele>2046.487</ele>
        <time>2021-03-06T11:51:21Z</time>
      </trkpt>
      <trkpt lat="42.73526" lon="1.52991">
        <ele>2046.488</ele>
        <time>2021-03-06T11:51:23Z</time>
      </trkpt>
      <trkpt lat="42.73526" lon="1.52991">
        <ele>2046.489</ele>
        <time>2021-03-06T11:51:25Z</time>
      </trkpt>
      <trkpt lat="42.73526" lon="1.52991">
        <ele>2046.492</ele>
        <time>2021-03-06T11:51:27Z</time>
      </trkpt>
      <trkpt lat="42.73526" lon="1.52991">
        <ele>2046.494</ele>
        <time>2021-03-06T11:51:30Z</time>
      </trkpt>
      <trkpt lat="42.73526" lon="1.52991">
        <ele>2046.498</ele>
        <time>2021-03-06T11:51:32Z</time>
      </trkpt>
      <trkpt lat="42.73526" lon="1.52991">
        <ele>2046.494</ele>
        <time>2021-03-06T11:51:34Z</time>
      </trkpt>
      <trkpt lat="42.73526" lon="1.52991">
        <ele>2046.494</ele>
        <time>2021-03-06T11:51:36Z</time>
      </trkpt>
      <trkpt lat="42.73526" lon="1.52991">
        <ele>2046.49</ele>
        <time>2021-03-06T11:51:38Z</time>
      </trkpt>
      <trkpt lat="42.73527" lon="1.52991">
        <ele>2046.292</ele>
        <time>2021-03-06T11:51:40Z</time>
      </trkpt>
      <trkpt lat="42.73527" lon="1.52991">
        <ele>2046.288</ele>
        <time>2021-03-06T11:51:42Z</time>
      </trkpt>
      <trkpt lat="42.73527" lon="1.52991">
        <ele>2046.281</ele>
        <time>2021-03-06T11:51:44Z</time>
      </trkpt>
      <trkpt lat="42.73527" lon="1.52991">
        <ele>2046.283</ele>
        <time>2021-03-06T11:51:46Z</time>
      </trkpt>
      <trkpt lat="42.73527" lon="1.52991">
        <ele>2046.281</ele>
        <time>2021-03-06T11:51:48Z</time>
      </trkpt>
      <trkpt lat="42.73527" lon="1.52991">
        <ele>2046.276</ele>
        <time>2021-03-06T11:51:50Z</time>
      </trkpt>
      <trkpt lat="42.73527" lon="1.52991">
        <ele>2046.274</ele>
        <time>2021-03-06T11:51:52Z</time>
      </trkpt>
      <trkpt lat="42.73527" lon="1.52991">
        <ele>2046.271</ele>
        <time>2021-03-06T11:51:54Z</time>
      </trkpt>
      <trkpt lat="42.73527" lon="1.52991">
        <ele>2046.204</ele>
        <time>2021-03-06T11:51:56Z</time>
      </trkpt>
      <trkpt lat="42.73527" lon="1.52991">
        <ele>2046.21</ele>
        <time>2021-03-06T11:51:58Z</time>
      </trkpt>
      <trkpt lat="42.73527" lon="1.52991">
        <ele>2046.663</ele>
        <time>2021-03-06T11:52:00Z</time>
      </trkpt>
      <trkpt lat="42.73527" lon="1.52991">
        <ele>2046.6</ele>
        <time>2021-03-06T11:52:02Z</time>
      </trkpt>
      <trkpt lat="42.73527" lon="1.52991">
        <ele>2046.746</ele>
        <time>2021-03-06T11:52:04Z</time>
      </trkpt>
      <trkpt lat="42.73527" lon="1.52991">
        <ele>2047.042</ele>
        <time>2021-03-06T11:52:06Z</time>
      </trkpt>
      <trkpt lat="42.73527" lon="1.52991">
        <ele>2046.912</ele>
        <time>2021-03-06T11:52:08Z</time>
      </trkpt>
      <trkpt lat="42.73527" lon="1.52991">
        <ele>2046.938</ele>
        <time>2021-03-06T11:52:10Z</time>
      </trkpt>
      <trkpt lat="42.73527" lon="1.52991">
        <ele>2046.981</ele>
        <time>2021-03-06T11:52:12Z</time>
      </trkpt>
      <trkpt lat="42.73527" lon="1.52991">
        <ele>2046.986</ele>
        <time>2021-03-06T11:52:14Z</time>
      </trkpt>
      <trkpt lat="42.73527" lon="1.52991">
        <ele>2046.988</ele>
        <time>2021-03-06T11:52:16Z</time>
      </trkpt>
      <trkpt lat="42.73527" lon="1.52991">
        <ele>2046.99</ele>
        <time>2021-03-06T11:52:18Z</time>
      </trkpt>
      <trkpt lat="42.73527" lon="1.52991">
        <ele>2046.992</ele>
        <time>2021-03-06T11:52:20Z</time>
      </trkpt>
      <trkpt lat="42.73527" lon="1.52991">
        <ele>2046.993</ele>
        <time>2021-03-06T11:52:22Z</time>
      </trkpt>
      <trkpt lat="42.73527" lon="1.52991">
        <ele>2046.992</ele>
        <time>2021-03-06T11:52:24Z</time>
      </trkpt>
      <trkpt lat="42.73527" lon="1.52991">
        <ele>2046.991</ele>
        <time>2021-03-06T11:52:26Z</time>
      </trkpt>
      <trkpt lat="42.73527" lon="1.52991">
        <ele>2046.99</ele>
        <time>2021-03-06T11:52:28Z</time>
      </trkpt>
      <trkpt lat="42.73527" lon="1.52991">
        <ele>2046.99</ele>
        <time>2021-03-06T11:52:30Z</time>
      </trkpt>
      <trkpt lat="42.73527" lon="1.52991">
        <ele>2046.993</ele>
        <time>2021-03-06T11:52:32Z</time>
      </trkpt>
      <trkpt lat="42.73527" lon="1.52991">
        <ele>2046.994</ele>
        <time>2021-03-06T11:52:34Z</time>
      </trkpt>
      <trkpt lat="42.73527" lon="1.52991">
        <ele>2047.015</ele>
        <time>2021-03-06T11:52:36Z</time>
      </trkpt>
      <trkpt lat="42.73527" lon="1.52991">
        <ele>2047.148</ele>
        <time>2021-03-06T11:52:38Z</time>
      </trkpt>
      <trkpt lat="42.73527" lon="1.52991">
        <ele>2047.153</ele>
        <time>2021-03-06T11:52:40Z</time>
      </trkpt>
      <trkpt lat="42.73527" lon="1.5299">
        <ele>2046.945</ele>
        <time>2021-03-06T11:52:42Z</time>
      </trkpt>
      <trkpt lat="42.73527" lon="1.5299">
        <ele>2047.024</ele>
        <time>2021-03-06T11:52:44Z</time>
      </trkpt>
      <trkpt lat="42.73527" lon="1.5299">
        <ele>2047.069</ele>
        <time>2021-03-06T11:52:46Z</time>
      </trkpt>
      <trkpt lat="42.73527" lon="1.5299">
        <ele>2047.068</ele>
        <time>2021-03-06T11:52:48Z</time>
      </trkpt>
      <trkpt lat="42.73527" lon="1.5299">
        <ele>2047.07</ele>
        <time>2021-03-06T11:52:50Z</time>
      </trkpt>
      <trkpt lat="42.73527" lon="1.5299">
        <ele>2047.07</ele>
        <time>2021-03-06T11:52:52Z</time>
      </trkpt>
      <trkpt lat="42.73527" lon="1.5299">
        <ele>2047.068</ele>
        <time>2021-03-06T11:52:54Z</time>
      </trkpt>
      <trkpt lat="42.73527" lon="1.5299">
        <ele>2047.068</ele>
        <time>2021-03-06T11:52:56Z</time>
      </trkpt>
      <trkpt lat="42.73527" lon="1.5299">
        <ele>2047.067</ele>
        <time>2021-03-06T11:52:58Z</time>
      </trkpt>
      <trkpt lat="42.73527" lon="1.5299">
        <ele>2047.067</ele>
        <time>2021-03-06T11:53:00Z</time>
      </trkpt>
      <trkpt lat="42.73527" lon="1.5299">
        <ele>2047.067</ele>
        <time>2021-03-06T11:53:02Z</time>
      </trkpt>
      <trkpt lat="42.73527" lon="1.5299">
        <ele>2047.067</ele>
        <time>2021-03-06T11:53:04Z</time>
      </trkpt>
      <trkpt lat="42.73527" lon="1.5299">
        <ele>2047.066</ele>
        <time>2021-03-06T11:53:06Z</time>
      </trkpt>
      <trkpt lat="42.73527" lon="1.5299">
        <ele>2047.066</ele>
        <time>2021-03-06T11:53:08Z</time>
      </trkpt>
      <trkpt lat="42.73527" lon="1.5299">
        <ele>2047.168</ele>
        <time>2021-03-06T11:53:10Z</time>
      </trkpt>
      <trkpt lat="42.73527" lon="1.5299">
        <ele>2047.274</ele>
        <time>2021-03-06T11:53:12Z</time>
      </trkpt>
      <trkpt lat="42.73527" lon="1.5299">
        <ele>2047.277</ele>
        <time>2021-03-06T11:53:14Z</time>
      </trkpt>
      <trkpt lat="42.73527" lon="1.5299">
        <ele>2047.277</ele>
        <time>2021-03-06T11:53:16Z</time>
      </trkpt>
      <trkpt lat="42.73527" lon="1.5299">
        <ele>2047.275</ele>
        <time>2021-03-06T11:53:18Z</time>
      </trkpt>
      <trkpt lat="42.73527" lon="1.5299">
        <ele>2047.28</ele>
        <time>2021-03-06T11:53:20Z</time>
      </trkpt>
      <trkpt lat="42.73527" lon="1.5299">
        <ele>2047.278</ele>
        <time>2021-03-06T11:53:22Z</time>
      </trkpt>
      <trkpt lat="42.73527" lon="1.5299">
        <ele>2047.279</ele>
        <time>2021-03-06T11:53:24Z</time>
      </trkpt>
      <trkpt lat="42.73527" lon="1.5299">
        <ele>2047.281</ele>
        <time>2021-03-06T11:53:26Z</time>
      </trkpt>
      <trkpt lat="42.73527" lon="1.5299">
        <ele>2047.286</ele>
        <time>2021-03-06T11:53:28Z</time>
      </trkpt>
      <trkpt lat="42.73527" lon="1.5299">
        <ele>2047.286</ele>
        <time>2021-03-06T11:53:30Z</time>
      </trkpt>
      <trkpt lat="42.73527" lon="1.5299">
        <ele>2047.286</ele>
        <time>2021-03-06T11:53:32Z</time>
      </trkpt>
      <trkpt lat="42.73527" lon="1.5299">
        <ele>2047.286</ele>
        <time>2021-03-06T11:53:34Z</time>
      </trkpt>
      <trkpt lat="42.73527" lon="1.5299">
        <ele>2047.285</ele>
        <time>2021-03-06T11:53:36Z</time>
      </trkpt>
      <trkpt lat="42.73527" lon="1.5299">
        <ele>2047.286</ele>
        <time>2021-03-06T11:53:38Z</time>
      </trkpt>
      <trkpt lat="42.73527" lon="1.5299">
        <ele>2047.286</ele>
        <time>2021-03-06T11:53:40Z</time>
      </trkpt>
      <trkpt lat="42.73527" lon="1.5299">
        <ele>2047.286</ele>
        <time>2021-03-06T11:53:42Z</time>
      </trkpt>
      <trkpt lat="42.73527" lon="1.5299">
        <ele>2047.287</ele>
        <time>2021-03-06T11:53:44Z</time>
      </trkpt>
      <trkpt lat="42.73527" lon="1.5299">
        <ele>2047.288</ele>
        <time>2021-03-06T11:53:46Z</time>
      </trkpt>
      <trkpt lat="42.73527" lon="1.5299">
        <ele>2047.289</ele>
        <time>2021-03-06T11:53:48Z</time>
      </trkpt>
      <trkpt lat="42.73527" lon="1.5299">
        <ele>2047.288</ele>
        <time>2021-03-06T11:53:50Z</time>
      </trkpt>
      <trkpt lat="42.73527" lon="1.5299">
        <ele>2047.289</ele>
        <time>2021-03-06T11:53:52Z</time>
      </trkpt>
      <trkpt lat="42.73527" lon="1.5299">
        <ele>2047.29</ele>
        <time>2021-03-06T11:53:54Z</time>
      </trkpt>
      <trkpt lat="42.73527" lon="1.5299">
        <ele>2047.29</ele>
        <time>2021-03-06T11:53:56Z</time>
      </trkpt>
      <trkpt lat="42.73527" lon="1.5299">
        <ele>2047.293</ele>
        <time>2021-03-06T11:53:58Z</time>
      </trkpt>
      <trkpt lat="42.73527" lon="1.5299">
        <ele>2047.292</ele>
        <time>2021-03-06T11:54:00Z</time>
      </trkpt>
      <trkpt lat="42.73527" lon="1.5299">
        <ele>2047.29</ele>
        <time>2021-03-06T11:54:02Z</time>
      </trkpt>
      <trkpt lat="42.73527" lon="1.5299">
        <ele>2047.289</ele>
        <time>2021-03-06T11:54:04Z</time>
      </trkpt>
      <trkpt lat="42.73527" lon="1.5299">
        <ele>2047.288</ele>
        <time>2021-03-06T11:54:06Z</time>
      </trkpt>
      <trkpt lat="42.73527" lon="1.5299">
        <ele>2047.286</ele>
        <time>2021-03-06T11:54:08Z</time>
      </trkpt>
      <trkpt lat="42.73527" lon="1.5299">
        <ele>2047.282</ele>
        <time>2021-03-06T11:54:10Z</time>
      </trkpt>
      <trkpt lat="42.73527" lon="1.5299">
        <ele>2047.282</ele>
        <time>2021-03-06T11:54:12Z</time>
      </trkpt>
      <trkpt lat="42.73527" lon="1.5299">
        <ele>2047.284</ele>
        <time>2021-03-06T11:54:14Z</time>
      </trkpt>
      <trkpt lat="42.73527" lon="1.5299">
        <ele>2047.282</ele>
        <time>2021-03-06T11:54:16Z</time>
      </trkpt>
      <trkpt lat="42.73527" lon="1.5299">
        <ele>2047.281</ele>
        <time>2021-03-06T11:54:18Z</time>
      </trkpt>
      <trkpt lat="42.73527" lon="1.5299">
        <ele>2047.282</ele>
        <time>2021-03-06T11:54:20Z</time>
      </trkpt>
      <trkpt lat="42.73527" lon="1.5299">
        <ele>2047.28</ele>
        <time>2021-03-06T11:54:22Z</time>
      </trkpt>
      <trkpt lat="42.73527" lon="1.5299">
        <ele>2047.28</ele>
        <time>2021-03-06T11:54:24Z</time>
      </trkpt>
      <trkpt lat="42.73527" lon="1.5299">
        <ele>2047.275</ele>
        <time>2021-03-06T11:54:26Z</time>
      </trkpt>
      <trkpt lat="42.73527" lon="1.5299">
        <ele>2047.276</ele>
        <time>2021-03-06T11:54:28Z</time>
      </trkpt>
      <trkpt lat="42.73527" lon="1.5299">
        <ele>2047.277</ele>
        <time>2021-03-06T11:54:30Z</time>
      </trkpt>
      <trkpt lat="42.73527" lon="1.5299">
        <ele>2047.274</ele>
        <time>2021-03-06T11:54:32Z</time>
      </trkpt>
      <trkpt lat="42.73527" lon="1.5299">
        <ele>2047.274</ele>
        <time>2021-03-06T11:54:34Z</time>
      </trkpt>
      <trkpt lat="42.73527" lon="1.5299">
        <ele>2047.271</ele>
        <time>2021-03-06T11:54:36Z</time>
      </trkpt>
      <trkpt lat="42.73527" lon="1.5299">
        <ele>2047.274</ele>
        <time>2021-03-06T11:54:38Z</time>
      </trkpt>
      <trkpt lat="42.73527" lon="1.5299">
        <ele>2047.27</ele>
        <time>2021-03-06T11:54:40Z</time>
      </trkpt>
      <trkpt lat="42.73527" lon="1.5299">
        <ele>2047.27</ele>
        <time>2021-03-06T11:54:42Z</time>
      </trkpt>
      <trkpt lat="42.73527" lon="1.5299">
        <ele>2047.274</ele>
        <time>2021-03-06T11:54:44Z</time>
      </trkpt>
      <trkpt lat="42.73527" lon="1.5299">
        <ele>2047.271</ele>
        <time>2021-03-06T11:54:46Z</time>
      </trkpt>
      <trkpt lat="42.73527" lon="1.5299">
        <ele>2047.27</ele>
        <time>2021-03-06T11:54:48Z</time>
      </trkpt>
      <trkpt lat="42.73527" lon="1.5299">
        <ele>2047.268</ele>
        <time>2021-03-06T11:54:50Z</time>
      </trkpt>
      <trkpt lat="42.73527" lon="1.5299">
        <ele>2047.27</ele>
        <time>2021-03-06T11:54:52Z</time>
      </trkpt>
      <trkpt lat="42.73527" lon="1.5299">
        <ele>2047.263</ele>
        <time>2021-03-06T11:54:54Z</time>
      </trkpt>
      <trkpt lat="42.73527" lon="1.5299">
        <ele>2047.261</ele>
        <time>2021-03-06T11:54:56Z</time>
      </trkpt>
      <trkpt lat="42.73527" lon="1.5299">
        <ele>2047.261</ele>
        <time>2021-03-06T11:54:58Z</time>
      </trkpt>
      <trkpt lat="42.73527" lon="1.5299">
        <ele>2047.262</ele>
        <time>2021-03-06T11:55:00Z</time>
      </trkpt>
      <trkpt lat="42.73527" lon="1.5299">
        <ele>2047.262</ele>
        <time>2021-03-06T11:55:02Z</time>
      </trkpt>
      <trkpt lat="42.73527" lon="1.5299">
        <ele>2047.261</ele>
        <time>2021-03-06T11:55:04Z</time>
      </trkpt>
      <trkpt lat="42.73527" lon="1.5299">
        <ele>2047.261</ele>
        <time>2021-03-06T11:55:06Z</time>
      </trkpt>
      <trkpt lat="42.73527" lon="1.5299">
        <ele>2047.261</ele>
        <time>2021-03-06T11:55:08Z</time>
      </trkpt>
      <trkpt lat="42.73527" lon="1.5299">
        <ele>2047.261</ele>
        <time>2021-03-06T11:55:10Z</time>
      </trkpt>
      <trkpt lat="42.73527" lon="1.5299">
        <ele>2047.259</ele>
        <time>2021-03-06T11:55:12Z</time>
      </trkpt>
      <trkpt lat="42.73527" lon="1.5299">
        <ele>2047.261</ele>
        <time>2021-03-06T11:55:14Z</time>
      </trkpt>
      <trkpt lat="42.73527" lon="1.5299">
        <ele>2047.257</ele>
        <time>2021-03-06T11:55:16Z</time>
      </trkpt>
      <trkpt lat="42.73527" lon="1.5299">
        <ele>2047.258</ele>
        <time>2021-03-06T11:55:18Z</time>
      </trkpt>
      <trkpt lat="42.73527" lon="1.5299">
        <ele>2047.262</ele>
        <time>2021-03-06T11:55:20Z</time>
      </trkpt>
      <trkpt lat="42.73527" lon="1.5299">
        <ele>2047.263</ele>
        <time>2021-03-06T11:55:22Z</time>
      </trkpt>
      <trkpt lat="42.73527" lon="1.5299">
        <ele>2047.264</ele>
        <time>2021-03-06T11:55:24Z</time>
      </trkpt>
      <trkpt lat="42.73527" lon="1.5299">
        <ele>2047.265</ele>
        <time>2021-03-06T11:55:26Z</time>
      </trkpt>
      <trkpt lat="42.73527" lon="1.5299">
        <ele>2047.266</ele>
        <time>2021-03-06T11:55:28Z</time>
      </trkpt>
      <trkpt lat="42.73527" lon="1.5299">
        <ele>2047.266</ele>
        <time>2021-03-06T11:55:30Z</time>
      </trkpt>
      <trkpt lat="42.73527" lon="1.5299">
        <ele>2047.267</ele>
        <time>2021-03-06T11:55:32Z</time>
      </trkpt>
      <trkpt lat="42.73527" lon="1.5299">
        <ele>2047.266</ele>
        <time>2021-03-06T11:55:34Z</time>
      </trkpt>
      <trkpt lat="42.73527" lon="1.5299">
        <ele>2047.268</ele>
        <time>2021-03-06T11:55:36Z</time>
      </trkpt>
      <trkpt lat="42.73527" lon="1.5299">
        <ele>2047.271</ele>
        <time>2021-03-06T11:55:38Z</time>
      </trkpt>
      <trkpt lat="42.73527" lon="1.5299">
        <ele>2047.268</ele>
        <time>2021-03-06T11:55:40Z</time>
      </trkpt>
      <trkpt lat="42.73527" lon="1.5299">
        <ele>2047.273</ele>
        <time>2021-03-06T11:55:42Z</time>
      </trkpt>
      <trkpt lat="42.73527" lon="1.5299">
        <ele>2047.274</ele>
        <time>2021-03-06T11:55:44Z</time>
      </trkpt>
      <trkpt lat="42.73527" lon="1.5299">
        <ele>2047.272</ele>
        <time>2021-03-06T11:55:46Z</time>
      </trkpt>
      <trkpt lat="42.73527" lon="1.5299">
        <ele>2047.274</ele>
        <time>2021-03-06T11:55:48Z</time>
      </trkpt>
      <trkpt lat="42.73527" lon="1.5299">
        <ele>2047.275</ele>
        <time>2021-03-06T11:55:50Z</time>
      </trkpt>
      <trkpt lat="42.73527" lon="1.5299">
        <ele>2047.277</ele>
        <time>2021-03-06T11:55:52Z</time>
      </trkpt>
      <trkpt lat="42.73527" lon="1.5299">
        <ele>2047.276</ele>
        <time>2021-03-06T11:55:54Z</time>
      </trkpt>
      <trkpt lat="42.73527" lon="1.5299">
        <ele>2047.275</ele>
        <time>2021-03-06T11:55:56Z</time>
      </trkpt>
      <trkpt lat="42.73527" lon="1.5299">
        <ele>2047.276</ele>
        <time>2021-03-06T11:55:58Z</time>
      </trkpt>
      <trkpt lat="42.73527" lon="1.5299">
        <ele>2047.275</ele>
        <time>2021-03-06T11:56:00Z</time>
      </trkpt>
      <trkpt lat="42.73527" lon="1.5299">
        <ele>2047.276</ele>
        <time>2021-03-06T11:56:02Z</time>
      </trkpt>
      <trkpt lat="42.73527" lon="1.5299">
        <ele>2047.276</ele>
        <time>2021-03-06T11:56:04Z</time>
      </trkpt>
      <trkpt lat="42.73527" lon="1.5299">
        <ele>2047.271</ele>
        <time>2021-03-06T11:56:06Z</time>
      </trkpt>
      <trkpt lat="42.73527" lon="1.5299">
        <ele>2047.268</ele>
        <time>2021-03-06T11:56:08Z</time>
      </trkpt>
      <trkpt lat="42.73527" lon="1.5299">
        <ele>2047.266</ele>
        <time>2021-03-06T11:56:10Z</time>
      </trkpt>
      <trkpt lat="42.73527" lon="1.5299">
        <ele>2047.265</ele>
        <time>2021-03-06T11:56:12Z</time>
      </trkpt>
      <trkpt lat="42.73527" lon="1.5299">
        <ele>2047.266</ele>
        <time>2021-03-06T11:56:14Z</time>
      </trkpt>
      <trkpt lat="42.73527" lon="1.5299">
        <ele>2047.265</ele>
        <time>2021-03-06T11:56:16Z</time>
      </trkpt>
      <trkpt lat="42.73527" lon="1.5299">
        <ele>2047.265</ele>
        <time>2021-03-06T11:56:18Z</time>
      </trkpt>
      <trkpt lat="42.73527" lon="1.5299">
        <ele>2047.262</ele>
        <time>2021-03-06T11:56:20Z</time>
      </trkpt>
      <trkpt lat="42.73527" lon="1.5299">
        <ele>2047.263</ele>
        <time>2021-03-06T11:56:22Z</time>
      </trkpt>
      <trkpt lat="42.73527" lon="1.5299">
        <ele>2047.262</ele>
        <time>2021-03-06T11:56:24Z</time>
      </trkpt>
      <trkpt lat="42.73527" lon="1.5299">
        <ele>2047.26</ele>
        <time>2021-03-06T11:56:26Z</time>
      </trkpt>
      <trkpt lat="42.73527" lon="1.5299">
        <ele>2047.258</ele>
        <time>2021-03-06T11:56:28Z</time>
      </trkpt>
      <trkpt lat="42.73527" lon="1.5299">
        <ele>2047.26</ele>
        <time>2021-03-06T11:56:30Z</time>
      </trkpt>
      <trkpt lat="42.73527" lon="1.5299">
        <ele>2047.258</ele>
        <time>2021-03-06T11:56:32Z</time>
      </trkpt>
      <trkpt lat="42.73527" lon="1.5299">
        <ele>2047.259</ele>
        <time>2021-03-06T11:56:34Z</time>
      </trkpt>
      <trkpt lat="42.73527" lon="1.5299">
        <ele>2047.258</ele>
        <time>2021-03-06T11:56:36Z</time>
      </trkpt>
      <trkpt lat="42.73527" lon="1.5299">
        <ele>2047.258</ele>
        <time>2021-03-06T11:56:38Z</time>
      </trkpt>
      <trkpt lat="42.73527" lon="1.5299">
        <ele>2047.257</ele>
        <time>2021-03-06T11:56:40Z</time>
      </trkpt>
      <trkpt lat="42.73527" lon="1.5299">
        <ele>2047.253</ele>
        <time>2021-03-06T11:56:42Z</time>
      </trkpt>
      <trkpt lat="42.73527" lon="1.5299">
        <ele>2047.254</ele>
        <time>2021-03-06T11:56:44Z</time>
      </trkpt>
      <trkpt lat="42.73527" lon="1.5299">
        <ele>2047.254</ele>
        <time>2021-03-06T11:56:46Z</time>
      </trkpt>
      <trkpt lat="42.73527" lon="1.5299">
        <ele>2047.25</ele>
        <time>2021-03-06T11:56:48Z</time>
      </trkpt>
      <trkpt lat="42.73527" lon="1.5299">
        <ele>2047.251</ele>
        <time>2021-03-06T11:56:50Z</time>
      </trkpt>
      <trkpt lat="42.73527" lon="1.5299">
        <ele>2047.25</ele>
        <time>2021-03-06T11:56:52Z</time>
      </trkpt>
      <trkpt lat="42.73527" lon="1.5299">
        <ele>2047.25</ele>
        <time>2021-03-06T11:56:54Z</time>
      </trkpt>
      <trkpt lat="42.73527" lon="1.5299">
        <ele>2047.254</ele>
        <time>2021-03-06T11:56:56Z</time>
      </trkpt>
      <trkpt lat="42.73527" lon="1.5299">
        <ele>2047.255</ele>
        <time>2021-03-06T11:56:58Z</time>
      </trkpt>
      <trkpt lat="42.73527" lon="1.5299">
        <ele>2047.254</ele>
        <time>2021-03-06T11:57:00Z</time>
      </trkpt>
      <trkpt lat="42.73527" lon="1.5299">
        <ele>2047.254</ele>
        <time>2021-03-06T11:57:02Z</time>
      </trkpt>
      <trkpt lat="42.73527" lon="1.5299">
        <ele>2047.255</ele>
        <time>2021-03-06T11:57:04Z</time>
      </trkpt>
      <trkpt lat="42.73527" lon="1.5299">
        <ele>2047.257</ele>
        <time>2021-03-06T11:57:06Z</time>
      </trkpt>
      <trkpt lat="42.73527" lon="1.5299">
        <ele>2047.261</ele>
        <time>2021-03-06T11:57:08Z</time>
      </trkpt>
      <trkpt lat="42.73527" lon="1.5299">
        <ele>2047.259</ele>
        <time>2021-03-06T11:57:11Z</time>
      </trkpt>
      <trkpt lat="42.73527" lon="1.5299">
        <ele>2047.262</ele>
        <time>2021-03-06T11:57:13Z</time>
      </trkpt>
      <trkpt lat="42.73527" lon="1.5299">
        <ele>2047.263</ele>
        <time>2021-03-06T11:57:15Z</time>
      </trkpt>
      <trkpt lat="42.73527" lon="1.5299">
        <ele>2047.267</ele>
        <time>2021-03-06T11:57:17Z</time>
      </trkpt>
      <trkpt lat="42.73527" lon="1.5299">
        <ele>2047.265</ele>
        <time>2021-03-06T11:57:19Z</time>
      </trkpt>
      <trkpt lat="42.73527" lon="1.5299">
        <ele>2047.267</ele>
        <time>2021-03-06T11:57:21Z</time>
      </trkpt>
      <trkpt lat="42.73527" lon="1.5299">
        <ele>2047.267</ele>
        <time>2021-03-06T11:57:23Z</time>
      </trkpt>
      <trkpt lat="42.73527" lon="1.5299">
        <ele>2047.269</ele>
        <time>2021-03-06T11:57:25Z</time>
      </trkpt>
      <trkpt lat="42.73527" lon="1.5299">
        <ele>2047.273</ele>
        <time>2021-03-06T11:57:27Z</time>
      </trkpt>
      <trkpt lat="42.73527" lon="1.5299">
        <ele>2047.275</ele>
        <time>2021-03-06T11:57:29Z</time>
      </trkpt>
      <trkpt lat="42.73527" lon="1.5299">
        <ele>2047.276</ele>
        <time>2021-03-06T11:57:31Z</time>
      </trkpt>
      <trkpt lat="42.73527" lon="1.5299">
        <ele>2047.279</ele>
        <time>2021-03-06T11:57:33Z</time>
      </trkpt>
      <trkpt lat="42.73527" lon="1.5299">
        <ele>2047.28</ele>
        <time>2021-03-06T11:57:35Z</time>
      </trkpt>
      <trkpt lat="42.73527" lon="1.5299">
        <ele>2047.282</ele>
        <time>2021-03-06T11:57:37Z</time>
      </trkpt>
      <trkpt lat="42.73527" lon="1.5299">
        <ele>2047.282</ele>
        <time>2021-03-06T11:57:39Z</time>
      </trkpt>
      <trkpt lat="42.73527" lon="1.5299">
        <ele>2047.286</ele>
        <time>2021-03-06T11:57:41Z</time>
      </trkpt>
      <trkpt lat="42.73527" lon="1.5299">
        <ele>2047.288</ele>
        <time>2021-03-06T11:57:43Z</time>
      </trkpt>
      <trkpt lat="42.73527" lon="1.5299">
        <ele>2047.286</ele>
        <time>2021-03-06T11:57:45Z</time>
      </trkpt>
      <trkpt lat="42.73527" lon="1.5299">
        <ele>2047.286</ele>
        <time>2021-03-06T11:57:47Z</time>
      </trkpt>
      <trkpt lat="42.73527" lon="1.5299">
        <ele>2047.286</ele>
        <time>2021-03-06T11:57:49Z</time>
      </trkpt>
      <trkpt lat="42.73527" lon="1.5299">
        <ele>2047.285</ele>
        <time>2021-03-06T11:57:51Z</time>
      </trkpt>
      <trkpt lat="42.73527" lon="1.5299">
        <ele>2047.286</ele>
        <time>2021-03-06T11:57:53Z</time>
      </trkpt>
      <trkpt lat="42.73527" lon="1.5299">
        <ele>2047.287</ele>
        <time>2021-03-06T11:57:55Z</time>
      </trkpt>
      <trkpt lat="42.73527" lon="1.5299">
        <ele>2047.286</ele>
        <time>2021-03-06T11:57:57Z</time>
      </trkpt>
      <trkpt lat="42.73527" lon="1.5299">
        <ele>2047.285</ele>
        <time>2021-03-06T11:57:59Z</time>
      </trkpt>
      <trkpt lat="42.73527" lon="1.5299">
        <ele>2047.284</ele>
        <time>2021-03-06T11:58:01Z</time>
      </trkpt>
      <trkpt lat="42.73527" lon="1.5299">
        <ele>2047.283</ele>
        <time>2021-03-06T11:58:03Z</time>
      </trkpt>
      <trkpt lat="42.73527" lon="1.5299">
        <ele>2047.282</ele>
        <time>2021-03-06T11:58:05Z</time>
      </trkpt>
      <trkpt lat="42.73527" lon="1.5299">
        <ele>2047.281</ele>
        <time>2021-03-06T11:58:07Z</time>
      </trkpt>
      <trkpt lat="42.73527" lon="1.5299">
        <ele>2047.281</ele>
        <time>2021-03-06T11:58:10Z</time>
      </trkpt>
      <trkpt lat="42.73527" lon="1.5299">
        <ele>2047.282</ele>
        <time>2021-03-06T11:58:12Z</time>
      </trkpt>
      <trkpt lat="42.73527" lon="1.5299">
        <ele>2047.281</ele>
        <time>2021-03-06T11:58:14Z</time>
      </trkpt>
      <trkpt lat="42.73527" lon="1.5299">
        <ele>2047.281</ele>
        <time>2021-03-06T11:58:16Z</time>
      </trkpt>
      <trkpt lat="42.73527" lon="1.5299">
        <ele>2047.282</ele>
        <time>2021-03-06T11:58:18Z</time>
      </trkpt>
      <trkpt lat="42.73527" lon="1.5299">
        <ele>2047.281</ele>
        <time>2021-03-06T11:58:20Z</time>
      </trkpt>
      <trkpt lat="42.73527" lon="1.5299">
        <ele>2047.274</ele>
        <time>2021-03-06T11:58:22Z</time>
      </trkpt>
      <trkpt lat="42.73527" lon="1.5299">
        <ele>2047.278</ele>
        <time>2021-03-06T11:58:24Z</time>
      </trkpt>
      <trkpt lat="42.73527" lon="1.5299">
        <ele>2047.28</ele>
        <time>2021-03-06T11:58:26Z</time>
      </trkpt>
      <trkpt lat="42.73527" lon="1.5299">
        <ele>2047.278</ele>
        <time>2021-03-06T11:58:28Z</time>
      </trkpt>
      <trkpt lat="42.73527" lon="1.5299">
        <ele>2047.281</ele>
        <time>2021-03-06T11:58:30Z</time>
      </trkpt>
      <trkpt lat="42.73527" lon="1.5299">
        <ele>2047.282</ele>
        <time>2021-03-06T11:58:32Z</time>
      </trkpt>
      <trkpt lat="42.73527" lon="1.5299">
        <ele>2047.283</ele>
        <time>2021-03-06T11:58:34Z</time>
      </trkpt>
      <trkpt lat="42.73527" lon="1.5299">
        <ele>2047.285</ele>
        <time>2021-03-06T11:58:36Z</time>
      </trkpt>
      <trkpt lat="42.73527" lon="1.5299">
        <ele>2047.285</ele>
        <time>2021-03-06T11:58:38Z</time>
      </trkpt>
      <trkpt lat="42.73527" lon="1.5299">
        <ele>2047.286</ele>
        <time>2021-03-06T11:58:40Z</time>
      </trkpt>
      <trkpt lat="42.73527" lon="1.5299">
        <ele>2047.282</ele>
        <time>2021-03-06T11:58:42Z</time>
      </trkpt>
      <trkpt lat="42.73527" lon="1.5299">
        <ele>2047.28</ele>
        <time>2021-03-06T11:58:44Z</time>
      </trkpt>
      <trkpt lat="42.73527" lon="1.5299">
        <ele>2047.279</ele>
        <time>2021-03-06T11:58:46Z</time>
      </trkpt>
      <trkpt lat="42.73527" lon="1.5299">
        <ele>2047.277</ele>
        <time>2021-03-06T11:58:48Z</time>
      </trkpt>
      <trkpt lat="42.73527" lon="1.5299">
        <ele>2047.276</ele>
        <time>2021-03-06T11:58:50Z</time>
      </trkpt>
      <trkpt lat="42.73527" lon="1.5299">
        <ele>2047.277</ele>
        <time>2021-03-06T11:58:52Z</time>
      </trkpt>
      <trkpt lat="42.73527" lon="1.5299">
        <ele>2047.275</ele>
        <time>2021-03-06T11:58:54Z</time>
      </trkpt>
      <trkpt lat="42.73527" lon="1.5299">
        <ele>2047.275</ele>
        <time>2021-03-06T11:58:56Z</time>
      </trkpt>
      <trkpt lat="42.73527" lon="1.5299">
        <ele>2047.277</ele>
        <time>2021-03-06T11:58:58Z</time>
      </trkpt>
      <trkpt lat="42.73527" lon="1.5299">
        <ele>2047.275</ele>
        <time>2021-03-06T11:59:00Z</time>
      </trkpt>
      <trkpt lat="42.73527" lon="1.5299">
        <ele>2047.276</ele>
        <time>2021-03-06T11:59:02Z</time>
      </trkpt>
      <trkpt lat="42.73527" lon="1.5299">
        <ele>2047.275</ele>
        <time>2021-03-06T11:59:04Z</time>
      </trkpt>
      <trkpt lat="42.73527" lon="1.5299">
        <ele>2047.276</ele>
        <time>2021-03-06T11:59:06Z</time>
      </trkpt>
      <trkpt lat="42.73527" lon="1.5299">
        <ele>2047.275</ele>
        <time>2021-03-06T11:59:08Z</time>
      </trkpt>
      <trkpt lat="42.73527" lon="1.5299">
        <ele>2047.273</ele>
        <time>2021-03-06T11:59:10Z</time>
      </trkpt>
      <trkpt lat="42.73527" lon="1.5299">
        <ele>2047.273</ele>
        <time>2021-03-06T11:59:12Z</time>
      </trkpt>
      <trkpt lat="42.73527" lon="1.5299">
        <ele>2047.275</ele>
        <time>2021-03-06T11:59:14Z</time>
      </trkpt>
      <trkpt lat="42.73527" lon="1.5299">
        <ele>2047.277</ele>
        <time>2021-03-06T11:59:16Z</time>
      </trkpt>
      <trkpt lat="42.73527" lon="1.5299">
        <ele>2047.276</ele>
        <time>2021-03-06T11:59:18Z</time>
      </trkpt>
      <trkpt lat="42.73527" lon="1.5299">
        <ele>2047.276</ele>
        <time>2021-03-06T11:59:20Z</time>
      </trkpt>
      <trkpt lat="42.73527" lon="1.5299">
        <ele>2047.276</ele>
        <time>2021-03-06T11:59:22Z</time>
      </trkpt>
      <trkpt lat="42.73527" lon="1.5299">
        <ele>2047.277</ele>
        <time>2021-03-06T11:59:23Z</time>
      </trkpt>
      <trkpt lat="42.73527" lon="1.5299">
        <ele>2047.275</ele>
        <time>2021-03-06T11:59:26Z</time>
      </trkpt>
      <trkpt lat="42.73527" lon="1.5299">
        <ele>2047.276</ele>
        <time>2021-03-06T11:59:28Z</time>
      </trkpt>
      <trkpt lat="42.73527" lon="1.5299">
        <ele>2047.275</ele>
        <time>2021-03-06T11:59:30Z</time>
      </trkpt>
      <trkpt lat="42.73527" lon="1.5299">
        <ele>2047.275</ele>
        <time>2021-03-06T11:59:32Z</time>
      </trkpt>
      <trkpt lat="42.73527" lon="1.5299">
        <ele>2047.273</ele>
        <time>2021-03-06T11:59:34Z</time>
      </trkpt>
      <trkpt lat="42.73527" lon="1.5299">
        <ele>2047.27</ele>
        <time>2021-03-06T11:59:36Z</time>
      </trkpt>
      <trkpt lat="42.73527" lon="1.5299">
        <ele>2047.268</ele>
        <time>2021-03-06T11:59:38Z</time>
      </trkpt>
      <trkpt lat="42.73527" lon="1.5299">
        <ele>2047.269</ele>
        <time>2021-03-06T11:59:40Z</time>
      </trkpt>
      <trkpt lat="42.73527" lon="1.5299">
        <ele>2047.269</ele>
        <time>2021-03-06T11:59:42Z</time>
      </trkpt>
      <trkpt lat="42.73527" lon="1.5299">
        <ele>2047.268</ele>
        <time>2021-03-06T11:59:44Z</time>
      </trkpt>
      <trkpt lat="42.73527" lon="1.5299">
        <ele>2047.264</ele>
        <time>2021-03-06T11:59:46Z</time>
      </trkpt>
      <trkpt lat="42.73527" lon="1.5299">
        <ele>2047.265</ele>
        <time>2021-03-06T11:59:48Z</time>
      </trkpt>
      <trkpt lat="42.73527" lon="1.5299">
        <ele>2047.264</ele>
        <time>2021-03-06T11:59:50Z</time>
      </trkpt>
      <trkpt lat="42.73527" lon="1.5299">
        <ele>2047.263</ele>
        <time>2021-03-06T11:59:52Z</time>
      </trkpt>
      <trkpt lat="42.73527" lon="1.5299">
        <ele>2047.264</ele>
        <time>2021-03-06T11:59:54Z</time>
      </trkpt>
      <trkpt lat="42.73527" lon="1.5299">
        <ele>2047.265</ele>
        <time>2021-03-06T11:59:56Z</time>
      </trkpt>
      <trkpt lat="42.73527" lon="1.5299">
        <ele>2047.265</ele>
        <time>2021-03-06T11:59:58Z</time>
      </trkpt>
      <trkpt lat="42.73527" lon="1.5299">
        <ele>2047.266</ele>
        <time>2021-03-06T12:00:00Z</time>
      </trkpt>
      <trkpt lat="42.73527" lon="1.5299">
        <ele>2047.266</ele>
        <time>2021-03-06T12:00:02Z</time>
      </trkpt>
      <trkpt lat="42.73527" lon="1.5299">
        <ele>2047.264</ele>
        <time>2021-03-06T12:00:04Z</time>
      </trkpt>
      <trkpt lat="42.73527" lon="1.5299">
        <ele>2047.267</ele>
        <time>2021-03-06T12:00:06Z</time>
      </trkpt>
      <trkpt lat="42.73527" lon="1.5299">
        <ele>2047.269</ele>
        <time>2021-03-06T12:00:08Z</time>
      </trkpt>
      <trkpt lat="42.73527" lon="1.5299">
        <ele>2047.268</ele>
        <time>2021-03-06T12:00:10Z</time>
      </trkpt>
      <trkpt lat="42.73527" lon="1.5299">
        <ele>2047.272</ele>
        <time>2021-03-06T12:00:12Z</time>
      </trkpt>
      <trkpt lat="42.73527" lon="1.5299">
        <ele>2047.271</ele>
        <time>2021-03-06T12:00:14Z</time>
      </trkpt>
      <trkpt lat="42.73527" lon="1.5299">
        <ele>2047.273</ele>
        <time>2021-03-06T12:00:16Z</time>
      </trkpt>
      <trkpt lat="42.73527" lon="1.5299">
        <ele>2047.273</ele>
        <time>2021-03-06T12:00:18Z</time>
      </trkpt>
      <trkpt lat="42.73527" lon="1.5299">
        <ele>2047.273</ele>
        <time>2021-03-06T12:00:20Z</time>
      </trkpt>
      <trkpt lat="42.73527" lon="1.5299">
        <ele>2047.276</ele>
        <time>2021-03-06T12:00:22Z</time>
      </trkpt>
      <trkpt lat="42.73527" lon="1.5299">
        <ele>2047.278</ele>
        <time>2021-03-06T12:00:24Z</time>
      </trkpt>
      <trkpt lat="42.73527" lon="1.5299">
        <ele>2047.28</ele>
        <time>2021-03-06T12:00:26Z</time>
      </trkpt>
      <trkpt lat="42.73527" lon="1.5299">
        <ele>2047.28</ele>
        <time>2021-03-06T12:00:28Z</time>
      </trkpt>
      <trkpt lat="42.73527" lon="1.5299">
        <ele>2047.278</ele>
        <time>2021-03-06T12:00:30Z</time>
      </trkpt>
      <trkpt lat="42.73527" lon="1.5299">
        <ele>2047.277</ele>
        <time>2021-03-06T12:00:32Z</time>
      </trkpt>
      <trkpt lat="42.73527" lon="1.5299">
        <ele>2047.279</ele>
        <time>2021-03-06T12:00:34Z</time>
      </trkpt>
      <trkpt lat="42.73527" lon="1.5299">
        <ele>2047.278</ele>
        <time>2021-03-06T12:00:36Z</time>
      </trkpt>
      <trkpt lat="42.73527" lon="1.5299">
        <ele>2047.28</ele>
        <time>2021-03-06T12:00:38Z</time>
      </trkpt>
      <trkpt lat="42.73527" lon="1.5299">
        <ele>2047.28</ele>
        <time>2021-03-06T12:00:40Z</time>
      </trkpt>
      <trkpt lat="42.73527" lon="1.5299">
        <ele>2047.274</ele>
        <time>2021-03-06T12:00:42Z</time>
      </trkpt>
      <trkpt lat="42.73527" lon="1.5299">
        <ele>2047.276</ele>
        <time>2021-03-06T12:00:44Z</time>
      </trkpt>
      <trkpt lat="42.73527" lon="1.5299">
        <ele>2047.275</ele>
        <time>2021-03-06T12:00:46Z</time>
      </trkpt>
      <trkpt lat="42.73527" lon="1.5299">
        <ele>2047.274</ele>
        <time>2021-03-06T12:00:48Z</time>
      </trkpt>
      <trkpt lat="42.73527" lon="1.5299">
        <ele>2047.274</ele>
        <time>2021-03-06T12:00:50Z</time>
      </trkpt>
      <trkpt lat="42.73527" lon="1.5299">
        <ele>2047.274</ele>
        <time>2021-03-06T12:00:52Z</time>
      </trkpt>
      <trkpt lat="42.73527" lon="1.5299">
        <ele>2047.275</ele>
        <time>2021-03-06T12:00:54Z</time>
      </trkpt>
      <trkpt lat="42.73527" lon="1.5299">
        <ele>2047.271</ele>
        <time>2021-03-06T12:00:56Z</time>
      </trkpt>
      <trkpt lat="42.73527" lon="1.5299">
        <ele>2047.269</ele>
        <time>2021-03-06T12:00:58Z</time>
      </trkpt>
      <trkpt lat="42.73527" lon="1.5299">
        <ele>2047.269</ele>
        <time>2021-03-06T12:01:00Z</time>
      </trkpt>
      <trkpt lat="42.73527" lon="1.5299">
        <ele>2047.311</ele>
        <time>2021-03-06T12:01:02Z</time>
      </trkpt>
      <trkpt lat="42.73527" lon="1.5299">
        <ele>2047.365</ele>
        <time>2021-03-06T12:01:04Z</time>
      </trkpt>
      <trkpt lat="42.73527" lon="1.5299">
        <ele>2047.366</ele>
        <time>2021-03-06T12:01:06Z</time>
      </trkpt>
      <trkpt lat="42.73527" lon="1.5299">
        <ele>2047.369</ele>
        <time>2021-03-06T12:01:08Z</time>
      </trkpt>
      <trkpt lat="42.73527" lon="1.5299">
        <ele>2047.366</ele>
        <time>2021-03-06T12:01:10Z</time>
      </trkpt>
      <trkpt lat="42.73527" lon="1.5299">
        <ele>2047.367</ele>
        <time>2021-03-06T12:01:12Z</time>
      </trkpt>
      <trkpt lat="42.73527" lon="1.5299">
        <ele>2047.365</ele>
        <time>2021-03-06T12:01:14Z</time>
      </trkpt>
      <trkpt lat="42.73527" lon="1.5299">
        <ele>2047.363</ele>
        <time>2021-03-06T12:01:16Z</time>
      </trkpt>
      <trkpt lat="42.73527" lon="1.5299">
        <ele>2047.36</ele>
        <time>2021-03-06T12:01:18Z</time>
      </trkpt>
      <trkpt lat="42.73527" lon="1.5299">
        <ele>2047.36</ele>
        <time>2021-03-06T12:01:20Z</time>
      </trkpt>
      <trkpt lat="42.73527" lon="1.5299">
        <ele>2047.358</ele>
        <time>2021-03-06T12:01:22Z</time>
      </trkpt>
      <trkpt lat="42.73527" lon="1.5299">
        <ele>2047.357</ele>
        <time>2021-03-06T12:01:24Z</time>
      </trkpt>
      <trkpt lat="42.73527" lon="1.5299">
        <ele>2047.357</ele>
        <time>2021-03-06T12:01:25Z</time>
      </trkpt>
      <trkpt lat="42.73527" lon="1.5299">
        <ele>2047.354</ele>
        <time>2021-03-06T12:01:28Z</time>
      </trkpt>
      <trkpt lat="42.73527" lon="1.5299">
        <ele>2047.353</ele>
        <time>2021-03-06T12:01:30Z</time>
      </trkpt>
      <trkpt lat="42.73527" lon="1.5299">
        <ele>2047.349</ele>
        <time>2021-03-06T12:01:32Z</time>
      </trkpt>
      <trkpt lat="42.73527" lon="1.5299">
        <ele>2047.347</ele>
        <time>2021-03-06T12:01:34Z</time>
      </trkpt>
      <trkpt lat="42.73527" lon="1.5299">
        <ele>2047.346</ele>
        <time>2021-03-06T12:01:36Z</time>
      </trkpt>
      <trkpt lat="42.73527" lon="1.5299">
        <ele>2047.342</ele>
        <time>2021-03-06T12:01:38Z</time>
      </trkpt>
      <trkpt lat="42.73527" lon="1.5299">
        <ele>2047.339</ele>
        <time>2021-03-06T12:01:40Z</time>
      </trkpt>
      <trkpt lat="42.73527" lon="1.5299">
        <ele>2047.338</ele>
        <time>2021-03-06T12:01:42Z</time>
      </trkpt>
      <trkpt lat="42.73527" lon="1.5299">
        <ele>2047.337</ele>
        <time>2021-03-06T12:01:44Z</time>
      </trkpt>
      <trkpt lat="42.73527" lon="1.5299">
        <ele>2047.336</ele>
        <time>2021-03-06T12:01:46Z</time>
      </trkpt>
      <trkpt lat="42.73527" lon="1.5299">
        <ele>2047.334</ele>
        <time>2021-03-06T12:01:48Z</time>
      </trkpt>
      <trkpt lat="42.73527" lon="1.5299">
        <ele>2047.335</ele>
        <time>2021-03-06T12:01:50Z</time>
      </trkpt>
      <trkpt lat="42.73527" lon="1.5299">
        <ele>2047.338</ele>
        <time>2021-03-06T12:01:52Z</time>
      </trkpt>
      <trkpt lat="42.73527" lon="1.5299">
        <ele>2047.336</ele>
        <time>2021-03-06T12:01:54Z</time>
      </trkpt>
      <trkpt lat="42.73527" lon="1.5299">
        <ele>2047.336</ele>
        <time>2021-03-06T12:01:56Z</time>
      </trkpt>
      <trkpt lat="42.73527" lon="1.5299">
        <ele>2047.335</ele>
        <time>2021-03-06T12:01:58Z</time>
      </trkpt>
      <trkpt lat="42.73527" lon="1.5299">
        <ele>2047.333</ele>
        <time>2021-03-06T12:02:00Z</time>
      </trkpt>
      <trkpt lat="42.73527" lon="1.5299">
        <ele>2047.333</ele>
        <time>2021-03-06T12:02:02Z</time>
      </trkpt>
      <trkpt lat="42.73527" lon="1.5299">
        <ele>2047.332</ele>
        <time>2021-03-06T12:02:04Z</time>
      </trkpt>
      <trkpt lat="42.73527" lon="1.5299">
        <ele>2047.331</ele>
        <time>2021-03-06T12:02:06Z</time>
      </trkpt>
      <trkpt lat="42.73527" lon="1.5299">
        <ele>2047.333</ele>
        <time>2021-03-06T12:02:08Z</time>
      </trkpt>
      <trkpt lat="42.73527" lon="1.5299">
        <ele>2047.331</ele>
        <time>2021-03-06T12:02:10Z</time>
      </trkpt>
      <trkpt lat="42.73527" lon="1.5299">
        <ele>2047.332</ele>
        <time>2021-03-06T12:02:12Z</time>
      </trkpt>
      <trkpt lat="42.73527" lon="1.5299">
        <ele>2047.33</ele>
        <time>2021-03-06T12:02:14Z</time>
      </trkpt>
      <trkpt lat="42.73527" lon="1.5299">
        <ele>2047.33</ele>
        <time>2021-03-06T12:02:16Z</time>
      </trkpt>
      <trkpt lat="42.73527" lon="1.5299">
        <ele>2047.329</ele>
        <time>2021-03-06T12:02:18Z</time>
      </trkpt>
      <trkpt lat="42.73527" lon="1.5299">
        <ele>2047.33</ele>
        <time>2021-03-06T12:02:20Z</time>
      </trkpt>
      <trkpt lat="42.73527" lon="1.5299">
        <ele>2047.327</ele>
        <time>2021-03-06T12:02:22Z</time>
      </trkpt>
      <trkpt lat="42.73527" lon="1.5299">
        <ele>2047.327</ele>
        <time>2021-03-06T12:02:24Z</time>
      </trkpt>
      <trkpt lat="42.73527" lon="1.5299">
        <ele>2047.326</ele>
        <time>2021-03-06T12:02:26Z</time>
      </trkpt>
      <trkpt lat="42.73527" lon="1.5299">
        <ele>2047.325</ele>
        <time>2021-03-06T12:02:28Z</time>
      </trkpt>
      <trkpt lat="42.73527" lon="1.5299">
        <ele>2047.324</ele>
        <time>2021-03-06T12:02:30Z</time>
      </trkpt>
      <trkpt lat="42.73527" lon="1.5299">
        <ele>2047.326</ele>
        <time>2021-03-06T12:02:32Z</time>
      </trkpt>
      <trkpt lat="42.73527" lon="1.5299">
        <ele>2047.326</ele>
        <time>2021-03-06T12:02:34Z</time>
      </trkpt>
      <trkpt lat="42.73527" lon="1.5299">
        <ele>2047.327</ele>
        <time>2021-03-06T12:02:36Z</time>
      </trkpt>
      <trkpt lat="42.73527" lon="1.5299">
        <ele>2047.327</ele>
        <time>2021-03-06T12:02:38Z</time>
      </trkpt>
      <trkpt lat="42.73527" lon="1.5299">
        <ele>2047.324</ele>
        <time>2021-03-06T12:02:40Z</time>
      </trkpt>
      <trkpt lat="42.73527" lon="1.5299">
        <ele>2047.323</ele>
        <time>2021-03-06T12:02:42Z</time>
      </trkpt>
      <trkpt lat="42.73527" lon="1.5299">
        <ele>2047.32</ele>
        <time>2021-03-06T12:02:44Z</time>
      </trkpt>
      <trkpt lat="42.73527" lon="1.5299">
        <ele>2047.317</ele>
        <time>2021-03-06T12:02:46Z</time>
      </trkpt>
      <trkpt lat="42.73527" lon="1.5299">
        <ele>2047.314</ele>
        <time>2021-03-06T12:02:48Z</time>
      </trkpt>
      <trkpt lat="42.73527" lon="1.5299">
        <ele>2047.313</ele>
        <time>2021-03-06T12:02:50Z</time>
      </trkpt>
      <trkpt lat="42.73527" lon="1.5299">
        <ele>2047.308</ele>
        <time>2021-03-06T12:02:52Z</time>
      </trkpt>
      <trkpt lat="42.73527" lon="1.5299">
        <ele>2047.306</ele>
        <time>2021-03-06T12:02:54Z</time>
      </trkpt>
      <trkpt lat="42.73527" lon="1.5299">
        <ele>2047.305</ele>
        <time>2021-03-06T12:02:56Z</time>
      </trkpt>
      <trkpt lat="42.73527" lon="1.5299">
        <ele>2047.302</ele>
        <time>2021-03-06T12:02:58Z</time>
      </trkpt>
      <trkpt lat="42.73527" lon="1.5299">
        <ele>2047.302</ele>
        <time>2021-03-06T12:03:00Z</time>
      </trkpt>
      <trkpt lat="42.73527" lon="1.5299">
        <ele>2047.299</ele>
        <time>2021-03-06T12:03:02Z</time>
      </trkpt>
      <trkpt lat="42.73527" lon="1.5299">
        <ele>2047.296</ele>
        <time>2021-03-06T12:03:04Z</time>
      </trkpt>
      <trkpt lat="42.73527" lon="1.5299">
        <ele>2047.296</ele>
        <time>2021-03-06T12:03:06Z</time>
      </trkpt>
      <trkpt lat="42.73527" lon="1.5299">
        <ele>2047.293</ele>
        <time>2021-03-06T12:03:08Z</time>
      </trkpt>
      <trkpt lat="42.73527" lon="1.5299">
        <ele>2047.295</ele>
        <time>2021-03-06T12:03:10Z</time>
      </trkpt>
      <trkpt lat="42.73527" lon="1.5299">
        <ele>2047.295</ele>
        <time>2021-03-06T12:03:12Z</time>
      </trkpt>
      <trkpt lat="42.73527" lon="1.5299">
        <ele>2047.292</ele>
        <time>2021-03-06T12:03:14Z</time>
      </trkpt>
      <trkpt lat="42.73527" lon="1.5299">
        <ele>2047.292</ele>
        <time>2021-03-06T12:03:16Z</time>
      </trkpt>
      <trkpt lat="42.73527" lon="1.5299">
        <ele>2047.29</ele>
        <time>2021-03-06T12:03:18Z</time>
      </trkpt>
      <trkpt lat="42.73527" lon="1.5299">
        <ele>2047.294</ele>
        <time>2021-03-06T12:03:20Z</time>
      </trkpt>
      <trkpt lat="42.73527" lon="1.5299">
        <ele>2047.291</ele>
        <time>2021-03-06T12:03:22Z</time>
      </trkpt>
      <trkpt lat="42.73527" lon="1.5299">
        <ele>2047.291</ele>
        <time>2021-03-06T12:03:24Z</time>
      </trkpt>
      <trkpt lat="42.73527" lon="1.5299">
        <ele>2047.292</ele>
        <time>2021-03-06T12:03:26Z</time>
      </trkpt>
      <trkpt lat="42.73527" lon="1.5299">
        <ele>2047.292</ele>
        <time>2021-03-06T12:03:28Z</time>
      </trkpt>
      <trkpt lat="42.73527" lon="1.5299">
        <ele>2047.292</ele>
        <time>2021-03-06T12:03:30Z</time>
      </trkpt>
      <trkpt lat="42.73527" lon="1.5299">
        <ele>2047.29</ele>
        <time>2021-03-06T12:03:32Z</time>
      </trkpt>
      <trkpt lat="42.73527" lon="1.5299">
        <ele>2047.29</ele>
        <time>2021-03-06T12:03:34Z</time>
      </trkpt>
      <trkpt lat="42.73527" lon="1.5299">
        <ele>2047.287</ele>
        <time>2021-03-06T12:03:36Z</time>
      </trkpt>
      <trkpt lat="42.73527" lon="1.5299">
        <ele>2047.287</ele>
        <time>2021-03-06T12:03:38Z</time>
      </trkpt>
      <trkpt lat="42.73527" lon="1.5299">
        <ele>2047.284</ele>
        <time>2021-03-06T12:03:40Z</time>
      </trkpt>
      <trkpt lat="42.73527" lon="1.5299">
        <ele>2047.281</ele>
        <time>2021-03-06T12:03:42Z</time>
      </trkpt>
      <trkpt lat="42.73527" lon="1.5299">
        <ele>2047.281</ele>
        <time>2021-03-06T12:03:44Z</time>
      </trkpt>
      <trkpt lat="42.73527" lon="1.5299">
        <ele>2047.285</ele>
        <time>2021-03-06T12:03:46Z</time>
      </trkpt>
      <trkpt lat="42.73527" lon="1.5299">
        <ele>2047.287</ele>
        <time>2021-03-06T12:03:48Z</time>
      </trkpt>
      <trkpt lat="42.73527" lon="1.5299">
        <ele>2047.287</ele>
        <time>2021-03-06T12:03:50Z</time>
      </trkpt>
      <trkpt lat="42.73527" lon="1.5299">
        <ele>2047.285</ele>
        <time>2021-03-06T12:03:52Z</time>
      </trkpt>
      <trkpt lat="42.73527" lon="1.5299">
        <ele>2047.285</ele>
        <time>2021-03-06T12:03:54Z</time>
      </trkpt>
      <trkpt lat="42.73527" lon="1.5299">
        <ele>2047.283</ele>
        <time>2021-03-06T12:03:56Z</time>
      </trkpt>
      <trkpt lat="42.73527" lon="1.5299">
        <ele>2047.283</ele>
        <time>2021-03-06T12:03:58Z</time>
      </trkpt>
      <trkpt lat="42.73527" lon="1.5299">
        <ele>2047.286</ele>
        <time>2021-03-06T12:04:00Z</time>
      </trkpt>
      <trkpt lat="42.73527" lon="1.5299">
        <ele>2047.283</ele>
        <time>2021-03-06T12:04:02Z</time>
      </trkpt>
      <trkpt lat="42.73527" lon="1.5299">
        <ele>2047.283</ele>
        <time>2021-03-06T12:04:04Z</time>
      </trkpt>
      <trkpt lat="42.73527" lon="1.5299">
        <ele>2047.282</ele>
        <time>2021-03-06T12:04:06Z</time>
      </trkpt>
      <trkpt lat="42.73527" lon="1.5299">
        <ele>2047.284</ele>
        <time>2021-03-06T12:04:08Z</time>
      </trkpt>
      <trkpt lat="42.73527" lon="1.5299">
        <ele>2047.283</ele>
        <time>2021-03-06T12:04:10Z</time>
      </trkpt>
      <trkpt lat="42.73527" lon="1.5299">
        <ele>2047.283</ele>
        <time>2021-03-06T12:04:12Z</time>
      </trkpt>
      <trkpt lat="42.73527" lon="1.5299">
        <ele>2047.283</ele>
        <time>2021-03-06T12:04:14Z</time>
      </trkpt>
      <trkpt lat="42.73527" lon="1.5299">
        <ele>2047.28</ele>
        <time>2021-03-06T12:04:16Z</time>
      </trkpt>
      <trkpt lat="42.73527" lon="1.5299">
        <ele>2047.278</ele>
        <time>2021-03-06T12:04:18Z</time>
      </trkpt>
      <trkpt lat="42.73527" lon="1.5299">
        <ele>2047.277</ele>
        <time>2021-03-06T12:04:20Z</time>
      </trkpt>
      <trkpt lat="42.73527" lon="1.5299">
        <ele>2047.278</ele>
        <time>2021-03-06T12:04:22Z</time>
      </trkpt>
      <trkpt lat="42.73527" lon="1.5299">
        <ele>2047.278</ele>
        <time>2021-03-06T12:04:24Z</time>
      </trkpt>
      <trkpt lat="42.73527" lon="1.5299">
        <ele>2047.279</ele>
        <time>2021-03-06T12:04:26Z</time>
      </trkpt>
      <trkpt lat="42.73527" lon="1.5299">
        <ele>2047.277</ele>
        <time>2021-03-06T12:04:28Z</time>
      </trkpt>
      <trkpt lat="42.73527" lon="1.5299">
        <ele>2047.275</ele>
        <time>2021-03-06T12:04:30Z</time>
      </trkpt>
      <trkpt lat="42.73527" lon="1.5299">
        <ele>2047.274</ele>
        <time>2021-03-06T12:04:32Z</time>
      </trkpt>
      <trkpt lat="42.73527" lon="1.5299">
        <ele>2047.275</ele>
        <time>2021-03-06T12:04:34Z</time>
      </trkpt>
      <trkpt lat="42.73527" lon="1.5299">
        <ele>2047.272</ele>
        <time>2021-03-06T12:04:36Z</time>
      </trkpt>
      <trkpt lat="42.73527" lon="1.5299">
        <ele>2047.271</ele>
        <time>2021-03-06T12:04:38Z</time>
      </trkpt>
      <trkpt lat="42.73527" lon="1.5299">
        <ele>2047.265</ele>
        <time>2021-03-06T12:04:40Z</time>
      </trkpt>
      <trkpt lat="42.73527" lon="1.5299">
        <ele>2047.263</ele>
        <time>2021-03-06T12:04:42Z</time>
      </trkpt>
      <trkpt lat="42.73527" lon="1.5299">
        <ele>2047.261</ele>
        <time>2021-03-06T12:04:44Z</time>
      </trkpt>
      <trkpt lat="42.73527" lon="1.5299">
        <ele>2047.259</ele>
        <time>2021-03-06T12:04:46Z</time>
      </trkpt>
      <trkpt lat="42.73527" lon="1.5299">
        <ele>2047.259</ele>
        <time>2021-03-06T12:04:48Z</time>
      </trkpt>
      <trkpt lat="42.73527" lon="1.5299">
        <ele>2047.255</ele>
        <time>2021-03-06T12:04:50Z</time>
      </trkpt>
      <trkpt lat="42.73527" lon="1.5299">
        <ele>2047.257</ele>
        <time>2021-03-06T12:04:52Z</time>
      </trkpt>
      <trkpt lat="42.73527" lon="1.5299">
        <ele>2047.253</ele>
        <time>2021-03-06T12:04:54Z</time>
      </trkpt>
      <trkpt lat="42.73527" lon="1.5299">
        <ele>2047.251</ele>
        <time>2021-03-06T12:04:56Z</time>
      </trkpt>
      <trkpt lat="42.73527" lon="1.5299">
        <ele>2047.252</ele>
        <time>2021-03-06T12:04:58Z</time>
      </trkpt>
      <trkpt lat="42.73527" lon="1.5299">
        <ele>2047.25</ele>
        <time>2021-03-06T12:05:00Z</time>
      </trkpt>
      <trkpt lat="42.73527" lon="1.5299">
        <ele>2047.25</ele>
        <time>2021-03-06T12:05:02Z</time>
      </trkpt>
      <trkpt lat="42.73527" lon="1.5299">
        <ele>2047.249</ele>
        <time>2021-03-06T12:05:04Z</time>
      </trkpt>
      <trkpt lat="42.73527" lon="1.5299">
        <ele>2047.244</ele>
        <time>2021-03-06T12:05:06Z</time>
      </trkpt>
      <trkpt lat="42.73527" lon="1.5299">
        <ele>2047.242</ele>
        <time>2021-03-06T12:05:08Z</time>
      </trkpt>
      <trkpt lat="42.73527" lon="1.5299">
        <ele>2047.239</ele>
        <time>2021-03-06T12:05:09Z</time>
      </trkpt>
      <trkpt lat="42.73527" lon="1.5299">
        <ele>2047.236</ele>
        <time>2021-03-06T12:05:12Z</time>
      </trkpt>
      <trkpt lat="42.73527" lon="1.5299">
        <ele>2047.232</ele>
        <time>2021-03-06T12:05:14Z</time>
      </trkpt>
      <trkpt lat="42.73527" lon="1.5299">
        <ele>2047.229</ele>
        <time>2021-03-06T12:05:16Z</time>
      </trkpt>
      <trkpt lat="42.73527" lon="1.5299">
        <ele>2047.222</ele>
        <time>2021-03-06T12:05:18Z</time>
      </trkpt>
      <trkpt lat="42.73527" lon="1.5299">
        <ele>2047.221</ele>
        <time>2021-03-06T12:05:20Z</time>
      </trkpt>
      <trkpt lat="42.73527" lon="1.5299">
        <ele>2047.217</ele>
        <time>2021-03-06T12:05:22Z</time>
      </trkpt>
      <trkpt lat="42.73527" lon="1.5299">
        <ele>2047.215</ele>
        <time>2021-03-06T12:05:24Z</time>
      </trkpt>
      <trkpt lat="42.73527" lon="1.5299">
        <ele>2047.214</ele>
        <time>2021-03-06T12:05:26Z</time>
      </trkpt>
      <trkpt lat="42.73527" lon="1.5299">
        <ele>2047.211</ele>
        <time>2021-03-06T12:05:28Z</time>
      </trkpt>
      <trkpt lat="42.73527" lon="1.5299">
        <ele>2047.209</ele>
        <time>2021-03-06T12:05:30Z</time>
      </trkpt>
      <trkpt lat="42.73527" lon="1.5299">
        <ele>2047.207</ele>
        <time>2021-03-06T12:05:32Z</time>
      </trkpt>
      <trkpt lat="42.73527" lon="1.5299">
        <ele>2047.209</ele>
        <time>2021-03-06T12:05:34Z</time>
      </trkpt>
      <trkpt lat="42.73527" lon="1.5299">
        <ele>2047.208</ele>
        <time>2021-03-06T12:05:36Z</time>
      </trkpt>
      <trkpt lat="42.73527" lon="1.5299">
        <ele>2047.208</ele>
        <time>2021-03-06T12:05:38Z</time>
      </trkpt>
      <trkpt lat="42.73527" lon="1.5299">
        <ele>2047.207</ele>
        <time>2021-03-06T12:05:40Z</time>
      </trkpt>
      <trkpt lat="42.73527" lon="1.5299">
        <ele>2047.209</ele>
        <time>2021-03-06T12:05:42Z</time>
      </trkpt>
      <trkpt lat="42.73527" lon="1.5299">
        <ele>2047.209</ele>
        <time>2021-03-06T12:05:44Z</time>
      </trkpt>
      <trkpt lat="42.73527" lon="1.5299">
        <ele>2047.209</ele>
        <time>2021-03-06T12:05:46Z</time>
      </trkpt>
      <trkpt lat="42.73527" lon="1.5299">
        <ele>2047.208</ele>
        <time>2021-03-06T12:05:48Z</time>
      </trkpt>
      <trkpt lat="42.73527" lon="1.5299">
        <ele>2047.207</ele>
        <time>2021-03-06T12:05:50Z</time>
      </trkpt>
      <trkpt lat="42.73527" lon="1.5299">
        <ele>2047.207</ele>
        <time>2021-03-06T12:05:52Z</time>
      </trkpt>
      <trkpt lat="42.73527" lon="1.5299">
        <ele>2047.207</ele>
        <time>2021-03-06T12:05:54Z</time>
      </trkpt>
      <trkpt lat="42.73527" lon="1.5299">
        <ele>2047.205</ele>
        <time>2021-03-06T12:05:56Z</time>
      </trkpt>
      <trkpt lat="42.73527" lon="1.5299">
        <ele>2047.204</ele>
        <time>2021-03-06T12:05:58Z</time>
      </trkpt>
      <trkpt lat="42.73527" lon="1.5299">
        <ele>2047.204</ele>
        <time>2021-03-06T12:06:00Z</time>
      </trkpt>
      <trkpt lat="42.73527" lon="1.5299">
        <ele>2047.201</ele>
        <time>2021-03-06T12:06:02Z</time>
      </trkpt>
      <trkpt lat="42.73527" lon="1.5299">
        <ele>2047.198</ele>
        <time>2021-03-06T12:06:04Z</time>
      </trkpt>
      <trkpt lat="42.73527" lon="1.5299">
        <ele>2047.197</ele>
        <time>2021-03-06T12:06:06Z</time>
      </trkpt>
      <trkpt lat="42.73527" lon="1.5299">
        <ele>2047.197</ele>
        <time>2021-03-06T12:06:08Z</time>
      </trkpt>
      <trkpt lat="42.73527" lon="1.5299">
        <ele>2047.196</ele>
        <time>2021-03-06T12:06:10Z</time>
      </trkpt>
      <trkpt lat="42.73527" lon="1.5299">
        <ele>2047.195</ele>
        <time>2021-03-06T12:06:12Z</time>
      </trkpt>
      <trkpt lat="42.73527" lon="1.5299">
        <ele>2047.197</ele>
        <time>2021-03-06T12:06:14Z</time>
      </trkpt>
      <trkpt lat="42.73527" lon="1.5299">
        <ele>2047.195</ele>
        <time>2021-03-06T12:06:16Z</time>
      </trkpt>
      <trkpt lat="42.73527" lon="1.5299">
        <ele>2047.194</ele>
        <time>2021-03-06T12:06:18Z</time>
      </trkpt>
      <trkpt lat="42.73527" lon="1.5299">
        <ele>2047.193</ele>
        <time>2021-03-06T12:06:20Z</time>
      </trkpt>
      <trkpt lat="42.73527" lon="1.5299">
        <ele>2047.19</ele>
        <time>2021-03-06T12:06:22Z</time>
      </trkpt>
      <trkpt lat="42.73527" lon="1.5299">
        <ele>2047.187</ele>
        <time>2021-03-06T12:06:24Z</time>
      </trkpt>
      <trkpt lat="42.73527" lon="1.5299">
        <ele>2047.184</ele>
        <time>2021-03-06T12:06:26Z</time>
      </trkpt>
      <trkpt lat="42.73527" lon="1.5299">
        <ele>2047.183</ele>
        <time>2021-03-06T12:06:28Z</time>
      </trkpt>
      <trkpt lat="42.73527" lon="1.5299">
        <ele>2047.184</ele>
        <time>2021-03-06T12:06:30Z</time>
      </trkpt>
      <trkpt lat="42.73527" lon="1.5299">
        <ele>2047.186</ele>
        <time>2021-03-06T12:06:32Z</time>
      </trkpt>
      <trkpt lat="42.73527" lon="1.5299">
        <ele>2047.186</ele>
        <time>2021-03-06T12:06:34Z</time>
      </trkpt>
      <trkpt lat="42.73527" lon="1.5299">
        <ele>2047.184</ele>
        <time>2021-03-06T12:06:36Z</time>
      </trkpt>
      <trkpt lat="42.73527" lon="1.5299">
        <ele>2047.185</ele>
        <time>2021-03-06T12:06:38Z</time>
      </trkpt>
      <trkpt lat="42.73527" lon="1.5299">
        <ele>2047.186</ele>
        <time>2021-03-06T12:06:40Z</time>
      </trkpt>
      <trkpt lat="42.73527" lon="1.5299">
        <ele>2047.182</ele>
        <time>2021-03-06T12:06:42Z</time>
      </trkpt>
      <trkpt lat="42.73527" lon="1.5299">
        <ele>2047.179</ele>
        <time>2021-03-06T12:06:44Z</time>
      </trkpt>
      <trkpt lat="42.73527" lon="1.5299">
        <ele>2047.18</ele>
        <time>2021-03-06T12:06:46Z</time>
      </trkpt>
      <trkpt lat="42.73527" lon="1.5299">
        <ele>2047.181</ele>
        <time>2021-03-06T12:06:48Z</time>
      </trkpt>
      <trkpt lat="42.73527" lon="1.5299">
        <ele>2047.177</ele>
        <time>2021-03-06T12:06:50Z</time>
      </trkpt>
      <trkpt lat="42.73527" lon="1.5299">
        <ele>2047.175</ele>
        <time>2021-03-06T12:06:52Z</time>
      </trkpt>
      <trkpt lat="42.73527" lon="1.5299">
        <ele>2047.174</ele>
        <time>2021-03-06T12:06:54Z</time>
      </trkpt>
      <trkpt lat="42.73527" lon="1.5299">
        <ele>2047.177</ele>
        <time>2021-03-06T12:06:56Z</time>
      </trkpt>
      <trkpt lat="42.73527" lon="1.5299">
        <ele>2047.177</ele>
        <time>2021-03-06T12:06:58Z</time>
      </trkpt>
      <trkpt lat="42.73527" lon="1.5299">
        <ele>2047.175</ele>
        <time>2021-03-06T12:07:00Z</time>
      </trkpt>
      <trkpt lat="42.73527" lon="1.5299">
        <ele>2047.175</ele>
        <time>2021-03-06T12:07:02Z</time>
      </trkpt>
      <trkpt lat="42.73527" lon="1.5299">
        <ele>2047.175</ele>
        <time>2021-03-06T12:07:04Z</time>
      </trkpt>
      <trkpt lat="42.73527" lon="1.5299">
        <ele>2047.174</ele>
        <time>2021-03-06T12:07:06Z</time>
      </trkpt>
      <trkpt lat="42.73527" lon="1.5299">
        <ele>2047.175</ele>
        <time>2021-03-06T12:07:08Z</time>
      </trkpt>
      <trkpt lat="42.73527" lon="1.5299">
        <ele>2047.178</ele>
        <time>2021-03-06T12:07:10Z</time>
      </trkpt>
      <trkpt lat="42.73527" lon="1.5299">
        <ele>2047.179</ele>
        <time>2021-03-06T12:07:12Z</time>
      </trkpt>
      <trkpt lat="42.73527" lon="1.5299">
        <ele>2047.183</ele>
        <time>2021-03-06T12:07:14Z</time>
      </trkpt>
      <trkpt lat="42.73527" lon="1.5299">
        <ele>2047.186</ele>
        <time>2021-03-06T12:07:16Z</time>
      </trkpt>
      <trkpt lat="42.73527" lon="1.5299">
        <ele>2047.187</ele>
        <time>2021-03-06T12:07:18Z</time>
      </trkpt>
      <trkpt lat="42.73527" lon="1.5299">
        <ele>2047.184</ele>
        <time>2021-03-06T12:07:20Z</time>
      </trkpt>
      <trkpt lat="42.73527" lon="1.5299">
        <ele>2047.182</ele>
        <time>2021-03-06T12:07:22Z</time>
      </trkpt>
      <trkpt lat="42.73527" lon="1.5299">
        <ele>2047.181</ele>
        <time>2021-03-06T12:07:24Z</time>
      </trkpt>
      <trkpt lat="42.73527" lon="1.5299">
        <ele>2047.182</ele>
        <time>2021-03-06T12:07:26Z</time>
      </trkpt>
      <trkpt lat="42.73527" lon="1.5299">
        <ele>2047.182</ele>
        <time>2021-03-06T12:07:28Z</time>
      </trkpt>
      <trkpt lat="42.73527" lon="1.5299">
        <ele>2047.182</ele>
        <time>2021-03-06T12:07:30Z</time>
      </trkpt>
      <trkpt lat="42.73527" lon="1.5299">
        <ele>2047.181</ele>
        <time>2021-03-06T12:07:32Z</time>
      </trkpt>
      <trkpt lat="42.73527" lon="1.5299">
        <ele>2047.181</ele>
        <time>2021-03-06T12:07:34Z</time>
      </trkpt>
      <trkpt lat="42.73527" lon="1.5299">
        <ele>2047.179</ele>
        <time>2021-03-06T12:07:36Z</time>
      </trkpt>
      <trkpt lat="42.73527" lon="1.5299">
        <ele>2047.181</ele>
        <time>2021-03-06T12:07:38Z</time>
      </trkpt>
      <trkpt lat="42.73527" lon="1.5299">
        <ele>2047.178</ele>
        <time>2021-03-06T12:07:40Z</time>
      </trkpt>
      <trkpt lat="42.73527" lon="1.5299">
        <ele>2047.177</ele>
        <time>2021-03-06T12:07:42Z</time>
      </trkpt>
      <trkpt lat="42.73527" lon="1.5299">
        <ele>2047.175</ele>
        <time>2021-03-06T12:07:44Z</time>
      </trkpt>
      <trkpt lat="42.73527" lon="1.5299">
        <ele>2047.173</ele>
        <time>2021-03-06T12:07:46Z</time>
      </trkpt>
      <trkpt lat="42.73527" lon="1.5299">
        <ele>2047.174</ele>
        <time>2021-03-06T12:07:48Z</time>
      </trkpt>
      <trkpt lat="42.73527" lon="1.5299">
        <ele>2047.173</ele>
        <time>2021-03-06T12:07:50Z</time>
      </trkpt>
      <trkpt lat="42.73527" lon="1.5299">
        <ele>2047.174</ele>
        <time>2021-03-06T12:07:52Z</time>
      </trkpt>
      <trkpt lat="42.73527" lon="1.5299">
        <ele>2047.175</ele>
        <time>2021-03-06T12:07:54Z</time>
      </trkpt>
      <trkpt lat="42.73527" lon="1.5299">
        <ele>2047.175</ele>
        <time>2021-03-06T12:07:56Z</time>
      </trkpt>
      <trkpt lat="42.73527" lon="1.5299">
        <ele>2047.175</ele>
        <time>2021-03-06T12:07:58Z</time>
      </trkpt>
      <trkpt lat="42.73527" lon="1.5299">
        <ele>2047.179</ele>
        <time>2021-03-06T12:08:00Z</time>
      </trkpt>
      <trkpt lat="42.73527" lon="1.5299">
        <ele>2047.179</ele>
        <time>2021-03-06T12:08:02Z</time>
      </trkpt>
      <trkpt lat="42.73527" lon="1.5299">
        <ele>2047.182</ele>
        <time>2021-03-06T12:08:04Z</time>
      </trkpt>
      <trkpt lat="42.73527" lon="1.5299">
        <ele>2047.181</ele>
        <time>2021-03-06T12:08:06Z</time>
      </trkpt>
      <trkpt lat="42.73527" lon="1.5299">
        <ele>2047.18</ele>
        <time>2021-03-06T12:08:08Z</time>
      </trkpt>
      <trkpt lat="42.73527" lon="1.5299">
        <ele>2047.181</ele>
        <time>2021-03-06T12:08:10Z</time>
      </trkpt>
      <trkpt lat="42.73527" lon="1.5299">
        <ele>2047.179</ele>
        <time>2021-03-06T12:08:12Z</time>
      </trkpt>
      <trkpt lat="42.73527" lon="1.5299">
        <ele>2047.18</ele>
        <time>2021-03-06T12:08:14Z</time>
      </trkpt>
      <trkpt lat="42.73527" lon="1.5299">
        <ele>2047.179</ele>
        <time>2021-03-06T12:08:16Z</time>
      </trkpt>
      <trkpt lat="42.73527" lon="1.5299">
        <ele>2047.179</ele>
        <time>2021-03-06T12:08:18Z</time>
      </trkpt>
      <trkpt lat="42.73527" lon="1.5299">
        <ele>2047.178</ele>
        <time>2021-03-06T12:08:20Z</time>
      </trkpt>
      <trkpt lat="42.73527" lon="1.5299">
        <ele>2047.178</ele>
        <time>2021-03-06T12:08:22Z</time>
      </trkpt>
      <trkpt lat="42.73527" lon="1.5299">
        <ele>2047.176</ele>
        <time>2021-03-06T12:08:24Z</time>
      </trkpt>
      <trkpt lat="42.73527" lon="1.5299">
        <ele>2047.173</ele>
        <time>2021-03-06T12:08:26Z</time>
      </trkpt>
      <trkpt lat="42.73527" lon="1.5299">
        <ele>2047.173</ele>
        <time>2021-03-06T12:08:28Z</time>
      </trkpt>
      <trkpt lat="42.73527" lon="1.5299">
        <ele>2047.173</ele>
        <time>2021-03-06T12:08:30Z</time>
      </trkpt>
      <trkpt lat="42.73527" lon="1.5299">
        <ele>2047.173</ele>
        <time>2021-03-06T12:08:32Z</time>
      </trkpt>
      <trkpt lat="42.73527" lon="1.5299">
        <ele>2047.172</ele>
        <time>2021-03-06T12:08:34Z</time>
      </trkpt>
      <trkpt lat="42.73527" lon="1.5299">
        <ele>2047.169</ele>
        <time>2021-03-06T12:08:36Z</time>
      </trkpt>
      <trkpt lat="42.73527" lon="1.5299">
        <ele>2047.17</ele>
        <time>2021-03-06T12:08:38Z</time>
      </trkpt>
      <trkpt lat="42.73527" lon="1.5299">
        <ele>2047.169</ele>
        <time>2021-03-06T12:08:40Z</time>
      </trkpt>
      <trkpt lat="42.73527" lon="1.5299">
        <ele>2047.168</ele>
        <time>2021-03-06T12:08:42Z</time>
      </trkpt>
      <trkpt lat="42.73527" lon="1.5299">
        <ele>2047.166</ele>
        <time>2021-03-06T12:08:44Z</time>
      </trkpt>
      <trkpt lat="42.73527" lon="1.5299">
        <ele>2047.166</ele>
        <time>2021-03-06T12:08:46Z</time>
      </trkpt>
      <trkpt lat="42.73527" lon="1.5299">
        <ele>2047.165</ele>
        <time>2021-03-06T12:08:48Z</time>
      </trkpt>
      <trkpt lat="42.73527" lon="1.5299">
        <ele>2047.164</ele>
        <time>2021-03-06T12:08:50Z</time>
      </trkpt>
      <trkpt lat="42.73527" lon="1.5299">
        <ele>2047.161</ele>
        <time>2021-03-06T12:08:52Z</time>
      </trkpt>
      <trkpt lat="42.73527" lon="1.5299">
        <ele>2047.16</ele>
        <time>2021-03-06T12:08:54Z</time>
      </trkpt>
      <trkpt lat="42.73527" lon="1.5299">
        <ele>2047.159</ele>
        <time>2021-03-06T12:08:56Z</time>
      </trkpt>
      <trkpt lat="42.73527" lon="1.5299">
        <ele>2047.159</ele>
        <time>2021-03-06T12:08:58Z</time>
      </trkpt>
      <trkpt lat="42.73527" lon="1.5299">
        <ele>2047.159</ele>
        <time>2021-03-06T12:09:00Z</time>
      </trkpt>
      <trkpt lat="42.73527" lon="1.5299">
        <ele>2047.158</ele>
        <time>2021-03-06T12:09:02Z</time>
      </trkpt>
      <trkpt lat="42.73527" lon="1.5299">
        <ele>2047.159</ele>
        <time>2021-03-06T12:09:04Z</time>
      </trkpt>
      <trkpt lat="42.73527" lon="1.5299">
        <ele>2047.158</ele>
        <time>2021-03-06T12:09:06Z</time>
      </trkpt>
      <trkpt lat="42.73527" lon="1.5299">
        <ele>2047.156</ele>
        <time>2021-03-06T12:09:08Z</time>
      </trkpt>
      <trkpt lat="42.73527" lon="1.5299">
        <ele>2047.157</ele>
        <time>2021-03-06T12:09:10Z</time>
      </trkpt>
      <trkpt lat="42.73527" lon="1.5299">
        <ele>2047.158</ele>
        <time>2021-03-06T12:09:12Z</time>
      </trkpt>
      <trkpt lat="42.73527" lon="1.5299">
        <ele>2047.163</ele>
        <time>2021-03-06T12:09:14Z</time>
      </trkpt>
      <trkpt lat="42.73527" lon="1.5299">
        <ele>2047.162</ele>
        <time>2021-03-06T12:09:16Z</time>
      </trkpt>
      <trkpt lat="42.73527" lon="1.5299">
        <ele>2047.162</ele>
        <time>2021-03-06T12:09:18Z</time>
      </trkpt>
      <trkpt lat="42.73527" lon="1.5299">
        <ele>2047.161</ele>
        <time>2021-03-06T12:09:20Z</time>
      </trkpt>
      <trkpt lat="42.73527" lon="1.5299">
        <ele>2047.158</ele>
        <time>2021-03-06T12:09:22Z</time>
      </trkpt>
      <trkpt lat="42.73527" lon="1.5299">
        <ele>2047.153</ele>
        <time>2021-03-06T12:09:24Z</time>
      </trkpt>
      <trkpt lat="42.73527" lon="1.5299">
        <ele>2047.153</ele>
        <time>2021-03-06T12:09:26Z</time>
      </trkpt>
      <trkpt lat="42.73527" lon="1.5299">
        <ele>2047.153</ele>
        <time>2021-03-06T12:09:28Z</time>
      </trkpt>
      <trkpt lat="42.73527" lon="1.5299">
        <ele>2047.151</ele>
        <time>2021-03-06T12:09:30Z</time>
      </trkpt>
      <trkpt lat="42.73527" lon="1.5299">
        <ele>2047.149</ele>
        <time>2021-03-06T12:09:32Z</time>
      </trkpt>
      <trkpt lat="42.73527" lon="1.5299">
        <ele>2047.149</ele>
        <time>2021-03-06T12:09:34Z</time>
      </trkpt>
      <trkpt lat="42.73527" lon="1.5299">
        <ele>2047.149</ele>
        <time>2021-03-06T12:09:36Z</time>
      </trkpt>
      <trkpt lat="42.73527" lon="1.5299">
        <ele>2047.151</ele>
        <time>2021-03-06T12:09:38Z</time>
      </trkpt>
      <trkpt lat="42.73527" lon="1.5299">
        <ele>2047.152</ele>
        <time>2021-03-06T12:09:40Z</time>
      </trkpt>
      <trkpt lat="42.73527" lon="1.5299">
        <ele>2047.151</ele>
        <time>2021-03-06T12:09:42Z</time>
      </trkpt>
      <trkpt lat="42.73527" lon="1.5299">
        <ele>2047.151</ele>
        <time>2021-03-06T12:09:44Z</time>
      </trkpt>
      <trkpt lat="42.73527" lon="1.5299">
        <ele>2047.15</ele>
        <time>2021-03-06T12:09:46Z</time>
      </trkpt>
      <trkpt lat="42.73527" lon="1.5299">
        <ele>2047.149</ele>
        <time>2021-03-06T12:09:48Z</time>
      </trkpt>
      <trkpt lat="42.73527" lon="1.5299">
        <ele>2047.15</ele>
        <time>2021-03-06T12:09:50Z</time>
      </trkpt>
      <trkpt lat="42.73527" lon="1.5299">
        <ele>2047.152</ele>
        <time>2021-03-06T12:09:52Z</time>
      </trkpt>
      <trkpt lat="42.73527" lon="1.5299">
        <ele>2047.152</ele>
        <time>2021-03-06T12:09:54Z</time>
      </trkpt>
      <trkpt lat="42.73527" lon="1.5299">
        <ele>2047.154</ele>
        <time>2021-03-06T12:09:56Z</time>
      </trkpt>
      <trkpt lat="42.73527" lon="1.5299">
        <ele>2047.156</ele>
        <time>2021-03-06T12:09:58Z</time>
      </trkpt>
      <trkpt lat="42.73527" lon="1.5299">
        <ele>2047.157</ele>
        <time>2021-03-06T12:10:00Z</time>
      </trkpt>
      <trkpt lat="42.73527" lon="1.5299">
        <ele>2047.157</ele>
        <time>2021-03-06T12:10:02Z</time>
      </trkpt>
      <trkpt lat="42.73527" lon="1.5299">
        <ele>2047.156</ele>
        <time>2021-03-06T12:10:04Z</time>
      </trkpt>
      <trkpt lat="42.73527" lon="1.5299">
        <ele>2047.158</ele>
        <time>2021-03-06T12:10:06Z</time>
      </trkpt>
      <trkpt lat="42.73527" lon="1.5299">
        <ele>2047.159</ele>
        <time>2021-03-06T12:10:08Z</time>
      </trkpt>
      <trkpt lat="42.73527" lon="1.5299">
        <ele>2047.158</ele>
        <time>2021-03-06T12:10:10Z</time>
      </trkpt>
      <trkpt lat="42.73527" lon="1.5299">
        <ele>2047.16</ele>
        <time>2021-03-06T12:10:12Z</time>
      </trkpt>
      <trkpt lat="42.73527" lon="1.5299">
        <ele>2047.158</ele>
        <time>2021-03-06T12:10:14Z</time>
      </trkpt>
      <trkpt lat="42.73527" lon="1.5299">
        <ele>2047.155</ele>
        <time>2021-03-06T12:10:16Z</time>
      </trkpt>
      <trkpt lat="42.73527" lon="1.5299">
        <ele>2047.153</ele>
        <time>2021-03-06T12:10:18Z</time>
      </trkpt>
      <trkpt lat="42.73527" lon="1.5299">
        <ele>2047.151</ele>
        <time>2021-03-06T12:10:20Z</time>
      </trkpt>
      <trkpt lat="42.73527" lon="1.5299">
        <ele>2047.15</ele>
        <time>2021-03-06T12:10:22Z</time>
      </trkpt>
      <trkpt lat="42.73527" lon="1.5299">
        <ele>2047.149</ele>
        <time>2021-03-06T12:10:24Z</time>
      </trkpt>
      <trkpt lat="42.73527" lon="1.5299">
        <ele>2047.147</ele>
        <time>2021-03-06T12:10:26Z</time>
      </trkpt>
      <trkpt lat="42.73527" lon="1.5299">
        <ele>2047.146</ele>
        <time>2021-03-06T12:10:28Z</time>
      </trkpt>
      <trkpt lat="42.73527" lon="1.5299">
        <ele>2047.146</ele>
        <time>2021-03-06T12:10:30Z</time>
      </trkpt>
      <trkpt lat="42.73527" lon="1.5299">
        <ele>2047.145</ele>
        <time>2021-03-06T12:10:32Z</time>
      </trkpt>
      <trkpt lat="42.73527" lon="1.5299">
        <ele>2047.145</ele>
        <time>2021-03-06T12:10:34Z</time>
      </trkpt>
      <trkpt lat="42.73527" lon="1.5299">
        <ele>2047.144</ele>
        <time>2021-03-06T12:10:36Z</time>
      </trkpt>
      <trkpt lat="42.73527" lon="1.5299">
        <ele>2047.143</ele>
        <time>2021-03-06T12:10:38Z</time>
      </trkpt>
      <trkpt lat="42.73527" lon="1.5299">
        <ele>2047.142</ele>
        <time>2021-03-06T12:10:40Z</time>
      </trkpt>
      <trkpt lat="42.73527" lon="1.5299">
        <ele>2047.141</ele>
        <time>2021-03-06T12:10:42Z</time>
      </trkpt>
      <trkpt lat="42.73527" lon="1.5299">
        <ele>2047.14</ele>
        <time>2021-03-06T12:10:44Z</time>
      </trkpt>
      <trkpt lat="42.73527" lon="1.5299">
        <ele>2047.136</ele>
        <time>2021-03-06T12:10:46Z</time>
      </trkpt>
      <trkpt lat="42.73527" lon="1.5299">
        <ele>2047.137</ele>
        <time>2021-03-06T12:10:48Z</time>
      </trkpt>
      <trkpt lat="42.73527" lon="1.5299">
        <ele>2047.137</ele>
        <time>2021-03-06T12:10:50Z</time>
      </trkpt>
      <trkpt lat="42.73527" lon="1.5299">
        <ele>2047.137</ele>
        <time>2021-03-06T12:10:52Z</time>
      </trkpt>
      <trkpt lat="42.73527" lon="1.5299">
        <ele>2047.136</ele>
        <time>2021-03-06T12:10:54Z</time>
      </trkpt>
      <trkpt lat="42.73527" lon="1.5299">
        <ele>2047.14</ele>
        <time>2021-03-06T12:10:56Z</time>
      </trkpt>
      <trkpt lat="42.73527" lon="1.5299">
        <ele>2047.14</ele>
        <time>2021-03-06T12:10:58Z</time>
      </trkpt>
      <trkpt lat="42.73527" lon="1.5299">
        <ele>2047.137</ele>
        <time>2021-03-06T12:11:00Z</time>
      </trkpt>
      <trkpt lat="42.73527" lon="1.5299">
        <ele>2047.136</ele>
        <time>2021-03-06T12:11:02Z</time>
      </trkpt>
      <trkpt lat="42.73527" lon="1.5299">
        <ele>2047.136</ele>
        <time>2021-03-06T12:11:04Z</time>
      </trkpt>
      <trkpt lat="42.73527" lon="1.5299">
        <ele>2047.134</ele>
        <time>2021-03-06T12:11:06Z</time>
      </trkpt>
      <trkpt lat="42.73527" lon="1.5299">
        <ele>2047.132</ele>
        <time>2021-03-06T12:11:08Z</time>
      </trkpt>
      <trkpt lat="42.73527" lon="1.5299">
        <ele>2047.13</ele>
        <time>2021-03-06T12:11:10Z</time>
      </trkpt>
      <trkpt lat="42.73527" lon="1.5299">
        <ele>2047.131</ele>
        <time>2021-03-06T12:11:12Z</time>
      </trkpt>
      <trkpt lat="42.73527" lon="1.5299">
        <ele>2047.132</ele>
        <time>2021-03-06T12:11:14Z</time>
      </trkpt>
      <trkpt lat="42.73527" lon="1.5299">
        <ele>2047.134</ele>
        <time>2021-03-06T12:11:16Z</time>
      </trkpt>
      <trkpt lat="42.73527" lon="1.5299">
        <ele>2047.135</ele>
        <time>2021-03-06T12:11:18Z</time>
      </trkpt>
      <trkpt lat="42.73527" lon="1.5299">
        <ele>2047.138</ele>
        <time>2021-03-06T12:11:20Z</time>
      </trkpt>
      <trkpt lat="42.73527" lon="1.5299">
        <ele>2047.139</ele>
        <time>2021-03-06T12:11:22Z</time>
      </trkpt>
      <trkpt lat="42.73527" lon="1.5299">
        <ele>2047.14</ele>
        <time>2021-03-06T12:11:24Z</time>
      </trkpt>
      <trkpt lat="42.73527" lon="1.5299">
        <ele>2047.14</ele>
        <time>2021-03-06T12:11:26Z</time>
      </trkpt>
      <trkpt lat="42.73527" lon="1.5299">
        <ele>2047.14</ele>
        <time>2021-03-06T12:11:28Z</time>
      </trkpt>
      <trkpt lat="42.73527" lon="1.5299">
        <ele>2047.141</ele>
        <time>2021-03-06T12:11:30Z</time>
      </trkpt>
      <trkpt lat="42.73527" lon="1.5299">
        <ele>2047.142</ele>
        <time>2021-03-06T12:11:32Z</time>
      </trkpt>
      <trkpt lat="42.73527" lon="1.5299">
        <ele>2047.142</ele>
        <time>2021-03-06T12:11:34Z</time>
      </trkpt>
      <trkpt lat="42.73527" lon="1.5299">
        <ele>2047.141</ele>
        <time>2021-03-06T12:11:36Z</time>
      </trkpt>
      <trkpt lat="42.73527" lon="1.5299">
        <ele>2047.139</ele>
        <time>2021-03-06T12:11:38Z</time>
      </trkpt>
      <trkpt lat="42.73527" lon="1.5299">
        <ele>2047.139</ele>
        <time>2021-03-06T12:11:40Z</time>
      </trkpt>
      <trkpt lat="42.73527" lon="1.5299">
        <ele>2047.139</ele>
        <time>2021-03-06T12:11:42Z</time>
      </trkpt>
      <trkpt lat="42.73527" lon="1.5299">
        <ele>2047.141</ele>
        <time>2021-03-06T12:11:44Z</time>
      </trkpt>
      <trkpt lat="42.73527" lon="1.5299">
        <ele>2047.142</ele>
        <time>2021-03-06T12:11:46Z</time>
      </trkpt>
      <trkpt lat="42.73527" lon="1.5299">
        <ele>2047.142</ele>
        <time>2021-03-06T12:11:48Z</time>
      </trkpt>
      <trkpt lat="42.73527" lon="1.5299">
        <ele>2047.141</ele>
        <time>2021-03-06T12:11:50Z</time>
      </trkpt>
      <trkpt lat="42.73527" lon="1.5299">
        <ele>2047.141</ele>
        <time>2021-03-06T12:11:52Z</time>
      </trkpt>
      <trkpt lat="42.73527" lon="1.5299">
        <ele>2047.139</ele>
        <time>2021-03-06T12:11:54Z</time>
      </trkpt>
      <trkpt lat="42.73527" lon="1.5299">
        <ele>2047.139</ele>
        <time>2021-03-06T12:11:56Z</time>
      </trkpt>
      <trkpt lat="42.73527" lon="1.5299">
        <ele>2047.14</ele>
        <time>2021-03-06T12:11:58Z</time>
      </trkpt>
      <trkpt lat="42.73527" lon="1.5299">
        <ele>2047.141</ele>
        <time>2021-03-06T12:12:00Z</time>
      </trkpt>
      <trkpt lat="42.73527" lon="1.5299">
        <ele>2047.14</ele>
        <time>2021-03-06T12:12:02Z</time>
      </trkpt>
      <trkpt lat="42.73527" lon="1.5299">
        <ele>2047.141</ele>
        <time>2021-03-06T12:12:04Z</time>
      </trkpt>
      <trkpt lat="42.73527" lon="1.5299">
        <ele>2047.14</ele>
        <time>2021-03-06T12:12:06Z</time>
      </trkpt>
      <trkpt lat="42.73527" lon="1.5299">
        <ele>2047.137</ele>
        <time>2021-03-06T12:12:08Z</time>
      </trkpt>
      <trkpt lat="42.73527" lon="1.5299">
        <ele>2047.136</ele>
        <time>2021-03-06T12:12:10Z</time>
      </trkpt>
      <trkpt lat="42.73527" lon="1.5299">
        <ele>2047.136</ele>
        <time>2021-03-06T12:12:12Z</time>
      </trkpt>
      <trkpt lat="42.73527" lon="1.5299">
        <ele>2047.137</ele>
        <time>2021-03-06T12:12:13Z</time>
      </trkpt>
      <trkpt lat="42.73527" lon="1.5299">
        <ele>2047.134</ele>
        <time>2021-03-06T12:12:16Z</time>
      </trkpt>
      <trkpt lat="42.73527" lon="1.5299">
        <ele>2047.135</ele>
        <time>2021-03-06T12:12:18Z</time>
      </trkpt>
      <trkpt lat="42.73527" lon="1.5299">
        <ele>2047.135</ele>
        <time>2021-03-06T12:12:20Z</time>
      </trkpt>
      <trkpt lat="42.73527" lon="1.5299">
        <ele>2047.135</ele>
        <time>2021-03-06T12:12:22Z</time>
      </trkpt>
      <trkpt lat="42.73527" lon="1.5299">
        <ele>2047.132</ele>
        <time>2021-03-06T12:12:24Z</time>
      </trkpt>
      <trkpt lat="42.73527" lon="1.5299">
        <ele>2047.131</ele>
        <time>2021-03-06T12:12:26Z</time>
      </trkpt>
      <trkpt lat="42.73527" lon="1.5299">
        <ele>2047.128</ele>
        <time>2021-03-06T12:12:28Z</time>
      </trkpt>
      <trkpt lat="42.73527" lon="1.5299">
        <ele>2047.13</ele>
        <time>2021-03-06T12:12:30Z</time>
      </trkpt>
      <trkpt lat="42.73527" lon="1.5299">
        <ele>2047.131</ele>
        <time>2021-03-06T12:12:32Z</time>
      </trkpt>
      <trkpt lat="42.73527" lon="1.5299">
        <ele>2047.133</ele>
        <time>2021-03-06T12:12:34Z</time>
      </trkpt>
      <trkpt lat="42.73527" lon="1.5299">
        <ele>2047.134</ele>
        <time>2021-03-06T12:12:36Z</time>
      </trkpt>
      <trkpt lat="42.73527" lon="1.5299">
        <ele>2047.133</ele>
        <time>2021-03-06T12:12:38Z</time>
      </trkpt>
      <trkpt lat="42.73527" lon="1.5299">
        <ele>2047.134</ele>
        <time>2021-03-06T12:12:40Z</time>
      </trkpt>
      <trkpt lat="42.73527" lon="1.5299">
        <ele>2047.134</ele>
        <time>2021-03-06T12:12:42Z</time>
      </trkpt>
      <trkpt lat="42.73527" lon="1.5299">
        <ele>2047.135</ele>
        <time>2021-03-06T12:12:44Z</time>
      </trkpt>
      <trkpt lat="42.73527" lon="1.5299">
        <ele>2047.134</ele>
        <time>2021-03-06T12:12:46Z</time>
      </trkpt>
      <trkpt lat="42.73527" lon="1.5299">
        <ele>2047.134</ele>
        <time>2021-03-06T12:12:48Z</time>
      </trkpt>
      <trkpt lat="42.73527" lon="1.5299">
        <ele>2047.135</ele>
        <time>2021-03-06T12:12:50Z</time>
      </trkpt>
      <trkpt lat="42.73527" lon="1.5299">
        <ele>2047.135</ele>
        <time>2021-03-06T12:12:52Z</time>
      </trkpt>
      <trkpt lat="42.73527" lon="1.5299">
        <ele>2047.137</ele>
        <time>2021-03-06T12:12:54Z</time>
      </trkpt>
      <trkpt lat="42.73527" lon="1.5299">
        <ele>2047.137</ele>
        <time>2021-03-06T12:12:56Z</time>
      </trkpt>
      <trkpt lat="42.73527" lon="1.5299">
        <ele>2047.135</ele>
        <time>2021-03-06T12:12:58Z</time>
      </trkpt>
      <trkpt lat="42.73527" lon="1.5299">
        <ele>2047.137</ele>
        <time>2021-03-06T12:13:00Z</time>
      </trkpt>
      <trkpt lat="42.73527" lon="1.5299">
        <ele>2047.137</ele>
        <time>2021-03-06T12:13:02Z</time>
      </trkpt>
      <trkpt lat="42.73527" lon="1.5299">
        <ele>2047.134</ele>
        <time>2021-03-06T12:13:04Z</time>
      </trkpt>
      <trkpt lat="42.73527" lon="1.5299">
        <ele>2047.131</ele>
        <time>2021-03-06T12:13:06Z</time>
      </trkpt>
      <trkpt lat="42.73527" lon="1.5299">
        <ele>2047.135</ele>
        <time>2021-03-06T12:13:08Z</time>
      </trkpt>
      <trkpt lat="42.73527" lon="1.5299">
        <ele>2047.133</ele>
        <time>2021-03-06T12:13:10Z</time>
      </trkpt>
      <trkpt lat="42.73527" lon="1.5299">
        <ele>2047.132</ele>
        <time>2021-03-06T12:13:12Z</time>
      </trkpt>
      <trkpt lat="42.73527" lon="1.5299">
        <ele>2047.133</ele>
        <time>2021-03-06T12:13:14Z</time>
      </trkpt>
      <trkpt lat="42.73527" lon="1.5299">
        <ele>2047.133</ele>
        <time>2021-03-06T12:13:16Z</time>
      </trkpt>
      <trkpt lat="42.73527" lon="1.5299">
        <ele>2047.131</ele>
        <time>2021-03-06T12:13:18Z</time>
      </trkpt>
      <trkpt lat="42.73527" lon="1.5299">
        <ele>2047.131</ele>
        <time>2021-03-06T12:13:20Z</time>
      </trkpt>
      <trkpt lat="42.73527" lon="1.5299">
        <ele>2047.131</ele>
        <time>2021-03-06T12:13:22Z</time>
      </trkpt>
      <trkpt lat="42.73527" lon="1.5299">
        <ele>2047.129</ele>
        <time>2021-03-06T12:13:24Z</time>
      </trkpt>
      <trkpt lat="42.73527" lon="1.5299">
        <ele>2047.13</ele>
        <time>2021-03-06T12:13:26Z</time>
      </trkpt>
      <trkpt lat="42.73527" lon="1.5299">
        <ele>2047.128</ele>
        <time>2021-03-06T12:13:28Z</time>
      </trkpt>
      <trkpt lat="42.73527" lon="1.5299">
        <ele>2047.129</ele>
        <time>2021-03-06T12:13:30Z</time>
      </trkpt>
      <trkpt lat="42.73527" lon="1.5299">
        <ele>2047.128</ele>
        <time>2021-03-06T12:13:32Z</time>
      </trkpt>
      <trkpt lat="42.73527" lon="1.5299">
        <ele>2047.127</ele>
        <time>2021-03-06T12:13:34Z</time>
      </trkpt>
      <trkpt lat="42.73527" lon="1.5299">
        <ele>2047.127</ele>
        <time>2021-03-06T12:13:36Z</time>
      </trkpt>
      <trkpt lat="42.73527" lon="1.5299">
        <ele>2047.13</ele>
        <time>2021-03-06T12:13:38Z</time>
      </trkpt>
      <trkpt lat="42.73527" lon="1.5299">
        <ele>2047.131</ele>
        <time>2021-03-06T12:13:40Z</time>
      </trkpt>
      <trkpt lat="42.73527" lon="1.5299">
        <ele>2047.13</ele>
        <time>2021-03-06T12:13:42Z</time>
      </trkpt>
      <trkpt lat="42.73527" lon="1.5299">
        <ele>2047.13</ele>
        <time>2021-03-06T12:13:44Z</time>
      </trkpt>
      <trkpt lat="42.73527" lon="1.5299">
        <ele>2047.19</ele>
        <time>2021-03-06T12:13:46Z</time>
      </trkpt>
      <trkpt lat="42.73527" lon="1.5299">
        <ele>2047.184</ele>
        <time>2021-03-06T12:13:48Z</time>
      </trkpt>
      <trkpt lat="42.73527" lon="1.5299">
        <ele>2047.185</ele>
        <time>2021-03-06T12:13:50Z</time>
      </trkpt>
      <trkpt lat="42.73527" lon="1.5299">
        <ele>2047.184</ele>
        <time>2021-03-06T12:13:52Z</time>
      </trkpt>
      <trkpt lat="42.73527" lon="1.5299">
        <ele>2047.177</ele>
        <time>2021-03-06T12:13:54Z</time>
      </trkpt>
      <trkpt lat="42.73527" lon="1.52991">
        <ele>2047.596</ele>
        <time>2021-03-06T12:13:56Z</time>
      </trkpt>
      <trkpt lat="42.73526" lon="1.52993">
        <ele>2047.213</ele>
        <time>2021-03-06T12:13:58Z</time>
      </trkpt>
      <trkpt lat="42.73527" lon="1.52993">
        <ele>2047.299</ele>
        <time>2021-03-06T12:14:00Z</time>
      </trkpt>
      <trkpt lat="42.73527" lon="1.52994">
        <ele>2047.302</ele>
        <time>2021-03-06T12:14:02Z</time>
      </trkpt>
      <trkpt lat="42.73527" lon="1.52994">
        <ele>2047.304</ele>
        <time>2021-03-06T12:14:04Z</time>
      </trkpt>
      <trkpt lat="42.73527" lon="1.52994">
        <ele>2047.305</ele>
        <time>2021-03-06T12:14:06Z</time>
      </trkpt>
      <trkpt lat="42.73527" lon="1.52993">
        <ele>2047.219</ele>
        <time>2021-03-06T12:14:08Z</time>
      </trkpt>
      <trkpt lat="42.73526" lon="1.52993">
        <ele>2047.292</ele>
        <time>2021-03-06T12:14:10Z</time>
      </trkpt>
      <trkpt lat="42.73526" lon="1.52994">
        <ele>2047.186</ele>
        <time>2021-03-06T12:14:12Z</time>
      </trkpt>
      <trkpt lat="42.73525" lon="1.52995">
        <ele>2047.258</ele>
        <time>2021-03-06T12:14:14Z</time>
      </trkpt>
      <trkpt lat="42.73526" lon="1.52994">
        <ele>2047.181</ele>
        <time>2021-03-06T12:14:16Z</time>
      </trkpt>
      <trkpt lat="42.73526" lon="1.52994">
        <ele>2046.803</ele>
        <time>2021-03-06T12:14:18Z</time>
      </trkpt>
      <trkpt lat="42.73526" lon="1.52994">
        <ele>2046.792</ele>
        <time>2021-03-06T12:14:20Z</time>
      </trkpt>
      <trkpt lat="42.73527" lon="1.52994">
        <ele>2046.796</ele>
        <time>2021-03-06T12:14:22Z</time>
      </trkpt>
      <trkpt lat="42.73527" lon="1.52994">
        <ele>2046.665</ele>
        <time>2021-03-06T12:14:24Z</time>
      </trkpt>
      <trkpt lat="42.73527" lon="1.52994">
        <ele>2046.756</ele>
        <time>2021-03-06T12:14:26Z</time>
      </trkpt>
      <trkpt lat="42.73527" lon="1.52993">
        <ele>2046.752</ele>
        <time>2021-03-06T12:14:28Z</time>
      </trkpt>
      <trkpt lat="42.73527" lon="1.52994">
        <ele>2046.617</ele>
        <time>2021-03-06T12:14:30Z</time>
      </trkpt>
      <trkpt lat="42.73528" lon="1.52994">
        <ele>2046.675</ele>
        <time>2021-03-06T12:14:32Z</time>
      </trkpt>
      <trkpt lat="42.73528" lon="1.52993">
        <ele>2046.678</ele>
        <time>2021-03-06T12:14:34Z</time>
      </trkpt>
      <trkpt lat="42.73528" lon="1.52993">
        <ele>2046.68</ele>
        <time>2021-03-06T12:14:36Z</time>
      </trkpt>
      <trkpt lat="42.73527" lon="1.52993">
        <ele>2046.787</ele>
        <time>2021-03-06T12:14:38Z</time>
      </trkpt>
      <trkpt lat="42.73527" lon="1.52994">
        <ele>2046.996</ele>
        <time>2021-03-06T12:14:40Z</time>
      </trkpt>
      <trkpt lat="42.73527" lon="1.52994">
        <ele>2047.002</ele>
        <time>2021-03-06T12:14:42Z</time>
      </trkpt>
      <trkpt lat="42.73527" lon="1.52994">
        <ele>2047.004</ele>
        <time>2021-03-06T12:14:44Z</time>
      </trkpt>
      <trkpt lat="42.73527" lon="1.52994">
        <ele>2046.832</ele>
        <time>2021-03-06T12:14:46Z</time>
      </trkpt>
      <trkpt lat="42.73527" lon="1.52993">
        <ele>2046.722</ele>
        <time>2021-03-06T12:14:48Z</time>
      </trkpt>
      <trkpt lat="42.73527" lon="1.52992">
        <ele>2046.557</ele>
        <time>2021-03-06T12:14:50Z</time>
      </trkpt>
      <trkpt lat="42.73528" lon="1.52992">
        <ele>2046.55</ele>
        <time>2021-03-06T12:14:52Z</time>
      </trkpt>
      <trkpt lat="42.73528" lon="1.52992">
        <ele>2046.547</ele>
        <time>2021-03-06T12:14:54Z</time>
      </trkpt>
      <trkpt lat="42.73528" lon="1.52992">
        <ele>2046.485</ele>
        <time>2021-03-06T12:14:56Z</time>
      </trkpt>
      <trkpt lat="42.73528" lon="1.52991">
        <ele>2046.725</ele>
        <time>2021-03-06T12:14:58Z</time>
      </trkpt>
      <trkpt lat="42.73528" lon="1.52991">
        <ele>2046.279</ele>
        <time>2021-03-06T12:15:00Z</time>
      </trkpt>
      <trkpt lat="42.73528" lon="1.52991">
        <ele>2046.282</ele>
        <time>2021-03-06T12:15:02Z</time>
      </trkpt>
      <trkpt lat="42.73528" lon="1.52991">
        <ele>2046.553</ele>
        <time>2021-03-06T12:15:04Z</time>
      </trkpt>
      <trkpt lat="42.73528" lon="1.52991">
        <ele>2046.732</ele>
        <time>2021-03-06T12:15:06Z</time>
      </trkpt>
      <trkpt lat="42.73528" lon="1.52991">
        <ele>2046.729</ele>
        <time>2021-03-06T12:15:08Z</time>
      </trkpt>
      <trkpt lat="42.73528" lon="1.52991">
        <ele>2046.727</ele>
        <time>2021-03-06T12:15:10Z</time>
      </trkpt>
      <trkpt lat="42.73528" lon="1.52991">
        <ele>2046.723</ele>
        <time>2021-03-06T12:15:12Z</time>
      </trkpt>
      <trkpt lat="42.73528" lon="1.52991">
        <ele>2046.723</ele>
        <time>2021-03-06T12:15:14Z</time>
      </trkpt>
      <trkpt lat="42.73528" lon="1.52991">
        <ele>2046.722</ele>
        <time>2021-03-06T12:15:16Z</time>
      </trkpt>
      <trkpt lat="42.73528" lon="1.52991">
        <ele>2046.721</ele>
        <time>2021-03-06T12:15:18Z</time>
      </trkpt>
      <trkpt lat="42.73528" lon="1.52991">
        <ele>2046.72</ele>
        <time>2021-03-06T12:15:20Z</time>
      </trkpt>
      <trkpt lat="42.73528" lon="1.52991">
        <ele>2046.72</ele>
        <time>2021-03-06T12:15:22Z</time>
      </trkpt>
      <trkpt lat="42.73528" lon="1.52991">
        <ele>2046.719</ele>
        <time>2021-03-06T12:15:24Z</time>
      </trkpt>
      <trkpt lat="42.73528" lon="1.52991">
        <ele>2046.718</ele>
        <time>2021-03-06T12:15:26Z</time>
      </trkpt>
      <trkpt lat="42.73528" lon="1.52991">
        <ele>2046.719</ele>
        <time>2021-03-06T12:15:28Z</time>
      </trkpt>
      <trkpt lat="42.73528" lon="1.52991">
        <ele>2046.72</ele>
        <time>2021-03-06T12:15:30Z</time>
      </trkpt>
      <trkpt lat="42.73528" lon="1.52991">
        <ele>2046.719</ele>
        <time>2021-03-06T12:15:32Z</time>
      </trkpt>
      <trkpt lat="42.73528" lon="1.52991">
        <ele>2046.717</ele>
        <time>2021-03-06T12:15:34Z</time>
      </trkpt>
      <trkpt lat="42.73528" lon="1.52991">
        <ele>2046.713</ele>
        <time>2021-03-06T12:15:36Z</time>
      </trkpt>
      <trkpt lat="42.73528" lon="1.52991">
        <ele>2046.713</ele>
        <time>2021-03-06T12:15:38Z</time>
      </trkpt>
      <trkpt lat="42.73528" lon="1.52991">
        <ele>2046.711</ele>
        <time>2021-03-06T12:15:40Z</time>
      </trkpt>
      <trkpt lat="42.73528" lon="1.52991">
        <ele>2046.711</ele>
        <time>2021-03-06T12:15:42Z</time>
      </trkpt>
      <trkpt lat="42.73528" lon="1.52991">
        <ele>2046.71</ele>
        <time>2021-03-06T12:15:44Z</time>
      </trkpt>
      <trkpt lat="42.73528" lon="1.52991">
        <ele>2046.712</ele>
        <time>2021-03-06T12:15:46Z</time>
      </trkpt>
      <trkpt lat="42.73528" lon="1.52991">
        <ele>2046.711</ele>
        <time>2021-03-06T12:15:48Z</time>
      </trkpt>
      <trkpt lat="42.73528" lon="1.52991">
        <ele>2046.712</ele>
        <time>2021-03-06T12:15:50Z</time>
      </trkpt>
      <trkpt lat="42.73528" lon="1.52991">
        <ele>2046.711</ele>
        <time>2021-03-06T12:15:52Z</time>
      </trkpt>
      <trkpt lat="42.73528" lon="1.52991">
        <ele>2046.711</ele>
        <time>2021-03-06T12:15:54Z</time>
      </trkpt>
      <trkpt lat="42.73528" lon="1.52991">
        <ele>2046.712</ele>
        <time>2021-03-06T12:15:56Z</time>
      </trkpt>
      <trkpt lat="42.73528" lon="1.52991">
        <ele>2046.714</ele>
        <time>2021-03-06T12:15:58Z</time>
      </trkpt>
      <trkpt lat="42.73528" lon="1.52991">
        <ele>2046.713</ele>
        <time>2021-03-06T12:16:00Z</time>
      </trkpt>
      <trkpt lat="42.73528" lon="1.52991">
        <ele>2046.714</ele>
        <time>2021-03-06T12:16:02Z</time>
      </trkpt>
      <trkpt lat="42.73528" lon="1.52991">
        <ele>2046.72</ele>
        <time>2021-03-06T12:16:04Z</time>
      </trkpt>
      <trkpt lat="42.73528" lon="1.52991">
        <ele>2047.503</ele>
        <time>2021-03-06T12:16:06Z</time>
      </trkpt>
      <trkpt lat="42.73527" lon="1.52993">
        <ele>2047.12</ele>
        <time>2021-03-06T12:16:08Z</time>
      </trkpt>
      <trkpt lat="42.73528" lon="1.52994">
        <ele>2046.606</ele>
        <time>2021-03-06T12:16:10Z</time>
      </trkpt>
      <trkpt lat="42.73528" lon="1.52994">
        <ele>2046.427</ele>
        <time>2021-03-06T12:16:12Z</time>
      </trkpt>
      <trkpt lat="42.73527" lon="1.52993">
        <ele>2046.557</ele>
        <time>2021-03-06T12:16:14Z</time>
      </trkpt>
      <trkpt lat="42.73527" lon="1.52992">
        <ele>2045.762</ele>
        <time>2021-03-06T12:16:16Z</time>
      </trkpt>
      <trkpt lat="42.73528" lon="1.52991">
        <ele>2045.584</ele>
        <time>2021-03-06T12:16:18Z</time>
      </trkpt>
      <trkpt lat="42.73529" lon="1.52991">
        <ele>2045.56</ele>
        <time>2021-03-06T12:16:20Z</time>
      </trkpt>
      <trkpt lat="42.73529" lon="1.52991">
        <ele>2045.657</ele>
        <time>2021-03-06T12:16:22Z</time>
      </trkpt>
      <trkpt lat="42.73529" lon="1.52991">
        <ele>2045.657</ele>
        <time>2021-03-06T12:16:24Z</time>
      </trkpt>
      <trkpt lat="42.73529" lon="1.52991">
        <ele>2045.651</ele>
        <time>2021-03-06T12:16:26Z</time>
      </trkpt>
      <trkpt lat="42.73529" lon="1.52991">
        <ele>2045.648</ele>
        <time>2021-03-06T12:16:28Z</time>
      </trkpt>
      <trkpt lat="42.73529" lon="1.52991">
        <ele>2045.645</ele>
        <time>2021-03-06T12:16:30Z</time>
      </trkpt>
      <trkpt lat="42.73529" lon="1.52991">
        <ele>2045.647</ele>
        <time>2021-03-06T12:16:32Z</time>
      </trkpt>
      <trkpt lat="42.73529" lon="1.52991">
        <ele>2045.647</ele>
        <time>2021-03-06T12:16:34Z</time>
      </trkpt>
      <trkpt lat="42.73529" lon="1.52991">
        <ele>2045.646</ele>
        <time>2021-03-06T12:16:36Z</time>
      </trkpt>
      <trkpt lat="42.73529" lon="1.52991">
        <ele>2045.646</ele>
        <time>2021-03-06T12:16:38Z</time>
      </trkpt>
      <trkpt lat="42.73529" lon="1.52991">
        <ele>2045.607</ele>
        <time>2021-03-06T12:16:40Z</time>
      </trkpt>
      <trkpt lat="42.73529" lon="1.52991">
        <ele>2045.603</ele>
        <time>2021-03-06T12:16:42Z</time>
      </trkpt>
      <trkpt lat="42.73529" lon="1.52991">
        <ele>2045.605</ele>
        <time>2021-03-06T12:16:44Z</time>
      </trkpt>
      <trkpt lat="42.73529" lon="1.52991">
        <ele>2045.607</ele>
        <time>2021-03-06T12:16:46Z</time>
      </trkpt>
      <trkpt lat="42.73529" lon="1.52991">
        <ele>2045.608</ele>
        <time>2021-03-06T12:16:48Z</time>
      </trkpt>
      <trkpt lat="42.73529" lon="1.52991">
        <ele>2045.611</ele>
        <time>2021-03-06T12:16:50Z</time>
      </trkpt>
      <trkpt lat="42.73529" lon="1.52991">
        <ele>2045.612</ele>
        <time>2021-03-06T12:16:52Z</time>
      </trkpt>
      <trkpt lat="42.73529" lon="1.52991">
        <ele>2045.612</ele>
        <time>2021-03-06T12:16:54Z</time>
      </trkpt>
      <trkpt lat="42.73529" lon="1.52991">
        <ele>2045.613</ele>
        <time>2021-03-06T12:16:56Z</time>
      </trkpt>
      <trkpt lat="42.73529" lon="1.52991">
        <ele>2045.615</ele>
        <time>2021-03-06T12:16:58Z</time>
      </trkpt>
      <trkpt lat="42.73529" lon="1.52991">
        <ele>2045.615</ele>
        <time>2021-03-06T12:17:00Z</time>
      </trkpt>
      <trkpt lat="42.73529" lon="1.52991">
        <ele>2045.618</ele>
        <time>2021-03-06T12:17:02Z</time>
      </trkpt>
      <trkpt lat="42.73529" lon="1.52991">
        <ele>2045.618</ele>
        <time>2021-03-06T12:17:04Z</time>
      </trkpt>
      <trkpt lat="42.73529" lon="1.52991">
        <ele>2045.619</ele>
        <time>2021-03-06T12:17:06Z</time>
      </trkpt>
      <trkpt lat="42.73529" lon="1.52991">
        <ele>2045.62</ele>
        <time>2021-03-06T12:17:08Z</time>
      </trkpt>
      <trkpt lat="42.73529" lon="1.52991">
        <ele>2045.621</ele>
        <time>2021-03-06T12:17:10Z</time>
      </trkpt>
      <trkpt lat="42.73529" lon="1.52991">
        <ele>2045.619</ele>
        <time>2021-03-06T12:17:12Z</time>
      </trkpt>
      <trkpt lat="42.73529" lon="1.52991">
        <ele>2045.62</ele>
        <time>2021-03-06T12:17:14Z</time>
      </trkpt>
      <trkpt lat="42.73529" lon="1.52991">
        <ele>2045.623</ele>
        <time>2021-03-06T12:17:16Z</time>
      </trkpt>
      <trkpt lat="42.73529" lon="1.52991">
        <ele>2045.627</ele>
        <time>2021-03-06T12:17:18Z</time>
      </trkpt>
      <trkpt lat="42.73529" lon="1.52991">
        <ele>2045.629</ele>
        <time>2021-03-06T12:17:20Z</time>
      </trkpt>
      <trkpt lat="42.73529" lon="1.52991">
        <ele>2045.63</ele>
        <time>2021-03-06T12:17:22Z</time>
      </trkpt>
      <trkpt lat="42.73529" lon="1.52991">
        <ele>2045.63</ele>
        <time>2021-03-06T12:17:24Z</time>
      </trkpt>
      <trkpt lat="42.73529" lon="1.52991">
        <ele>2045.63</ele>
        <time>2021-03-06T12:17:26Z</time>
      </trkpt>
      <trkpt lat="42.73529" lon="1.52991">
        <ele>2045.63</ele>
        <time>2021-03-06T12:17:28Z</time>
      </trkpt>
      <trkpt lat="42.73529" lon="1.52991">
        <ele>2045.63</ele>
        <time>2021-03-06T12:17:30Z</time>
      </trkpt>
      <trkpt lat="42.73529" lon="1.52991">
        <ele>2045.629</ele>
        <time>2021-03-06T12:17:32Z</time>
      </trkpt>
      <trkpt lat="42.73529" lon="1.52991">
        <ele>2045.627</ele>
        <time>2021-03-06T12:17:34Z</time>
      </trkpt>
      <trkpt lat="42.73529" lon="1.52991">
        <ele>2045.629</ele>
        <time>2021-03-06T12:17:36Z</time>
      </trkpt>
      <trkpt lat="42.73529" lon="1.52991">
        <ele>2045.63</ele>
        <time>2021-03-06T12:17:38Z</time>
      </trkpt>
      <trkpt lat="42.73529" lon="1.52991">
        <ele>2045.63</ele>
        <time>2021-03-06T12:17:40Z</time>
      </trkpt>
      <trkpt lat="42.73529" lon="1.52991">
        <ele>2045.629</ele>
        <time>2021-03-06T12:17:42Z</time>
      </trkpt>
      <trkpt lat="42.73529" lon="1.52991">
        <ele>2045.629</ele>
        <time>2021-03-06T12:17:44Z</time>
      </trkpt>
      <trkpt lat="42.73529" lon="1.52991">
        <ele>2045.63</ele>
        <time>2021-03-06T12:17:46Z</time>
      </trkpt>
      <trkpt lat="42.73529" lon="1.52991">
        <ele>2045.627</ele>
        <time>2021-03-06T12:17:48Z</time>
      </trkpt>
      <trkpt lat="42.73529" lon="1.52991">
        <ele>2045.628</ele>
        <time>2021-03-06T12:17:50Z</time>
      </trkpt>
      <trkpt lat="42.73529" lon="1.52991">
        <ele>2045.629</ele>
        <time>2021-03-06T12:17:52Z</time>
      </trkpt>
      <trkpt lat="42.73529" lon="1.52991">
        <ele>2045.633</ele>
        <time>2021-03-06T12:17:54Z</time>
      </trkpt>
      <trkpt lat="42.73529" lon="1.52991">
        <ele>2045.634</ele>
        <time>2021-03-06T12:17:56Z</time>
      </trkpt>
      <trkpt lat="42.73529" lon="1.52991">
        <ele>2045.635</ele>
        <time>2021-03-06T12:17:58Z</time>
      </trkpt>
      <trkpt lat="42.73529" lon="1.52991">
        <ele>2045.636</ele>
        <time>2021-03-06T12:18:00Z</time>
      </trkpt>
      <trkpt lat="42.73529" lon="1.52991">
        <ele>2045.64</ele>
        <time>2021-03-06T12:18:02Z</time>
      </trkpt>
      <trkpt lat="42.73529" lon="1.52991">
        <ele>2045.643</ele>
        <time>2021-03-06T12:18:04Z</time>
      </trkpt>
      <trkpt lat="42.73529" lon="1.52991">
        <ele>2045.643</ele>
        <time>2021-03-06T12:18:06Z</time>
      </trkpt>
      <trkpt lat="42.73529" lon="1.52991">
        <ele>2045.644</ele>
        <time>2021-03-06T12:18:08Z</time>
      </trkpt>
      <trkpt lat="42.73529" lon="1.52991">
        <ele>2045.646</ele>
        <time>2021-03-06T12:18:10Z</time>
      </trkpt>
      <trkpt lat="42.73529" lon="1.52991">
        <ele>2045.648</ele>
        <time>2021-03-06T12:18:12Z</time>
      </trkpt>
      <trkpt lat="42.73529" lon="1.52991">
        <ele>2045.645</ele>
        <time>2021-03-06T12:18:14Z</time>
      </trkpt>
      <trkpt lat="42.73529" lon="1.52991">
        <ele>2045.644</ele>
        <time>2021-03-06T12:18:16Z</time>
      </trkpt>
      <trkpt lat="42.73529" lon="1.52991">
        <ele>2045.644</ele>
        <time>2021-03-06T12:18:18Z</time>
      </trkpt>
      <trkpt lat="42.73529" lon="1.52991">
        <ele>2045.644</ele>
        <time>2021-03-06T12:18:20Z</time>
      </trkpt>
      <trkpt lat="42.73529" lon="1.52991">
        <ele>2045.645</ele>
        <time>2021-03-06T12:18:22Z</time>
      </trkpt>
      <trkpt lat="42.73529" lon="1.52991">
        <ele>2045.645</ele>
        <time>2021-03-06T12:18:24Z</time>
      </trkpt>
      <trkpt lat="42.73529" lon="1.52991">
        <ele>2045.644</ele>
        <time>2021-03-06T12:18:26Z</time>
      </trkpt>
      <trkpt lat="42.73529" lon="1.52991">
        <ele>2045.645</ele>
        <time>2021-03-06T12:18:28Z</time>
      </trkpt>
      <trkpt lat="42.73529" lon="1.52991">
        <ele>2045.645</ele>
        <time>2021-03-06T12:18:30Z</time>
      </trkpt>
      <trkpt lat="42.73529" lon="1.52991">
        <ele>2045.644</ele>
        <time>2021-03-06T12:18:32Z</time>
      </trkpt>
      <trkpt lat="42.73529" lon="1.52991">
        <ele>2045.645</ele>
        <time>2021-03-06T12:18:34Z</time>
      </trkpt>
      <trkpt lat="42.73529" lon="1.52991">
        <ele>2045.646</ele>
        <time>2021-03-06T12:18:36Z</time>
      </trkpt>
      <trkpt lat="42.73529" lon="1.52991">
        <ele>2045.648</ele>
        <time>2021-03-06T12:18:38Z</time>
      </trkpt>
      <trkpt lat="42.73529" lon="1.52991">
        <ele>2045.647</ele>
        <time>2021-03-06T12:18:40Z</time>
      </trkpt>
      <trkpt lat="42.73529" lon="1.52991">
        <ele>2045.649</ele>
        <time>2021-03-06T12:18:42Z</time>
      </trkpt>
      <trkpt lat="42.73529" lon="1.52991">
        <ele>2045.65</ele>
        <time>2021-03-06T12:18:44Z</time>
      </trkpt>
      <trkpt lat="42.73529" lon="1.52991">
        <ele>2045.652</ele>
        <time>2021-03-06T12:18:46Z</time>
      </trkpt>
      <trkpt lat="42.73529" lon="1.52991">
        <ele>2045.651</ele>
        <time>2021-03-06T12:18:48Z</time>
      </trkpt>
      <trkpt lat="42.73529" lon="1.52991">
        <ele>2045.654</ele>
        <time>2021-03-06T12:18:50Z</time>
      </trkpt>
      <trkpt lat="42.73529" lon="1.52991">
        <ele>2045.654</ele>
        <time>2021-03-06T12:18:52Z</time>
      </trkpt>
      <trkpt lat="42.73529" lon="1.52991">
        <ele>2045.654</ele>
        <time>2021-03-06T12:18:54Z</time>
      </trkpt>
      <trkpt lat="42.73529" lon="1.52991">
        <ele>2045.654</ele>
        <time>2021-03-06T12:18:56Z</time>
      </trkpt>
      <trkpt lat="42.73529" lon="1.52991">
        <ele>2045.653</ele>
        <time>2021-03-06T12:18:58Z</time>
      </trkpt>
      <trkpt lat="42.73529" lon="1.52991">
        <ele>2045.654</ele>
        <time>2021-03-06T12:19:00Z</time>
      </trkpt>
      <trkpt lat="42.73529" lon="1.52991">
        <ele>2045.654</ele>
        <time>2021-03-06T12:19:02Z</time>
      </trkpt>
      <trkpt lat="42.73529" lon="1.52991">
        <ele>2045.654</ele>
        <time>2021-03-06T12:19:04Z</time>
      </trkpt>
      <trkpt lat="42.73529" lon="1.52991">
        <ele>2045.653</ele>
        <time>2021-03-06T12:19:06Z</time>
      </trkpt>
      <trkpt lat="42.73529" lon="1.52991">
        <ele>2045.654</ele>
        <time>2021-03-06T12:19:08Z</time>
      </trkpt>
      <trkpt lat="42.73529" lon="1.52991">
        <ele>2045.653</ele>
        <time>2021-03-06T12:19:10Z</time>
      </trkpt>
      <trkpt lat="42.73529" lon="1.52991">
        <ele>2045.653</ele>
        <time>2021-03-06T12:19:12Z</time>
      </trkpt>
      <trkpt lat="42.73529" lon="1.52991">
        <ele>2045.654</ele>
        <time>2021-03-06T12:19:14Z</time>
      </trkpt>
      <trkpt lat="42.73529" lon="1.52991">
        <ele>2045.654</ele>
        <time>2021-03-06T12:19:16Z</time>
      </trkpt>
      <trkpt lat="42.73529" lon="1.52991">
        <ele>2045.656</ele>
        <time>2021-03-06T12:19:18Z</time>
      </trkpt>
      <trkpt lat="42.73529" lon="1.52991">
        <ele>2045.657</ele>
        <time>2021-03-06T12:19:20Z</time>
      </trkpt>
      <trkpt lat="42.73529" lon="1.52991">
        <ele>2045.657</ele>
        <time>2021-03-06T12:19:22Z</time>
      </trkpt>
      <trkpt lat="42.73529" lon="1.52991">
        <ele>2045.658</ele>
        <time>2021-03-06T12:19:24Z</time>
      </trkpt>
      <trkpt lat="42.73529" lon="1.52991">
        <ele>2045.657</ele>
        <time>2021-03-06T12:19:26Z</time>
      </trkpt>
      <trkpt lat="42.73529" lon="1.52991">
        <ele>2045.657</ele>
        <time>2021-03-06T12:19:28Z</time>
      </trkpt>
      <trkpt lat="42.73529" lon="1.52991">
        <ele>2045.655</ele>
        <time>2021-03-06T12:19:30Z</time>
      </trkpt>
      <trkpt lat="42.73529" lon="1.52991">
        <ele>2045.654</ele>
        <time>2021-03-06T12:19:32Z</time>
      </trkpt>
      <trkpt lat="42.73529" lon="1.52991">
        <ele>2045.652</ele>
        <time>2021-03-06T12:19:34Z</time>
      </trkpt>
      <trkpt lat="42.73529" lon="1.52991">
        <ele>2045.65</ele>
        <time>2021-03-06T12:19:36Z</time>
      </trkpt>
      <trkpt lat="42.73529" lon="1.52991">
        <ele>2045.649</ele>
        <time>2021-03-06T12:19:38Z</time>
      </trkpt>
      <trkpt lat="42.73529" lon="1.52991">
        <ele>2045.646</ele>
        <time>2021-03-06T12:19:40Z</time>
      </trkpt>
      <trkpt lat="42.73529" lon="1.52991">
        <ele>2045.644</ele>
        <time>2021-03-06T12:19:42Z</time>
      </trkpt>
      <trkpt lat="42.73529" lon="1.52991">
        <ele>2045.643</ele>
        <time>2021-03-06T12:19:44Z</time>
      </trkpt>
      <trkpt lat="42.73529" lon="1.52991">
        <ele>2045.642</ele>
        <time>2021-03-06T12:19:46Z</time>
      </trkpt>
      <trkpt lat="42.73529" lon="1.52991">
        <ele>2045.641</ele>
        <time>2021-03-06T12:19:48Z</time>
      </trkpt>
      <trkpt lat="42.73529" lon="1.52991">
        <ele>2045.641</ele>
        <time>2021-03-06T12:19:50Z</time>
      </trkpt>
      <trkpt lat="42.73529" lon="1.52991">
        <ele>2045.642</ele>
        <time>2021-03-06T12:19:52Z</time>
      </trkpt>
      <trkpt lat="42.73529" lon="1.52991">
        <ele>2045.64</ele>
        <time>2021-03-06T12:19:54Z</time>
      </trkpt>
      <trkpt lat="42.73529" lon="1.52991">
        <ele>2045.638</ele>
        <time>2021-03-06T12:19:56Z</time>
      </trkpt>
      <trkpt lat="42.73529" lon="1.52991">
        <ele>2045.638</ele>
        <time>2021-03-06T12:19:58Z</time>
      </trkpt>
      <trkpt lat="42.73529" lon="1.52991">
        <ele>2045.638</ele>
        <time>2021-03-06T12:20:00Z</time>
      </trkpt>
      <trkpt lat="42.73529" lon="1.52991">
        <ele>2045.637</ele>
        <time>2021-03-06T12:20:02Z</time>
      </trkpt>
      <trkpt lat="42.73529" lon="1.52991">
        <ele>2045.634</ele>
        <time>2021-03-06T12:20:04Z</time>
      </trkpt>
      <trkpt lat="42.73529" lon="1.52991">
        <ele>2045.63</ele>
        <time>2021-03-06T12:20:06Z</time>
      </trkpt>
      <trkpt lat="42.73529" lon="1.52991">
        <ele>2045.626</ele>
        <time>2021-03-06T12:20:08Z</time>
      </trkpt>
      <trkpt lat="42.73529" lon="1.52991">
        <ele>2045.625</ele>
        <time>2021-03-06T12:20:10Z</time>
      </trkpt>
      <trkpt lat="42.73529" lon="1.52991">
        <ele>2045.622</ele>
        <time>2021-03-06T12:20:12Z</time>
      </trkpt>
      <trkpt lat="42.73529" lon="1.52991">
        <ele>2045.618</ele>
        <time>2021-03-06T12:20:14Z</time>
      </trkpt>
      <trkpt lat="42.73529" lon="1.52991">
        <ele>2045.616</ele>
        <time>2021-03-06T12:20:16Z</time>
      </trkpt>
      <trkpt lat="42.73529" lon="1.52991">
        <ele>2045.615</ele>
        <time>2021-03-06T12:20:18Z</time>
      </trkpt>
      <trkpt lat="42.73529" lon="1.52991">
        <ele>2045.613</ele>
        <time>2021-03-06T12:20:20Z</time>
      </trkpt>
      <trkpt lat="42.73529" lon="1.52991">
        <ele>2045.614</ele>
        <time>2021-03-06T12:20:22Z</time>
      </trkpt>
      <trkpt lat="42.73529" lon="1.52991">
        <ele>2045.613</ele>
        <time>2021-03-06T12:20:24Z</time>
      </trkpt>
      <trkpt lat="42.73529" lon="1.52991">
        <ele>2045.613</ele>
        <time>2021-03-06T12:20:26Z</time>
      </trkpt>
      <trkpt lat="42.73529" lon="1.52991">
        <ele>2045.613</ele>
        <time>2021-03-06T12:20:28Z</time>
      </trkpt>
      <trkpt lat="42.73529" lon="1.52991">
        <ele>2045.61</ele>
        <time>2021-03-06T12:20:30Z</time>
      </trkpt>
      <trkpt lat="42.73529" lon="1.52991">
        <ele>2045.607</ele>
        <time>2021-03-06T12:20:32Z</time>
      </trkpt>
      <trkpt lat="42.73529" lon="1.52991">
        <ele>2045.606</ele>
        <time>2021-03-06T12:20:34Z</time>
      </trkpt>
      <trkpt lat="42.73529" lon="1.52991">
        <ele>2045.606</ele>
        <time>2021-03-06T12:20:36Z</time>
      </trkpt>
      <trkpt lat="42.73529" lon="1.52991">
        <ele>2045.605</ele>
        <time>2021-03-06T12:20:38Z</time>
      </trkpt>
      <trkpt lat="42.73529" lon="1.52991">
        <ele>2045.606</ele>
        <time>2021-03-06T12:20:40Z</time>
      </trkpt>
      <trkpt lat="42.73529" lon="1.52991">
        <ele>2045.606</ele>
        <time>2021-03-06T12:20:42Z</time>
      </trkpt>
      <trkpt lat="42.73529" lon="1.52991">
        <ele>2045.603</ele>
        <time>2021-03-06T12:20:44Z</time>
      </trkpt>
      <trkpt lat="42.73529" lon="1.52991">
        <ele>2045.6</ele>
        <time>2021-03-06T12:20:46Z</time>
      </trkpt>
      <trkpt lat="42.73529" lon="1.52991">
        <ele>2045.598</ele>
        <time>2021-03-06T12:20:48Z</time>
      </trkpt>
      <trkpt lat="42.73529" lon="1.52991">
        <ele>2045.599</ele>
        <time>2021-03-06T12:20:50Z</time>
      </trkpt>
      <trkpt lat="42.73529" lon="1.52991">
        <ele>2045.599</ele>
        <time>2021-03-06T12:20:52Z</time>
      </trkpt>
      <trkpt lat="42.73529" lon="1.52991">
        <ele>2045.6</ele>
        <time>2021-03-06T12:20:54Z</time>
      </trkpt>
      <trkpt lat="42.73529" lon="1.52991">
        <ele>2045.6</ele>
        <time>2021-03-06T12:20:56Z</time>
      </trkpt>
      <trkpt lat="42.73529" lon="1.52991">
        <ele>2045.6</ele>
        <time>2021-03-06T12:20:58Z</time>
      </trkpt>
      <trkpt lat="42.73529" lon="1.52991">
        <ele>2045.597</ele>
        <time>2021-03-06T12:21:00Z</time>
      </trkpt>
      <trkpt lat="42.73529" lon="1.52991">
        <ele>2045.596</ele>
        <time>2021-03-06T12:21:02Z</time>
      </trkpt>
      <trkpt lat="42.73529" lon="1.52991">
        <ele>2045.599</ele>
        <time>2021-03-06T12:21:04Z</time>
      </trkpt>
      <trkpt lat="42.73529" lon="1.52991">
        <ele>2045.598</ele>
        <time>2021-03-06T12:21:06Z</time>
      </trkpt>
      <trkpt lat="42.73529" lon="1.52991">
        <ele>2045.598</ele>
        <time>2021-03-06T12:21:08Z</time>
      </trkpt>
      <trkpt lat="42.73529" lon="1.52991">
        <ele>2045.596</ele>
        <time>2021-03-06T12:21:10Z</time>
      </trkpt>
      <trkpt lat="42.73529" lon="1.52991">
        <ele>2045.595</ele>
        <time>2021-03-06T12:21:12Z</time>
      </trkpt>
      <trkpt lat="42.73529" lon="1.52991">
        <ele>2045.595</ele>
        <time>2021-03-06T12:21:14Z</time>
      </trkpt>
      <trkpt lat="42.73529" lon="1.52991">
        <ele>2045.593</ele>
        <time>2021-03-06T12:21:16Z</time>
      </trkpt>
      <trkpt lat="42.73529" lon="1.52991">
        <ele>2045.59</ele>
        <time>2021-03-06T12:21:18Z</time>
      </trkpt>
      <trkpt lat="42.73529" lon="1.52991">
        <ele>2045.588</ele>
        <time>2021-03-06T12:21:20Z</time>
      </trkpt>
      <trkpt lat="42.73529" lon="1.52991">
        <ele>2045.586</ele>
        <time>2021-03-06T12:21:22Z</time>
      </trkpt>
      <trkpt lat="42.73529" lon="1.52991">
        <ele>2045.582</ele>
        <time>2021-03-06T12:21:24Z</time>
      </trkpt>
      <trkpt lat="42.73529" lon="1.52991">
        <ele>2045.58</ele>
        <time>2021-03-06T12:21:26Z</time>
      </trkpt>
      <trkpt lat="42.73528" lon="1.52991">
        <ele>2045.579</ele>
        <time>2021-03-06T12:21:28Z</time>
      </trkpt>
      <trkpt lat="42.73528" lon="1.52991">
        <ele>2045.575</ele>
        <time>2021-03-06T12:21:30Z</time>
      </trkpt>
      <trkpt lat="42.73528" lon="1.52991">
        <ele>2045.573</ele>
        <time>2021-03-06T12:21:32Z</time>
      </trkpt>
      <trkpt lat="42.73528" lon="1.52991">
        <ele>2045.573</ele>
        <time>2021-03-06T12:21:34Z</time>
      </trkpt>
      <trkpt lat="42.73528" lon="1.52991">
        <ele>2045.571</ele>
        <time>2021-03-06T12:21:36Z</time>
      </trkpt>
      <trkpt lat="42.73528" lon="1.52991">
        <ele>2045.57</ele>
        <time>2021-03-06T12:21:38Z</time>
      </trkpt>
      <trkpt lat="42.73528" lon="1.52991">
        <ele>2045.567</ele>
        <time>2021-03-06T12:21:40Z</time>
      </trkpt>
      <trkpt lat="42.73528" lon="1.52991">
        <ele>2045.566</ele>
        <time>2021-03-06T12:21:42Z</time>
      </trkpt>
      <trkpt lat="42.73528" lon="1.52991">
        <ele>2045.564</ele>
        <time>2021-03-06T12:21:44Z</time>
      </trkpt>
      <trkpt lat="42.73528" lon="1.52991">
        <ele>2045.564</ele>
        <time>2021-03-06T12:21:46Z</time>
      </trkpt>
      <trkpt lat="42.73528" lon="1.52991">
        <ele>2045.564</ele>
        <time>2021-03-06T12:21:48Z</time>
      </trkpt>
      <trkpt lat="42.73528" lon="1.52991">
        <ele>2045.563</ele>
        <time>2021-03-06T12:21:50Z</time>
      </trkpt>
      <trkpt lat="42.73528" lon="1.52991">
        <ele>2045.561</ele>
        <time>2021-03-06T12:21:52Z</time>
      </trkpt>
      <trkpt lat="42.73528" lon="1.52991">
        <ele>2045.563</ele>
        <time>2021-03-06T12:21:54Z</time>
      </trkpt>
      <trkpt lat="42.73528" lon="1.52991">
        <ele>2045.563</ele>
        <time>2021-03-06T12:21:56Z</time>
      </trkpt>
      <trkpt lat="42.73528" lon="1.52991">
        <ele>2045.563</ele>
        <time>2021-03-06T12:21:58Z</time>
      </trkpt>
      <trkpt lat="42.73528" lon="1.52991">
        <ele>2045.563</ele>
        <time>2021-03-06T12:22:00Z</time>
      </trkpt>
      <trkpt lat="42.73528" lon="1.52991">
        <ele>2045.562</ele>
        <time>2021-03-06T12:22:02Z</time>
      </trkpt>
      <trkpt lat="42.73528" lon="1.52991">
        <ele>2045.562</ele>
        <time>2021-03-06T12:22:04Z</time>
      </trkpt>
      <trkpt lat="42.73528" lon="1.52991">
        <ele>2045.56</ele>
        <time>2021-03-06T12:22:06Z</time>
      </trkpt>
      <trkpt lat="42.73528" lon="1.52991">
        <ele>2045.56</ele>
        <time>2021-03-06T12:22:08Z</time>
      </trkpt>
      <trkpt lat="42.73528" lon="1.52991">
        <ele>2045.559</ele>
        <time>2021-03-06T12:22:10Z</time>
      </trkpt>
      <trkpt lat="42.73528" lon="1.52991">
        <ele>2045.56</ele>
        <time>2021-03-06T12:22:12Z</time>
      </trkpt>
      <trkpt lat="42.73528" lon="1.52991">
        <ele>2045.561</ele>
        <time>2021-03-06T12:22:14Z</time>
      </trkpt>
      <trkpt lat="42.73528" lon="1.52991">
        <ele>2045.558</ele>
        <time>2021-03-06T12:22:16Z</time>
      </trkpt>
      <trkpt lat="42.73528" lon="1.52991">
        <ele>2045.553</ele>
        <time>2021-03-06T12:22:18Z</time>
      </trkpt>
      <trkpt lat="42.73528" lon="1.52991">
        <ele>2045.552</ele>
        <time>2021-03-06T12:22:20Z</time>
      </trkpt>
      <trkpt lat="42.73528" lon="1.52991">
        <ele>2045.552</ele>
        <time>2021-03-06T12:22:22Z</time>
      </trkpt>
      <trkpt lat="42.73528" lon="1.52991">
        <ele>2045.55</ele>
        <time>2021-03-06T12:22:24Z</time>
      </trkpt>
      <trkpt lat="42.73528" lon="1.52991">
        <ele>2045.548</ele>
        <time>2021-03-06T12:22:26Z</time>
      </trkpt>
      <trkpt lat="42.73528" lon="1.52991">
        <ele>2045.547</ele>
        <time>2021-03-06T12:22:28Z</time>
      </trkpt>
      <trkpt lat="42.73528" lon="1.52991">
        <ele>2045.547</ele>
        <time>2021-03-06T12:22:30Z</time>
      </trkpt>
      <trkpt lat="42.73528" lon="1.52991">
        <ele>2045.545</ele>
        <time>2021-03-06T12:22:32Z</time>
      </trkpt>
      <trkpt lat="42.73528" lon="1.52991">
        <ele>2045.543</ele>
        <time>2021-03-06T12:22:34Z</time>
      </trkpt>
      <trkpt lat="42.73528" lon="1.52991">
        <ele>2045.545</ele>
        <time>2021-03-06T12:22:35Z</time>
      </trkpt>
      <trkpt lat="42.73528" lon="1.52991">
        <ele>2045.544</ele>
        <time>2021-03-06T12:22:38Z</time>
      </trkpt>
      <trkpt lat="42.73528" lon="1.52991">
        <ele>2045.541</ele>
        <time>2021-03-06T12:22:40Z</time>
      </trkpt>
      <trkpt lat="42.73528" lon="1.52991">
        <ele>2045.541</ele>
        <time>2021-03-06T12:22:42Z</time>
      </trkpt>
      <trkpt lat="42.73528" lon="1.52991">
        <ele>2045.539</ele>
        <time>2021-03-06T12:22:44Z</time>
      </trkpt>
      <trkpt lat="42.73528" lon="1.52991">
        <ele>2045.54</ele>
        <time>2021-03-06T12:22:46Z</time>
      </trkpt>
      <trkpt lat="42.73528" lon="1.52991">
        <ele>2045.537</ele>
        <time>2021-03-06T12:22:48Z</time>
      </trkpt>
      <trkpt lat="42.73528" lon="1.52991">
        <ele>2045.536</ele>
        <time>2021-03-06T12:22:50Z</time>
      </trkpt>
      <trkpt lat="42.73528" lon="1.52991">
        <ele>2045.534</ele>
        <time>2021-03-06T12:22:52Z</time>
      </trkpt>
      <trkpt lat="42.73528" lon="1.52991">
        <ele>2045.533</ele>
        <time>2021-03-06T12:22:54Z</time>
      </trkpt>
      <trkpt lat="42.73528" lon="1.52991">
        <ele>2045.532</ele>
        <time>2021-03-06T12:22:56Z</time>
      </trkpt>
      <trkpt lat="42.73528" lon="1.52991">
        <ele>2045.533</ele>
        <time>2021-03-06T12:22:58Z</time>
      </trkpt>
      <trkpt lat="42.73528" lon="1.52991">
        <ele>2045.533</ele>
        <time>2021-03-06T12:23:00Z</time>
      </trkpt>
      <trkpt lat="42.73528" lon="1.52991">
        <ele>2045.531</ele>
        <time>2021-03-06T12:23:02Z</time>
      </trkpt>
      <trkpt lat="42.73528" lon="1.52991">
        <ele>2045.529</ele>
        <time>2021-03-06T12:23:04Z</time>
      </trkpt>
      <trkpt lat="42.73528" lon="1.52991">
        <ele>2045.529</ele>
        <time>2021-03-06T12:23:06Z</time>
      </trkpt>
      <trkpt lat="42.73528" lon="1.52991">
        <ele>2045.529</ele>
        <time>2021-03-06T12:23:08Z</time>
      </trkpt>
      <trkpt lat="42.73528" lon="1.52991">
        <ele>2045.53</ele>
        <time>2021-03-06T12:23:10Z</time>
      </trkpt>
      <trkpt lat="42.73528" lon="1.52991">
        <ele>2045.532</ele>
        <time>2021-03-06T12:23:12Z</time>
      </trkpt>
      <trkpt lat="42.73528" lon="1.52991">
        <ele>2045.532</ele>
        <time>2021-03-06T12:23:14Z</time>
      </trkpt>
      <trkpt lat="42.73528" lon="1.52991">
        <ele>2045.531</ele>
        <time>2021-03-06T12:23:16Z</time>
      </trkpt>
      <trkpt lat="42.73528" lon="1.52991">
        <ele>2045.531</ele>
        <time>2021-03-06T12:23:18Z</time>
      </trkpt>
      <trkpt lat="42.73528" lon="1.52991">
        <ele>2045.53</ele>
        <time>2021-03-06T12:23:20Z</time>
      </trkpt>
      <trkpt lat="42.73528" lon="1.52991">
        <ele>2045.533</ele>
        <time>2021-03-06T12:23:22Z</time>
      </trkpt>
      <trkpt lat="42.73528" lon="1.52991">
        <ele>2045.531</ele>
        <time>2021-03-06T12:23:24Z</time>
      </trkpt>
      <trkpt lat="42.73528" lon="1.52991">
        <ele>2045.53</ele>
        <time>2021-03-06T12:23:26Z</time>
      </trkpt>
      <trkpt lat="42.73528" lon="1.52991">
        <ele>2045.529</ele>
        <time>2021-03-06T12:23:28Z</time>
      </trkpt>
      <trkpt lat="42.73529" lon="1.52991">
        <ele>2045.575</ele>
        <time>2021-03-06T12:23:30Z</time>
      </trkpt>
      <trkpt lat="42.73528" lon="1.52991">
        <ele>2045.57</ele>
        <time>2021-03-06T12:23:32Z</time>
      </trkpt>
      <trkpt lat="42.73528" lon="1.52991">
        <ele>2045.57</ele>
        <time>2021-03-06T12:23:34Z</time>
      </trkpt>
      <trkpt lat="42.73528" lon="1.52991">
        <ele>2045.57</ele>
        <time>2021-03-06T12:23:36Z</time>
      </trkpt>
      <trkpt lat="42.73528" lon="1.52991">
        <ele>2045.569</ele>
        <time>2021-03-06T12:23:38Z</time>
      </trkpt>
      <trkpt lat="42.73528" lon="1.52991">
        <ele>2045.567</ele>
        <time>2021-03-06T12:23:40Z</time>
      </trkpt>
      <trkpt lat="42.73528" lon="1.52991">
        <ele>2045.567</ele>
        <time>2021-03-06T12:23:42Z</time>
      </trkpt>
      <trkpt lat="42.73528" lon="1.52991">
        <ele>2045.566</ele>
        <time>2021-03-06T12:23:44Z</time>
      </trkpt>
      <trkpt lat="42.73528" lon="1.52991">
        <ele>2045.564</ele>
        <time>2021-03-06T12:23:46Z</time>
      </trkpt>
      <trkpt lat="42.73528" lon="1.52991">
        <ele>2045.564</ele>
        <time>2021-03-06T12:23:48Z</time>
      </trkpt>
      <trkpt lat="42.73528" lon="1.52991">
        <ele>2045.564</ele>
        <time>2021-03-06T12:23:50Z</time>
      </trkpt>
      <trkpt lat="42.73528" lon="1.52991">
        <ele>2045.564</ele>
        <time>2021-03-06T12:23:52Z</time>
      </trkpt>
      <trkpt lat="42.73528" lon="1.52991">
        <ele>2045.564</ele>
        <time>2021-03-06T12:23:54Z</time>
      </trkpt>
      <trkpt lat="42.73528" lon="1.52991">
        <ele>2045.564</ele>
        <time>2021-03-06T12:23:56Z</time>
      </trkpt>
      <trkpt lat="42.73528" lon="1.52991">
        <ele>2045.564</ele>
        <time>2021-03-06T12:23:58Z</time>
      </trkpt>
      <trkpt lat="42.73529" lon="1.5299">
        <ele>2045.587</ele>
        <time>2021-03-06T12:24:00Z</time>
      </trkpt>
      <trkpt lat="42.73529" lon="1.5299">
        <ele>2045.927</ele>
        <time>2021-03-06T12:24:02Z</time>
      </trkpt>
      <trkpt lat="42.73529" lon="1.5299">
        <ele>2045.969</ele>
        <time>2021-03-06T12:24:04Z</time>
      </trkpt>
      <trkpt lat="42.73529" lon="1.5299">
        <ele>2045.97</ele>
        <time>2021-03-06T12:24:06Z</time>
      </trkpt>
      <trkpt lat="42.73529" lon="1.5299">
        <ele>2045.97</ele>
        <time>2021-03-06T12:24:08Z</time>
      </trkpt>
      <trkpt lat="42.73529" lon="1.5299">
        <ele>2045.97</ele>
        <time>2021-03-06T12:24:10Z</time>
      </trkpt>
      <trkpt lat="42.73529" lon="1.5299">
        <ele>2045.969</ele>
        <time>2021-03-06T12:24:12Z</time>
      </trkpt>
      <trkpt lat="42.73529" lon="1.5299">
        <ele>2045.959</ele>
        <time>2021-03-06T12:24:14Z</time>
      </trkpt>
      <trkpt lat="42.73529" lon="1.5299">
        <ele>2045.959</ele>
        <time>2021-03-06T12:24:16Z</time>
      </trkpt>
      <trkpt lat="42.73529" lon="1.5299">
        <ele>2045.965</ele>
        <time>2021-03-06T12:24:18Z</time>
      </trkpt>
      <trkpt lat="42.73528" lon="1.5299">
        <ele>2045.998</ele>
        <time>2021-03-06T12:24:20Z</time>
      </trkpt>
      <trkpt lat="42.73528" lon="1.5299">
        <ele>2045.998</ele>
        <time>2021-03-06T12:24:22Z</time>
      </trkpt>
      <trkpt lat="42.73528" lon="1.5299">
        <ele>2045.997</ele>
        <time>2021-03-06T12:24:24Z</time>
      </trkpt>
      <trkpt lat="42.73528" lon="1.5299">
        <ele>2045.804</ele>
        <time>2021-03-06T12:24:26Z</time>
      </trkpt>
      <trkpt lat="42.73527" lon="1.52991">
        <ele>2045.794</ele>
        <time>2021-03-06T12:24:28Z</time>
      </trkpt>
      <trkpt lat="42.73527" lon="1.52991">
        <ele>2045.795</ele>
        <time>2021-03-06T12:24:30Z</time>
      </trkpt>
      <trkpt lat="42.73527" lon="1.52991">
        <ele>2045.795</ele>
        <time>2021-03-06T12:24:32Z</time>
      </trkpt>
      <trkpt lat="42.73527" lon="1.52991">
        <ele>2045.795</ele>
        <time>2021-03-06T12:24:34Z</time>
      </trkpt>
      <trkpt lat="42.73527" lon="1.52991">
        <ele>2045.797</ele>
        <time>2021-03-06T12:24:36Z</time>
      </trkpt>
      <trkpt lat="42.73527" lon="1.52991">
        <ele>2045.798</ele>
        <time>2021-03-06T12:24:38Z</time>
      </trkpt>
      <trkpt lat="42.73527" lon="1.52991">
        <ele>2045.799</ele>
        <time>2021-03-06T12:24:40Z</time>
      </trkpt>
      <trkpt lat="42.73527" lon="1.52991">
        <ele>2045.8</ele>
        <time>2021-03-06T12:24:42Z</time>
      </trkpt>
      <trkpt lat="42.73527" lon="1.52991">
        <ele>2045.8</ele>
        <time>2021-03-06T12:24:44Z</time>
      </trkpt>
      <trkpt lat="42.73527" lon="1.52991">
        <ele>2045.798</ele>
        <time>2021-03-06T12:24:46Z</time>
      </trkpt>
      <trkpt lat="42.73527" lon="1.52991">
        <ele>2045.798</ele>
        <time>2021-03-06T12:24:48Z</time>
      </trkpt>
      <trkpt lat="42.73527" lon="1.52991">
        <ele>2045.796</ele>
        <time>2021-03-06T12:24:50Z</time>
      </trkpt>
      <trkpt lat="42.73527" lon="1.52991">
        <ele>2045.797</ele>
        <time>2021-03-06T12:24:52Z</time>
      </trkpt>
      <trkpt lat="42.73527" lon="1.52991">
        <ele>2045.797</ele>
        <time>2021-03-06T12:24:54Z</time>
      </trkpt>
      <trkpt lat="42.73527" lon="1.52991">
        <ele>2045.797</ele>
        <time>2021-03-06T12:24:56Z</time>
      </trkpt>
      <trkpt lat="42.73527" lon="1.52991">
        <ele>2045.798</ele>
        <time>2021-03-06T12:24:58Z</time>
      </trkpt>
      <trkpt lat="42.73527" lon="1.52991">
        <ele>2045.798</ele>
        <time>2021-03-06T12:25:00Z</time>
      </trkpt>
      <trkpt lat="42.73527" lon="1.52991">
        <ele>2045.799</ele>
        <time>2021-03-06T12:25:02Z</time>
      </trkpt>
      <trkpt lat="42.73527" lon="1.52991">
        <ele>2045.799</ele>
        <time>2021-03-06T12:25:04Z</time>
      </trkpt>
      <trkpt lat="42.73527" lon="1.52991">
        <ele>2045.796</ele>
        <time>2021-03-06T12:25:06Z</time>
      </trkpt>
      <trkpt lat="42.73527" lon="1.5299">
        <ele>2045.694</ele>
        <time>2021-03-06T12:25:08Z</time>
      </trkpt>
      <trkpt lat="42.73527" lon="1.5299">
        <ele>2045.656</ele>
        <time>2021-03-06T12:25:10Z</time>
      </trkpt>
      <trkpt lat="42.73527" lon="1.5299">
        <ele>2045.654</ele>
        <time>2021-03-06T12:25:12Z</time>
      </trkpt>
      <trkpt lat="42.73527" lon="1.5299">
        <ele>2045.651</ele>
        <time>2021-03-06T12:25:14Z</time>
      </trkpt>
      <trkpt lat="42.73527" lon="1.5299">
        <ele>2045.65</ele>
        <time>2021-03-06T12:25:16Z</time>
      </trkpt>
      <trkpt lat="42.73527" lon="1.5299">
        <ele>2045.649</ele>
        <time>2021-03-06T12:25:18Z</time>
      </trkpt>
      <trkpt lat="42.73528" lon="1.5299">
        <ele>2045.648</ele>
        <time>2021-03-06T12:25:20Z</time>
      </trkpt>
      <trkpt lat="42.73528" lon="1.5299">
        <ele>2045.648</ele>
        <time>2021-03-06T12:25:22Z</time>
      </trkpt>
      <trkpt lat="42.73528" lon="1.5299">
        <ele>2045.648</ele>
        <time>2021-03-06T12:25:24Z</time>
      </trkpt>
      <trkpt lat="42.73528" lon="1.5299">
        <ele>2045.648</ele>
        <time>2021-03-06T12:25:26Z</time>
      </trkpt>
      <trkpt lat="42.73528" lon="1.5299">
        <ele>2045.647</ele>
        <time>2021-03-06T12:25:28Z</time>
      </trkpt>
      <trkpt lat="42.73528" lon="1.5299">
        <ele>2045.646</ele>
        <time>2021-03-06T12:25:30Z</time>
      </trkpt>
      <trkpt lat="42.73528" lon="1.5299">
        <ele>2045.647</ele>
        <time>2021-03-06T12:25:32Z</time>
      </trkpt>
      <trkpt lat="42.73528" lon="1.5299">
        <ele>2045.647</ele>
        <time>2021-03-06T12:25:34Z</time>
      </trkpt>
      <trkpt lat="42.73528" lon="1.5299">
        <ele>2045.646</ele>
        <time>2021-03-06T12:25:36Z</time>
      </trkpt>
      <trkpt lat="42.73528" lon="1.5299">
        <ele>2045.646</ele>
        <time>2021-03-06T12:25:38Z</time>
      </trkpt>
      <trkpt lat="42.73528" lon="1.5299">
        <ele>2045.646</ele>
        <time>2021-03-06T12:25:40Z</time>
      </trkpt>
      <trkpt lat="42.73528" lon="1.5299">
        <ele>2045.645</ele>
        <time>2021-03-06T12:25:42Z</time>
      </trkpt>
      <trkpt lat="42.73528" lon="1.5299">
        <ele>2045.646</ele>
        <time>2021-03-06T12:25:44Z</time>
      </trkpt>
      <trkpt lat="42.73528" lon="1.5299">
        <ele>2045.646</ele>
        <time>2021-03-06T12:25:46Z</time>
      </trkpt>
      <trkpt lat="42.73528" lon="1.5299">
        <ele>2045.647</ele>
        <time>2021-03-06T12:25:48Z</time>
      </trkpt>
      <trkpt lat="42.73528" lon="1.5299">
        <ele>2045.647</ele>
        <time>2021-03-06T12:25:50Z</time>
      </trkpt>
      <trkpt lat="42.73528" lon="1.5299">
        <ele>2045.647</ele>
        <time>2021-03-06T12:25:52Z</time>
      </trkpt>
      <trkpt lat="42.73528" lon="1.5299">
        <ele>2045.647</ele>
        <time>2021-03-06T12:25:54Z</time>
      </trkpt>
      <trkpt lat="42.73528" lon="1.5299">
        <ele>2045.647</ele>
        <time>2021-03-06T12:25:56Z</time>
      </trkpt>
      <trkpt lat="42.73528" lon="1.5299">
        <ele>2045.647</ele>
        <time>2021-03-06T12:25:58Z</time>
      </trkpt>
      <trkpt lat="42.73528" lon="1.5299">
        <ele>2045.647</ele>
        <time>2021-03-06T12:26:00Z</time>
      </trkpt>
      <trkpt lat="42.73528" lon="1.5299">
        <ele>2045.646</ele>
        <time>2021-03-06T12:26:02Z</time>
      </trkpt>
      <trkpt lat="42.73528" lon="1.5299">
        <ele>2045.646</ele>
        <time>2021-03-06T12:26:04Z</time>
      </trkpt>
      <trkpt lat="42.73528" lon="1.5299">
        <ele>2045.644</ele>
        <time>2021-03-06T12:26:06Z</time>
      </trkpt>
      <trkpt lat="42.73528" lon="1.5299">
        <ele>2045.646</ele>
        <time>2021-03-06T12:26:08Z</time>
      </trkpt>
      <trkpt lat="42.73528" lon="1.5299">
        <ele>2045.645</ele>
        <time>2021-03-06T12:26:10Z</time>
      </trkpt>
      <trkpt lat="42.73528" lon="1.5299">
        <ele>2045.643</ele>
        <time>2021-03-06T12:26:12Z</time>
      </trkpt>
      <trkpt lat="42.73528" lon="1.5299">
        <ele>2045.644</ele>
        <time>2021-03-06T12:26:14Z</time>
      </trkpt>
      <trkpt lat="42.73528" lon="1.5299">
        <ele>2045.644</ele>
        <time>2021-03-06T12:26:16Z</time>
      </trkpt>
      <trkpt lat="42.73528" lon="1.5299">
        <ele>2045.642</ele>
        <time>2021-03-06T12:26:18Z</time>
      </trkpt>
      <trkpt lat="42.73528" lon="1.5299">
        <ele>2045.641</ele>
        <time>2021-03-06T12:26:20Z</time>
      </trkpt>
      <trkpt lat="42.73528" lon="1.5299">
        <ele>2045.639</ele>
        <time>2021-03-06T12:26:22Z</time>
      </trkpt>
      <trkpt lat="42.73528" lon="1.5299">
        <ele>2045.638</ele>
        <time>2021-03-06T12:26:24Z</time>
      </trkpt>
      <trkpt lat="42.73528" lon="1.5299">
        <ele>2045.637</ele>
        <time>2021-03-06T12:26:26Z</time>
      </trkpt>
      <trkpt lat="42.73528" lon="1.5299">
        <ele>2045.635</ele>
        <time>2021-03-06T12:26:28Z</time>
      </trkpt>
      <trkpt lat="42.73528" lon="1.5299">
        <ele>2045.635</ele>
        <time>2021-03-06T12:26:30Z</time>
      </trkpt>
      <trkpt lat="42.73528" lon="1.5299">
        <ele>2045.633</ele>
        <time>2021-03-06T12:26:32Z</time>
      </trkpt>
      <trkpt lat="42.73528" lon="1.5299">
        <ele>2045.633</ele>
        <time>2021-03-06T12:26:34Z</time>
      </trkpt>
      <trkpt lat="42.73528" lon="1.5299">
        <ele>2045.634</ele>
        <time>2021-03-06T12:26:36Z</time>
      </trkpt>
      <trkpt lat="42.73528" lon="1.5299">
        <ele>2045.632</ele>
        <time>2021-03-06T12:26:38Z</time>
      </trkpt>
      <trkpt lat="42.73528" lon="1.5299">
        <ele>2045.63</ele>
        <time>2021-03-06T12:26:40Z</time>
      </trkpt>
      <trkpt lat="42.73528" lon="1.5299">
        <ele>2045.629</ele>
        <time>2021-03-06T12:26:42Z</time>
      </trkpt>
      <trkpt lat="42.73528" lon="1.5299">
        <ele>2045.628</ele>
        <time>2021-03-06T12:26:44Z</time>
      </trkpt>
      <trkpt lat="42.73528" lon="1.5299">
        <ele>2045.627</ele>
        <time>2021-03-06T12:26:46Z</time>
      </trkpt>
      <trkpt lat="42.73528" lon="1.5299">
        <ele>2045.626</ele>
        <time>2021-03-06T12:26:48Z</time>
      </trkpt>
      <trkpt lat="42.73528" lon="1.5299">
        <ele>2045.627</ele>
        <time>2021-03-06T12:26:50Z</time>
      </trkpt>
      <trkpt lat="42.73528" lon="1.5299">
        <ele>2045.625</ele>
        <time>2021-03-06T12:26:52Z</time>
      </trkpt>
      <trkpt lat="42.73528" lon="1.5299">
        <ele>2045.625</ele>
        <time>2021-03-06T12:26:54Z</time>
      </trkpt>
      <trkpt lat="42.73528" lon="1.5299">
        <ele>2045.622</ele>
        <time>2021-03-06T12:26:56Z</time>
      </trkpt>
      <trkpt lat="42.73528" lon="1.5299">
        <ele>2045.622</ele>
        <time>2021-03-06T12:26:58Z</time>
      </trkpt>
      <trkpt lat="42.73528" lon="1.5299">
        <ele>2045.621</ele>
        <time>2021-03-06T12:27:00Z</time>
      </trkpt>
      <trkpt lat="42.73528" lon="1.5299">
        <ele>2045.623</ele>
        <time>2021-03-06T12:27:02Z</time>
      </trkpt>
      <trkpt lat="42.73528" lon="1.5299">
        <ele>2045.623</ele>
        <time>2021-03-06T12:27:04Z</time>
      </trkpt>
      <trkpt lat="42.73528" lon="1.5299">
        <ele>2045.623</ele>
        <time>2021-03-06T12:27:06Z</time>
      </trkpt>
      <trkpt lat="42.73528" lon="1.5299">
        <ele>2045.622</ele>
        <time>2021-03-06T12:27:08Z</time>
      </trkpt>
      <trkpt lat="42.73528" lon="1.5299">
        <ele>2045.621</ele>
        <time>2021-03-06T12:27:10Z</time>
      </trkpt>
      <trkpt lat="42.73528" lon="1.5299">
        <ele>2045.622</ele>
        <time>2021-03-06T12:27:12Z</time>
      </trkpt>
      <trkpt lat="42.73528" lon="1.5299">
        <ele>2045.623</ele>
        <time>2021-03-06T12:27:14Z</time>
      </trkpt>
      <trkpt lat="42.73528" lon="1.5299">
        <ele>2045.622</ele>
        <time>2021-03-06T12:27:16Z</time>
      </trkpt>
      <trkpt lat="42.73528" lon="1.5299">
        <ele>2045.622</ele>
        <time>2021-03-06T12:27:18Z</time>
      </trkpt>
      <trkpt lat="42.73528" lon="1.5299">
        <ele>2045.622</ele>
        <time>2021-03-06T12:27:20Z</time>
      </trkpt>
      <trkpt lat="42.73528" lon="1.5299">
        <ele>2045.626</ele>
        <time>2021-03-06T12:27:22Z</time>
      </trkpt>
      <trkpt lat="42.73528" lon="1.5299">
        <ele>2045.627</ele>
        <time>2021-03-06T12:27:24Z</time>
      </trkpt>
      <trkpt lat="42.73528" lon="1.5299">
        <ele>2045.627</ele>
        <time>2021-03-06T12:27:26Z</time>
      </trkpt>
      <trkpt lat="42.73528" lon="1.5299">
        <ele>2045.627</ele>
        <time>2021-03-06T12:27:28Z</time>
      </trkpt>
      <trkpt lat="42.73528" lon="1.5299">
        <ele>2045.627</ele>
        <time>2021-03-06T12:27:30Z</time>
      </trkpt>
      <trkpt lat="42.73528" lon="1.5299">
        <ele>2045.627</ele>
        <time>2021-03-06T12:27:32Z</time>
      </trkpt>
      <trkpt lat="42.73528" lon="1.52991">
        <ele>2045.724</ele>
        <time>2021-03-06T12:27:34Z</time>
      </trkpt>
      <trkpt lat="42.73528" lon="1.52991">
        <ele>2045.787</ele>
        <time>2021-03-06T12:27:36Z</time>
      </trkpt>
      <trkpt lat="42.73528" lon="1.52991">
        <ele>2045.788</ele>
        <time>2021-03-06T12:27:38Z</time>
      </trkpt>
      <trkpt lat="42.73528" lon="1.52991">
        <ele>2045.788</ele>
        <time>2021-03-06T12:27:40Z</time>
      </trkpt>
      <trkpt lat="42.73528" lon="1.52991">
        <ele>2045.787</ele>
        <time>2021-03-06T12:27:42Z</time>
      </trkpt>
      <trkpt lat="42.73528" lon="1.52991">
        <ele>2045.787</ele>
        <time>2021-03-06T12:27:44Z</time>
      </trkpt>
      <trkpt lat="42.73528" lon="1.52991">
        <ele>2045.786</ele>
        <time>2021-03-06T12:27:46Z</time>
      </trkpt>
      <trkpt lat="42.73528" lon="1.52991">
        <ele>2045.785</ele>
        <time>2021-03-06T12:27:48Z</time>
      </trkpt>
      <trkpt lat="42.73528" lon="1.52991">
        <ele>2045.785</ele>
        <time>2021-03-06T12:27:50Z</time>
      </trkpt>
      <trkpt lat="42.73528" lon="1.52991">
        <ele>2045.783</ele>
        <time>2021-03-06T12:27:52Z</time>
      </trkpt>
      <trkpt lat="42.73528" lon="1.52991">
        <ele>2045.783</ele>
        <time>2021-03-06T12:27:54Z</time>
      </trkpt>
      <trkpt lat="42.73528" lon="1.52991">
        <ele>2045.782</ele>
        <time>2021-03-06T12:27:56Z</time>
      </trkpt>
      <trkpt lat="42.73528" lon="1.52991">
        <ele>2045.78</ele>
        <time>2021-03-06T12:27:58Z</time>
      </trkpt>
      <trkpt lat="42.73528" lon="1.52991">
        <ele>2045.779</ele>
        <time>2021-03-06T12:28:00Z</time>
      </trkpt>
      <trkpt lat="42.73528" lon="1.52991">
        <ele>2045.778</ele>
        <time>2021-03-06T12:28:02Z</time>
      </trkpt>
      <trkpt lat="42.73528" lon="1.52991">
        <ele>2045.778</ele>
        <time>2021-03-06T12:28:04Z</time>
      </trkpt>
      <trkpt lat="42.73528" lon="1.52991">
        <ele>2045.778</ele>
        <time>2021-03-06T12:28:06Z</time>
      </trkpt>
      <trkpt lat="42.73528" lon="1.52991">
        <ele>2045.779</ele>
        <time>2021-03-06T12:28:08Z</time>
      </trkpt>
      <trkpt lat="42.73528" lon="1.52991">
        <ele>2045.78</ele>
        <time>2021-03-06T12:28:10Z</time>
      </trkpt>
      <trkpt lat="42.73528" lon="1.52991">
        <ele>2045.78</ele>
        <time>2021-03-06T12:28:12Z</time>
      </trkpt>
      <trkpt lat="42.73528" lon="1.52991">
        <ele>2045.779</ele>
        <time>2021-03-06T12:28:14Z</time>
      </trkpt>
      <trkpt lat="42.73528" lon="1.52991">
        <ele>2045.779</ele>
        <time>2021-03-06T12:28:16Z</time>
      </trkpt>
      <trkpt lat="42.73528" lon="1.52991">
        <ele>2045.779</ele>
        <time>2021-03-06T12:28:18Z</time>
      </trkpt>
      <trkpt lat="42.73528" lon="1.52991">
        <ele>2045.777</ele>
        <time>2021-03-06T12:28:20Z</time>
      </trkpt>
      <trkpt lat="42.73528" lon="1.52991">
        <ele>2045.776</ele>
        <time>2021-03-06T12:28:22Z</time>
      </trkpt>
      <trkpt lat="42.73528" lon="1.52991">
        <ele>2045.776</ele>
        <time>2021-03-06T12:28:24Z</time>
      </trkpt>
      <trkpt lat="42.73528" lon="1.52991">
        <ele>2045.776</ele>
        <time>2021-03-06T12:28:26Z</time>
      </trkpt>
      <trkpt lat="42.73528" lon="1.52991">
        <ele>2045.776</ele>
        <time>2021-03-06T12:28:28Z</time>
      </trkpt>
      <trkpt lat="42.73528" lon="1.52991">
        <ele>2045.776</ele>
        <time>2021-03-06T12:28:30Z</time>
      </trkpt>
      <trkpt lat="42.73528" lon="1.52991">
        <ele>2045.777</ele>
        <time>2021-03-06T12:28:32Z</time>
      </trkpt>
      <trkpt lat="42.73528" lon="1.52991">
        <ele>2045.778</ele>
        <time>2021-03-06T12:28:34Z</time>
      </trkpt>
      <trkpt lat="42.73528" lon="1.52991">
        <ele>2045.78</ele>
        <time>2021-03-06T12:28:36Z</time>
      </trkpt>
      <trkpt lat="42.73528" lon="1.52991">
        <ele>2045.78</ele>
        <time>2021-03-06T12:28:38Z</time>
      </trkpt>
      <trkpt lat="42.73528" lon="1.52991">
        <ele>2045.78</ele>
        <time>2021-03-06T12:28:40Z</time>
      </trkpt>
      <trkpt lat="42.73528" lon="1.52991">
        <ele>2045.78</ele>
        <time>2021-03-06T12:28:42Z</time>
      </trkpt>
      <trkpt lat="42.73528" lon="1.52991">
        <ele>2045.778</ele>
        <time>2021-03-06T12:28:44Z</time>
      </trkpt>
      <trkpt lat="42.73528" lon="1.52991">
        <ele>2045.779</ele>
        <time>2021-03-06T12:28:46Z</time>
      </trkpt>
      <trkpt lat="42.73528" lon="1.52991">
        <ele>2045.779</ele>
        <time>2021-03-06T12:28:48Z</time>
      </trkpt>
      <trkpt lat="42.73528" lon="1.52991">
        <ele>2045.778</ele>
        <time>2021-03-06T12:28:50Z</time>
      </trkpt>
      <trkpt lat="42.73528" lon="1.5299">
        <ele>2045.934</ele>
        <time>2021-03-06T12:28:52Z</time>
      </trkpt>
      <trkpt lat="42.73528" lon="1.5299">
        <ele>2045.945</ele>
        <time>2021-03-06T12:28:54Z</time>
      </trkpt>
      <trkpt lat="42.73528" lon="1.5299">
        <ele>2046.268</ele>
        <time>2021-03-06T12:28:56Z</time>
      </trkpt>
      <trkpt lat="42.73528" lon="1.5299">
        <ele>2046.286</ele>
        <time>2021-03-06T12:28:58Z</time>
      </trkpt>
      <trkpt lat="42.73528" lon="1.5299">
        <ele>2046.289</ele>
        <time>2021-03-06T12:29:00Z</time>
      </trkpt>
      <trkpt lat="42.73528" lon="1.5299">
        <ele>2046.8</ele>
        <time>2021-03-06T12:29:02Z</time>
      </trkpt>
      <trkpt lat="42.73528" lon="1.52989">
        <ele>2046.983</ele>
        <time>2021-03-06T12:29:04Z</time>
      </trkpt>
      <trkpt lat="42.73528" lon="1.52989">
        <ele>2047.221</ele>
        <time>2021-03-06T12:29:06Z</time>
      </trkpt>
      <trkpt lat="42.73528" lon="1.52989">
        <ele>2047.224</ele>
        <time>2021-03-06T12:29:08Z</time>
      </trkpt>
      <trkpt lat="42.73528" lon="1.52989">
        <ele>2047.231</ele>
        <time>2021-03-06T12:29:10Z</time>
      </trkpt>
      <trkpt lat="42.73528" lon="1.52989">
        <ele>2047.236</ele>
        <time>2021-03-06T12:29:12Z</time>
      </trkpt>
      <trkpt lat="42.73529" lon="1.5299">
        <ele>2047.162</ele>
        <time>2021-03-06T12:29:14Z</time>
      </trkpt>
      <trkpt lat="42.73529" lon="1.5299">
        <ele>2047.306</ele>
        <time>2021-03-06T12:29:16Z</time>
      </trkpt>
      <trkpt lat="42.73529" lon="1.5299">
        <ele>2047.304</ele>
        <time>2021-03-06T12:29:18Z</time>
      </trkpt>
      <trkpt lat="42.73529" lon="1.5299">
        <ele>2047.308</ele>
        <time>2021-03-06T12:29:20Z</time>
      </trkpt>
      <trkpt lat="42.73529" lon="1.5299">
        <ele>2047.309</ele>
        <time>2021-03-06T12:29:22Z</time>
      </trkpt>
      <trkpt lat="42.73529" lon="1.5299">
        <ele>2047.311</ele>
        <time>2021-03-06T12:29:24Z</time>
      </trkpt>
      <trkpt lat="42.73529" lon="1.5299">
        <ele>2047.312</ele>
        <time>2021-03-06T12:29:26Z</time>
      </trkpt>
      <trkpt lat="42.73529" lon="1.5299">
        <ele>2047.313</ele>
        <time>2021-03-06T12:29:28Z</time>
      </trkpt>
      <trkpt lat="42.73529" lon="1.5299">
        <ele>2047.191</ele>
        <time>2021-03-06T12:29:30Z</time>
      </trkpt>
      <trkpt lat="42.73529" lon="1.5299">
        <ele>2047.193</ele>
        <time>2021-03-06T12:29:32Z</time>
      </trkpt>
      <trkpt lat="42.73529" lon="1.5299">
        <ele>2047.195</ele>
        <time>2021-03-06T12:29:34Z</time>
      </trkpt>
      <trkpt lat="42.73529" lon="1.5299">
        <ele>2047.414</ele>
        <time>2021-03-06T12:29:36Z</time>
      </trkpt>
      <trkpt lat="42.73529" lon="1.5299">
        <ele>2047.321</ele>
        <time>2021-03-06T12:29:38Z</time>
      </trkpt>
      <trkpt lat="42.73529" lon="1.5299">
        <ele>2047.33</ele>
        <time>2021-03-06T12:29:40Z</time>
      </trkpt>
      <trkpt lat="42.73529" lon="1.5299">
        <ele>2047.337</ele>
        <time>2021-03-06T12:29:42Z</time>
      </trkpt>
      <trkpt lat="42.73529" lon="1.5299">
        <ele>2047.34</ele>
        <time>2021-03-06T12:29:44Z</time>
      </trkpt>
      <trkpt lat="42.73529" lon="1.5299">
        <ele>2046.952</ele>
        <time>2021-03-06T12:29:46Z</time>
      </trkpt>
      <trkpt lat="42.73529" lon="1.5299">
        <ele>2047.034</ele>
        <time>2021-03-06T12:29:48Z</time>
      </trkpt>
      <trkpt lat="42.73529" lon="1.52989">
        <ele>2047.112</ele>
        <time>2021-03-06T12:29:50Z</time>
      </trkpt>
      <trkpt lat="42.73529" lon="1.5299">
        <ele>2047.025</ele>
        <time>2021-03-06T12:29:52Z</time>
      </trkpt>
      <trkpt lat="42.7353" lon="1.5299">
        <ele>2046.903</ele>
        <time>2021-03-06T12:29:54Z</time>
      </trkpt>
      <trkpt lat="42.7353" lon="1.5299">
        <ele>2047.119</ele>
        <time>2021-03-06T12:29:56Z</time>
      </trkpt>
      <trkpt lat="42.7353" lon="1.52989">
        <ele>2047.118</ele>
        <time>2021-03-06T12:29:58Z</time>
      </trkpt>
      <trkpt lat="42.7353" lon="1.5299">
        <ele>2047.023</ele>
        <time>2021-03-06T12:30:00Z</time>
      </trkpt>
      <trkpt lat="42.7353" lon="1.5299">
        <ele>2047.021</ele>
        <time>2021-03-06T12:30:02Z</time>
      </trkpt>
      <trkpt lat="42.7353" lon="1.5299">
        <ele>2047.014</ele>
        <time>2021-03-06T12:30:04Z</time>
      </trkpt>
      <trkpt lat="42.7353" lon="1.5299">
        <ele>2047.015</ele>
        <time>2021-03-06T12:30:06Z</time>
      </trkpt>
      <trkpt lat="42.7353" lon="1.5299">
        <ele>2047.017</ele>
        <time>2021-03-06T12:30:08Z</time>
      </trkpt>
      <trkpt lat="42.7353" lon="1.5299">
        <ele>2047.017</ele>
        <time>2021-03-06T12:30:10Z</time>
      </trkpt>
      <trkpt lat="42.7353" lon="1.5299">
        <ele>2047.015</ele>
        <time>2021-03-06T12:30:12Z</time>
      </trkpt>
      <trkpt lat="42.7353" lon="1.5299">
        <ele>2047.015</ele>
        <time>2021-03-06T12:30:14Z</time>
      </trkpt>
      <trkpt lat="42.7353" lon="1.5299">
        <ele>2047.009</ele>
        <time>2021-03-06T12:30:16Z</time>
      </trkpt>
      <trkpt lat="42.7353" lon="1.5299">
        <ele>2047.006</ele>
        <time>2021-03-06T12:30:18Z</time>
      </trkpt>
      <trkpt lat="42.7353" lon="1.5299">
        <ele>2047.005</ele>
        <time>2021-03-06T12:30:20Z</time>
      </trkpt>
      <trkpt lat="42.7353" lon="1.5299">
        <ele>2047.001</ele>
        <time>2021-03-06T12:30:22Z</time>
      </trkpt>
      <trkpt lat="42.73529" lon="1.52989">
        <ele>2046.941</ele>
        <time>2021-03-06T12:30:24Z</time>
      </trkpt>
      <trkpt lat="42.73529" lon="1.52989">
        <ele>2046.939</ele>
        <time>2021-03-06T12:30:26Z</time>
      </trkpt>
      <trkpt lat="42.73529" lon="1.5299">
        <ele>2047.288</ele>
        <time>2021-03-06T12:30:28Z</time>
      </trkpt>
      <trkpt lat="42.73529" lon="1.5299">
        <ele>2047.525</ele>
        <time>2021-03-06T12:30:30Z</time>
      </trkpt>
      <trkpt lat="42.73529" lon="1.5299">
        <ele>2047.796</ele>
        <time>2021-03-06T12:30:32Z</time>
      </trkpt>
      <trkpt lat="42.73529" lon="1.5299">
        <ele>2047.902</ele>
        <time>2021-03-06T12:30:34Z</time>
      </trkpt>
      <trkpt lat="42.73529" lon="1.5299">
        <ele>2047.747</ele>
        <time>2021-03-06T12:30:36Z</time>
      </trkpt>
      <trkpt lat="42.7353" lon="1.5299">
        <ele>2047.747</ele>
        <time>2021-03-06T12:30:38Z</time>
      </trkpt>
      <trkpt lat="42.7353" lon="1.5299">
        <ele>2047.755</ele>
        <time>2021-03-06T12:30:40Z</time>
      </trkpt>
      <trkpt lat="42.7353" lon="1.5299">
        <ele>2047.729</ele>
        <time>2021-03-06T12:30:42Z</time>
      </trkpt>
      <trkpt lat="42.7353" lon="1.5299">
        <ele>2047.735</ele>
        <time>2021-03-06T12:30:44Z</time>
      </trkpt>
      <trkpt lat="42.7353" lon="1.5299">
        <ele>2047.735</ele>
        <time>2021-03-06T12:30:46Z</time>
      </trkpt>
      <trkpt lat="42.7353" lon="1.5299">
        <ele>2047.737</ele>
        <time>2021-03-06T12:30:48Z</time>
      </trkpt>
      <trkpt lat="42.7353" lon="1.5299">
        <ele>2047.738</ele>
        <time>2021-03-06T12:30:50Z</time>
      </trkpt>
      <trkpt lat="42.7353" lon="1.5299">
        <ele>2047.738</ele>
        <time>2021-03-06T12:30:52Z</time>
      </trkpt>
      <trkpt lat="42.7353" lon="1.5299">
        <ele>2047.738</ele>
        <time>2021-03-06T12:30:54Z</time>
      </trkpt>
      <trkpt lat="42.7353" lon="1.5299">
        <ele>2047.742</ele>
        <time>2021-03-06T12:30:56Z</time>
      </trkpt>
      <trkpt lat="42.7353" lon="1.5299">
        <ele>2047.652</ele>
        <time>2021-03-06T12:30:58Z</time>
      </trkpt>
      <trkpt lat="42.7353" lon="1.5299">
        <ele>2047.93</ele>
        <time>2021-03-06T12:31:00Z</time>
      </trkpt>
      <trkpt lat="42.7353" lon="1.5299">
        <ele>2047.933</ele>
        <time>2021-03-06T12:31:02Z</time>
      </trkpt>
      <trkpt lat="42.7353" lon="1.5299">
        <ele>2047.938</ele>
        <time>2021-03-06T12:31:04Z</time>
      </trkpt>
      <trkpt lat="42.73529" lon="1.5299">
        <ele>2047.925</ele>
        <time>2021-03-06T12:31:06Z</time>
      </trkpt>
      <trkpt lat="42.73529" lon="1.52991">
        <ele>2048.023</ele>
        <time>2021-03-06T12:31:08Z</time>
      </trkpt>
      <trkpt lat="42.73529" lon="1.52991">
        <ele>2048.027</ele>
        <time>2021-03-06T12:31:10Z</time>
      </trkpt>
      <trkpt lat="42.73529" lon="1.5299">
        <ele>2047.716</ele>
        <time>2021-03-06T12:31:12Z</time>
      </trkpt>
      <trkpt lat="42.73529" lon="1.5299">
        <ele>2047.626</ele>
        <time>2021-03-06T12:31:14Z</time>
      </trkpt>
      <trkpt lat="42.73529" lon="1.5299">
        <ele>2047.627</ele>
        <time>2021-03-06T12:31:16Z</time>
      </trkpt>
      <trkpt lat="42.73529" lon="1.5299">
        <ele>2047.595</ele>
        <time>2021-03-06T12:31:18Z</time>
      </trkpt>
      <trkpt lat="42.73529" lon="1.5299">
        <ele>2048.348</ele>
        <time>2021-03-06T12:31:20Z</time>
      </trkpt>
      <trkpt lat="42.73528" lon="1.5299">
        <ele>2048.506</ele>
        <time>2021-03-06T12:31:22Z</time>
      </trkpt>
      <trkpt lat="42.73528" lon="1.5299">
        <ele>2048.508</ele>
        <time>2021-03-06T12:31:24Z</time>
      </trkpt>
      <trkpt lat="42.73528" lon="1.5299">
        <ele>2048.511</ele>
        <time>2021-03-06T12:31:26Z</time>
      </trkpt>
      <trkpt lat="42.73528" lon="1.5299">
        <ele>2048.511</ele>
        <time>2021-03-06T12:31:28Z</time>
      </trkpt>
      <trkpt lat="42.73528" lon="1.5299">
        <ele>2048.512</ele>
        <time>2021-03-06T12:31:30Z</time>
      </trkpt>
      <trkpt lat="42.73528" lon="1.5299">
        <ele>2048.511</ele>
        <time>2021-03-06T12:31:32Z</time>
      </trkpt>
      <trkpt lat="42.73528" lon="1.5299">
        <ele>2048.51</ele>
        <time>2021-03-06T12:31:34Z</time>
      </trkpt>
      <trkpt lat="42.73528" lon="1.52989">
        <ele>2048.449</ele>
        <time>2021-03-06T12:31:36Z</time>
      </trkpt>
      <trkpt lat="42.73529" lon="1.52988">
        <ele>2048.086</ele>
        <time>2021-03-06T12:31:38Z</time>
      </trkpt>
      <trkpt lat="42.73529" lon="1.52986">
        <ele>2047.62</ele>
        <time>2021-03-06T12:31:40Z</time>
      </trkpt>
      <trkpt lat="42.7353" lon="1.52984">
        <ele>2047.399</ele>
        <time>2021-03-06T12:31:42Z</time>
      </trkpt>
      <trkpt lat="42.7353" lon="1.52983">
        <ele>2047.041</ele>
        <time>2021-03-06T12:31:44Z</time>
      </trkpt>
      <trkpt lat="42.73531" lon="1.52982">
        <ele>2047.352</ele>
        <time>2021-03-06T12:31:46Z</time>
      </trkpt>
      <trkpt lat="42.73532" lon="1.52981">
        <ele>2046.488</ele>
        <time>2021-03-06T12:31:48Z</time>
      </trkpt>
      <trkpt lat="42.73532" lon="1.52979">
        <ele>2045.566</ele>
        <time>2021-03-06T12:31:50Z</time>
      </trkpt>
      <trkpt lat="42.73533" lon="1.52977">
        <ele>2044.526</ele>
        <time>2021-03-06T12:31:52Z</time>
      </trkpt>
      <trkpt lat="42.73533" lon="1.52974">
        <ele>2043.967</ele>
        <time>2021-03-06T12:31:54Z</time>
      </trkpt>
      <trkpt lat="42.73533" lon="1.52972">
        <ele>2043.663</ele>
        <time>2021-03-06T12:31:56Z</time>
      </trkpt>
      <trkpt lat="42.73534" lon="1.52971">
        <ele>2042.738</ele>
        <time>2021-03-06T12:31:58Z</time>
      </trkpt>
      <trkpt lat="42.73536" lon="1.52971">
        <ele>2042.798</ele>
        <time>2021-03-06T12:32:00Z</time>
      </trkpt>
      <trkpt lat="42.73537" lon="1.5297">
        <ele>2042.461</ele>
        <time>2021-03-06T12:32:02Z</time>
      </trkpt>
      <trkpt lat="42.73539" lon="1.52968">
        <ele>2041.802</ele>
        <time>2021-03-06T12:32:04Z</time>
      </trkpt>
      <trkpt lat="42.7354" lon="1.52967">
        <ele>2041.648</ele>
        <time>2021-03-06T12:32:06Z</time>
      </trkpt>
      <trkpt lat="42.73541" lon="1.52966">
        <ele>2041.065</ele>
        <time>2021-03-06T12:32:08Z</time>
      </trkpt>
      <trkpt lat="42.73543" lon="1.52965">
        <ele>2040.308</ele>
        <time>2021-03-06T12:32:10Z</time>
      </trkpt>
      <trkpt lat="42.73544" lon="1.52964">
        <ele>2039.122</ele>
        <time>2021-03-06T12:32:12Z</time>
      </trkpt>
      <trkpt lat="42.73547" lon="1.52964">
        <ele>2038.281</ele>
        <time>2021-03-06T12:32:14Z</time>
      </trkpt>
      <trkpt lat="42.73549" lon="1.52963">
        <ele>2037.588</ele>
        <time>2021-03-06T12:32:16Z</time>
      </trkpt>
      <trkpt lat="42.73551" lon="1.52961">
        <ele>2036.788</ele>
        <time>2021-03-06T12:32:18Z</time>
      </trkpt>
      <trkpt lat="42.73552" lon="1.52959">
        <ele>2035.952</ele>
        <time>2021-03-06T12:32:20Z</time>
      </trkpt>
      <trkpt lat="42.73554" lon="1.52958">
        <ele>2035.511</ele>
        <time>2021-03-06T12:32:22Z</time>
      </trkpt>
      <trkpt lat="42.73556" lon="1.52956">
        <ele>2035.146</ele>
        <time>2021-03-06T12:32:24Z</time>
      </trkpt>
      <trkpt lat="42.73557" lon="1.52955">
        <ele>2034.758</ele>
        <time>2021-03-06T12:32:26Z</time>
      </trkpt>
      <trkpt lat="42.73559" lon="1.52953">
        <ele>2034.069</ele>
        <time>2021-03-06T12:32:28Z</time>
      </trkpt>
      <trkpt lat="42.73561" lon="1.52952">
        <ele>2033.829</ele>
        <time>2021-03-06T12:32:30Z</time>
      </trkpt>
      <trkpt lat="42.73562" lon="1.5295">
        <ele>2033.759</ele>
        <time>2021-03-06T12:32:32Z</time>
      </trkpt>
      <trkpt lat="42.73564" lon="1.52948">
        <ele>2033.413</ele>
        <time>2021-03-06T12:32:34Z</time>
      </trkpt>
      <trkpt lat="42.73565" lon="1.52947">
        <ele>2033.458</ele>
        <time>2021-03-06T12:32:36Z</time>
      </trkpt>
      <trkpt lat="42.73567" lon="1.52945">
        <ele>2033.094</ele>
        <time>2021-03-06T12:32:38Z</time>
      </trkpt>
      <trkpt lat="42.73569" lon="1.52943">
        <ele>2032.887</ele>
        <time>2021-03-06T12:32:40Z</time>
      </trkpt>
      <trkpt lat="42.7357" lon="1.52941">
        <ele>2032.142</ele>
        <time>2021-03-06T12:32:42Z</time>
      </trkpt>
      <trkpt lat="42.73572" lon="1.5294">
        <ele>2032.092</ele>
        <time>2021-03-06T12:32:44Z</time>
      </trkpt>
      <trkpt lat="42.73574" lon="1.5294">
        <ele>2031.355</ele>
        <time>2021-03-06T12:32:46Z</time>
      </trkpt>
      <trkpt lat="42.73576" lon="1.52939">
        <ele>2031.347</ele>
        <time>2021-03-06T12:32:48Z</time>
      </trkpt>
      <trkpt lat="42.73578" lon="1.52939">
        <ele>2032.126</ele>
        <time>2021-03-06T12:32:50Z</time>
      </trkpt>
      <trkpt lat="42.73579" lon="1.52938">
        <ele>2030.583</ele>
        <time>2021-03-06T12:32:52Z</time>
      </trkpt>
      <trkpt lat="42.73581" lon="1.52937">
        <ele>2029.942</ele>
        <time>2021-03-06T12:32:54Z</time>
      </trkpt>
      <trkpt lat="42.73583" lon="1.52936">
        <ele>2029.737</ele>
        <time>2021-03-06T12:32:56Z</time>
      </trkpt>
      <trkpt lat="42.73585" lon="1.52936">
        <ele>2029.977</ele>
        <time>2021-03-06T12:32:58Z</time>
      </trkpt>
      <trkpt lat="42.73587" lon="1.52936">
        <ele>2029.664</ele>
        <time>2021-03-06T12:33:00Z</time>
      </trkpt>
      <trkpt lat="42.73589" lon="1.52936">
        <ele>2029.387</ele>
        <time>2021-03-06T12:33:02Z</time>
      </trkpt>
      <trkpt lat="42.73591" lon="1.52936">
        <ele>2028.874</ele>
        <time>2021-03-06T12:33:04Z</time>
      </trkpt>
      <trkpt lat="42.73593" lon="1.52936">
        <ele>2028.164</ele>
        <time>2021-03-06T12:33:06Z</time>
      </trkpt>
      <trkpt lat="42.73595" lon="1.52937">
        <ele>2027.796</ele>
        <time>2021-03-06T12:33:08Z</time>
      </trkpt>
      <trkpt lat="42.73597" lon="1.52938">
        <ele>2026.983</ele>
        <time>2021-03-06T12:33:10Z</time>
      </trkpt>
      <trkpt lat="42.73599" lon="1.52939">
        <ele>2026.652</ele>
        <time>2021-03-06T12:33:12Z</time>
      </trkpt>
      <trkpt lat="42.73601" lon="1.52939">
        <ele>2026.176</ele>
        <time>2021-03-06T12:33:14Z</time>
      </trkpt>
      <trkpt lat="42.73603" lon="1.52941">
        <ele>2026.195</ele>
        <time>2021-03-06T12:33:16Z</time>
      </trkpt>
      <trkpt lat="42.73605" lon="1.52942">
        <ele>2025.6</ele>
        <time>2021-03-06T12:33:18Z</time>
      </trkpt>
      <trkpt lat="42.73608" lon="1.52943">
        <ele>2024.753</ele>
        <time>2021-03-06T12:33:21Z</time>
      </trkpt>
      <trkpt lat="42.7361" lon="1.52944">
        <ele>2023.855</ele>
        <time>2021-03-06T12:33:23Z</time>
      </trkpt>
      <trkpt lat="42.73612" lon="1.52946">
        <ele>2023.03</ele>
        <time>2021-03-06T12:33:25Z</time>
      </trkpt>
      <trkpt lat="42.73614" lon="1.52947">
        <ele>2022.75</ele>
        <time>2021-03-06T12:33:27Z</time>
      </trkpt>
      <trkpt lat="42.73616" lon="1.52947">
        <ele>2022.138</ele>
        <time>2021-03-06T12:33:29Z</time>
      </trkpt>
      <trkpt lat="42.73618" lon="1.52948">
        <ele>2022.245</ele>
        <time>2021-03-06T12:33:31Z</time>
      </trkpt>
      <trkpt lat="42.7362" lon="1.5295">
        <ele>2021.559</ele>
        <time>2021-03-06T12:33:33Z</time>
      </trkpt>
      <trkpt lat="42.73622" lon="1.52951">
        <ele>2021.096</ele>
        <time>2021-03-06T12:33:35Z</time>
      </trkpt>
      <trkpt lat="42.73624" lon="1.52953">
        <ele>2021.004</ele>
        <time>2021-03-06T12:33:37Z</time>
      </trkpt>
      <trkpt lat="42.73627" lon="1.52954">
        <ele>2020.827</ele>
        <time>2021-03-06T12:33:39Z</time>
      </trkpt>
      <trkpt lat="42.73629" lon="1.52955">
        <ele>2019.927</ele>
        <time>2021-03-06T12:33:41Z</time>
      </trkpt>
      <trkpt lat="42.73631" lon="1.52956">
        <ele>2019.597</ele>
        <time>2021-03-06T12:33:43Z</time>
      </trkpt>
      <trkpt lat="42.73633" lon="1.52957">
        <ele>2019.059</ele>
        <time>2021-03-06T12:33:45Z</time>
      </trkpt>
      <trkpt lat="42.73635" lon="1.52958">
        <ele>2018.56</ele>
        <time>2021-03-06T12:33:47Z</time>
      </trkpt>
      <trkpt lat="42.73637" lon="1.52959">
        <ele>2017.725</ele>
        <time>2021-03-06T12:33:49Z</time>
      </trkpt>
      <trkpt lat="42.73639" lon="1.5296">
        <ele>2016.678</ele>
        <time>2021-03-06T12:33:51Z</time>
      </trkpt>
      <trkpt lat="42.73641" lon="1.52961">
        <ele>2016.579</ele>
        <time>2021-03-06T12:33:53Z</time>
      </trkpt>
      <trkpt lat="42.73643" lon="1.52962">
        <ele>2016.108</ele>
        <time>2021-03-06T12:33:55Z</time>
      </trkpt>
      <trkpt lat="42.73645" lon="1.52963">
        <ele>2015.238</ele>
        <time>2021-03-06T12:33:57Z</time>
      </trkpt>
      <trkpt lat="42.73647" lon="1.52964">
        <ele>2014.501</ele>
        <time>2021-03-06T12:33:59Z</time>
      </trkpt>
      <trkpt lat="42.73649" lon="1.52965">
        <ele>2013.305</ele>
        <time>2021-03-06T12:34:01Z</time>
      </trkpt>
      <trkpt lat="42.73651" lon="1.52966">
        <ele>2012.622</ele>
        <time>2021-03-06T12:34:03Z</time>
      </trkpt>
      <trkpt lat="42.73654" lon="1.52968">
        <ele>2012.417</ele>
        <time>2021-03-06T12:34:05Z</time>
      </trkpt>
      <trkpt lat="42.73656" lon="1.52968">
        <ele>2012.158</ele>
        <time>2021-03-06T12:34:07Z</time>
      </trkpt>
      <trkpt lat="42.73659" lon="1.52969">
        <ele>2011.422</ele>
        <time>2021-03-06T12:34:09Z</time>
      </trkpt>
      <trkpt lat="42.7366" lon="1.5297">
        <ele>2010.768</ele>
        <time>2021-03-06T12:34:11Z</time>
      </trkpt>
      <trkpt lat="42.73663" lon="1.52971">
        <ele>2010.137</ele>
        <time>2021-03-06T12:34:13Z</time>
      </trkpt>
      <trkpt lat="42.73665" lon="1.52973">
        <ele>2009.326</ele>
        <time>2021-03-06T12:34:15Z</time>
      </trkpt>
      <trkpt lat="42.73667" lon="1.52974">
        <ele>2008.757</ele>
        <time>2021-03-06T12:34:17Z</time>
      </trkpt>
      <trkpt lat="42.73669" lon="1.52976">
        <ele>2007.777</ele>
        <time>2021-03-06T12:34:19Z</time>
      </trkpt>
      <trkpt lat="42.73671" lon="1.52977">
        <ele>2006.873</ele>
        <time>2021-03-06T12:34:21Z</time>
      </trkpt>
      <trkpt lat="42.73673" lon="1.52978">
        <ele>2006.38</ele>
        <time>2021-03-06T12:34:23Z</time>
      </trkpt>
      <trkpt lat="42.73675" lon="1.52979">
        <ele>2005.716</ele>
        <time>2021-03-06T12:34:25Z</time>
      </trkpt>
      <trkpt lat="42.73677" lon="1.5298">
        <ele>2005.496</ele>
        <time>2021-03-06T12:34:27Z</time>
      </trkpt>
      <trkpt lat="42.73679" lon="1.52982">
        <ele>2004.707</ele>
        <time>2021-03-06T12:34:29Z</time>
      </trkpt>
      <trkpt lat="42.73681" lon="1.52983">
        <ele>2004.385</ele>
        <time>2021-03-06T12:34:31Z</time>
      </trkpt>
      <trkpt lat="42.73684" lon="1.52984">
        <ele>2003.558</ele>
        <time>2021-03-06T12:34:33Z</time>
      </trkpt>
      <trkpt lat="42.73686" lon="1.52985">
        <ele>2003.516</ele>
        <time>2021-03-06T12:34:35Z</time>
      </trkpt>
      <trkpt lat="42.73688" lon="1.52986">
        <ele>2003.034</ele>
        <time>2021-03-06T12:34:37Z</time>
      </trkpt>
      <trkpt lat="42.7369" lon="1.52987">
        <ele>2002.359</ele>
        <time>2021-03-06T12:34:39Z</time>
      </trkpt>
      <trkpt lat="42.73692" lon="1.52989">
        <ele>2002.316</ele>
        <time>2021-03-06T12:34:41Z</time>
      </trkpt>
      <trkpt lat="42.73694" lon="1.5299">
        <ele>2001.461</ele>
        <time>2021-03-06T12:34:43Z</time>
      </trkpt>
      <trkpt lat="42.73695" lon="1.52992">
        <ele>2001</ele>
        <time>2021-03-06T12:34:45Z</time>
      </trkpt>
      <trkpt lat="42.73697" lon="1.52994">
        <ele>2000.035</ele>
        <time>2021-03-06T12:34:47Z</time>
      </trkpt>
      <trkpt lat="42.737" lon="1.52995">
        <ele>1999.877</ele>
        <time>2021-03-06T12:34:49Z</time>
      </trkpt>
      <trkpt lat="42.73702" lon="1.52996">
        <ele>1999.132</ele>
        <time>2021-03-06T12:34:51Z</time>
      </trkpt>
      <trkpt lat="42.73704" lon="1.52998">
        <ele>1998.615</ele>
        <time>2021-03-06T12:34:53Z</time>
      </trkpt>
      <trkpt lat="42.73706" lon="1.52999">
        <ele>1998.397</ele>
        <time>2021-03-06T12:34:55Z</time>
      </trkpt>
      <trkpt lat="42.73708" lon="1.53001">
        <ele>1998.075</ele>
        <time>2021-03-06T12:34:57Z</time>
      </trkpt>
      <trkpt lat="42.7371" lon="1.53003">
        <ele>1997.736</ele>
        <time>2021-03-06T12:34:59Z</time>
      </trkpt>
      <trkpt lat="42.73712" lon="1.53005">
        <ele>1997.407</ele>
        <time>2021-03-06T12:35:01Z</time>
      </trkpt>
      <trkpt lat="42.73714" lon="1.53006">
        <ele>1996.92</ele>
        <time>2021-03-06T12:35:03Z</time>
      </trkpt>
      <trkpt lat="42.73716" lon="1.53007">
        <ele>1996.645</ele>
        <time>2021-03-06T12:35:05Z</time>
      </trkpt>
      <trkpt lat="42.73717" lon="1.53007">
        <ele>1996.177</ele>
        <time>2021-03-06T12:35:07Z</time>
      </trkpt>
      <trkpt lat="42.73719" lon="1.53008">
        <ele>1995.295</ele>
        <time>2021-03-06T12:35:09Z</time>
      </trkpt>
      <trkpt lat="42.7372" lon="1.53009">
        <ele>1994.763</ele>
        <time>2021-03-06T12:35:11Z</time>
      </trkpt>
      <trkpt lat="42.73721" lon="1.5301">
        <ele>1994.202</ele>
        <time>2021-03-06T12:35:13Z</time>
      </trkpt>
      <trkpt lat="42.73723" lon="1.53011">
        <ele>1994.393</ele>
        <time>2021-03-06T12:35:15Z</time>
      </trkpt>
      <trkpt lat="42.73725" lon="1.53013">
        <ele>1994.087</ele>
        <time>2021-03-06T12:35:17Z</time>
      </trkpt>
      <trkpt lat="42.73726" lon="1.53015">
        <ele>1994.149</ele>
        <time>2021-03-06T12:35:19Z</time>
      </trkpt>
      <trkpt lat="42.73728" lon="1.53016">
        <ele>1993.078</ele>
        <time>2021-03-06T12:35:21Z</time>
      </trkpt>
      <trkpt lat="42.7373" lon="1.53017">
        <ele>1992.734</ele>
        <time>2021-03-06T12:35:23Z</time>
      </trkpt>
      <trkpt lat="42.73732" lon="1.53018">
        <ele>1991.856</ele>
        <time>2021-03-06T12:35:25Z</time>
      </trkpt>
      <trkpt lat="42.73734" lon="1.53018">
        <ele>1991.121</ele>
        <time>2021-03-06T12:35:27Z</time>
      </trkpt>
      <trkpt lat="42.73736" lon="1.53018">
        <ele>1990.19</ele>
        <time>2021-03-06T12:35:29Z</time>
      </trkpt>
      <trkpt lat="42.73738" lon="1.53018">
        <ele>1990.168</ele>
        <time>2021-03-06T12:35:31Z</time>
      </trkpt>
      <trkpt lat="42.73739" lon="1.53018">
        <ele>1988.885</ele>
        <time>2021-03-06T12:35:33Z</time>
      </trkpt>
      <trkpt lat="42.73741" lon="1.53018">
        <ele>1987.753</ele>
        <time>2021-03-06T12:35:35Z</time>
      </trkpt>
      <trkpt lat="42.73743" lon="1.53019">
        <ele>1987.152</ele>
        <time>2021-03-06T12:35:37Z</time>
      </trkpt>
      <trkpt lat="42.73744" lon="1.5302">
        <ele>1986.124</ele>
        <time>2021-03-06T12:35:39Z</time>
      </trkpt>
      <trkpt lat="42.73746" lon="1.53021">
        <ele>1985.862</ele>
        <time>2021-03-06T12:35:41Z</time>
      </trkpt>
      <trkpt lat="42.73747" lon="1.53023">
        <ele>1985.478</ele>
        <time>2021-03-06T12:35:43Z</time>
      </trkpt>
      <trkpt lat="42.73749" lon="1.53025">
        <ele>1985.106</ele>
        <time>2021-03-06T12:35:45Z</time>
      </trkpt>
      <trkpt lat="42.7375" lon="1.53025">
        <ele>1984.068</ele>
        <time>2021-03-06T12:35:47Z</time>
      </trkpt>
      <trkpt lat="42.73752" lon="1.53026">
        <ele>1983.201</ele>
        <time>2021-03-06T12:35:49Z</time>
      </trkpt>
      <trkpt lat="42.73754" lon="1.53027">
        <ele>1982.717</ele>
        <time>2021-03-06T12:35:51Z</time>
      </trkpt>
      <trkpt lat="42.73755" lon="1.53029">
        <ele>1981.486</ele>
        <time>2021-03-06T12:35:53Z</time>
      </trkpt>
      <trkpt lat="42.73757" lon="1.53031">
        <ele>1981.048</ele>
        <time>2021-03-06T12:35:55Z</time>
      </trkpt>
      <trkpt lat="42.73758" lon="1.53033">
        <ele>1981.109</ele>
        <time>2021-03-06T12:35:57Z</time>
      </trkpt>
      <trkpt lat="42.73759" lon="1.53035">
        <ele>1980.323</ele>
        <time>2021-03-06T12:35:59Z</time>
      </trkpt>
      <trkpt lat="42.73761" lon="1.53036">
        <ele>1978.941</ele>
        <time>2021-03-06T12:36:01Z</time>
      </trkpt>
      <trkpt lat="42.73762" lon="1.53037">
        <ele>1978.467</ele>
        <time>2021-03-06T12:36:03Z</time>
      </trkpt>
      <trkpt lat="42.73764" lon="1.53039">
        <ele>1978.121</ele>
        <time>2021-03-06T12:36:05Z</time>
      </trkpt>
      <trkpt lat="42.73765" lon="1.5304">
        <ele>1977.307</ele>
        <time>2021-03-06T12:36:07Z</time>
      </trkpt>
      <trkpt lat="42.73767" lon="1.53042">
        <ele>1976.465</ele>
        <time>2021-03-06T12:36:09Z</time>
      </trkpt>
      <trkpt lat="42.73769" lon="1.53044">
        <ele>1975.875</ele>
        <time>2021-03-06T12:36:11Z</time>
      </trkpt>
      <trkpt lat="42.7377" lon="1.53046">
        <ele>1974.664</ele>
        <time>2021-03-06T12:36:13Z</time>
      </trkpt>
      <trkpt lat="42.73772" lon="1.53047">
        <ele>1974.104</ele>
        <time>2021-03-06T12:36:15Z</time>
      </trkpt>
      <trkpt lat="42.73773" lon="1.53049">
        <ele>1973.429</ele>
        <time>2021-03-06T12:36:17Z</time>
      </trkpt>
      <trkpt lat="42.73774" lon="1.53051">
        <ele>1972.791</ele>
        <time>2021-03-06T12:36:19Z</time>
      </trkpt>
      <trkpt lat="42.73776" lon="1.53053">
        <ele>1972.205</ele>
        <time>2021-03-06T12:36:21Z</time>
      </trkpt>
      <trkpt lat="42.73777" lon="1.53055">
        <ele>1971.687</ele>
        <time>2021-03-06T12:36:23Z</time>
      </trkpt>
      <trkpt lat="42.73778" lon="1.53057">
        <ele>1971.049</ele>
        <time>2021-03-06T12:36:25Z</time>
      </trkpt>
      <trkpt lat="42.7378" lon="1.5306">
        <ele>1970.266</ele>
        <time>2021-03-06T12:36:27Z</time>
      </trkpt>
      <trkpt lat="42.73781" lon="1.53061">
        <ele>1969.432</ele>
        <time>2021-03-06T12:36:29Z</time>
      </trkpt>
      <trkpt lat="42.73783" lon="1.53063">
        <ele>1968.4</ele>
        <time>2021-03-06T12:36:31Z</time>
      </trkpt>
      <trkpt lat="42.73784" lon="1.53064">
        <ele>1967.029</ele>
        <time>2021-03-06T12:36:33Z</time>
      </trkpt>
      <trkpt lat="42.73786" lon="1.53066">
        <ele>1966.36</ele>
        <time>2021-03-06T12:36:35Z</time>
      </trkpt>
      <trkpt lat="42.73788" lon="1.53068">
        <ele>1965.938</ele>
        <time>2021-03-06T12:36:37Z</time>
      </trkpt>
      <trkpt lat="42.73789" lon="1.5307">
        <ele>1965.34</ele>
        <time>2021-03-06T12:36:39Z</time>
      </trkpt>
      <trkpt lat="42.73791" lon="1.53072">
        <ele>1964.696</ele>
        <time>2021-03-06T12:36:41Z</time>
      </trkpt>
      <trkpt lat="42.73793" lon="1.53075">
        <ele>1964.043</ele>
        <time>2021-03-06T12:36:43Z</time>
      </trkpt>
      <trkpt lat="42.73794" lon="1.53077">
        <ele>1963.413</ele>
        <time>2021-03-06T12:36:45Z</time>
      </trkpt>
      <trkpt lat="42.73796" lon="1.53078">
        <ele>1962.576</ele>
        <time>2021-03-06T12:36:47Z</time>
      </trkpt>
      <trkpt lat="42.73798" lon="1.5308">
        <ele>1961.533</ele>
        <time>2021-03-06T12:36:49Z</time>
      </trkpt>
      <trkpt lat="42.73799" lon="1.53083">
        <ele>1961.123</ele>
        <time>2021-03-06T12:36:51Z</time>
      </trkpt>
      <trkpt lat="42.73801" lon="1.53085">
        <ele>1960.559</ele>
        <time>2021-03-06T12:36:53Z</time>
      </trkpt>
      <trkpt lat="42.73802" lon="1.53087">
        <ele>1959.973</ele>
        <time>2021-03-06T12:36:55Z</time>
      </trkpt>
      <trkpt lat="42.73804" lon="1.53089">
        <ele>1959.761</ele>
        <time>2021-03-06T12:36:57Z</time>
      </trkpt>
      <trkpt lat="42.73806" lon="1.53091">
        <ele>1959.57</ele>
        <time>2021-03-06T12:36:59Z</time>
      </trkpt>
      <trkpt lat="42.73807" lon="1.53093">
        <ele>1958.961</ele>
        <time>2021-03-06T12:37:01Z</time>
      </trkpt>
      <trkpt lat="42.73809" lon="1.53095">
        <ele>1958.088</ele>
        <time>2021-03-06T12:37:03Z</time>
      </trkpt>
      <trkpt lat="42.7381" lon="1.53097">
        <ele>1957.499</ele>
        <time>2021-03-06T12:37:05Z</time>
      </trkpt>
      <trkpt lat="42.7381" lon="1.53099">
        <ele>1956.521</ele>
        <time>2021-03-06T12:37:07Z</time>
      </trkpt>
      <trkpt lat="42.73811" lon="1.53102">
        <ele>1955.548</ele>
        <time>2021-03-06T12:37:09Z</time>
      </trkpt>
      <trkpt lat="42.73812" lon="1.53105">
        <ele>1955.148</ele>
        <time>2021-03-06T12:37:11Z</time>
      </trkpt>
      <trkpt lat="42.73814" lon="1.53107">
        <ele>1954.316</ele>
        <time>2021-03-06T12:37:13Z</time>
      </trkpt>
      <trkpt lat="42.73816" lon="1.53109">
        <ele>1953.826</ele>
        <time>2021-03-06T12:37:15Z</time>
      </trkpt>
      <trkpt lat="42.73818" lon="1.53112">
        <ele>1953.079</ele>
        <time>2021-03-06T12:37:17Z</time>
      </trkpt>
      <trkpt lat="42.73821" lon="1.53114">
        <ele>1952.494</ele>
        <time>2021-03-06T12:37:19Z</time>
      </trkpt>
      <trkpt lat="42.73824" lon="1.53119">
        <ele>1953.276</ele>
        <time>2021-03-06T12:37:21Z</time>
      </trkpt>
      <trkpt lat="42.73826" lon="1.53122">
        <ele>1952.305</ele>
        <time>2021-03-06T12:37:23Z</time>
      </trkpt>
      <trkpt lat="42.73827" lon="1.53124">
        <ele>1951.65</ele>
        <time>2021-03-06T12:37:25Z</time>
      </trkpt>
      <trkpt lat="42.73828" lon="1.53127">
        <ele>1951.587</ele>
        <time>2021-03-06T12:37:27Z</time>
      </trkpt>
      <trkpt lat="42.73829" lon="1.5313">
        <ele>1950.781</ele>
        <time>2021-03-06T12:37:29Z</time>
      </trkpt>
      <trkpt lat="42.7383" lon="1.53133">
        <ele>1950.393</ele>
        <time>2021-03-06T12:37:31Z</time>
      </trkpt>
      <trkpt lat="42.7383" lon="1.53137">
        <ele>1950.145</ele>
        <time>2021-03-06T12:37:33Z</time>
      </trkpt>
      <trkpt lat="42.7383" lon="1.53139">
        <ele>1950.158</ele>
        <time>2021-03-06T12:37:35Z</time>
      </trkpt>
      <trkpt lat="42.7383" lon="1.53142">
        <ele>1949.908</ele>
        <time>2021-03-06T12:37:37Z</time>
      </trkpt>
      <trkpt lat="42.7383" lon="1.53145">
        <ele>1949.266</ele>
        <time>2021-03-06T12:37:39Z</time>
      </trkpt>
      <trkpt lat="42.73831" lon="1.53147">
        <ele>1948.117</ele>
        <time>2021-03-06T12:37:41Z</time>
      </trkpt>
      <trkpt lat="42.73832" lon="1.5315">
        <ele>1947.439</ele>
        <time>2021-03-06T12:37:43Z</time>
      </trkpt>
      <trkpt lat="42.73833" lon="1.53153">
        <ele>1946.736</ele>
        <time>2021-03-06T12:37:45Z</time>
      </trkpt>
      <trkpt lat="42.73833" lon="1.53155">
        <ele>1946.206</ele>
        <time>2021-03-06T12:37:47Z</time>
      </trkpt>
      <trkpt lat="42.73834" lon="1.53158">
        <ele>1945.546</ele>
        <time>2021-03-06T12:37:49Z</time>
      </trkpt>
      <trkpt lat="42.73834" lon="1.53161">
        <ele>1944.986</ele>
        <time>2021-03-06T12:37:51Z</time>
      </trkpt>
      <trkpt lat="42.73834" lon="1.53164">
        <ele>1943.776</ele>
        <time>2021-03-06T12:37:53Z</time>
      </trkpt>
      <trkpt lat="42.73835" lon="1.53166">
        <ele>1943.132</ele>
        <time>2021-03-06T12:37:55Z</time>
      </trkpt>
      <trkpt lat="42.73835" lon="1.5317">
        <ele>1942.313</ele>
        <time>2021-03-06T12:37:57Z</time>
      </trkpt>
      <trkpt lat="42.73835" lon="1.53173">
        <ele>1941.536</ele>
        <time>2021-03-06T12:37:59Z</time>
      </trkpt>
      <trkpt lat="42.73836" lon="1.53176">
        <ele>1940.593</ele>
        <time>2021-03-06T12:38:01Z</time>
      </trkpt>
      <trkpt lat="42.73837" lon="1.53178">
        <ele>1939.82</ele>
        <time>2021-03-06T12:38:03Z</time>
      </trkpt>
      <trkpt lat="42.73838" lon="1.53181">
        <ele>1939.248</ele>
        <time>2021-03-06T12:38:05Z</time>
      </trkpt>
      <trkpt lat="42.73839" lon="1.53184">
        <ele>1938.071</ele>
        <time>2021-03-06T12:38:07Z</time>
      </trkpt>
      <trkpt lat="42.7384" lon="1.53186">
        <ele>1936.987</ele>
        <time>2021-03-06T12:38:09Z</time>
      </trkpt>
      <trkpt lat="42.7384" lon="1.53188">
        <ele>1936.376</ele>
        <time>2021-03-06T12:38:11Z</time>
      </trkpt>
      <trkpt lat="42.73842" lon="1.53191">
        <ele>1935.824</ele>
        <time>2021-03-06T12:38:13Z</time>
      </trkpt>
      <trkpt lat="42.73843" lon="1.53194">
        <ele>1935.059</ele>
        <time>2021-03-06T12:38:15Z</time>
      </trkpt>
      <trkpt lat="42.73845" lon="1.53196">
        <ele>1934.016</ele>
        <time>2021-03-06T12:38:17Z</time>
      </trkpt>
      <trkpt lat="42.73846" lon="1.53199">
        <ele>1933.26</ele>
        <time>2021-03-06T12:38:19Z</time>
      </trkpt>
      <trkpt lat="42.73848" lon="1.53201">
        <ele>1932.558</ele>
        <time>2021-03-06T12:38:21Z</time>
      </trkpt>
      <trkpt lat="42.7385" lon="1.53203">
        <ele>1931.999</ele>
        <time>2021-03-06T12:38:23Z</time>
      </trkpt>
      <trkpt lat="42.73851" lon="1.53205">
        <ele>1931.058</ele>
        <time>2021-03-06T12:38:25Z</time>
      </trkpt>
      <trkpt lat="42.73853" lon="1.53206">
        <ele>1929.729</ele>
        <time>2021-03-06T12:38:27Z</time>
      </trkpt>
      <trkpt lat="42.73855" lon="1.53208">
        <ele>1928.718</ele>
        <time>2021-03-06T12:38:29Z</time>
      </trkpt>
      <trkpt lat="42.73856" lon="1.53211">
        <ele>1927.622</ele>
        <time>2021-03-06T12:38:31Z</time>
      </trkpt>
      <trkpt lat="42.73858" lon="1.53214">
        <ele>1926.028</ele>
        <time>2021-03-06T12:38:33Z</time>
      </trkpt>
      <trkpt lat="42.73859" lon="1.53216">
        <ele>1924.646</ele>
        <time>2021-03-06T12:38:35Z</time>
      </trkpt>
      <trkpt lat="42.73861" lon="1.53219">
        <ele>1924.139</ele>
        <time>2021-03-06T12:38:37Z</time>
      </trkpt>
      <trkpt lat="42.73862" lon="1.53222">
        <ele>1923.702</ele>
        <time>2021-03-06T12:38:39Z</time>
      </trkpt>
      <trkpt lat="42.73863" lon="1.53225">
        <ele>1923.426</ele>
        <time>2021-03-06T12:38:41Z</time>
      </trkpt>
      <trkpt lat="42.73863" lon="1.53228">
        <ele>1923.273</ele>
        <time>2021-03-06T12:38:43Z</time>
      </trkpt>
      <trkpt lat="42.73864" lon="1.53231">
        <ele>1922.927</ele>
        <time>2021-03-06T12:38:45Z</time>
      </trkpt>
      <trkpt lat="42.73865" lon="1.53233">
        <ele>1922.628</ele>
        <time>2021-03-06T12:38:47Z</time>
      </trkpt>
      <trkpt lat="42.73866" lon="1.53236">
        <ele>1921.607</ele>
        <time>2021-03-06T12:38:49Z</time>
      </trkpt>
      <trkpt lat="42.73866" lon="1.53239">
        <ele>1921.927</ele>
        <time>2021-03-06T12:38:51Z</time>
      </trkpt>
      <trkpt lat="42.73867" lon="1.53242">
        <ele>1921.964</ele>
        <time>2021-03-06T12:38:53Z</time>
      </trkpt>
      <trkpt lat="42.73867" lon="1.53245">
        <ele>1922.154</ele>
        <time>2021-03-06T12:38:55Z</time>
      </trkpt>
      <trkpt lat="42.73868" lon="1.53248">
        <ele>1921.855</ele>
        <time>2021-03-06T12:38:57Z</time>
      </trkpt>
      <trkpt lat="42.73868" lon="1.53251">
        <ele>1921.501</ele>
        <time>2021-03-06T12:38:59Z</time>
      </trkpt>
      <trkpt lat="42.73868" lon="1.53254">
        <ele>1922.021</ele>
        <time>2021-03-06T12:39:01Z</time>
      </trkpt>
      <trkpt lat="42.73868" lon="1.53257">
        <ele>1922.38</ele>
        <time>2021-03-06T12:39:03Z</time>
      </trkpt>
      <trkpt lat="42.73869" lon="1.53259">
        <ele>1922.822</ele>
        <time>2021-03-06T12:39:05Z</time>
      </trkpt>
      <trkpt lat="42.7387" lon="1.53261">
        <ele>1923.411</ele>
        <time>2021-03-06T12:39:07Z</time>
      </trkpt>
      <trkpt lat="42.73871" lon="1.53263">
        <ele>1923.827</ele>
        <time>2021-03-06T12:39:09Z</time>
      </trkpt>
      <trkpt lat="42.73871" lon="1.53263">
        <ele>1923.828</ele>
        <time>2021-03-06T12:39:11Z</time>
      </trkpt>
      <trkpt lat="42.73871" lon="1.53263">
        <ele>1923.828</ele>
        <time>2021-03-06T12:39:13Z</time>
      </trkpt>
      <trkpt lat="42.73871" lon="1.53263">
        <ele>1923.825</ele>
        <time>2021-03-06T12:39:15Z</time>
      </trkpt>
      <trkpt lat="42.73871" lon="1.53263">
        <ele>1923.825</ele>
        <time>2021-03-06T12:39:17Z</time>
      </trkpt>
      <trkpt lat="42.73871" lon="1.53263">
        <ele>1923.82</ele>
        <time>2021-03-06T12:39:19Z</time>
      </trkpt>
      <trkpt lat="42.73871" lon="1.53263">
        <ele>1923.819</ele>
        <time>2021-03-06T12:39:21Z</time>
      </trkpt>
      <trkpt lat="42.73871" lon="1.53263">
        <ele>1923.834</ele>
        <time>2021-03-06T12:39:23Z</time>
      </trkpt>
      <trkpt lat="42.73871" lon="1.53263">
        <ele>1923.789</ele>
        <time>2021-03-06T12:39:25Z</time>
      </trkpt>
      <trkpt lat="42.73871" lon="1.53263">
        <ele>1923.77</ele>
        <time>2021-03-06T12:39:27Z</time>
      </trkpt>
      <trkpt lat="42.73871" lon="1.53263">
        <ele>1923.759</ele>
        <time>2021-03-06T12:39:29Z</time>
      </trkpt>
      <trkpt lat="42.73871" lon="1.53263">
        <ele>1923.753</ele>
        <time>2021-03-06T12:39:31Z</time>
      </trkpt>
      <trkpt lat="42.73871" lon="1.53263">
        <ele>1923.752</ele>
        <time>2021-03-06T12:39:33Z</time>
      </trkpt>
      <trkpt lat="42.73871" lon="1.53263">
        <ele>1923.753</ele>
        <time>2021-03-06T12:39:35Z</time>
      </trkpt>
      <trkpt lat="42.73871" lon="1.53263">
        <ele>1923.755</ele>
        <time>2021-03-06T12:39:37Z</time>
      </trkpt>
      <trkpt lat="42.73871" lon="1.53263">
        <ele>1923.747</ele>
        <time>2021-03-06T12:39:39Z</time>
      </trkpt>
      <trkpt lat="42.73871" lon="1.53263">
        <ele>1923.745</ele>
        <time>2021-03-06T12:39:41Z</time>
      </trkpt>
      <trkpt lat="42.73871" lon="1.53263">
        <ele>1923.742</ele>
        <time>2021-03-06T12:39:43Z</time>
      </trkpt>
      <trkpt lat="42.73871" lon="1.53263">
        <ele>1923.746</ele>
        <time>2021-03-06T12:39:45Z</time>
      </trkpt>
      <trkpt lat="42.73871" lon="1.53263">
        <ele>1923.557</ele>
        <time>2021-03-06T12:39:47Z</time>
      </trkpt>
      <trkpt lat="42.73871" lon="1.53263">
        <ele>1923.546</ele>
        <time>2021-03-06T12:39:49Z</time>
      </trkpt>
      <trkpt lat="42.73871" lon="1.53263">
        <ele>1923.549</ele>
        <time>2021-03-06T12:39:51Z</time>
      </trkpt>
      <trkpt lat="42.73871" lon="1.53263">
        <ele>1923.549</ele>
        <time>2021-03-06T12:39:53Z</time>
      </trkpt>
      <trkpt lat="42.73871" lon="1.53263">
        <ele>1923.547</ele>
        <time>2021-03-06T12:39:55Z</time>
      </trkpt>
      <trkpt lat="42.73871" lon="1.53263">
        <ele>1923.543</ele>
        <time>2021-03-06T12:39:57Z</time>
      </trkpt>
      <trkpt lat="42.73871" lon="1.53263">
        <ele>1923.693</ele>
        <time>2021-03-06T12:39:59Z</time>
      </trkpt>
      <trkpt lat="42.73871" lon="1.53263">
        <ele>1923.705</ele>
        <time>2021-03-06T12:40:01Z</time>
      </trkpt>
      <trkpt lat="42.73871" lon="1.53263">
        <ele>1923.71</ele>
        <time>2021-03-06T12:40:03Z</time>
      </trkpt>
      <trkpt lat="42.73871" lon="1.53263">
        <ele>1923.711</ele>
        <time>2021-03-06T12:40:05Z</time>
      </trkpt>
      <trkpt lat="42.73871" lon="1.53264">
        <ele>1923.741</ele>
        <time>2021-03-06T12:40:07Z</time>
      </trkpt>
      <trkpt lat="42.73872" lon="1.53267">
        <ele>1923.942</ele>
        <time>2021-03-06T12:40:09Z</time>
      </trkpt>
      <trkpt lat="42.73873" lon="1.53268">
        <ele>1924.136</ele>
        <time>2021-03-06T12:40:11Z</time>
      </trkpt>
      <trkpt lat="42.73874" lon="1.5327">
        <ele>1924.703</ele>
        <time>2021-03-06T12:40:13Z</time>
      </trkpt>
      <trkpt lat="42.73875" lon="1.53272">
        <ele>1925.29</ele>
        <time>2021-03-06T12:40:15Z</time>
      </trkpt>
      <trkpt lat="42.73875" lon="1.53273">
        <ele>1924.969</ele>
        <time>2021-03-06T12:40:17Z</time>
      </trkpt>
      <trkpt lat="42.73876" lon="1.53276">
        <ele>1924.76</ele>
        <time>2021-03-06T12:40:19Z</time>
      </trkpt>
      <trkpt lat="42.73876" lon="1.53277">
        <ele>1924.867</ele>
        <time>2021-03-06T12:40:21Z</time>
      </trkpt>
      <trkpt lat="42.73877" lon="1.53279">
        <ele>1923.743</ele>
        <time>2021-03-06T12:40:23Z</time>
      </trkpt>
      <trkpt lat="42.73878" lon="1.53282">
        <ele>1923.557</ele>
        <time>2021-03-06T12:40:25Z</time>
      </trkpt>
      <trkpt lat="42.73879" lon="1.53283">
        <ele>1923.663</ele>
        <time>2021-03-06T12:40:27Z</time>
      </trkpt>
      <trkpt lat="42.73879" lon="1.53285">
        <ele>1923.471</ele>
        <time>2021-03-06T12:40:29Z</time>
      </trkpt>
      <trkpt lat="42.7388" lon="1.53286">
        <ele>1923.235</ele>
        <time>2021-03-06T12:40:31Z</time>
      </trkpt>
      <trkpt lat="42.7388" lon="1.53286">
        <ele>1923.284</ele>
        <time>2021-03-06T12:40:33Z</time>
      </trkpt>
      <trkpt lat="42.7388" lon="1.53286">
        <ele>1923.155</ele>
        <time>2021-03-06T12:40:35Z</time>
      </trkpt>
      <trkpt lat="42.7388" lon="1.53289">
        <ele>1923.09</ele>
        <time>2021-03-06T12:40:37Z</time>
      </trkpt>
      <trkpt lat="42.7388" lon="1.53289">
        <ele>1923.181</ele>
        <time>2021-03-06T12:40:39Z</time>
      </trkpt>
      <trkpt lat="42.7388" lon="1.53289">
        <ele>1923.178</ele>
        <time>2021-03-06T12:40:41Z</time>
      </trkpt>
      <trkpt lat="42.7388" lon="1.53289">
        <ele>1923.181</ele>
        <time>2021-03-06T12:40:43Z</time>
      </trkpt>
      <trkpt lat="42.7388" lon="1.53289">
        <ele>1923.18</ele>
        <time>2021-03-06T12:40:45Z</time>
      </trkpt>
      <trkpt lat="42.7388" lon="1.53289">
        <ele>1923.178</ele>
        <time>2021-03-06T12:40:47Z</time>
      </trkpt>
      <trkpt lat="42.7388" lon="1.53289">
        <ele>1923.176</ele>
        <time>2021-03-06T12:40:49Z</time>
      </trkpt>
      <trkpt lat="42.7388" lon="1.53289">
        <ele>1923.174</ele>
        <time>2021-03-06T12:40:51Z</time>
      </trkpt>
      <trkpt lat="42.7388" lon="1.53289">
        <ele>1923.177</ele>
        <time>2021-03-06T12:40:53Z</time>
      </trkpt>
      <trkpt lat="42.73881" lon="1.5329">
        <ele>1922.951</ele>
        <time>2021-03-06T12:40:55Z</time>
      </trkpt>
      <trkpt lat="42.73883" lon="1.53292">
        <ele>1922.722</ele>
        <time>2021-03-06T12:40:57Z</time>
      </trkpt>
      <trkpt lat="42.73885" lon="1.53293">
        <ele>1922.317</ele>
        <time>2021-03-06T12:40:59Z</time>
      </trkpt>
      <trkpt lat="42.73887" lon="1.53293">
        <ele>1922.161</ele>
        <time>2021-03-06T12:41:01Z</time>
      </trkpt>
      <trkpt lat="42.73889" lon="1.53294">
        <ele>1921.707</ele>
        <time>2021-03-06T12:41:03Z</time>
      </trkpt>
      <trkpt lat="42.73891" lon="1.53295">
        <ele>1921.023</ele>
        <time>2021-03-06T12:41:05Z</time>
      </trkpt>
      <trkpt lat="42.73892" lon="1.53297">
        <ele>1920.375</ele>
        <time>2021-03-06T12:41:07Z</time>
      </trkpt>
      <trkpt lat="42.73894" lon="1.53299">
        <ele>1919.802</ele>
        <time>2021-03-06T12:41:09Z</time>
      </trkpt>
      <trkpt lat="42.73895" lon="1.533">
        <ele>1919.305</ele>
        <time>2021-03-06T12:41:11Z</time>
      </trkpt>
      <trkpt lat="42.73896" lon="1.53302">
        <ele>1918.863</ele>
        <time>2021-03-06T12:41:13Z</time>
      </trkpt>
      <trkpt lat="42.73898" lon="1.53303">
        <ele>1918.542</ele>
        <time>2021-03-06T12:41:15Z</time>
      </trkpt>
      <trkpt lat="42.73899" lon="1.53305">
        <ele>1918.138</ele>
        <time>2021-03-06T12:41:17Z</time>
      </trkpt>
      <trkpt lat="42.739" lon="1.53307">
        <ele>1917.921</ele>
        <time>2021-03-06T12:41:19Z</time>
      </trkpt>
      <trkpt lat="42.73901" lon="1.53309">
        <ele>1917.27</ele>
        <time>2021-03-06T12:41:21Z</time>
      </trkpt>
      <trkpt lat="42.73903" lon="1.5331">
        <ele>1916.962</ele>
        <time>2021-03-06T12:41:23Z</time>
      </trkpt>
      <trkpt lat="42.73904" lon="1.53312">
        <ele>1916.271</ele>
        <time>2021-03-06T12:41:25Z</time>
      </trkpt>
      <trkpt lat="42.73905" lon="1.53314">
        <ele>1915.501</ele>
        <time>2021-03-06T12:41:27Z</time>
      </trkpt>
      <trkpt lat="42.73906" lon="1.53316">
        <ele>1914.801</ele>
        <time>2021-03-06T12:41:29Z</time>
      </trkpt>
      <trkpt lat="42.73907" lon="1.53317">
        <ele>1914.613</ele>
        <time>2021-03-06T12:41:31Z</time>
      </trkpt>
      <trkpt lat="42.73908" lon="1.53317">
        <ele>1915.329</ele>
        <time>2021-03-06T12:41:33Z</time>
      </trkpt>
      <trkpt lat="42.73908" lon="1.53317">
        <ele>1915.33</ele>
        <time>2021-03-06T12:41:35Z</time>
      </trkpt>
      <trkpt lat="42.73908" lon="1.53317">
        <ele>1915.332</ele>
        <time>2021-03-06T12:41:37Z</time>
      </trkpt>
      <trkpt lat="42.73908" lon="1.53318">
        <ele>1914.972</ele>
        <time>2021-03-06T12:41:39Z</time>
      </trkpt>
      <trkpt lat="42.73909" lon="1.53319">
        <ele>1914.315</ele>
        <time>2021-03-06T12:41:41Z</time>
      </trkpt>
      <trkpt lat="42.73911" lon="1.53321">
        <ele>1913.58</ele>
        <time>2021-03-06T12:41:43Z</time>
      </trkpt>
      <trkpt lat="42.73912" lon="1.53322">
        <ele>1912.869</ele>
        <time>2021-03-06T12:41:45Z</time>
      </trkpt>
      <trkpt lat="42.73914" lon="1.53324">
        <ele>1912.373</ele>
        <time>2021-03-06T12:41:47Z</time>
      </trkpt>
      <trkpt lat="42.73916" lon="1.53325">
        <ele>1911.898</ele>
        <time>2021-03-06T12:41:49Z</time>
      </trkpt>
      <trkpt lat="42.73916" lon="1.53328">
        <ele>1911.203</ele>
        <time>2021-03-06T12:41:51Z</time>
      </trkpt>
      <trkpt lat="42.73917" lon="1.53331">
        <ele>1910.768</ele>
        <time>2021-03-06T12:41:53Z</time>
      </trkpt>
      <trkpt lat="42.73918" lon="1.53334">
        <ele>1910.476</ele>
        <time>2021-03-06T12:41:55Z</time>
      </trkpt>
      <trkpt lat="42.73919" lon="1.53336">
        <ele>1910.211</ele>
        <time>2021-03-06T12:41:57Z</time>
      </trkpt>
      <trkpt lat="42.73919" lon="1.53338">
        <ele>1909.619</ele>
        <time>2021-03-06T12:41:59Z</time>
      </trkpt>
      <trkpt lat="42.7392" lon="1.5334">
        <ele>1908.864</ele>
        <time>2021-03-06T12:42:01Z</time>
      </trkpt>
      <trkpt lat="42.7392" lon="1.53342">
        <ele>1908.416</ele>
        <time>2021-03-06T12:42:03Z</time>
      </trkpt>
      <trkpt lat="42.7392" lon="1.53344">
        <ele>1908.922</ele>
        <time>2021-03-06T12:42:05Z</time>
      </trkpt>
      <trkpt lat="42.7392" lon="1.53346">
        <ele>1908.506</ele>
        <time>2021-03-06T12:42:07Z</time>
      </trkpt>
      <trkpt lat="42.73921" lon="1.53347">
        <ele>1908.024</ele>
        <time>2021-03-06T12:42:09Z</time>
      </trkpt>
      <trkpt lat="42.73921" lon="1.53349">
        <ele>1907.631</ele>
        <time>2021-03-06T12:42:11Z</time>
      </trkpt>
      <trkpt lat="42.73922" lon="1.5335">
        <ele>1907.487</ele>
        <time>2021-03-06T12:42:13Z</time>
      </trkpt>
      <trkpt lat="42.73923" lon="1.53349">
        <ele>1907.519</ele>
        <time>2021-03-06T12:42:15Z</time>
      </trkpt>
      <trkpt lat="42.73925" lon="1.53349">
        <ele>1907.117</ele>
        <time>2021-03-06T12:42:17Z</time>
      </trkpt>
      <trkpt lat="42.73926" lon="1.53348">
        <ele>1906.87</ele>
        <time>2021-03-06T12:42:19Z</time>
      </trkpt>
      <trkpt lat="42.73927" lon="1.53347">
        <ele>1906.85</ele>
        <time>2021-03-06T12:42:21Z</time>
      </trkpt>
      <trkpt lat="42.73928" lon="1.53347">
        <ele>1906.222</ele>
        <time>2021-03-06T12:42:23Z</time>
      </trkpt>
      <trkpt lat="42.73928" lon="1.53348">
        <ele>1905.592</ele>
        <time>2021-03-06T12:42:25Z</time>
      </trkpt>
      <trkpt lat="42.73929" lon="1.53348">
        <ele>1905.253</ele>
        <time>2021-03-06T12:42:27Z</time>
      </trkpt>
      <trkpt lat="42.73929" lon="1.53349">
        <ele>1905.384</ele>
        <time>2021-03-06T12:42:29Z</time>
      </trkpt>
      <trkpt lat="42.73929" lon="1.53349">
        <ele>1905.185</ele>
        <time>2021-03-06T12:42:31Z</time>
      </trkpt>
      <trkpt lat="42.7393" lon="1.53349">
        <ele>1905.654</ele>
        <time>2021-03-06T12:42:33Z</time>
      </trkpt>
      <trkpt lat="42.73931" lon="1.53348">
        <ele>1905.215</ele>
        <time>2021-03-06T12:42:35Z</time>
      </trkpt>
      <trkpt lat="42.73932" lon="1.53348">
        <ele>1904.263</ele>
        <time>2021-03-06T12:42:37Z</time>
      </trkpt>
      <trkpt lat="42.73933" lon="1.5335">
        <ele>1903.334</ele>
        <time>2021-03-06T12:42:39Z</time>
      </trkpt>
      <trkpt lat="42.73934" lon="1.53352">
        <ele>1903.32</ele>
        <time>2021-03-06T12:42:41Z</time>
      </trkpt>
      <trkpt lat="42.73935" lon="1.53354">
        <ele>1903.13</ele>
        <time>2021-03-06T12:42:43Z</time>
      </trkpt>
      <trkpt lat="42.73936" lon="1.53356">
        <ele>1903.536</ele>
        <time>2021-03-06T12:42:45Z</time>
      </trkpt>
      <trkpt lat="42.73936" lon="1.53358">
        <ele>1903.17</ele>
        <time>2021-03-06T12:42:47Z</time>
      </trkpt>
      <trkpt lat="42.73937" lon="1.5336">
        <ele>1902.705</ele>
        <time>2021-03-06T12:42:49Z</time>
      </trkpt>
      <trkpt lat="42.73938" lon="1.53362">
        <ele>1902.15</ele>
        <time>2021-03-06T12:42:51Z</time>
      </trkpt>
      <trkpt lat="42.73937" lon="1.53364">
        <ele>1901.574</ele>
        <time>2021-03-06T12:42:53Z</time>
      </trkpt>
      <trkpt lat="42.73938" lon="1.53366">
        <ele>1901.836</ele>
        <time>2021-03-06T12:42:55Z</time>
      </trkpt>
      <trkpt lat="42.73938" lon="1.53368">
        <ele>1901.142</ele>
        <time>2021-03-06T12:42:57Z</time>
      </trkpt>
      <trkpt lat="42.73939" lon="1.5337">
        <ele>1900.913</ele>
        <time>2021-03-06T12:42:59Z</time>
      </trkpt>
      <trkpt lat="42.7394" lon="1.53372">
        <ele>1900.693</ele>
        <time>2021-03-06T12:43:01Z</time>
      </trkpt>
      <trkpt lat="42.73942" lon="1.53372">
        <ele>1899.983</ele>
        <time>2021-03-06T12:43:03Z</time>
      </trkpt>
      <trkpt lat="42.73943" lon="1.53373">
        <ele>1899.821</ele>
        <time>2021-03-06T12:43:05Z</time>
      </trkpt>
      <trkpt lat="42.73945" lon="1.53374">
        <ele>1899.276</ele>
        <time>2021-03-06T12:43:07Z</time>
      </trkpt>
      <trkpt lat="42.73946" lon="1.53375">
        <ele>1898.588</ele>
        <time>2021-03-06T12:43:09Z</time>
      </trkpt>
      <trkpt lat="42.73947" lon="1.53376">
        <ele>1898.03</ele>
        <time>2021-03-06T12:43:11Z</time>
      </trkpt>
      <trkpt lat="42.73949" lon="1.53377">
        <ele>1896.999</ele>
        <time>2021-03-06T12:43:13Z</time>
      </trkpt>
      <trkpt lat="42.7395" lon="1.53378">
        <ele>1895.963</ele>
        <time>2021-03-06T12:43:15Z</time>
      </trkpt>
      <trkpt lat="42.73952" lon="1.53379">
        <ele>1895.266</ele>
        <time>2021-03-06T12:43:17Z</time>
      </trkpt>
      <trkpt lat="42.73953" lon="1.5338">
        <ele>1894.827</ele>
        <time>2021-03-06T12:43:19Z</time>
      </trkpt>
      <trkpt lat="42.73954" lon="1.53382">
        <ele>1895.033</ele>
        <time>2021-03-06T12:43:21Z</time>
      </trkpt>
      <trkpt lat="42.73956" lon="1.53384">
        <ele>1894.879</ele>
        <time>2021-03-06T12:43:23Z</time>
      </trkpt>
      <trkpt lat="42.73958" lon="1.53384">
        <ele>1893.684</ele>
        <time>2021-03-06T12:43:25Z</time>
      </trkpt>
      <trkpt lat="42.7396" lon="1.53384">
        <ele>1892.916</ele>
        <time>2021-03-06T12:43:27Z</time>
      </trkpt>
      <trkpt lat="42.73962" lon="1.53384">
        <ele>1891.421</ele>
        <time>2021-03-06T12:43:29Z</time>
      </trkpt>
      <trkpt lat="42.73964" lon="1.53384">
        <ele>1890.024</ele>
        <time>2021-03-06T12:43:31Z</time>
      </trkpt>
      <trkpt lat="42.73966" lon="1.53384">
        <ele>1888.5</ele>
        <time>2021-03-06T12:43:33Z</time>
      </trkpt>
      <trkpt lat="42.73969" lon="1.53384">
        <ele>1886.611</ele>
        <time>2021-03-06T12:43:35Z</time>
      </trkpt>
      <trkpt lat="42.73971" lon="1.53384">
        <ele>1885.684</ele>
        <time>2021-03-06T12:43:37Z</time>
      </trkpt>
      <trkpt lat="42.73974" lon="1.53384">
        <ele>1884.722</ele>
        <time>2021-03-06T12:43:39Z</time>
      </trkpt>
      <trkpt lat="42.73976" lon="1.53385">
        <ele>1884.838</ele>
        <time>2021-03-06T12:43:41Z</time>
      </trkpt>
      <trkpt lat="42.73979" lon="1.53385">
        <ele>1884.043</ele>
        <time>2021-03-06T12:43:43Z</time>
      </trkpt>
      <trkpt lat="42.73981" lon="1.53385">
        <ele>1883.058</ele>
        <time>2021-03-06T12:43:45Z</time>
      </trkpt>
      <trkpt lat="42.73983" lon="1.53385">
        <ele>1882.319</ele>
        <time>2021-03-06T12:43:47Z</time>
      </trkpt>
      <trkpt lat="42.73985" lon="1.53385">
        <ele>1881.552</ele>
        <time>2021-03-06T12:43:49Z</time>
      </trkpt>
      <trkpt lat="42.73988" lon="1.53386">
        <ele>1881.094</ele>
        <time>2021-03-06T12:43:51Z</time>
      </trkpt>
      <trkpt lat="42.7399" lon="1.53386">
        <ele>1880.56</ele>
        <time>2021-03-06T12:43:53Z</time>
      </trkpt>
      <trkpt lat="42.73992" lon="1.53387">
        <ele>1879.508</ele>
        <time>2021-03-06T12:43:55Z</time>
      </trkpt>
      <trkpt lat="42.73994" lon="1.53388">
        <ele>1877.248</ele>
        <time>2021-03-06T12:43:57Z</time>
      </trkpt>
      <trkpt lat="42.73997" lon="1.53388">
        <ele>1878.078</ele>
        <time>2021-03-06T12:43:59Z</time>
      </trkpt>
      <trkpt lat="42.74" lon="1.53388">
        <ele>1877.96</ele>
        <time>2021-03-06T12:44:01Z</time>
      </trkpt>
      <trkpt lat="42.74002" lon="1.53388">
        <ele>1877.984</ele>
        <time>2021-03-06T12:44:03Z</time>
      </trkpt>
      <trkpt lat="42.74005" lon="1.53388">
        <ele>1877.585</ele>
        <time>2021-03-06T12:44:05Z</time>
      </trkpt>
      <trkpt lat="42.74008" lon="1.53388">
        <ele>1878.142</ele>
        <time>2021-03-06T12:44:07Z</time>
      </trkpt>
      <trkpt lat="42.7401" lon="1.53388">
        <ele>1877.258</ele>
        <time>2021-03-06T12:44:09Z</time>
      </trkpt>
      <trkpt lat="42.74012" lon="1.53388">
        <ele>1877.843</ele>
        <time>2021-03-06T12:44:11Z</time>
      </trkpt>
      <trkpt lat="42.74014" lon="1.53388">
        <ele>1877.317</ele>
        <time>2021-03-06T12:44:13Z</time>
      </trkpt>
      <trkpt lat="42.74016" lon="1.53387">
        <ele>1877.129</ele>
        <time>2021-03-06T12:44:15Z</time>
      </trkpt>
      <trkpt lat="42.74018" lon="1.53387">
        <ele>1877.33</ele>
        <time>2021-03-06T12:44:17Z</time>
      </trkpt>
      <trkpt lat="42.74022" lon="1.53388">
        <ele>1879.605</ele>
        <time>2021-03-06T12:44:19Z</time>
      </trkpt>
      <trkpt lat="42.74025" lon="1.53387">
        <ele>1879.172</ele>
        <time>2021-03-06T12:44:22Z</time>
      </trkpt>
      <trkpt lat="42.74028" lon="1.53387">
        <ele>1878.836</ele>
        <time>2021-03-06T12:44:24Z</time>
      </trkpt>
      <trkpt lat="42.7403" lon="1.53387">
        <ele>1878.062</ele>
        <time>2021-03-06T12:44:26Z</time>
      </trkpt>
      <trkpt lat="42.74033" lon="1.53387">
        <ele>1877.176</ele>
        <time>2021-03-06T12:44:28Z</time>
      </trkpt>
      <trkpt lat="42.74036" lon="1.53387">
        <ele>1877.188</ele>
        <time>2021-03-06T12:44:30Z</time>
      </trkpt>
      <trkpt lat="42.74039" lon="1.53388">
        <ele>1876.674</ele>
        <time>2021-03-06T12:44:32Z</time>
      </trkpt>
      <trkpt lat="42.74042" lon="1.53388">
        <ele>1876.03</ele>
        <time>2021-03-06T12:44:34Z</time>
      </trkpt>
      <trkpt lat="42.74044" lon="1.53389">
        <ele>1875.874</ele>
        <time>2021-03-06T12:44:36Z</time>
      </trkpt>
      <trkpt lat="42.74047" lon="1.5339">
        <ele>1875.492</ele>
        <time>2021-03-06T12:44:38Z</time>
      </trkpt>
      <trkpt lat="42.7405" lon="1.53391">
        <ele>1874.705</ele>
        <time>2021-03-06T12:44:40Z</time>
      </trkpt>
      <trkpt lat="42.74052" lon="1.53392">
        <ele>1874.632</ele>
        <time>2021-03-06T12:44:42Z</time>
      </trkpt>
      <trkpt lat="42.74055" lon="1.53393">
        <ele>1874.263</ele>
        <time>2021-03-06T12:44:44Z</time>
      </trkpt>
      <trkpt lat="42.74058" lon="1.53395">
        <ele>1874.089</ele>
        <time>2021-03-06T12:44:46Z</time>
      </trkpt>
      <trkpt lat="42.7406" lon="1.53396">
        <ele>1873.551</ele>
        <time>2021-03-06T12:44:48Z</time>
      </trkpt>
      <trkpt lat="42.74063" lon="1.53397">
        <ele>1873.162</ele>
        <time>2021-03-06T12:44:50Z</time>
      </trkpt>
      <trkpt lat="42.74066" lon="1.53398">
        <ele>1872.502</ele>
        <time>2021-03-06T12:44:52Z</time>
      </trkpt>
      <trkpt lat="42.74069" lon="1.53399">
        <ele>1871.91</ele>
        <time>2021-03-06T12:44:54Z</time>
      </trkpt>
      <trkpt lat="42.74072" lon="1.534">
        <ele>1871.479</ele>
        <time>2021-03-06T12:44:56Z</time>
      </trkpt>
      <trkpt lat="42.74075" lon="1.53401">
        <ele>1870.638</ele>
        <time>2021-03-06T12:44:58Z</time>
      </trkpt>
      <trkpt lat="42.74077" lon="1.53402">
        <ele>1869.892</ele>
        <time>2021-03-06T12:45:00Z</time>
      </trkpt>
      <trkpt lat="42.7408" lon="1.53403">
        <ele>1868.976</ele>
        <time>2021-03-06T12:45:02Z</time>
      </trkpt>
      <trkpt lat="42.74084" lon="1.53404">
        <ele>1868.631</ele>
        <time>2021-03-06T12:45:04Z</time>
      </trkpt>
      <trkpt lat="42.74087" lon="1.53405">
        <ele>1868.206</ele>
        <time>2021-03-06T12:45:06Z</time>
      </trkpt>
      <trkpt lat="42.74089" lon="1.53406">
        <ele>1867.988</ele>
        <time>2021-03-06T12:45:08Z</time>
      </trkpt>
      <trkpt lat="42.74092" lon="1.53406">
        <ele>1866.787</ele>
        <time>2021-03-06T12:45:10Z</time>
      </trkpt>
      <trkpt lat="42.74095" lon="1.53407">
        <ele>1866.616</ele>
        <time>2021-03-06T12:45:12Z</time>
      </trkpt>
      <trkpt lat="42.74098" lon="1.53408">
        <ele>1865.274</ele>
        <time>2021-03-06T12:45:14Z</time>
      </trkpt>
      <trkpt lat="42.74101" lon="1.53408">
        <ele>1865.354</ele>
        <time>2021-03-06T12:45:16Z</time>
      </trkpt>
      <trkpt lat="42.74104" lon="1.53409">
        <ele>1864.842</ele>
        <time>2021-03-06T12:45:18Z</time>
      </trkpt>
      <trkpt lat="42.74107" lon="1.5341">
        <ele>1864.492</ele>
        <time>2021-03-06T12:45:20Z</time>
      </trkpt>
      <trkpt lat="42.7411" lon="1.5341">
        <ele>1864.367</ele>
        <time>2021-03-06T12:45:22Z</time>
      </trkpt>
      <trkpt lat="42.74113" lon="1.53411">
        <ele>1864.016</ele>
        <time>2021-03-06T12:45:24Z</time>
      </trkpt>
      <trkpt lat="42.74115" lon="1.53412">
        <ele>1863.117</ele>
        <time>2021-03-06T12:45:26Z</time>
      </trkpt>
      <trkpt lat="42.74118" lon="1.53413">
        <ele>1862.349</ele>
        <time>2021-03-06T12:45:28Z</time>
      </trkpt>
      <trkpt lat="42.74121" lon="1.53413">
        <ele>1861.871</ele>
        <time>2021-03-06T12:45:30Z</time>
      </trkpt>
      <trkpt lat="42.74124" lon="1.53414">
        <ele>1861.781</ele>
        <time>2021-03-06T12:45:32Z</time>
      </trkpt>
      <trkpt lat="42.74126" lon="1.53415">
        <ele>1861.393</ele>
        <time>2021-03-06T12:45:34Z</time>
      </trkpt>
      <trkpt lat="42.74129" lon="1.53416">
        <ele>1860.614</ele>
        <time>2021-03-06T12:45:36Z</time>
      </trkpt>
      <trkpt lat="42.74132" lon="1.53417">
        <ele>1859.928</ele>
        <time>2021-03-06T12:45:38Z</time>
      </trkpt>
      <trkpt lat="42.74134" lon="1.53418">
        <ele>1859.921</ele>
        <time>2021-03-06T12:45:40Z</time>
      </trkpt>
      <trkpt lat="42.74137" lon="1.53419">
        <ele>1859.241</ele>
        <time>2021-03-06T12:45:42Z</time>
      </trkpt>
      <trkpt lat="42.74139" lon="1.5342">
        <ele>1858.417</ele>
        <time>2021-03-06T12:45:44Z</time>
      </trkpt>
      <trkpt lat="42.74142" lon="1.53421">
        <ele>1857.883</ele>
        <time>2021-03-06T12:45:46Z</time>
      </trkpt>
      <trkpt lat="42.74145" lon="1.53423">
        <ele>1857.095</ele>
        <time>2021-03-06T12:45:48Z</time>
      </trkpt>
      <trkpt lat="42.74147" lon="1.53424">
        <ele>1856.478</ele>
        <time>2021-03-06T12:45:50Z</time>
      </trkpt>
      <trkpt lat="42.7415" lon="1.53426">
        <ele>1856.116</ele>
        <time>2021-03-06T12:45:52Z</time>
      </trkpt>
      <trkpt lat="42.74153" lon="1.53427">
        <ele>1855.735</ele>
        <time>2021-03-06T12:45:54Z</time>
      </trkpt>
      <trkpt lat="42.74155" lon="1.53429">
        <ele>1855.369</ele>
        <time>2021-03-06T12:45:56Z</time>
      </trkpt>
      <trkpt lat="42.74158" lon="1.5343">
        <ele>1855.557</ele>
        <time>2021-03-06T12:45:58Z</time>
      </trkpt>
      <trkpt lat="42.7416" lon="1.53432">
        <ele>1855.004</ele>
        <time>2021-03-06T12:46:00Z</time>
      </trkpt>
      <trkpt lat="42.74163" lon="1.53433">
        <ele>1855.259</ele>
        <time>2021-03-06T12:46:02Z</time>
      </trkpt>
      <trkpt lat="42.74165" lon="1.53434">
        <ele>1855.652</ele>
        <time>2021-03-06T12:46:04Z</time>
      </trkpt>
      <trkpt lat="42.74168" lon="1.53436">
        <ele>1855.823</ele>
        <time>2021-03-06T12:46:06Z</time>
      </trkpt>
      <trkpt lat="42.74169" lon="1.53438">
        <ele>1855.364</ele>
        <time>2021-03-06T12:46:08Z</time>
      </trkpt>
      <trkpt lat="42.74172" lon="1.53439">
        <ele>1855.059</ele>
        <time>2021-03-06T12:46:10Z</time>
      </trkpt>
      <trkpt lat="42.74174" lon="1.53441">
        <ele>1854.342</ele>
        <time>2021-03-06T12:46:12Z</time>
      </trkpt>
      <trkpt lat="42.74176" lon="1.53443">
        <ele>1853.696</ele>
        <time>2021-03-06T12:46:14Z</time>
      </trkpt>
      <trkpt lat="42.74178" lon="1.53445">
        <ele>1853.223</ele>
        <time>2021-03-06T12:46:16Z</time>
      </trkpt>
      <trkpt lat="42.7418" lon="1.53446">
        <ele>1853.166</ele>
        <time>2021-03-06T12:46:18Z</time>
      </trkpt>
      <trkpt lat="42.74183" lon="1.53448">
        <ele>1852.668</ele>
        <time>2021-03-06T12:46:20Z</time>
      </trkpt>
      <trkpt lat="42.74185" lon="1.53449">
        <ele>1852.434</ele>
        <time>2021-03-06T12:46:22Z</time>
      </trkpt>
      <trkpt lat="42.74188" lon="1.5345">
        <ele>1852.089</ele>
        <time>2021-03-06T12:46:24Z</time>
      </trkpt>
      <trkpt lat="42.7419" lon="1.53452">
        <ele>1851.551</ele>
        <time>2021-03-06T12:46:26Z</time>
      </trkpt>
      <trkpt lat="42.74193" lon="1.53453">
        <ele>1851.693</ele>
        <time>2021-03-06T12:46:28Z</time>
      </trkpt>
      <trkpt lat="42.74195" lon="1.53455">
        <ele>1851.323</ele>
        <time>2021-03-06T12:46:30Z</time>
      </trkpt>
      <trkpt lat="42.74198" lon="1.53457">
        <ele>1851.086</ele>
        <time>2021-03-06T12:46:32Z</time>
      </trkpt>
      <trkpt lat="42.742" lon="1.53458">
        <ele>1850.666</ele>
        <time>2021-03-06T12:46:34Z</time>
      </trkpt>
      <trkpt lat="42.74203" lon="1.5346">
        <ele>1850.103</ele>
        <time>2021-03-06T12:46:36Z</time>
      </trkpt>
      <trkpt lat="42.74205" lon="1.53462">
        <ele>1849.896</ele>
        <time>2021-03-06T12:46:38Z</time>
      </trkpt>
      <trkpt lat="42.74206" lon="1.53462">
        <ele>1849.655</ele>
        <time>2021-03-06T12:46:39Z</time>
      </trkpt>
      <trkpt lat="42.7421" lon="1.53465">
        <ele>1849.169</ele>
        <time>2021-03-06T12:46:42Z</time>
      </trkpt>
      <trkpt lat="42.74212" lon="1.53467">
        <ele>1848.97</ele>
        <time>2021-03-06T12:46:44Z</time>
      </trkpt>
      <trkpt lat="42.74215" lon="1.53468">
        <ele>1848.348</ele>
        <time>2021-03-06T12:46:46Z</time>
      </trkpt>
      <trkpt lat="42.74217" lon="1.5347">
        <ele>1848.539</ele>
        <time>2021-03-06T12:46:48Z</time>
      </trkpt>
      <trkpt lat="42.74219" lon="1.53472">
        <ele>1847.925</ele>
        <time>2021-03-06T12:46:50Z</time>
      </trkpt>
      <trkpt lat="42.74222" lon="1.53473">
        <ele>1847.842</ele>
        <time>2021-03-06T12:46:52Z</time>
      </trkpt>
      <trkpt lat="42.74224" lon="1.53474">
        <ele>1847.497</ele>
        <time>2021-03-06T12:46:54Z</time>
      </trkpt>
      <trkpt lat="42.74226" lon="1.53476">
        <ele>1847.329</ele>
        <time>2021-03-06T12:46:56Z</time>
      </trkpt>
      <trkpt lat="42.74229" lon="1.53477">
        <ele>1847.086</ele>
        <time>2021-03-06T12:46:58Z</time>
      </trkpt>
      <trkpt lat="42.74231" lon="1.53478">
        <ele>1847.187</ele>
        <time>2021-03-06T12:47:00Z</time>
      </trkpt>
      <trkpt lat="42.74233" lon="1.5348">
        <ele>1847.119</ele>
        <time>2021-03-06T12:47:02Z</time>
      </trkpt>
      <trkpt lat="42.74236" lon="1.53481">
        <ele>1846.766</ele>
        <time>2021-03-06T12:47:04Z</time>
      </trkpt>
      <trkpt lat="42.74239" lon="1.53482">
        <ele>1846.365</ele>
        <time>2021-03-06T12:47:06Z</time>
      </trkpt>
      <trkpt lat="42.74242" lon="1.53483">
        <ele>1846.236</ele>
        <time>2021-03-06T12:47:08Z</time>
      </trkpt>
      <trkpt lat="42.74245" lon="1.53484">
        <ele>1845.781</ele>
        <time>2021-03-06T12:47:10Z</time>
      </trkpt>
      <trkpt lat="42.74248" lon="1.53485">
        <ele>1845.554</ele>
        <time>2021-03-06T12:47:12Z</time>
      </trkpt>
      <trkpt lat="42.74251" lon="1.53485">
        <ele>1845.159</ele>
        <time>2021-03-06T12:47:14Z</time>
      </trkpt>
      <trkpt lat="42.74254" lon="1.53486">
        <ele>1844.768</ele>
        <time>2021-03-06T12:47:16Z</time>
      </trkpt>
      <trkpt lat="42.74256" lon="1.53486">
        <ele>1844.405</ele>
        <time>2021-03-06T12:47:18Z</time>
      </trkpt>
      <trkpt lat="42.74259" lon="1.53487">
        <ele>1844.245</ele>
        <time>2021-03-06T12:47:20Z</time>
      </trkpt>
      <trkpt lat="42.74262" lon="1.53487">
        <ele>1843.956</ele>
        <time>2021-03-06T12:47:22Z</time>
      </trkpt>
      <trkpt lat="42.74265" lon="1.53488">
        <ele>1843.526</ele>
        <time>2021-03-06T12:47:24Z</time>
      </trkpt>
      <trkpt lat="42.74268" lon="1.53489">
        <ele>1843.272</ele>
        <time>2021-03-06T12:47:26Z</time>
      </trkpt>
      <trkpt lat="42.7427" lon="1.53489">
        <ele>1842.626</ele>
        <time>2021-03-06T12:47:28Z</time>
      </trkpt>
      <trkpt lat="42.74273" lon="1.53489">
        <ele>1842.311</ele>
        <time>2021-03-06T12:47:30Z</time>
      </trkpt>
      <trkpt lat="42.74276" lon="1.5349">
        <ele>1842.197</ele>
        <time>2021-03-06T12:47:32Z</time>
      </trkpt>
      <trkpt lat="42.74279" lon="1.5349">
        <ele>1842.493</ele>
        <time>2021-03-06T12:47:34Z</time>
      </trkpt>
      <trkpt lat="42.74282" lon="1.53491">
        <ele>1842.474</ele>
        <time>2021-03-06T12:47:36Z</time>
      </trkpt>
      <trkpt lat="42.74284" lon="1.53491">
        <ele>1842.102</ele>
        <time>2021-03-06T12:47:38Z</time>
      </trkpt>
      <trkpt lat="42.74287" lon="1.53491">
        <ele>1842.013</ele>
        <time>2021-03-06T12:47:40Z</time>
      </trkpt>
      <trkpt lat="42.7429" lon="1.53491">
        <ele>1841.389</ele>
        <time>2021-03-06T12:47:42Z</time>
      </trkpt>
      <trkpt lat="42.74293" lon="1.53491">
        <ele>1841.225</ele>
        <time>2021-03-06T12:47:44Z</time>
      </trkpt>
      <trkpt lat="42.74296" lon="1.53491">
        <ele>1840.556</ele>
        <time>2021-03-06T12:47:46Z</time>
      </trkpt>
      <trkpt lat="42.74298" lon="1.53492">
        <ele>1840.491</ele>
        <time>2021-03-06T12:47:48Z</time>
      </trkpt>
      <trkpt lat="42.74301" lon="1.53493">
        <ele>1839.952</ele>
        <time>2021-03-06T12:47:50Z</time>
      </trkpt>
      <trkpt lat="42.74304" lon="1.53493">
        <ele>1839.627</ele>
        <time>2021-03-06T12:47:52Z</time>
      </trkpt>
      <trkpt lat="42.74307" lon="1.53494">
        <ele>1839.131</ele>
        <time>2021-03-06T12:47:54Z</time>
      </trkpt>
      <trkpt lat="42.7431" lon="1.53495">
        <ele>1839.846</ele>
        <time>2021-03-06T12:47:56Z</time>
      </trkpt>
      <trkpt lat="42.74312" lon="1.53497">
        <ele>1839.346</ele>
        <time>2021-03-06T12:47:58Z</time>
      </trkpt>
      <trkpt lat="42.74315" lon="1.53498">
        <ele>1837.901</ele>
        <time>2021-03-06T12:48:00Z</time>
      </trkpt>
      <trkpt lat="42.74317" lon="1.535">
        <ele>1837.053</ele>
        <time>2021-03-06T12:48:02Z</time>
      </trkpt>
      <trkpt lat="42.74319" lon="1.53501">
        <ele>1836.519</ele>
        <time>2021-03-06T12:48:04Z</time>
      </trkpt>
      <trkpt lat="42.74322" lon="1.53503">
        <ele>1836.292</ele>
        <time>2021-03-06T12:48:06Z</time>
      </trkpt>
      <trkpt lat="42.74324" lon="1.53504">
        <ele>1835.708</ele>
        <time>2021-03-06T12:48:08Z</time>
      </trkpt>
      <trkpt lat="42.74327" lon="1.53506">
        <ele>1834.804</ele>
        <time>2021-03-06T12:48:10Z</time>
      </trkpt>
      <trkpt lat="42.74329" lon="1.53507">
        <ele>1834.411</ele>
        <time>2021-03-06T12:48:12Z</time>
      </trkpt>
      <trkpt lat="42.74332" lon="1.53508">
        <ele>1834.849</ele>
        <time>2021-03-06T12:48:14Z</time>
      </trkpt>
      <trkpt lat="42.74335" lon="1.53509">
        <ele>1834.342</ele>
        <time>2021-03-06T12:48:16Z</time>
      </trkpt>
      <trkpt lat="42.74338" lon="1.53511">
        <ele>1833.548</ele>
        <time>2021-03-06T12:48:19Z</time>
      </trkpt>
      <trkpt lat="42.74341" lon="1.53512">
        <ele>1833.858</ele>
        <time>2021-03-06T12:48:21Z</time>
      </trkpt>
      <trkpt lat="42.74343" lon="1.53513">
        <ele>1833.384</ele>
        <time>2021-03-06T12:48:23Z</time>
      </trkpt>
      <trkpt lat="42.74346" lon="1.53513">
        <ele>1833.229</ele>
        <time>2021-03-06T12:48:25Z</time>
      </trkpt>
      <trkpt lat="42.74349" lon="1.53513">
        <ele>1832.823</ele>
        <time>2021-03-06T12:48:27Z</time>
      </trkpt>
      <trkpt lat="42.74351" lon="1.53513">
        <ele>1831.986</ele>
        <time>2021-03-06T12:48:29Z</time>
      </trkpt>
      <trkpt lat="42.74354" lon="1.53513">
        <ele>1831.803</ele>
        <time>2021-03-06T12:48:31Z</time>
      </trkpt>
      <trkpt lat="42.74356" lon="1.53514">
        <ele>1831.813</ele>
        <time>2021-03-06T12:48:33Z</time>
      </trkpt>
      <trkpt lat="42.74359" lon="1.53513">
        <ele>1831.294</ele>
        <time>2021-03-06T12:48:35Z</time>
      </trkpt>
      <trkpt lat="42.74361" lon="1.53513">
        <ele>1830.904</ele>
        <time>2021-03-06T12:48:37Z</time>
      </trkpt>
      <trkpt lat="42.74364" lon="1.53513">
        <ele>1830.643</ele>
        <time>2021-03-06T12:48:39Z</time>
      </trkpt>
      <trkpt lat="42.74366" lon="1.53513">
        <ele>1829.677</ele>
        <time>2021-03-06T12:48:41Z</time>
      </trkpt>
      <trkpt lat="42.74369" lon="1.53512">
        <ele>1829.218</ele>
        <time>2021-03-06T12:48:43Z</time>
      </trkpt>
      <trkpt lat="42.74371" lon="1.53512">
        <ele>1828.52</ele>
        <time>2021-03-06T12:48:45Z</time>
      </trkpt>
      <trkpt lat="42.74374" lon="1.53511">
        <ele>1828.222</ele>
        <time>2021-03-06T12:48:47Z</time>
      </trkpt>
      <trkpt lat="42.74376" lon="1.53511">
        <ele>1827.998</ele>
        <time>2021-03-06T12:48:49Z</time>
      </trkpt>
      <trkpt lat="42.74379" lon="1.5351">
        <ele>1827.556</ele>
        <time>2021-03-06T12:48:51Z</time>
      </trkpt>
      <trkpt lat="42.74382" lon="1.53509">
        <ele>1827.297</ele>
        <time>2021-03-06T12:48:53Z</time>
      </trkpt>
      <trkpt lat="42.74385" lon="1.53509">
        <ele>1827.01</ele>
        <time>2021-03-06T12:48:55Z</time>
      </trkpt>
      <trkpt lat="42.74387" lon="1.53508">
        <ele>1826.443</ele>
        <time>2021-03-06T12:48:57Z</time>
      </trkpt>
      <trkpt lat="42.7439" lon="1.53507">
        <ele>1826.187</ele>
        <time>2021-03-06T12:48:59Z</time>
      </trkpt>
      <trkpt lat="42.74393" lon="1.53507">
        <ele>1825.457</ele>
        <time>2021-03-06T12:49:01Z</time>
      </trkpt>
      <trkpt lat="42.74395" lon="1.53507">
        <ele>1825.066</ele>
        <time>2021-03-06T12:49:03Z</time>
      </trkpt>
      <trkpt lat="42.74398" lon="1.53507">
        <ele>1824.275</ele>
        <time>2021-03-06T12:49:05Z</time>
      </trkpt>
      <trkpt lat="42.74401" lon="1.53508">
        <ele>1823.148</ele>
        <time>2021-03-06T12:49:07Z</time>
      </trkpt>
      <trkpt lat="42.74403" lon="1.53509">
        <ele>1822.426</ele>
        <time>2021-03-06T12:49:09Z</time>
      </trkpt>
      <trkpt lat="42.74405" lon="1.5351">
        <ele>1821.611</ele>
        <time>2021-03-06T12:49:11Z</time>
      </trkpt>
      <trkpt lat="42.74407" lon="1.53512">
        <ele>1820.992</ele>
        <time>2021-03-06T12:49:13Z</time>
      </trkpt>
      <trkpt lat="42.74409" lon="1.53513">
        <ele>1821.144</ele>
        <time>2021-03-06T12:49:15Z</time>
      </trkpt>
      <trkpt lat="42.7441" lon="1.53514">
        <ele>1820.663</ele>
        <time>2021-03-06T12:49:17Z</time>
      </trkpt>
      <trkpt lat="42.74409" lon="1.53514">
        <ele>1819.889</ele>
        <time>2021-03-06T12:49:19Z</time>
      </trkpt>
      <trkpt lat="42.74409" lon="1.53514">
        <ele>1819.885</ele>
        <time>2021-03-06T12:49:21Z</time>
      </trkpt>
      <trkpt lat="42.74409" lon="1.53514">
        <ele>1819.881</ele>
        <time>2021-03-06T12:49:23Z</time>
      </trkpt>
      <trkpt lat="42.74409" lon="1.53514">
        <ele>1819.883</ele>
        <time>2021-03-06T12:49:25Z</time>
      </trkpt>
      <trkpt lat="42.74409" lon="1.53514">
        <ele>1819.887</ele>
        <time>2021-03-06T12:49:27Z</time>
      </trkpt>
      <trkpt lat="42.74409" lon="1.53514">
        <ele>1819.889</ele>
        <time>2021-03-06T12:49:29Z</time>
      </trkpt>
      <trkpt lat="42.74409" lon="1.53514">
        <ele>1819.887</ele>
        <time>2021-03-06T12:49:31Z</time>
      </trkpt>
      <trkpt lat="42.74409" lon="1.53515">
        <ele>1819.287</ele>
        <time>2021-03-06T12:49:33Z</time>
      </trkpt>
      <trkpt lat="42.74409" lon="1.53515">
        <ele>1819.373</ele>
        <time>2021-03-06T12:49:35Z</time>
      </trkpt>
      <trkpt lat="42.74409" lon="1.53515">
        <ele>1819.187</ele>
        <time>2021-03-06T12:49:37Z</time>
      </trkpt>
      <trkpt lat="42.7441" lon="1.53515">
        <ele>1818.561</ele>
        <time>2021-03-06T12:49:39Z</time>
      </trkpt>
      <trkpt lat="42.7441" lon="1.53515">
        <ele>1818.527</ele>
        <time>2021-03-06T12:49:41Z</time>
      </trkpt>
      <trkpt lat="42.7441" lon="1.53515">
        <ele>1818.517</ele>
        <time>2021-03-06T12:49:43Z</time>
      </trkpt>
      <trkpt lat="42.7441" lon="1.53515">
        <ele>1818.512</ele>
        <time>2021-03-06T12:49:45Z</time>
      </trkpt>
      <trkpt lat="42.7441" lon="1.53515">
        <ele>1818.506</ele>
        <time>2021-03-06T12:49:47Z</time>
      </trkpt>
      <trkpt lat="42.7441" lon="1.53515">
        <ele>1818.378</ele>
        <time>2021-03-06T12:49:49Z</time>
      </trkpt>
      <trkpt lat="42.74411" lon="1.53517">
        <ele>1818.386</ele>
        <time>2021-03-06T12:49:51Z</time>
      </trkpt>
      <trkpt lat="42.74413" lon="1.53518">
        <ele>1817.858</ele>
        <time>2021-03-06T12:49:53Z</time>
      </trkpt>
      <trkpt lat="42.74414" lon="1.5352">
        <ele>1817.175</ele>
        <time>2021-03-06T12:49:55Z</time>
      </trkpt>
      <trkpt lat="42.74415" lon="1.53522">
        <ele>1816.283</ele>
        <time>2021-03-06T12:49:57Z</time>
      </trkpt>
      <trkpt lat="42.74417" lon="1.53524">
        <ele>1816.116</ele>
        <time>2021-03-06T12:49:59Z</time>
      </trkpt>
      <trkpt lat="42.74419" lon="1.53527">
        <ele>1815.783</ele>
        <time>2021-03-06T12:50:01Z</time>
      </trkpt>
      <trkpt lat="42.7442" lon="1.5353">
        <ele>1815.474</ele>
        <time>2021-03-06T12:50:03Z</time>
      </trkpt>
      <trkpt lat="42.74422" lon="1.53533">
        <ele>1814.877</ele>
        <time>2021-03-06T12:50:05Z</time>
      </trkpt>
      <trkpt lat="42.74423" lon="1.53536">
        <ele>1814.492</ele>
        <time>2021-03-06T12:50:07Z</time>
      </trkpt>
      <trkpt lat="42.74425" lon="1.53539">
        <ele>1813.86</ele>
        <time>2021-03-06T12:50:09Z</time>
      </trkpt>
      <trkpt lat="42.74426" lon="1.53542">
        <ele>1813.667</ele>
        <time>2021-03-06T12:50:11Z</time>
      </trkpt>
      <trkpt lat="42.74428" lon="1.53545">
        <ele>1813.096</ele>
        <time>2021-03-06T12:50:13Z</time>
      </trkpt>
      <trkpt lat="42.74429" lon="1.53548">
        <ele>1812.783</ele>
        <time>2021-03-06T12:50:15Z</time>
      </trkpt>
      <trkpt lat="42.7443" lon="1.53552">
        <ele>1812.522</ele>
        <time>2021-03-06T12:50:17Z</time>
      </trkpt>
      <trkpt lat="42.74431" lon="1.53555">
        <ele>1812.251</ele>
        <time>2021-03-06T12:50:19Z</time>
      </trkpt>
      <trkpt lat="42.74433" lon="1.53559">
        <ele>1811.666</ele>
        <time>2021-03-06T12:50:21Z</time>
      </trkpt>
      <trkpt lat="42.74434" lon="1.53562">
        <ele>1811.046</ele>
        <time>2021-03-06T12:50:23Z</time>
      </trkpt>
      <trkpt lat="42.74434" lon="1.53565">
        <ele>1810.501</ele>
        <time>2021-03-06T12:50:25Z</time>
      </trkpt>
      <trkpt lat="42.74435" lon="1.53569">
        <ele>1809.928</ele>
        <time>2021-03-06T12:50:27Z</time>
      </trkpt>
      <trkpt lat="42.74436" lon="1.53573">
        <ele>1809.749</ele>
        <time>2021-03-06T12:50:29Z</time>
      </trkpt>
      <trkpt lat="42.74436" lon="1.53576">
        <ele>1809.307</ele>
        <time>2021-03-06T12:50:31Z</time>
      </trkpt>
      <trkpt lat="42.74437" lon="1.5358">
        <ele>1809.328</ele>
        <time>2021-03-06T12:50:33Z</time>
      </trkpt>
      <trkpt lat="42.74437" lon="1.53584">
        <ele>1809.09</ele>
        <time>2021-03-06T12:50:35Z</time>
      </trkpt>
      <trkpt lat="42.74438" lon="1.53587">
        <ele>1809.027</ele>
        <time>2021-03-06T12:50:37Z</time>
      </trkpt>
      <trkpt lat="42.74438" lon="1.5359">
        <ele>1808.584</ele>
        <time>2021-03-06T12:50:39Z</time>
      </trkpt>
      <trkpt lat="42.74438" lon="1.53594">
        <ele>1808.636</ele>
        <time>2021-03-06T12:50:41Z</time>
      </trkpt>
      <trkpt lat="42.74438" lon="1.53597">
        <ele>1808.552</ele>
        <time>2021-03-06T12:50:43Z</time>
      </trkpt>
      <trkpt lat="42.74438" lon="1.536">
        <ele>1808.034</ele>
        <time>2021-03-06T12:50:45Z</time>
      </trkpt>
      <trkpt lat="42.74438" lon="1.53604">
        <ele>1807.754</ele>
        <time>2021-03-06T12:50:47Z</time>
      </trkpt>
      <trkpt lat="42.74439" lon="1.53607">
        <ele>1807.211</ele>
        <time>2021-03-06T12:50:49Z</time>
      </trkpt>
      <trkpt lat="42.74439" lon="1.5361">
        <ele>1806.889</ele>
        <time>2021-03-06T12:50:51Z</time>
      </trkpt>
      <trkpt lat="42.74439" lon="1.53614">
        <ele>1806.43</ele>
        <time>2021-03-06T12:50:53Z</time>
      </trkpt>
      <trkpt lat="42.7444" lon="1.53617">
        <ele>1806.673</ele>
        <time>2021-03-06T12:50:55Z</time>
      </trkpt>
      <trkpt lat="42.7444" lon="1.5362">
        <ele>1806.488</ele>
        <time>2021-03-06T12:50:57Z</time>
      </trkpt>
      <trkpt lat="42.74441" lon="1.53623">
        <ele>1806.099</ele>
        <time>2021-03-06T12:50:59Z</time>
      </trkpt>
      <trkpt lat="42.74441" lon="1.53626">
        <ele>1805.883</ele>
        <time>2021-03-06T12:51:01Z</time>
      </trkpt>
      <trkpt lat="42.74441" lon="1.53629">
        <ele>1805.269</ele>
        <time>2021-03-06T12:51:03Z</time>
      </trkpt>
      <trkpt lat="42.74441" lon="1.53632">
        <ele>1804.966</ele>
        <time>2021-03-06T12:51:05Z</time>
      </trkpt>
      <trkpt lat="42.74441" lon="1.53635">
        <ele>1804.851</ele>
        <time>2021-03-06T12:51:07Z</time>
      </trkpt>
      <trkpt lat="42.74441" lon="1.53639">
        <ele>1803.791</ele>
        <time>2021-03-06T12:51:09Z</time>
      </trkpt>
      <trkpt lat="42.74441" lon="1.53642">
        <ele>1803.566</ele>
        <time>2021-03-06T12:51:11Z</time>
      </trkpt>
      <trkpt lat="42.7444" lon="1.53645">
        <ele>1802.997</ele>
        <time>2021-03-06T12:51:13Z</time>
      </trkpt>
      <trkpt lat="42.74439" lon="1.53647">
        <ele>1802.868</ele>
        <time>2021-03-06T12:51:15Z</time>
      </trkpt>
      <trkpt lat="42.74439" lon="1.5365">
        <ele>1803.088</ele>
        <time>2021-03-06T12:51:17Z</time>
      </trkpt>
      <trkpt lat="42.74439" lon="1.53653">
        <ele>1801.925</ele>
        <time>2021-03-06T12:51:19Z</time>
      </trkpt>
      <trkpt lat="42.74438" lon="1.53656">
        <ele>1801.73</ele>
        <time>2021-03-06T12:51:21Z</time>
      </trkpt>
      <trkpt lat="42.74438" lon="1.53659">
        <ele>1800.813</ele>
        <time>2021-03-06T12:51:23Z</time>
      </trkpt>
      <trkpt lat="42.74437" lon="1.53662">
        <ele>1800.425</ele>
        <time>2021-03-06T12:51:25Z</time>
      </trkpt>
      <trkpt lat="42.74437" lon="1.53664">
        <ele>1799.638</ele>
        <time>2021-03-06T12:51:27Z</time>
      </trkpt>
      <trkpt lat="42.74436" lon="1.53666">
        <ele>1799.643</ele>
        <time>2021-03-06T12:51:29Z</time>
      </trkpt>
      <trkpt lat="42.74435" lon="1.53668">
        <ele>1799.516</ele>
        <time>2021-03-06T12:51:31Z</time>
      </trkpt>
      <trkpt lat="42.74433" lon="1.53669">
        <ele>1799.273</ele>
        <time>2021-03-06T12:51:33Z</time>
      </trkpt>
      <trkpt lat="42.74432" lon="1.53672">
        <ele>1798.429</ele>
        <time>2021-03-06T12:51:35Z</time>
      </trkpt>
      <trkpt lat="42.74432" lon="1.53674">
        <ele>1797.651</ele>
        <time>2021-03-06T12:51:37Z</time>
      </trkpt>
      <trkpt lat="42.74431" lon="1.53676">
        <ele>1796.909</ele>
        <time>2021-03-06T12:51:39Z</time>
      </trkpt>
      <trkpt lat="42.7443" lon="1.53678">
        <ele>1796.623</ele>
        <time>2021-03-06T12:51:41Z</time>
      </trkpt>
      <trkpt lat="42.7443" lon="1.5368">
        <ele>1796.009</ele>
        <time>2021-03-06T12:51:43Z</time>
      </trkpt>
      <trkpt lat="42.74429" lon="1.53682">
        <ele>1795.195</ele>
        <time>2021-03-06T12:51:45Z</time>
      </trkpt>
      <trkpt lat="42.74428" lon="1.53685">
        <ele>1794.695</ele>
        <time>2021-03-06T12:51:47Z</time>
      </trkpt>
      <trkpt lat="42.74428" lon="1.53688">
        <ele>1794.391</ele>
        <time>2021-03-06T12:51:49Z</time>
      </trkpt>
      <trkpt lat="42.74427" lon="1.53691">
        <ele>1794.519</ele>
        <time>2021-03-06T12:51:51Z</time>
      </trkpt>
      <trkpt lat="42.74426" lon="1.53693">
        <ele>1795.058</ele>
        <time>2021-03-06T12:51:53Z</time>
      </trkpt>
      <trkpt lat="42.74425" lon="1.53694">
        <ele>1794.633</ele>
        <time>2021-03-06T12:51:55Z</time>
      </trkpt>
      <trkpt lat="42.74425" lon="1.53697">
        <ele>1794.328</ele>
        <time>2021-03-06T12:51:57Z</time>
      </trkpt>
      <trkpt lat="42.74424" lon="1.537">
        <ele>1793.573</ele>
        <time>2021-03-06T12:51:59Z</time>
      </trkpt>
      <trkpt lat="42.74424" lon="1.53703">
        <ele>1794.181</ele>
        <time>2021-03-06T12:52:01Z</time>
      </trkpt>
      <trkpt lat="42.74423" lon="1.53705">
        <ele>1793.917</ele>
        <time>2021-03-06T12:52:03Z</time>
      </trkpt>
      <trkpt lat="42.74423" lon="1.53708">
        <ele>1793.1</ele>
        <time>2021-03-06T12:52:05Z</time>
      </trkpt>
      <trkpt lat="42.74422" lon="1.5371">
        <ele>1792.147</ele>
        <time>2021-03-06T12:52:07Z</time>
      </trkpt>
      <trkpt lat="42.74421" lon="1.53712">
        <ele>1791.529</ele>
        <time>2021-03-06T12:52:09Z</time>
      </trkpt>
      <trkpt lat="42.7442" lon="1.53715">
        <ele>1790.24</ele>
        <time>2021-03-06T12:52:11Z</time>
      </trkpt>
      <trkpt lat="42.74419" lon="1.53718">
        <ele>1791.224</ele>
        <time>2021-03-06T12:52:13Z</time>
      </trkpt>
      <trkpt lat="42.74418" lon="1.5372">
        <ele>1790.948</ele>
        <time>2021-03-06T12:52:15Z</time>
      </trkpt>
      <trkpt lat="42.74417" lon="1.53722">
        <ele>1790.047</ele>
        <time>2021-03-06T12:52:17Z</time>
      </trkpt>
      <trkpt lat="42.74416" lon="1.53724">
        <ele>1789.64</ele>
        <time>2021-03-06T12:52:19Z</time>
      </trkpt>
      <trkpt lat="42.74415" lon="1.53726">
        <ele>1789.442</ele>
        <time>2021-03-06T12:52:21Z</time>
      </trkpt>
      <trkpt lat="42.74414" lon="1.53727">
        <ele>1790.504</ele>
        <time>2021-03-06T12:52:23Z</time>
      </trkpt>
      <trkpt lat="42.74413" lon="1.53728">
        <ele>1790.258</ele>
        <time>2021-03-06T12:52:25Z</time>
      </trkpt>
      <trkpt lat="42.74412" lon="1.5373">
        <ele>1789.446</ele>
        <time>2021-03-06T12:52:27Z</time>
      </trkpt>
      <trkpt lat="42.74412" lon="1.5373">
        <ele>1789.971</ele>
        <time>2021-03-06T12:52:29Z</time>
      </trkpt>
      <trkpt lat="42.74412" lon="1.5373">
        <ele>1789.983</ele>
        <time>2021-03-06T12:52:31Z</time>
      </trkpt>
      <trkpt lat="42.74412" lon="1.5373">
        <ele>1789.989</ele>
        <time>2021-03-06T12:52:33Z</time>
      </trkpt>
      <trkpt lat="42.74412" lon="1.5373">
        <ele>1789.986</ele>
        <time>2021-03-06T12:52:35Z</time>
      </trkpt>
      <trkpt lat="42.74412" lon="1.5373">
        <ele>1789.987</ele>
        <time>2021-03-06T12:52:37Z</time>
      </trkpt>
      <trkpt lat="42.74412" lon="1.5373">
        <ele>1789.754</ele>
        <time>2021-03-06T12:52:39Z</time>
      </trkpt>
      <trkpt lat="42.74411" lon="1.53732">
        <ele>1789.443</ele>
        <time>2021-03-06T12:52:41Z</time>
      </trkpt>
      <trkpt lat="42.7441" lon="1.53734">
        <ele>1788.646</ele>
        <time>2021-03-06T12:52:43Z</time>
      </trkpt>
      <trkpt lat="42.74409" lon="1.53736">
        <ele>1787.623</ele>
        <time>2021-03-06T12:52:45Z</time>
      </trkpt>
      <trkpt lat="42.74409" lon="1.53738">
        <ele>1787.32</ele>
        <time>2021-03-06T12:52:47Z</time>
      </trkpt>
      <trkpt lat="42.74408" lon="1.53739">
        <ele>1786.288</ele>
        <time>2021-03-06T12:52:49Z</time>
      </trkpt>
      <trkpt lat="42.74407" lon="1.53741">
        <ele>1786.314</ele>
        <time>2021-03-06T12:52:51Z</time>
      </trkpt>
      <trkpt lat="42.74407" lon="1.53743">
        <ele>1785.932</ele>
        <time>2021-03-06T12:52:53Z</time>
      </trkpt>
      <trkpt lat="42.74406" lon="1.53745">
        <ele>1785.687</ele>
        <time>2021-03-06T12:52:55Z</time>
      </trkpt>
      <trkpt lat="42.74406" lon="1.53747">
        <ele>1785.197</ele>
        <time>2021-03-06T12:52:57Z</time>
      </trkpt>
      <trkpt lat="42.74405" lon="1.53749">
        <ele>1784.127</ele>
        <time>2021-03-06T12:52:59Z</time>
      </trkpt>
      <trkpt lat="42.74405" lon="1.53751">
        <ele>1783.512</ele>
        <time>2021-03-06T12:53:01Z</time>
      </trkpt>
      <trkpt lat="42.74405" lon="1.53753">
        <ele>1783.42</ele>
        <time>2021-03-06T12:53:03Z</time>
      </trkpt>
      <trkpt lat="42.74404" lon="1.53755">
        <ele>1783.981</ele>
        <time>2021-03-06T12:53:05Z</time>
      </trkpt>
      <trkpt lat="42.74403" lon="1.53756">
        <ele>1783.863</ele>
        <time>2021-03-06T12:53:07Z</time>
      </trkpt>
      <trkpt lat="42.74403" lon="1.53757">
        <ele>1783.908</ele>
        <time>2021-03-06T12:53:09Z</time>
      </trkpt>
      <trkpt lat="42.74402" lon="1.53759">
        <ele>1783.125</ele>
        <time>2021-03-06T12:53:11Z</time>
      </trkpt>
      <trkpt lat="42.74402" lon="1.5376">
        <ele>1782.527</ele>
        <time>2021-03-06T12:53:13Z</time>
      </trkpt>
      <trkpt lat="42.74401" lon="1.53761">
        <ele>1781.639</ele>
        <time>2021-03-06T12:53:15Z</time>
      </trkpt>
      <trkpt lat="42.74401" lon="1.53761">
        <ele>1781.57</ele>
        <time>2021-03-06T12:53:17Z</time>
      </trkpt>
      <trkpt lat="42.744" lon="1.53762">
        <ele>1780.994</ele>
        <time>2021-03-06T12:53:19Z</time>
      </trkpt>
      <trkpt lat="42.744" lon="1.53763">
        <ele>1780.82</ele>
        <time>2021-03-06T12:53:21Z</time>
      </trkpt>
      <trkpt lat="42.74399" lon="1.53765">
        <ele>1780.382</ele>
        <time>2021-03-06T12:53:23Z</time>
      </trkpt>
      <trkpt lat="42.74399" lon="1.53766">
        <ele>1780.064</ele>
        <time>2021-03-06T12:53:25Z</time>
      </trkpt>
      <trkpt lat="42.74398" lon="1.53768">
        <ele>1779.302</ele>
        <time>2021-03-06T12:53:27Z</time>
      </trkpt>
      <trkpt lat="42.74397" lon="1.5377">
        <ele>1779.308</ele>
        <time>2021-03-06T12:53:29Z</time>
      </trkpt>
      <trkpt lat="42.74396" lon="1.53771">
        <ele>1780.071</ele>
        <time>2021-03-06T12:53:31Z</time>
      </trkpt>
      <trkpt lat="42.74395" lon="1.53771">
        <ele>1781.139</ele>
        <time>2021-03-06T12:53:33Z</time>
      </trkpt>
      <trkpt lat="42.74395" lon="1.53772">
        <ele>1780.862</ele>
        <time>2021-03-06T12:53:35Z</time>
      </trkpt>
      <trkpt lat="42.74394" lon="1.53774">
        <ele>1780.284</ele>
        <time>2021-03-06T12:53:37Z</time>
      </trkpt>
      <trkpt lat="42.74392" lon="1.53776">
        <ele>1780.148</ele>
        <time>2021-03-06T12:53:39Z</time>
      </trkpt>
      <trkpt lat="42.74391" lon="1.53778">
        <ele>1780.032</ele>
        <time>2021-03-06T12:53:41Z</time>
      </trkpt>
      <trkpt lat="42.7439" lon="1.53781">
        <ele>1779.593</ele>
        <time>2021-03-06T12:53:43Z</time>
      </trkpt>
      <trkpt lat="42.74389" lon="1.53783">
        <ele>1779.2</ele>
        <time>2021-03-06T12:53:45Z</time>
      </trkpt>
      <trkpt lat="42.74388" lon="1.53786">
        <ele>1779.26</ele>
        <time>2021-03-06T12:53:47Z</time>
      </trkpt>
      <trkpt lat="42.74387" lon="1.53788">
        <ele>1778.962</ele>
        <time>2021-03-06T12:53:49Z</time>
      </trkpt>
      <trkpt lat="42.74386" lon="1.5379">
        <ele>1778.562</ele>
        <time>2021-03-06T12:53:51Z</time>
      </trkpt>
      <trkpt lat="42.74385" lon="1.53793">
        <ele>1777.795</ele>
        <time>2021-03-06T12:53:53Z</time>
      </trkpt>
      <trkpt lat="42.74384" lon="1.53795">
        <ele>1776.921</ele>
        <time>2021-03-06T12:53:55Z</time>
      </trkpt>
      <trkpt lat="42.74383" lon="1.53797">
        <ele>1776.59</ele>
        <time>2021-03-06T12:53:57Z</time>
      </trkpt>
      <trkpt lat="42.74382" lon="1.53799">
        <ele>1776.499</ele>
        <time>2021-03-06T12:53:59Z</time>
      </trkpt>
      <trkpt lat="42.74381" lon="1.53802">
        <ele>1775.979</ele>
        <time>2021-03-06T12:54:01Z</time>
      </trkpt>
      <trkpt lat="42.7438" lon="1.53807">
        <ele>1774.857</ele>
        <time>2021-03-06T12:54:03Z</time>
      </trkpt>
      <trkpt lat="42.74379" lon="1.53811">
        <ele>1774.064</ele>
        <time>2021-03-06T12:54:05Z</time>
      </trkpt>
      <trkpt lat="42.74378" lon="1.53815">
        <ele>1774.896</ele>
        <time>2021-03-06T12:54:07Z</time>
      </trkpt>
      <trkpt lat="42.74377" lon="1.53818">
        <ele>1774.325</ele>
        <time>2021-03-06T12:54:09Z</time>
      </trkpt>
      <trkpt lat="42.74376" lon="1.53821">
        <ele>1774.365</ele>
        <time>2021-03-06T12:54:11Z</time>
      </trkpt>
      <trkpt lat="42.74375" lon="1.53823">
        <ele>1773.93</ele>
        <time>2021-03-06T12:54:13Z</time>
      </trkpt>
      <trkpt lat="42.74374" lon="1.53826">
        <ele>1774.104</ele>
        <time>2021-03-06T12:54:15Z</time>
      </trkpt>
      <trkpt lat="42.74374" lon="1.53829">
        <ele>1774.126</ele>
        <time>2021-03-06T12:54:17Z</time>
      </trkpt>
      <trkpt lat="42.74373" lon="1.53832">
        <ele>1773.172</ele>
        <time>2021-03-06T12:54:19Z</time>
      </trkpt>
      <trkpt lat="42.74372" lon="1.53835">
        <ele>1772.994</ele>
        <time>2021-03-06T12:54:21Z</time>
      </trkpt>
      <trkpt lat="42.74371" lon="1.53838">
        <ele>1772.555</ele>
        <time>2021-03-06T12:54:23Z</time>
      </trkpt>
      <trkpt lat="42.7437" lon="1.5384">
        <ele>1773.393</ele>
        <time>2021-03-06T12:54:25Z</time>
      </trkpt>
      <trkpt lat="42.74369" lon="1.53843">
        <ele>1773.326</ele>
        <time>2021-03-06T12:54:27Z</time>
      </trkpt>
      <trkpt lat="42.74368" lon="1.53845">
        <ele>1773.349</ele>
        <time>2021-03-06T12:54:29Z</time>
      </trkpt>
      <trkpt lat="42.74366" lon="1.53848">
        <ele>1772.973</ele>
        <time>2021-03-06T12:54:31Z</time>
      </trkpt>
      <trkpt lat="42.74365" lon="1.5385">
        <ele>1772.596</ele>
        <time>2021-03-06T12:54:33Z</time>
      </trkpt>
      <trkpt lat="42.74364" lon="1.53853">
        <ele>1772.115</ele>
        <time>2021-03-06T12:54:35Z</time>
      </trkpt>
      <trkpt lat="42.74363" lon="1.53857">
        <ele>1771.412</ele>
        <time>2021-03-06T12:54:37Z</time>
      </trkpt>
      <trkpt lat="42.74362" lon="1.5386">
        <ele>1771.309</ele>
        <time>2021-03-06T12:54:39Z</time>
      </trkpt>
      <trkpt lat="42.7436" lon="1.53863">
        <ele>1771.171</ele>
        <time>2021-03-06T12:54:41Z</time>
      </trkpt>
      <trkpt lat="42.74359" lon="1.53866">
        <ele>1771.314</ele>
        <time>2021-03-06T12:54:43Z</time>
      </trkpt>
      <trkpt lat="42.74357" lon="1.53869">
        <ele>1771.619</ele>
        <time>2021-03-06T12:54:45Z</time>
      </trkpt>
      <trkpt lat="42.74356" lon="1.53871">
        <ele>1771.213</ele>
        <time>2021-03-06T12:54:47Z</time>
      </trkpt>
      <trkpt lat="42.74354" lon="1.53873">
        <ele>1770.65</ele>
        <time>2021-03-06T12:54:49Z</time>
      </trkpt>
      <trkpt lat="42.74352" lon="1.53876">
        <ele>1770.31</ele>
        <time>2021-03-06T12:54:51Z</time>
      </trkpt>
      <trkpt lat="42.74351" lon="1.53879">
        <ele>1769.87</ele>
        <time>2021-03-06T12:54:53Z</time>
      </trkpt>
      <trkpt lat="42.74349" lon="1.53881">
        <ele>1769.562</ele>
        <time>2021-03-06T12:54:55Z</time>
      </trkpt>
      <trkpt lat="42.74348" lon="1.53885">
        <ele>1768.634</ele>
        <time>2021-03-06T12:54:57Z</time>
      </trkpt>
      <trkpt lat="42.74346" lon="1.53887">
        <ele>1768.426</ele>
        <time>2021-03-06T12:54:59Z</time>
      </trkpt>
      <trkpt lat="42.74345" lon="1.5389">
        <ele>1767.663</ele>
        <time>2021-03-06T12:55:01Z</time>
      </trkpt>
      <trkpt lat="42.74344" lon="1.53893">
        <ele>1767.009</ele>
        <time>2021-03-06T12:55:03Z</time>
      </trkpt>
      <trkpt lat="42.74343" lon="1.53896">
        <ele>1766.924</ele>
        <time>2021-03-06T12:55:05Z</time>
      </trkpt>
      <trkpt lat="42.74342" lon="1.53899">
        <ele>1766.865</ele>
        <time>2021-03-06T12:55:07Z</time>
      </trkpt>
      <trkpt lat="42.74341" lon="1.53902">
        <ele>1766.614</ele>
        <time>2021-03-06T12:55:09Z</time>
      </trkpt>
      <trkpt lat="42.74339" lon="1.53905">
        <ele>1767.234</ele>
        <time>2021-03-06T12:55:11Z</time>
      </trkpt>
      <trkpt lat="42.74338" lon="1.53907">
        <ele>1766.78</ele>
        <time>2021-03-06T12:55:13Z</time>
      </trkpt>
      <trkpt lat="42.74336" lon="1.53909">
        <ele>1766.901</ele>
        <time>2021-03-06T12:55:15Z</time>
      </trkpt>
      <trkpt lat="42.74335" lon="1.53911">
        <ele>1766.817</ele>
        <time>2021-03-06T12:55:17Z</time>
      </trkpt>
      <trkpt lat="42.74333" lon="1.53914">
        <ele>1765.68</ele>
        <time>2021-03-06T12:55:19Z</time>
      </trkpt>
      <trkpt lat="42.74331" lon="1.53916">
        <ele>1765.487</ele>
        <time>2021-03-06T12:55:21Z</time>
      </trkpt>
      <trkpt lat="42.74329" lon="1.53918">
        <ele>1764.41</ele>
        <time>2021-03-06T12:55:23Z</time>
      </trkpt>
      <trkpt lat="42.74327" lon="1.53921">
        <ele>1763.977</ele>
        <time>2021-03-06T12:55:25Z</time>
      </trkpt>
      <trkpt lat="42.74325" lon="1.53923">
        <ele>1763.493</ele>
        <time>2021-03-06T12:55:27Z</time>
      </trkpt>
      <trkpt lat="42.74323" lon="1.53925">
        <ele>1762.383</ele>
        <time>2021-03-06T12:55:29Z</time>
      </trkpt>
      <trkpt lat="42.74321" lon="1.53927">
        <ele>1762.113</ele>
        <time>2021-03-06T12:55:31Z</time>
      </trkpt>
      <trkpt lat="42.7432" lon="1.53928">
        <ele>1762.522</ele>
        <time>2021-03-06T12:55:32Z</time>
      </trkpt>
      <trkpt lat="42.74317" lon="1.53931">
        <ele>1762.584</ele>
        <time>2021-03-06T12:55:35Z</time>
      </trkpt>
      <trkpt lat="42.74316" lon="1.53933">
        <ele>1761.911</ele>
        <time>2021-03-06T12:55:37Z</time>
      </trkpt>
      <trkpt lat="42.74314" lon="1.53935">
        <ele>1761.197</ele>
        <time>2021-03-06T12:55:39Z</time>
      </trkpt>
      <trkpt lat="42.74312" lon="1.53937">
        <ele>1760.702</ele>
        <time>2021-03-06T12:55:41Z</time>
      </trkpt>
      <trkpt lat="42.7431" lon="1.53939">
        <ele>1760.37</ele>
        <time>2021-03-06T12:55:43Z</time>
      </trkpt>
      <trkpt lat="42.74308" lon="1.53941">
        <ele>1759.651</ele>
        <time>2021-03-06T12:55:45Z</time>
      </trkpt>
      <trkpt lat="42.74306" lon="1.53943">
        <ele>1760.041</ele>
        <time>2021-03-06T12:55:47Z</time>
      </trkpt>
      <trkpt lat="42.74304" lon="1.53944">
        <ele>1759.378</ele>
        <time>2021-03-06T12:55:49Z</time>
      </trkpt>
      <trkpt lat="42.74302" lon="1.53945">
        <ele>1758.918</ele>
        <time>2021-03-06T12:55:51Z</time>
      </trkpt>
      <trkpt lat="42.74299" lon="1.53947">
        <ele>1758.682</ele>
        <time>2021-03-06T12:55:53Z</time>
      </trkpt>
      <trkpt lat="42.74297" lon="1.53948">
        <ele>1758.602</ele>
        <time>2021-03-06T12:55:55Z</time>
      </trkpt>
      <trkpt lat="42.74295" lon="1.5395">
        <ele>1757.67</ele>
        <time>2021-03-06T12:55:57Z</time>
      </trkpt>
      <trkpt lat="42.74293" lon="1.53952">
        <ele>1757.045</ele>
        <time>2021-03-06T12:55:59Z</time>
      </trkpt>
      <trkpt lat="42.7429" lon="1.53952">
        <ele>1757.946</ele>
        <time>2021-03-06T12:56:01Z</time>
      </trkpt>
      <trkpt lat="42.74287" lon="1.53953">
        <ele>1757.548</ele>
        <time>2021-03-06T12:56:03Z</time>
      </trkpt>
      <trkpt lat="42.74285" lon="1.53954">
        <ele>1756.963</ele>
        <time>2021-03-06T12:56:05Z</time>
      </trkpt>
      <trkpt lat="42.74283" lon="1.53955">
        <ele>1755.731</ele>
        <time>2021-03-06T12:56:07Z</time>
      </trkpt>
      <trkpt lat="42.74281" lon="1.53956">
        <ele>1754.522</ele>
        <time>2021-03-06T12:56:09Z</time>
      </trkpt>
      <trkpt lat="42.74279" lon="1.53958">
        <ele>1754.525</ele>
        <time>2021-03-06T12:56:11Z</time>
      </trkpt>
      <trkpt lat="42.74278" lon="1.53961">
        <ele>1752.393</ele>
        <time>2021-03-06T12:56:13Z</time>
      </trkpt>
      <trkpt lat="42.74278" lon="1.53965">
        <ele>1751.051</ele>
        <time>2021-03-06T12:56:15Z</time>
      </trkpt>
      <trkpt lat="42.74277" lon="1.53969">
        <ele>1749.633</ele>
        <time>2021-03-06T12:56:17Z</time>
      </trkpt>
      <trkpt lat="42.74278" lon="1.53973">
        <ele>1748.956</ele>
        <time>2021-03-06T12:56:19Z</time>
      </trkpt>
      <trkpt lat="42.74281" lon="1.53975">
        <ele>1748.258</ele>
        <time>2021-03-06T12:56:21Z</time>
      </trkpt>
      <trkpt lat="42.74283" lon="1.53977">
        <ele>1747.9</ele>
        <time>2021-03-06T12:56:23Z</time>
      </trkpt>
      <trkpt lat="42.74285" lon="1.53978">
        <ele>1748.136</ele>
        <time>2021-03-06T12:56:25Z</time>
      </trkpt>
      <trkpt lat="42.74287" lon="1.53979">
        <ele>1748.479</ele>
        <time>2021-03-06T12:56:27Z</time>
      </trkpt>
      <trkpt lat="42.74289" lon="1.53979">
        <ele>1748.031</ele>
        <time>2021-03-06T12:56:29Z</time>
      </trkpt>
      <trkpt lat="42.74291" lon="1.53979">
        <ele>1747.305</ele>
        <time>2021-03-06T12:56:31Z</time>
      </trkpt>
      <trkpt lat="42.74293" lon="1.5398">
        <ele>1746.585</ele>
        <time>2021-03-06T12:56:33Z</time>
      </trkpt>
      <trkpt lat="42.74296" lon="1.5398">
        <ele>1746.171</ele>
        <time>2021-03-06T12:56:35Z</time>
      </trkpt>
      <trkpt lat="42.74298" lon="1.53981">
        <ele>1745.968</ele>
        <time>2021-03-06T12:56:37Z</time>
      </trkpt>
      <trkpt lat="42.743" lon="1.53982">
        <ele>1745.152</ele>
        <time>2021-03-06T12:56:39Z</time>
      </trkpt>
      <trkpt lat="42.74302" lon="1.53983">
        <ele>1744.876</ele>
        <time>2021-03-06T12:56:41Z</time>
      </trkpt>
      <trkpt lat="42.74305" lon="1.53984">
        <ele>1745.019</ele>
        <time>2021-03-06T12:56:43Z</time>
      </trkpt>
      <trkpt lat="42.74307" lon="1.53985">
        <ele>1745.188</ele>
        <time>2021-03-06T12:56:45Z</time>
      </trkpt>
      <trkpt lat="42.74309" lon="1.53986">
        <ele>1744.723</ele>
        <time>2021-03-06T12:56:47Z</time>
      </trkpt>
      <trkpt lat="42.74311" lon="1.53987">
        <ele>1744.226</ele>
        <time>2021-03-06T12:56:49Z</time>
      </trkpt>
      <trkpt lat="42.74313" lon="1.53987">
        <ele>1744</ele>
        <time>2021-03-06T12:56:51Z</time>
      </trkpt>
      <trkpt lat="42.74316" lon="1.53988">
        <ele>1743.054</ele>
        <time>2021-03-06T12:56:53Z</time>
      </trkpt>
      <trkpt lat="42.74318" lon="1.53988">
        <ele>1742.149</ele>
        <time>2021-03-06T12:56:55Z</time>
      </trkpt>
      <trkpt lat="42.7432" lon="1.53988">
        <ele>1741.297</ele>
        <time>2021-03-06T12:56:57Z</time>
      </trkpt>
      <trkpt lat="42.74323" lon="1.53988">
        <ele>1740.575</ele>
        <time>2021-03-06T12:56:59Z</time>
      </trkpt>
      <trkpt lat="42.74325" lon="1.53989">
        <ele>1740.274</ele>
        <time>2021-03-06T12:57:01Z</time>
      </trkpt>
      <trkpt lat="42.74327" lon="1.53989">
        <ele>1740.331</ele>
        <time>2021-03-06T12:57:03Z</time>
      </trkpt>
      <trkpt lat="42.7433" lon="1.53989">
        <ele>1739.891</ele>
        <time>2021-03-06T12:57:05Z</time>
      </trkpt>
      <trkpt lat="42.74332" lon="1.53989">
        <ele>1739.064</ele>
        <time>2021-03-06T12:57:07Z</time>
      </trkpt>
      <trkpt lat="42.74335" lon="1.5399">
        <ele>1739.398</ele>
        <time>2021-03-06T12:57:09Z</time>
      </trkpt>
      <trkpt lat="42.74337" lon="1.5399">
        <ele>1739.822</ele>
        <time>2021-03-06T12:57:11Z</time>
      </trkpt>
      <trkpt lat="42.7434" lon="1.53991">
        <ele>1738.419</ele>
        <time>2021-03-06T12:57:13Z</time>
      </trkpt>
      <trkpt lat="42.74342" lon="1.53991">
        <ele>1737.032</ele>
        <time>2021-03-06T12:57:15Z</time>
      </trkpt>
      <trkpt lat="42.74344" lon="1.53991">
        <ele>1736.361</ele>
        <time>2021-03-06T12:57:17Z</time>
      </trkpt>
      <trkpt lat="42.74346" lon="1.53992">
        <ele>1735.731</ele>
        <time>2021-03-06T12:57:19Z</time>
      </trkpt>
      <trkpt lat="42.74348" lon="1.53992">
        <ele>1735.404</ele>
        <time>2021-03-06T12:57:21Z</time>
      </trkpt>
      <trkpt lat="42.74351" lon="1.53993">
        <ele>1735.219</ele>
        <time>2021-03-06T12:57:23Z</time>
      </trkpt>
      <trkpt lat="42.74353" lon="1.53993">
        <ele>1735.19</ele>
        <time>2021-03-06T12:57:25Z</time>
      </trkpt>
      <trkpt lat="42.74355" lon="1.53993">
        <ele>1734.726</ele>
        <time>2021-03-06T12:57:27Z</time>
      </trkpt>
      <trkpt lat="42.74358" lon="1.53993">
        <ele>1734.018</ele>
        <time>2021-03-06T12:57:29Z</time>
      </trkpt>
      <trkpt lat="42.7436" lon="1.53993">
        <ele>1733.491</ele>
        <time>2021-03-06T12:57:31Z</time>
      </trkpt>
      <trkpt lat="42.74362" lon="1.53993">
        <ele>1732.751</ele>
        <time>2021-03-06T12:57:33Z</time>
      </trkpt>
      <trkpt lat="42.74365" lon="1.53994">
        <ele>1731.458</ele>
        <time>2021-03-06T12:57:35Z</time>
      </trkpt>
      <trkpt lat="42.74367" lon="1.53993">
        <ele>1731.033</ele>
        <time>2021-03-06T12:57:37Z</time>
      </trkpt>
      <trkpt lat="42.7437" lon="1.53993">
        <ele>1730.919</ele>
        <time>2021-03-06T12:57:39Z</time>
      </trkpt>
      <trkpt lat="42.74372" lon="1.53993">
        <ele>1730.164</ele>
        <time>2021-03-06T12:57:41Z</time>
      </trkpt>
      <trkpt lat="42.74375" lon="1.53992">
        <ele>1730.098</ele>
        <time>2021-03-06T12:57:43Z</time>
      </trkpt>
      <trkpt lat="42.74377" lon="1.53992">
        <ele>1729.811</ele>
        <time>2021-03-06T12:57:45Z</time>
      </trkpt>
      <trkpt lat="42.7438" lon="1.53992">
        <ele>1729.342</ele>
        <time>2021-03-06T12:57:47Z</time>
      </trkpt>
      <trkpt lat="42.74382" lon="1.53992">
        <ele>1728.331</ele>
        <time>2021-03-06T12:57:49Z</time>
      </trkpt>
      <trkpt lat="42.74384" lon="1.53992">
        <ele>1727.334</ele>
        <time>2021-03-06T12:57:51Z</time>
      </trkpt>
      <trkpt lat="42.74386" lon="1.53992">
        <ele>1725.396</ele>
        <time>2021-03-06T12:57:53Z</time>
      </trkpt>
      <trkpt lat="42.74388" lon="1.53991">
        <ele>1724.603</ele>
        <time>2021-03-06T12:57:55Z</time>
      </trkpt>
      <trkpt lat="42.7439" lon="1.53991">
        <ele>1723.691</ele>
        <time>2021-03-06T12:57:57Z</time>
      </trkpt>
      <trkpt lat="42.74392" lon="1.53991">
        <ele>1722.925</ele>
        <time>2021-03-06T12:57:59Z</time>
      </trkpt>
      <trkpt lat="42.74394" lon="1.53989">
        <ele>1721.986</ele>
        <time>2021-03-06T12:58:01Z</time>
      </trkpt>
      <trkpt lat="42.74396" lon="1.53989">
        <ele>1721.433</ele>
        <time>2021-03-06T12:58:03Z</time>
      </trkpt>
      <trkpt lat="42.74397" lon="1.53989">
        <ele>1720.824</ele>
        <time>2021-03-06T12:58:05Z</time>
      </trkpt>
      <trkpt lat="42.74398" lon="1.53989">
        <ele>1719.819</ele>
        <time>2021-03-06T12:58:07Z</time>
      </trkpt>
      <trkpt lat="42.744" lon="1.53989">
        <ele>1719.318</ele>
        <time>2021-03-06T12:58:09Z</time>
      </trkpt>
      <trkpt lat="42.74401" lon="1.5399">
        <ele>1718.304</ele>
        <time>2021-03-06T12:58:11Z</time>
      </trkpt>
      <trkpt lat="42.74403" lon="1.53991">
        <ele>1717.017</ele>
        <time>2021-03-06T12:58:13Z</time>
      </trkpt>
      <trkpt lat="42.74404" lon="1.53992">
        <ele>1715.377</ele>
        <time>2021-03-06T12:58:15Z</time>
      </trkpt>
      <trkpt lat="42.74406" lon="1.53994">
        <ele>1714.057</ele>
        <time>2021-03-06T12:58:17Z</time>
      </trkpt>
      <trkpt lat="42.74406" lon="1.53997">
        <ele>1713.581</ele>
        <time>2021-03-06T12:58:19Z</time>
      </trkpt>
      <trkpt lat="42.74405" lon="1.54">
        <ele>1713.099</ele>
        <time>2021-03-06T12:58:21Z</time>
      </trkpt>
      <trkpt lat="42.74405" lon="1.54003">
        <ele>1713.362</ele>
        <time>2021-03-06T12:58:23Z</time>
      </trkpt>
      <trkpt lat="42.74404" lon="1.54005">
        <ele>1713.34</ele>
        <time>2021-03-06T12:58:25Z</time>
      </trkpt>
      <trkpt lat="42.74403" lon="1.54008">
        <ele>1712.423</ele>
        <time>2021-03-06T12:58:27Z</time>
      </trkpt>
      <trkpt lat="42.74402" lon="1.54013">
        <ele>1711.579</ele>
        <time>2021-03-06T12:58:29Z</time>
      </trkpt>
      <trkpt lat="42.74401" lon="1.54016">
        <ele>1712.717</ele>
        <time>2021-03-06T12:58:31Z</time>
      </trkpt>
      <trkpt lat="42.744" lon="1.54017">
        <ele>1712.763</ele>
        <time>2021-03-06T12:58:33Z</time>
      </trkpt>
      <trkpt lat="42.744" lon="1.54017">
        <ele>1712.079</ele>
        <time>2021-03-06T12:58:35Z</time>
      </trkpt>
      <trkpt lat="42.744" lon="1.54019">
        <ele>1712.009</ele>
        <time>2021-03-06T12:58:37Z</time>
      </trkpt>
      <trkpt lat="42.744" lon="1.54021">
        <ele>1711.171</ele>
        <time>2021-03-06T12:58:39Z</time>
      </trkpt>
      <trkpt lat="42.74399" lon="1.54023">
        <ele>1710.062</ele>
        <time>2021-03-06T12:58:41Z</time>
      </trkpt>
      <trkpt lat="42.74399" lon="1.54025">
        <ele>1708.776</ele>
        <time>2021-03-06T12:58:43Z</time>
      </trkpt>
      <trkpt lat="42.74398" lon="1.54028">
        <ele>1708.493</ele>
        <time>2021-03-06T12:58:45Z</time>
      </trkpt>
      <trkpt lat="42.74397" lon="1.5403">
        <ele>1707.62</ele>
        <time>2021-03-06T12:58:47Z</time>
      </trkpt>
      <trkpt lat="42.74396" lon="1.54033">
        <ele>1707.239</ele>
        <time>2021-03-06T12:58:49Z</time>
      </trkpt>
      <trkpt lat="42.74395" lon="1.54035">
        <ele>1707.099</ele>
        <time>2021-03-06T12:58:51Z</time>
      </trkpt>
      <trkpt lat="42.74395" lon="1.54038">
        <ele>1706.422</ele>
        <time>2021-03-06T12:58:53Z</time>
      </trkpt>
      <trkpt lat="42.74394" lon="1.5404">
        <ele>1706.23</ele>
        <time>2021-03-06T12:58:55Z</time>
      </trkpt>
      <trkpt lat="42.74393" lon="1.54043">
        <ele>1706.56</ele>
        <time>2021-03-06T12:58:57Z</time>
      </trkpt>
      <trkpt lat="42.74392" lon="1.54046">
        <ele>1705.864</ele>
        <time>2021-03-06T12:58:59Z</time>
      </trkpt>
      <trkpt lat="42.74391" lon="1.54048">
        <ele>1705.396</ele>
        <time>2021-03-06T12:59:01Z</time>
      </trkpt>
      <trkpt lat="42.7439" lon="1.54051">
        <ele>1705.142</ele>
        <time>2021-03-06T12:59:03Z</time>
      </trkpt>
      <trkpt lat="42.74389" lon="1.54054">
        <ele>1704.983</ele>
        <time>2021-03-06T12:59:05Z</time>
      </trkpt>
      <trkpt lat="42.74389" lon="1.54056">
        <ele>1704.806</ele>
        <time>2021-03-06T12:59:07Z</time>
      </trkpt>
      <trkpt lat="42.74388" lon="1.54059">
        <ele>1704.322</ele>
        <time>2021-03-06T12:59:09Z</time>
      </trkpt>
      <trkpt lat="42.74387" lon="1.54062">
        <ele>1703.407</ele>
        <time>2021-03-06T12:59:11Z</time>
      </trkpt>
      <trkpt lat="42.74386" lon="1.54065">
        <ele>1703.224</ele>
        <time>2021-03-06T12:59:13Z</time>
      </trkpt>
      <trkpt lat="42.74385" lon="1.54068">
        <ele>1702.824</ele>
        <time>2021-03-06T12:59:15Z</time>
      </trkpt>
      <trkpt lat="42.74384" lon="1.54071">
        <ele>1702.694</ele>
        <time>2021-03-06T12:59:17Z</time>
      </trkpt>
      <trkpt lat="42.74383" lon="1.54073">
        <ele>1701.278</ele>
        <time>2021-03-06T12:59:19Z</time>
      </trkpt>
      <trkpt lat="42.74382" lon="1.54076">
        <ele>1700.979</ele>
        <time>2021-03-06T12:59:21Z</time>
      </trkpt>
      <trkpt lat="42.74381" lon="1.54079">
        <ele>1700.916</ele>
        <time>2021-03-06T12:59:23Z</time>
      </trkpt>
      <trkpt lat="42.7438" lon="1.54082">
        <ele>1700.861</ele>
        <time>2021-03-06T12:59:25Z</time>
      </trkpt>
      <trkpt lat="42.74379" lon="1.54085">
        <ele>1700.412</ele>
        <time>2021-03-06T12:59:27Z</time>
      </trkpt>
      <trkpt lat="42.74378" lon="1.54088">
        <ele>1700.724</ele>
        <time>2021-03-06T12:59:29Z</time>
      </trkpt>
      <trkpt lat="42.74378" lon="1.54091">
        <ele>1700.33</ele>
        <time>2021-03-06T12:59:31Z</time>
      </trkpt>
      <trkpt lat="42.74377" lon="1.54094">
        <ele>1699.671</ele>
        <time>2021-03-06T12:59:33Z</time>
      </trkpt>
      <trkpt lat="42.74376" lon="1.54096">
        <ele>1699.486</ele>
        <time>2021-03-06T12:59:35Z</time>
      </trkpt>
      <trkpt lat="42.74374" lon="1.54099">
        <ele>1698.652</ele>
        <time>2021-03-06T12:59:37Z</time>
      </trkpt>
      <trkpt lat="42.74373" lon="1.54102">
        <ele>1697.932</ele>
        <time>2021-03-06T12:59:39Z</time>
      </trkpt>
      <trkpt lat="42.74372" lon="1.54104">
        <ele>1697.298</ele>
        <time>2021-03-06T12:59:41Z</time>
      </trkpt>
      <trkpt lat="42.7437" lon="1.54106">
        <ele>1697.112</ele>
        <time>2021-03-06T12:59:43Z</time>
      </trkpt>
      <trkpt lat="42.74369" lon="1.54109">
        <ele>1696.694</ele>
        <time>2021-03-06T12:59:45Z</time>
      </trkpt>
      <trkpt lat="42.74368" lon="1.54111">
        <ele>1696.407</ele>
        <time>2021-03-06T12:59:47Z</time>
      </trkpt>
      <trkpt lat="42.74366" lon="1.54113">
        <ele>1696.262</ele>
        <time>2021-03-06T12:59:49Z</time>
      </trkpt>
      <trkpt lat="42.74364" lon="1.54115">
        <ele>1695.749</ele>
        <time>2021-03-06T12:59:51Z</time>
      </trkpt>
      <trkpt lat="42.74362" lon="1.54117">
        <ele>1695.574</ele>
        <time>2021-03-06T12:59:53Z</time>
      </trkpt>
      <trkpt lat="42.7436" lon="1.5412">
        <ele>1695.011</ele>
        <time>2021-03-06T12:59:55Z</time>
      </trkpt>
      <trkpt lat="42.74357" lon="1.54121">
        <ele>1693.921</ele>
        <time>2021-03-06T12:59:57Z</time>
      </trkpt>
      <trkpt lat="42.74355" lon="1.54123">
        <ele>1693.84</ele>
        <time>2021-03-06T12:59:59Z</time>
      </trkpt>
      <trkpt lat="42.74353" lon="1.54125">
        <ele>1693.202</ele>
        <time>2021-03-06T13:00:01Z</time>
      </trkpt>
      <trkpt lat="42.74351" lon="1.54126">
        <ele>1693.19</ele>
        <time>2021-03-06T13:00:03Z</time>
      </trkpt>
      <trkpt lat="42.74349" lon="1.54128">
        <ele>1692.751</ele>
        <time>2021-03-06T13:00:05Z</time>
      </trkpt>
      <trkpt lat="42.74348" lon="1.5413">
        <ele>1691.75</ele>
        <time>2021-03-06T13:00:07Z</time>
      </trkpt>
      <trkpt lat="42.74346" lon="1.54132">
        <ele>1691.98</ele>
        <time>2021-03-06T13:00:09Z</time>
      </trkpt>
      <trkpt lat="42.74345" lon="1.54135">
        <ele>1691.926</ele>
        <time>2021-03-06T13:00:11Z</time>
      </trkpt>
      <trkpt lat="42.74347" lon="1.54139">
        <ele>1691.22</ele>
        <time>2021-03-06T13:00:13Z</time>
      </trkpt>
      <trkpt lat="42.74349" lon="1.5414">
        <ele>1690.398</ele>
        <time>2021-03-06T13:00:15Z</time>
      </trkpt>
      <trkpt lat="42.74352" lon="1.54141">
        <ele>1689.279</ele>
        <time>2021-03-06T13:00:17Z</time>
      </trkpt>
      <trkpt lat="42.74354" lon="1.54143">
        <ele>1688.109</ele>
        <time>2021-03-06T13:00:19Z</time>
      </trkpt>
      <trkpt lat="42.74357" lon="1.54143">
        <ele>1687.021</ele>
        <time>2021-03-06T13:00:21Z</time>
      </trkpt>
      <trkpt lat="42.7436" lon="1.54144">
        <ele>1686.188</ele>
        <time>2021-03-06T13:00:23Z</time>
      </trkpt>
      <trkpt lat="42.74362" lon="1.54145">
        <ele>1685.714</ele>
        <time>2021-03-06T13:00:25Z</time>
      </trkpt>
      <trkpt lat="42.74365" lon="1.54146">
        <ele>1685.295</ele>
        <time>2021-03-06T13:00:27Z</time>
      </trkpt>
      <trkpt lat="42.74367" lon="1.54146">
        <ele>1684.17</ele>
        <time>2021-03-06T13:00:29Z</time>
      </trkpt>
      <trkpt lat="42.7437" lon="1.54147">
        <ele>1683.341</ele>
        <time>2021-03-06T13:00:31Z</time>
      </trkpt>
      <trkpt lat="42.74372" lon="1.54147">
        <ele>1682.516</ele>
        <time>2021-03-06T13:00:33Z</time>
      </trkpt>
      <trkpt lat="42.74374" lon="1.54148">
        <ele>1681.639</ele>
        <time>2021-03-06T13:00:35Z</time>
      </trkpt>
      <trkpt lat="42.74377" lon="1.54148">
        <ele>1681.01</ele>
        <time>2021-03-06T13:00:37Z</time>
      </trkpt>
      <trkpt lat="42.74379" lon="1.54148">
        <ele>1680.425</ele>
        <time>2021-03-06T13:00:39Z</time>
      </trkpt>
      <trkpt lat="42.74382" lon="1.54148">
        <ele>1679.9</ele>
        <time>2021-03-06T13:00:41Z</time>
      </trkpt>
      <trkpt lat="42.74384" lon="1.54149">
        <ele>1679.364</ele>
        <time>2021-03-06T13:00:43Z</time>
      </trkpt>
      <trkpt lat="42.74386" lon="1.5415">
        <ele>1678.227</ele>
        <time>2021-03-06T13:00:45Z</time>
      </trkpt>
      <trkpt lat="42.74389" lon="1.5415">
        <ele>1677.4</ele>
        <time>2021-03-06T13:00:47Z</time>
      </trkpt>
      <trkpt lat="42.74391" lon="1.54149">
        <ele>1676.493</ele>
        <time>2021-03-06T13:00:49Z</time>
      </trkpt>
      <trkpt lat="42.74393" lon="1.54149">
        <ele>1675.66</ele>
        <time>2021-03-06T13:00:51Z</time>
      </trkpt>
      <trkpt lat="42.74395" lon="1.54148">
        <ele>1674.422</ele>
        <time>2021-03-06T13:00:53Z</time>
      </trkpt>
      <trkpt lat="42.74397" lon="1.54148">
        <ele>1673.751</ele>
        <time>2021-03-06T13:00:55Z</time>
      </trkpt>
      <trkpt lat="42.74399" lon="1.54147">
        <ele>1673.034</ele>
        <time>2021-03-06T13:00:57Z</time>
      </trkpt>
      <trkpt lat="42.74401" lon="1.54148">
        <ele>1672.354</ele>
        <time>2021-03-06T13:00:59Z</time>
      </trkpt>
      <trkpt lat="42.74403" lon="1.54148">
        <ele>1671.393</ele>
        <time>2021-03-06T13:01:01Z</time>
      </trkpt>
      <trkpt lat="42.74404" lon="1.54148">
        <ele>1670.439</ele>
        <time>2021-03-06T13:01:03Z</time>
      </trkpt>
      <trkpt lat="42.74406" lon="1.54148">
        <ele>1670.098</ele>
        <time>2021-03-06T13:01:05Z</time>
      </trkpt>
      <trkpt lat="42.74408" lon="1.54148">
        <ele>1668.828</ele>
        <time>2021-03-06T13:01:07Z</time>
      </trkpt>
      <trkpt lat="42.7441" lon="1.54149">
        <ele>1668.611</ele>
        <time>2021-03-06T13:01:09Z</time>
      </trkpt>
      <trkpt lat="42.74412" lon="1.5415">
        <ele>1668.598</ele>
        <time>2021-03-06T13:01:11Z</time>
      </trkpt>
      <trkpt lat="42.74414" lon="1.54151">
        <ele>1667.918</ele>
        <time>2021-03-06T13:01:13Z</time>
      </trkpt>
      <trkpt lat="42.74416" lon="1.54154">
        <ele>1667.283</ele>
        <time>2021-03-06T13:01:15Z</time>
      </trkpt>
      <trkpt lat="42.74415" lon="1.54158">
        <ele>1666.631</ele>
        <time>2021-03-06T13:01:17Z</time>
      </trkpt>
      <trkpt lat="42.74415" lon="1.54161">
        <ele>1666.14</ele>
        <time>2021-03-06T13:01:19Z</time>
      </trkpt>
      <trkpt lat="42.74415" lon="1.54164">
        <ele>1665.841</ele>
        <time>2021-03-06T13:01:21Z</time>
      </trkpt>
      <trkpt lat="42.74415" lon="1.54167">
        <ele>1665.447</ele>
        <time>2021-03-06T13:01:23Z</time>
      </trkpt>
      <trkpt lat="42.74414" lon="1.54171">
        <ele>1665.055</ele>
        <time>2021-03-06T13:01:25Z</time>
      </trkpt>
      <trkpt lat="42.74413" lon="1.54174">
        <ele>1664.855</ele>
        <time>2021-03-06T13:01:27Z</time>
      </trkpt>
      <trkpt lat="42.74413" lon="1.54177">
        <ele>1664.708</ele>
        <time>2021-03-06T13:01:29Z</time>
      </trkpt>
      <trkpt lat="42.74412" lon="1.5418">
        <ele>1664.916</ele>
        <time>2021-03-06T13:01:31Z</time>
      </trkpt>
      <trkpt lat="42.7441" lon="1.54182">
        <ele>1664.623</ele>
        <time>2021-03-06T13:01:33Z</time>
      </trkpt>
      <trkpt lat="42.74409" lon="1.54185">
        <ele>1664.379</ele>
        <time>2021-03-06T13:01:35Z</time>
      </trkpt>
      <trkpt lat="42.74407" lon="1.54189">
        <ele>1663.748</ele>
        <time>2021-03-06T13:01:37Z</time>
      </trkpt>
      <trkpt lat="42.74406" lon="1.54192">
        <ele>1663.915</ele>
        <time>2021-03-06T13:01:39Z</time>
      </trkpt>
      <trkpt lat="42.74405" lon="1.54195">
        <ele>1663.563</ele>
        <time>2021-03-06T13:01:41Z</time>
      </trkpt>
      <trkpt lat="42.74404" lon="1.54198">
        <ele>1662.919</ele>
        <time>2021-03-06T13:01:43Z</time>
      </trkpt>
      <trkpt lat="42.74402" lon="1.54201">
        <ele>1662.58</ele>
        <time>2021-03-06T13:01:45Z</time>
      </trkpt>
      <trkpt lat="42.74401" lon="1.54203">
        <ele>1661.799</ele>
        <time>2021-03-06T13:01:47Z</time>
      </trkpt>
      <trkpt lat="42.744" lon="1.54206">
        <ele>1661.634</ele>
        <time>2021-03-06T13:01:49Z</time>
      </trkpt>
      <trkpt lat="42.74398" lon="1.54209">
        <ele>1661.288</ele>
        <time>2021-03-06T13:01:51Z</time>
      </trkpt>
      <trkpt lat="42.74397" lon="1.54211">
        <ele>1660.554</ele>
        <time>2021-03-06T13:01:53Z</time>
      </trkpt>
      <trkpt lat="42.74396" lon="1.54214">
        <ele>1659.994</ele>
        <time>2021-03-06T13:01:55Z</time>
      </trkpt>
      <trkpt lat="42.74394" lon="1.54217">
        <ele>1659.309</ele>
        <time>2021-03-06T13:01:57Z</time>
      </trkpt>
      <trkpt lat="42.74393" lon="1.5422">
        <ele>1658.108</ele>
        <time>2021-03-06T13:01:59Z</time>
      </trkpt>
      <trkpt lat="42.74391" lon="1.54222">
        <ele>1657.245</ele>
        <time>2021-03-06T13:02:01Z</time>
      </trkpt>
      <trkpt lat="42.7439" lon="1.54225">
        <ele>1656.186</ele>
        <time>2021-03-06T13:02:03Z</time>
      </trkpt>
      <trkpt lat="42.74388" lon="1.54227">
        <ele>1655.501</ele>
        <time>2021-03-06T13:02:05Z</time>
      </trkpt>
      <trkpt lat="42.74386" lon="1.54229">
        <ele>1655.351</ele>
        <time>2021-03-06T13:02:07Z</time>
      </trkpt>
      <trkpt lat="42.74384" lon="1.54231">
        <ele>1654.682</ele>
        <time>2021-03-06T13:02:09Z</time>
      </trkpt>
      <trkpt lat="42.74381" lon="1.54234">
        <ele>1653.453</ele>
        <time>2021-03-06T13:02:11Z</time>
      </trkpt>
      <trkpt lat="42.74379" lon="1.54238">
        <ele>1652.509</ele>
        <time>2021-03-06T13:02:13Z</time>
      </trkpt>
      <trkpt lat="42.74378" lon="1.54241">
        <ele>1651.131</ele>
        <time>2021-03-06T13:02:15Z</time>
      </trkpt>
      <trkpt lat="42.74378" lon="1.54245">
        <ele>1650.782</ele>
        <time>2021-03-06T13:02:17Z</time>
      </trkpt>
      <trkpt lat="42.7438" lon="1.54248">
        <ele>1651.369</ele>
        <time>2021-03-06T13:02:19Z</time>
      </trkpt>
      <trkpt lat="42.74383" lon="1.54248">
        <ele>1650.499</ele>
        <time>2021-03-06T13:02:21Z</time>
      </trkpt>
      <trkpt lat="42.74385" lon="1.5425">
        <ele>1650.128</ele>
        <time>2021-03-06T13:02:23Z</time>
      </trkpt>
      <trkpt lat="42.74387" lon="1.54251">
        <ele>1649.018</ele>
        <time>2021-03-06T13:02:25Z</time>
      </trkpt>
      <trkpt lat="42.74389" lon="1.54252">
        <ele>1648.301</ele>
        <time>2021-03-06T13:02:27Z</time>
      </trkpt>
      <trkpt lat="42.74392" lon="1.54254">
        <ele>1646.685</ele>
        <time>2021-03-06T13:02:29Z</time>
      </trkpt>
      <trkpt lat="42.74394" lon="1.54256">
        <ele>1645.276</ele>
        <time>2021-03-06T13:02:31Z</time>
      </trkpt>
      <trkpt lat="42.74396" lon="1.54258">
        <ele>1644.223</ele>
        <time>2021-03-06T13:02:33Z</time>
      </trkpt>
      <trkpt lat="42.74399" lon="1.5426">
        <ele>1643.312</ele>
        <time>2021-03-06T13:02:35Z</time>
      </trkpt>
      <trkpt lat="42.74401" lon="1.54262">
        <ele>1643.103</ele>
        <time>2021-03-06T13:02:37Z</time>
      </trkpt>
      <trkpt lat="42.74403" lon="1.54264">
        <ele>1642.211</ele>
        <time>2021-03-06T13:02:39Z</time>
      </trkpt>
      <trkpt lat="42.74405" lon="1.54266">
        <ele>1642.237</ele>
        <time>2021-03-06T13:02:41Z</time>
      </trkpt>
      <trkpt lat="42.74407" lon="1.54268">
        <ele>1641.678</ele>
        <time>2021-03-06T13:02:43Z</time>
      </trkpt>
      <trkpt lat="42.7441" lon="1.5427">
        <ele>1641.731</ele>
        <time>2021-03-06T13:02:45Z</time>
      </trkpt>
      <trkpt lat="42.74413" lon="1.54274">
        <ele>1642.144</ele>
        <time>2021-03-06T13:02:48Z</time>
      </trkpt>
      <trkpt lat="42.74415" lon="1.54275">
        <ele>1642.139</ele>
        <time>2021-03-06T13:02:50Z</time>
      </trkpt>
      <trkpt lat="42.74416" lon="1.54278">
        <ele>1641.466</ele>
        <time>2021-03-06T13:02:52Z</time>
      </trkpt>
      <trkpt lat="42.74418" lon="1.54279">
        <ele>1640.813</ele>
        <time>2021-03-06T13:02:54Z</time>
      </trkpt>
      <trkpt lat="42.7442" lon="1.54282">
        <ele>1640.403</ele>
        <time>2021-03-06T13:02:56Z</time>
      </trkpt>
      <trkpt lat="42.74422" lon="1.54284">
        <ele>1639.746</ele>
        <time>2021-03-06T13:02:58Z</time>
      </trkpt>
      <trkpt lat="42.74424" lon="1.54286">
        <ele>1638.776</ele>
        <time>2021-03-06T13:03:00Z</time>
      </trkpt>
      <trkpt lat="42.74426" lon="1.54288">
        <ele>1639.002</ele>
        <time>2021-03-06T13:03:02Z</time>
      </trkpt>
      <trkpt lat="42.74428" lon="1.54291">
        <ele>1638.674</ele>
        <time>2021-03-06T13:03:04Z</time>
      </trkpt>
      <trkpt lat="42.74431" lon="1.54292">
        <ele>1638.761</ele>
        <time>2021-03-06T13:03:06Z</time>
      </trkpt>
      <trkpt lat="42.74432" lon="1.54294">
        <ele>1638.183</ele>
        <time>2021-03-06T13:03:08Z</time>
      </trkpt>
      <trkpt lat="42.74434" lon="1.54296">
        <ele>1637.624</ele>
        <time>2021-03-06T13:03:10Z</time>
      </trkpt>
      <trkpt lat="42.74436" lon="1.54298">
        <ele>1637.071</ele>
        <time>2021-03-06T13:03:12Z</time>
      </trkpt>
      <trkpt lat="42.74437" lon="1.543">
        <ele>1635.947</ele>
        <time>2021-03-06T13:03:14Z</time>
      </trkpt>
      <trkpt lat="42.74439" lon="1.54303">
        <ele>1635.647</ele>
        <time>2021-03-06T13:03:16Z</time>
      </trkpt>
      <trkpt lat="42.74439" lon="1.54307">
        <ele>1634.33</ele>
        <time>2021-03-06T13:03:18Z</time>
      </trkpt>
      <trkpt lat="42.74439" lon="1.5431">
        <ele>1633.262</ele>
        <time>2021-03-06T13:03:20Z</time>
      </trkpt>
      <trkpt lat="42.74438" lon="1.54314">
        <ele>1633.281</ele>
        <time>2021-03-06T13:03:22Z</time>
      </trkpt>
      <trkpt lat="42.74437" lon="1.54316">
        <ele>1632.55</ele>
        <time>2021-03-06T13:03:24Z</time>
      </trkpt>
      <trkpt lat="42.74435" lon="1.54318">
        <ele>1631.079</ele>
        <time>2021-03-06T13:03:26Z</time>
      </trkpt>
      <trkpt lat="42.74432" lon="1.5432">
        <ele>1630.829</ele>
        <time>2021-03-06T13:03:28Z</time>
      </trkpt>
      <trkpt lat="42.7443" lon="1.54322">
        <ele>1630.999</ele>
        <time>2021-03-06T13:03:30Z</time>
      </trkpt>
      <trkpt lat="42.74428" lon="1.54324">
        <ele>1629.989</ele>
        <time>2021-03-06T13:03:32Z</time>
      </trkpt>
      <trkpt lat="42.74426" lon="1.54326">
        <ele>1629.659</ele>
        <time>2021-03-06T13:03:34Z</time>
      </trkpt>
      <trkpt lat="42.74424" lon="1.54328">
        <ele>1629.843</ele>
        <time>2021-03-06T13:03:36Z</time>
      </trkpt>
      <trkpt lat="42.74422" lon="1.5433">
        <ele>1629.38</ele>
        <time>2021-03-06T13:03:38Z</time>
      </trkpt>
      <trkpt lat="42.7442" lon="1.54333">
        <ele>1628.988</ele>
        <time>2021-03-06T13:03:40Z</time>
      </trkpt>
      <trkpt lat="42.74418" lon="1.54334">
        <ele>1628.552</ele>
        <time>2021-03-06T13:03:42Z</time>
      </trkpt>
      <trkpt lat="42.74415" lon="1.54336">
        <ele>1628.297</ele>
        <time>2021-03-06T13:03:44Z</time>
      </trkpt>
      <trkpt lat="42.74413" lon="1.54338">
        <ele>1626.717</ele>
        <time>2021-03-06T13:03:46Z</time>
      </trkpt>
      <trkpt lat="42.74411" lon="1.5434">
        <ele>1625.805</ele>
        <time>2021-03-06T13:03:48Z</time>
      </trkpt>
      <trkpt lat="42.74408" lon="1.54342">
        <ele>1625.463</ele>
        <time>2021-03-06T13:03:50Z</time>
      </trkpt>
      <trkpt lat="42.74407" lon="1.54345">
        <ele>1624.524</ele>
        <time>2021-03-06T13:03:52Z</time>
      </trkpt>
      <trkpt lat="42.74407" lon="1.54348">
        <ele>1623.826</ele>
        <time>2021-03-06T13:03:54Z</time>
      </trkpt>
      <trkpt lat="42.74409" lon="1.5435">
        <ele>1624.659</ele>
        <time>2021-03-06T13:03:56Z</time>
      </trkpt>
      <trkpt lat="42.74411" lon="1.54349">
        <ele>1624.352</ele>
        <time>2021-03-06T13:03:58Z</time>
      </trkpt>
      <trkpt lat="42.7441" lon="1.54347">
        <ele>1624.879</ele>
        <time>2021-03-06T13:04:00Z</time>
      </trkpt>
      <trkpt lat="42.7441" lon="1.54347">
        <ele>1624.872</ele>
        <time>2021-03-06T13:04:02Z</time>
      </trkpt>
      <trkpt lat="42.7441" lon="1.54347">
        <ele>1624.867</ele>
        <time>2021-03-06T13:04:05Z</time>
      </trkpt>
      <trkpt lat="42.74409" lon="1.54347">
        <ele>1623.778</ele>
        <time>2021-03-06T13:04:07Z</time>
      </trkpt>
      <trkpt lat="42.74409" lon="1.54348">
        <ele>1623.771</ele>
        <time>2021-03-06T13:04:09Z</time>
      </trkpt>
      <trkpt lat="42.74409" lon="1.54348">
        <ele>1623.763</ele>
        <time>2021-03-06T13:04:11Z</time>
      </trkpt>
      <trkpt lat="42.74409" lon="1.54348">
        <ele>1623.757</ele>
        <time>2021-03-06T13:04:13Z</time>
      </trkpt>
      <trkpt lat="42.74408" lon="1.54348">
        <ele>1623.266</ele>
        <time>2021-03-06T13:04:15Z</time>
      </trkpt>
      <trkpt lat="42.74408" lon="1.54348">
        <ele>1623.055</ele>
        <time>2021-03-06T13:04:17Z</time>
      </trkpt>
      <trkpt lat="42.74408" lon="1.54348">
        <ele>1623.057</ele>
        <time>2021-03-06T13:04:19Z</time>
      </trkpt>
      <trkpt lat="42.74408" lon="1.54348">
        <ele>1623.058</ele>
        <time>2021-03-06T13:04:21Z</time>
      </trkpt>
      <trkpt lat="42.74408" lon="1.54348">
        <ele>1622.479</ele>
        <time>2021-03-06T13:04:23Z</time>
      </trkpt>
      <trkpt lat="42.74408" lon="1.54348">
        <ele>1622.477</ele>
        <time>2021-03-06T13:04:25Z</time>
      </trkpt>
      <trkpt lat="42.74408" lon="1.54348">
        <ele>1622.37</ele>
        <time>2021-03-06T13:04:27Z</time>
      </trkpt>
      <trkpt lat="42.74407" lon="1.54348">
        <ele>1622.159</ele>
        <time>2021-03-06T13:04:29Z</time>
      </trkpt>
      <trkpt lat="42.74407" lon="1.54348">
        <ele>1622.157</ele>
        <time>2021-03-06T13:04:31Z</time>
      </trkpt>
      <trkpt lat="42.74407" lon="1.54348">
        <ele>1622.151</ele>
        <time>2021-03-06T13:04:33Z</time>
      </trkpt>
      <trkpt lat="42.74407" lon="1.54348">
        <ele>1622.148</ele>
        <time>2021-03-06T13:04:35Z</time>
      </trkpt>
      <trkpt lat="42.74407" lon="1.54348">
        <ele>1622.149</ele>
        <time>2021-03-06T13:04:37Z</time>
      </trkpt>
      <trkpt lat="42.74407" lon="1.54348">
        <ele>1622.143</ele>
        <time>2021-03-06T13:04:39Z</time>
      </trkpt>
      <trkpt lat="42.74407" lon="1.54349">
        <ele>1622.141</ele>
        <time>2021-03-06T13:04:41Z</time>
      </trkpt>
      <trkpt lat="42.74407" lon="1.54349">
        <ele>1622.141</ele>
        <time>2021-03-06T13:04:43Z</time>
      </trkpt>
      <trkpt lat="42.74407" lon="1.54349">
        <ele>1622.157</ele>
        <time>2021-03-06T13:04:45Z</time>
      </trkpt>
      <trkpt lat="42.74407" lon="1.54349">
        <ele>1622.157</ele>
        <time>2021-03-06T13:04:47Z</time>
      </trkpt>
      <trkpt lat="42.74407" lon="1.54349">
        <ele>1622.16</ele>
        <time>2021-03-06T13:04:49Z</time>
      </trkpt>
      <trkpt lat="42.74407" lon="1.54349">
        <ele>1622.156</ele>
        <time>2021-03-06T13:04:51Z</time>
      </trkpt>
      <trkpt lat="42.74407" lon="1.54349">
        <ele>1622.156</ele>
        <time>2021-03-06T13:04:53Z</time>
      </trkpt>
      <trkpt lat="42.74407" lon="1.54349">
        <ele>1622.152</ele>
        <time>2021-03-06T13:04:55Z</time>
      </trkpt>
      <trkpt lat="42.74407" lon="1.54349">
        <ele>1622.148</ele>
        <time>2021-03-06T13:04:57Z</time>
      </trkpt>
      <trkpt lat="42.74407" lon="1.54349">
        <ele>1622.145</ele>
        <time>2021-03-06T13:04:59Z</time>
      </trkpt>
      <trkpt lat="42.74407" lon="1.54349">
        <ele>1622.143</ele>
        <time>2021-03-06T13:05:01Z</time>
      </trkpt>
      <trkpt lat="42.74407" lon="1.54349">
        <ele>1622.137</ele>
        <time>2021-03-06T13:05:03Z</time>
      </trkpt>
      <trkpt lat="42.74407" lon="1.54349">
        <ele>1622.131</ele>
        <time>2021-03-06T13:05:05Z</time>
      </trkpt>
      <trkpt lat="42.74407" lon="1.54349">
        <ele>1622.129</ele>
        <time>2021-03-06T13:05:07Z</time>
      </trkpt>
      <trkpt lat="42.74407" lon="1.54349">
        <ele>1622.123</ele>
        <time>2021-03-06T13:05:09Z</time>
      </trkpt>
      <trkpt lat="42.74407" lon="1.54349">
        <ele>1622.117</ele>
        <time>2021-03-06T13:05:11Z</time>
      </trkpt>
      <trkpt lat="42.74407" lon="1.54349">
        <ele>1622.114</ele>
        <time>2021-03-06T13:05:13Z</time>
      </trkpt>
      <trkpt lat="42.74407" lon="1.54349">
        <ele>1622.115</ele>
        <time>2021-03-06T13:05:15Z</time>
      </trkpt>
      <trkpt lat="42.74407" lon="1.54349">
        <ele>1622.113</ele>
        <time>2021-03-06T13:05:17Z</time>
      </trkpt>
      <trkpt lat="42.74407" lon="1.54349">
        <ele>1622.109</ele>
        <time>2021-03-06T13:05:19Z</time>
      </trkpt>
      <trkpt lat="42.74407" lon="1.54349">
        <ele>1622.111</ele>
        <time>2021-03-06T13:05:21Z</time>
      </trkpt>
      <trkpt lat="42.74407" lon="1.54349">
        <ele>1622.11</ele>
        <time>2021-03-06T13:05:23Z</time>
      </trkpt>
      <trkpt lat="42.74407" lon="1.54349">
        <ele>1622.112</ele>
        <time>2021-03-06T13:05:25Z</time>
      </trkpt>
      <trkpt lat="42.74407" lon="1.54349">
        <ele>1621.614</ele>
        <time>2021-03-06T13:05:27Z</time>
      </trkpt>
      <trkpt lat="42.74407" lon="1.54349">
        <ele>1621.176</ele>
        <time>2021-03-06T13:05:29Z</time>
      </trkpt>
      <trkpt lat="42.74407" lon="1.5435">
        <ele>1620.919</ele>
        <time>2021-03-06T13:05:31Z</time>
      </trkpt>
      <trkpt lat="42.74408" lon="1.54351">
        <ele>1620.263</ele>
        <time>2021-03-06T13:05:33Z</time>
      </trkpt>
      <trkpt lat="42.74408" lon="1.54352">
        <ele>1619.934</ele>
        <time>2021-03-06T13:05:35Z</time>
      </trkpt>
      <trkpt lat="42.74408" lon="1.54352">
        <ele>1619.654</ele>
        <time>2021-03-06T13:05:37Z</time>
      </trkpt>
      <trkpt lat="42.74408" lon="1.54352">
        <ele>1619.646</ele>
        <time>2021-03-06T13:05:39Z</time>
      </trkpt>
      <trkpt lat="42.74408" lon="1.54352">
        <ele>1619.641</ele>
        <time>2021-03-06T13:05:41Z</time>
      </trkpt>
      <trkpt lat="42.74408" lon="1.54352">
        <ele>1619.251</ele>
        <time>2021-03-06T13:05:43Z</time>
      </trkpt>
      <trkpt lat="42.74408" lon="1.54352">
        <ele>1619.09</ele>
        <time>2021-03-06T13:05:45Z</time>
      </trkpt>
      <trkpt lat="42.74408" lon="1.54352">
        <ele>1619.09</ele>
        <time>2021-03-06T13:05:47Z</time>
      </trkpt>
      <trkpt lat="42.74407" lon="1.54353">
        <ele>1618.811</ele>
        <time>2021-03-06T13:05:49Z</time>
      </trkpt>
      <trkpt lat="42.74407" lon="1.54353">
        <ele>1618.812</ele>
        <time>2021-03-06T13:05:51Z</time>
      </trkpt>
      <trkpt lat="42.74407" lon="1.54353">
        <ele>1618.812</ele>
        <time>2021-03-06T13:05:53Z</time>
      </trkpt>
      <trkpt lat="42.74406" lon="1.54354">
        <ele>1618.084</ele>
        <time>2021-03-06T13:05:55Z</time>
      </trkpt>
      <trkpt lat="42.74407" lon="1.54354">
        <ele>1618.98</ele>
        <time>2021-03-06T13:05:57Z</time>
      </trkpt>
      <trkpt lat="42.74408" lon="1.54354">
        <ele>1618.375</ele>
        <time>2021-03-06T13:05:59Z</time>
      </trkpt>
      <trkpt lat="42.74408" lon="1.54354">
        <ele>1618.335</ele>
        <time>2021-03-06T13:06:01Z</time>
      </trkpt>
      <trkpt lat="42.74408" lon="1.54354">
        <ele>1618.33</ele>
        <time>2021-03-06T13:06:03Z</time>
      </trkpt>
      <trkpt lat="42.74408" lon="1.54354">
        <ele>1618.329</ele>
        <time>2021-03-06T13:06:05Z</time>
      </trkpt>
      <trkpt lat="42.74408" lon="1.54354">
        <ele>1617.981</ele>
        <time>2021-03-06T13:06:07Z</time>
      </trkpt>
      <trkpt lat="42.74408" lon="1.54354">
        <ele>1617.648</ele>
        <time>2021-03-06T13:06:09Z</time>
      </trkpt>
      <trkpt lat="42.74408" lon="1.54354">
        <ele>1617.636</ele>
        <time>2021-03-06T13:06:11Z</time>
      </trkpt>
      <trkpt lat="42.74408" lon="1.54354">
        <ele>1617.628</ele>
        <time>2021-03-06T13:06:13Z</time>
      </trkpt>
      <trkpt lat="42.74408" lon="1.54354">
        <ele>1617.467</ele>
        <time>2021-03-06T13:06:15Z</time>
      </trkpt>
      <trkpt lat="42.74408" lon="1.54354">
        <ele>1617.461</ele>
        <time>2021-03-06T13:06:17Z</time>
      </trkpt>
      <trkpt lat="42.74408" lon="1.54354">
        <ele>1617.46</ele>
        <time>2021-03-06T13:06:19Z</time>
      </trkpt>
      <trkpt lat="42.74408" lon="1.54354">
        <ele>1617.602</ele>
        <time>2021-03-06T13:06:21Z</time>
      </trkpt>
      <trkpt lat="42.74408" lon="1.54354">
        <ele>1617.608</ele>
        <time>2021-03-06T13:06:23Z</time>
      </trkpt>
      <trkpt lat="42.74408" lon="1.54354">
        <ele>1617.608</ele>
        <time>2021-03-06T13:06:25Z</time>
      </trkpt>
      <trkpt lat="42.74408" lon="1.54354">
        <ele>1617.608</ele>
        <time>2021-03-06T13:06:27Z</time>
      </trkpt>
      <trkpt lat="42.74408" lon="1.54354">
        <ele>1617.604</ele>
        <time>2021-03-06T13:06:29Z</time>
      </trkpt>
      <trkpt lat="42.74408" lon="1.54354">
        <ele>1617.602</ele>
        <time>2021-03-06T13:06:31Z</time>
      </trkpt>
      <trkpt lat="42.74408" lon="1.54354">
        <ele>1617.601</ele>
        <time>2021-03-06T13:06:33Z</time>
      </trkpt>
      <trkpt lat="42.74409" lon="1.54354">
        <ele>1617.458</ele>
        <time>2021-03-06T13:06:35Z</time>
      </trkpt>
      <trkpt lat="42.7441" lon="1.54356">
        <ele>1617.027</ele>
        <time>2021-03-06T13:06:37Z</time>
      </trkpt>
      <trkpt lat="42.74412" lon="1.54357">
        <ele>1616.781</ele>
        <time>2021-03-06T13:06:39Z</time>
      </trkpt>
      <trkpt lat="42.74414" lon="1.54358">
        <ele>1616.214</ele>
        <time>2021-03-06T13:06:41Z</time>
      </trkpt>
      <trkpt lat="42.74416" lon="1.54358">
        <ele>1615.771</ele>
        <time>2021-03-06T13:06:43Z</time>
      </trkpt>
      <trkpt lat="42.74419" lon="1.54359">
        <ele>1615.221</ele>
        <time>2021-03-06T13:06:45Z</time>
      </trkpt>
      <trkpt lat="42.74422" lon="1.5436">
        <ele>1614.893</ele>
        <time>2021-03-06T13:06:47Z</time>
      </trkpt>
      <trkpt lat="42.74424" lon="1.54361">
        <ele>1614.749</ele>
        <time>2021-03-06T13:06:49Z</time>
      </trkpt>
      <trkpt lat="42.74426" lon="1.54363">
        <ele>1613.908</ele>
        <time>2021-03-06T13:06:51Z</time>
      </trkpt>
      <trkpt lat="42.74429" lon="1.54365">
        <ele>1613.596</ele>
        <time>2021-03-06T13:06:53Z</time>
      </trkpt>
      <trkpt lat="42.74431" lon="1.54367">
        <ele>1612.572</ele>
        <time>2021-03-06T13:06:55Z</time>
      </trkpt>
      <trkpt lat="42.74434" lon="1.54369">
        <ele>1612.061</ele>
        <time>2021-03-06T13:06:57Z</time>
      </trkpt>
      <trkpt lat="42.74436" lon="1.54372">
        <ele>1611.253</ele>
        <time>2021-03-06T13:06:59Z</time>
      </trkpt>
      <trkpt lat="42.74439" lon="1.54373">
        <ele>1610.316</ele>
        <time>2021-03-06T13:07:01Z</time>
      </trkpt>
      <trkpt lat="42.74442" lon="1.54375">
        <ele>1609.21</ele>
        <time>2021-03-06T13:07:03Z</time>
      </trkpt>
      <trkpt lat="42.74445" lon="1.54378">
        <ele>1608.143</ele>
        <time>2021-03-06T13:07:05Z</time>
      </trkpt>
      <trkpt lat="42.74448" lon="1.54381">
        <ele>1607.091</ele>
        <time>2021-03-06T13:07:07Z</time>
      </trkpt>
      <trkpt lat="42.74451" lon="1.54382">
        <ele>1606.274</ele>
        <time>2021-03-06T13:07:09Z</time>
      </trkpt>
      <trkpt lat="42.74453" lon="1.54384">
        <ele>1605.471</ele>
        <time>2021-03-06T13:07:11Z</time>
      </trkpt>
      <trkpt lat="42.74455" lon="1.54386">
        <ele>1604.753</ele>
        <time>2021-03-06T13:07:13Z</time>
      </trkpt>
      <trkpt lat="42.74457" lon="1.54389">
        <ele>1604.273</ele>
        <time>2021-03-06T13:07:15Z</time>
      </trkpt>
      <trkpt lat="42.74458" lon="1.54392">
        <ele>1603.574</ele>
        <time>2021-03-06T13:07:17Z</time>
      </trkpt>
      <trkpt lat="42.74457" lon="1.54395">
        <ele>1602.659</ele>
        <time>2021-03-06T13:07:19Z</time>
      </trkpt>
      <trkpt lat="42.74456" lon="1.54399">
        <ele>1603.068</ele>
        <time>2021-03-06T13:07:21Z</time>
      </trkpt>
      <trkpt lat="42.74455" lon="1.54401">
        <ele>1602.643</ele>
        <time>2021-03-06T13:07:23Z</time>
      </trkpt>
      <trkpt lat="42.74453" lon="1.54404">
        <ele>1602.276</ele>
        <time>2021-03-06T13:07:25Z</time>
      </trkpt>
      <trkpt lat="42.74452" lon="1.54407">
        <ele>1601.727</ele>
        <time>2021-03-06T13:07:27Z</time>
      </trkpt>
      <trkpt lat="42.7445" lon="1.5441">
        <ele>1601.91</ele>
        <time>2021-03-06T13:07:29Z</time>
      </trkpt>
      <trkpt lat="42.74449" lon="1.54412">
        <ele>1601.405</ele>
        <time>2021-03-06T13:07:31Z</time>
      </trkpt>
      <trkpt lat="42.74448" lon="1.54415">
        <ele>1601.042</ele>
        <time>2021-03-06T13:07:33Z</time>
      </trkpt>
      <trkpt lat="42.74446" lon="1.54418">
        <ele>1600.376</ele>
        <time>2021-03-06T13:07:35Z</time>
      </trkpt>
      <trkpt lat="42.74445" lon="1.54421">
        <ele>1599.839</ele>
        <time>2021-03-06T13:07:37Z</time>
      </trkpt>
      <trkpt lat="42.74444" lon="1.54424">
        <ele>1599.481</ele>
        <time>2021-03-06T13:07:39Z</time>
      </trkpt>
      <trkpt lat="42.74443" lon="1.54427">
        <ele>1599.174</ele>
        <time>2021-03-06T13:07:41Z</time>
      </trkpt>
      <trkpt lat="42.74442" lon="1.54431">
        <ele>1598.989</ele>
        <time>2021-03-06T13:07:43Z</time>
      </trkpt>
      <trkpt lat="42.7444" lon="1.54434">
        <ele>1598.959</ele>
        <time>2021-03-06T13:07:45Z</time>
      </trkpt>
      <trkpt lat="42.74439" lon="1.54437">
        <ele>1598.213</ele>
        <time>2021-03-06T13:07:47Z</time>
      </trkpt>
      <trkpt lat="42.74437" lon="1.5444">
        <ele>1597.84</ele>
        <time>2021-03-06T13:07:49Z</time>
      </trkpt>
      <trkpt lat="42.74435" lon="1.54442">
        <ele>1597.326</ele>
        <time>2021-03-06T13:07:51Z</time>
      </trkpt>
      <trkpt lat="42.74432" lon="1.54444">
        <ele>1596.836</ele>
        <time>2021-03-06T13:07:53Z</time>
      </trkpt>
      <trkpt lat="42.7443" lon="1.54446">
        <ele>1596.511</ele>
        <time>2021-03-06T13:07:55Z</time>
      </trkpt>
      <trkpt lat="42.74428" lon="1.54448">
        <ele>1596.025</ele>
        <time>2021-03-06T13:07:57Z</time>
      </trkpt>
      <trkpt lat="42.74425" lon="1.5445">
        <ele>1595.882</ele>
        <time>2021-03-06T13:07:59Z</time>
      </trkpt>
      <trkpt lat="42.74423" lon="1.54452">
        <ele>1595.308</ele>
        <time>2021-03-06T13:08:01Z</time>
      </trkpt>
      <trkpt lat="42.7442" lon="1.54454">
        <ele>1594.338</ele>
        <time>2021-03-06T13:08:03Z</time>
      </trkpt>
      <trkpt lat="42.74418" lon="1.54456">
        <ele>1594.307</ele>
        <time>2021-03-06T13:08:05Z</time>
      </trkpt>
      <trkpt lat="42.74416" lon="1.54457">
        <ele>1594.342</ele>
        <time>2021-03-06T13:08:07Z</time>
      </trkpt>
      <trkpt lat="42.74413" lon="1.54458">
        <ele>1594.856</ele>
        <time>2021-03-06T13:08:09Z</time>
      </trkpt>
      <trkpt lat="42.74411" lon="1.5446">
        <ele>1593.459</ele>
        <time>2021-03-06T13:08:11Z</time>
      </trkpt>
      <trkpt lat="42.74408" lon="1.54462">
        <ele>1591.694</ele>
        <time>2021-03-06T13:08:13Z</time>
      </trkpt>
      <trkpt lat="42.74405" lon="1.54464">
        <ele>1590.868</ele>
        <time>2021-03-06T13:08:15Z</time>
      </trkpt>
      <trkpt lat="42.74403" lon="1.54466">
        <ele>1591.013</ele>
        <time>2021-03-06T13:08:17Z</time>
      </trkpt>
      <trkpt lat="42.74401" lon="1.54468">
        <ele>1591.093</ele>
        <time>2021-03-06T13:08:19Z</time>
      </trkpt>
      <trkpt lat="42.74398" lon="1.54471">
        <ele>1591.312</ele>
        <time>2021-03-06T13:08:21Z</time>
      </trkpt>
      <trkpt lat="42.74397" lon="1.54474">
        <ele>1590.072</ele>
        <time>2021-03-06T13:08:23Z</time>
      </trkpt>
      <trkpt lat="42.74396" lon="1.54477">
        <ele>1589.348</ele>
        <time>2021-03-06T13:08:25Z</time>
      </trkpt>
      <trkpt lat="42.74397" lon="1.54482">
        <ele>1587.985</ele>
        <time>2021-03-06T13:08:27Z</time>
      </trkpt>
      <trkpt lat="42.74398" lon="1.54486">
        <ele>1586.226</ele>
        <time>2021-03-06T13:08:29Z</time>
      </trkpt>
      <trkpt lat="42.744" lon="1.54488">
        <ele>1585.419</ele>
        <time>2021-03-06T13:08:31Z</time>
      </trkpt>
      <trkpt lat="42.74403" lon="1.5449">
        <ele>1584.115</ele>
        <time>2021-03-06T13:08:33Z</time>
      </trkpt>
      <trkpt lat="42.74405" lon="1.5449">
        <ele>1584.209</ele>
        <time>2021-03-06T13:08:35Z</time>
      </trkpt>
      <trkpt lat="42.74408" lon="1.5449">
        <ele>1584.031</ele>
        <time>2021-03-06T13:08:37Z</time>
      </trkpt>
      <trkpt lat="42.7441" lon="1.5449">
        <ele>1582.672</ele>
        <time>2021-03-06T13:08:39Z</time>
      </trkpt>
      <trkpt lat="42.74412" lon="1.5449">
        <ele>1582.021</ele>
        <time>2021-03-06T13:08:41Z</time>
      </trkpt>
      <trkpt lat="42.74414" lon="1.5449">
        <ele>1581.532</ele>
        <time>2021-03-06T13:08:43Z</time>
      </trkpt>
      <trkpt lat="42.74417" lon="1.5449">
        <ele>1581.06</ele>
        <time>2021-03-06T13:08:45Z</time>
      </trkpt>
      <trkpt lat="42.74419" lon="1.54491">
        <ele>1579.675</ele>
        <time>2021-03-06T13:08:47Z</time>
      </trkpt>
      <trkpt lat="42.74418" lon="1.54496">
        <ele>1578.983</ele>
        <time>2021-03-06T13:08:49Z</time>
      </trkpt>
      <trkpt lat="42.74415" lon="1.54501">
        <ele>1578.473</ele>
        <time>2021-03-06T13:08:51Z</time>
      </trkpt>
      <trkpt lat="42.74413" lon="1.54505">
        <ele>1578.172</ele>
        <time>2021-03-06T13:08:53Z</time>
      </trkpt>
      <trkpt lat="42.7441" lon="1.54507">
        <ele>1578.193</ele>
        <time>2021-03-06T13:08:55Z</time>
      </trkpt>
      <trkpt lat="42.74409" lon="1.54506">
        <ele>1578.369</ele>
        <time>2021-03-06T13:08:57Z</time>
      </trkpt>
      <trkpt lat="42.74409" lon="1.54506">
        <ele>1578.375</ele>
        <time>2021-03-06T13:08:59Z</time>
      </trkpt>
      <trkpt lat="42.74409" lon="1.54506">
        <ele>1578.116</ele>
        <time>2021-03-06T13:09:01Z</time>
      </trkpt>
      <trkpt lat="42.74408" lon="1.54504">
        <ele>1578.449</ele>
        <time>2021-03-06T13:09:03Z</time>
      </trkpt>
      <trkpt lat="42.74408" lon="1.54502">
        <ele>1577.737</ele>
        <time>2021-03-06T13:09:05Z</time>
      </trkpt>
      <trkpt lat="42.74408" lon="1.545">
        <ele>1577.569</ele>
        <time>2021-03-06T13:09:07Z</time>
      </trkpt>
      <trkpt lat="42.74408" lon="1.545">
        <ele>1577.568</ele>
        <time>2021-03-06T13:09:09Z</time>
      </trkpt>
      <trkpt lat="42.74408" lon="1.545">
        <ele>1577.568</ele>
        <time>2021-03-06T13:09:11Z</time>
      </trkpt>
      <trkpt lat="42.74408" lon="1.545">
        <ele>1577.508</ele>
        <time>2021-03-06T13:09:13Z</time>
      </trkpt>
      <trkpt lat="42.74408" lon="1.545">
        <ele>1577.516</ele>
        <time>2021-03-06T13:09:15Z</time>
      </trkpt>
      <trkpt lat="42.74409" lon="1.545">
        <ele>1577.249</ele>
        <time>2021-03-06T13:09:17Z</time>
      </trkpt>
      <trkpt lat="42.74409" lon="1.545">
        <ele>1577.223</ele>
        <time>2021-03-06T13:09:19Z</time>
      </trkpt>
      <trkpt lat="42.7441" lon="1.54504">
        <ele>1577.176</ele>
        <time>2021-03-06T13:09:21Z</time>
      </trkpt>
      <trkpt lat="42.74414" lon="1.54505">
        <ele>1577.228</ele>
        <time>2021-03-06T13:09:23Z</time>
      </trkpt>
      <trkpt lat="42.74416" lon="1.54502">
        <ele>1577.292</ele>
        <time>2021-03-06T13:09:25Z</time>
      </trkpt>
      <trkpt lat="42.74416" lon="1.54502">
        <ele>1577.299</ele>
        <time>2021-03-06T13:09:27Z</time>
      </trkpt>
      <trkpt lat="42.74416" lon="1.54501">
        <ele>1577.305</ele>
        <time>2021-03-06T13:09:29Z</time>
      </trkpt>
      <trkpt lat="42.74416" lon="1.54501">
        <ele>1577.305</ele>
        <time>2021-03-06T13:09:31Z</time>
      </trkpt>
      <trkpt lat="42.74416" lon="1.54501">
        <ele>1577.303</ele>
        <time>2021-03-06T13:09:33Z</time>
      </trkpt>
      <trkpt lat="42.74416" lon="1.54501">
        <ele>1577.3</ele>
        <time>2021-03-06T13:09:35Z</time>
      </trkpt>
      <trkpt lat="42.74416" lon="1.54501">
        <ele>1577.293</ele>
        <time>2021-03-06T13:09:37Z</time>
      </trkpt>
      <trkpt lat="42.74416" lon="1.54501">
        <ele>1577.289</ele>
        <time>2021-03-06T13:09:39Z</time>
      </trkpt>
      <trkpt lat="42.74416" lon="1.54501">
        <ele>1577.284</ele>
        <time>2021-03-06T13:09:41Z</time>
      </trkpt>
      <trkpt lat="42.74416" lon="1.54501">
        <ele>1577.283</ele>
        <time>2021-03-06T13:09:43Z</time>
      </trkpt>
      <trkpt lat="42.74416" lon="1.54501">
        <ele>1577.281</ele>
        <time>2021-03-06T13:09:45Z</time>
      </trkpt>
      <trkpt lat="42.74416" lon="1.54501">
        <ele>1577.275</ele>
        <time>2021-03-06T13:09:47Z</time>
      </trkpt>
      <trkpt lat="42.74416" lon="1.54501">
        <ele>1577.275</ele>
        <time>2021-03-06T13:09:49Z</time>
      </trkpt>
      <trkpt lat="42.74416" lon="1.54501">
        <ele>1577.284</ele>
        <time>2021-03-06T13:09:51Z</time>
      </trkpt>
      <trkpt lat="42.74416" lon="1.54501">
        <ele>1577.289</ele>
        <time>2021-03-06T13:09:53Z</time>
      </trkpt>
      <trkpt lat="42.74416" lon="1.54501">
        <ele>1577.275</ele>
        <time>2021-03-06T13:09:55Z</time>
      </trkpt>
      <trkpt lat="42.74416" lon="1.54501">
        <ele>1577.265</ele>
        <time>2021-03-06T13:09:57Z</time>
      </trkpt>
      <trkpt lat="42.74417" lon="1.54501">
        <ele>1577.324</ele>
        <time>2021-03-06T13:09:59Z</time>
      </trkpt>
      <trkpt lat="42.74418" lon="1.54499">
        <ele>1577.767</ele>
        <time>2021-03-06T13:10:01Z</time>
      </trkpt>
      <trkpt lat="42.7442" lon="1.54497">
        <ele>1577.998</ele>
        <time>2021-03-06T13:10:03Z</time>
      </trkpt>
      <trkpt lat="42.74418" lon="1.54492">
        <ele>1577.143</ele>
        <time>2021-03-06T13:10:05Z</time>
      </trkpt>
      <trkpt lat="42.74418" lon="1.5449">
        <ele>1574.778</ele>
        <time>2021-03-06T13:10:07Z</time>
      </trkpt>
      <trkpt lat="42.7442" lon="1.54488">
        <ele>1575.316</ele>
        <time>2021-03-06T13:10:09Z</time>
      </trkpt>
      <trkpt lat="42.74421" lon="1.54488">
        <ele>1575.559</ele>
        <time>2021-03-06T13:10:11Z</time>
      </trkpt>
      <trkpt lat="42.74421" lon="1.54486">
        <ele>1575.6</ele>
        <time>2021-03-06T13:10:13Z</time>
      </trkpt>
      <trkpt lat="42.74422" lon="1.54486">
        <ele>1575.421</ele>
        <time>2021-03-06T13:10:15Z</time>
      </trkpt>
      <trkpt lat="42.74422" lon="1.54487">
        <ele>1575.419</ele>
        <time>2021-03-06T13:10:17Z</time>
      </trkpt>
      <trkpt lat="42.74423" lon="1.54487">
        <ele>1576.091</ele>
        <time>2021-03-06T13:10:19Z</time>
      </trkpt>
      <trkpt lat="42.74423" lon="1.54487">
        <ele>1576.148</ele>
        <time>2021-03-06T13:10:21Z</time>
      </trkpt>
      <trkpt lat="42.74423" lon="1.54487">
        <ele>1576.186</ele>
        <time>2021-03-06T13:10:23Z</time>
      </trkpt>
      <trkpt lat="42.74423" lon="1.54487">
        <ele>1576.17</ele>
        <time>2021-03-06T13:10:25Z</time>
      </trkpt>
      <trkpt lat="42.74423" lon="1.54487">
        <ele>1575.925</ele>
        <time>2021-03-06T13:10:27Z</time>
      </trkpt>
      <trkpt lat="42.74423" lon="1.54487">
        <ele>1575.911</ele>
        <time>2021-03-06T13:10:29Z</time>
      </trkpt>
      <trkpt lat="42.74423" lon="1.54487">
        <ele>1575.913</ele>
        <time>2021-03-06T13:10:31Z</time>
      </trkpt>
      <trkpt lat="42.74423" lon="1.54487">
        <ele>1575.91</ele>
        <time>2021-03-06T13:10:33Z</time>
      </trkpt>
      <trkpt lat="42.74423" lon="1.54487">
        <ele>1575.898</ele>
        <time>2021-03-06T13:10:35Z</time>
      </trkpt>
      <trkpt lat="42.74423" lon="1.54487">
        <ele>1575.886</ele>
        <time>2021-03-06T13:10:37Z</time>
      </trkpt>
      <trkpt lat="42.74423" lon="1.54487">
        <ele>1575.873</ele>
        <time>2021-03-06T13:10:39Z</time>
      </trkpt>
      <trkpt lat="42.74423" lon="1.54487">
        <ele>1575.866</ele>
        <time>2021-03-06T13:10:41Z</time>
      </trkpt>
      <trkpt lat="42.74423" lon="1.54487">
        <ele>1575.865</ele>
        <time>2021-03-06T13:10:43Z</time>
      </trkpt>
      <trkpt lat="42.74423" lon="1.54487">
        <ele>1575.865</ele>
        <time>2021-03-06T13:10:45Z</time>
      </trkpt>
      <trkpt lat="42.74423" lon="1.54487">
        <ele>1575.869</ele>
        <time>2021-03-06T13:10:47Z</time>
      </trkpt>
      <trkpt lat="42.74423" lon="1.54487">
        <ele>1575.862</ele>
        <time>2021-03-06T13:10:49Z</time>
      </trkpt>
      <trkpt lat="42.74422" lon="1.54487">
        <ele>1575.851</ele>
        <time>2021-03-06T13:10:51Z</time>
      </trkpt>
      <trkpt lat="42.74423" lon="1.54487">
        <ele>1576.028</ele>
        <time>2021-03-06T13:10:53Z</time>
      </trkpt>
      <trkpt lat="42.74423" lon="1.54488">
        <ele>1576.064</ele>
        <time>2021-03-06T13:10:55Z</time>
      </trkpt>
      <trkpt lat="42.74424" lon="1.54491">
        <ele>1576.37</ele>
        <time>2021-03-06T13:10:57Z</time>
      </trkpt>
      <trkpt lat="42.74425" lon="1.54493">
        <ele>1577.613</ele>
        <time>2021-03-06T13:10:59Z</time>
      </trkpt>
      <trkpt lat="42.74427" lon="1.54493">
        <ele>1578.471</ele>
        <time>2021-03-06T13:11:01Z</time>
      </trkpt>
      <trkpt lat="42.74428" lon="1.54493">
        <ele>1577.963</ele>
        <time>2021-03-06T13:11:03Z</time>
      </trkpt>
      <trkpt lat="42.7443" lon="1.54494">
        <ele>1578.019</ele>
        <time>2021-03-06T13:11:05Z</time>
      </trkpt>
      <trkpt lat="42.74431" lon="1.54494">
        <ele>1577.483</ele>
        <time>2021-03-06T13:11:07Z</time>
      </trkpt>
      <trkpt lat="42.74433" lon="1.54495">
        <ele>1577.113</ele>
        <time>2021-03-06T13:11:09Z</time>
      </trkpt>
      <trkpt lat="42.74434" lon="1.54496">
        <ele>1576.234</ele>
        <time>2021-03-06T13:11:11Z</time>
      </trkpt>
      <trkpt lat="42.74436" lon="1.54497">
        <ele>1575.992</ele>
        <time>2021-03-06T13:11:13Z</time>
      </trkpt>
      <trkpt lat="42.74437" lon="1.54498">
        <ele>1575.58</ele>
        <time>2021-03-06T13:11:15Z</time>
      </trkpt>
      <trkpt lat="42.74439" lon="1.54499">
        <ele>1574.979</ele>
        <time>2021-03-06T13:11:17Z</time>
      </trkpt>
      <trkpt lat="42.74441" lon="1.54499">
        <ele>1573.909</ele>
        <time>2021-03-06T13:11:19Z</time>
      </trkpt>
      <trkpt lat="42.74443" lon="1.545">
        <ele>1573.513</ele>
        <time>2021-03-06T13:11:21Z</time>
      </trkpt>
      <trkpt lat="42.74444" lon="1.54501">
        <ele>1572.9</ele>
        <time>2021-03-06T13:11:23Z</time>
      </trkpt>
      <trkpt lat="42.74446" lon="1.54502">
        <ele>1572.164</ele>
        <time>2021-03-06T13:11:25Z</time>
      </trkpt>
      <trkpt lat="42.74448" lon="1.54503">
        <ele>1571.942</ele>
        <time>2021-03-06T13:11:27Z</time>
      </trkpt>
      <trkpt lat="42.74451" lon="1.54504">
        <ele>1571.704</ele>
        <time>2021-03-06T13:11:29Z</time>
      </trkpt>
      <trkpt lat="42.74453" lon="1.54505">
        <ele>1572.123</ele>
        <time>2021-03-06T13:11:31Z</time>
      </trkpt>
      <trkpt lat="42.74455" lon="1.54506">
        <ele>1571.749</ele>
        <time>2021-03-06T13:11:33Z</time>
      </trkpt>
      <trkpt lat="42.74457" lon="1.54507">
        <ele>1570.878</ele>
        <time>2021-03-06T13:11:35Z</time>
      </trkpt>
      <trkpt lat="42.74459" lon="1.54508">
        <ele>1571.061</ele>
        <time>2021-03-06T13:11:37Z</time>
      </trkpt>
      <trkpt lat="42.74461" lon="1.54509">
        <ele>1570.708</ele>
        <time>2021-03-06T13:11:39Z</time>
      </trkpt>
      <trkpt lat="42.74463" lon="1.5451">
        <ele>1569.027</ele>
        <time>2021-03-06T13:11:41Z</time>
      </trkpt>
      <trkpt lat="42.74465" lon="1.5451">
        <ele>1567.555</ele>
        <time>2021-03-06T13:11:43Z</time>
      </trkpt>
      <trkpt lat="42.74467" lon="1.54511">
        <ele>1566.319</ele>
        <time>2021-03-06T13:11:45Z</time>
      </trkpt>
      <trkpt lat="42.7447" lon="1.54512">
        <ele>1565.818</ele>
        <time>2021-03-06T13:11:47Z</time>
      </trkpt>
      <trkpt lat="42.74472" lon="1.54513">
        <ele>1565.574</ele>
        <time>2021-03-06T13:11:49Z</time>
      </trkpt>
      <trkpt lat="42.74474" lon="1.54514">
        <ele>1565.163</ele>
        <time>2021-03-06T13:11:51Z</time>
      </trkpt>
      <trkpt lat="42.74477" lon="1.54515">
        <ele>1564.592</ele>
        <time>2021-03-06T13:11:53Z</time>
      </trkpt>
      <trkpt lat="42.74479" lon="1.54515">
        <ele>1563.592</ele>
        <time>2021-03-06T13:11:55Z</time>
      </trkpt>
      <trkpt lat="42.74481" lon="1.54516">
        <ele>1562.566</ele>
        <time>2021-03-06T13:11:57Z</time>
      </trkpt>
      <trkpt lat="42.74484" lon="1.54517">
        <ele>1562.663</ele>
        <time>2021-03-06T13:11:59Z</time>
      </trkpt>
      <trkpt lat="42.74486" lon="1.54518">
        <ele>1561.587</ele>
        <time>2021-03-06T13:12:01Z</time>
      </trkpt>
      <trkpt lat="42.74489" lon="1.54519">
        <ele>1560.607</ele>
        <time>2021-03-06T13:12:03Z</time>
      </trkpt>
      <trkpt lat="42.74492" lon="1.54519">
        <ele>1559.325</ele>
        <time>2021-03-06T13:12:05Z</time>
      </trkpt>
      <trkpt lat="42.74495" lon="1.54519">
        <ele>1557.894</ele>
        <time>2021-03-06T13:12:07Z</time>
      </trkpt>
      <trkpt lat="42.74498" lon="1.54519">
        <ele>1558.061</ele>
        <time>2021-03-06T13:12:09Z</time>
      </trkpt>
      <trkpt lat="42.745" lon="1.54518">
        <ele>1557.833</ele>
        <time>2021-03-06T13:12:11Z</time>
      </trkpt>
      <trkpt lat="42.74503" lon="1.54517">
        <ele>1556.205</ele>
        <time>2021-03-06T13:12:13Z</time>
      </trkpt>
      <trkpt lat="42.74505" lon="1.54517">
        <ele>1555.651</ele>
        <time>2021-03-06T13:12:15Z</time>
      </trkpt>
      <trkpt lat="42.74508" lon="1.54516">
        <ele>1554.284</ele>
        <time>2021-03-06T13:12:17Z</time>
      </trkpt>
      <trkpt lat="42.7451" lon="1.54516">
        <ele>1553.53</ele>
        <time>2021-03-06T13:12:19Z</time>
      </trkpt>
      <trkpt lat="42.74513" lon="1.54516">
        <ele>1552.28</ele>
        <time>2021-03-06T13:12:21Z</time>
      </trkpt>
      <trkpt lat="42.74515" lon="1.54516">
        <ele>1550.725</ele>
        <time>2021-03-06T13:12:23Z</time>
      </trkpt>
      <trkpt lat="42.74518" lon="1.54515">
        <ele>1550.198</ele>
        <time>2021-03-06T13:12:25Z</time>
      </trkpt>
      <trkpt lat="42.7452" lon="1.54515">
        <ele>1550.114</ele>
        <time>2021-03-06T13:12:27Z</time>
      </trkpt>
      <trkpt lat="42.74522" lon="1.54514">
        <ele>1549.833</ele>
        <time>2021-03-06T13:12:29Z</time>
      </trkpt>
      <trkpt lat="42.74525" lon="1.54513">
        <ele>1548.384</ele>
        <time>2021-03-06T13:12:31Z</time>
      </trkpt>
      <trkpt lat="42.74527" lon="1.54513">
        <ele>1547.758</ele>
        <time>2021-03-06T13:12:33Z</time>
      </trkpt>
      <trkpt lat="42.74529" lon="1.54512">
        <ele>1546.738</ele>
        <time>2021-03-06T13:12:35Z</time>
      </trkpt>
      <trkpt lat="42.74532" lon="1.54512">
        <ele>1545.342</ele>
        <time>2021-03-06T13:12:37Z</time>
      </trkpt>
      <trkpt lat="42.74534" lon="1.54512">
        <ele>1544.687</ele>
        <time>2021-03-06T13:12:39Z</time>
      </trkpt>
      <trkpt lat="42.74537" lon="1.5451">
        <ele>1543.925</ele>
        <time>2021-03-06T13:12:41Z</time>
      </trkpt>
      <trkpt lat="42.74539" lon="1.54509">
        <ele>1543.196</ele>
        <time>2021-03-06T13:12:43Z</time>
      </trkpt>
      <trkpt lat="42.74541" lon="1.54508">
        <ele>1541.027</ele>
        <time>2021-03-06T13:12:45Z</time>
      </trkpt>
      <trkpt lat="42.74543" lon="1.54506">
        <ele>1539.681</ele>
        <time>2021-03-06T13:12:47Z</time>
      </trkpt>
      <trkpt lat="42.74546" lon="1.54505">
        <ele>1538.899</ele>
        <time>2021-03-06T13:12:49Z</time>
      </trkpt>
      <trkpt lat="42.74547" lon="1.54503">
        <ele>1537.487</ele>
        <time>2021-03-06T13:12:51Z</time>
      </trkpt>
      <trkpt lat="42.74549" lon="1.54501">
        <ele>1536.498</ele>
        <time>2021-03-06T13:12:53Z</time>
      </trkpt>
      <trkpt lat="42.7455" lon="1.54499">
        <ele>1535.122</ele>
        <time>2021-03-06T13:12:55Z</time>
      </trkpt>
      <trkpt lat="42.74552" lon="1.54496">
        <ele>1533.886</ele>
        <time>2021-03-06T13:12:57Z</time>
      </trkpt>
      <trkpt lat="42.74554" lon="1.54495">
        <ele>1532.836</ele>
        <time>2021-03-06T13:12:59Z</time>
      </trkpt>
      <trkpt lat="42.74556" lon="1.54494">
        <ele>1532.423</ele>
        <time>2021-03-06T13:13:01Z</time>
      </trkpt>
      <trkpt lat="42.74559" lon="1.54494">
        <ele>1531.993</ele>
        <time>2021-03-06T13:13:03Z</time>
      </trkpt>
      <trkpt lat="42.74561" lon="1.54496">
        <ele>1531.75</ele>
        <time>2021-03-06T13:13:05Z</time>
      </trkpt>
      <trkpt lat="42.74562" lon="1.54499">
        <ele>1532.583</ele>
        <time>2021-03-06T13:13:07Z</time>
      </trkpt>
      <trkpt lat="42.74563" lon="1.54501">
        <ele>1530.393</ele>
        <time>2021-03-06T13:13:09Z</time>
      </trkpt>
      <trkpt lat="42.74564" lon="1.54504">
        <ele>1529.324</ele>
        <time>2021-03-06T13:13:11Z</time>
      </trkpt>
      <trkpt lat="42.74565" lon="1.54508">
        <ele>1528.732</ele>
        <time>2021-03-06T13:13:13Z</time>
      </trkpt>
      <trkpt lat="42.74565" lon="1.54512">
        <ele>1528.993</ele>
        <time>2021-03-06T13:13:15Z</time>
      </trkpt>
      <trkpt lat="42.74565" lon="1.54515">
        <ele>1528.636</ele>
        <time>2021-03-06T13:13:17Z</time>
      </trkpt>
      <trkpt lat="42.74565" lon="1.54519">
        <ele>1527.371</ele>
        <time>2021-03-06T13:13:19Z</time>
      </trkpt>
      <trkpt lat="42.74566" lon="1.54522">
        <ele>1526.033</ele>
        <time>2021-03-06T13:13:21Z</time>
      </trkpt>
      <trkpt lat="42.74566" lon="1.54526">
        <ele>1525.435</ele>
        <time>2021-03-06T13:13:23Z</time>
      </trkpt>
      <trkpt lat="42.74567" lon="1.54529">
        <ele>1525.475</ele>
        <time>2021-03-06T13:13:25Z</time>
      </trkpt>
      <trkpt lat="42.74567" lon="1.54532">
        <ele>1524.062</ele>
        <time>2021-03-06T13:13:27Z</time>
      </trkpt>
      <trkpt lat="42.74568" lon="1.54535">
        <ele>1523.569</ele>
        <time>2021-03-06T13:13:29Z</time>
      </trkpt>
      <trkpt lat="42.74568" lon="1.54538">
        <ele>1521.506</ele>
        <time>2021-03-06T13:13:31Z</time>
      </trkpt>
      <trkpt lat="42.74569" lon="1.54541">
        <ele>1521.278</ele>
        <time>2021-03-06T13:13:33Z</time>
      </trkpt>
      <trkpt lat="42.7457" lon="1.54544">
        <ele>1520.334</ele>
        <time>2021-03-06T13:13:35Z</time>
      </trkpt>
      <trkpt lat="42.74571" lon="1.54548">
        <ele>1519.53</ele>
        <time>2021-03-06T13:13:37Z</time>
      </trkpt>
      <trkpt lat="42.74572" lon="1.54551">
        <ele>1519.923</ele>
        <time>2021-03-06T13:13:39Z</time>
      </trkpt>
      <trkpt lat="42.74573" lon="1.54555">
        <ele>1518.912</ele>
        <time>2021-03-06T13:13:41Z</time>
      </trkpt>
      <trkpt lat="42.74574" lon="1.54557">
        <ele>1518.444</ele>
        <time>2021-03-06T13:13:43Z</time>
      </trkpt>
      <trkpt lat="42.74575" lon="1.54561">
        <ele>1518.016</ele>
        <time>2021-03-06T13:13:45Z</time>
      </trkpt>
      <trkpt lat="42.74576" lon="1.54564">
        <ele>1517.392</ele>
        <time>2021-03-06T13:13:47Z</time>
      </trkpt>
      <trkpt lat="42.74577" lon="1.54567">
        <ele>1517.581</ele>
        <time>2021-03-06T13:13:49Z</time>
      </trkpt>
      <trkpt lat="42.74578" lon="1.5457">
        <ele>1517.448</ele>
        <time>2021-03-06T13:13:51Z</time>
      </trkpt>
      <trkpt lat="42.74579" lon="1.54573">
        <ele>1515.982</ele>
        <time>2021-03-06T13:13:53Z</time>
      </trkpt>
      <trkpt lat="42.7458" lon="1.54576">
        <ele>1515.408</ele>
        <time>2021-03-06T13:13:55Z</time>
      </trkpt>
      <trkpt lat="42.74581" lon="1.54579">
        <ele>1515.082</ele>
        <time>2021-03-06T13:13:57Z</time>
      </trkpt>
      <trkpt lat="42.74582" lon="1.54582">
        <ele>1514.783</ele>
        <time>2021-03-06T13:13:59Z</time>
      </trkpt>
      <trkpt lat="42.74583" lon="1.54585">
        <ele>1514.112</ele>
        <time>2021-03-06T13:14:01Z</time>
      </trkpt>
      <trkpt lat="42.74584" lon="1.54588">
        <ele>1513.115</ele>
        <time>2021-03-06T13:14:03Z</time>
      </trkpt>
      <trkpt lat="42.74586" lon="1.54591">
        <ele>1511.365</ele>
        <time>2021-03-06T13:14:05Z</time>
      </trkpt>
      <trkpt lat="42.74587" lon="1.54594">
        <ele>1510.865</ele>
        <time>2021-03-06T13:14:07Z</time>
      </trkpt>
      <trkpt lat="42.74588" lon="1.54597">
        <ele>1509.884</ele>
        <time>2021-03-06T13:14:09Z</time>
      </trkpt>
      <trkpt lat="42.74589" lon="1.546">
        <ele>1508.804</ele>
        <time>2021-03-06T13:14:11Z</time>
      </trkpt>
      <trkpt lat="42.74591" lon="1.54603">
        <ele>1508.508</ele>
        <time>2021-03-06T13:14:13Z</time>
      </trkpt>
      <trkpt lat="42.74592" lon="1.54606">
        <ele>1507.652</ele>
        <time>2021-03-06T13:14:15Z</time>
      </trkpt>
      <trkpt lat="42.74593" lon="1.54609">
        <ele>1506.896</ele>
        <time>2021-03-06T13:14:17Z</time>
      </trkpt>
      <trkpt lat="42.74594" lon="1.54612">
        <ele>1506.442</ele>
        <time>2021-03-06T13:14:19Z</time>
      </trkpt>
      <trkpt lat="42.74595" lon="1.54616">
        <ele>1504.599</ele>
        <time>2021-03-06T13:14:21Z</time>
      </trkpt>
      <trkpt lat="42.74595" lon="1.54619">
        <ele>1504.373</ele>
        <time>2021-03-06T13:14:23Z</time>
      </trkpt>
      <trkpt lat="42.74596" lon="1.54624">
        <ele>1505.465</ele>
        <time>2021-03-06T13:14:25Z</time>
      </trkpt>
      <trkpt lat="42.74596" lon="1.54628">
        <ele>1506.354</ele>
        <time>2021-03-06T13:14:27Z</time>
      </trkpt>
      <trkpt lat="42.74597" lon="1.54632">
        <ele>1506.387</ele>
        <time>2021-03-06T13:14:29Z</time>
      </trkpt>
      <trkpt lat="42.74597" lon="1.54635">
        <ele>1505.122</ele>
        <time>2021-03-06T13:14:31Z</time>
      </trkpt>
      <trkpt lat="42.74598" lon="1.54639">
        <ele>1504.776</ele>
        <time>2021-03-06T13:14:33Z</time>
      </trkpt>
      <trkpt lat="42.74599" lon="1.54643">
        <ele>1503.069</ele>
        <time>2021-03-06T13:14:35Z</time>
      </trkpt>
      <trkpt lat="42.746" lon="1.54647">
        <ele>1501.674</ele>
        <time>2021-03-06T13:14:37Z</time>
      </trkpt>
      <trkpt lat="42.746" lon="1.54651">
        <ele>1501.406</ele>
        <time>2021-03-06T13:14:39Z</time>
      </trkpt>
      <trkpt lat="42.74601" lon="1.54654">
        <ele>1500.291</ele>
        <time>2021-03-06T13:14:41Z</time>
      </trkpt>
      <trkpt lat="42.74602" lon="1.54658">
        <ele>1500.239</ele>
        <time>2021-03-06T13:14:43Z</time>
      </trkpt>
      <trkpt lat="42.74603" lon="1.54661">
        <ele>1499.496</ele>
        <time>2021-03-06T13:14:45Z</time>
      </trkpt>
      <trkpt lat="42.74604" lon="1.54666">
        <ele>1497.192</ele>
        <time>2021-03-06T13:14:48Z</time>
      </trkpt>
      <trkpt lat="42.74605" lon="1.5467">
        <ele>1496.61</ele>
        <time>2021-03-06T13:14:50Z</time>
      </trkpt>
      <trkpt lat="42.74605" lon="1.54675">
        <ele>1496.098</ele>
        <time>2021-03-06T13:14:52Z</time>
      </trkpt>
      <trkpt lat="42.74605" lon="1.54679">
        <ele>1495.021</ele>
        <time>2021-03-06T13:14:54Z</time>
      </trkpt>
      <trkpt lat="42.74605" lon="1.54684">
        <ele>1494.648</ele>
        <time>2021-03-06T13:14:56Z</time>
      </trkpt>
      <trkpt lat="42.74605" lon="1.54688">
        <ele>1494.026</ele>
        <time>2021-03-06T13:14:58Z</time>
      </trkpt>
      <trkpt lat="42.74605" lon="1.54693">
        <ele>1494.178</ele>
        <time>2021-03-06T13:15:00Z</time>
      </trkpt>
      <trkpt lat="42.74605" lon="1.54697">
        <ele>1493.741</ele>
        <time>2021-03-06T13:15:02Z</time>
      </trkpt>
      <trkpt lat="42.74605" lon="1.54701">
        <ele>1492.941</ele>
        <time>2021-03-06T13:15:04Z</time>
      </trkpt>
      <trkpt lat="42.74604" lon="1.54705">
        <ele>1493.023</ele>
        <time>2021-03-06T13:15:06Z</time>
      </trkpt>
      <trkpt lat="42.74604" lon="1.54709">
        <ele>1492.895</ele>
        <time>2021-03-06T13:15:08Z</time>
      </trkpt>
      <trkpt lat="42.74603" lon="1.54712">
        <ele>1492.875</ele>
        <time>2021-03-06T13:15:10Z</time>
      </trkpt>
      <trkpt lat="42.74603" lon="1.54716">
        <ele>1492.135</ele>
        <time>2021-03-06T13:15:12Z</time>
      </trkpt>
      <trkpt lat="42.74602" lon="1.54719">
        <ele>1491.553</ele>
        <time>2021-03-06T13:15:14Z</time>
      </trkpt>
      <trkpt lat="42.74603" lon="1.54723">
        <ele>1492.551</ele>
        <time>2021-03-06T13:15:16Z</time>
      </trkpt>
      <trkpt lat="42.74603" lon="1.54726">
        <ele>1493.904</ele>
        <time>2021-03-06T13:15:18Z</time>
      </trkpt>
      <trkpt lat="42.74604" lon="1.5473">
        <ele>1494.467</ele>
        <time>2021-03-06T13:15:20Z</time>
      </trkpt>
      <trkpt lat="42.74602" lon="1.54733">
        <ele>1493.705</ele>
        <time>2021-03-06T13:15:22Z</time>
      </trkpt>
      <trkpt lat="42.74601" lon="1.54735">
        <ele>1493.653</ele>
        <time>2021-03-06T13:15:24Z</time>
      </trkpt>
      <trkpt lat="42.74599" lon="1.54737">
        <ele>1493.831</ele>
        <time>2021-03-06T13:15:26Z</time>
      </trkpt>
      <trkpt lat="42.74598" lon="1.5474">
        <ele>1493.841</ele>
        <time>2021-03-06T13:15:28Z</time>
      </trkpt>
      <trkpt lat="42.74596" lon="1.54742">
        <ele>1493.054</ele>
        <time>2021-03-06T13:15:30Z</time>
      </trkpt>
      <trkpt lat="42.74595" lon="1.54742">
        <ele>1493.045</ele>
        <time>2021-03-06T13:15:32Z</time>
      </trkpt>
      <trkpt lat="42.74595" lon="1.54743">
        <ele>1493.047</ele>
        <time>2021-03-06T13:15:34Z</time>
      </trkpt>
      <trkpt lat="42.74594" lon="1.54744">
        <ele>1492.82</ele>
        <time>2021-03-06T13:15:36Z</time>
      </trkpt>
      <trkpt lat="42.74593" lon="1.54745">
        <ele>1492.177</ele>
        <time>2021-03-06T13:15:38Z</time>
      </trkpt>
      <trkpt lat="42.74592" lon="1.54747">
        <ele>1492.372</ele>
        <time>2021-03-06T13:15:40Z</time>
      </trkpt>
      <trkpt lat="42.7459" lon="1.54749">
        <ele>1492.45</ele>
        <time>2021-03-06T13:15:42Z</time>
      </trkpt>
      <trkpt lat="42.74589" lon="1.54752">
        <ele>1492.751</ele>
        <time>2021-03-06T13:15:44Z</time>
      </trkpt>
      <trkpt lat="42.74587" lon="1.54754">
        <ele>1492.045</ele>
        <time>2021-03-06T13:15:46Z</time>
      </trkpt>
      <trkpt lat="42.74586" lon="1.54757">
        <ele>1492.078</ele>
        <time>2021-03-06T13:15:48Z</time>
      </trkpt>
      <trkpt lat="42.74585" lon="1.5476">
        <ele>1491.967</ele>
        <time>2021-03-06T13:15:50Z</time>
      </trkpt>
      <trkpt lat="42.74585" lon="1.54763">
        <ele>1491.909</ele>
        <time>2021-03-06T13:15:52Z</time>
      </trkpt>
      <trkpt lat="42.74586" lon="1.54766">
        <ele>1490.921</ele>
        <time>2021-03-06T13:15:54Z</time>
      </trkpt>
      <trkpt lat="42.74587" lon="1.54769">
        <ele>1489.332</ele>
        <time>2021-03-06T13:15:56Z</time>
      </trkpt>
      <trkpt lat="42.7459" lon="1.54772">
        <ele>1488.56</ele>
        <time>2021-03-06T13:15:58Z</time>
      </trkpt>
      <trkpt lat="42.74592" lon="1.54774">
        <ele>1487.13</ele>
        <time>2021-03-06T13:16:00Z</time>
      </trkpt>
      <trkpt lat="42.74594" lon="1.54775">
        <ele>1486.702</ele>
        <time>2021-03-06T13:16:02Z</time>
      </trkpt>
      <trkpt lat="42.74597" lon="1.54776">
        <ele>1486.419</ele>
        <time>2021-03-06T13:16:04Z</time>
      </trkpt>
      <trkpt lat="42.746" lon="1.54777">
        <ele>1484.497</ele>
        <time>2021-03-06T13:16:06Z</time>
      </trkpt>
      <trkpt lat="42.74602" lon="1.54778">
        <ele>1483.923</ele>
        <time>2021-03-06T13:16:08Z</time>
      </trkpt>
      <trkpt lat="42.74605" lon="1.54779">
        <ele>1482.823</ele>
        <time>2021-03-06T13:16:10Z</time>
      </trkpt>
      <trkpt lat="42.74607" lon="1.5478">
        <ele>1482.477</ele>
        <time>2021-03-06T13:16:12Z</time>
      </trkpt>
      <trkpt lat="42.7461" lon="1.54781">
        <ele>1481.667</ele>
        <time>2021-03-06T13:16:14Z</time>
      </trkpt>
      <trkpt lat="42.74612" lon="1.54782">
        <ele>1480.425</ele>
        <time>2021-03-06T13:16:16Z</time>
      </trkpt>
      <trkpt lat="42.74615" lon="1.54783">
        <ele>1479.809</ele>
        <time>2021-03-06T13:16:18Z</time>
      </trkpt>
      <trkpt lat="42.74618" lon="1.54784">
        <ele>1478.635</ele>
        <time>2021-03-06T13:16:20Z</time>
      </trkpt>
      <trkpt lat="42.7462" lon="1.54785">
        <ele>1477.738</ele>
        <time>2021-03-06T13:16:22Z</time>
      </trkpt>
      <trkpt lat="42.74623" lon="1.54786">
        <ele>1476.882</ele>
        <time>2021-03-06T13:16:24Z</time>
      </trkpt>
      <trkpt lat="42.74625" lon="1.54786">
        <ele>1476.09</ele>
        <time>2021-03-06T13:16:26Z</time>
      </trkpt>
      <trkpt lat="42.74628" lon="1.54786">
        <ele>1475.114</ele>
        <time>2021-03-06T13:16:28Z</time>
      </trkpt>
      <trkpt lat="42.7463" lon="1.54787">
        <ele>1473.778</ele>
        <time>2021-03-06T13:16:30Z</time>
      </trkpt>
      <trkpt lat="42.74633" lon="1.54787">
        <ele>1472.648</ele>
        <time>2021-03-06T13:16:32Z</time>
      </trkpt>
      <trkpt lat="42.74635" lon="1.54788">
        <ele>1471.223</ele>
        <time>2021-03-06T13:16:34Z</time>
      </trkpt>
      <trkpt lat="42.74637" lon="1.54788">
        <ele>1469.456</ele>
        <time>2021-03-06T13:16:36Z</time>
      </trkpt>
      <trkpt lat="42.7464" lon="1.54788">
        <ele>1468.205</ele>
        <time>2021-03-06T13:16:38Z</time>
      </trkpt>
      <trkpt lat="42.74643" lon="1.54789">
        <ele>1467.367</ele>
        <time>2021-03-06T13:16:40Z</time>
      </trkpt>
      <trkpt lat="42.74645" lon="1.5479">
        <ele>1467.512</ele>
        <time>2021-03-06T13:16:42Z</time>
      </trkpt>
      <trkpt lat="42.74648" lon="1.54791">
        <ele>1465.49</ele>
        <time>2021-03-06T13:16:44Z</time>
      </trkpt>
      <trkpt lat="42.74651" lon="1.54791">
        <ele>1464.922</ele>
        <time>2021-03-06T13:16:46Z</time>
      </trkpt>
      <trkpt lat="42.74653" lon="1.54792">
        <ele>1463.721</ele>
        <time>2021-03-06T13:16:48Z</time>
      </trkpt>
      <trkpt lat="42.74656" lon="1.54792">
        <ele>1462.856</ele>
        <time>2021-03-06T13:16:50Z</time>
      </trkpt>
      <trkpt lat="42.74659" lon="1.54793">
        <ele>1462.14</ele>
        <time>2021-03-06T13:16:52Z</time>
      </trkpt>
      <trkpt lat="42.74661" lon="1.54794">
        <ele>1461.802</ele>
        <time>2021-03-06T13:16:54Z</time>
      </trkpt>
      <trkpt lat="42.74664" lon="1.54795">
        <ele>1461.665</ele>
        <time>2021-03-06T13:16:56Z</time>
      </trkpt>
      <trkpt lat="42.74666" lon="1.54796">
        <ele>1460.537</ele>
        <time>2021-03-06T13:16:58Z</time>
      </trkpt>
      <trkpt lat="42.74669" lon="1.54797">
        <ele>1459.289</ele>
        <time>2021-03-06T13:17:00Z</time>
      </trkpt>
      <trkpt lat="42.74671" lon="1.54798">
        <ele>1458.698</ele>
        <time>2021-03-06T13:17:02Z</time>
      </trkpt>
      <trkpt lat="42.74674" lon="1.54799">
        <ele>1457.448</ele>
        <time>2021-03-06T13:17:04Z</time>
      </trkpt>
      <trkpt lat="42.74677" lon="1.54801">
        <ele>1456.205</ele>
        <time>2021-03-06T13:17:06Z</time>
      </trkpt>
      <trkpt lat="42.7468" lon="1.54802">
        <ele>1454.606</ele>
        <time>2021-03-06T13:17:08Z</time>
      </trkpt>
      <trkpt lat="42.74682" lon="1.54802">
        <ele>1453.581</ele>
        <time>2021-03-06T13:17:10Z</time>
      </trkpt>
      <trkpt lat="42.74686" lon="1.54803">
        <ele>1452.484</ele>
        <time>2021-03-06T13:17:12Z</time>
      </trkpt>
      <trkpt lat="42.74689" lon="1.54803">
        <ele>1452.694</ele>
        <time>2021-03-06T13:17:14Z</time>
      </trkpt>
      <trkpt lat="42.74692" lon="1.54802">
        <ele>1451.913</ele>
        <time>2021-03-06T13:17:16Z</time>
      </trkpt>
      <trkpt lat="42.74694" lon="1.54802">
        <ele>1451.956</ele>
        <time>2021-03-06T13:17:18Z</time>
      </trkpt>
      <trkpt lat="42.74697" lon="1.54801">
        <ele>1451.707</ele>
        <time>2021-03-06T13:17:20Z</time>
      </trkpt>
      <trkpt lat="42.74699" lon="1.54801">
        <ele>1451.068</ele>
        <time>2021-03-06T13:17:22Z</time>
      </trkpt>
      <trkpt lat="42.74702" lon="1.548">
        <ele>1450.67</ele>
        <time>2021-03-06T13:17:24Z</time>
      </trkpt>
      <trkpt lat="42.74704" lon="1.548">
        <ele>1450.536</ele>
        <time>2021-03-06T13:17:26Z</time>
      </trkpt>
      <trkpt lat="42.74707" lon="1.54801">
        <ele>1450.362</ele>
        <time>2021-03-06T13:17:28Z</time>
      </trkpt>
      <trkpt lat="42.74709" lon="1.54802">
        <ele>1450.827</ele>
        <time>2021-03-06T13:17:30Z</time>
      </trkpt>
      <trkpt lat="42.74711" lon="1.54802">
        <ele>1451.41</ele>
        <time>2021-03-06T13:17:32Z</time>
      </trkpt>
      <trkpt lat="42.74712" lon="1.54802">
        <ele>1451.897</ele>
        <time>2021-03-06T13:17:34Z</time>
      </trkpt>
      <trkpt lat="42.74712" lon="1.54802">
        <ele>1451.897</ele>
        <time>2021-03-06T13:17:36Z</time>
      </trkpt>
      <trkpt lat="42.74712" lon="1.54802">
        <ele>1451.897</ele>
        <time>2021-03-06T13:17:38Z</time>
      </trkpt>
      <trkpt lat="42.74712" lon="1.54802">
        <ele>1451.906</ele>
        <time>2021-03-06T13:17:40Z</time>
      </trkpt>
      <trkpt lat="42.74712" lon="1.54802">
        <ele>1451.903</ele>
        <time>2021-03-06T13:17:42Z</time>
      </trkpt>
      <trkpt lat="42.74712" lon="1.54802">
        <ele>1451.902</ele>
        <time>2021-03-06T13:17:44Z</time>
      </trkpt>
      <trkpt lat="42.74712" lon="1.54802">
        <ele>1451.898</ele>
        <time>2021-03-06T13:17:46Z</time>
      </trkpt>
      <trkpt lat="42.74712" lon="1.54802">
        <ele>1452.566</ele>
        <time>2021-03-06T13:17:48Z</time>
      </trkpt>
      <trkpt lat="42.74713" lon="1.54803">
        <ele>1453.603</ele>
        <time>2021-03-06T13:17:50Z</time>
      </trkpt>
      <trkpt lat="42.74713" lon="1.54803">
        <ele>1453.6</ele>
        <time>2021-03-06T13:17:52Z</time>
      </trkpt>
      <trkpt lat="42.74713" lon="1.54803">
        <ele>1453.604</ele>
        <time>2021-03-06T13:17:54Z</time>
      </trkpt>
      <trkpt lat="42.74713" lon="1.54803">
        <ele>1453.603</ele>
        <time>2021-03-06T13:17:56Z</time>
      </trkpt>
      <trkpt lat="42.74713" lon="1.54803">
        <ele>1453.596</ele>
        <time>2021-03-06T13:17:58Z</time>
      </trkpt>
      <trkpt lat="42.74713" lon="1.54803">
        <ele>1453.97</ele>
        <time>2021-03-06T13:18:00Z</time>
      </trkpt>
      <trkpt lat="42.74713" lon="1.54804">
        <ele>1453.987</ele>
        <time>2021-03-06T13:18:02Z</time>
      </trkpt>
      <trkpt lat="42.74713" lon="1.54806">
        <ele>1453.05</ele>
        <time>2021-03-06T13:18:04Z</time>
      </trkpt>
      <trkpt lat="42.74713" lon="1.54806">
        <ele>1453.263</ele>
        <time>2021-03-06T13:18:06Z</time>
      </trkpt>
      <trkpt lat="42.74713" lon="1.54806">
        <ele>1453.262</ele>
        <time>2021-03-06T13:18:08Z</time>
      </trkpt>
      <trkpt lat="42.74713" lon="1.54806">
        <ele>1453.264</ele>
        <time>2021-03-06T13:18:10Z</time>
      </trkpt>
      <trkpt lat="42.74713" lon="1.54806">
        <ele>1453.262</ele>
        <time>2021-03-06T13:18:12Z</time>
      </trkpt>
      <trkpt lat="42.74713" lon="1.54806">
        <ele>1453.264</ele>
        <time>2021-03-06T13:18:14Z</time>
      </trkpt>
      <trkpt lat="42.74713" lon="1.54806">
        <ele>1453.267</ele>
        <time>2021-03-06T13:18:16Z</time>
      </trkpt>
      <trkpt lat="42.74713" lon="1.54806">
        <ele>1453.269</ele>
        <time>2021-03-06T13:18:18Z</time>
      </trkpt>
      <trkpt lat="42.74713" lon="1.54806">
        <ele>1453.323</ele>
        <time>2021-03-06T13:18:20Z</time>
      </trkpt>
      <trkpt lat="42.74713" lon="1.54805">
        <ele>1454.183</ele>
        <time>2021-03-06T13:18:22Z</time>
      </trkpt>
      <trkpt lat="42.74712" lon="1.54805">
        <ele>1454.936</ele>
        <time>2021-03-06T13:18:24Z</time>
      </trkpt>
      <trkpt lat="42.74711" lon="1.54803">
        <ele>1454.644</ele>
        <time>2021-03-06T13:18:26Z</time>
      </trkpt>
      <trkpt lat="42.74712" lon="1.54802">
        <ele>1454.662</ele>
        <time>2021-03-06T13:18:28Z</time>
      </trkpt>
      <trkpt lat="42.74712" lon="1.54802">
        <ele>1454.662</ele>
        <time>2021-03-06T13:18:30Z</time>
      </trkpt>
      <trkpt lat="42.74712" lon="1.54802">
        <ele>1454.664</ele>
        <time>2021-03-06T13:18:32Z</time>
      </trkpt>
      <trkpt lat="42.74712" lon="1.54802">
        <ele>1454.66</ele>
        <time>2021-03-06T13:18:34Z</time>
      </trkpt>
      <trkpt lat="42.74712" lon="1.54802">
        <ele>1454.657</ele>
        <time>2021-03-06T13:18:36Z</time>
      </trkpt>
      <trkpt lat="42.74712" lon="1.54802">
        <ele>1454.659</ele>
        <time>2021-03-06T13:18:38Z</time>
      </trkpt>
      <trkpt lat="42.74712" lon="1.54802">
        <ele>1454.654</ele>
        <time>2021-03-06T13:18:40Z</time>
      </trkpt>
      <trkpt lat="42.74712" lon="1.54802">
        <ele>1454.831</ele>
        <time>2021-03-06T13:18:42Z</time>
      </trkpt>
      <trkpt lat="42.74712" lon="1.54802">
        <ele>1454.831</ele>
        <time>2021-03-06T13:18:44Z</time>
      </trkpt>
      <trkpt lat="42.74712" lon="1.54802">
        <ele>1454.837</ele>
        <time>2021-03-06T13:18:46Z</time>
      </trkpt>
      <trkpt lat="42.74712" lon="1.54802">
        <ele>1454.832</ele>
        <time>2021-03-06T13:18:48Z</time>
      </trkpt>
      <trkpt lat="42.74712" lon="1.54802">
        <ele>1455.14</ele>
        <time>2021-03-06T13:18:50Z</time>
      </trkpt>
      <trkpt lat="42.74712" lon="1.54802">
        <ele>1455.141</ele>
        <time>2021-03-06T13:18:52Z</time>
      </trkpt>
      <trkpt lat="42.74712" lon="1.54802">
        <ele>1455.136</ele>
        <time>2021-03-06T13:18:54Z</time>
      </trkpt>
      <trkpt lat="42.74712" lon="1.54802">
        <ele>1455.267</ele>
        <time>2021-03-06T13:18:56Z</time>
      </trkpt>
      <trkpt lat="42.74712" lon="1.54801">
        <ele>1454.699</ele>
        <time>2021-03-06T13:18:58Z</time>
      </trkpt>
      <trkpt lat="42.74712" lon="1.54801">
        <ele>1454.716</ele>
        <time>2021-03-06T13:19:00Z</time>
      </trkpt>
      <trkpt lat="42.74712" lon="1.54801">
        <ele>1454.713</ele>
        <time>2021-03-06T13:19:02Z</time>
      </trkpt>
      <trkpt lat="42.74712" lon="1.54801">
        <ele>1454.703</ele>
        <time>2021-03-06T13:19:04Z</time>
      </trkpt>
      <trkpt lat="42.74712" lon="1.54801">
        <ele>1454.705</ele>
        <time>2021-03-06T13:19:06Z</time>
      </trkpt>
      <trkpt lat="42.74712" lon="1.54801">
        <ele>1454.713</ele>
        <time>2021-03-06T13:19:08Z</time>
      </trkpt>
      <trkpt lat="42.74712" lon="1.54801">
        <ele>1454.727</ele>
        <time>2021-03-06T13:19:10Z</time>
      </trkpt>
      <trkpt lat="42.74712" lon="1.54801">
        <ele>1454.744</ele>
        <time>2021-03-06T13:19:12Z</time>
      </trkpt>
      <trkpt lat="42.74712" lon="1.54801">
        <ele>1454.754</ele>
        <time>2021-03-06T13:19:14Z</time>
      </trkpt>
      <trkpt lat="42.74712" lon="1.54801">
        <ele>1454.763</ele>
        <time>2021-03-06T13:19:16Z</time>
      </trkpt>
      <trkpt lat="42.74712" lon="1.54801">
        <ele>1454.764</ele>
        <time>2021-03-06T13:19:18Z</time>
      </trkpt>
      <trkpt lat="42.74712" lon="1.54801">
        <ele>1455.161</ele>
        <time>2021-03-06T13:19:20Z</time>
      </trkpt>
      <trkpt lat="42.74712" lon="1.548">
        <ele>1455.222</ele>
        <time>2021-03-06T13:19:22Z</time>
      </trkpt>
      <trkpt lat="42.74712" lon="1.548">
        <ele>1455.219</ele>
        <time>2021-03-06T13:19:24Z</time>
      </trkpt>
      <trkpt lat="42.74712" lon="1.548">
        <ele>1455.161</ele>
        <time>2021-03-06T13:19:26Z</time>
      </trkpt>
      <trkpt lat="42.74713" lon="1.54799">
        <ele>1455.302</ele>
        <time>2021-03-06T13:19:28Z</time>
      </trkpt>
      <trkpt lat="42.74713" lon="1.54799">
        <ele>1455.013</ele>
        <time>2021-03-06T13:19:30Z</time>
      </trkpt>
      <trkpt lat="42.74714" lon="1.54797">
        <ele>1455.545</ele>
        <time>2021-03-06T13:19:32Z</time>
      </trkpt>
      <trkpt lat="42.74714" lon="1.54793">
        <ele>1455.4</ele>
        <time>2021-03-06T13:19:34Z</time>
      </trkpt>
      <trkpt lat="42.74713" lon="1.54792">
        <ele>1455.348</ele>
        <time>2021-03-06T13:19:36Z</time>
      </trkpt>
      <trkpt lat="42.74713" lon="1.54792">
        <ele>1455.338</ele>
        <time>2021-03-06T13:19:38Z</time>
      </trkpt>
      <trkpt lat="42.74713" lon="1.54792">
        <ele>1455.321</ele>
        <time>2021-03-06T13:19:40Z</time>
      </trkpt>
      <trkpt lat="42.74713" lon="1.54792">
        <ele>1455.309</ele>
        <time>2021-03-06T13:19:42Z</time>
      </trkpt>
      <trkpt lat="42.74713" lon="1.54792">
        <ele>1455.292</ele>
        <time>2021-03-06T13:19:44Z</time>
      </trkpt>
      <trkpt lat="42.74713" lon="1.54793">
        <ele>1455.135</ele>
        <time>2021-03-06T13:19:46Z</time>
      </trkpt>
      <trkpt lat="42.74713" lon="1.54793">
        <ele>1454.958</ele>
        <time>2021-03-06T13:19:48Z</time>
      </trkpt>
      <trkpt lat="42.74713" lon="1.54793">
        <ele>1453.42</ele>
        <time>2021-03-06T13:19:50Z</time>
      </trkpt>
      <trkpt lat="42.74714" lon="1.54793">
        <ele>1453.338</ele>
        <time>2021-03-06T13:19:52Z</time>
      </trkpt>
      <trkpt lat="42.74714" lon="1.54793">
        <ele>1453.337</ele>
        <time>2021-03-06T13:19:54Z</time>
      </trkpt>
      <trkpt lat="42.74714" lon="1.54794">
        <ele>1453.342</ele>
        <time>2021-03-06T13:19:56Z</time>
      </trkpt>
      <trkpt lat="42.74714" lon="1.54793">
        <ele>1452.794</ele>
        <time>2021-03-06T13:19:58Z</time>
      </trkpt>
      <trkpt lat="42.74716" lon="1.54798">
        <ele>1453.08</ele>
        <time>2021-03-06T13:20:00Z</time>
      </trkpt>
      <trkpt lat="42.74716" lon="1.54798">
        <ele>1452.992</ele>
        <time>2021-03-06T13:20:02Z</time>
      </trkpt>
      <trkpt lat="42.74716" lon="1.54798">
        <ele>1453.019</ele>
        <time>2021-03-06T13:20:04Z</time>
      </trkpt>
      <trkpt lat="42.74716" lon="1.54798">
        <ele>1453.019</ele>
        <time>2021-03-06T13:20:06Z</time>
      </trkpt>
      <trkpt lat="42.74716" lon="1.54798">
        <ele>1453.015</ele>
        <time>2021-03-06T13:20:08Z</time>
      </trkpt>
      <trkpt lat="42.74716" lon="1.54798">
        <ele>1453.009</ele>
        <time>2021-03-06T13:20:10Z</time>
      </trkpt>
      <trkpt lat="42.74716" lon="1.54797">
        <ele>1453.092</ele>
        <time>2021-03-06T13:20:12Z</time>
      </trkpt>
      <trkpt lat="42.74716" lon="1.54798">
        <ele>1453.568</ele>
        <time>2021-03-06T13:20:14Z</time>
      </trkpt>
      <trkpt lat="42.74715" lon="1.54796">
        <ele>1453.986</ele>
        <time>2021-03-06T13:20:16Z</time>
      </trkpt>
      <trkpt lat="42.74714" lon="1.54794">
        <ele>1453.877</ele>
        <time>2021-03-06T13:20:18Z</time>
      </trkpt>
      <trkpt lat="42.74716" lon="1.5479">
        <ele>1454.051</ele>
        <time>2021-03-06T13:20:20Z</time>
      </trkpt>
      <trkpt lat="42.74715" lon="1.54791">
        <ele>1454.02</ele>
        <time>2021-03-06T13:20:22Z</time>
      </trkpt>
      <trkpt lat="42.74715" lon="1.54791">
        <ele>1454.026</ele>
        <time>2021-03-06T13:20:24Z</time>
      </trkpt>
      <trkpt lat="42.74715" lon="1.54791">
        <ele>1454.032</ele>
        <time>2021-03-06T13:20:26Z</time>
      </trkpt>
      <trkpt lat="42.74715" lon="1.54791">
        <ele>1454.043</ele>
        <time>2021-03-06T13:20:28Z</time>
      </trkpt>
      <trkpt lat="42.74715" lon="1.54791">
        <ele>1454.052</ele>
        <time>2021-03-06T13:20:30Z</time>
      </trkpt>
      <trkpt lat="42.74715" lon="1.54791">
        <ele>1454.057</ele>
        <time>2021-03-06T13:20:32Z</time>
      </trkpt>
      <trkpt lat="42.74715" lon="1.54791">
        <ele>1454.061</ele>
        <time>2021-03-06T13:20:34Z</time>
      </trkpt>
      <trkpt lat="42.74715" lon="1.54791">
        <ele>1454.068</ele>
        <time>2021-03-06T13:20:36Z</time>
      </trkpt>
      <trkpt lat="42.74715" lon="1.54791">
        <ele>1454.065</ele>
        <time>2021-03-06T13:20:38Z</time>
      </trkpt>
      <trkpt lat="42.74715" lon="1.54791">
        <ele>1453.363</ele>
        <time>2021-03-06T13:20:40Z</time>
      </trkpt>
      <trkpt lat="42.74715" lon="1.54791">
        <ele>1453.31</ele>
        <time>2021-03-06T13:20:42Z</time>
      </trkpt>
      <trkpt lat="42.74715" lon="1.54791">
        <ele>1453.31</ele>
        <time>2021-03-06T13:20:44Z</time>
      </trkpt>
      <trkpt lat="42.74715" lon="1.54791">
        <ele>1453.309</ele>
        <time>2021-03-06T13:20:46Z</time>
      </trkpt>
      <trkpt lat="42.74715" lon="1.54791">
        <ele>1453.316</ele>
        <time>2021-03-06T13:20:48Z</time>
      </trkpt>
      <trkpt lat="42.74715" lon="1.54791">
        <ele>1453.116</ele>
        <time>2021-03-06T13:20:50Z</time>
      </trkpt>
      <trkpt lat="42.74716" lon="1.54791">
        <ele>1453.114</ele>
        <time>2021-03-06T13:20:52Z</time>
      </trkpt>
      <trkpt lat="42.74715" lon="1.54791">
        <ele>1453.602</ele>
        <time>2021-03-06T13:20:54Z</time>
      </trkpt>
      <trkpt lat="42.74715" lon="1.54791">
        <ele>1453.607</ele>
        <time>2021-03-06T13:20:56Z</time>
      </trkpt>
      <trkpt lat="42.74715" lon="1.54791">
        <ele>1453.602</ele>
        <time>2021-03-06T13:20:58Z</time>
      </trkpt>
      <trkpt lat="42.74715" lon="1.54791">
        <ele>1453.598</ele>
        <time>2021-03-06T13:21:00Z</time>
      </trkpt>
      <trkpt lat="42.74715" lon="1.54791">
        <ele>1453.845</ele>
        <time>2021-03-06T13:21:02Z</time>
      </trkpt>
      <trkpt lat="42.74715" lon="1.54791">
        <ele>1453.842</ele>
        <time>2021-03-06T13:21:04Z</time>
      </trkpt>
      <trkpt lat="42.74715" lon="1.54791">
        <ele>1453.456</ele>
        <time>2021-03-06T13:21:06Z</time>
      </trkpt>
      <trkpt lat="42.74715" lon="1.54791">
        <ele>1453.468</ele>
        <time>2021-03-06T13:21:09Z</time>
      </trkpt>
      <trkpt lat="42.74715" lon="1.54791">
        <ele>1453.401</ele>
        <time>2021-03-06T13:21:11Z</time>
      </trkpt>
      <trkpt lat="42.74715" lon="1.54792">
        <ele>1453.393</ele>
        <time>2021-03-06T13:21:13Z</time>
      </trkpt>
      <trkpt lat="42.74715" lon="1.54792">
        <ele>1453.399</ele>
        <time>2021-03-06T13:21:15Z</time>
      </trkpt>
      <trkpt lat="42.74716" lon="1.54792">
        <ele>1452.799</ele>
        <time>2021-03-06T13:21:17Z</time>
      </trkpt>
      <trkpt lat="42.74716" lon="1.54792">
        <ele>1452.149</ele>
        <time>2021-03-06T13:21:19Z</time>
      </trkpt>
      <trkpt lat="42.74716" lon="1.54792">
        <ele>1451.935</ele>
        <time>2021-03-06T13:21:21Z</time>
      </trkpt>
      <trkpt lat="42.74716" lon="1.54792">
        <ele>1451.944</ele>
        <time>2021-03-06T13:21:23Z</time>
      </trkpt>
      <trkpt lat="42.74716" lon="1.54792">
        <ele>1451.95</ele>
        <time>2021-03-06T13:21:25Z</time>
      </trkpt>
      <trkpt lat="42.74716" lon="1.54792">
        <ele>1451.971</ele>
        <time>2021-03-06T13:21:27Z</time>
      </trkpt>
      <trkpt lat="42.74716" lon="1.54792">
        <ele>1451.981</ele>
        <time>2021-03-06T13:21:29Z</time>
      </trkpt>
      <trkpt lat="42.74716" lon="1.54792">
        <ele>1451.439</ele>
        <time>2021-03-06T13:21:31Z</time>
      </trkpt>
      <trkpt lat="42.74716" lon="1.54793">
        <ele>1451.44</ele>
        <time>2021-03-06T13:21:33Z</time>
      </trkpt>
      <trkpt lat="42.74716" lon="1.54793">
        <ele>1451.442</ele>
        <time>2021-03-06T13:21:35Z</time>
      </trkpt>
      <trkpt lat="42.74716" lon="1.54793">
        <ele>1451.449</ele>
        <time>2021-03-06T13:21:37Z</time>
      </trkpt>
      <trkpt lat="42.74716" lon="1.54793">
        <ele>1451.662</ele>
        <time>2021-03-06T13:21:39Z</time>
      </trkpt>
      <trkpt lat="42.74716" lon="1.54793">
        <ele>1451.659</ele>
        <time>2021-03-06T13:21:41Z</time>
      </trkpt>
      <trkpt lat="42.74716" lon="1.54793">
        <ele>1451.684</ele>
        <time>2021-03-06T13:21:43Z</time>
      </trkpt>
      <trkpt lat="42.74716" lon="1.54793">
        <ele>1451.659</ele>
        <time>2021-03-06T13:21:45Z</time>
      </trkpt>
      <trkpt lat="42.74716" lon="1.54793">
        <ele>1451.664</ele>
        <time>2021-03-06T13:21:47Z</time>
      </trkpt>
      <trkpt lat="42.74716" lon="1.54793">
        <ele>1451.67</ele>
        <time>2021-03-06T13:21:49Z</time>
      </trkpt>
      <trkpt lat="42.74716" lon="1.54793">
        <ele>1451.674</ele>
        <time>2021-03-06T13:21:51Z</time>
      </trkpt>
      <trkpt lat="42.74716" lon="1.54793">
        <ele>1451.681</ele>
        <time>2021-03-06T13:21:53Z</time>
      </trkpt>
      <trkpt lat="42.74716" lon="1.54793">
        <ele>1451.677</ele>
        <time>2021-03-06T13:21:55Z</time>
      </trkpt>
      <trkpt lat="42.74716" lon="1.54793">
        <ele>1451.676</ele>
        <time>2021-03-06T13:21:57Z</time>
      </trkpt>
      <trkpt lat="42.74716" lon="1.54793">
        <ele>1451.685</ele>
        <time>2021-03-06T13:21:59Z</time>
      </trkpt>
      <trkpt lat="42.74716" lon="1.54793">
        <ele>1451.693</ele>
        <time>2021-03-06T13:22:01Z</time>
      </trkpt>
      <trkpt lat="42.74716" lon="1.54793">
        <ele>1451.721</ele>
        <time>2021-03-06T13:22:03Z</time>
      </trkpt>
      <trkpt lat="42.74716" lon="1.54793">
        <ele>1451.735</ele>
        <time>2021-03-06T13:22:05Z</time>
      </trkpt>
      <trkpt lat="42.74716" lon="1.54793">
        <ele>1451.756</ele>
        <time>2021-03-06T13:22:07Z</time>
      </trkpt>
      <trkpt lat="42.74716" lon="1.54793">
        <ele>1451.775</ele>
        <time>2021-03-06T13:22:09Z</time>
      </trkpt>
      <trkpt lat="42.74716" lon="1.54793">
        <ele>1451.795</ele>
        <time>2021-03-06T13:22:11Z</time>
      </trkpt>
      <trkpt lat="42.74716" lon="1.54793">
        <ele>1451.809</ele>
        <time>2021-03-06T13:22:13Z</time>
      </trkpt>
      <trkpt lat="42.74716" lon="1.54793">
        <ele>1451.84</ele>
        <time>2021-03-06T13:22:15Z</time>
      </trkpt>
      <trkpt lat="42.74716" lon="1.54793">
        <ele>1451.85</ele>
        <time>2021-03-06T13:22:17Z</time>
      </trkpt>
      <trkpt lat="42.74716" lon="1.54793">
        <ele>1451.867</ele>
        <time>2021-03-06T13:22:19Z</time>
      </trkpt>
      <trkpt lat="42.74716" lon="1.54793">
        <ele>1451.877</ele>
        <time>2021-03-06T13:22:21Z</time>
      </trkpt>
      <trkpt lat="42.74716" lon="1.54793">
        <ele>1451.893</ele>
        <time>2021-03-06T13:22:23Z</time>
      </trkpt>
      <trkpt lat="42.74716" lon="1.54793">
        <ele>1451.908</ele>
        <time>2021-03-06T13:22:25Z</time>
      </trkpt>
      <trkpt lat="42.74716" lon="1.54793">
        <ele>1452.139</ele>
        <time>2021-03-06T13:22:27Z</time>
      </trkpt>
      <trkpt lat="42.74716" lon="1.54793">
        <ele>1452.803</ele>
        <time>2021-03-06T13:22:29Z</time>
      </trkpt>
      <trkpt lat="42.74716" lon="1.54794">
        <ele>1452.803</ele>
        <time>2021-03-06T13:22:31Z</time>
      </trkpt>
      <trkpt lat="42.74716" lon="1.54794">
        <ele>1452.796</ele>
        <time>2021-03-06T13:22:33Z</time>
      </trkpt>
      <trkpt lat="42.74716" lon="1.54793">
        <ele>1451.65</ele>
        <time>2021-03-06T13:22:35Z</time>
      </trkpt>
      <trkpt lat="42.74715" lon="1.54794">
        <ele>1451.115</ele>
        <time>2021-03-06T13:22:37Z</time>
      </trkpt>
      <trkpt lat="42.74716" lon="1.54793">
        <ele>1450.356</ele>
        <time>2021-03-06T13:22:39Z</time>
      </trkpt>
      <trkpt lat="42.74717" lon="1.54792">
        <ele>1449.755</ele>
        <time>2021-03-06T13:22:41Z</time>
      </trkpt>
      <trkpt lat="42.74717" lon="1.54792">
        <ele>1449.538</ele>
        <time>2021-03-06T13:22:43Z</time>
      </trkpt>
      <trkpt lat="42.74717" lon="1.54792">
        <ele>1449.537</ele>
        <time>2021-03-06T13:22:45Z</time>
      </trkpt>
      <trkpt lat="42.74717" lon="1.54792">
        <ele>1448.694</ele>
        <time>2021-03-06T13:22:47Z</time>
      </trkpt>
      <trkpt lat="42.74717" lon="1.54792">
        <ele>1448.693</ele>
        <time>2021-03-06T13:22:49Z</time>
      </trkpt>
      <trkpt lat="42.74717" lon="1.54792">
        <ele>1448.849</ele>
        <time>2021-03-06T13:22:51Z</time>
      </trkpt>
      <trkpt lat="42.74717" lon="1.54792">
        <ele>1448.853</ele>
        <time>2021-03-06T13:22:53Z</time>
      </trkpt>
      <trkpt lat="42.74717" lon="1.54792">
        <ele>1448.854</ele>
        <time>2021-03-06T13:22:55Z</time>
      </trkpt>
      <trkpt lat="42.74718" lon="1.54793">
        <ele>1448.737</ele>
        <time>2021-03-06T13:22:57Z</time>
      </trkpt>
      <trkpt lat="42.74718" lon="1.54793">
        <ele>1448.913</ele>
        <time>2021-03-06T13:22:59Z</time>
      </trkpt>
      <trkpt lat="42.74718" lon="1.54793">
        <ele>1448.889</ele>
        <time>2021-03-06T13:23:01Z</time>
      </trkpt>
      <trkpt lat="42.74718" lon="1.54793">
        <ele>1449.094</ele>
        <time>2021-03-06T13:23:03Z</time>
      </trkpt>
      <trkpt lat="42.74718" lon="1.54793">
        <ele>1449.11</ele>
        <time>2021-03-06T13:23:05Z</time>
      </trkpt>
      <trkpt lat="42.74717" lon="1.54794">
        <ele>1449.87</ele>
        <time>2021-03-06T13:23:07Z</time>
      </trkpt>
      <trkpt lat="42.74717" lon="1.54794">
        <ele>1449.863</ele>
        <time>2021-03-06T13:23:09Z</time>
      </trkpt>
      <trkpt lat="42.74717" lon="1.54793">
        <ele>1449.869</ele>
        <time>2021-03-06T13:23:11Z</time>
      </trkpt>
      <trkpt lat="42.74717" lon="1.54793">
        <ele>1449.874</ele>
        <time>2021-03-06T13:23:13Z</time>
      </trkpt>
      <trkpt lat="42.74717" lon="1.54793">
        <ele>1449.88</ele>
        <time>2021-03-06T13:23:15Z</time>
      </trkpt>
      <trkpt lat="42.74717" lon="1.54793">
        <ele>1449.885</ele>
        <time>2021-03-06T13:23:17Z</time>
      </trkpt>
      <trkpt lat="42.74717" lon="1.54794">
        <ele>1450.111</ele>
        <time>2021-03-06T13:23:19Z</time>
      </trkpt>
      <trkpt lat="42.74717" lon="1.54794">
        <ele>1450.075</ele>
        <time>2021-03-06T13:23:21Z</time>
      </trkpt>
      <trkpt lat="42.74717" lon="1.54794">
        <ele>1450.395</ele>
        <time>2021-03-06T13:23:23Z</time>
      </trkpt>
      <trkpt lat="42.74717" lon="1.54794">
        <ele>1450.402</ele>
        <time>2021-03-06T13:23:25Z</time>
      </trkpt>
      <trkpt lat="42.74717" lon="1.54794">
        <ele>1450.465</ele>
        <time>2021-03-06T13:23:27Z</time>
      </trkpt>
      <trkpt lat="42.74717" lon="1.54794">
        <ele>1450.469</ele>
        <time>2021-03-06T13:23:29Z</time>
      </trkpt>
      <trkpt lat="42.74717" lon="1.54794">
        <ele>1450.476</ele>
        <time>2021-03-06T13:23:31Z</time>
      </trkpt>
      <trkpt lat="42.74717" lon="1.54794">
        <ele>1450.486</ele>
        <time>2021-03-06T13:23:33Z</time>
      </trkpt>
      <trkpt lat="42.74717" lon="1.54794">
        <ele>1450.492</ele>
        <time>2021-03-06T13:23:35Z</time>
      </trkpt>
      <trkpt lat="42.74717" lon="1.54794">
        <ele>1450.494</ele>
        <time>2021-03-06T13:23:37Z</time>
      </trkpt>
      <trkpt lat="42.74717" lon="1.54794">
        <ele>1450.5</ele>
        <time>2021-03-06T13:23:39Z</time>
      </trkpt>
      <trkpt lat="42.74717" lon="1.54794">
        <ele>1450.503</ele>
        <time>2021-03-06T13:23:41Z</time>
      </trkpt>
      <trkpt lat="42.74717" lon="1.54794">
        <ele>1450.506</ele>
        <time>2021-03-06T13:23:43Z</time>
      </trkpt>
      <trkpt lat="42.74717" lon="1.54794">
        <ele>1450.503</ele>
        <time>2021-03-06T13:23:45Z</time>
      </trkpt>
      <trkpt lat="42.74717" lon="1.54794">
        <ele>1450.5</ele>
        <time>2021-03-06T13:23:47Z</time>
      </trkpt>
      <trkpt lat="42.74717" lon="1.54794">
        <ele>1450.51</ele>
        <time>2021-03-06T13:23:49Z</time>
      </trkpt>
      <trkpt lat="42.74717" lon="1.54794">
        <ele>1450.516</ele>
        <time>2021-03-06T13:23:51Z</time>
      </trkpt>
      <trkpt lat="42.74717" lon="1.54794">
        <ele>1450.521</ele>
        <time>2021-03-06T13:23:53Z</time>
      </trkpt>
      <trkpt lat="42.74717" lon="1.54794">
        <ele>1450.522</ele>
        <time>2021-03-06T13:23:55Z</time>
      </trkpt>
      <trkpt lat="42.74717" lon="1.54794">
        <ele>1450.531</ele>
        <time>2021-03-06T13:23:57Z</time>
      </trkpt>
      <trkpt lat="42.74717" lon="1.54794">
        <ele>1450.538</ele>
        <time>2021-03-06T13:23:59Z</time>
      </trkpt>
      <trkpt lat="42.74717" lon="1.54794">
        <ele>1450.539</ele>
        <time>2021-03-06T13:24:01Z</time>
      </trkpt>
      <trkpt lat="42.74717" lon="1.54794">
        <ele>1450.534</ele>
        <time>2021-03-06T13:24:03Z</time>
      </trkpt>
      <trkpt lat="42.74717" lon="1.54794">
        <ele>1450.535</ele>
        <time>2021-03-06T13:24:05Z</time>
      </trkpt>
      <trkpt lat="42.74717" lon="1.54794">
        <ele>1450.534</ele>
        <time>2021-03-06T13:24:07Z</time>
      </trkpt>
      <trkpt lat="42.74717" lon="1.54794">
        <ele>1450.542</ele>
        <time>2021-03-06T13:24:09Z</time>
      </trkpt>
      <trkpt lat="42.74717" lon="1.54794">
        <ele>1450.551</ele>
        <time>2021-03-06T13:24:11Z</time>
      </trkpt>
      <trkpt lat="42.74717" lon="1.54794">
        <ele>1450.558</ele>
        <time>2021-03-06T13:24:13Z</time>
      </trkpt>
      <trkpt lat="42.74717" lon="1.54794">
        <ele>1450.572</ele>
        <time>2021-03-06T13:24:15Z</time>
      </trkpt>
      <trkpt lat="42.74717" lon="1.54794">
        <ele>1450.58</ele>
        <time>2021-03-06T13:24:17Z</time>
      </trkpt>
      <trkpt lat="42.74717" lon="1.54794">
        <ele>1450.593</ele>
        <time>2021-03-06T13:24:19Z</time>
      </trkpt>
      <trkpt lat="42.74717" lon="1.54794">
        <ele>1450.602</ele>
        <time>2021-03-06T13:24:21Z</time>
      </trkpt>
      <trkpt lat="42.74717" lon="1.54794">
        <ele>1450.608</ele>
        <time>2021-03-06T13:24:23Z</time>
      </trkpt>
      <trkpt lat="42.74717" lon="1.54794">
        <ele>1450.606</ele>
        <time>2021-03-06T13:24:25Z</time>
      </trkpt>
      <trkpt lat="42.74717" lon="1.54794">
        <ele>1450.608</ele>
        <time>2021-03-06T13:24:27Z</time>
      </trkpt>
      <trkpt lat="42.74717" lon="1.54794">
        <ele>1450.612</ele>
        <time>2021-03-06T13:24:29Z</time>
      </trkpt>
      <trkpt lat="42.74717" lon="1.54794">
        <ele>1450.62</ele>
        <time>2021-03-06T13:24:31Z</time>
      </trkpt>
      <trkpt lat="42.74717" lon="1.54794">
        <ele>1450.63</ele>
        <time>2021-03-06T13:24:33Z</time>
      </trkpt>
      <trkpt lat="42.74717" lon="1.54794">
        <ele>1450.639</ele>
        <time>2021-03-06T13:24:35Z</time>
      </trkpt>
      <trkpt lat="42.74717" lon="1.54794">
        <ele>1450.65</ele>
        <time>2021-03-06T13:24:37Z</time>
      </trkpt>
      <trkpt lat="42.74717" lon="1.54794">
        <ele>1450.659</ele>
        <time>2021-03-06T13:24:39Z</time>
      </trkpt>
      <trkpt lat="42.74717" lon="1.54794">
        <ele>1450.673</ele>
        <time>2021-03-06T13:24:41Z</time>
      </trkpt>
      <trkpt lat="42.74717" lon="1.54794">
        <ele>1450.681</ele>
        <time>2021-03-06T13:24:43Z</time>
      </trkpt>
      <trkpt lat="42.74717" lon="1.54794">
        <ele>1450.692</ele>
        <time>2021-03-06T13:24:45Z</time>
      </trkpt>
      <trkpt lat="42.74717" lon="1.54794">
        <ele>1450.703</ele>
        <time>2021-03-06T13:24:47Z</time>
      </trkpt>
      <trkpt lat="42.74717" lon="1.54794">
        <ele>1450.71</ele>
        <time>2021-03-06T13:24:49Z</time>
      </trkpt>
      <trkpt lat="42.74717" lon="1.54794">
        <ele>1450.722</ele>
        <time>2021-03-06T13:24:51Z</time>
      </trkpt>
      <trkpt lat="42.74717" lon="1.54794">
        <ele>1450.73</ele>
        <time>2021-03-06T13:24:53Z</time>
      </trkpt>
      <trkpt lat="42.74717" lon="1.54794">
        <ele>1450.735</ele>
        <time>2021-03-06T13:24:55Z</time>
      </trkpt>
      <trkpt lat="42.74717" lon="1.54795">
        <ele>1450.767</ele>
        <time>2021-03-06T13:24:57Z</time>
      </trkpt>
      <trkpt lat="42.74717" lon="1.54795">
        <ele>1450.845</ele>
        <time>2021-03-06T13:24:59Z</time>
      </trkpt>
      <trkpt lat="42.74717" lon="1.54795">
        <ele>1450.846</ele>
        <time>2021-03-06T13:25:01Z</time>
      </trkpt>
      <trkpt lat="42.74717" lon="1.54795">
        <ele>1450.854</ele>
        <time>2021-03-06T13:25:03Z</time>
      </trkpt>
      <trkpt lat="42.74717" lon="1.54795">
        <ele>1450.855</ele>
        <time>2021-03-06T13:25:05Z</time>
      </trkpt>
      <trkpt lat="42.74717" lon="1.54795">
        <ele>1450.862</ele>
        <time>2021-03-06T13:25:07Z</time>
      </trkpt>
      <trkpt lat="42.74717" lon="1.54795">
        <ele>1450.864</ele>
        <time>2021-03-06T13:25:09Z</time>
      </trkpt>
      <trkpt lat="42.74717" lon="1.54795">
        <ele>1450.869</ele>
        <time>2021-03-06T13:25:11Z</time>
      </trkpt>
      <trkpt lat="42.74717" lon="1.54795">
        <ele>1450.873</ele>
        <time>2021-03-06T13:25:13Z</time>
      </trkpt>
      <trkpt lat="42.74717" lon="1.54795">
        <ele>1450.874</ele>
        <time>2021-03-06T13:25:15Z</time>
      </trkpt>
      <trkpt lat="42.74717" lon="1.54795">
        <ele>1450.874</ele>
        <time>2021-03-06T13:25:17Z</time>
      </trkpt>
      <trkpt lat="42.74717" lon="1.54795">
        <ele>1450.871</ele>
        <time>2021-03-06T13:25:19Z</time>
      </trkpt>
      <trkpt lat="42.74717" lon="1.54795">
        <ele>1450.877</ele>
        <time>2021-03-06T13:25:21Z</time>
      </trkpt>
      <trkpt lat="42.74717" lon="1.54795">
        <ele>1450.876</ele>
        <time>2021-03-06T13:25:23Z</time>
      </trkpt>
      <trkpt lat="42.74717" lon="1.54795">
        <ele>1450.882</ele>
        <time>2021-03-06T13:25:25Z</time>
      </trkpt>
      <trkpt lat="42.74717" lon="1.54795">
        <ele>1450.893</ele>
        <time>2021-03-06T13:25:27Z</time>
      </trkpt>
      <trkpt lat="42.74717" lon="1.54795">
        <ele>1450.905</ele>
        <time>2021-03-06T13:25:29Z</time>
      </trkpt>
      <trkpt lat="42.74717" lon="1.54795">
        <ele>1450.915</ele>
        <time>2021-03-06T13:25:31Z</time>
      </trkpt>
      <trkpt lat="42.74717" lon="1.54795">
        <ele>1450.923</ele>
        <time>2021-03-06T13:25:33Z</time>
      </trkpt>
      <trkpt lat="42.74717" lon="1.54795">
        <ele>1450.934</ele>
        <time>2021-03-06T13:25:35Z</time>
      </trkpt>
      <trkpt lat="42.74717" lon="1.54795">
        <ele>1450.949</ele>
        <time>2021-03-06T13:25:37Z</time>
      </trkpt>
      <trkpt lat="42.74717" lon="1.54795">
        <ele>1450.967</ele>
        <time>2021-03-06T13:25:39Z</time>
      </trkpt>
      <trkpt lat="42.74717" lon="1.54795">
        <ele>1450.983</ele>
        <time>2021-03-06T13:25:41Z</time>
      </trkpt>
      <trkpt lat="42.74717" lon="1.54795">
        <ele>1450.997</ele>
        <time>2021-03-06T13:25:43Z</time>
      </trkpt>
      <trkpt lat="42.74717" lon="1.54795">
        <ele>1451.009</ele>
        <time>2021-03-06T13:25:45Z</time>
      </trkpt>
      <trkpt lat="42.74717" lon="1.54795">
        <ele>1451.013</ele>
        <time>2021-03-06T13:25:47Z</time>
      </trkpt>
      <trkpt lat="42.74717" lon="1.54795">
        <ele>1451.02</ele>
        <time>2021-03-06T13:25:49Z</time>
      </trkpt>
      <trkpt lat="42.74717" lon="1.54795">
        <ele>1451.027</ele>
        <time>2021-03-06T13:25:51Z</time>
      </trkpt>
      <trkpt lat="42.74717" lon="1.54795">
        <ele>1451.031</ele>
        <time>2021-03-06T13:25:53Z</time>
      </trkpt>
      <trkpt lat="42.74717" lon="1.54795">
        <ele>1451.045</ele>
        <time>2021-03-06T13:25:55Z</time>
      </trkpt>
      <trkpt lat="42.74717" lon="1.54795">
        <ele>1451.056</ele>
        <time>2021-03-06T13:25:57Z</time>
      </trkpt>
      <trkpt lat="42.74717" lon="1.54795">
        <ele>1451.065</ele>
        <time>2021-03-06T13:25:59Z</time>
      </trkpt>
      <trkpt lat="42.74717" lon="1.54795">
        <ele>1451.078</ele>
        <time>2021-03-06T13:26:01Z</time>
      </trkpt>
      <trkpt lat="42.74717" lon="1.54795">
        <ele>1451.084</ele>
        <time>2021-03-06T13:26:03Z</time>
      </trkpt>
      <trkpt lat="42.74717" lon="1.54795">
        <ele>1451.092</ele>
        <time>2021-03-06T13:26:05Z</time>
      </trkpt>
      <trkpt lat="42.74717" lon="1.54795">
        <ele>1451.108</ele>
        <time>2021-03-06T13:26:07Z</time>
      </trkpt>
      <trkpt lat="42.74717" lon="1.54795">
        <ele>1451.116</ele>
        <time>2021-03-06T13:26:09Z</time>
      </trkpt>
      <trkpt lat="42.74717" lon="1.54795">
        <ele>1451.124</ele>
        <time>2021-03-06T13:26:11Z</time>
      </trkpt>
      <trkpt lat="42.74717" lon="1.54795">
        <ele>1451.132</ele>
        <time>2021-03-06T13:26:13Z</time>
      </trkpt>
      <trkpt lat="42.74717" lon="1.54795">
        <ele>1451.134</ele>
        <time>2021-03-06T13:26:15Z</time>
      </trkpt>
      <trkpt lat="42.74717" lon="1.54795">
        <ele>1452.01</ele>
        <time>2021-03-06T13:26:17Z</time>
      </trkpt>
      <trkpt lat="42.74717" lon="1.54795">
        <ele>1452.049</ele>
        <time>2021-03-06T13:26:19Z</time>
      </trkpt>
      <trkpt lat="42.74717" lon="1.54795">
        <ele>1452.051</ele>
        <time>2021-03-06T13:26:21Z</time>
      </trkpt>
      <trkpt lat="42.74717" lon="1.54795">
        <ele>1452.059</ele>
        <time>2021-03-06T13:26:23Z</time>
      </trkpt>
      <trkpt lat="42.74717" lon="1.54795">
        <ele>1452.067</ele>
        <time>2021-03-06T13:26:25Z</time>
      </trkpt>
      <trkpt lat="42.74717" lon="1.54795">
        <ele>1452.077</ele>
        <time>2021-03-06T13:26:27Z</time>
      </trkpt>
      <trkpt lat="42.74717" lon="1.54795">
        <ele>1452.076</ele>
        <time>2021-03-06T13:26:29Z</time>
      </trkpt>
      <trkpt lat="42.74717" lon="1.54795">
        <ele>1452.08</ele>
        <time>2021-03-06T13:26:31Z</time>
      </trkpt>
      <trkpt lat="42.74717" lon="1.54795">
        <ele>1452.172</ele>
        <time>2021-03-06T13:26:33Z</time>
      </trkpt>
      <trkpt lat="42.74717" lon="1.54795">
        <ele>1452.179</ele>
        <time>2021-03-06T13:26:35Z</time>
      </trkpt>
      <trkpt lat="42.74717" lon="1.54795">
        <ele>1452.546</ele>
        <time>2021-03-06T13:26:37Z</time>
      </trkpt>
      <trkpt lat="42.74719" lon="1.54795">
        <ele>1453.083</ele>
        <time>2021-03-06T13:26:39Z</time>
      </trkpt>
      <trkpt lat="42.74719" lon="1.54795">
        <ele>1453.139</ele>
        <time>2021-03-06T13:26:41Z</time>
      </trkpt>
      <trkpt lat="42.74719" lon="1.54795">
        <ele>1453.145</ele>
        <time>2021-03-06T13:26:43Z</time>
      </trkpt>
      <trkpt lat="42.74719" lon="1.54795">
        <ele>1453.142</ele>
        <time>2021-03-06T13:26:45Z</time>
      </trkpt>
      <trkpt lat="42.74719" lon="1.54795">
        <ele>1453.141</ele>
        <time>2021-03-06T13:26:47Z</time>
      </trkpt>
      <trkpt lat="42.74719" lon="1.54795">
        <ele>1453.143</ele>
        <time>2021-03-06T13:26:49Z</time>
      </trkpt>
      <trkpt lat="42.74719" lon="1.54795">
        <ele>1453.143</ele>
        <time>2021-03-06T13:26:51Z</time>
      </trkpt>
      <trkpt lat="42.74719" lon="1.54795">
        <ele>1453.143</ele>
        <time>2021-03-06T13:26:53Z</time>
      </trkpt>
      <trkpt lat="42.74719" lon="1.54795">
        <ele>1453.145</ele>
        <time>2021-03-06T13:26:55Z</time>
      </trkpt>
      <trkpt lat="42.74719" lon="1.54795">
        <ele>1453.149</ele>
        <time>2021-03-06T13:26:57Z</time>
      </trkpt>
      <trkpt lat="42.74719" lon="1.54795">
        <ele>1453.147</ele>
        <time>2021-03-06T13:26:59Z</time>
      </trkpt>
      <trkpt lat="42.74719" lon="1.54795">
        <ele>1453.142</ele>
        <time>2021-03-06T13:27:01Z</time>
      </trkpt>
      <trkpt lat="42.74719" lon="1.54795">
        <ele>1453.141</ele>
        <time>2021-03-06T13:27:03Z</time>
      </trkpt>
      <trkpt lat="42.74719" lon="1.54795">
        <ele>1453.136</ele>
        <time>2021-03-06T13:27:05Z</time>
      </trkpt>
      <trkpt lat="42.74719" lon="1.54795">
        <ele>1453.138</ele>
        <time>2021-03-06T13:27:07Z</time>
      </trkpt>
      <trkpt lat="42.74719" lon="1.54795">
        <ele>1453.44</ele>
        <time>2021-03-06T13:27:09Z</time>
      </trkpt>
      <trkpt lat="42.74719" lon="1.54795">
        <ele>1453.446</ele>
        <time>2021-03-06T13:27:11Z</time>
      </trkpt>
      <trkpt lat="42.74719" lon="1.54794">
        <ele>1453.501</ele>
        <time>2021-03-06T13:27:13Z</time>
      </trkpt>
      <trkpt lat="42.74718" lon="1.54795">
        <ele>1453.519</ele>
        <time>2021-03-06T13:27:15Z</time>
      </trkpt>
      <trkpt lat="42.74718" lon="1.54795">
        <ele>1453.495</ele>
        <time>2021-03-06T13:27:17Z</time>
      </trkpt>
      <trkpt lat="42.74719" lon="1.54795">
        <ele>1452.814</ele>
        <time>2021-03-06T13:27:19Z</time>
      </trkpt>
      <trkpt lat="42.74719" lon="1.54795">
        <ele>1452.816</ele>
        <time>2021-03-06T13:27:21Z</time>
      </trkpt>
      <trkpt lat="42.74719" lon="1.54796">
        <ele>1452.485</ele>
        <time>2021-03-06T13:27:23Z</time>
      </trkpt>
      <trkpt lat="42.74719" lon="1.54796">
        <ele>1452.49</ele>
        <time>2021-03-06T13:27:25Z</time>
      </trkpt>
      <trkpt lat="42.74719" lon="1.54796">
        <ele>1452.49</ele>
        <time>2021-03-06T13:27:27Z</time>
      </trkpt>
      <trkpt lat="42.74719" lon="1.54796">
        <ele>1452.493</ele>
        <time>2021-03-06T13:27:29Z</time>
      </trkpt>
      <trkpt lat="42.74719" lon="1.54796">
        <ele>1452.493</ele>
        <time>2021-03-06T13:27:31Z</time>
      </trkpt>
      <trkpt lat="42.74719" lon="1.54796">
        <ele>1452.494</ele>
        <time>2021-03-06T13:27:33Z</time>
      </trkpt>
      <trkpt lat="42.74719" lon="1.54796">
        <ele>1452.496</ele>
        <time>2021-03-06T13:27:35Z</time>
      </trkpt>
      <trkpt lat="42.74719" lon="1.54796">
        <ele>1452.497</ele>
        <time>2021-03-06T13:27:37Z</time>
      </trkpt>
      <trkpt lat="42.74719" lon="1.54796">
        <ele>1452.498</ele>
        <time>2021-03-06T13:27:39Z</time>
      </trkpt>
      <trkpt lat="42.74719" lon="1.54796">
        <ele>1452.499</ele>
        <time>2021-03-06T13:27:41Z</time>
      </trkpt>
      <trkpt lat="42.74719" lon="1.54796">
        <ele>1452.497</ele>
        <time>2021-03-06T13:27:43Z</time>
      </trkpt>
      <trkpt lat="42.74719" lon="1.54796">
        <ele>1452.501</ele>
        <time>2021-03-06T13:27:45Z</time>
      </trkpt>
      <trkpt lat="42.74719" lon="1.54796">
        <ele>1452.506</ele>
        <time>2021-03-06T13:27:47Z</time>
      </trkpt>
      <trkpt lat="42.74719" lon="1.54796">
        <ele>1452.505</ele>
        <time>2021-03-06T13:27:49Z</time>
      </trkpt>
      <trkpt lat="42.74719" lon="1.54796">
        <ele>1452.504</ele>
        <time>2021-03-06T13:27:51Z</time>
      </trkpt>
      <trkpt lat="42.74719" lon="1.54796">
        <ele>1452.5</ele>
        <time>2021-03-06T13:27:53Z</time>
      </trkpt>
      <trkpt lat="42.74719" lon="1.54796">
        <ele>1452.494</ele>
        <time>2021-03-06T13:27:55Z</time>
      </trkpt>
      <trkpt lat="42.74719" lon="1.54796">
        <ele>1452.491</ele>
        <time>2021-03-06T13:27:57Z</time>
      </trkpt>
      <trkpt lat="42.74719" lon="1.54797">
        <ele>1451.026</ele>
        <time>2021-03-06T13:27:59Z</time>
      </trkpt>
      <trkpt lat="42.74719" lon="1.54797">
        <ele>1451.047</ele>
        <time>2021-03-06T13:28:01Z</time>
      </trkpt>
      <trkpt lat="42.74719" lon="1.54797">
        <ele>1451.051</ele>
        <time>2021-03-06T13:28:03Z</time>
      </trkpt>
      <trkpt lat="42.74719" lon="1.54797">
        <ele>1451.059</ele>
        <time>2021-03-06T13:28:05Z</time>
      </trkpt>
      <trkpt lat="42.74719" lon="1.54797">
        <ele>1451.063</ele>
        <time>2021-03-06T13:28:07Z</time>
      </trkpt>
      <trkpt lat="42.74719" lon="1.54797">
        <ele>1451.062</ele>
        <time>2021-03-06T13:28:09Z</time>
      </trkpt>
      <trkpt lat="42.74719" lon="1.54797">
        <ele>1451.061</ele>
        <time>2021-03-06T13:28:11Z</time>
      </trkpt>
      <trkpt lat="42.74719" lon="1.54797">
        <ele>1451.057</ele>
        <time>2021-03-06T13:28:13Z</time>
      </trkpt>
      <trkpt lat="42.74719" lon="1.54797">
        <ele>1451.057</ele>
        <time>2021-03-06T13:28:15Z</time>
      </trkpt>
      <trkpt lat="42.74719" lon="1.54797">
        <ele>1451.056</ele>
        <time>2021-03-06T13:28:17Z</time>
      </trkpt>
      <trkpt lat="42.74719" lon="1.54797">
        <ele>1451.055</ele>
        <time>2021-03-06T13:28:19Z</time>
      </trkpt>
      <trkpt lat="42.74719" lon="1.54797">
        <ele>1451.125</ele>
        <time>2021-03-06T13:28:21Z</time>
      </trkpt>
      <trkpt lat="42.74718" lon="1.54797">
        <ele>1451.217</ele>
        <time>2021-03-06T13:28:23Z</time>
      </trkpt>
      <trkpt lat="42.74718" lon="1.54797">
        <ele>1451.216</ele>
        <time>2021-03-06T13:28:25Z</time>
      </trkpt>
      <trkpt lat="42.74718" lon="1.54797">
        <ele>1451.217</ele>
        <time>2021-03-06T13:28:27Z</time>
      </trkpt>
      <trkpt lat="42.74719" lon="1.54797">
        <ele>1451.305</ele>
        <time>2021-03-06T13:28:29Z</time>
      </trkpt>
      <trkpt lat="42.74719" lon="1.54797">
        <ele>1451.3</ele>
        <time>2021-03-06T13:28:31Z</time>
      </trkpt>
      <trkpt lat="42.74719" lon="1.54797">
        <ele>1451.294</ele>
        <time>2021-03-06T13:28:33Z</time>
      </trkpt>
      <trkpt lat="42.74719" lon="1.54797">
        <ele>1451.288</ele>
        <time>2021-03-06T13:28:35Z</time>
      </trkpt>
      <trkpt lat="42.74719" lon="1.54797">
        <ele>1451.295</ele>
        <time>2021-03-06T13:28:37Z</time>
      </trkpt>
      <trkpt lat="42.74719" lon="1.54797">
        <ele>1451.297</ele>
        <time>2021-03-06T13:28:39Z</time>
      </trkpt>
      <trkpt lat="42.74719" lon="1.54797">
        <ele>1451.312</ele>
        <time>2021-03-06T13:28:41Z</time>
      </trkpt>
      <trkpt lat="42.74719" lon="1.54797">
        <ele>1451.321</ele>
        <time>2021-03-06T13:28:43Z</time>
      </trkpt>
      <trkpt lat="42.74719" lon="1.54797">
        <ele>1451.33</ele>
        <time>2021-03-06T13:28:45Z</time>
      </trkpt>
      <trkpt lat="42.74718" lon="1.54797">
        <ele>1451.62</ele>
        <time>2021-03-06T13:28:47Z</time>
      </trkpt>
      <trkpt lat="42.74718" lon="1.54797">
        <ele>1451.626</ele>
        <time>2021-03-06T13:28:49Z</time>
      </trkpt>
      <trkpt lat="42.74718" lon="1.54797">
        <ele>1451.627</ele>
        <time>2021-03-06T13:28:51Z</time>
      </trkpt>
      <trkpt lat="42.74718" lon="1.54797">
        <ele>1451.632</ele>
        <time>2021-03-06T13:28:53Z</time>
      </trkpt>
      <trkpt lat="42.74719" lon="1.54797">
        <ele>1451.608</ele>
        <time>2021-03-06T13:28:55Z</time>
      </trkpt>
      <trkpt lat="42.74719" lon="1.54797">
        <ele>1451.561</ele>
        <time>2021-03-06T13:28:57Z</time>
      </trkpt>
      <trkpt lat="42.74719" lon="1.54797">
        <ele>1451.567</ele>
        <time>2021-03-06T13:28:59Z</time>
      </trkpt>
      <trkpt lat="42.74719" lon="1.54797">
        <ele>1451.573</ele>
        <time>2021-03-06T13:29:01Z</time>
      </trkpt>
      <trkpt lat="42.74719" lon="1.54796">
        <ele>1451.498</ele>
        <time>2021-03-06T13:29:03Z</time>
      </trkpt>
      <trkpt lat="42.74719" lon="1.54796">
        <ele>1451.858</ele>
        <time>2021-03-06T13:29:05Z</time>
      </trkpt>
      <trkpt lat="42.74719" lon="1.54796">
        <ele>1451.989</ele>
        <time>2021-03-06T13:29:07Z</time>
      </trkpt>
      <trkpt lat="42.74719" lon="1.54796">
        <ele>1452.325</ele>
        <time>2021-03-06T13:29:09Z</time>
      </trkpt>
      <trkpt lat="42.7472" lon="1.54796">
        <ele>1452.645</ele>
        <time>2021-03-06T13:29:11Z</time>
      </trkpt>
      <trkpt lat="42.7472" lon="1.54796">
        <ele>1452.944</ele>
        <time>2021-03-06T13:29:13Z</time>
      </trkpt>
      <trkpt lat="42.74719" lon="1.54796">
        <ele>1453.212</ele>
        <time>2021-03-06T13:29:15Z</time>
      </trkpt>
      <trkpt lat="42.74719" lon="1.54796">
        <ele>1453.234</ele>
        <time>2021-03-06T13:29:17Z</time>
      </trkpt>
      <trkpt lat="42.74719" lon="1.54796">
        <ele>1453.317</ele>
        <time>2021-03-06T13:29:19Z</time>
      </trkpt>
      <trkpt lat="42.7472" lon="1.54796">
        <ele>1453.199</ele>
        <time>2021-03-06T13:29:21Z</time>
      </trkpt>
      <trkpt lat="42.74722" lon="1.54796">
        <ele>1451.964</ele>
        <time>2021-03-06T13:29:23Z</time>
      </trkpt>
      <trkpt lat="42.74723" lon="1.54796">
        <ele>1451.021</ele>
        <time>2021-03-06T13:29:25Z</time>
      </trkpt>
      <trkpt lat="42.74725" lon="1.54795">
        <ele>1449.781</ele>
        <time>2021-03-06T13:29:27Z</time>
      </trkpt>
      <trkpt lat="42.74725" lon="1.54795">
        <ele>1452.213</ele>
        <time>2021-03-06T13:29:29Z</time>
      </trkpt>
      <trkpt lat="42.74726" lon="1.54794">
        <ele>1452.131</ele>
        <time>2021-03-06T13:29:31Z</time>
      </trkpt>
      <trkpt lat="42.74727" lon="1.54793">
        <ele>1450.91</ele>
        <time>2021-03-06T13:29:33Z</time>
      </trkpt>
      <trkpt lat="42.74729" lon="1.54793">
        <ele>1450.754</ele>
        <time>2021-03-06T13:29:35Z</time>
      </trkpt>
      <trkpt lat="42.7473" lon="1.54792">
        <ele>1450.788</ele>
        <time>2021-03-06T13:29:37Z</time>
      </trkpt>
      <trkpt lat="42.74732" lon="1.54791">
        <ele>1450.904</ele>
        <time>2021-03-06T13:29:39Z</time>
      </trkpt>
      <trkpt lat="42.74734" lon="1.54791">
        <ele>1451.46</ele>
        <time>2021-03-06T13:29:41Z</time>
      </trkpt>
      <trkpt lat="42.74736" lon="1.5479">
        <ele>1450.592</ele>
        <time>2021-03-06T13:29:43Z</time>
      </trkpt>
      <trkpt lat="42.74738" lon="1.5479">
        <ele>1449.887</ele>
        <time>2021-03-06T13:29:45Z</time>
      </trkpt>
      <trkpt lat="42.74741" lon="1.5479">
        <ele>1449.242</ele>
        <time>2021-03-06T13:29:47Z</time>
      </trkpt>
      <trkpt lat="42.74744" lon="1.5479">
        <ele>1450.824</ele>
        <time>2021-03-06T13:29:49Z</time>
      </trkpt>
      <trkpt lat="42.74747" lon="1.54791">
        <ele>1451.296</ele>
        <time>2021-03-06T13:29:51Z</time>
      </trkpt>
      <trkpt lat="42.74749" lon="1.54791">
        <ele>1449.349</ele>
        <time>2021-03-06T13:29:53Z</time>
      </trkpt>
      <trkpt lat="42.74752" lon="1.54792">
        <ele>1447.685</ele>
        <time>2021-03-06T13:29:55Z</time>
      </trkpt>
      <trkpt lat="42.74754" lon="1.54791">
        <ele>1446.038</ele>
        <time>2021-03-06T13:29:57Z</time>
      </trkpt>
      <trkpt lat="42.74756" lon="1.5479">
        <ele>1443.738</ele>
        <time>2021-03-06T13:29:59Z</time>
      </trkpt>
      <trkpt lat="42.74759" lon="1.54788">
        <ele>1442.94</ele>
        <time>2021-03-06T13:30:01Z</time>
      </trkpt>
      <trkpt lat="42.7476" lon="1.54787">
        <ele>1441.063</ele>
        <time>2021-03-06T13:30:03Z</time>
      </trkpt>
      <trkpt lat="42.74762" lon="1.54785">
        <ele>1439.934</ele>
        <time>2021-03-06T13:30:05Z</time>
      </trkpt>
      <trkpt lat="42.74764" lon="1.54782">
        <ele>1439.736</ele>
        <time>2021-03-06T13:30:07Z</time>
      </trkpt>
      <trkpt lat="42.74766" lon="1.54779">
        <ele>1439.005</ele>
        <time>2021-03-06T13:30:09Z</time>
      </trkpt>
      <trkpt lat="42.74767" lon="1.54778">
        <ele>1438.362</ele>
        <time>2021-03-06T13:30:11Z</time>
      </trkpt>
      <trkpt lat="42.74767" lon="1.54777">
        <ele>1437.793</ele>
        <time>2021-03-06T13:30:13Z</time>
      </trkpt>
      <trkpt lat="42.74769" lon="1.54773">
        <ele>1436.675</ele>
        <time>2021-03-06T13:30:15Z</time>
      </trkpt>
      <trkpt lat="42.7477" lon="1.54772">
        <ele>1434.996</ele>
        <time>2021-03-06T13:30:17Z</time>
      </trkpt>
      <trkpt lat="42.74771" lon="1.5477">
        <ele>1435.215</ele>
        <time>2021-03-06T13:30:19Z</time>
      </trkpt>
      <trkpt lat="42.74772" lon="1.54766">
        <ele>1436.275</ele>
        <time>2021-03-06T13:30:21Z</time>
      </trkpt>
      <trkpt lat="42.74774" lon="1.54762">
        <ele>1437.424</ele>
        <time>2021-03-06T13:30:23Z</time>
      </trkpt>
      <trkpt lat="42.74775" lon="1.54758">
        <ele>1436.623</ele>
        <time>2021-03-06T13:30:25Z</time>
      </trkpt>
      <trkpt lat="42.74777" lon="1.54755">
        <ele>1436.442</ele>
        <time>2021-03-06T13:30:27Z</time>
      </trkpt>
      <trkpt lat="42.74777" lon="1.54753">
        <ele>1436.38</ele>
        <time>2021-03-06T13:30:28Z</time>
      </trkpt>
      <trkpt lat="42.74778" lon="1.54751">
        <ele>1434.804</ele>
        <time>2021-03-06T13:30:31Z</time>
      </trkpt>
      <trkpt lat="42.74779" lon="1.54749">
        <ele>1434.035</ele>
        <time>2021-03-06T13:30:33Z</time>
      </trkpt>
      <trkpt lat="42.74779" lon="1.54747">
        <ele>1433.52</ele>
        <time>2021-03-06T13:30:35Z</time>
      </trkpt>
      <trkpt lat="42.7478" lon="1.54744">
        <ele>1434.201</ele>
        <time>2021-03-06T13:30:37Z</time>
      </trkpt>
      <trkpt lat="42.74781" lon="1.54741">
        <ele>1435.15</ele>
        <time>2021-03-06T13:30:39Z</time>
      </trkpt>
      <trkpt lat="42.74782" lon="1.5474">
        <ele>1433.466</ele>
        <time>2021-03-06T13:30:41Z</time>
      </trkpt>
      <trkpt lat="42.74783" lon="1.54737">
        <ele>1433.357</ele>
        <time>2021-03-06T13:30:43Z</time>
      </trkpt>
      <trkpt lat="42.74783" lon="1.54734">
        <ele>1433.859</ele>
        <time>2021-03-06T13:30:45Z</time>
      </trkpt>
      <trkpt lat="42.74784" lon="1.54731">
        <ele>1433.542</ele>
        <time>2021-03-06T13:30:47Z</time>
      </trkpt>
      <trkpt lat="42.74785" lon="1.5473">
        <ele>1431.882</ele>
        <time>2021-03-06T13:30:49Z</time>
      </trkpt>
      <trkpt lat="42.74785" lon="1.54728">
        <ele>1432.043</ele>
        <time>2021-03-06T13:30:51Z</time>
      </trkpt>
      <trkpt lat="42.74786" lon="1.54726">
        <ele>1431.85</ele>
        <time>2021-03-06T13:30:53Z</time>
      </trkpt>
      <trkpt lat="42.74786" lon="1.54725">
        <ele>1431.97</ele>
        <time>2021-03-06T13:30:55Z</time>
      </trkpt>
      <trkpt lat="42.74786" lon="1.54724">
        <ele>1431.892</ele>
        <time>2021-03-06T13:30:57Z</time>
      </trkpt>
      <trkpt lat="42.74786" lon="1.54724">
        <ele>1431.873</ele>
        <time>2021-03-06T13:30:59Z</time>
      </trkpt>
      <trkpt lat="42.74786" lon="1.54724">
        <ele>1431.928</ele>
        <time>2021-03-06T13:31:01Z</time>
      </trkpt>
      <trkpt lat="42.74786" lon="1.54724">
        <ele>1431.955</ele>
        <time>2021-03-06T13:31:03Z</time>
      </trkpt>
      <trkpt lat="42.74786" lon="1.54724">
        <ele>1431.954</ele>
        <time>2021-03-06T13:31:05Z</time>
      </trkpt>
      <trkpt lat="42.74785" lon="1.54723">
        <ele>1430.794</ele>
        <time>2021-03-06T13:31:07Z</time>
      </trkpt>
      <trkpt lat="42.74786" lon="1.5472">
        <ele>1431.943</ele>
        <time>2021-03-06T13:31:09Z</time>
      </trkpt>
      <trkpt lat="42.74787" lon="1.54717">
        <ele>1431.828</ele>
        <time>2021-03-06T13:31:11Z</time>
      </trkpt>
      <trkpt lat="42.74787" lon="1.54716">
        <ele>1432.265</ele>
        <time>2021-03-06T13:31:13Z</time>
      </trkpt>
      <trkpt lat="42.74786" lon="1.54716">
        <ele>1432.456</ele>
        <time>2021-03-06T13:31:15Z</time>
      </trkpt>
      <trkpt lat="42.74786" lon="1.54715">
        <ele>1432.562</ele>
        <time>2021-03-06T13:31:17Z</time>
      </trkpt>
      <trkpt lat="42.74787" lon="1.54714">
        <ele>1432.062</ele>
        <time>2021-03-06T13:31:19Z</time>
      </trkpt>
      <trkpt lat="42.74787" lon="1.54713">
        <ele>1431.342</ele>
        <time>2021-03-06T13:31:21Z</time>
      </trkpt>
      <trkpt lat="42.74788" lon="1.54711">
        <ele>1430.91</ele>
        <time>2021-03-06T13:31:23Z</time>
      </trkpt>
      <trkpt lat="42.74788" lon="1.54711">
        <ele>1430.901</ele>
        <time>2021-03-06T13:31:25Z</time>
      </trkpt>
      <trkpt lat="42.74788" lon="1.54711">
        <ele>1430.897</ele>
        <time>2021-03-06T13:31:27Z</time>
      </trkpt>
      <trkpt lat="42.74788" lon="1.54711">
        <ele>1430.895</ele>
        <time>2021-03-06T13:31:29Z</time>
      </trkpt>
      <trkpt lat="42.74788" lon="1.54711">
        <ele>1430.884</ele>
        <time>2021-03-06T13:31:31Z</time>
      </trkpt>
      <trkpt lat="42.74788" lon="1.54711">
        <ele>1430.872</ele>
        <time>2021-03-06T13:31:33Z</time>
      </trkpt>
      <trkpt lat="42.74788" lon="1.54711">
        <ele>1430.874</ele>
        <time>2021-03-06T13:31:35Z</time>
      </trkpt>
      <trkpt lat="42.74788" lon="1.54711">
        <ele>1430.871</ele>
        <time>2021-03-06T13:31:37Z</time>
      </trkpt>
      <trkpt lat="42.74787" lon="1.54711">
        <ele>1430.876</ele>
        <time>2021-03-06T13:31:39Z</time>
      </trkpt>
      <trkpt lat="42.74787" lon="1.54711">
        <ele>1430.906</ele>
        <time>2021-03-06T13:31:41Z</time>
      </trkpt>
      <trkpt lat="42.74787" lon="1.54711">
        <ele>1430.91</ele>
        <time>2021-03-06T13:31:43Z</time>
      </trkpt>
      <trkpt lat="42.74787" lon="1.54711">
        <ele>1430.908</ele>
        <time>2021-03-06T13:31:45Z</time>
      </trkpt>
      <trkpt lat="42.74787" lon="1.5471">
        <ele>1430.457</ele>
        <time>2021-03-06T13:31:47Z</time>
      </trkpt>
      <trkpt lat="42.74788" lon="1.54707">
        <ele>1429.562</ele>
        <time>2021-03-06T13:31:49Z</time>
      </trkpt>
      <trkpt lat="42.74789" lon="1.54705">
        <ele>1428.499</ele>
        <time>2021-03-06T13:31:51Z</time>
      </trkpt>
      <trkpt lat="42.7479" lon="1.54703">
        <ele>1428.416</ele>
        <time>2021-03-06T13:31:53Z</time>
      </trkpt>
      <trkpt lat="42.74792" lon="1.54702">
        <ele>1427.993</ele>
        <time>2021-03-06T13:31:55Z</time>
      </trkpt>
      <trkpt lat="42.74791" lon="1.54703">
        <ele>1426.214</ele>
        <time>2021-03-06T13:31:57Z</time>
      </trkpt>
      <trkpt lat="42.74791" lon="1.54703">
        <ele>1426.221</ele>
        <time>2021-03-06T13:31:59Z</time>
      </trkpt>
      <trkpt lat="42.74791" lon="1.54703">
        <ele>1426.223</ele>
        <time>2021-03-06T13:32:01Z</time>
      </trkpt>
      <trkpt lat="42.74791" lon="1.54703">
        <ele>1426.23</ele>
        <time>2021-03-06T13:32:03Z</time>
      </trkpt>
      <trkpt lat="42.74791" lon="1.54703">
        <ele>1426.215</ele>
        <time>2021-03-06T13:32:05Z</time>
      </trkpt>
      <trkpt lat="42.74791" lon="1.54703">
        <ele>1426.217</ele>
        <time>2021-03-06T13:32:07Z</time>
      </trkpt>
      <trkpt lat="42.74792" lon="1.54702">
        <ele>1426.14</ele>
        <time>2021-03-06T13:32:09Z</time>
      </trkpt>
      <trkpt lat="42.74793" lon="1.547">
        <ele>1425.723</ele>
        <time>2021-03-06T13:32:11Z</time>
      </trkpt>
      <trkpt lat="42.74793" lon="1.54698">
        <ele>1426.134</ele>
        <time>2021-03-06T13:32:13Z</time>
      </trkpt>
      <trkpt lat="42.74793" lon="1.54697">
        <ele>1426.825</ele>
        <time>2021-03-06T13:32:15Z</time>
      </trkpt>
      <trkpt lat="42.74793" lon="1.54697">
        <ele>1426.815</ele>
        <time>2021-03-06T13:32:17Z</time>
      </trkpt>
      <trkpt lat="42.74793" lon="1.54697">
        <ele>1426.808</ele>
        <time>2021-03-06T13:32:19Z</time>
      </trkpt>
      <trkpt lat="42.74793" lon="1.54697">
        <ele>1426.801</ele>
        <time>2021-03-06T13:32:21Z</time>
      </trkpt>
      <trkpt lat="42.74793" lon="1.54696">
        <ele>1426.542</ele>
        <time>2021-03-06T13:32:23Z</time>
      </trkpt>
      <trkpt lat="42.74794" lon="1.54695">
        <ele>1425.763</ele>
        <time>2021-03-06T13:32:25Z</time>
      </trkpt>
      <trkpt lat="42.74795" lon="1.54692">
        <ele>1425.845</ele>
        <time>2021-03-06T13:32:27Z</time>
      </trkpt>
      <trkpt lat="42.74795" lon="1.5469">
        <ele>1423.791</ele>
        <time>2021-03-06T13:32:29Z</time>
      </trkpt>
      <trkpt lat="42.74797" lon="1.54688">
        <ele>1422.077</ele>
        <time>2021-03-06T13:32:31Z</time>
      </trkpt>
      <trkpt lat="42.74798" lon="1.54685">
        <ele>1421.676</ele>
        <time>2021-03-06T13:32:33Z</time>
      </trkpt>
      <trkpt lat="42.74799" lon="1.54681">
        <ele>1422.175</ele>
        <time>2021-03-06T13:32:35Z</time>
      </trkpt>
      <trkpt lat="42.748" lon="1.54678">
        <ele>1420.974</ele>
        <time>2021-03-06T13:32:37Z</time>
      </trkpt>
      <trkpt lat="42.74801" lon="1.54674">
        <ele>1421.56</ele>
        <time>2021-03-06T13:32:39Z</time>
      </trkpt>
      <trkpt lat="42.74802" lon="1.5467">
        <ele>1420.631</ele>
        <time>2021-03-06T13:32:41Z</time>
      </trkpt>
      <trkpt lat="42.74803" lon="1.54668">
        <ele>1419.467</ele>
        <time>2021-03-06T13:32:43Z</time>
      </trkpt>
      <trkpt lat="42.74803" lon="1.54665">
        <ele>1418.623</ele>
        <time>2021-03-06T13:32:45Z</time>
      </trkpt>
      <trkpt lat="42.74802" lon="1.54662">
        <ele>1418.652</ele>
        <time>2021-03-06T13:32:47Z</time>
      </trkpt>
      <trkpt lat="42.74802" lon="1.54658">
        <ele>1419.225</ele>
        <time>2021-03-06T13:32:49Z</time>
      </trkpt>
      <trkpt lat="42.74804" lon="1.54654">
        <ele>1419.355</ele>
        <time>2021-03-06T13:32:51Z</time>
      </trkpt>
      <trkpt lat="42.74805" lon="1.54651">
        <ele>1418.494</ele>
        <time>2021-03-06T13:32:53Z</time>
      </trkpt>
      <trkpt lat="42.74805" lon="1.54648">
        <ele>1418.339</ele>
        <time>2021-03-06T13:32:55Z</time>
      </trkpt>
      <trkpt lat="42.74806" lon="1.54645">
        <ele>1418.326</ele>
        <time>2021-03-06T13:32:57Z</time>
      </trkpt>
      <trkpt lat="42.74807" lon="1.54642">
        <ele>1417.192</ele>
        <time>2021-03-06T13:32:59Z</time>
      </trkpt>
      <trkpt lat="42.74808" lon="1.54639">
        <ele>1417.37</ele>
        <time>2021-03-06T13:33:01Z</time>
      </trkpt>
      <trkpt lat="42.74808" lon="1.54635">
        <ele>1416.294</ele>
        <time>2021-03-06T13:33:03Z</time>
      </trkpt>
      <trkpt lat="42.74809" lon="1.54632">
        <ele>1414.65</ele>
        <time>2021-03-06T13:33:05Z</time>
      </trkpt>
      <trkpt lat="42.7481" lon="1.54629">
        <ele>1413.533</ele>
        <time>2021-03-06T13:33:07Z</time>
      </trkpt>
      <trkpt lat="42.7481" lon="1.54626">
        <ele>1411.948</ele>
        <time>2021-03-06T13:33:09Z</time>
      </trkpt>
      <trkpt lat="42.7481" lon="1.54624">
        <ele>1409.774</ele>
        <time>2021-03-06T13:33:11Z</time>
      </trkpt>
      <trkpt lat="42.7481" lon="1.54622">
        <ele>1407.892</ele>
        <time>2021-03-06T13:33:13Z</time>
      </trkpt>
      <trkpt lat="42.74811" lon="1.54618">
        <ele>1406.822</ele>
        <time>2021-03-06T13:33:15Z</time>
      </trkpt>
      <trkpt lat="42.74812" lon="1.54615">
        <ele>1407.401</ele>
        <time>2021-03-06T13:33:17Z</time>
      </trkpt>
      <trkpt lat="42.74812" lon="1.54613">
        <ele>1405.709</ele>
        <time>2021-03-06T13:33:19Z</time>
      </trkpt>
      <trkpt lat="42.74812" lon="1.54611">
        <ele>1404.16</ele>
        <time>2021-03-06T13:33:21Z</time>
      </trkpt>
      <trkpt lat="42.74813" lon="1.54608">
        <ele>1403.846</ele>
        <time>2021-03-06T13:33:23Z</time>
      </trkpt>
      <trkpt lat="42.74814" lon="1.54605">
        <ele>1403.28</ele>
        <time>2021-03-06T13:33:25Z</time>
      </trkpt>
      <trkpt lat="42.74814" lon="1.54602">
        <ele>1402.017</ele>
        <time>2021-03-06T13:33:27Z</time>
      </trkpt>
      <trkpt lat="42.74815" lon="1.54597">
        <ele>1403.308</ele>
        <time>2021-03-06T13:33:29Z</time>
      </trkpt>
      <trkpt lat="42.74817" lon="1.54593">
        <ele>1403.383</ele>
        <time>2021-03-06T13:33:31Z</time>
      </trkpt>
      <trkpt lat="42.74817" lon="1.5459">
        <ele>1401.818</ele>
        <time>2021-03-06T13:33:33Z</time>
      </trkpt>
      <trkpt lat="42.74818" lon="1.54587">
        <ele>1402.18</ele>
        <time>2021-03-06T13:33:35Z</time>
      </trkpt>
      <trkpt lat="42.74819" lon="1.54585">
        <ele>1398.848</ele>
        <time>2021-03-06T13:33:37Z</time>
      </trkpt>
      <trkpt lat="42.7482" lon="1.54582">
        <ele>1398.391</ele>
        <time>2021-03-06T13:33:39Z</time>
      </trkpt>
      <trkpt lat="42.7482" lon="1.54579">
        <ele>1398.125</ele>
        <time>2021-03-06T13:33:41Z</time>
      </trkpt>
      <trkpt lat="42.74821" lon="1.54576">
        <ele>1396.223</ele>
        <time>2021-03-06T13:33:43Z</time>
      </trkpt>
      <trkpt lat="42.74822" lon="1.54572">
        <ele>1395.45</ele>
        <time>2021-03-06T13:33:45Z</time>
      </trkpt>
      <trkpt lat="42.74823" lon="1.54569">
        <ele>1394.423</ele>
        <time>2021-03-06T13:33:47Z</time>
      </trkpt>
      <trkpt lat="42.74825" lon="1.54565">
        <ele>1393.562</ele>
        <time>2021-03-06T13:33:49Z</time>
      </trkpt>
      <trkpt lat="42.74826" lon="1.54562">
        <ele>1393.208</ele>
        <time>2021-03-06T13:33:51Z</time>
      </trkpt>
      <trkpt lat="42.74828" lon="1.5456">
        <ele>1390.796</ele>
        <time>2021-03-06T13:33:53Z</time>
      </trkpt>
      <trkpt lat="42.74829" lon="1.54557">
        <ele>1390.995</ele>
        <time>2021-03-06T13:33:55Z</time>
      </trkpt>
      <trkpt lat="42.7483" lon="1.54554">
        <ele>1392.457</ele>
        <time>2021-03-06T13:33:57Z</time>
      </trkpt>
      <trkpt lat="42.7483" lon="1.54551">
        <ele>1392.02</ele>
        <time>2021-03-06T13:33:59Z</time>
      </trkpt>
      <trkpt lat="42.74831" lon="1.54548">
        <ele>1391.81</ele>
        <time>2021-03-06T13:34:01Z</time>
      </trkpt>
      <trkpt lat="42.74831" lon="1.54546">
        <ele>1391.368</ele>
        <time>2021-03-06T13:34:03Z</time>
      </trkpt>
      <trkpt lat="42.74831" lon="1.54544">
        <ele>1391.355</ele>
        <time>2021-03-06T13:34:05Z</time>
      </trkpt>
      <trkpt lat="42.74833" lon="1.54539">
        <ele>1391.469</ele>
        <time>2021-03-06T13:34:07Z</time>
      </trkpt>
      <trkpt lat="42.74834" lon="1.54537">
        <ele>1389.519</ele>
        <time>2021-03-06T13:34:09Z</time>
      </trkpt>
      <trkpt lat="42.74836" lon="1.54535">
        <ele>1391.673</ele>
        <time>2021-03-06T13:34:11Z</time>
      </trkpt>
      <trkpt lat="42.74838" lon="1.54533">
        <ele>1394.457</ele>
        <time>2021-03-06T13:34:13Z</time>
      </trkpt>
      <trkpt lat="42.74839" lon="1.54532">
        <ele>1395.582</ele>
        <time>2021-03-06T13:34:15Z</time>
      </trkpt>
      <trkpt lat="42.74841" lon="1.54527">
        <ele>1395.036</ele>
        <time>2021-03-06T13:34:17Z</time>
      </trkpt>
      <trkpt lat="42.74842" lon="1.54525">
        <ele>1395.766</ele>
        <time>2021-03-06T13:34:19Z</time>
      </trkpt>
      <trkpt lat="42.74843" lon="1.54523">
        <ele>1397.179</ele>
        <time>2021-03-06T13:34:21Z</time>
      </trkpt>
      <trkpt lat="42.74844" lon="1.54521">
        <ele>1396.429</ele>
        <time>2021-03-06T13:34:23Z</time>
      </trkpt>
      <trkpt lat="42.74843" lon="1.5452">
        <ele>1393.939</ele>
        <time>2021-03-06T13:34:25Z</time>
      </trkpt>
      <trkpt lat="42.74842" lon="1.5452">
        <ele>1394.075</ele>
        <time>2021-03-06T13:34:27Z</time>
      </trkpt>
      <trkpt lat="42.74842" lon="1.5452">
        <ele>1394.028</ele>
        <time>2021-03-06T13:34:29Z</time>
      </trkpt>
      <trkpt lat="42.74842" lon="1.5452">
        <ele>1394.029</ele>
        <time>2021-03-06T13:34:31Z</time>
      </trkpt>
      <trkpt lat="42.74842" lon="1.54519">
        <ele>1393.618</ele>
        <time>2021-03-06T13:34:33Z</time>
      </trkpt>
      <trkpt lat="42.74841" lon="1.54515">
        <ele>1392.523</ele>
        <time>2021-03-06T13:34:35Z</time>
      </trkpt>
      <trkpt lat="42.7484" lon="1.54511">
        <ele>1392.428</ele>
        <time>2021-03-06T13:34:37Z</time>
      </trkpt>
      <trkpt lat="42.74841" lon="1.54508">
        <ele>1390.936</ele>
        <time>2021-03-06T13:34:39Z</time>
      </trkpt>
      <trkpt lat="42.74843" lon="1.54506">
        <ele>1389.932</ele>
        <time>2021-03-06T13:34:41Z</time>
      </trkpt>
      <trkpt lat="42.74843" lon="1.54503">
        <ele>1390.03</ele>
        <time>2021-03-06T13:34:43Z</time>
      </trkpt>
      <trkpt lat="42.74843" lon="1.545">
        <ele>1389.387</ele>
        <time>2021-03-06T13:34:45Z</time>
      </trkpt>
      <trkpt lat="42.74843" lon="1.54498">
        <ele>1389.286</ele>
        <time>2021-03-06T13:34:47Z</time>
      </trkpt>
      <trkpt lat="42.74843" lon="1.54496">
        <ele>1389.187</ele>
        <time>2021-03-06T13:34:49Z</time>
      </trkpt>
      <trkpt lat="42.74842" lon="1.54493">
        <ele>1387.674</ele>
        <time>2021-03-06T13:34:51Z</time>
      </trkpt>
      <trkpt lat="42.74841" lon="1.54491">
        <ele>1385.796</ele>
        <time>2021-03-06T13:34:53Z</time>
      </trkpt>
      <trkpt lat="42.74841" lon="1.54489">
        <ele>1385.629</ele>
        <time>2021-03-06T13:34:55Z</time>
      </trkpt>
      <trkpt lat="42.74842" lon="1.54486">
        <ele>1386.198</ele>
        <time>2021-03-06T13:34:57Z</time>
      </trkpt>
      <trkpt lat="42.74843" lon="1.54483">
        <ele>1386.089</ele>
        <time>2021-03-06T13:34:59Z</time>
      </trkpt>
      <trkpt lat="42.74843" lon="1.5448">
        <ele>1386.002</ele>
        <time>2021-03-06T13:35:01Z</time>
      </trkpt>
      <trkpt lat="42.74843" lon="1.54477">
        <ele>1386.624</ele>
        <time>2021-03-06T13:35:03Z</time>
      </trkpt>
      <trkpt lat="42.74843" lon="1.54475">
        <ele>1385.561</ele>
        <time>2021-03-06T13:35:05Z</time>
      </trkpt>
      <trkpt lat="42.74843" lon="1.54472">
        <ele>1386.087</ele>
        <time>2021-03-06T13:35:07Z</time>
      </trkpt>
      <trkpt lat="42.74844" lon="1.54469">
        <ele>1388.116</ele>
        <time>2021-03-06T13:35:09Z</time>
      </trkpt>
      <trkpt lat="42.74844" lon="1.54467">
        <ele>1386.74</ele>
        <time>2021-03-06T13:35:11Z</time>
      </trkpt>
      <trkpt lat="42.74845" lon="1.54465">
        <ele>1387.453</ele>
        <time>2021-03-06T13:35:13Z</time>
      </trkpt>
      <trkpt lat="42.74846" lon="1.54462">
        <ele>1386.949</ele>
        <time>2021-03-06T13:35:15Z</time>
      </trkpt>
      <trkpt lat="42.74847" lon="1.54459">
        <ele>1387.601</ele>
        <time>2021-03-06T13:35:17Z</time>
      </trkpt>
      <trkpt lat="42.74849" lon="1.54457">
        <ele>1387.09</ele>
        <time>2021-03-06T13:35:19Z</time>
      </trkpt>
      <trkpt lat="42.7485" lon="1.54454">
        <ele>1387.089</ele>
        <time>2021-03-06T13:35:21Z</time>
      </trkpt>
      <trkpt lat="42.74851" lon="1.54451">
        <ele>1386.678</ele>
        <time>2021-03-06T13:35:23Z</time>
      </trkpt>
      <trkpt lat="42.74851" lon="1.54449">
        <ele>1386.455</ele>
        <time>2021-03-06T13:35:25Z</time>
      </trkpt>
      <trkpt lat="42.74852" lon="1.54447">
        <ele>1386.801</ele>
        <time>2021-03-06T13:35:27Z</time>
      </trkpt>
      <trkpt lat="42.74853" lon="1.54446">
        <ele>1385.655</ele>
        <time>2021-03-06T13:35:29Z</time>
      </trkpt>
      <trkpt lat="42.74854" lon="1.54444">
        <ele>1385.319</ele>
        <time>2021-03-06T13:35:31Z</time>
      </trkpt>
      <trkpt lat="42.74854" lon="1.54441">
        <ele>1385.034</ele>
        <time>2021-03-06T13:35:33Z</time>
      </trkpt>
      <trkpt lat="42.74854" lon="1.54439">
        <ele>1385.259</ele>
        <time>2021-03-06T13:35:35Z</time>
      </trkpt>
      <trkpt lat="42.74854" lon="1.54436">
        <ele>1385.865</ele>
        <time>2021-03-06T13:35:37Z</time>
      </trkpt>
      <trkpt lat="42.74854" lon="1.54434">
        <ele>1384.696</ele>
        <time>2021-03-06T13:35:39Z</time>
      </trkpt>
      <trkpt lat="42.74855" lon="1.54432">
        <ele>1384.138</ele>
        <time>2021-03-06T13:35:41Z</time>
      </trkpt>
      <trkpt lat="42.74856" lon="1.54429">
        <ele>1383.153</ele>
        <time>2021-03-06T13:35:43Z</time>
      </trkpt>
      <trkpt lat="42.74857" lon="1.54427">
        <ele>1383.149</ele>
        <time>2021-03-06T13:35:45Z</time>
      </trkpt>
      <trkpt lat="42.74858" lon="1.54425">
        <ele>1382.187</ele>
        <time>2021-03-06T13:35:47Z</time>
      </trkpt>
      <trkpt lat="42.74859" lon="1.54422">
        <ele>1381.319</ele>
        <time>2021-03-06T13:35:49Z</time>
      </trkpt>
      <trkpt lat="42.7486" lon="1.5442">
        <ele>1379.713</ele>
        <time>2021-03-06T13:35:51Z</time>
      </trkpt>
      <trkpt lat="42.74861" lon="1.54418">
        <ele>1379.103</ele>
        <time>2021-03-06T13:35:53Z</time>
      </trkpt>
      <trkpt lat="42.74861" lon="1.54416">
        <ele>1379.247</ele>
        <time>2021-03-06T13:35:54Z</time>
      </trkpt>
      <trkpt lat="42.74862" lon="1.54413">
        <ele>1378.65</ele>
        <time>2021-03-06T13:35:57Z</time>
      </trkpt>
      <trkpt lat="42.74863" lon="1.54411">
        <ele>1377.387</ele>
        <time>2021-03-06T13:35:59Z</time>
      </trkpt>
      <trkpt lat="42.74864" lon="1.54409">
        <ele>1377.22</ele>
        <time>2021-03-06T13:36:01Z</time>
      </trkpt>
      <trkpt lat="42.74864" lon="1.54406">
        <ele>1376.238</ele>
        <time>2021-03-06T13:36:03Z</time>
      </trkpt>
      <trkpt lat="42.74864" lon="1.54403">
        <ele>1374.944</ele>
        <time>2021-03-06T13:36:05Z</time>
      </trkpt>
      <trkpt lat="42.74865" lon="1.54401">
        <ele>1375.694</ele>
        <time>2021-03-06T13:36:07Z</time>
      </trkpt>
      <trkpt lat="42.74866" lon="1.54399">
        <ele>1376.288</ele>
        <time>2021-03-06T13:36:09Z</time>
      </trkpt>
      <trkpt lat="42.74866" lon="1.54396">
        <ele>1376.225</ele>
        <time>2021-03-06T13:36:11Z</time>
      </trkpt>
      <trkpt lat="42.74867" lon="1.54394">
        <ele>1375.246</ele>
        <time>2021-03-06T13:36:13Z</time>
      </trkpt>
      <trkpt lat="42.74868" lon="1.54392">
        <ele>1374.549</ele>
        <time>2021-03-06T13:36:15Z</time>
      </trkpt>
      <trkpt lat="42.74869" lon="1.5439">
        <ele>1373.875</ele>
        <time>2021-03-06T13:36:17Z</time>
      </trkpt>
      <trkpt lat="42.7487" lon="1.54389">
        <ele>1373.772</ele>
        <time>2021-03-06T13:36:19Z</time>
      </trkpt>
      <trkpt lat="42.74871" lon="1.54386">
        <ele>1373.289</ele>
        <time>2021-03-06T13:36:21Z</time>
      </trkpt>
      <trkpt lat="42.7487" lon="1.54382">
        <ele>1371.662</ele>
        <time>2021-03-06T13:36:23Z</time>
      </trkpt>
      <trkpt lat="42.74871" lon="1.5438">
        <ele>1371.09</ele>
        <time>2021-03-06T13:36:25Z</time>
      </trkpt>
      <trkpt lat="42.74871" lon="1.54378">
        <ele>1370.049</ele>
        <time>2021-03-06T13:36:27Z</time>
      </trkpt>
      <trkpt lat="42.74871" lon="1.54376">
        <ele>1369.576</ele>
        <time>2021-03-06T13:36:29Z</time>
      </trkpt>
      <trkpt lat="42.74872" lon="1.54373">
        <ele>1369.334</ele>
        <time>2021-03-06T13:36:31Z</time>
      </trkpt>
      <trkpt lat="42.74872" lon="1.54371">
        <ele>1367.578</ele>
        <time>2021-03-06T13:36:33Z</time>
      </trkpt>
      <trkpt lat="42.74873" lon="1.54369">
        <ele>1367.313</ele>
        <time>2021-03-06T13:36:35Z</time>
      </trkpt>
      <trkpt lat="42.74875" lon="1.54366">
        <ele>1368.035</ele>
        <time>2021-03-06T13:36:37Z</time>
      </trkpt>
      <trkpt lat="42.74877" lon="1.54365">
        <ele>1368.946</ele>
        <time>2021-03-06T13:36:39Z</time>
      </trkpt>
      <trkpt lat="42.74878" lon="1.54363">
        <ele>1368.132</ele>
        <time>2021-03-06T13:36:41Z</time>
      </trkpt>
      <trkpt lat="42.74879" lon="1.54363">
        <ele>1366.966</ele>
        <time>2021-03-06T13:36:43Z</time>
      </trkpt>
      <trkpt lat="42.74881" lon="1.54362">
        <ele>1366.674</ele>
        <time>2021-03-06T13:36:45Z</time>
      </trkpt>
      <trkpt lat="42.74883" lon="1.54362">
        <ele>1366.336</ele>
        <time>2021-03-06T13:36:47Z</time>
      </trkpt>
      <trkpt lat="42.74884" lon="1.54362">
        <ele>1365.272</ele>
        <time>2021-03-06T13:36:49Z</time>
      </trkpt>
      <trkpt lat="42.74886" lon="1.54362">
        <ele>1364.133</ele>
        <time>2021-03-06T13:36:51Z</time>
      </trkpt>
      <trkpt lat="42.74887" lon="1.54363">
        <ele>1363.688</ele>
        <time>2021-03-06T13:36:53Z</time>
      </trkpt>
      <trkpt lat="42.74888" lon="1.54364">
        <ele>1364.071</ele>
        <time>2021-03-06T13:36:55Z</time>
      </trkpt>
      <trkpt lat="42.74889" lon="1.54365">
        <ele>1365.032</ele>
        <time>2021-03-06T13:36:57Z</time>
      </trkpt>
      <trkpt lat="42.74889" lon="1.54368">
        <ele>1365.697</ele>
        <time>2021-03-06T13:36:59Z</time>
      </trkpt>
      <trkpt lat="42.74889" lon="1.54368">
        <ele>1365.617</ele>
        <time>2021-03-06T13:37:01Z</time>
      </trkpt>
      <trkpt lat="42.74888" lon="1.54368">
        <ele>1364.702</ele>
        <time>2021-03-06T13:37:03Z</time>
      </trkpt>
      <trkpt lat="42.74888" lon="1.54368">
        <ele>1364.694</ele>
        <time>2021-03-06T13:37:05Z</time>
      </trkpt>
      <trkpt lat="42.74888" lon="1.54368">
        <ele>1364.693</ele>
        <time>2021-03-06T13:37:07Z</time>
      </trkpt>
      <trkpt lat="42.74888" lon="1.54367">
        <ele>1364.483</ele>
        <time>2021-03-06T13:37:09Z</time>
      </trkpt>
      <trkpt lat="42.74889" lon="1.54365">
        <ele>1363.513</ele>
        <time>2021-03-06T13:37:11Z</time>
      </trkpt>
      <trkpt lat="42.7489" lon="1.54361">
        <ele>1362.338</ele>
        <time>2021-03-06T13:37:13Z</time>
      </trkpt>
      <trkpt lat="42.74891" lon="1.5436">
        <ele>1361.489</ele>
        <time>2021-03-06T13:37:15Z</time>
      </trkpt>
      <trkpt lat="42.74892" lon="1.54358">
        <ele>1360.033</ele>
        <time>2021-03-06T13:37:17Z</time>
      </trkpt>
      <trkpt lat="42.74892" lon="1.54356">
        <ele>1359.636</ele>
        <time>2021-03-06T13:37:19Z</time>
      </trkpt>
      <trkpt lat="42.74893" lon="1.54357">
        <ele>1360.291</ele>
        <time>2021-03-06T13:37:21Z</time>
      </trkpt>
      <trkpt lat="42.74895" lon="1.54357">
        <ele>1360.637</ele>
        <time>2021-03-06T13:37:23Z</time>
      </trkpt>
      <trkpt lat="42.74897" lon="1.54356">
        <ele>1360.316</ele>
        <time>2021-03-06T13:37:25Z</time>
      </trkpt>
      <trkpt lat="42.74896" lon="1.54355">
        <ele>1355.057</ele>
        <time>2021-03-06T13:37:27Z</time>
      </trkpt>
      <trkpt lat="42.74895" lon="1.54354">
        <ele>1352.379</ele>
        <time>2021-03-06T13:37:29Z</time>
      </trkpt>
      <trkpt lat="42.74896" lon="1.54352">
        <ele>1351.906</ele>
        <time>2021-03-06T13:37:31Z</time>
      </trkpt>
      <trkpt lat="42.74898" lon="1.5435">
        <ele>1351.584</ele>
        <time>2021-03-06T13:37:33Z</time>
      </trkpt>
      <trkpt lat="42.749" lon="1.54349">
        <ele>1351.026</ele>
        <time>2021-03-06T13:37:35Z</time>
      </trkpt>
      <trkpt lat="42.74902" lon="1.54349">
        <ele>1351.542</ele>
        <time>2021-03-06T13:37:37Z</time>
      </trkpt>
      <trkpt lat="42.74905" lon="1.54348">
        <ele>1350.667</ele>
        <time>2021-03-06T13:37:39Z</time>
      </trkpt>
      <trkpt lat="42.74907" lon="1.54346">
        <ele>1350.572</ele>
        <time>2021-03-06T13:37:41Z</time>
      </trkpt>
      <trkpt lat="42.7491" lon="1.54345">
        <ele>1350.149</ele>
        <time>2021-03-06T13:37:43Z</time>
      </trkpt>
      <trkpt lat="42.74912" lon="1.54343">
        <ele>1349.977</ele>
        <time>2021-03-06T13:37:45Z</time>
      </trkpt>
      <trkpt lat="42.74914" lon="1.5434">
        <ele>1349.671</ele>
        <time>2021-03-06T13:37:47Z</time>
      </trkpt>
      <trkpt lat="42.74916" lon="1.54337">
        <ele>1348.377</ele>
        <time>2021-03-06T13:37:49Z</time>
      </trkpt>
      <trkpt lat="42.74917" lon="1.54335">
        <ele>1348.644</ele>
        <time>2021-03-06T13:37:51Z</time>
      </trkpt>
      <trkpt lat="42.74919" lon="1.54332">
        <ele>1348.592</ele>
        <time>2021-03-06T13:37:53Z</time>
      </trkpt>
      <trkpt lat="42.74921" lon="1.54329">
        <ele>1348.964</ele>
        <time>2021-03-06T13:37:55Z</time>
      </trkpt>
      <trkpt lat="42.74922" lon="1.54327">
        <ele>1349.067</ele>
        <time>2021-03-06T13:37:57Z</time>
      </trkpt>
      <trkpt lat="42.74924" lon="1.54324">
        <ele>1350.007</ele>
        <time>2021-03-06T13:37:59Z</time>
      </trkpt>
      <trkpt lat="42.74925" lon="1.5432">
        <ele>1349.89</ele>
        <time>2021-03-06T13:38:01Z</time>
      </trkpt>
      <trkpt lat="42.74927" lon="1.54318">
        <ele>1349.255</ele>
        <time>2021-03-06T13:38:03Z</time>
      </trkpt>
      <trkpt lat="42.7493" lon="1.54317">
        <ele>1348.636</ele>
        <time>2021-03-06T13:38:05Z</time>
      </trkpt>
      <trkpt lat="42.74931" lon="1.54315">
        <ele>1348.951</ele>
        <time>2021-03-06T13:38:07Z</time>
      </trkpt>
      <trkpt lat="42.74933" lon="1.54313">
        <ele>1351.013</ele>
        <time>2021-03-06T13:38:09Z</time>
      </trkpt>
      <trkpt lat="42.74934" lon="1.54311">
        <ele>1349.869</ele>
        <time>2021-03-06T13:38:11Z</time>
      </trkpt>
      <trkpt lat="42.74935" lon="1.5431">
        <ele>1349.059</ele>
        <time>2021-03-06T13:38:13Z</time>
      </trkpt>
      <trkpt lat="42.74937" lon="1.54311">
        <ele>1348.332</ele>
        <time>2021-03-06T13:38:15Z</time>
      </trkpt>
      <trkpt lat="42.74938" lon="1.54311">
        <ele>1346.969</ele>
        <time>2021-03-06T13:38:17Z</time>
      </trkpt>
      <trkpt lat="42.7494" lon="1.5431">
        <ele>1346.851</ele>
        <time>2021-03-06T13:38:19Z</time>
      </trkpt>
      <trkpt lat="42.74941" lon="1.54309">
        <ele>1346.666</ele>
        <time>2021-03-06T13:38:21Z</time>
      </trkpt>
      <trkpt lat="42.74943" lon="1.5431">
        <ele>1347.996</ele>
        <time>2021-03-06T13:38:23Z</time>
      </trkpt>
      <trkpt lat="42.74946" lon="1.54309">
        <ele>1347.675</ele>
        <time>2021-03-06T13:38:25Z</time>
      </trkpt>
      <trkpt lat="42.74948" lon="1.54309">
        <ele>1346.75</ele>
        <time>2021-03-06T13:38:27Z</time>
      </trkpt>
      <trkpt lat="42.7495" lon="1.54307">
        <ele>1345.424</ele>
        <time>2021-03-06T13:38:29Z</time>
      </trkpt>
      <trkpt lat="42.74952" lon="1.54307">
        <ele>1345.4</ele>
        <time>2021-03-06T13:38:31Z</time>
      </trkpt>
      <trkpt lat="42.74954" lon="1.54306">
        <ele>1344.474</ele>
        <time>2021-03-06T13:38:33Z</time>
      </trkpt>
      <trkpt lat="42.74956" lon="1.54305">
        <ele>1343.242</ele>
        <time>2021-03-06T13:38:35Z</time>
      </trkpt>
      <trkpt lat="42.74957" lon="1.54304">
        <ele>1342.702</ele>
        <time>2021-03-06T13:38:37Z</time>
      </trkpt>
      <trkpt lat="42.74959" lon="1.54302">
        <ele>1342.415</ele>
        <time>2021-03-06T13:38:39Z</time>
      </trkpt>
      <trkpt lat="42.74961" lon="1.543">
        <ele>1342.508</ele>
        <time>2021-03-06T13:38:42Z</time>
      </trkpt>
      <trkpt lat="42.74962" lon="1.54298">
        <ele>1342.309</ele>
        <time>2021-03-06T13:38:44Z</time>
      </trkpt>
      <trkpt lat="42.74963" lon="1.54296">
        <ele>1341.675</ele>
        <time>2021-03-06T13:38:46Z</time>
      </trkpt>
      <trkpt lat="42.74965" lon="1.54294">
        <ele>1340.321</ele>
        <time>2021-03-06T13:38:48Z</time>
      </trkpt>
      <trkpt lat="42.74966" lon="1.54293">
        <ele>1341.523</ele>
        <time>2021-03-06T13:38:50Z</time>
      </trkpt>
      <trkpt lat="42.74968" lon="1.54296">
        <ele>1341.929</ele>
        <time>2021-03-06T13:38:52Z</time>
      </trkpt>
      <trkpt lat="42.74968" lon="1.54296">
        <ele>1341.812</ele>
        <time>2021-03-06T13:38:54Z</time>
      </trkpt>
      <trkpt lat="42.7497" lon="1.54295">
        <ele>1342.151</ele>
        <time>2021-03-06T13:38:56Z</time>
      </trkpt>
      <trkpt lat="42.7497" lon="1.54293">
        <ele>1341.004</ele>
        <time>2021-03-06T13:38:58Z</time>
      </trkpt>
      <trkpt lat="42.74971" lon="1.54291">
        <ele>1340.35</ele>
        <time>2021-03-06T13:39:00Z</time>
      </trkpt>
      <trkpt lat="42.74972" lon="1.54289">
        <ele>1338.96</ele>
        <time>2021-03-06T13:39:02Z</time>
      </trkpt>
      <trkpt lat="42.74974" lon="1.54288">
        <ele>1338.586</ele>
        <time>2021-03-06T13:39:04Z</time>
      </trkpt>
      <trkpt lat="42.74976" lon="1.54287">
        <ele>1339.133</ele>
        <time>2021-03-06T13:39:06Z</time>
      </trkpt>
      <trkpt lat="42.74978" lon="1.54285">
        <ele>1338.468</ele>
        <time>2021-03-06T13:39:08Z</time>
      </trkpt>
      <trkpt lat="42.74979" lon="1.54282">
        <ele>1336.887</ele>
        <time>2021-03-06T13:39:10Z</time>
      </trkpt>
      <trkpt lat="42.74981" lon="1.5428">
        <ele>1335.784</ele>
        <time>2021-03-06T13:39:12Z</time>
      </trkpt>
      <trkpt lat="42.74982" lon="1.54279">
        <ele>1334.887</ele>
        <time>2021-03-06T13:39:14Z</time>
      </trkpt>
      <trkpt lat="42.74984" lon="1.54278">
        <ele>1334.655</ele>
        <time>2021-03-06T13:39:16Z</time>
      </trkpt>
      <trkpt lat="42.74985" lon="1.54276">
        <ele>1332.305</ele>
        <time>2021-03-06T13:39:18Z</time>
      </trkpt>
      <trkpt lat="42.74986" lon="1.54274">
        <ele>1329.668</ele>
        <time>2021-03-06T13:39:20Z</time>
      </trkpt>
      <trkpt lat="42.74988" lon="1.54273">
        <ele>1329.463</ele>
        <time>2021-03-06T13:39:22Z</time>
      </trkpt>
      <trkpt lat="42.74991" lon="1.54272">
        <ele>1330.307</ele>
        <time>2021-03-06T13:39:24Z</time>
      </trkpt>
      <trkpt lat="42.74993" lon="1.54271">
        <ele>1329.812</ele>
        <time>2021-03-06T13:39:26Z</time>
      </trkpt>
      <trkpt lat="42.74995" lon="1.5427">
        <ele>1329.63</ele>
        <time>2021-03-06T13:39:28Z</time>
      </trkpt>
      <trkpt lat="42.74997" lon="1.5427">
        <ele>1329.47</ele>
        <time>2021-03-06T13:39:30Z</time>
      </trkpt>
      <trkpt lat="42.75" lon="1.5427">
        <ele>1329.087</ele>
        <time>2021-03-06T13:39:32Z</time>
      </trkpt>
      <trkpt lat="42.75002" lon="1.54269">
        <ele>1328.879</ele>
        <time>2021-03-06T13:39:34Z</time>
      </trkpt>
      <trkpt lat="42.75004" lon="1.54268">
        <ele>1327.745</ele>
        <time>2021-03-06T13:39:36Z</time>
      </trkpt>
      <trkpt lat="42.75007" lon="1.54267">
        <ele>1326.492</ele>
        <time>2021-03-06T13:39:38Z</time>
      </trkpt>
      <trkpt lat="42.75009" lon="1.54266">
        <ele>1325.472</ele>
        <time>2021-03-06T13:39:40Z</time>
      </trkpt>
      <trkpt lat="42.7501" lon="1.54265">
        <ele>1324.952</ele>
        <time>2021-03-06T13:39:41Z</time>
      </trkpt>
      <trkpt lat="42.75013" lon="1.54264">
        <ele>1325.287</ele>
        <time>2021-03-06T13:39:44Z</time>
      </trkpt>
      <trkpt lat="42.75016" lon="1.54263">
        <ele>1324.845</ele>
        <time>2021-03-06T13:39:46Z</time>
      </trkpt>
      <trkpt lat="42.75018" lon="1.54261">
        <ele>1322.401</ele>
        <time>2021-03-06T13:39:48Z</time>
      </trkpt>
      <trkpt lat="42.7502" lon="1.54259">
        <ele>1321.593</ele>
        <time>2021-03-06T13:39:50Z</time>
      </trkpt>
      <trkpt lat="42.75022" lon="1.54258">
        <ele>1320.992</ele>
        <time>2021-03-06T13:39:52Z</time>
      </trkpt>
      <trkpt lat="42.75023" lon="1.54256">
        <ele>1319.254</ele>
        <time>2021-03-06T13:39:54Z</time>
      </trkpt>
      <trkpt lat="42.75025" lon="1.54255">
        <ele>1319.215</ele>
        <time>2021-03-06T13:39:56Z</time>
      </trkpt>
      <trkpt lat="42.75026" lon="1.54253">
        <ele>1318.816</ele>
        <time>2021-03-06T13:39:58Z</time>
      </trkpt>
      <trkpt lat="42.75028" lon="1.54251">
        <ele>1319.067</ele>
        <time>2021-03-06T13:40:00Z</time>
      </trkpt>
      <trkpt lat="42.7503" lon="1.54249">
        <ele>1319.354</ele>
        <time>2021-03-06T13:40:02Z</time>
      </trkpt>
      <trkpt lat="42.75032" lon="1.54247">
        <ele>1318.441</ele>
        <time>2021-03-06T13:40:04Z</time>
      </trkpt>
      <trkpt lat="42.75033" lon="1.54245">
        <ele>1316.954</ele>
        <time>2021-03-06T13:40:06Z</time>
      </trkpt>
      <trkpt lat="42.75035" lon="1.54242">
        <ele>1316.92</ele>
        <time>2021-03-06T13:40:08Z</time>
      </trkpt>
      <trkpt lat="42.75036" lon="1.5424">
        <ele>1316.639</ele>
        <time>2021-03-06T13:40:10Z</time>
      </trkpt>
      <trkpt lat="42.75038" lon="1.54237">
        <ele>1315.411</ele>
        <time>2021-03-06T13:40:12Z</time>
      </trkpt>
      <trkpt lat="42.7504" lon="1.54235">
        <ele>1315.427</ele>
        <time>2021-03-06T13:40:14Z</time>
      </trkpt>
      <trkpt lat="42.75042" lon="1.54232">
        <ele>1315.733</ele>
        <time>2021-03-06T13:40:16Z</time>
      </trkpt>
      <trkpt lat="42.75043" lon="1.54228">
        <ele>1317.465</ele>
        <time>2021-03-06T13:40:18Z</time>
      </trkpt>
      <trkpt lat="42.75044" lon="1.54225">
        <ele>1317.851</ele>
        <time>2021-03-06T13:40:20Z</time>
      </trkpt>
      <trkpt lat="42.75046" lon="1.54221">
        <ele>1318.335</ele>
        <time>2021-03-06T13:40:22Z</time>
      </trkpt>
      <trkpt lat="42.75047" lon="1.54218">
        <ele>1318.341</ele>
        <time>2021-03-06T13:40:24Z</time>
      </trkpt>
      <trkpt lat="42.75049" lon="1.54215">
        <ele>1318.016</ele>
        <time>2021-03-06T13:40:26Z</time>
      </trkpt>
      <trkpt lat="42.7505" lon="1.54212">
        <ele>1318.494</ele>
        <time>2021-03-06T13:40:28Z</time>
      </trkpt>
      <trkpt lat="42.75051" lon="1.54209">
        <ele>1317.936</ele>
        <time>2021-03-06T13:40:30Z</time>
      </trkpt>
      <trkpt lat="42.75052" lon="1.54207">
        <ele>1317.651</ele>
        <time>2021-03-06T13:40:32Z</time>
      </trkpt>
      <trkpt lat="42.75053" lon="1.54203">
        <ele>1317.85</ele>
        <time>2021-03-06T13:40:34Z</time>
      </trkpt>
      <trkpt lat="42.75054" lon="1.542">
        <ele>1319.185</ele>
        <time>2021-03-06T13:40:36Z</time>
      </trkpt>
      <trkpt lat="42.75056" lon="1.54197">
        <ele>1321.411</ele>
        <time>2021-03-06T13:40:38Z</time>
      </trkpt>
      <trkpt lat="42.75058" lon="1.54193">
        <ele>1322.376</ele>
        <time>2021-03-06T13:40:40Z</time>
      </trkpt>
      <trkpt lat="42.75058" lon="1.54189">
        <ele>1322.578</ele>
        <time>2021-03-06T13:40:42Z</time>
      </trkpt>
      <trkpt lat="42.75059" lon="1.54186">
        <ele>1323.258</ele>
        <time>2021-03-06T13:40:44Z</time>
      </trkpt>
      <trkpt lat="42.75061" lon="1.54181">
        <ele>1324.362</ele>
        <time>2021-03-06T13:40:46Z</time>
      </trkpt>
      <trkpt lat="42.75063" lon="1.54177">
        <ele>1325.06</ele>
        <time>2021-03-06T13:40:48Z</time>
      </trkpt>
      <trkpt lat="42.75065" lon="1.54174">
        <ele>1325.525</ele>
        <time>2021-03-06T13:40:50Z</time>
      </trkpt>
      <trkpt lat="42.75068" lon="1.54172">
        <ele>1325.14</ele>
        <time>2021-03-06T13:40:52Z</time>
      </trkpt>
      <trkpt lat="42.7507" lon="1.54169">
        <ele>1325.342</ele>
        <time>2021-03-06T13:40:54Z</time>
      </trkpt>
      <trkpt lat="42.75071" lon="1.54165">
        <ele>1324.887</ele>
        <time>2021-03-06T13:40:56Z</time>
      </trkpt>
      <trkpt lat="42.75073" lon="1.54165">
        <ele>1323.498</ele>
        <time>2021-03-06T13:40:58Z</time>
      </trkpt>
      <trkpt lat="42.75075" lon="1.54163">
        <ele>1322.71</ele>
        <time>2021-03-06T13:41:00Z</time>
      </trkpt>
      <trkpt lat="42.75076" lon="1.54162">
        <ele>1321.146</ele>
        <time>2021-03-06T13:41:02Z</time>
      </trkpt>
      <trkpt lat="42.75079" lon="1.54161">
        <ele>1319.655</ele>
        <time>2021-03-06T13:41:04Z</time>
      </trkpt>
      <trkpt lat="42.7508" lon="1.54158">
        <ele>1319.15</ele>
        <time>2021-03-06T13:41:06Z</time>
      </trkpt>
      <trkpt lat="42.75082" lon="1.54155">
        <ele>1318.774</ele>
        <time>2021-03-06T13:41:08Z</time>
      </trkpt>
      <trkpt lat="42.75085" lon="1.54153">
        <ele>1318.908</ele>
        <time>2021-03-06T13:41:10Z</time>
      </trkpt>
      <trkpt lat="42.75087" lon="1.54151">
        <ele>1317.773</ele>
        <time>2021-03-06T13:41:12Z</time>
      </trkpt>
      <trkpt lat="42.75089" lon="1.54149">
        <ele>1316.626</ele>
        <time>2021-03-06T13:41:14Z</time>
      </trkpt>
      <trkpt lat="42.7509" lon="1.54147">
        <ele>1315.519</ele>
        <time>2021-03-06T13:41:16Z</time>
      </trkpt>
      <trkpt lat="42.75092" lon="1.54144">
        <ele>1314.715</ele>
        <time>2021-03-06T13:41:18Z</time>
      </trkpt>
      <trkpt lat="42.75094" lon="1.54142">
        <ele>1314.178</ele>
        <time>2021-03-06T13:41:20Z</time>
      </trkpt>
      <trkpt lat="42.75095" lon="1.54138">
        <ele>1313.772</ele>
        <time>2021-03-06T13:41:22Z</time>
      </trkpt>
      <trkpt lat="42.75096" lon="1.54136">
        <ele>1313.203</ele>
        <time>2021-03-06T13:41:24Z</time>
      </trkpt>
      <trkpt lat="42.75098" lon="1.54133">
        <ele>1313.648</ele>
        <time>2021-03-06T13:41:26Z</time>
      </trkpt>
      <trkpt lat="42.751" lon="1.54129">
        <ele>1313.338</ele>
        <time>2021-03-06T13:41:28Z</time>
      </trkpt>
      <trkpt lat="42.75102" lon="1.54126">
        <ele>1312.577</ele>
        <time>2021-03-06T13:41:30Z</time>
      </trkpt>
      <trkpt lat="42.75104" lon="1.54123">
        <ele>1311.845</ele>
        <time>2021-03-06T13:41:32Z</time>
      </trkpt>
      <trkpt lat="42.75105" lon="1.54119">
        <ele>1311.421</ele>
        <time>2021-03-06T13:41:34Z</time>
      </trkpt>
      <trkpt lat="42.75106" lon="1.54117">
        <ele>1311.2</ele>
        <time>2021-03-06T13:41:36Z</time>
      </trkpt>
      <trkpt lat="42.75108" lon="1.54114">
        <ele>1311.661</ele>
        <time>2021-03-06T13:41:38Z</time>
      </trkpt>
      <trkpt lat="42.75108" lon="1.54111">
        <ele>1310.923</ele>
        <time>2021-03-06T13:41:40Z</time>
      </trkpt>
      <trkpt lat="42.7511" lon="1.54109">
        <ele>1310.276</ele>
        <time>2021-03-06T13:41:42Z</time>
      </trkpt>
      <trkpt lat="42.75111" lon="1.54105">
        <ele>1310.778</ele>
        <time>2021-03-06T13:41:44Z</time>
      </trkpt>
      <trkpt lat="42.75112" lon="1.54101">
        <ele>1312.411</ele>
        <time>2021-03-06T13:41:46Z</time>
      </trkpt>
      <trkpt lat="42.75112" lon="1.54097">
        <ele>1313.3</ele>
        <time>2021-03-06T13:41:48Z</time>
      </trkpt>
      <trkpt lat="42.75112" lon="1.54093">
        <ele>1313.904</ele>
        <time>2021-03-06T13:41:50Z</time>
      </trkpt>
      <trkpt lat="42.75113" lon="1.54089">
        <ele>1314.964</ele>
        <time>2021-03-06T13:41:52Z</time>
      </trkpt>
      <trkpt lat="42.75114" lon="1.54085">
        <ele>1314.891</ele>
        <time>2021-03-06T13:41:54Z</time>
      </trkpt>
      <trkpt lat="42.75115" lon="1.54082">
        <ele>1314.936</ele>
        <time>2021-03-06T13:41:56Z</time>
      </trkpt>
      <trkpt lat="42.75116" lon="1.54079">
        <ele>1313.914</ele>
        <time>2021-03-06T13:41:58Z</time>
      </trkpt>
      <trkpt lat="42.75117" lon="1.54076">
        <ele>1313.756</ele>
        <time>2021-03-06T13:42:00Z</time>
      </trkpt>
      <trkpt lat="42.75119" lon="1.54073">
        <ele>1313.612</ele>
        <time>2021-03-06T13:42:02Z</time>
      </trkpt>
      <trkpt lat="42.75119" lon="1.5407">
        <ele>1313.008</ele>
        <time>2021-03-06T13:42:04Z</time>
      </trkpt>
      <trkpt lat="42.75121" lon="1.54066">
        <ele>1313.353</ele>
        <time>2021-03-06T13:42:06Z</time>
      </trkpt>
      <trkpt lat="42.75121" lon="1.54061">
        <ele>1314.168</ele>
        <time>2021-03-06T13:42:08Z</time>
      </trkpt>
      <trkpt lat="42.75122" lon="1.54057">
        <ele>1314.353</ele>
        <time>2021-03-06T13:42:10Z</time>
      </trkpt>
      <trkpt lat="42.75123" lon="1.54053">
        <ele>1314.83</ele>
        <time>2021-03-06T13:42:12Z</time>
      </trkpt>
      <trkpt lat="42.75124" lon="1.5405">
        <ele>1314.97</ele>
        <time>2021-03-06T13:42:14Z</time>
      </trkpt>
      <trkpt lat="42.75125" lon="1.54047">
        <ele>1314.596</ele>
        <time>2021-03-06T13:42:16Z</time>
      </trkpt>
      <trkpt lat="42.75126" lon="1.54044">
        <ele>1312.918</ele>
        <time>2021-03-06T13:42:18Z</time>
      </trkpt>
      <trkpt lat="42.75127" lon="1.54041">
        <ele>1312.236</ele>
        <time>2021-03-06T13:42:20Z</time>
      </trkpt>
      <trkpt lat="42.75129" lon="1.54038">
        <ele>1311.843</ele>
        <time>2021-03-06T13:42:22Z</time>
      </trkpt>
      <trkpt lat="42.75129" lon="1.54035">
        <ele>1310.7</ele>
        <time>2021-03-06T13:42:24Z</time>
      </trkpt>
      <trkpt lat="42.75131" lon="1.54033">
        <ele>1309.795</ele>
        <time>2021-03-06T13:42:26Z</time>
      </trkpt>
      <trkpt lat="42.75132" lon="1.54031">
        <ele>1308.801</ele>
        <time>2021-03-06T13:42:28Z</time>
      </trkpt>
      <trkpt lat="42.75133" lon="1.54029">
        <ele>1308.083</ele>
        <time>2021-03-06T13:42:30Z</time>
      </trkpt>
      <trkpt lat="42.75135" lon="1.54026">
        <ele>1307.632</ele>
        <time>2021-03-06T13:42:32Z</time>
      </trkpt>
      <trkpt lat="42.75136" lon="1.54022">
        <ele>1308.703</ele>
        <time>2021-03-06T13:42:34Z</time>
      </trkpt>
      <trkpt lat="42.75136" lon="1.54018">
        <ele>1309.362</ele>
        <time>2021-03-06T13:42:36Z</time>
      </trkpt>
      <trkpt lat="42.75137" lon="1.54014">
        <ele>1310.84</ele>
        <time>2021-03-06T13:42:38Z</time>
      </trkpt>
      <trkpt lat="42.75138" lon="1.54009">
        <ele>1311.217</ele>
        <time>2021-03-06T13:42:40Z</time>
      </trkpt>
      <trkpt lat="42.75139" lon="1.54007">
        <ele>1312.191</ele>
        <time>2021-03-06T13:42:41Z</time>
      </trkpt>
      <trkpt lat="42.75149" lon="1.53995">
        <ele>1311.679</ele>
        <time>2021-03-06T13:42:51Z</time>
      </trkpt>
      <trkpt lat="42.75152" lon="1.53992">
        <ele>1311.473</ele>
        <time>2021-03-06T13:42:53Z</time>
      </trkpt>
      <trkpt lat="42.75154" lon="1.53988">
        <ele>1311.573</ele>
        <time>2021-03-06T13:42:55Z</time>
      </trkpt>
      <trkpt lat="42.75156" lon="1.53985">
        <ele>1313.555</ele>
        <time>2021-03-06T13:42:57Z</time>
      </trkpt>
      <trkpt lat="42.75159" lon="1.53982">
        <ele>1315.513</ele>
        <time>2021-03-06T13:42:59Z</time>
      </trkpt>
      <trkpt lat="42.75162" lon="1.53979">
        <ele>1316.268</ele>
        <time>2021-03-06T13:43:01Z</time>
      </trkpt>
      <trkpt lat="42.75165" lon="1.53976">
        <ele>1316.668</ele>
        <time>2021-03-06T13:43:03Z</time>
      </trkpt>
      <trkpt lat="42.75167" lon="1.53973">
        <ele>1317.693</ele>
        <time>2021-03-06T13:43:05Z</time>
      </trkpt>
      <trkpt lat="42.7517" lon="1.53971">
        <ele>1318.553</ele>
        <time>2021-03-06T13:43:07Z</time>
      </trkpt>
      <trkpt lat="42.75173" lon="1.53967">
        <ele>1318.058</ele>
        <time>2021-03-06T13:43:09Z</time>
      </trkpt>
      <trkpt lat="42.75175" lon="1.53963">
        <ele>1318.673</ele>
        <time>2021-03-06T13:43:11Z</time>
      </trkpt>
      <trkpt lat="42.75177" lon="1.5396">
        <ele>1318.996</ele>
        <time>2021-03-06T13:43:13Z</time>
      </trkpt>
      <trkpt lat="42.75179" lon="1.53956">
        <ele>1319.366</ele>
        <time>2021-03-06T13:43:15Z</time>
      </trkpt>
      <trkpt lat="42.75181" lon="1.53953">
        <ele>1321.507</ele>
        <time>2021-03-06T13:43:17Z</time>
      </trkpt>
      <trkpt lat="42.75184" lon="1.5395">
        <ele>1323.54</ele>
        <time>2021-03-06T13:43:19Z</time>
      </trkpt>
      <trkpt lat="42.75187" lon="1.53948">
        <ele>1324.166</ele>
        <time>2021-03-06T13:43:21Z</time>
      </trkpt>
      <trkpt lat="42.7519" lon="1.53946">
        <ele>1325.966</ele>
        <time>2021-03-06T13:43:23Z</time>
      </trkpt>
      <trkpt lat="42.75193" lon="1.53943">
        <ele>1326.63</ele>
        <time>2021-03-06T13:43:25Z</time>
      </trkpt>
      <trkpt lat="42.75194" lon="1.53941">
        <ele>1327.599</ele>
        <time>2021-03-06T13:43:27Z</time>
      </trkpt>
      <trkpt lat="42.75196" lon="1.53939">
        <ele>1328.315</ele>
        <time>2021-03-06T13:43:29Z</time>
      </trkpt>
      <trkpt lat="42.75199" lon="1.53937">
        <ele>1329.121</ele>
        <time>2021-03-06T13:43:31Z</time>
      </trkpt>
      <trkpt lat="42.75202" lon="1.53935">
        <ele>1328.984</ele>
        <time>2021-03-06T13:43:33Z</time>
      </trkpt>
      <trkpt lat="42.75206" lon="1.53933">
        <ele>1329.673</ele>
        <time>2021-03-06T13:43:35Z</time>
      </trkpt>
      <trkpt lat="42.75209" lon="1.53931">
        <ele>1329.334</ele>
        <time>2021-03-06T13:43:37Z</time>
      </trkpt>
      <trkpt lat="42.75211" lon="1.5393">
        <ele>1326.958</ele>
        <time>2021-03-06T13:43:39Z</time>
      </trkpt>
      <trkpt lat="42.75213" lon="1.53928">
        <ele>1327.116</ele>
        <time>2021-03-06T13:43:41Z</time>
      </trkpt>
      <trkpt lat="42.75216" lon="1.53926">
        <ele>1327.702</ele>
        <time>2021-03-06T13:43:43Z</time>
      </trkpt>
      <trkpt lat="42.75218" lon="1.53925">
        <ele>1327.955</ele>
        <time>2021-03-06T13:43:45Z</time>
      </trkpt>
      <trkpt lat="42.75221" lon="1.53923">
        <ele>1328.61</ele>
        <time>2021-03-06T13:43:47Z</time>
      </trkpt>
      <trkpt lat="42.75222" lon="1.53922">
        <ele>1328.323</ele>
        <time>2021-03-06T13:43:49Z</time>
      </trkpt>
      <trkpt lat="42.75224" lon="1.5392">
        <ele>1326.55</ele>
        <time>2021-03-06T13:43:51Z</time>
      </trkpt>
      <trkpt lat="42.75225" lon="1.53917">
        <ele>1326.437</ele>
        <time>2021-03-06T13:43:53Z</time>
      </trkpt>
      <trkpt lat="42.75228" lon="1.53916">
        <ele>1327.927</ele>
        <time>2021-03-06T13:43:55Z</time>
      </trkpt>
      <trkpt lat="42.75229" lon="1.53915">
        <ele>1328.699</ele>
        <time>2021-03-06T13:43:57Z</time>
      </trkpt>
      <trkpt lat="42.75232" lon="1.53913">
        <ele>1328.887</ele>
        <time>2021-03-06T13:43:59Z</time>
      </trkpt>
      <trkpt lat="42.75234" lon="1.53911">
        <ele>1329.356</ele>
        <time>2021-03-06T13:44:01Z</time>
      </trkpt>
      <trkpt lat="42.75236" lon="1.53909">
        <ele>1331.002</ele>
        <time>2021-03-06T13:44:03Z</time>
      </trkpt>
      <trkpt lat="42.75238" lon="1.53907">
        <ele>1331.274</ele>
        <time>2021-03-06T13:44:05Z</time>
      </trkpt>
      <trkpt lat="42.7524" lon="1.53906">
        <ele>1332.217</ele>
        <time>2021-03-06T13:44:07Z</time>
      </trkpt>
      <trkpt lat="42.75242" lon="1.53904">
        <ele>1331.097</ele>
        <time>2021-03-06T13:44:09Z</time>
      </trkpt>
      <trkpt lat="42.75244" lon="1.53901">
        <ele>1331.025</ele>
        <time>2021-03-06T13:44:11Z</time>
      </trkpt>
      <trkpt lat="42.75247" lon="1.53899">
        <ele>1330.659</ele>
        <time>2021-03-06T13:44:13Z</time>
      </trkpt>
      <trkpt lat="42.75249" lon="1.53898">
        <ele>1330.025</ele>
        <time>2021-03-06T13:44:15Z</time>
      </trkpt>
      <trkpt lat="42.75251" lon="1.53895">
        <ele>1330.251</ele>
        <time>2021-03-06T13:44:17Z</time>
      </trkpt>
      <trkpt lat="42.75252" lon="1.53893">
        <ele>1330.939</ele>
        <time>2021-03-06T13:44:19Z</time>
      </trkpt>
      <trkpt lat="42.75254" lon="1.5389">
        <ele>1331.032</ele>
        <time>2021-03-06T13:44:21Z</time>
      </trkpt>
      <trkpt lat="42.75256" lon="1.53888">
        <ele>1331.081</ele>
        <time>2021-03-06T13:44:23Z</time>
      </trkpt>
      <trkpt lat="42.75258" lon="1.53885">
        <ele>1330.31</ele>
        <time>2021-03-06T13:44:25Z</time>
      </trkpt>
      <trkpt lat="42.75259" lon="1.53882">
        <ele>1330.098</ele>
        <time>2021-03-06T13:44:27Z</time>
      </trkpt>
      <trkpt lat="42.75261" lon="1.5388">
        <ele>1330.311</ele>
        <time>2021-03-06T13:44:29Z</time>
      </trkpt>
      <trkpt lat="42.75263" lon="1.53878">
        <ele>1330.88</ele>
        <time>2021-03-06T13:44:31Z</time>
      </trkpt>
      <trkpt lat="42.75265" lon="1.53875">
        <ele>1331.147</ele>
        <time>2021-03-06T13:44:33Z</time>
      </trkpt>
      <trkpt lat="42.75267" lon="1.53873">
        <ele>1330.618</ele>
        <time>2021-03-06T13:44:35Z</time>
      </trkpt>
      <trkpt lat="42.75269" lon="1.5387">
        <ele>1330.402</ele>
        <time>2021-03-06T13:44:37Z</time>
      </trkpt>
      <trkpt lat="42.75271" lon="1.53868">
        <ele>1330.783</ele>
        <time>2021-03-06T13:44:39Z</time>
      </trkpt>
      <trkpt lat="42.75273" lon="1.53866">
        <ele>1330.201</ele>
        <time>2021-03-06T13:44:41Z</time>
      </trkpt>
      <trkpt lat="42.75274" lon="1.53863">
        <ele>1329.234</ele>
        <time>2021-03-06T13:44:43Z</time>
      </trkpt>
      <trkpt lat="42.75276" lon="1.53861">
        <ele>1328.348</ele>
        <time>2021-03-06T13:44:45Z</time>
      </trkpt>
      <trkpt lat="42.75279" lon="1.53859">
        <ele>1327.35</ele>
        <time>2021-03-06T13:44:47Z</time>
      </trkpt>
      <trkpt lat="42.75282" lon="1.53857">
        <ele>1328.035</ele>
        <time>2021-03-06T13:44:49Z</time>
      </trkpt>
      <trkpt lat="42.75284" lon="1.53856">
        <ele>1328.576</ele>
        <time>2021-03-06T13:44:51Z</time>
      </trkpt>
      <trkpt lat="42.75287" lon="1.53855">
        <ele>1329.554</ele>
        <time>2021-03-06T13:44:53Z</time>
      </trkpt>
      <trkpt lat="42.7529" lon="1.53854">
        <ele>1329.661</ele>
        <time>2021-03-06T13:44:55Z</time>
      </trkpt>
      <trkpt lat="42.75293" lon="1.53853">
        <ele>1330.587</ele>
        <time>2021-03-06T13:44:57Z</time>
      </trkpt>
      <trkpt lat="42.75295" lon="1.53851">
        <ele>1330.872</ele>
        <time>2021-03-06T13:44:59Z</time>
      </trkpt>
      <trkpt lat="42.75298" lon="1.53849">
        <ele>1330.465</ele>
        <time>2021-03-06T13:45:01Z</time>
      </trkpt>
      <trkpt lat="42.753" lon="1.53847">
        <ele>1331.303</ele>
        <time>2021-03-06T13:45:03Z</time>
      </trkpt>
      <trkpt lat="42.75302" lon="1.53845">
        <ele>1331.382</ele>
        <time>2021-03-06T13:45:05Z</time>
      </trkpt>
      <trkpt lat="42.75304" lon="1.53843">
        <ele>1331.466</ele>
        <time>2021-03-06T13:45:07Z</time>
      </trkpt>
      <trkpt lat="42.75307" lon="1.53841">
        <ele>1332.064</ele>
        <time>2021-03-06T13:45:09Z</time>
      </trkpt>
      <trkpt lat="42.75309" lon="1.53839">
        <ele>1331.72</ele>
        <time>2021-03-06T13:45:11Z</time>
      </trkpt>
      <trkpt lat="42.75311" lon="1.53839">
        <ele>1331.167</ele>
        <time>2021-03-06T13:45:13Z</time>
      </trkpt>
      <trkpt lat="42.75313" lon="1.53838">
        <ele>1332.228</ele>
        <time>2021-03-06T13:45:15Z</time>
      </trkpt>
      <trkpt lat="42.75315" lon="1.53834">
        <ele>1333.635</ele>
        <time>2021-03-06T13:45:17Z</time>
      </trkpt>
      <trkpt lat="42.75313" lon="1.53832">
        <ele>1334.54</ele>
        <time>2021-03-06T13:45:19Z</time>
      </trkpt>
      <trkpt lat="42.75312" lon="1.53833">
        <ele>1334.881</ele>
        <time>2021-03-06T13:45:21Z</time>
      </trkpt>
      <trkpt lat="42.75312" lon="1.53832">
        <ele>1334.653</ele>
        <time>2021-03-06T13:45:23Z</time>
      </trkpt>
      <trkpt lat="42.75313" lon="1.53832">
        <ele>1334.603</ele>
        <time>2021-03-06T13:45:25Z</time>
      </trkpt>
      <trkpt lat="42.75313" lon="1.53832">
        <ele>1334.605</ele>
        <time>2021-03-06T13:45:27Z</time>
      </trkpt>
      <trkpt lat="42.75313" lon="1.53832">
        <ele>1334.606</ele>
        <time>2021-03-06T13:45:29Z</time>
      </trkpt>
      <trkpt lat="42.75312" lon="1.53832">
        <ele>1334.252</ele>
        <time>2021-03-06T13:45:31Z</time>
      </trkpt>
      <trkpt lat="42.75312" lon="1.53832">
        <ele>1333.947</ele>
        <time>2021-03-06T13:45:33Z</time>
      </trkpt>
      <trkpt lat="42.75312" lon="1.53831">
        <ele>1334.074</ele>
        <time>2021-03-06T13:45:35Z</time>
      </trkpt>
      <trkpt lat="42.75312" lon="1.53828">
        <ele>1333.695</ele>
        <time>2021-03-06T13:45:37Z</time>
      </trkpt>
      <trkpt lat="42.75313" lon="1.53826">
        <ele>1334.046</ele>
        <time>2021-03-06T13:45:39Z</time>
      </trkpt>
      <trkpt lat="42.75315" lon="1.53823">
        <ele>1333.399</ele>
        <time>2021-03-06T13:45:41Z</time>
      </trkpt>
      <trkpt lat="42.75317" lon="1.53821">
        <ele>1333.564</ele>
        <time>2021-03-06T13:45:43Z</time>
      </trkpt>
      <trkpt lat="42.75319" lon="1.5382">
        <ele>1333.13</ele>
        <time>2021-03-06T13:45:45Z</time>
      </trkpt>
      <trkpt lat="42.75321" lon="1.53818">
        <ele>1333.179</ele>
        <time>2021-03-06T13:45:47Z</time>
      </trkpt>
      <trkpt lat="42.75323" lon="1.53816">
        <ele>1332.83</ele>
        <time>2021-03-06T13:45:49Z</time>
      </trkpt>
      <trkpt lat="42.75324" lon="1.53814">
        <ele>1332.919</ele>
        <time>2021-03-06T13:45:51Z</time>
      </trkpt>
      <trkpt lat="42.75326" lon="1.53812">
        <ele>1332.138</ele>
        <time>2021-03-06T13:45:53Z</time>
      </trkpt>
      <trkpt lat="42.75328" lon="1.5381">
        <ele>1332.621</ele>
        <time>2021-03-06T13:45:55Z</time>
      </trkpt>
      <trkpt lat="42.7533" lon="1.53808">
        <ele>1332.927</ele>
        <time>2021-03-06T13:45:57Z</time>
      </trkpt>
      <trkpt lat="42.75332" lon="1.53806">
        <ele>1333.136</ele>
        <time>2021-03-06T13:45:59Z</time>
      </trkpt>
      <trkpt lat="42.75334" lon="1.53805">
        <ele>1334.12</ele>
        <time>2021-03-06T13:46:01Z</time>
      </trkpt>
      <trkpt lat="42.75336" lon="1.53802">
        <ele>1334.345</ele>
        <time>2021-03-06T13:46:03Z</time>
      </trkpt>
      <trkpt lat="42.75338" lon="1.53799">
        <ele>1333.285</ele>
        <time>2021-03-06T13:46:05Z</time>
      </trkpt>
      <trkpt lat="42.7534" lon="1.53797">
        <ele>1332.568</ele>
        <time>2021-03-06T13:46:07Z</time>
      </trkpt>
      <trkpt lat="42.75342" lon="1.53795">
        <ele>1333.211</ele>
        <time>2021-03-06T13:46:09Z</time>
      </trkpt>
      <trkpt lat="42.75343" lon="1.53793">
        <ele>1333.172</ele>
        <time>2021-03-06T13:46:11Z</time>
      </trkpt>
      <trkpt lat="42.75345" lon="1.5379">
        <ele>1332.745</ele>
        <time>2021-03-06T13:46:13Z</time>
      </trkpt>
      <trkpt lat="42.75347" lon="1.53788">
        <ele>1333.36</ele>
        <time>2021-03-06T13:46:15Z</time>
      </trkpt>
      <trkpt lat="42.75349" lon="1.53786">
        <ele>1334.504</ele>
        <time>2021-03-06T13:46:17Z</time>
      </trkpt>
      <trkpt lat="42.7535" lon="1.53786">
        <ele>1334.739</ele>
        <time>2021-03-06T13:46:19Z</time>
      </trkpt>
      <trkpt lat="42.7535" lon="1.53786">
        <ele>1334.744</ele>
        <time>2021-03-06T13:46:21Z</time>
      </trkpt>
      <trkpt lat="42.7535" lon="1.53786">
        <ele>1334.42</ele>
        <time>2021-03-06T13:46:23Z</time>
      </trkpt>
      <trkpt lat="42.7535" lon="1.53785">
        <ele>1331.556</ele>
        <time>2021-03-06T13:46:25Z</time>
      </trkpt>
      <trkpt lat="42.7535" lon="1.53785">
        <ele>1332.047</ele>
        <time>2021-03-06T13:46:27Z</time>
      </trkpt>
      <trkpt lat="42.75349" lon="1.53786">
        <ele>1331.877</ele>
        <time>2021-03-06T13:46:29Z</time>
      </trkpt>
      <trkpt lat="42.7535" lon="1.53786">
        <ele>1331.958</ele>
        <time>2021-03-06T13:46:31Z</time>
      </trkpt>
      <trkpt lat="42.7535" lon="1.53785">
        <ele>1331.939</ele>
        <time>2021-03-06T13:46:33Z</time>
      </trkpt>
      <trkpt lat="42.75351" lon="1.53783">
        <ele>1331.178</ele>
        <time>2021-03-06T13:46:35Z</time>
      </trkpt>
      <trkpt lat="42.75352" lon="1.53781">
        <ele>1330.805</ele>
        <time>2021-03-06T13:46:37Z</time>
      </trkpt>
      <trkpt lat="42.75354" lon="1.53779">
        <ele>1330.788</ele>
        <time>2021-03-06T13:46:39Z</time>
      </trkpt>
      <trkpt lat="42.75355" lon="1.53777">
        <ele>1330.388</ele>
        <time>2021-03-06T13:46:41Z</time>
      </trkpt>
      <trkpt lat="42.75357" lon="1.53774">
        <ele>1330.921</ele>
        <time>2021-03-06T13:46:43Z</time>
      </trkpt>
      <trkpt lat="42.75359" lon="1.53771">
        <ele>1330.07</ele>
        <time>2021-03-06T13:46:45Z</time>
      </trkpt>
      <trkpt lat="42.7536" lon="1.53768">
        <ele>1330.468</ele>
        <time>2021-03-06T13:46:47Z</time>
      </trkpt>
      <trkpt lat="42.75362" lon="1.53765">
        <ele>1330.084</ele>
        <time>2021-03-06T13:46:49Z</time>
      </trkpt>
      <trkpt lat="42.75364" lon="1.53762">
        <ele>1330.097</ele>
        <time>2021-03-06T13:46:51Z</time>
      </trkpt>
      <trkpt lat="42.75364" lon="1.53759">
        <ele>1329.794</ele>
        <time>2021-03-06T13:46:53Z</time>
      </trkpt>
      <trkpt lat="42.75364" lon="1.53756">
        <ele>1328.88</ele>
        <time>2021-03-06T13:46:55Z</time>
      </trkpt>
      <trkpt lat="42.75366" lon="1.53754">
        <ele>1328.181</ele>
        <time>2021-03-06T13:46:57Z</time>
      </trkpt>
      <trkpt lat="42.75366" lon="1.53751">
        <ele>1327.721</ele>
        <time>2021-03-06T13:46:59Z</time>
      </trkpt>
      <trkpt lat="42.75366" lon="1.53748">
        <ele>1326.872</ele>
        <time>2021-03-06T13:47:01Z</time>
      </trkpt>
      <trkpt lat="42.75366" lon="1.53745">
        <ele>1326.631</ele>
        <time>2021-03-06T13:47:03Z</time>
      </trkpt>
      <trkpt lat="42.75367" lon="1.53743">
        <ele>1326.692</ele>
        <time>2021-03-06T13:47:05Z</time>
      </trkpt>
      <trkpt lat="42.75369" lon="1.5374">
        <ele>1326.916</ele>
        <time>2021-03-06T13:47:07Z</time>
      </trkpt>
      <trkpt lat="42.7537" lon="1.53737">
        <ele>1325.885</ele>
        <time>2021-03-06T13:47:09Z</time>
      </trkpt>
      <trkpt lat="42.75371" lon="1.53736">
        <ele>1326.397</ele>
        <time>2021-03-06T13:47:11Z</time>
      </trkpt>
      <trkpt lat="42.75372" lon="1.53734">
        <ele>1327.767</ele>
        <time>2021-03-06T13:47:13Z</time>
      </trkpt>
      <trkpt lat="42.75374" lon="1.53734">
        <ele>1329.137</ele>
        <time>2021-03-06T13:47:15Z</time>
      </trkpt>
      <trkpt lat="42.75375" lon="1.53733">
        <ele>1328.353</ele>
        <time>2021-03-06T13:47:17Z</time>
      </trkpt>
      <trkpt lat="42.75375" lon="1.53733">
        <ele>1328.364</ele>
        <time>2021-03-06T13:47:19Z</time>
      </trkpt>
      <trkpt lat="42.75374" lon="1.53734">
        <ele>1328.743</ele>
        <time>2021-03-06T13:47:21Z</time>
      </trkpt>
      <trkpt lat="42.75373" lon="1.53735">
        <ele>1327.911</ele>
        <time>2021-03-06T13:47:23Z</time>
      </trkpt>
      <trkpt lat="42.75372" lon="1.5374">
        <ele>1329.074</ele>
        <time>2021-03-06T13:47:25Z</time>
      </trkpt>
      <trkpt lat="42.75371" lon="1.53742">
        <ele>1329.35</ele>
        <time>2021-03-06T13:47:27Z</time>
      </trkpt>
      <trkpt lat="42.75371" lon="1.53742">
        <ele>1329.216</ele>
        <time>2021-03-06T13:47:29Z</time>
      </trkpt>
      <trkpt lat="42.75371" lon="1.53742">
        <ele>1329.219</ele>
        <time>2021-03-06T13:47:31Z</time>
      </trkpt>
      <trkpt lat="42.75371" lon="1.53743">
        <ele>1329.729</ele>
        <time>2021-03-06T13:47:33Z</time>
      </trkpt>
      <trkpt lat="42.75371" lon="1.53743">
        <ele>1329.719</ele>
        <time>2021-03-06T13:47:35Z</time>
      </trkpt>
      <trkpt lat="42.75371" lon="1.53743">
        <ele>1329.724</ele>
        <time>2021-03-06T13:47:37Z</time>
      </trkpt>
      <trkpt lat="42.75371" lon="1.53743">
        <ele>1329.736</ele>
        <time>2021-03-06T13:47:39Z</time>
      </trkpt>
      <trkpt lat="42.7537" lon="1.53744">
        <ele>1330.114</ele>
        <time>2021-03-06T13:47:41Z</time>
      </trkpt>
      <trkpt lat="42.7537" lon="1.53744">
        <ele>1330.375</ele>
        <time>2021-03-06T13:47:43Z</time>
      </trkpt>
      <trkpt lat="42.75371" lon="1.53743">
        <ele>1330.01</ele>
        <time>2021-03-06T13:47:45Z</time>
      </trkpt>
      <trkpt lat="42.75371" lon="1.53742">
        <ele>1329.563</ele>
        <time>2021-03-06T13:47:47Z</time>
      </trkpt>
      <trkpt lat="42.75371" lon="1.53742">
        <ele>1329.648</ele>
        <time>2021-03-06T13:47:49Z</time>
      </trkpt>
      <trkpt lat="42.75371" lon="1.53742">
        <ele>1329.31</ele>
        <time>2021-03-06T13:47:51Z</time>
      </trkpt>
      <trkpt lat="42.75371" lon="1.53742">
        <ele>1329.317</ele>
        <time>2021-03-06T13:47:53Z</time>
      </trkpt>
      <trkpt lat="42.75372" lon="1.53741">
        <ele>1328.753</ele>
        <time>2021-03-06T13:47:55Z</time>
      </trkpt>
      <trkpt lat="42.75373" lon="1.5374">
        <ele>1327.961</ele>
        <time>2021-03-06T13:47:57Z</time>
      </trkpt>
      <trkpt lat="42.75373" lon="1.53736">
        <ele>1326.759</ele>
        <time>2021-03-06T13:47:59Z</time>
      </trkpt>
      <trkpt lat="42.75373" lon="1.53733">
        <ele>1326.042</ele>
        <time>2021-03-06T13:48:01Z</time>
      </trkpt>
      <trkpt lat="42.75375" lon="1.53733">
        <ele>1325.746</ele>
        <time>2021-03-06T13:48:03Z</time>
      </trkpt>
      <trkpt lat="42.75376" lon="1.53734">
        <ele>1327.066</ele>
        <time>2021-03-06T13:48:05Z</time>
      </trkpt>
      <trkpt lat="42.75377" lon="1.53734">
        <ele>1327.685</ele>
        <time>2021-03-06T13:48:07Z</time>
      </trkpt>
      <trkpt lat="42.75377" lon="1.53734">
        <ele>1327.693</ele>
        <time>2021-03-06T13:48:09Z</time>
      </trkpt>
      <trkpt lat="42.75377" lon="1.53734">
        <ele>1327.698</ele>
        <time>2021-03-06T13:48:11Z</time>
      </trkpt>
      <trkpt lat="42.75377" lon="1.53733">
        <ele>1327.605</ele>
        <time>2021-03-06T13:48:13Z</time>
      </trkpt>
      <trkpt lat="42.75377" lon="1.53732">
        <ele>1327.154</ele>
        <time>2021-03-06T13:48:15Z</time>
      </trkpt>
      <trkpt lat="42.75382" lon="1.53731">
        <ele>1331.212</ele>
        <time>2021-03-06T13:48:17Z</time>
      </trkpt>
      <trkpt lat="42.75383" lon="1.53728">
        <ele>1330.629</ele>
        <time>2021-03-06T13:48:19Z</time>
      </trkpt>
      <trkpt lat="42.75384" lon="1.53726">
        <ele>1330.147</ele>
        <time>2021-03-06T13:48:21Z</time>
      </trkpt>
      <trkpt lat="42.75385" lon="1.53724">
        <ele>1330.126</ele>
        <time>2021-03-06T13:48:23Z</time>
      </trkpt>
      <trkpt lat="42.75387" lon="1.53729">
        <ele>1333.318</ele>
        <time>2021-03-06T13:48:25Z</time>
      </trkpt>
      <trkpt lat="42.75385" lon="1.53733">
        <ele>1333.179</ele>
        <time>2021-03-06T13:48:27Z</time>
      </trkpt>
      <trkpt lat="42.75382" lon="1.53734">
        <ele>1330.93</ele>
        <time>2021-03-06T13:48:29Z</time>
      </trkpt>
      <trkpt lat="42.75381" lon="1.53737">
        <ele>1330.363</ele>
        <time>2021-03-06T13:48:31Z</time>
      </trkpt>
      <trkpt lat="42.7538" lon="1.53739">
        <ele>1332.022</ele>
        <time>2021-03-06T13:48:33Z</time>
      </trkpt>
      <trkpt lat="42.7538" lon="1.53741">
        <ele>1331.725</ele>
        <time>2021-03-06T13:48:35Z</time>
      </trkpt>
      <trkpt lat="42.7538" lon="1.53743">
        <ele>1333.54</ele>
        <time>2021-03-06T13:48:37Z</time>
      </trkpt>
      <trkpt lat="42.7538" lon="1.53742">
        <ele>1332.748</ele>
        <time>2021-03-06T13:48:39Z</time>
      </trkpt>
      <trkpt lat="42.7538" lon="1.53742">
        <ele>1332.742</ele>
        <time>2021-03-06T13:48:41Z</time>
      </trkpt>
      <trkpt lat="42.7538" lon="1.53742">
        <ele>1332.735</ele>
        <time>2021-03-06T13:48:43Z</time>
      </trkpt>
      <trkpt lat="42.7538" lon="1.53742">
        <ele>1332.741</ele>
        <time>2021-03-06T13:48:45Z</time>
      </trkpt>
      <trkpt lat="42.7538" lon="1.53742">
        <ele>1332.747</ele>
        <time>2021-03-06T13:48:47Z</time>
      </trkpt>
      <trkpt lat="42.7538" lon="1.53742">
        <ele>1332.754</ele>
        <time>2021-03-06T13:48:49Z</time>
      </trkpt>
      <trkpt lat="42.7538" lon="1.53742">
        <ele>1332.762</ele>
        <time>2021-03-06T13:48:51Z</time>
      </trkpt>
      <trkpt lat="42.7538" lon="1.53742">
        <ele>1332.772</ele>
        <time>2021-03-06T13:48:53Z</time>
      </trkpt>
      <trkpt lat="42.75379" lon="1.53743">
        <ele>1333.091</ele>
        <time>2021-03-06T13:48:55Z</time>
      </trkpt>
      <trkpt lat="42.75379" lon="1.53743">
        <ele>1333.091</ele>
        <time>2021-03-06T13:48:57Z</time>
      </trkpt>
      <trkpt lat="42.75379" lon="1.53743">
        <ele>1333.091</ele>
        <time>2021-03-06T13:48:59Z</time>
      </trkpt>
      <trkpt lat="42.75379" lon="1.53742">
        <ele>1333.506</ele>
        <time>2021-03-06T13:49:01Z</time>
      </trkpt>
      <trkpt lat="42.75379" lon="1.53742">
        <ele>1333.491</ele>
        <time>2021-03-06T13:49:03Z</time>
      </trkpt>
      <trkpt lat="42.75379" lon="1.53742">
        <ele>1333.635</ele>
        <time>2021-03-06T13:49:05Z</time>
      </trkpt>
      <trkpt lat="42.75379" lon="1.53742">
        <ele>1333.635</ele>
        <time>2021-03-06T13:49:07Z</time>
      </trkpt>
      <trkpt lat="42.75379" lon="1.53742">
        <ele>1333.637</ele>
        <time>2021-03-06T13:49:09Z</time>
      </trkpt>
      <trkpt lat="42.75379" lon="1.53743">
        <ele>1333.205</ele>
        <time>2021-03-06T13:49:11Z</time>
      </trkpt>
      <trkpt lat="42.75379" lon="1.53742">
        <ele>1333.23</ele>
        <time>2021-03-06T13:49:13Z</time>
      </trkpt>
      <trkpt lat="42.75379" lon="1.53742">
        <ele>1333.223</ele>
        <time>2021-03-06T13:49:15Z</time>
      </trkpt>
      <trkpt lat="42.75379" lon="1.53742">
        <ele>1333.222</ele>
        <time>2021-03-06T13:49:17Z</time>
      </trkpt>
      <trkpt lat="42.75379" lon="1.53742">
        <ele>1333.216</ele>
        <time>2021-03-06T13:49:19Z</time>
      </trkpt>
      <trkpt lat="42.75379" lon="1.53742">
        <ele>1333.211</ele>
        <time>2021-03-06T13:49:21Z</time>
      </trkpt>
      <trkpt lat="42.75379" lon="1.53742">
        <ele>1332.953</ele>
        <time>2021-03-06T13:49:23Z</time>
      </trkpt>
      <trkpt lat="42.75379" lon="1.53742">
        <ele>1332.169</ele>
        <time>2021-03-06T13:49:25Z</time>
      </trkpt>
      <trkpt lat="42.75379" lon="1.53742">
        <ele>1332.12</ele>
        <time>2021-03-06T13:49:27Z</time>
      </trkpt>
      <trkpt lat="42.75378" lon="1.53741">
        <ele>1332.127</ele>
        <time>2021-03-06T13:49:29Z</time>
      </trkpt>
      <trkpt lat="42.75378" lon="1.53741">
        <ele>1332.135</ele>
        <time>2021-03-06T13:49:31Z</time>
      </trkpt>
      <trkpt lat="42.75378" lon="1.53741">
        <ele>1332.14</ele>
        <time>2021-03-06T13:49:33Z</time>
      </trkpt>
      <trkpt lat="42.75378" lon="1.53741">
        <ele>1332.134</ele>
        <time>2021-03-06T13:49:35Z</time>
      </trkpt>
      <trkpt lat="42.75378" lon="1.53741">
        <ele>1332.139</ele>
        <time>2021-03-06T13:49:37Z</time>
      </trkpt>
      <trkpt lat="42.75378" lon="1.53741">
        <ele>1332.144</ele>
        <time>2021-03-06T13:49:39Z</time>
      </trkpt>
      <trkpt lat="42.75378" lon="1.53741">
        <ele>1332.141</ele>
        <time>2021-03-06T13:49:41Z</time>
      </trkpt>
      <trkpt lat="42.75378" lon="1.53741">
        <ele>1332.146</ele>
        <time>2021-03-06T13:49:43Z</time>
      </trkpt>
      <trkpt lat="42.75378" lon="1.53741">
        <ele>1332.146</ele>
        <time>2021-03-06T13:49:45Z</time>
      </trkpt>
      <trkpt lat="42.75378" lon="1.53741">
        <ele>1332.148</ele>
        <time>2021-03-06T13:49:47Z</time>
      </trkpt>
      <trkpt lat="42.75378" lon="1.53741">
        <ele>1332.096</ele>
        <time>2021-03-06T13:49:49Z</time>
      </trkpt>
      <trkpt lat="42.75378" lon="1.53741">
        <ele>1332.123</ele>
        <time>2021-03-06T13:49:51Z</time>
      </trkpt>
      <trkpt lat="42.75378" lon="1.53741">
        <ele>1332.121</ele>
        <time>2021-03-06T13:49:53Z</time>
      </trkpt>
      <trkpt lat="42.75378" lon="1.5374">
        <ele>1332.127</ele>
        <time>2021-03-06T13:49:55Z</time>
      </trkpt>
      <trkpt lat="42.75378" lon="1.5374">
        <ele>1332.12</ele>
        <time>2021-03-06T13:49:57Z</time>
      </trkpt>
      <trkpt lat="42.75378" lon="1.5374">
        <ele>1332.119</ele>
        <time>2021-03-06T13:49:59Z</time>
      </trkpt>
      <trkpt lat="42.75378" lon="1.5374">
        <ele>1332.11</ele>
        <time>2021-03-06T13:50:01Z</time>
      </trkpt>
      <trkpt lat="42.75378" lon="1.5374">
        <ele>1332.112</ele>
        <time>2021-03-06T13:50:03Z</time>
      </trkpt>
      <trkpt lat="42.75378" lon="1.5374">
        <ele>1332.116</ele>
        <time>2021-03-06T13:50:05Z</time>
      </trkpt>
      <trkpt lat="42.75378" lon="1.5374">
        <ele>1332.126</ele>
        <time>2021-03-06T13:50:07Z</time>
      </trkpt>
      <trkpt lat="42.75378" lon="1.5374">
        <ele>1332.129</ele>
        <time>2021-03-06T13:50:09Z</time>
      </trkpt>
      <trkpt lat="42.75378" lon="1.5374">
        <ele>1332.128</ele>
        <time>2021-03-06T13:50:11Z</time>
      </trkpt>
      <trkpt lat="42.75378" lon="1.5374">
        <ele>1332.167</ele>
        <time>2021-03-06T13:50:13Z</time>
      </trkpt>
      <trkpt lat="42.75378" lon="1.5374">
        <ele>1332.175</ele>
        <time>2021-03-06T13:50:15Z</time>
      </trkpt>
      <trkpt lat="42.75378" lon="1.5374">
        <ele>1332.18</ele>
        <time>2021-03-06T13:50:17Z</time>
      </trkpt>
      <trkpt lat="42.75378" lon="1.5374">
        <ele>1332.184</ele>
        <time>2021-03-06T13:50:19Z</time>
      </trkpt>
      <trkpt lat="42.75378" lon="1.5374">
        <ele>1332.186</ele>
        <time>2021-03-06T13:50:21Z</time>
      </trkpt>
      <trkpt lat="42.75378" lon="1.53738">
        <ele>1332.551</ele>
        <time>2021-03-06T13:50:23Z</time>
      </trkpt>
      <trkpt lat="42.75379" lon="1.53737">
        <ele>1333.375</ele>
        <time>2021-03-06T13:50:25Z</time>
      </trkpt>
      <trkpt lat="42.75379" lon="1.53738">
        <ele>1333.623</ele>
        <time>2021-03-06T13:50:27Z</time>
      </trkpt>
      <trkpt lat="42.75379" lon="1.53737">
        <ele>1333.556</ele>
        <time>2021-03-06T13:50:29Z</time>
      </trkpt>
      <trkpt lat="42.75379" lon="1.53737">
        <ele>1333.563</ele>
        <time>2021-03-06T13:50:31Z</time>
      </trkpt>
      <trkpt lat="42.75379" lon="1.53737">
        <ele>1333.577</ele>
        <time>2021-03-06T13:50:33Z</time>
      </trkpt>
      <trkpt lat="42.75379" lon="1.53738">
        <ele>1333.651</ele>
        <time>2021-03-06T13:50:35Z</time>
      </trkpt>
      <trkpt lat="42.75379" lon="1.53738">
        <ele>1333.644</ele>
        <time>2021-03-06T13:50:37Z</time>
      </trkpt>
      <trkpt lat="42.75379" lon="1.53738">
        <ele>1333.821</ele>
        <time>2021-03-06T13:50:39Z</time>
      </trkpt>
      <trkpt lat="42.75379" lon="1.53738">
        <ele>1333.944</ele>
        <time>2021-03-06T13:50:41Z</time>
      </trkpt>
      <trkpt lat="42.75378" lon="1.53738">
        <ele>1333.626</ele>
        <time>2021-03-06T13:50:43Z</time>
      </trkpt>
      <trkpt lat="42.75378" lon="1.53738">
        <ele>1333.623</ele>
        <time>2021-03-06T13:50:45Z</time>
      </trkpt>
      <trkpt lat="42.75378" lon="1.53738">
        <ele>1333.607</ele>
        <time>2021-03-06T13:50:47Z</time>
      </trkpt>
      <trkpt lat="42.75378" lon="1.53738">
        <ele>1333.607</ele>
        <time>2021-03-06T13:50:49Z</time>
      </trkpt>
      <trkpt lat="42.75378" lon="1.53738">
        <ele>1333.609</ele>
        <time>2021-03-06T13:50:51Z</time>
      </trkpt>
      <trkpt lat="42.75378" lon="1.53738">
        <ele>1333.602</ele>
        <time>2021-03-06T13:50:53Z</time>
      </trkpt>
      <trkpt lat="42.75378" lon="1.53738">
        <ele>1333.603</ele>
        <time>2021-03-06T13:50:55Z</time>
      </trkpt>
      <trkpt lat="42.75378" lon="1.53738">
        <ele>1332.92</ele>
        <time>2021-03-06T13:50:57Z</time>
      </trkpt>
      <trkpt lat="42.75377" lon="1.53738">
        <ele>1332.932</ele>
        <time>2021-03-06T13:50:59Z</time>
      </trkpt>
      <trkpt lat="42.75377" lon="1.53738">
        <ele>1332.934</ele>
        <time>2021-03-06T13:51:01Z</time>
      </trkpt>
      <trkpt lat="42.75378" lon="1.53737">
        <ele>1332.883</ele>
        <time>2021-03-06T13:51:03Z</time>
      </trkpt>
      <trkpt lat="42.75378" lon="1.53736">
        <ele>1332.691</ele>
        <time>2021-03-06T13:51:05Z</time>
      </trkpt>
      <trkpt lat="42.75379" lon="1.53735">
        <ele>1333.155</ele>
        <time>2021-03-06T13:51:07Z</time>
      </trkpt>
      <trkpt lat="42.7538" lon="1.53732">
        <ele>1333.71</ele>
        <time>2021-03-06T13:51:09Z</time>
      </trkpt>
      <trkpt lat="42.7538" lon="1.53729">
        <ele>1332.579</ele>
        <time>2021-03-06T13:51:11Z</time>
      </trkpt>
      <trkpt lat="42.75382" lon="1.53727">
        <ele>1334.37</ele>
        <time>2021-03-06T13:51:13Z</time>
      </trkpt>
      <trkpt lat="42.75383" lon="1.53724">
        <ele>1334.802</ele>
        <time>2021-03-06T13:51:15Z</time>
      </trkpt>
      <trkpt lat="42.75385" lon="1.53722">
        <ele>1334.627</ele>
        <time>2021-03-06T13:51:17Z</time>
      </trkpt>
      <trkpt lat="42.75386" lon="1.53719">
        <ele>1334.228</ele>
        <time>2021-03-06T13:51:19Z</time>
      </trkpt>
      <trkpt lat="42.75389" lon="1.53716">
        <ele>1336.016</ele>
        <time>2021-03-06T13:51:21Z</time>
      </trkpt>
      <trkpt lat="42.7539" lon="1.53715">
        <ele>1334.905</ele>
        <time>2021-03-06T13:51:23Z</time>
      </trkpt>
      <trkpt lat="42.75392" lon="1.53712">
        <ele>1335.003</ele>
        <time>2021-03-06T13:51:25Z</time>
      </trkpt>
      <trkpt lat="42.75395" lon="1.5371">
        <ele>1334.255</ele>
        <time>2021-03-06T13:51:27Z</time>
      </trkpt>
      <trkpt lat="42.75397" lon="1.53708">
        <ele>1333.038</ele>
        <time>2021-03-06T13:51:29Z</time>
      </trkpt>
      <trkpt lat="42.75397" lon="1.53705">
        <ele>1330.285</ele>
        <time>2021-03-06T13:51:31Z</time>
      </trkpt>
      <trkpt lat="42.75397" lon="1.53701">
        <ele>1328.252</ele>
        <time>2021-03-06T13:51:33Z</time>
      </trkpt>
      <trkpt lat="42.75397" lon="1.537">
        <ele>1325.854</ele>
        <time>2021-03-06T13:51:35Z</time>
      </trkpt>
      <trkpt lat="42.75399" lon="1.53698">
        <ele>1326.959</ele>
        <time>2021-03-06T13:51:37Z</time>
      </trkpt>
      <trkpt lat="42.75401" lon="1.53698">
        <ele>1327.154</ele>
        <time>2021-03-06T13:51:39Z</time>
      </trkpt>
      <trkpt lat="42.75403" lon="1.53697">
        <ele>1326.308</ele>
        <time>2021-03-06T13:51:41Z</time>
      </trkpt>
      <trkpt lat="42.75405" lon="1.53697">
        <ele>1326.069</ele>
        <time>2021-03-06T13:51:43Z</time>
      </trkpt>
      <trkpt lat="42.75408" lon="1.53697">
        <ele>1326.256</ele>
        <time>2021-03-06T13:51:45Z</time>
      </trkpt>
      <trkpt lat="42.7541" lon="1.53696">
        <ele>1326.015</ele>
        <time>2021-03-06T13:51:47Z</time>
      </trkpt>
      <trkpt lat="42.75412" lon="1.53695">
        <ele>1326.827</ele>
        <time>2021-03-06T13:51:49Z</time>
      </trkpt>
      <trkpt lat="42.75415" lon="1.53693">
        <ele>1327.054</ele>
        <time>2021-03-06T13:51:51Z</time>
      </trkpt>
      <trkpt lat="42.75416" lon="1.53691">
        <ele>1326.349</ele>
        <time>2021-03-06T13:51:53Z</time>
      </trkpt>
      <trkpt lat="42.75419" lon="1.53689">
        <ele>1328.823</ele>
        <time>2021-03-06T13:51:55Z</time>
      </trkpt>
      <trkpt lat="42.75421" lon="1.53688">
        <ele>1329.368</ele>
        <time>2021-03-06T13:51:57Z</time>
      </trkpt>
      <trkpt lat="42.75423" lon="1.53687">
        <ele>1330.592</ele>
        <time>2021-03-06T13:51:59Z</time>
      </trkpt>
      <trkpt lat="42.75426" lon="1.53687">
        <ele>1329.44</ele>
        <time>2021-03-06T13:52:01Z</time>
      </trkpt>
      <trkpt lat="42.75428" lon="1.53686">
        <ele>1328.993</ele>
        <time>2021-03-06T13:52:03Z</time>
      </trkpt>
      <trkpt lat="42.75431" lon="1.53686">
        <ele>1329.363</ele>
        <time>2021-03-06T13:52:05Z</time>
      </trkpt>
      <trkpt lat="42.75433" lon="1.53686">
        <ele>1329.525</ele>
        <time>2021-03-06T13:52:07Z</time>
      </trkpt>
      <trkpt lat="42.75435" lon="1.53686">
        <ele>1329.38</ele>
        <time>2021-03-06T13:52:09Z</time>
      </trkpt>
      <trkpt lat="42.75438" lon="1.53686">
        <ele>1328.864</ele>
        <time>2021-03-06T13:52:11Z</time>
      </trkpt>
      <trkpt lat="42.75441" lon="1.53687">
        <ele>1328.007</ele>
        <time>2021-03-06T13:52:13Z</time>
      </trkpt>
      <trkpt lat="42.75443" lon="1.53689">
        <ele>1327.19</ele>
        <time>2021-03-06T13:52:15Z</time>
      </trkpt>
      <trkpt lat="42.75445" lon="1.53691">
        <ele>1326.796</ele>
        <time>2021-03-06T13:52:17Z</time>
      </trkpt>
      <trkpt lat="42.75447" lon="1.53692">
        <ele>1326.533</ele>
        <time>2021-03-06T13:52:19Z</time>
      </trkpt>
      <trkpt lat="42.7545" lon="1.53694">
        <ele>1326.175</ele>
        <time>2021-03-06T13:52:21Z</time>
      </trkpt>
      <trkpt lat="42.75452" lon="1.53695">
        <ele>1326.263</ele>
        <time>2021-03-06T13:52:23Z</time>
      </trkpt>
      <trkpt lat="42.75454" lon="1.53697">
        <ele>1325.705</ele>
        <time>2021-03-06T13:52:25Z</time>
      </trkpt>
      <trkpt lat="42.75457" lon="1.53698">
        <ele>1324.943</ele>
        <time>2021-03-06T13:52:27Z</time>
      </trkpt>
      <trkpt lat="42.7546" lon="1.537">
        <ele>1324.669</ele>
        <time>2021-03-06T13:52:29Z</time>
      </trkpt>
      <trkpt lat="42.75463" lon="1.53701">
        <ele>1324.583</ele>
        <time>2021-03-06T13:52:31Z</time>
      </trkpt>
      <trkpt lat="42.75465" lon="1.53704">
        <ele>1325.506</ele>
        <time>2021-03-06T13:52:33Z</time>
      </trkpt>
      <trkpt lat="42.75467" lon="1.53706">
        <ele>1325.827</ele>
        <time>2021-03-06T13:52:35Z</time>
      </trkpt>
      <trkpt lat="42.7547" lon="1.53707">
        <ele>1325.913</ele>
        <time>2021-03-06T13:52:37Z</time>
      </trkpt>
      <trkpt lat="42.75473" lon="1.53709">
        <ele>1325.697</ele>
        <time>2021-03-06T13:52:39Z</time>
      </trkpt>
      <trkpt lat="42.75475" lon="1.53712">
        <ele>1325.298</ele>
        <time>2021-03-06T13:52:41Z</time>
      </trkpt>
      <trkpt lat="42.75478" lon="1.53714">
        <ele>1325.391</ele>
        <time>2021-03-06T13:52:43Z</time>
      </trkpt>
      <trkpt lat="42.7548" lon="1.53717">
        <ele>1324.901</ele>
        <time>2021-03-06T13:52:45Z</time>
      </trkpt>
      <trkpt lat="42.75483" lon="1.53719">
        <ele>1325.459</ele>
        <time>2021-03-06T13:52:47Z</time>
      </trkpt>
      <trkpt lat="42.75485" lon="1.53722">
        <ele>1325.885</ele>
        <time>2021-03-06T13:52:49Z</time>
      </trkpt>
      <trkpt lat="42.75486" lon="1.53724">
        <ele>1325.877</ele>
        <time>2021-03-06T13:52:51Z</time>
      </trkpt>
      <trkpt lat="42.75488" lon="1.53727">
        <ele>1326.23</ele>
        <time>2021-03-06T13:52:53Z</time>
      </trkpt>
      <trkpt lat="42.7549" lon="1.53729">
        <ele>1326.114</ele>
        <time>2021-03-06T13:52:55Z</time>
      </trkpt>
      <trkpt lat="42.75493" lon="1.53732">
        <ele>1326.357</ele>
        <time>2021-03-06T13:52:57Z</time>
      </trkpt>
      <trkpt lat="42.75495" lon="1.53734">
        <ele>1325.954</ele>
        <time>2021-03-06T13:52:59Z</time>
      </trkpt>
      <trkpt lat="42.75497" lon="1.53736">
        <ele>1325.211</ele>
        <time>2021-03-06T13:53:01Z</time>
      </trkpt>
      <trkpt lat="42.75499" lon="1.53738">
        <ele>1324.868</ele>
        <time>2021-03-06T13:53:03Z</time>
      </trkpt>
      <trkpt lat="42.75501" lon="1.5374">
        <ele>1324.073</ele>
        <time>2021-03-06T13:53:05Z</time>
      </trkpt>
      <trkpt lat="42.75504" lon="1.53741">
        <ele>1323.744</ele>
        <time>2021-03-06T13:53:07Z</time>
      </trkpt>
      <trkpt lat="42.75506" lon="1.53743">
        <ele>1323.548</ele>
        <time>2021-03-06T13:53:09Z</time>
      </trkpt>
      <trkpt lat="42.75509" lon="1.53746">
        <ele>1323.646</ele>
        <time>2021-03-06T13:53:12Z</time>
      </trkpt>
      <trkpt lat="42.75511" lon="1.53747">
        <ele>1323.454</ele>
        <time>2021-03-06T13:53:14Z</time>
      </trkpt>
      <trkpt lat="42.75513" lon="1.53748">
        <ele>1323.677</ele>
        <time>2021-03-06T13:53:16Z</time>
      </trkpt>
      <trkpt lat="42.75516" lon="1.53749">
        <ele>1323.385</ele>
        <time>2021-03-06T13:53:18Z</time>
      </trkpt>
      <trkpt lat="42.75518" lon="1.53751">
        <ele>1323.539</ele>
        <time>2021-03-06T13:53:20Z</time>
      </trkpt>
      <trkpt lat="42.7552" lon="1.53752">
        <ele>1322.815</ele>
        <time>2021-03-06T13:53:22Z</time>
      </trkpt>
      <trkpt lat="42.75522" lon="1.53754">
        <ele>1322.245</ele>
        <time>2021-03-06T13:53:24Z</time>
      </trkpt>
      <trkpt lat="42.75524" lon="1.53756">
        <ele>1322.477</ele>
        <time>2021-03-06T13:53:26Z</time>
      </trkpt>
      <trkpt lat="42.75526" lon="1.53756">
        <ele>1322.125</ele>
        <time>2021-03-06T13:53:28Z</time>
      </trkpt>
      <trkpt lat="42.75528" lon="1.53758">
        <ele>1321.964</ele>
        <time>2021-03-06T13:53:30Z</time>
      </trkpt>
      <trkpt lat="42.7553" lon="1.53758">
        <ele>1320.541</ele>
        <time>2021-03-06T13:53:32Z</time>
      </trkpt>
      <trkpt lat="42.75533" lon="1.53759">
        <ele>1320.103</ele>
        <time>2021-03-06T13:53:34Z</time>
      </trkpt>
      <trkpt lat="42.75535" lon="1.53759">
        <ele>1320.302</ele>
        <time>2021-03-06T13:53:36Z</time>
      </trkpt>
      <trkpt lat="42.75537" lon="1.5376">
        <ele>1320.386</ele>
        <time>2021-03-06T13:53:38Z</time>
      </trkpt>
      <trkpt lat="42.75539" lon="1.5376">
        <ele>1319.6</ele>
        <time>2021-03-06T13:53:40Z</time>
      </trkpt>
      <trkpt lat="42.75541" lon="1.53761">
        <ele>1319.297</ele>
        <time>2021-03-06T13:53:42Z</time>
      </trkpt>
      <trkpt lat="42.75543" lon="1.53761">
        <ele>1318.606</ele>
        <time>2021-03-06T13:53:44Z</time>
      </trkpt>
      <trkpt lat="42.75546" lon="1.53762">
        <ele>1318.664</ele>
        <time>2021-03-06T13:53:46Z</time>
      </trkpt>
      <trkpt lat="42.75548" lon="1.53761">
        <ele>1318.884</ele>
        <time>2021-03-06T13:53:48Z</time>
      </trkpt>
      <trkpt lat="42.7555" lon="1.53762">
        <ele>1319.613</ele>
        <time>2021-03-06T13:53:50Z</time>
      </trkpt>
      <trkpt lat="42.75553" lon="1.53763">
        <ele>1319.316</ele>
        <time>2021-03-06T13:53:52Z</time>
      </trkpt>
      <trkpt lat="42.75555" lon="1.53765">
        <ele>1320.099</ele>
        <time>2021-03-06T13:53:54Z</time>
      </trkpt>
      <trkpt lat="42.75558" lon="1.53766">
        <ele>1320.309</ele>
        <time>2021-03-06T13:53:56Z</time>
      </trkpt>
      <trkpt lat="42.7556" lon="1.53767">
        <ele>1318.979</ele>
        <time>2021-03-06T13:53:58Z</time>
      </trkpt>
      <trkpt lat="42.75562" lon="1.53769">
        <ele>1319.512</ele>
        <time>2021-03-06T13:54:00Z</time>
      </trkpt>
      <trkpt lat="42.75564" lon="1.53771">
        <ele>1319.495</ele>
        <time>2021-03-06T13:54:02Z</time>
      </trkpt>
      <trkpt lat="42.75567" lon="1.53774">
        <ele>1319.267</ele>
        <time>2021-03-06T13:54:04Z</time>
      </trkpt>
      <trkpt lat="42.75569" lon="1.53777">
        <ele>1318.941</ele>
        <time>2021-03-06T13:54:06Z</time>
      </trkpt>
      <trkpt lat="42.75571" lon="1.5378">
        <ele>1319.695</ele>
        <time>2021-03-06T13:54:08Z</time>
      </trkpt>
      <trkpt lat="42.75572" lon="1.53782">
        <ele>1320.126</ele>
        <time>2021-03-06T13:54:10Z</time>
      </trkpt>
      <trkpt lat="42.75574" lon="1.53785">
        <ele>1320.208</ele>
        <time>2021-03-06T13:54:12Z</time>
      </trkpt>
      <trkpt lat="42.75575" lon="1.53788">
        <ele>1319.894</ele>
        <time>2021-03-06T13:54:14Z</time>
      </trkpt>
      <trkpt lat="42.75577" lon="1.53791">
        <ele>1319.292</ele>
        <time>2021-03-06T13:54:16Z</time>
      </trkpt>
      <trkpt lat="42.75578" lon="1.53794">
        <ele>1318.64</ele>
        <time>2021-03-06T13:54:18Z</time>
      </trkpt>
      <trkpt lat="42.75579" lon="1.53797">
        <ele>1318.9</ele>
        <time>2021-03-06T13:54:20Z</time>
      </trkpt>
      <trkpt lat="42.7558" lon="1.538">
        <ele>1318.532</ele>
        <time>2021-03-06T13:54:22Z</time>
      </trkpt>
      <trkpt lat="42.75582" lon="1.53803">
        <ele>1318.055</ele>
        <time>2021-03-06T13:54:24Z</time>
      </trkpt>
      <trkpt lat="42.75583" lon="1.53807">
        <ele>1317.926</ele>
        <time>2021-03-06T13:54:26Z</time>
      </trkpt>
      <trkpt lat="42.75584" lon="1.5381">
        <ele>1317.564</ele>
        <time>2021-03-06T13:54:28Z</time>
      </trkpt>
      <trkpt lat="42.75585" lon="1.53813">
        <ele>1316.82</ele>
        <time>2021-03-06T13:54:30Z</time>
      </trkpt>
      <trkpt lat="42.75586" lon="1.53816">
        <ele>1316.953</ele>
        <time>2021-03-06T13:54:32Z</time>
      </trkpt>
      <trkpt lat="42.75587" lon="1.5382">
        <ele>1317.379</ele>
        <time>2021-03-06T13:54:34Z</time>
      </trkpt>
      <trkpt lat="42.75588" lon="1.53823">
        <ele>1317.166</ele>
        <time>2021-03-06T13:54:36Z</time>
      </trkpt>
      <trkpt lat="42.7559" lon="1.53826">
        <ele>1316.928</ele>
        <time>2021-03-06T13:54:38Z</time>
      </trkpt>
      <trkpt lat="42.75591" lon="1.53829">
        <ele>1316.416</ele>
        <time>2021-03-06T13:54:40Z</time>
      </trkpt>
      <trkpt lat="42.75592" lon="1.53832">
        <ele>1315.598</ele>
        <time>2021-03-06T13:54:42Z</time>
      </trkpt>
      <trkpt lat="42.75593" lon="1.53836">
        <ele>1315.729</ele>
        <time>2021-03-06T13:54:44Z</time>
      </trkpt>
      <trkpt lat="42.75594" lon="1.53839">
        <ele>1316.06</ele>
        <time>2021-03-06T13:54:46Z</time>
      </trkpt>
      <trkpt lat="42.75595" lon="1.53843">
        <ele>1315.479</ele>
        <time>2021-03-06T13:54:48Z</time>
      </trkpt>
      <trkpt lat="42.75597" lon="1.53846">
        <ele>1315.463</ele>
        <time>2021-03-06T13:54:50Z</time>
      </trkpt>
      <trkpt lat="42.75598" lon="1.53849">
        <ele>1314.508</ele>
        <time>2021-03-06T13:54:52Z</time>
      </trkpt>
      <trkpt lat="42.75599" lon="1.53852">
        <ele>1313.572</ele>
        <time>2021-03-06T13:54:54Z</time>
      </trkpt>
      <trkpt lat="42.756" lon="1.53856">
        <ele>1313.52</ele>
        <time>2021-03-06T13:54:56Z</time>
      </trkpt>
      <trkpt lat="42.75601" lon="1.5386">
        <ele>1313.386</ele>
        <time>2021-03-06T13:54:58Z</time>
      </trkpt>
      <trkpt lat="42.75602" lon="1.53863">
        <ele>1313.451</ele>
        <time>2021-03-06T13:55:00Z</time>
      </trkpt>
      <trkpt lat="42.75603" lon="1.53867">
        <ele>1312.867</ele>
        <time>2021-03-06T13:55:02Z</time>
      </trkpt>
      <trkpt lat="42.75604" lon="1.53871">
        <ele>1313.474</ele>
        <time>2021-03-06T13:55:04Z</time>
      </trkpt>
      <trkpt lat="42.75604" lon="1.53874">
        <ele>1313.235</ele>
        <time>2021-03-06T13:55:06Z</time>
      </trkpt>
      <trkpt lat="42.75605" lon="1.53877">
        <ele>1312.663</ele>
        <time>2021-03-06T13:55:08Z</time>
      </trkpt>
      <trkpt lat="42.75606" lon="1.53881">
        <ele>1312.797</ele>
        <time>2021-03-06T13:55:10Z</time>
      </trkpt>
      <trkpt lat="42.75607" lon="1.53885">
        <ele>1313.573</ele>
        <time>2021-03-06T13:55:12Z</time>
      </trkpt>
      <trkpt lat="42.75608" lon="1.53889">
        <ele>1313.515</ele>
        <time>2021-03-06T13:55:14Z</time>
      </trkpt>
      <trkpt lat="42.75609" lon="1.53891">
        <ele>1313.185</ele>
        <time>2021-03-06T13:55:16Z</time>
      </trkpt>
      <trkpt lat="42.7561" lon="1.53896">
        <ele>1313.586</ele>
        <time>2021-03-06T13:55:18Z</time>
      </trkpt>
      <trkpt lat="42.75611" lon="1.539">
        <ele>1313.498</ele>
        <time>2021-03-06T13:55:20Z</time>
      </trkpt>
      <trkpt lat="42.75611" lon="1.53903">
        <ele>1313.832</ele>
        <time>2021-03-06T13:55:22Z</time>
      </trkpt>
      <trkpt lat="42.75612" lon="1.53906">
        <ele>1313.658</ele>
        <time>2021-03-06T13:55:24Z</time>
      </trkpt>
      <trkpt lat="42.75614" lon="1.5391">
        <ele>1313.155</ele>
        <time>2021-03-06T13:55:26Z</time>
      </trkpt>
      <trkpt lat="42.75615" lon="1.53913">
        <ele>1313.281</ele>
        <time>2021-03-06T13:55:28Z</time>
      </trkpt>
      <trkpt lat="42.75616" lon="1.53916">
        <ele>1312.978</ele>
        <time>2021-03-06T13:55:30Z</time>
      </trkpt>
      <trkpt lat="42.75617" lon="1.53918">
        <ele>1312.318</ele>
        <time>2021-03-06T13:55:32Z</time>
      </trkpt>
      <trkpt lat="42.75618" lon="1.53921">
        <ele>1311.725</ele>
        <time>2021-03-06T13:55:34Z</time>
      </trkpt>
      <trkpt lat="42.75619" lon="1.53924">
        <ele>1311.505</ele>
        <time>2021-03-06T13:55:36Z</time>
      </trkpt>
      <trkpt lat="42.75621" lon="1.53928">
        <ele>1311.653</ele>
        <time>2021-03-06T13:55:38Z</time>
      </trkpt>
      <trkpt lat="42.75622" lon="1.53931">
        <ele>1311.409</ele>
        <time>2021-03-06T13:55:40Z</time>
      </trkpt>
      <trkpt lat="42.75624" lon="1.53934">
        <ele>1310.812</ele>
        <time>2021-03-06T13:55:42Z</time>
      </trkpt>
      <trkpt lat="42.75625" lon="1.53937">
        <ele>1310.756</ele>
        <time>2021-03-06T13:55:44Z</time>
      </trkpt>
      <trkpt lat="42.75626" lon="1.5394">
        <ele>1311.149</ele>
        <time>2021-03-06T13:55:46Z</time>
      </trkpt>
      <trkpt lat="42.75627" lon="1.53944">
        <ele>1310.975</ele>
        <time>2021-03-06T13:55:48Z</time>
      </trkpt>
      <trkpt lat="42.75628" lon="1.53948">
        <ele>1311.386</ele>
        <time>2021-03-06T13:55:50Z</time>
      </trkpt>
      <trkpt lat="42.75629" lon="1.53951">
        <ele>1311.648</ele>
        <time>2021-03-06T13:55:52Z</time>
      </trkpt>
      <trkpt lat="42.7563" lon="1.53955">
        <ele>1311.939</ele>
        <time>2021-03-06T13:55:54Z</time>
      </trkpt>
      <trkpt lat="42.75631" lon="1.53958">
        <ele>1311.833</ele>
        <time>2021-03-06T13:55:56Z</time>
      </trkpt>
      <trkpt lat="42.75632" lon="1.53962">
        <ele>1311.475</ele>
        <time>2021-03-06T13:55:58Z</time>
      </trkpt>
      <trkpt lat="42.75633" lon="1.53965">
        <ele>1310.737</ele>
        <time>2021-03-06T13:56:00Z</time>
      </trkpt>
      <trkpt lat="42.75634" lon="1.53968">
        <ele>1310.667</ele>
        <time>2021-03-06T13:56:02Z</time>
      </trkpt>
      <trkpt lat="42.75636" lon="1.53971">
        <ele>1310.087</ele>
        <time>2021-03-06T13:56:04Z</time>
      </trkpt>
      <trkpt lat="42.75637" lon="1.53975">
        <ele>1309.353</ele>
        <time>2021-03-06T13:56:06Z</time>
      </trkpt>
      <trkpt lat="42.75638" lon="1.53978">
        <ele>1308.689</ele>
        <time>2021-03-06T13:56:08Z</time>
      </trkpt>
      <trkpt lat="42.75639" lon="1.53982">
        <ele>1308.51</ele>
        <time>2021-03-06T13:56:10Z</time>
      </trkpt>
      <trkpt lat="42.7564" lon="1.53985">
        <ele>1308.036</ele>
        <time>2021-03-06T13:56:12Z</time>
      </trkpt>
      <trkpt lat="42.75641" lon="1.53989">
        <ele>1307.496</ele>
        <time>2021-03-06T13:56:14Z</time>
      </trkpt>
      <trkpt lat="42.75642" lon="1.53992">
        <ele>1307.227</ele>
        <time>2021-03-06T13:56:16Z</time>
      </trkpt>
      <trkpt lat="42.75643" lon="1.53995">
        <ele>1306.973</ele>
        <time>2021-03-06T13:56:18Z</time>
      </trkpt>
      <trkpt lat="42.75645" lon="1.53998">
        <ele>1307.013</ele>
        <time>2021-03-06T13:56:20Z</time>
      </trkpt>
      <trkpt lat="42.75646" lon="1.54001">
        <ele>1306.498</ele>
        <time>2021-03-06T13:56:22Z</time>
      </trkpt>
      <trkpt lat="42.75647" lon="1.54004">
        <ele>1305.996</ele>
        <time>2021-03-06T13:56:24Z</time>
      </trkpt>
      <trkpt lat="42.75649" lon="1.54007">
        <ele>1306.138</ele>
        <time>2021-03-06T13:56:26Z</time>
      </trkpt>
      <trkpt lat="42.75651" lon="1.54009">
        <ele>1305.759</ele>
        <time>2021-03-06T13:56:28Z</time>
      </trkpt>
      <trkpt lat="42.75652" lon="1.54013">
        <ele>1305.838</ele>
        <time>2021-03-06T13:56:30Z</time>
      </trkpt>
      <trkpt lat="42.75653" lon="1.54017">
        <ele>1306.018</ele>
        <time>2021-03-06T13:56:32Z</time>
      </trkpt>
      <trkpt lat="42.75654" lon="1.5402">
        <ele>1305.338</ele>
        <time>2021-03-06T13:56:34Z</time>
      </trkpt>
      <trkpt lat="42.75656" lon="1.54023">
        <ele>1304.743</ele>
        <time>2021-03-06T13:56:36Z</time>
      </trkpt>
      <trkpt lat="42.75658" lon="1.54025">
        <ele>1304.158</ele>
        <time>2021-03-06T13:56:38Z</time>
      </trkpt>
      <trkpt lat="42.75659" lon="1.54028">
        <ele>1304.131</ele>
        <time>2021-03-06T13:56:40Z</time>
      </trkpt>
      <trkpt lat="42.7566" lon="1.54031">
        <ele>1304.512</ele>
        <time>2021-03-06T13:56:42Z</time>
      </trkpt>
      <trkpt lat="42.75662" lon="1.54034">
        <ele>1304.601</ele>
        <time>2021-03-06T13:56:44Z</time>
      </trkpt>
      <trkpt lat="42.75663" lon="1.54037">
        <ele>1304.296</ele>
        <time>2021-03-06T13:56:46Z</time>
      </trkpt>
      <trkpt lat="42.75664" lon="1.5404">
        <ele>1304.168</ele>
        <time>2021-03-06T13:56:48Z</time>
      </trkpt>
      <trkpt lat="42.75666" lon="1.54043">
        <ele>1304.01</ele>
        <time>2021-03-06T13:56:50Z</time>
      </trkpt>
      <trkpt lat="42.75667" lon="1.54046">
        <ele>1304</ele>
        <time>2021-03-06T13:56:52Z</time>
      </trkpt>
      <trkpt lat="42.75669" lon="1.54049">
        <ele>1302.502</ele>
        <time>2021-03-06T13:56:54Z</time>
      </trkpt>
      <trkpt lat="42.75671" lon="1.54052">
        <ele>1301.619</ele>
        <time>2021-03-06T13:56:56Z</time>
      </trkpt>
      <trkpt lat="42.75672" lon="1.54056">
        <ele>1301.759</ele>
        <time>2021-03-06T13:56:58Z</time>
      </trkpt>
      <trkpt lat="42.75674" lon="1.54059">
        <ele>1301.86</ele>
        <time>2021-03-06T13:57:00Z</time>
      </trkpt>
      <trkpt lat="42.75676" lon="1.54062">
        <ele>1302.378</ele>
        <time>2021-03-06T13:57:02Z</time>
      </trkpt>
      <trkpt lat="42.75677" lon="1.54065">
        <ele>1302.036</ele>
        <time>2021-03-06T13:57:04Z</time>
      </trkpt>
      <trkpt lat="42.75679" lon="1.54068">
        <ele>1301.25</ele>
        <time>2021-03-06T13:57:06Z</time>
      </trkpt>
      <trkpt lat="42.75681" lon="1.5407">
        <ele>1300.462</ele>
        <time>2021-03-06T13:57:08Z</time>
      </trkpt>
      <trkpt lat="42.75682" lon="1.54073">
        <ele>1300.1</ele>
        <time>2021-03-06T13:57:10Z</time>
      </trkpt>
      <trkpt lat="42.75684" lon="1.54076">
        <ele>1298.989</ele>
        <time>2021-03-06T13:57:12Z</time>
      </trkpt>
      <trkpt lat="42.75685" lon="1.54079">
        <ele>1298.488</ele>
        <time>2021-03-06T13:57:14Z</time>
      </trkpt>
      <trkpt lat="42.75687" lon="1.54082">
        <ele>1298.558</ele>
        <time>2021-03-06T13:57:16Z</time>
      </trkpt>
      <trkpt lat="42.75689" lon="1.54085">
        <ele>1298.348</ele>
        <time>2021-03-06T13:57:18Z</time>
      </trkpt>
      <trkpt lat="42.7569" lon="1.54088">
        <ele>1298.639</ele>
        <time>2021-03-06T13:57:20Z</time>
      </trkpt>
      <trkpt lat="42.75692" lon="1.54092">
        <ele>1299.039</ele>
        <time>2021-03-06T13:57:22Z</time>
      </trkpt>
      <trkpt lat="42.75693" lon="1.54095">
        <ele>1297.437</ele>
        <time>2021-03-06T13:57:24Z</time>
      </trkpt>
      <trkpt lat="42.75695" lon="1.54098">
        <ele>1297.328</ele>
        <time>2021-03-06T13:57:26Z</time>
      </trkpt>
      <trkpt lat="42.75697" lon="1.54101">
        <ele>1297.525</ele>
        <time>2021-03-06T13:57:28Z</time>
      </trkpt>
      <trkpt lat="42.75698" lon="1.54105">
        <ele>1297.549</ele>
        <time>2021-03-06T13:57:30Z</time>
      </trkpt>
      <trkpt lat="42.757" lon="1.54108">
        <ele>1297.367</ele>
        <time>2021-03-06T13:57:32Z</time>
      </trkpt>
      <trkpt lat="42.75701" lon="1.54112">
        <ele>1297.15</ele>
        <time>2021-03-06T13:57:34Z</time>
      </trkpt>
      <trkpt lat="42.75703" lon="1.54115">
        <ele>1297.757</ele>
        <time>2021-03-06T13:57:36Z</time>
      </trkpt>
      <trkpt lat="42.75704" lon="1.54117">
        <ele>1297.681</ele>
        <time>2021-03-06T13:57:38Z</time>
      </trkpt>
      <trkpt lat="42.75706" lon="1.54121">
        <ele>1298.405</ele>
        <time>2021-03-06T13:57:40Z</time>
      </trkpt>
      <trkpt lat="42.75707" lon="1.54124">
        <ele>1298.124</ele>
        <time>2021-03-06T13:57:42Z</time>
      </trkpt>
      <trkpt lat="42.75708" lon="1.54128">
        <ele>1298.164</ele>
        <time>2021-03-06T13:57:44Z</time>
      </trkpt>
      <trkpt lat="42.7571" lon="1.54131">
        <ele>1298.467</ele>
        <time>2021-03-06T13:57:46Z</time>
      </trkpt>
      <trkpt lat="42.75711" lon="1.54135">
        <ele>1298.869</ele>
        <time>2021-03-06T13:57:48Z</time>
      </trkpt>
      <trkpt lat="42.75712" lon="1.54138">
        <ele>1298.193</ele>
        <time>2021-03-06T13:57:50Z</time>
      </trkpt>
      <trkpt lat="42.75713" lon="1.54141">
        <ele>1297.51</ele>
        <time>2021-03-06T13:57:52Z</time>
      </trkpt>
      <trkpt lat="42.75714" lon="1.54144">
        <ele>1297.149</ele>
        <time>2021-03-06T13:57:54Z</time>
      </trkpt>
      <trkpt lat="42.75715" lon="1.54147">
        <ele>1296.521</ele>
        <time>2021-03-06T13:57:56Z</time>
      </trkpt>
      <trkpt lat="42.75716" lon="1.54151">
        <ele>1296.886</ele>
        <time>2021-03-06T13:57:58Z</time>
      </trkpt>
      <trkpt lat="42.75717" lon="1.54154">
        <ele>1297.058</ele>
        <time>2021-03-06T13:58:00Z</time>
      </trkpt>
      <trkpt lat="42.75718" lon="1.54157">
        <ele>1296.506</ele>
        <time>2021-03-06T13:58:02Z</time>
      </trkpt>
      <trkpt lat="42.75719" lon="1.54161">
        <ele>1297.006</ele>
        <time>2021-03-06T13:58:04Z</time>
      </trkpt>
      <trkpt lat="42.7572" lon="1.54163">
        <ele>1296.994</ele>
        <time>2021-03-06T13:58:05Z</time>
      </trkpt>
      <trkpt lat="42.75721" lon="1.54169">
        <ele>1297.423</ele>
        <time>2021-03-06T13:58:08Z</time>
      </trkpt>
      <trkpt lat="42.75722" lon="1.54173">
        <ele>1297.705</ele>
        <time>2021-03-06T13:58:10Z</time>
      </trkpt>
      <trkpt lat="42.75723" lon="1.54177">
        <ele>1297.81</ele>
        <time>2021-03-06T13:58:12Z</time>
      </trkpt>
      <trkpt lat="42.75724" lon="1.54181">
        <ele>1297.37</ele>
        <time>2021-03-06T13:58:14Z</time>
      </trkpt>
      <trkpt lat="42.75725" lon="1.54186">
        <ele>1297.862</ele>
        <time>2021-03-06T13:58:16Z</time>
      </trkpt>
      <trkpt lat="42.75726" lon="1.5419">
        <ele>1298.498</ele>
        <time>2021-03-06T13:58:18Z</time>
      </trkpt>
      <trkpt lat="42.75727" lon="1.54195">
        <ele>1299.024</ele>
        <time>2021-03-06T13:58:20Z</time>
      </trkpt>
      <trkpt lat="42.75728" lon="1.54198">
        <ele>1298.405</ele>
        <time>2021-03-06T13:58:22Z</time>
      </trkpt>
      <trkpt lat="42.7573" lon="1.54201">
        <ele>1297.891</ele>
        <time>2021-03-06T13:58:24Z</time>
      </trkpt>
      <trkpt lat="42.75731" lon="1.54205">
        <ele>1297.765</ele>
        <time>2021-03-06T13:58:26Z</time>
      </trkpt>
      <trkpt lat="42.75731" lon="1.54208">
        <ele>1297.244</ele>
        <time>2021-03-06T13:58:28Z</time>
      </trkpt>
      <trkpt lat="42.75733" lon="1.54211">
        <ele>1296.666</ele>
        <time>2021-03-06T13:58:30Z</time>
      </trkpt>
      <trkpt lat="42.75734" lon="1.54215">
        <ele>1295.958</ele>
        <time>2021-03-06T13:58:32Z</time>
      </trkpt>
      <trkpt lat="42.75735" lon="1.54219">
        <ele>1295.82</ele>
        <time>2021-03-06T13:58:34Z</time>
      </trkpt>
      <trkpt lat="42.75737" lon="1.54223">
        <ele>1296.101</ele>
        <time>2021-03-06T13:58:36Z</time>
      </trkpt>
      <trkpt lat="42.75738" lon="1.54227">
        <ele>1296.139</ele>
        <time>2021-03-06T13:58:38Z</time>
      </trkpt>
      <trkpt lat="42.75739" lon="1.54231">
        <ele>1295.752</ele>
        <time>2021-03-06T13:58:40Z</time>
      </trkpt>
      <trkpt lat="42.7574" lon="1.54233">
        <ele>1294.615</ele>
        <time>2021-03-06T13:58:42Z</time>
      </trkpt>
      <trkpt lat="42.75742" lon="1.54237">
        <ele>1294.531</ele>
        <time>2021-03-06T13:58:44Z</time>
      </trkpt>
      <trkpt lat="42.75743" lon="1.5424">
        <ele>1294.354</ele>
        <time>2021-03-06T13:58:46Z</time>
      </trkpt>
      <trkpt lat="42.75744" lon="1.54244">
        <ele>1294.502</ele>
        <time>2021-03-06T13:58:48Z</time>
      </trkpt>
      <trkpt lat="42.75746" lon="1.54248">
        <ele>1295.13</ele>
        <time>2021-03-06T13:58:50Z</time>
      </trkpt>
      <trkpt lat="42.75747" lon="1.54251">
        <ele>1294.626</ele>
        <time>2021-03-06T13:58:52Z</time>
      </trkpt>
      <trkpt lat="42.75748" lon="1.54255">
        <ele>1294.879</ele>
        <time>2021-03-06T13:58:54Z</time>
      </trkpt>
      <trkpt lat="42.75749" lon="1.54258">
        <ele>1294.696</ele>
        <time>2021-03-06T13:58:56Z</time>
      </trkpt>
      <trkpt lat="42.75751" lon="1.54261">
        <ele>1294.599</ele>
        <time>2021-03-06T13:58:58Z</time>
      </trkpt>
      <trkpt lat="42.75753" lon="1.54263">
        <ele>1293.585</ele>
        <time>2021-03-06T13:59:00Z</time>
      </trkpt>
      <trkpt lat="42.75755" lon="1.54266">
        <ele>1293.196</ele>
        <time>2021-03-06T13:59:02Z</time>
      </trkpt>
      <trkpt lat="42.75756" lon="1.5427">
        <ele>1293.179</ele>
        <time>2021-03-06T13:59:04Z</time>
      </trkpt>
      <trkpt lat="42.75757" lon="1.54273">
        <ele>1292.185</ele>
        <time>2021-03-06T13:59:06Z</time>
      </trkpt>
      <trkpt lat="42.75758" lon="1.54277">
        <ele>1290.592</ele>
        <time>2021-03-06T13:59:08Z</time>
      </trkpt>
      <trkpt lat="42.7576" lon="1.5428">
        <ele>1290.432</ele>
        <time>2021-03-06T13:59:10Z</time>
      </trkpt>
      <trkpt lat="42.75761" lon="1.54283">
        <ele>1289.153</ele>
        <time>2021-03-06T13:59:12Z</time>
      </trkpt>
      <trkpt lat="42.75763" lon="1.54286">
        <ele>1289.286</ele>
        <time>2021-03-06T13:59:14Z</time>
      </trkpt>
      <trkpt lat="42.75764" lon="1.5429">
        <ele>1289.645</ele>
        <time>2021-03-06T13:59:16Z</time>
      </trkpt>
      <trkpt lat="42.75765" lon="1.54294">
        <ele>1288.906</ele>
        <time>2021-03-06T13:59:18Z</time>
      </trkpt>
      <trkpt lat="42.75767" lon="1.54298">
        <ele>1288.712</ele>
        <time>2021-03-06T13:59:20Z</time>
      </trkpt>
      <trkpt lat="42.75768" lon="1.54302">
        <ele>1289.19</ele>
        <time>2021-03-06T13:59:22Z</time>
      </trkpt>
      <trkpt lat="42.75769" lon="1.54306">
        <ele>1290.028</ele>
        <time>2021-03-06T13:59:24Z</time>
      </trkpt>
      <trkpt lat="42.7577" lon="1.5431">
        <ele>1290.177</ele>
        <time>2021-03-06T13:59:26Z</time>
      </trkpt>
      <trkpt lat="42.7577" lon="1.54314">
        <ele>1289.944</ele>
        <time>2021-03-06T13:59:28Z</time>
      </trkpt>
      <trkpt lat="42.75771" lon="1.54318">
        <ele>1290.234</ele>
        <time>2021-03-06T13:59:30Z</time>
      </trkpt>
      <trkpt lat="42.75772" lon="1.54322">
        <ele>1290.152</ele>
        <time>2021-03-06T13:59:32Z</time>
      </trkpt>
      <trkpt lat="42.75773" lon="1.54326">
        <ele>1290.504</ele>
        <time>2021-03-06T13:59:34Z</time>
      </trkpt>
      <trkpt lat="42.75774" lon="1.5433">
        <ele>1291.351</ele>
        <time>2021-03-06T13:59:36Z</time>
      </trkpt>
      <trkpt lat="42.75774" lon="1.54334">
        <ele>1293.405</ele>
        <time>2021-03-06T13:59:38Z</time>
      </trkpt>
      <trkpt lat="42.75774" lon="1.54339">
        <ele>1292.633</ele>
        <time>2021-03-06T13:59:40Z</time>
      </trkpt>
      <trkpt lat="42.75775" lon="1.54343">
        <ele>1292.497</ele>
        <time>2021-03-06T13:59:42Z</time>
      </trkpt>
      <trkpt lat="42.75775" lon="1.54347">
        <ele>1291.149</ele>
        <time>2021-03-06T13:59:44Z</time>
      </trkpt>
      <trkpt lat="42.75776" lon="1.5435">
        <ele>1291.781</ele>
        <time>2021-03-06T13:59:46Z</time>
      </trkpt>
      <trkpt lat="42.75777" lon="1.54354">
        <ele>1291.272</ele>
        <time>2021-03-06T13:59:48Z</time>
      </trkpt>
      <trkpt lat="42.75778" lon="1.54358">
        <ele>1290.947</ele>
        <time>2021-03-06T13:59:50Z</time>
      </trkpt>
      <trkpt lat="42.75779" lon="1.54362">
        <ele>1291.401</ele>
        <time>2021-03-06T13:59:52Z</time>
      </trkpt>
      <trkpt lat="42.75779" lon="1.54366">
        <ele>1291.58</ele>
        <time>2021-03-06T13:59:54Z</time>
      </trkpt>
      <trkpt lat="42.7578" lon="1.5437">
        <ele>1291.6</ele>
        <time>2021-03-06T13:59:56Z</time>
      </trkpt>
      <trkpt lat="42.75781" lon="1.54374">
        <ele>1291.724</ele>
        <time>2021-03-06T13:59:58Z</time>
      </trkpt>
      <trkpt lat="42.75781" lon="1.54378">
        <ele>1291.17</ele>
        <time>2021-03-06T14:00:00Z</time>
      </trkpt>
      <trkpt lat="42.75782" lon="1.54382">
        <ele>1291.69</ele>
        <time>2021-03-06T14:00:02Z</time>
      </trkpt>
      <trkpt lat="42.75782" lon="1.54386">
        <ele>1291.019</ele>
        <time>2021-03-06T14:00:04Z</time>
      </trkpt>
      <trkpt lat="42.75783" lon="1.54389">
        <ele>1291.031</ele>
        <time>2021-03-06T14:00:06Z</time>
      </trkpt>
      <trkpt lat="42.75784" lon="1.54393">
        <ele>1290.936</ele>
        <time>2021-03-06T14:00:08Z</time>
      </trkpt>
      <trkpt lat="42.75785" lon="1.54397">
        <ele>1291.038</ele>
        <time>2021-03-06T14:00:10Z</time>
      </trkpt>
      <trkpt lat="42.75785" lon="1.54401">
        <ele>1291.423</ele>
        <time>2021-03-06T14:00:12Z</time>
      </trkpt>
      <trkpt lat="42.75786" lon="1.54404">
        <ele>1291.504</ele>
        <time>2021-03-06T14:00:14Z</time>
      </trkpt>
      <trkpt lat="42.75787" lon="1.54408">
        <ele>1291.523</ele>
        <time>2021-03-06T14:00:16Z</time>
      </trkpt>
      <trkpt lat="42.75788" lon="1.54412">
        <ele>1291.232</ele>
        <time>2021-03-06T14:00:18Z</time>
      </trkpt>
      <trkpt lat="42.75789" lon="1.54415">
        <ele>1291.141</ele>
        <time>2021-03-06T14:00:20Z</time>
      </trkpt>
      <trkpt lat="42.75791" lon="1.54418">
        <ele>1290.351</ele>
        <time>2021-03-06T14:00:22Z</time>
      </trkpt>
      <trkpt lat="42.75791" lon="1.54421">
        <ele>1289.032</ele>
        <time>2021-03-06T14:00:24Z</time>
      </trkpt>
      <trkpt lat="42.75792" lon="1.54424">
        <ele>1288.716</ele>
        <time>2021-03-06T14:00:26Z</time>
      </trkpt>
      <trkpt lat="42.75794" lon="1.54427">
        <ele>1287.875</ele>
        <time>2021-03-06T14:00:28Z</time>
      </trkpt>
      <trkpt lat="42.75794" lon="1.54431">
        <ele>1287.672</ele>
        <time>2021-03-06T14:00:30Z</time>
      </trkpt>
      <trkpt lat="42.75795" lon="1.54435">
        <ele>1288.372</ele>
        <time>2021-03-06T14:00:32Z</time>
      </trkpt>
      <trkpt lat="42.75796" lon="1.54438">
        <ele>1288.895</ele>
        <time>2021-03-06T14:00:34Z</time>
      </trkpt>
      <trkpt lat="42.75797" lon="1.54442">
        <ele>1288.411</ele>
        <time>2021-03-06T14:00:36Z</time>
      </trkpt>
      <trkpt lat="42.75797" lon="1.54446">
        <ele>1287.702</ele>
        <time>2021-03-06T14:00:38Z</time>
      </trkpt>
      <trkpt lat="42.75797" lon="1.5445">
        <ele>1287.15</ele>
        <time>2021-03-06T14:00:40Z</time>
      </trkpt>
      <trkpt lat="42.75799" lon="1.54453">
        <ele>1287.142</ele>
        <time>2021-03-06T14:00:42Z</time>
      </trkpt>
      <trkpt lat="42.75799" lon="1.54457">
        <ele>1286.169</ele>
        <time>2021-03-06T14:00:44Z</time>
      </trkpt>
      <trkpt lat="42.758" lon="1.5446">
        <ele>1285.556</ele>
        <time>2021-03-06T14:00:46Z</time>
      </trkpt>
      <trkpt lat="42.75802" lon="1.54464">
        <ele>1286.406</ele>
        <time>2021-03-06T14:00:48Z</time>
      </trkpt>
      <trkpt lat="42.75803" lon="1.54467">
        <ele>1286.19</ele>
        <time>2021-03-06T14:00:50Z</time>
      </trkpt>
      <trkpt lat="42.75803" lon="1.54471">
        <ele>1286.624</ele>
        <time>2021-03-06T14:00:52Z</time>
      </trkpt>
      <trkpt lat="42.75804" lon="1.54474">
        <ele>1286.525</ele>
        <time>2021-03-06T14:00:54Z</time>
      </trkpt>
      <trkpt lat="42.75806" lon="1.54477">
        <ele>1287.185</ele>
        <time>2021-03-06T14:00:56Z</time>
      </trkpt>
      <trkpt lat="42.75807" lon="1.54481">
        <ele>1286.953</ele>
        <time>2021-03-06T14:00:58Z</time>
      </trkpt>
      <trkpt lat="42.75808" lon="1.54485">
        <ele>1286.551</ele>
        <time>2021-03-06T14:01:00Z</time>
      </trkpt>
      <trkpt lat="42.7581" lon="1.54488">
        <ele>1286.144</ele>
        <time>2021-03-06T14:01:02Z</time>
      </trkpt>
      <trkpt lat="42.75811" lon="1.54492">
        <ele>1285.666</ele>
        <time>2021-03-06T14:01:04Z</time>
      </trkpt>
      <trkpt lat="42.75814" lon="1.54495">
        <ele>1284.98</ele>
        <time>2021-03-06T14:01:06Z</time>
      </trkpt>
      <trkpt lat="42.75815" lon="1.54498">
        <ele>1284.321</ele>
        <time>2021-03-06T14:01:08Z</time>
      </trkpt>
      <trkpt lat="42.75817" lon="1.54501">
        <ele>1284.425</ele>
        <time>2021-03-06T14:01:10Z</time>
      </trkpt>
      <trkpt lat="42.75819" lon="1.54504">
        <ele>1284.173</ele>
        <time>2021-03-06T14:01:12Z</time>
      </trkpt>
      <trkpt lat="42.75821" lon="1.54507">
        <ele>1284.121</ele>
        <time>2021-03-06T14:01:14Z</time>
      </trkpt>
      <trkpt lat="42.75823" lon="1.5451">
        <ele>1284.339</ele>
        <time>2021-03-06T14:01:16Z</time>
      </trkpt>
      <trkpt lat="42.75825" lon="1.54513">
        <ele>1284.199</ele>
        <time>2021-03-06T14:01:18Z</time>
      </trkpt>
      <trkpt lat="42.75827" lon="1.54516">
        <ele>1283.492</ele>
        <time>2021-03-06T14:01:20Z</time>
      </trkpt>
      <trkpt lat="42.75828" lon="1.54518">
        <ele>1282.577</ele>
        <time>2021-03-06T14:01:22Z</time>
      </trkpt>
      <trkpt lat="42.7583" lon="1.5452">
        <ele>1281.888</ele>
        <time>2021-03-06T14:01:24Z</time>
      </trkpt>
      <trkpt lat="42.75832" lon="1.54523">
        <ele>1281.267</ele>
        <time>2021-03-06T14:01:26Z</time>
      </trkpt>
      <trkpt lat="42.75834" lon="1.54525">
        <ele>1281.217</ele>
        <time>2021-03-06T14:01:28Z</time>
      </trkpt>
      <trkpt lat="42.75837" lon="1.54526">
        <ele>1282.134</ele>
        <time>2021-03-06T14:01:30Z</time>
      </trkpt>
      <trkpt lat="42.75838" lon="1.54527">
        <ele>1282.309</ele>
        <time>2021-03-06T14:01:31Z</time>
      </trkpt>
      <trkpt lat="42.75842" lon="1.5453">
        <ele>1282.795</ele>
        <time>2021-03-06T14:01:34Z</time>
      </trkpt>
      <trkpt lat="42.75844" lon="1.54532">
        <ele>1282.486</ele>
        <time>2021-03-06T14:01:36Z</time>
      </trkpt>
      <trkpt lat="42.75846" lon="1.54534">
        <ele>1282.227</ele>
        <time>2021-03-06T14:01:38Z</time>
      </trkpt>
      <trkpt lat="42.75848" lon="1.54537">
        <ele>1281.537</ele>
        <time>2021-03-06T14:01:40Z</time>
      </trkpt>
      <trkpt lat="42.7585" lon="1.54538">
        <ele>1281.348</ele>
        <time>2021-03-06T14:01:42Z</time>
      </trkpt>
      <trkpt lat="42.75852" lon="1.54541">
        <ele>1281.201</ele>
        <time>2021-03-06T14:01:44Z</time>
      </trkpt>
      <trkpt lat="42.75854" lon="1.54544">
        <ele>1280.52</ele>
        <time>2021-03-06T14:01:46Z</time>
      </trkpt>
      <trkpt lat="42.75856" lon="1.54547">
        <ele>1280.179</ele>
        <time>2021-03-06T14:01:48Z</time>
      </trkpt>
      <trkpt lat="42.75858" lon="1.54549">
        <ele>1279.811</ele>
        <time>2021-03-06T14:01:50Z</time>
      </trkpt>
      <trkpt lat="42.7586" lon="1.54552">
        <ele>1280.082</ele>
        <time>2021-03-06T14:01:52Z</time>
      </trkpt>
      <trkpt lat="42.75862" lon="1.54554">
        <ele>1279.527</ele>
        <time>2021-03-06T14:01:54Z</time>
      </trkpt>
      <trkpt lat="42.75864" lon="1.54557">
        <ele>1279.291</ele>
        <time>2021-03-06T14:01:56Z</time>
      </trkpt>
      <trkpt lat="42.75866" lon="1.5456">
        <ele>1279.17</ele>
        <time>2021-03-06T14:01:58Z</time>
      </trkpt>
      <trkpt lat="42.75868" lon="1.54562">
        <ele>1279.125</ele>
        <time>2021-03-06T14:02:00Z</time>
      </trkpt>
      <trkpt lat="42.7587" lon="1.54564">
        <ele>1279.157</ele>
        <time>2021-03-06T14:02:02Z</time>
      </trkpt>
      <trkpt lat="42.75872" lon="1.54567">
        <ele>1278.733</ele>
        <time>2021-03-06T14:02:04Z</time>
      </trkpt>
      <trkpt lat="42.75874" lon="1.54569">
        <ele>1278.502</ele>
        <time>2021-03-06T14:02:06Z</time>
      </trkpt>
      <trkpt lat="42.75876" lon="1.54572">
        <ele>1278.184</ele>
        <time>2021-03-06T14:02:08Z</time>
      </trkpt>
      <trkpt lat="42.75879" lon="1.54574">
        <ele>1278.057</ele>
        <time>2021-03-06T14:02:10Z</time>
      </trkpt>
      <trkpt lat="42.75881" lon="1.54577">
        <ele>1278.021</ele>
        <time>2021-03-06T14:02:12Z</time>
      </trkpt>
      <trkpt lat="42.75883" lon="1.54579">
        <ele>1278.083</ele>
        <time>2021-03-06T14:02:14Z</time>
      </trkpt>
      <trkpt lat="42.75885" lon="1.54582">
        <ele>1278.11</ele>
        <time>2021-03-06T14:02:16Z</time>
      </trkpt>
      <trkpt lat="42.75886" lon="1.54586">
        <ele>1277.906</ele>
        <time>2021-03-06T14:02:18Z</time>
      </trkpt>
      <trkpt lat="42.75888" lon="1.54588">
        <ele>1277.961</ele>
        <time>2021-03-06T14:02:20Z</time>
      </trkpt>
      <trkpt lat="42.7589" lon="1.54591">
        <ele>1277.948</ele>
        <time>2021-03-06T14:02:22Z</time>
      </trkpt>
      <trkpt lat="42.75891" lon="1.54594">
        <ele>1277.357</ele>
        <time>2021-03-06T14:02:24Z</time>
      </trkpt>
      <trkpt lat="42.75893" lon="1.54596">
        <ele>1277.594</ele>
        <time>2021-03-06T14:02:26Z</time>
      </trkpt>
      <trkpt lat="42.75896" lon="1.546">
        <ele>1277.324</ele>
        <time>2021-03-06T14:02:28Z</time>
      </trkpt>
      <trkpt lat="42.75897" lon="1.54603">
        <ele>1277.04</ele>
        <time>2021-03-06T14:02:30Z</time>
      </trkpt>
      <trkpt lat="42.75899" lon="1.54605">
        <ele>1277.089</ele>
        <time>2021-03-06T14:02:32Z</time>
      </trkpt>
      <trkpt lat="42.75901" lon="1.54608">
        <ele>1276.925</ele>
        <time>2021-03-06T14:02:34Z</time>
      </trkpt>
      <trkpt lat="42.75903" lon="1.5461">
        <ele>1277.39</ele>
        <time>2021-03-06T14:02:36Z</time>
      </trkpt>
      <trkpt lat="42.75906" lon="1.54613">
        <ele>1277.576</ele>
        <time>2021-03-06T14:02:38Z</time>
      </trkpt>
      <trkpt lat="42.75908" lon="1.54615">
        <ele>1277.92</ele>
        <time>2021-03-06T14:02:40Z</time>
      </trkpt>
      <trkpt lat="42.7591" lon="1.54618">
        <ele>1278.402</ele>
        <time>2021-03-06T14:02:42Z</time>
      </trkpt>
      <trkpt lat="42.75912" lon="1.5462">
        <ele>1278.775</ele>
        <time>2021-03-06T14:02:44Z</time>
      </trkpt>
      <trkpt lat="42.75915" lon="1.54622">
        <ele>1279.088</ele>
        <time>2021-03-06T14:02:46Z</time>
      </trkpt>
      <trkpt lat="42.75917" lon="1.54623">
        <ele>1278.809</ele>
        <time>2021-03-06T14:02:48Z</time>
      </trkpt>
      <trkpt lat="42.75919" lon="1.54626">
        <ele>1279.106</ele>
        <time>2021-03-06T14:02:50Z</time>
      </trkpt>
      <trkpt lat="42.75921" lon="1.54629">
        <ele>1278.944</ele>
        <time>2021-03-06T14:02:52Z</time>
      </trkpt>
      <trkpt lat="42.75923" lon="1.5463">
        <ele>1278.574</ele>
        <time>2021-03-06T14:02:54Z</time>
      </trkpt>
      <trkpt lat="42.75925" lon="1.54632">
        <ele>1278.236</ele>
        <time>2021-03-06T14:02:56Z</time>
      </trkpt>
      <trkpt lat="42.75928" lon="1.54635">
        <ele>1278.288</ele>
        <time>2021-03-06T14:02:58Z</time>
      </trkpt>
      <trkpt lat="42.7593" lon="1.54637">
        <ele>1278.072</ele>
        <time>2021-03-06T14:03:00Z</time>
      </trkpt>
      <trkpt lat="42.75932" lon="1.54639">
        <ele>1277.528</ele>
        <time>2021-03-06T14:03:02Z</time>
      </trkpt>
      <trkpt lat="42.75934" lon="1.54642">
        <ele>1277.991</ele>
        <time>2021-03-06T14:03:04Z</time>
      </trkpt>
      <trkpt lat="42.75937" lon="1.54643">
        <ele>1277.973</ele>
        <time>2021-03-06T14:03:06Z</time>
      </trkpt>
      <trkpt lat="42.75939" lon="1.54645">
        <ele>1277.519</ele>
        <time>2021-03-06T14:03:08Z</time>
      </trkpt>
      <trkpt lat="42.75942" lon="1.54647">
        <ele>1277.225</ele>
        <time>2021-03-06T14:03:10Z</time>
      </trkpt>
      <trkpt lat="42.75944" lon="1.54648">
        <ele>1276.617</ele>
        <time>2021-03-06T14:03:12Z</time>
      </trkpt>
      <trkpt lat="42.75947" lon="1.5465">
        <ele>1276.679</ele>
        <time>2021-03-06T14:03:14Z</time>
      </trkpt>
      <trkpt lat="42.7595" lon="1.54651">
        <ele>1276.569</ele>
        <time>2021-03-06T14:03:16Z</time>
      </trkpt>
      <trkpt lat="42.75952" lon="1.54653">
        <ele>1276.357</ele>
        <time>2021-03-06T14:03:18Z</time>
      </trkpt>
      <trkpt lat="42.75955" lon="1.54655">
        <ele>1276.126</ele>
        <time>2021-03-06T14:03:20Z</time>
      </trkpt>
      <trkpt lat="42.75957" lon="1.54656">
        <ele>1275.831</ele>
        <time>2021-03-06T14:03:22Z</time>
      </trkpt>
      <trkpt lat="42.7596" lon="1.54658">
        <ele>1275.837</ele>
        <time>2021-03-06T14:03:24Z</time>
      </trkpt>
      <trkpt lat="42.75962" lon="1.54659">
        <ele>1276.091</ele>
        <time>2021-03-06T14:03:26Z</time>
      </trkpt>
      <trkpt lat="42.75965" lon="1.54661">
        <ele>1275.871</ele>
        <time>2021-03-06T14:03:28Z</time>
      </trkpt>
      <trkpt lat="42.75968" lon="1.54662">
        <ele>1275.329</ele>
        <time>2021-03-06T14:03:30Z</time>
      </trkpt>
      <trkpt lat="42.75971" lon="1.54664">
        <ele>1275.142</ele>
        <time>2021-03-06T14:03:32Z</time>
      </trkpt>
      <trkpt lat="42.75973" lon="1.54665">
        <ele>1275.011</ele>
        <time>2021-03-06T14:03:34Z</time>
      </trkpt>
      <trkpt lat="42.75976" lon="1.54666">
        <ele>1274.309</ele>
        <time>2021-03-06T14:03:36Z</time>
      </trkpt>
      <trkpt lat="42.75979" lon="1.54668">
        <ele>1274.402</ele>
        <time>2021-03-06T14:03:38Z</time>
      </trkpt>
      <trkpt lat="42.75981" lon="1.54669">
        <ele>1274.469</ele>
        <time>2021-03-06T14:03:40Z</time>
      </trkpt>
      <trkpt lat="42.75984" lon="1.5467">
        <ele>1274.47</ele>
        <time>2021-03-06T14:03:42Z</time>
      </trkpt>
      <trkpt lat="42.75987" lon="1.54672">
        <ele>1274.401</ele>
        <time>2021-03-06T14:03:44Z</time>
      </trkpt>
      <trkpt lat="42.7599" lon="1.54673">
        <ele>1273.961</ele>
        <time>2021-03-06T14:03:46Z</time>
      </trkpt>
      <trkpt lat="42.75992" lon="1.54674">
        <ele>1273.274</ele>
        <time>2021-03-06T14:03:48Z</time>
      </trkpt>
      <trkpt lat="42.75995" lon="1.54676">
        <ele>1273.812</ele>
        <time>2021-03-06T14:03:50Z</time>
      </trkpt>
      <trkpt lat="42.75997" lon="1.54677">
        <ele>1273.908</ele>
        <time>2021-03-06T14:03:52Z</time>
      </trkpt>
      <trkpt lat="42.76" lon="1.54679">
        <ele>1273.899</ele>
        <time>2021-03-06T14:03:54Z</time>
      </trkpt>
      <trkpt lat="42.76002" lon="1.5468">
        <ele>1273.975</ele>
        <time>2021-03-06T14:03:56Z</time>
      </trkpt>
      <trkpt lat="42.76005" lon="1.54681">
        <ele>1273.707</ele>
        <time>2021-03-06T14:03:58Z</time>
      </trkpt>
      <trkpt lat="42.76007" lon="1.54682">
        <ele>1273.476</ele>
        <time>2021-03-06T14:04:00Z</time>
      </trkpt>
      <trkpt lat="42.7601" lon="1.54683">
        <ele>1273.397</ele>
        <time>2021-03-06T14:04:02Z</time>
      </trkpt>
      <trkpt lat="42.76012" lon="1.54684">
        <ele>1272.863</ele>
        <time>2021-03-06T14:04:04Z</time>
      </trkpt>
      <trkpt lat="42.76014" lon="1.54685">
        <ele>1272.373</ele>
        <time>2021-03-06T14:04:06Z</time>
      </trkpt>
      <trkpt lat="42.76017" lon="1.54685">
        <ele>1272.776</ele>
        <time>2021-03-06T14:04:08Z</time>
      </trkpt>
      <trkpt lat="42.76019" lon="1.54686">
        <ele>1272.726</ele>
        <time>2021-03-06T14:04:10Z</time>
      </trkpt>
      <trkpt lat="42.76021" lon="1.54686">
        <ele>1272.744</ele>
        <time>2021-03-06T14:04:12Z</time>
      </trkpt>
      <trkpt lat="42.76024" lon="1.54686">
        <ele>1272.893</ele>
        <time>2021-03-06T14:04:14Z</time>
      </trkpt>
      <trkpt lat="42.76026" lon="1.54685">
        <ele>1273.677</ele>
        <time>2021-03-06T14:04:16Z</time>
      </trkpt>
      <trkpt lat="42.76026" lon="1.54685">
        <ele>1273.584</ele>
        <time>2021-03-06T14:04:18Z</time>
      </trkpt>
      <trkpt lat="42.76026" lon="1.54685">
        <ele>1273.587</ele>
        <time>2021-03-06T14:04:20Z</time>
      </trkpt>
      <trkpt lat="42.76026" lon="1.54685">
        <ele>1273.418</ele>
        <time>2021-03-06T14:04:22Z</time>
      </trkpt>
      <trkpt lat="42.76027" lon="1.54684">
        <ele>1273.068</ele>
        <time>2021-03-06T14:04:24Z</time>
      </trkpt>
      <trkpt lat="42.76028" lon="1.54683">
        <ele>1273.353</ele>
        <time>2021-03-06T14:04:26Z</time>
      </trkpt>
      <trkpt lat="42.7603" lon="1.54683">
        <ele>1272.876</ele>
        <time>2021-03-06T14:04:28Z</time>
      </trkpt>
      <trkpt lat="42.76031" lon="1.54685">
        <ele>1273.467</ele>
        <time>2021-03-06T14:04:30Z</time>
      </trkpt>
      <trkpt lat="42.76032" lon="1.54687">
        <ele>1273.754</ele>
        <time>2021-03-06T14:04:32Z</time>
      </trkpt>
      <trkpt lat="42.76032" lon="1.54687">
        <ele>1273.716</ele>
        <time>2021-03-06T14:04:34Z</time>
      </trkpt>
      <trkpt lat="42.76033" lon="1.54687">
        <ele>1273.213</ele>
        <time>2021-03-06T14:04:36Z</time>
      </trkpt>
      <trkpt lat="42.76033" lon="1.54687">
        <ele>1272.559</ele>
        <time>2021-03-06T14:04:38Z</time>
      </trkpt>
      <trkpt lat="42.76034" lon="1.54687">
        <ele>1272.623</ele>
        <time>2021-03-06T14:04:40Z</time>
      </trkpt>
      <trkpt lat="42.76034" lon="1.54687">
        <ele>1272.63</ele>
        <time>2021-03-06T14:04:42Z</time>
      </trkpt>
      <trkpt lat="42.76034" lon="1.54687">
        <ele>1272.639</ele>
        <time>2021-03-06T14:04:44Z</time>
      </trkpt>
      <trkpt lat="42.76034" lon="1.54686">
        <ele>1272.399</ele>
        <time>2021-03-06T14:04:46Z</time>
      </trkpt>
      <trkpt lat="42.76035" lon="1.54686">
        <ele>1272.263</ele>
        <time>2021-03-06T14:04:48Z</time>
      </trkpt>
      <trkpt lat="42.76035" lon="1.54685">
        <ele>1272.646</ele>
        <time>2021-03-06T14:04:50Z</time>
      </trkpt>
      <trkpt lat="42.76036" lon="1.54684">
        <ele>1272.506</ele>
        <time>2021-03-06T14:04:52Z</time>
      </trkpt>
      <trkpt lat="42.76038" lon="1.54683">
        <ele>1271.794</ele>
        <time>2021-03-06T14:04:54Z</time>
      </trkpt>
      <trkpt lat="42.76037" lon="1.54681">
        <ele>1271.43</ele>
        <time>2021-03-06T14:04:56Z</time>
      </trkpt>
      <trkpt lat="42.76038" lon="1.54681">
        <ele>1271.164</ele>
        <time>2021-03-06T14:04:58Z</time>
      </trkpt>
      <trkpt lat="42.7604" lon="1.54683">
        <ele>1270.557</ele>
        <time>2021-03-06T14:05:00Z</time>
      </trkpt>
      <trkpt lat="42.7604" lon="1.54682">
        <ele>1270.196</ele>
        <time>2021-03-06T14:05:02Z</time>
      </trkpt>
      <trkpt lat="42.76039" lon="1.54682">
        <ele>1270.296</ele>
        <time>2021-03-06T14:05:04Z</time>
      </trkpt>
      <trkpt lat="42.76039" lon="1.54682">
        <ele>1270.774</ele>
        <time>2021-03-06T14:05:06Z</time>
      </trkpt>
      <trkpt lat="42.76038" lon="1.54682">
        <ele>1270.754</ele>
        <time>2021-03-06T14:05:08Z</time>
      </trkpt>
      <trkpt lat="42.76038" lon="1.54682">
        <ele>1271.138</ele>
        <time>2021-03-06T14:05:10Z</time>
      </trkpt>
      <trkpt lat="42.76039" lon="1.54683">
        <ele>1270.615</ele>
        <time>2021-03-06T14:05:12Z</time>
      </trkpt>
      <trkpt lat="42.7604" lon="1.54683">
        <ele>1270.45</ele>
        <time>2021-03-06T14:05:14Z</time>
      </trkpt>
      <trkpt lat="42.76039" lon="1.54684">
        <ele>1270.33</ele>
        <time>2021-03-06T14:05:16Z</time>
      </trkpt>
      <trkpt lat="42.76039" lon="1.54684">
        <ele>1269.85</ele>
        <time>2021-03-06T14:05:18Z</time>
      </trkpt>
      <trkpt lat="42.7604" lon="1.54684">
        <ele>1269.901</ele>
        <time>2021-03-06T14:05:20Z</time>
      </trkpt>
      <trkpt lat="42.7604" lon="1.54684">
        <ele>1270.052</ele>
        <time>2021-03-06T14:05:22Z</time>
      </trkpt>
      <trkpt lat="42.7604" lon="1.54684">
        <ele>1270.139</ele>
        <time>2021-03-06T14:05:24Z</time>
      </trkpt>
      <trkpt lat="42.7604" lon="1.54684">
        <ele>1269.773</ele>
        <time>2021-03-06T14:05:26Z</time>
      </trkpt>
      <trkpt lat="42.7604" lon="1.54684">
        <ele>1269.824</ele>
        <time>2021-03-06T14:05:28Z</time>
      </trkpt>
      <trkpt lat="42.76039" lon="1.54683">
        <ele>1269.486</ele>
        <time>2021-03-06T14:05:30Z</time>
      </trkpt>
      <trkpt lat="42.7604" lon="1.54683">
        <ele>1269.659</ele>
        <time>2021-03-06T14:05:32Z</time>
      </trkpt>
      <trkpt lat="42.76039" lon="1.54683">
        <ele>1270.392</ele>
        <time>2021-03-06T14:05:34Z</time>
      </trkpt>
      <trkpt lat="42.7604" lon="1.54683">
        <ele>1270.493</ele>
        <time>2021-03-06T14:05:36Z</time>
      </trkpt>
      <trkpt lat="42.7604" lon="1.54683">
        <ele>1271.037</ele>
        <time>2021-03-06T14:05:38Z</time>
      </trkpt>
      <trkpt lat="42.7604" lon="1.54683">
        <ele>1271.016</ele>
        <time>2021-03-06T14:05:40Z</time>
      </trkpt>
      <trkpt lat="42.7604" lon="1.54683">
        <ele>1271.02</ele>
        <time>2021-03-06T14:05:42Z</time>
      </trkpt>
      <trkpt lat="42.7604" lon="1.54683">
        <ele>1271.008</ele>
        <time>2021-03-06T14:05:44Z</time>
      </trkpt>
      <trkpt lat="42.7604" lon="1.54683">
        <ele>1270.808</ele>
        <time>2021-03-06T14:05:46Z</time>
      </trkpt>
      <trkpt lat="42.7604" lon="1.54682">
        <ele>1270.59</ele>
        <time>2021-03-06T14:05:48Z</time>
      </trkpt>
      <trkpt lat="42.7604" lon="1.54682">
        <ele>1270.309</ele>
        <time>2021-03-06T14:05:50Z</time>
      </trkpt>
      <trkpt lat="42.7604" lon="1.54682">
        <ele>1269.738</ele>
        <time>2021-03-06T14:05:52Z</time>
      </trkpt>
      <trkpt lat="42.7604" lon="1.54682">
        <ele>1268.345</ele>
        <time>2021-03-06T14:05:54Z</time>
      </trkpt>
      <trkpt lat="42.76039" lon="1.54682">
        <ele>1268.491</ele>
        <time>2021-03-06T14:05:56Z</time>
      </trkpt>
      <trkpt lat="42.76039" lon="1.54682">
        <ele>1268.746</ele>
        <time>2021-03-06T14:05:58Z</time>
      </trkpt>
      <trkpt lat="42.76039" lon="1.54682">
        <ele>1268.457</ele>
        <time>2021-03-06T14:06:00Z</time>
      </trkpt>
      <trkpt lat="42.76039" lon="1.54682">
        <ele>1268.484</ele>
        <time>2021-03-06T14:06:02Z</time>
      </trkpt>
      <trkpt lat="42.76039" lon="1.54682">
        <ele>1268.485</ele>
        <time>2021-03-06T14:06:04Z</time>
      </trkpt>
      <trkpt lat="42.76039" lon="1.54682">
        <ele>1268.669</ele>
        <time>2021-03-06T14:06:06Z</time>
      </trkpt>
      <trkpt lat="42.76039" lon="1.54682">
        <ele>1268.856</ele>
        <time>2021-03-06T14:06:08Z</time>
      </trkpt>
      <trkpt lat="42.76039" lon="1.54683">
        <ele>1269.526</ele>
        <time>2021-03-06T14:06:10Z</time>
      </trkpt>
      <trkpt lat="42.76038" lon="1.54682">
        <ele>1269.197</ele>
        <time>2021-03-06T14:06:12Z</time>
      </trkpt>
      <trkpt lat="42.76039" lon="1.54681">
        <ele>1268.398</ele>
        <time>2021-03-06T14:06:14Z</time>
      </trkpt>
      <trkpt lat="42.76039" lon="1.54681">
        <ele>1268.6</ele>
        <time>2021-03-06T14:06:16Z</time>
      </trkpt>
      <trkpt lat="42.76039" lon="1.54681">
        <ele>1268.461</ele>
        <time>2021-03-06T14:06:18Z</time>
      </trkpt>
      <trkpt lat="42.7604" lon="1.54681">
        <ele>1268.237</ele>
        <time>2021-03-06T14:06:20Z</time>
      </trkpt>
      <trkpt lat="42.7604" lon="1.54681">
        <ele>1268.071</ele>
        <time>2021-03-06T14:06:22Z</time>
      </trkpt>
      <trkpt lat="42.7604" lon="1.5468">
        <ele>1267.183</ele>
        <time>2021-03-06T14:06:24Z</time>
      </trkpt>
      <trkpt lat="42.76041" lon="1.54679">
        <ele>1267.322</ele>
        <time>2021-03-06T14:06:26Z</time>
      </trkpt>
      <trkpt lat="42.76041" lon="1.54678">
        <ele>1268.13</ele>
        <time>2021-03-06T14:06:28Z</time>
      </trkpt>
      <trkpt lat="42.76041" lon="1.54677">
        <ele>1268.005</ele>
        <time>2021-03-06T14:06:30Z</time>
      </trkpt>
      <trkpt lat="42.76041" lon="1.54677">
        <ele>1268.129</ele>
        <time>2021-03-06T14:06:32Z</time>
      </trkpt>
      <trkpt lat="42.76041" lon="1.54677">
        <ele>1268.168</ele>
        <time>2021-03-06T14:06:34Z</time>
      </trkpt>
      <trkpt lat="42.7604" lon="1.54677">
        <ele>1268.042</ele>
        <time>2021-03-06T14:06:36Z</time>
      </trkpt>
      <trkpt lat="42.76041" lon="1.54677">
        <ele>1267.978</ele>
        <time>2021-03-06T14:06:38Z</time>
      </trkpt>
      <trkpt lat="42.76041" lon="1.54677">
        <ele>1268.055</ele>
        <time>2021-03-06T14:06:40Z</time>
      </trkpt>
      <trkpt lat="42.76041" lon="1.54677">
        <ele>1268.112</ele>
        <time>2021-03-06T14:06:42Z</time>
      </trkpt>
      <trkpt lat="42.7604" lon="1.54677">
        <ele>1268.321</ele>
        <time>2021-03-06T14:06:44Z</time>
      </trkpt>
      <trkpt lat="42.7604" lon="1.54677">
        <ele>1268.937</ele>
        <time>2021-03-06T14:06:46Z</time>
      </trkpt>
      <trkpt lat="42.7604" lon="1.54677">
        <ele>1269.87</ele>
        <time>2021-03-06T14:06:48Z</time>
      </trkpt>
      <trkpt lat="42.7604" lon="1.54676">
        <ele>1270.179</ele>
        <time>2021-03-06T14:06:50Z</time>
      </trkpt>
      <trkpt lat="42.7604" lon="1.54677">
        <ele>1270.103</ele>
        <time>2021-03-06T14:06:52Z</time>
      </trkpt>
      <trkpt lat="42.7604" lon="1.54678">
        <ele>1269.596</ele>
        <time>2021-03-06T14:06:54Z</time>
      </trkpt>
      <trkpt lat="42.7604" lon="1.54678">
        <ele>1269.233</ele>
        <time>2021-03-06T14:06:56Z</time>
      </trkpt>
      <trkpt lat="42.7604" lon="1.54678">
        <ele>1268.988</ele>
        <time>2021-03-06T14:06:58Z</time>
      </trkpt>
      <trkpt lat="42.76039" lon="1.54678">
        <ele>1268.741</ele>
        <time>2021-03-06T14:07:00Z</time>
      </trkpt>
      <trkpt lat="42.76039" lon="1.54678">
        <ele>1268.669</ele>
        <time>2021-03-06T14:07:02Z</time>
      </trkpt>
      <trkpt lat="42.76039" lon="1.54678">
        <ele>1268.658</ele>
        <time>2021-03-06T14:07:04Z</time>
      </trkpt>
      <trkpt lat="42.7604" lon="1.54678">
        <ele>1268.38</ele>
        <time>2021-03-06T14:07:06Z</time>
      </trkpt>
      <trkpt lat="42.7604" lon="1.54677">
        <ele>1268.249</ele>
        <time>2021-03-06T14:07:08Z</time>
      </trkpt>
      <trkpt lat="42.7604" lon="1.54676">
        <ele>1268.146</ele>
        <time>2021-03-06T14:07:10Z</time>
      </trkpt>
      <trkpt lat="42.7604" lon="1.54675">
        <ele>1267.389</ele>
        <time>2021-03-06T14:07:12Z</time>
      </trkpt>
      <trkpt lat="42.76041" lon="1.54674">
        <ele>1267.336</ele>
        <time>2021-03-06T14:07:14Z</time>
      </trkpt>
      <trkpt lat="42.76041" lon="1.54673">
        <ele>1266.514</ele>
        <time>2021-03-06T14:07:16Z</time>
      </trkpt>
      <trkpt lat="42.76042" lon="1.54672">
        <ele>1266.021</ele>
        <time>2021-03-06T14:07:18Z</time>
      </trkpt>
      <trkpt lat="42.76043" lon="1.54671">
        <ele>1265.402</ele>
        <time>2021-03-06T14:07:20Z</time>
      </trkpt>
      <trkpt lat="42.76042" lon="1.5467">
        <ele>1264.678</ele>
        <time>2021-03-06T14:07:22Z</time>
      </trkpt>
      <trkpt lat="42.76043" lon="1.5467">
        <ele>1265.705</ele>
        <time>2021-03-06T14:07:24Z</time>
      </trkpt>
      <trkpt lat="42.76043" lon="1.54671">
        <ele>1266.04</ele>
        <time>2021-03-06T14:07:26Z</time>
      </trkpt>
      <trkpt lat="42.76044" lon="1.54671">
        <ele>1266.97</ele>
        <time>2021-03-06T14:07:28Z</time>
      </trkpt>
      <trkpt lat="42.76044" lon="1.54671">
        <ele>1267.884</ele>
        <time>2021-03-06T14:07:30Z</time>
      </trkpt>
      <trkpt lat="42.76044" lon="1.54671">
        <ele>1268.224</ele>
        <time>2021-03-06T14:07:32Z</time>
      </trkpt>
      <trkpt lat="42.76043" lon="1.54671">
        <ele>1268.283</ele>
        <time>2021-03-06T14:07:34Z</time>
      </trkpt>
      <trkpt lat="42.76043" lon="1.54671">
        <ele>1267.981</ele>
        <time>2021-03-06T14:07:36Z</time>
      </trkpt>
      <trkpt lat="42.76043" lon="1.54671">
        <ele>1268.217</ele>
        <time>2021-03-06T14:07:38Z</time>
      </trkpt>
      <trkpt lat="42.76043" lon="1.54671">
        <ele>1268.374</ele>
        <time>2021-03-06T14:07:40Z</time>
      </trkpt>
      <trkpt lat="42.76043" lon="1.54671">
        <ele>1268.398</ele>
        <time>2021-03-06T14:07:42Z</time>
      </trkpt>
      <trkpt lat="42.76043" lon="1.54671">
        <ele>1268.411</ele>
        <time>2021-03-06T14:07:44Z</time>
      </trkpt>
      <trkpt lat="42.76043" lon="1.54671">
        <ele>1268.423</ele>
        <time>2021-03-06T14:07:46Z</time>
      </trkpt>
      <trkpt lat="42.76043" lon="1.54671">
        <ele>1268.43</ele>
        <time>2021-03-06T14:07:48Z</time>
      </trkpt>
      <trkpt lat="42.76043" lon="1.54671">
        <ele>1268.439</ele>
        <time>2021-03-06T14:07:50Z</time>
      </trkpt>
      <trkpt lat="42.76043" lon="1.54671">
        <ele>1268.444</ele>
        <time>2021-03-06T14:07:52Z</time>
      </trkpt>
      <trkpt lat="42.76043" lon="1.54671">
        <ele>1268.442</ele>
        <time>2021-03-06T14:07:54Z</time>
      </trkpt>
      <trkpt lat="42.76043" lon="1.54671">
        <ele>1268.451</ele>
        <time>2021-03-06T14:07:56Z</time>
      </trkpt>
      <trkpt lat="42.76043" lon="1.54671">
        <ele>1268.451</ele>
        <time>2021-03-06T14:07:58Z</time>
      </trkpt>
      <trkpt lat="42.76043" lon="1.54671">
        <ele>1268.443</ele>
        <time>2021-03-06T14:08:00Z</time>
      </trkpt>
      <trkpt lat="42.76043" lon="1.54671">
        <ele>1268.719</ele>
        <time>2021-03-06T14:08:02Z</time>
      </trkpt>
      <trkpt lat="42.76043" lon="1.54671">
        <ele>1269.959</ele>
        <time>2021-03-06T14:08:03Z</time>
      </trkpt>
      <trkpt lat="42.76043" lon="1.54671">
        <ele>1270.465</ele>
        <time>2021-03-06T14:08:06Z</time>
      </trkpt>
      <trkpt lat="42.76043" lon="1.54671">
        <ele>1270.871</ele>
        <time>2021-03-06T14:08:08Z</time>
      </trkpt>
      <trkpt lat="42.76043" lon="1.54672">
        <ele>1270.928</ele>
        <time>2021-03-06T14:08:10Z</time>
      </trkpt>
      <trkpt lat="42.76043" lon="1.54672">
        <ele>1270.915</ele>
        <time>2021-03-06T14:08:12Z</time>
      </trkpt>
      <trkpt lat="42.76043" lon="1.54672">
        <ele>1271.093</ele>
        <time>2021-03-06T14:08:14Z</time>
      </trkpt>
      <trkpt lat="42.76043" lon="1.54672">
        <ele>1271.11</ele>
        <time>2021-03-06T14:08:16Z</time>
      </trkpt>
      <trkpt lat="42.76043" lon="1.54672">
        <ele>1270.971</ele>
        <time>2021-03-06T14:08:18Z</time>
      </trkpt>
      <trkpt lat="42.76043" lon="1.54672">
        <ele>1270.928</ele>
        <time>2021-03-06T14:08:20Z</time>
      </trkpt>
      <trkpt lat="42.76042" lon="1.54673">
        <ele>1270.407</ele>
        <time>2021-03-06T14:08:22Z</time>
      </trkpt>
      <trkpt lat="42.76042" lon="1.54673">
        <ele>1271.181</ele>
        <time>2021-03-06T14:08:24Z</time>
      </trkpt>
      <trkpt lat="42.76042" lon="1.54673">
        <ele>1271.768</ele>
        <time>2021-03-06T14:08:27Z</time>
      </trkpt>
      <trkpt lat="42.76043" lon="1.54672">
        <ele>1272.188</ele>
        <time>2021-03-06T14:08:29Z</time>
      </trkpt>
      <trkpt lat="42.76043" lon="1.54672">
        <ele>1272.094</ele>
        <time>2021-03-06T14:08:31Z</time>
      </trkpt>
      <trkpt lat="42.76043" lon="1.54672">
        <ele>1271.96</ele>
        <time>2021-03-06T14:08:33Z</time>
      </trkpt>
      <trkpt lat="42.76043" lon="1.54672">
        <ele>1271.892</ele>
        <time>2021-03-06T14:08:35Z</time>
      </trkpt>
      <trkpt lat="42.76043" lon="1.54672">
        <ele>1271.022</ele>
        <time>2021-03-06T14:08:37Z</time>
      </trkpt>
      <trkpt lat="42.76044" lon="1.54671">
        <ele>1270.306</ele>
        <time>2021-03-06T14:08:39Z</time>
      </trkpt>
      <trkpt lat="42.76044" lon="1.54671">
        <ele>1269.879</ele>
        <time>2021-03-06T14:08:41Z</time>
      </trkpt>
      <trkpt lat="42.76045" lon="1.54672">
        <ele>1269.94</ele>
        <time>2021-03-06T14:08:43Z</time>
      </trkpt>
      <trkpt lat="42.76044" lon="1.54672">
        <ele>1270.318</ele>
        <time>2021-03-06T14:08:45Z</time>
      </trkpt>
      <trkpt lat="42.76044" lon="1.54671">
        <ele>1270.68</ele>
        <time>2021-03-06T14:08:47Z</time>
      </trkpt>
      <trkpt lat="42.76043" lon="1.54671">
        <ele>1270.569</ele>
        <time>2021-03-06T14:08:49Z</time>
      </trkpt>
      <trkpt lat="42.76043" lon="1.54671">
        <ele>1269.608</ele>
        <time>2021-03-06T14:08:51Z</time>
      </trkpt>
      <trkpt lat="42.76043" lon="1.54672">
        <ele>1269.13</ele>
        <time>2021-03-06T14:08:53Z</time>
      </trkpt>
      <trkpt lat="42.76043" lon="1.54673">
        <ele>1268.352</ele>
        <time>2021-03-06T14:08:55Z</time>
      </trkpt>
      <trkpt lat="42.76043" lon="1.54673">
        <ele>1267.652</ele>
        <time>2021-03-06T14:08:57Z</time>
      </trkpt>
      <trkpt lat="42.76043" lon="1.54674">
        <ele>1267.668</ele>
        <time>2021-03-06T14:08:59Z</time>
      </trkpt>
      <trkpt lat="42.76043" lon="1.54674">
        <ele>1267.773</ele>
        <time>2021-03-06T14:09:01Z</time>
      </trkpt>
      <trkpt lat="42.76043" lon="1.54674">
        <ele>1267.92</ele>
        <time>2021-03-06T14:09:03Z</time>
      </trkpt>
      <trkpt lat="42.76044" lon="1.54673">
        <ele>1268.265</ele>
        <time>2021-03-06T14:09:05Z</time>
      </trkpt>
      <trkpt lat="42.76046" lon="1.5467">
        <ele>1267.129</ele>
        <time>2021-03-06T14:09:07Z</time>
      </trkpt>
      <trkpt lat="42.76047" lon="1.54667">
        <ele>1266.849</ele>
        <time>2021-03-06T14:09:09Z</time>
      </trkpt>
      <trkpt lat="42.76048" lon="1.54665">
        <ele>1267.277</ele>
        <time>2021-03-06T14:09:11Z</time>
      </trkpt>
      <trkpt lat="42.7605" lon="1.54662">
        <ele>1266.747</ele>
        <time>2021-03-06T14:09:13Z</time>
      </trkpt>
      <trkpt lat="42.76052" lon="1.54659">
        <ele>1267.03</ele>
        <time>2021-03-06T14:09:15Z</time>
      </trkpt>
      <trkpt lat="42.76054" lon="1.54657">
        <ele>1267.044</ele>
        <time>2021-03-06T14:09:17Z</time>
      </trkpt>
      <trkpt lat="42.76055" lon="1.54653">
        <ele>1266.561</ele>
        <time>2021-03-06T14:09:19Z</time>
      </trkpt>
      <trkpt lat="42.76057" lon="1.5465">
        <ele>1266.719</ele>
        <time>2021-03-06T14:09:21Z</time>
      </trkpt>
      <trkpt lat="42.76059" lon="1.54648">
        <ele>1266.183</ele>
        <time>2021-03-06T14:09:23Z</time>
      </trkpt>
      <trkpt lat="42.7606" lon="1.54645">
        <ele>1264.571</ele>
        <time>2021-03-06T14:09:25Z</time>
      </trkpt>
      <trkpt lat="42.7606" lon="1.54642">
        <ele>1264.215</ele>
        <time>2021-03-06T14:09:27Z</time>
      </trkpt>
      <trkpt lat="42.76061" lon="1.54639">
        <ele>1264.758</ele>
        <time>2021-03-06T14:09:29Z</time>
      </trkpt>
      <trkpt lat="42.76062" lon="1.54635">
        <ele>1265.993</ele>
        <time>2021-03-06T14:09:31Z</time>
      </trkpt>
      <trkpt lat="42.76063" lon="1.54633">
        <ele>1264.901</ele>
        <time>2021-03-06T14:09:33Z</time>
      </trkpt>
      <trkpt lat="42.76065" lon="1.5463">
        <ele>1263.51</ele>
        <time>2021-03-06T14:09:35Z</time>
      </trkpt>
      <trkpt lat="42.76065" lon="1.54627">
        <ele>1263.178</ele>
        <time>2021-03-06T14:09:37Z</time>
      </trkpt>
      <trkpt lat="42.76066" lon="1.54624">
        <ele>1261.745</ele>
        <time>2021-03-06T14:09:39Z</time>
      </trkpt>
      <trkpt lat="42.76067" lon="1.54621">
        <ele>1262.075</ele>
        <time>2021-03-06T14:09:41Z</time>
      </trkpt>
      <trkpt lat="42.76068" lon="1.54619">
        <ele>1262.519</ele>
        <time>2021-03-06T14:09:43Z</time>
      </trkpt>
      <trkpt lat="42.76069" lon="1.54615">
        <ele>1260.934</ele>
        <time>2021-03-06T14:09:45Z</time>
      </trkpt>
      <trkpt lat="42.76069" lon="1.54612">
        <ele>1260.569</ele>
        <time>2021-03-06T14:09:47Z</time>
      </trkpt>
      <trkpt lat="42.7607" lon="1.54609">
        <ele>1260.282</ele>
        <time>2021-03-06T14:09:49Z</time>
      </trkpt>
      <trkpt lat="42.76072" lon="1.54607">
        <ele>1258.728</ele>
        <time>2021-03-06T14:09:51Z</time>
      </trkpt>
      <trkpt lat="42.76073" lon="1.54604">
        <ele>1259.265</ele>
        <time>2021-03-06T14:09:53Z</time>
      </trkpt>
      <trkpt lat="42.76073" lon="1.54601">
        <ele>1258.659</ele>
        <time>2021-03-06T14:09:55Z</time>
      </trkpt>
      <trkpt lat="42.76075" lon="1.54597">
        <ele>1258.339</ele>
        <time>2021-03-06T14:09:57Z</time>
      </trkpt>
      <trkpt lat="42.76075" lon="1.54594">
        <ele>1255.77</ele>
        <time>2021-03-06T14:09:59Z</time>
      </trkpt>
      <trkpt lat="42.76076" lon="1.54591">
        <ele>1254.562</ele>
        <time>2021-03-06T14:10:01Z</time>
      </trkpt>
      <trkpt lat="42.76078" lon="1.54588">
        <ele>1253.178</ele>
        <time>2021-03-06T14:10:03Z</time>
      </trkpt>
      <trkpt lat="42.76079" lon="1.54584">
        <ele>1253.778</ele>
        <time>2021-03-06T14:10:05Z</time>
      </trkpt>
      <trkpt lat="42.76081" lon="1.54579">
        <ele>1253.221</ele>
        <time>2021-03-06T14:10:08Z</time>
      </trkpt>
      <trkpt lat="42.76082" lon="1.54576">
        <ele>1252.776</ele>
        <time>2021-03-06T14:10:10Z</time>
      </trkpt>
      <trkpt lat="42.76083" lon="1.54571">
        <ele>1254.481</ele>
        <time>2021-03-06T14:10:12Z</time>
      </trkpt>
      <trkpt lat="42.76084" lon="1.54568">
        <ele>1254.714</ele>
        <time>2021-03-06T14:10:14Z</time>
      </trkpt>
      <trkpt lat="42.76085" lon="1.54564">
        <ele>1251.569</ele>
        <time>2021-03-06T14:10:16Z</time>
      </trkpt>
      <trkpt lat="42.76086" lon="1.54561">
        <ele>1251.284</ele>
        <time>2021-03-06T14:10:18Z</time>
      </trkpt>
      <trkpt lat="42.76087" lon="1.54558">
        <ele>1250.241</ele>
        <time>2021-03-06T14:10:20Z</time>
      </trkpt>
      <trkpt lat="42.76088" lon="1.54555">
        <ele>1250.141</ele>
        <time>2021-03-06T14:10:22Z</time>
      </trkpt>
      <trkpt lat="42.76089" lon="1.54551">
        <ele>1250.412</ele>
        <time>2021-03-06T14:10:24Z</time>
      </trkpt>
      <trkpt lat="42.7609" lon="1.54548">
        <ele>1248.1</ele>
        <time>2021-03-06T14:10:26Z</time>
      </trkpt>
      <trkpt lat="42.76091" lon="1.54545">
        <ele>1246.923</ele>
        <time>2021-03-06T14:10:28Z</time>
      </trkpt>
      <trkpt lat="42.76092" lon="1.54542">
        <ele>1245.506</ele>
        <time>2021-03-06T14:10:30Z</time>
      </trkpt>
      <trkpt lat="42.76093" lon="1.5454">
        <ele>1244.929</ele>
        <time>2021-03-06T14:10:32Z</time>
      </trkpt>
      <trkpt lat="42.76095" lon="1.54535">
        <ele>1247.022</ele>
        <time>2021-03-06T14:10:34Z</time>
      </trkpt>
      <trkpt lat="42.76097" lon="1.54532">
        <ele>1248.316</ele>
        <time>2021-03-06T14:10:36Z</time>
      </trkpt>
      <trkpt lat="42.76098" lon="1.54528">
        <ele>1248.557</ele>
        <time>2021-03-06T14:10:38Z</time>
      </trkpt>
      <trkpt lat="42.76099" lon="1.54525">
        <ele>1247.964</ele>
        <time>2021-03-06T14:10:40Z</time>
      </trkpt>
      <trkpt lat="42.761" lon="1.54521">
        <ele>1247.072</ele>
        <time>2021-03-06T14:10:42Z</time>
      </trkpt>
      <trkpt lat="42.76102" lon="1.54518">
        <ele>1246.706</ele>
        <time>2021-03-06T14:10:44Z</time>
      </trkpt>
      <trkpt lat="42.76103" lon="1.54515">
        <ele>1246.802</ele>
        <time>2021-03-06T14:10:46Z</time>
      </trkpt>
      <trkpt lat="42.76104" lon="1.54511">
        <ele>1244.999</ele>
        <time>2021-03-06T14:10:48Z</time>
      </trkpt>
      <trkpt lat="42.76105" lon="1.54508">
        <ele>1243.438</ele>
        <time>2021-03-06T14:10:50Z</time>
      </trkpt>
      <trkpt lat="42.76107" lon="1.54505">
        <ele>1241.3</ele>
        <time>2021-03-06T14:10:52Z</time>
      </trkpt>
      <trkpt lat="42.76108" lon="1.54502">
        <ele>1240.356</ele>
        <time>2021-03-06T14:10:54Z</time>
      </trkpt>
      <trkpt lat="42.76109" lon="1.54499">
        <ele>1238.956</ele>
        <time>2021-03-06T14:10:56Z</time>
      </trkpt>
      <trkpt lat="42.76111" lon="1.54496">
        <ele>1236.367</ele>
        <time>2021-03-06T14:10:58Z</time>
      </trkpt>
      <trkpt lat="42.76112" lon="1.54493">
        <ele>1235.433</ele>
        <time>2021-03-06T14:11:00Z</time>
      </trkpt>
      <trkpt lat="42.76113" lon="1.54489">
        <ele>1234.122</ele>
        <time>2021-03-06T14:11:02Z</time>
      </trkpt>
      <trkpt lat="42.76113" lon="1.54485">
        <ele>1233.164</ele>
        <time>2021-03-06T14:11:04Z</time>
      </trkpt>
      <trkpt lat="42.76114" lon="1.54481">
        <ele>1231.422</ele>
        <time>2021-03-06T14:11:06Z</time>
      </trkpt>
      <trkpt lat="42.76115" lon="1.54478">
        <ele>1232.475</ele>
        <time>2021-03-06T14:11:08Z</time>
      </trkpt>
      <trkpt lat="42.76116" lon="1.54474">
        <ele>1233.362</ele>
        <time>2021-03-06T14:11:10Z</time>
      </trkpt>
      <trkpt lat="42.76118" lon="1.5447">
        <ele>1233.229</ele>
        <time>2021-03-06T14:11:12Z</time>
      </trkpt>
      <trkpt lat="42.76119" lon="1.54466">
        <ele>1234.91</ele>
        <time>2021-03-06T14:11:14Z</time>
      </trkpt>
      <trkpt lat="42.7612" lon="1.54462">
        <ele>1236.098</ele>
        <time>2021-03-06T14:11:16Z</time>
      </trkpt>
      <trkpt lat="42.76122" lon="1.54458">
        <ele>1234.531</ele>
        <time>2021-03-06T14:11:18Z</time>
      </trkpt>
      <trkpt lat="42.76123" lon="1.54454">
        <ele>1235.462</ele>
        <time>2021-03-06T14:11:20Z</time>
      </trkpt>
      <trkpt lat="42.76123" lon="1.5445">
        <ele>1236.105</ele>
        <time>2021-03-06T14:11:22Z</time>
      </trkpt>
      <trkpt lat="42.76123" lon="1.54446">
        <ele>1235.672</ele>
        <time>2021-03-06T14:11:24Z</time>
      </trkpt>
      <trkpt lat="42.76124" lon="1.54442">
        <ele>1235.873</ele>
        <time>2021-03-06T14:11:26Z</time>
      </trkpt>
      <trkpt lat="42.76125" lon="1.54439">
        <ele>1234.861</ele>
        <time>2021-03-06T14:11:28Z</time>
      </trkpt>
      <trkpt lat="42.76125" lon="1.54434">
        <ele>1233.35</ele>
        <time>2021-03-06T14:11:30Z</time>
      </trkpt>
      <trkpt lat="42.76124" lon="1.5443">
        <ele>1233.448</ele>
        <time>2021-03-06T14:11:32Z</time>
      </trkpt>
      <trkpt lat="42.76124" lon="1.54425">
        <ele>1234.534</ele>
        <time>2021-03-06T14:11:34Z</time>
      </trkpt>
      <trkpt lat="42.76123" lon="1.54421">
        <ele>1234.65</ele>
        <time>2021-03-06T14:11:36Z</time>
      </trkpt>
      <trkpt lat="42.76123" lon="1.54417">
        <ele>1235.362</ele>
        <time>2021-03-06T14:11:38Z</time>
      </trkpt>
      <trkpt lat="42.76123" lon="1.54412">
        <ele>1236.485</ele>
        <time>2021-03-06T14:11:40Z</time>
      </trkpt>
      <trkpt lat="42.76123" lon="1.54408">
        <ele>1236.058</ele>
        <time>2021-03-06T14:11:42Z</time>
      </trkpt>
      <trkpt lat="42.76122" lon="1.54405">
        <ele>1233.558</ele>
        <time>2021-03-06T14:11:44Z</time>
      </trkpt>
      <trkpt lat="42.76122" lon="1.54401">
        <ele>1233.24</ele>
        <time>2021-03-06T14:11:46Z</time>
      </trkpt>
      <trkpt lat="42.76122" lon="1.54397">
        <ele>1231.239</ele>
        <time>2021-03-06T14:11:48Z</time>
      </trkpt>
      <trkpt lat="42.76122" lon="1.54394">
        <ele>1231.602</ele>
        <time>2021-03-06T14:11:50Z</time>
      </trkpt>
      <trkpt lat="42.76122" lon="1.5439">
        <ele>1231.678</ele>
        <time>2021-03-06T14:11:52Z</time>
      </trkpt>
      <trkpt lat="42.76123" lon="1.54386">
        <ele>1231.737</ele>
        <time>2021-03-06T14:11:54Z</time>
      </trkpt>
      <trkpt lat="42.76122" lon="1.54382">
        <ele>1233.99</ele>
        <time>2021-03-06T14:11:56Z</time>
      </trkpt>
      <trkpt lat="42.76123" lon="1.54377">
        <ele>1234.403</ele>
        <time>2021-03-06T14:11:58Z</time>
      </trkpt>
      <trkpt lat="42.76123" lon="1.54373">
        <ele>1233.739</ele>
        <time>2021-03-06T14:12:00Z</time>
      </trkpt>
      <trkpt lat="42.76123" lon="1.54369">
        <ele>1234.243</ele>
        <time>2021-03-06T14:12:02Z</time>
      </trkpt>
      <trkpt lat="42.76125" lon="1.54366">
        <ele>1234.788</ele>
        <time>2021-03-06T14:12:04Z</time>
      </trkpt>
      <trkpt lat="42.76125" lon="1.54362">
        <ele>1233.812</ele>
        <time>2021-03-06T14:12:06Z</time>
      </trkpt>
      <trkpt lat="42.76125" lon="1.54358">
        <ele>1232.019</ele>
        <time>2021-03-06T14:12:08Z</time>
      </trkpt>
      <trkpt lat="42.76126" lon="1.54354">
        <ele>1231.935</ele>
        <time>2021-03-06T14:12:10Z</time>
      </trkpt>
      <trkpt lat="42.76127" lon="1.5435">
        <ele>1232.17</ele>
        <time>2021-03-06T14:12:12Z</time>
      </trkpt>
      <trkpt lat="42.76128" lon="1.54347">
        <ele>1230.979</ele>
        <time>2021-03-06T14:12:14Z</time>
      </trkpt>
      <trkpt lat="42.76129" lon="1.54343">
        <ele>1230.573</ele>
        <time>2021-03-06T14:12:16Z</time>
      </trkpt>
      <trkpt lat="42.76131" lon="1.5434">
        <ele>1229.84</ele>
        <time>2021-03-06T14:12:18Z</time>
      </trkpt>
      <trkpt lat="42.76132" lon="1.54335">
        <ele>1231.602</ele>
        <time>2021-03-06T14:12:20Z</time>
      </trkpt>
      <trkpt lat="42.76132" lon="1.54331">
        <ele>1232.55</ele>
        <time>2021-03-06T14:12:22Z</time>
      </trkpt>
      <trkpt lat="42.76133" lon="1.54327">
        <ele>1233.734</ele>
        <time>2021-03-06T14:12:24Z</time>
      </trkpt>
      <trkpt lat="42.76134" lon="1.54322">
        <ele>1235.926</ele>
        <time>2021-03-06T14:12:26Z</time>
      </trkpt>
      <trkpt lat="42.76135" lon="1.54317">
        <ele>1235.462</ele>
        <time>2021-03-06T14:12:28Z</time>
      </trkpt>
      <trkpt lat="42.76136" lon="1.54314">
        <ele>1235.683</ele>
        <time>2021-03-06T14:12:30Z</time>
      </trkpt>
      <trkpt lat="42.76137" lon="1.5431">
        <ele>1234.731</ele>
        <time>2021-03-06T14:12:32Z</time>
      </trkpt>
      <trkpt lat="42.76139" lon="1.54307">
        <ele>1233.95</ele>
        <time>2021-03-06T14:12:34Z</time>
      </trkpt>
      <trkpt lat="42.7614" lon="1.54304">
        <ele>1234.373</ele>
        <time>2021-03-06T14:12:36Z</time>
      </trkpt>
      <trkpt lat="42.76141" lon="1.543">
        <ele>1233.774</ele>
        <time>2021-03-06T14:12:38Z</time>
      </trkpt>
      <trkpt lat="42.76143" lon="1.54297">
        <ele>1234.664</ele>
        <time>2021-03-06T14:12:40Z</time>
      </trkpt>
      <trkpt lat="42.76144" lon="1.54294">
        <ele>1236.792</ele>
        <time>2021-03-06T14:12:42Z</time>
      </trkpt>
      <trkpt lat="42.76144" lon="1.5429">
        <ele>1234.333</ele>
        <time>2021-03-06T14:12:44Z</time>
      </trkpt>
      <trkpt lat="42.76146" lon="1.54286">
        <ele>1233.117</ele>
        <time>2021-03-06T14:12:46Z</time>
      </trkpt>
      <trkpt lat="42.76147" lon="1.54285">
        <ele>1233.178</ele>
        <time>2021-03-06T14:12:47Z</time>
      </trkpt>
      <trkpt lat="42.76149" lon="1.5428">
        <ele>1231.193</ele>
        <time>2021-03-06T14:12:50Z</time>
      </trkpt>
      <trkpt lat="42.76151" lon="1.54278">
        <ele>1230.495</ele>
        <time>2021-03-06T14:12:52Z</time>
      </trkpt>
      <trkpt lat="42.76153" lon="1.54273">
        <ele>1232.935</ele>
        <time>2021-03-06T14:12:54Z</time>
      </trkpt>
      <trkpt lat="42.76153" lon="1.54268">
        <ele>1230.354</ele>
        <time>2021-03-06T14:12:56Z</time>
      </trkpt>
      <trkpt lat="42.76155" lon="1.54263">
        <ele>1231.554</ele>
        <time>2021-03-06T14:12:58Z</time>
      </trkpt>
      <trkpt lat="42.76157" lon="1.5426">
        <ele>1230.032</ele>
        <time>2021-03-06T14:13:00Z</time>
      </trkpt>
      <trkpt lat="42.76159" lon="1.54256">
        <ele>1230.728</ele>
        <time>2021-03-06T14:13:02Z</time>
      </trkpt>
      <trkpt lat="42.7616" lon="1.54252">
        <ele>1232.661</ele>
        <time>2021-03-06T14:13:04Z</time>
      </trkpt>
      <trkpt lat="42.76162" lon="1.54248">
        <ele>1233.209</ele>
        <time>2021-03-06T14:13:06Z</time>
      </trkpt>
      <trkpt lat="42.76164" lon="1.54245">
        <ele>1232.508</ele>
        <time>2021-03-06T14:13:08Z</time>
      </trkpt>
      <trkpt lat="42.76166" lon="1.54242">
        <ele>1232.198</ele>
        <time>2021-03-06T14:13:10Z</time>
      </trkpt>
      <trkpt lat="42.76168" lon="1.54239">
        <ele>1231.418</ele>
        <time>2021-03-06T14:13:12Z</time>
      </trkpt>
      <trkpt lat="42.7617" lon="1.54235">
        <ele>1231.669</ele>
        <time>2021-03-06T14:13:14Z</time>
      </trkpt>
      <trkpt lat="42.76172" lon="1.54233">
        <ele>1230.298</ele>
        <time>2021-03-06T14:13:16Z</time>
      </trkpt>
      <trkpt lat="42.76174" lon="1.5423">
        <ele>1230.167</ele>
        <time>2021-03-06T14:13:18Z</time>
      </trkpt>
      <trkpt lat="42.76176" lon="1.54226">
        <ele>1231.948</ele>
        <time>2021-03-06T14:13:20Z</time>
      </trkpt>
      <trkpt lat="42.76178" lon="1.54223">
        <ele>1234.073</ele>
        <time>2021-03-06T14:13:22Z</time>
      </trkpt>
      <trkpt lat="42.7618" lon="1.54219">
        <ele>1236.489</ele>
        <time>2021-03-06T14:13:24Z</time>
      </trkpt>
      <trkpt lat="42.76183" lon="1.54216">
        <ele>1237.52</ele>
        <time>2021-03-06T14:13:26Z</time>
      </trkpt>
      <trkpt lat="42.76186" lon="1.54213">
        <ele>1237.477</ele>
        <time>2021-03-06T14:13:28Z</time>
      </trkpt>
      <trkpt lat="42.76189" lon="1.54212">
        <ele>1238.317</ele>
        <time>2021-03-06T14:13:30Z</time>
      </trkpt>
      <trkpt lat="42.76192" lon="1.5421">
        <ele>1240.614</ele>
        <time>2021-03-06T14:13:32Z</time>
      </trkpt>
      <trkpt lat="42.76194" lon="1.54209">
        <ele>1243.56</ele>
        <time>2021-03-06T14:13:34Z</time>
      </trkpt>
      <trkpt lat="42.76197" lon="1.54207">
        <ele>1243.328</ele>
        <time>2021-03-06T14:13:36Z</time>
      </trkpt>
      <trkpt lat="42.76199" lon="1.54206">
        <ele>1243.252</ele>
        <time>2021-03-06T14:13:38Z</time>
      </trkpt>
      <trkpt lat="42.76202" lon="1.54205">
        <ele>1243.343</ele>
        <time>2021-03-06T14:13:40Z</time>
      </trkpt>
      <trkpt lat="42.76205" lon="1.54204">
        <ele>1242.923</ele>
        <time>2021-03-06T14:13:42Z</time>
      </trkpt>
      <trkpt lat="42.76208" lon="1.54203">
        <ele>1244.868</ele>
        <time>2021-03-06T14:13:44Z</time>
      </trkpt>
      <trkpt lat="42.7621" lon="1.54202">
        <ele>1244.896</ele>
        <time>2021-03-06T14:13:46Z</time>
      </trkpt>
      <trkpt lat="42.76213" lon="1.54201">
        <ele>1245.474</ele>
        <time>2021-03-06T14:13:48Z</time>
      </trkpt>
      <trkpt lat="42.76216" lon="1.54201">
        <ele>1246.02</ele>
        <time>2021-03-06T14:13:50Z</time>
      </trkpt>
      <trkpt lat="42.76218" lon="1.542">
        <ele>1244.972</ele>
        <time>2021-03-06T14:13:52Z</time>
      </trkpt>
      <trkpt lat="42.76221" lon="1.542">
        <ele>1244.376</ele>
        <time>2021-03-06T14:13:54Z</time>
      </trkpt>
      <trkpt lat="42.76224" lon="1.54199">
        <ele>1243.619</ele>
        <time>2021-03-06T14:13:56Z</time>
      </trkpt>
      <trkpt lat="42.76226" lon="1.54199">
        <ele>1243.49</ele>
        <time>2021-03-06T14:13:58Z</time>
      </trkpt>
      <trkpt lat="42.76229" lon="1.54198">
        <ele>1241.677</ele>
        <time>2021-03-06T14:14:00Z</time>
      </trkpt>
      <trkpt lat="42.76231" lon="1.54196">
        <ele>1239.898</ele>
        <time>2021-03-06T14:14:02Z</time>
      </trkpt>
      <trkpt lat="42.76234" lon="1.54194">
        <ele>1237.945</ele>
        <time>2021-03-06T14:14:04Z</time>
      </trkpt>
      <trkpt lat="42.76236" lon="1.54193">
        <ele>1237.104</ele>
        <time>2021-03-06T14:14:06Z</time>
      </trkpt>
      <trkpt lat="42.76239" lon="1.54192">
        <ele>1236.301</ele>
        <time>2021-03-06T14:14:08Z</time>
      </trkpt>
      <trkpt lat="42.76242" lon="1.54191">
        <ele>1235.818</ele>
        <time>2021-03-06T14:14:10Z</time>
      </trkpt>
      <trkpt lat="42.76245" lon="1.54191">
        <ele>1235.455</ele>
        <time>2021-03-06T14:14:12Z</time>
      </trkpt>
      <trkpt lat="42.76248" lon="1.54191">
        <ele>1235.311</ele>
        <time>2021-03-06T14:14:14Z</time>
      </trkpt>
      <trkpt lat="42.76251" lon="1.5419">
        <ele>1233.72</ele>
        <time>2021-03-06T14:14:16Z</time>
      </trkpt>
      <trkpt lat="42.76254" lon="1.54192">
        <ele>1234.368</ele>
        <time>2021-03-06T14:14:18Z</time>
      </trkpt>
      <trkpt lat="42.76258" lon="1.5419">
        <ele>1234.63</ele>
        <time>2021-03-06T14:14:20Z</time>
      </trkpt>
      <trkpt lat="42.76261" lon="1.5419">
        <ele>1235.319</ele>
        <time>2021-03-06T14:14:22Z</time>
      </trkpt>
      <trkpt lat="42.76264" lon="1.54189">
        <ele>1234.692</ele>
        <time>2021-03-06T14:14:24Z</time>
      </trkpt>
      <trkpt lat="42.76266" lon="1.54188">
        <ele>1234.036</ele>
        <time>2021-03-06T14:14:26Z</time>
      </trkpt>
      <trkpt lat="42.76268" lon="1.54186">
        <ele>1233.399</ele>
        <time>2021-03-06T14:14:28Z</time>
      </trkpt>
      <trkpt lat="42.76272" lon="1.54184">
        <ele>1233.755</ele>
        <time>2021-03-06T14:14:30Z</time>
      </trkpt>
      <trkpt lat="42.76275" lon="1.54183">
        <ele>1233.902</ele>
        <time>2021-03-06T14:14:32Z</time>
      </trkpt>
      <trkpt lat="42.76277" lon="1.54179">
        <ele>1231.38</ele>
        <time>2021-03-06T14:14:34Z</time>
      </trkpt>
      <trkpt lat="42.76281" lon="1.54179">
        <ele>1235.376</ele>
        <time>2021-03-06T14:14:36Z</time>
      </trkpt>
      <trkpt lat="42.76284" lon="1.54179">
        <ele>1236.044</ele>
        <time>2021-03-06T14:14:38Z</time>
      </trkpt>
      <trkpt lat="42.76287" lon="1.54178">
        <ele>1235.624</ele>
        <time>2021-03-06T14:14:40Z</time>
      </trkpt>
      <trkpt lat="42.7629" lon="1.54176">
        <ele>1233.726</ele>
        <time>2021-03-06T14:14:42Z</time>
      </trkpt>
      <trkpt lat="42.76293" lon="1.54175">
        <ele>1233.217</ele>
        <time>2021-03-06T14:14:44Z</time>
      </trkpt>
      <trkpt lat="42.76296" lon="1.54173">
        <ele>1231.885</ele>
        <time>2021-03-06T14:14:46Z</time>
      </trkpt>
      <trkpt lat="42.76297" lon="1.54173">
        <ele>1230.93</ele>
        <time>2021-03-06T14:14:48Z</time>
      </trkpt>
      <trkpt lat="42.76297" lon="1.54169">
        <ele>1227.924</ele>
        <time>2021-03-06T14:14:50Z</time>
      </trkpt>
      <trkpt lat="42.76299" lon="1.54167">
        <ele>1226.83</ele>
        <time>2021-03-06T14:14:52Z</time>
      </trkpt>
      <trkpt lat="42.76303" lon="1.54166">
        <ele>1226.72</ele>
        <time>2021-03-06T14:14:54Z</time>
      </trkpt>
      <trkpt lat="42.76304" lon="1.54166">
        <ele>1227.185</ele>
        <time>2021-03-06T14:14:55Z</time>
      </trkpt>
      <trkpt lat="42.76309" lon="1.54164">
        <ele>1227.794</ele>
        <time>2021-03-06T14:14:58Z</time>
      </trkpt>
      <trkpt lat="42.76312" lon="1.54164">
        <ele>1227.402</ele>
        <time>2021-03-06T14:15:00Z</time>
      </trkpt>
      <trkpt lat="42.76314" lon="1.54164">
        <ele>1227.404</ele>
        <time>2021-03-06T14:15:02Z</time>
      </trkpt>
      <trkpt lat="42.76317" lon="1.54163">
        <ele>1226.66</ele>
        <time>2021-03-06T14:15:04Z</time>
      </trkpt>
      <trkpt lat="42.7632" lon="1.54162">
        <ele>1227.457</ele>
        <time>2021-03-06T14:15:06Z</time>
      </trkpt>
      <trkpt lat="42.76323" lon="1.54161">
        <ele>1226.719</ele>
        <time>2021-03-06T14:15:08Z</time>
      </trkpt>
      <trkpt lat="42.76325" lon="1.5416">
        <ele>1225.363</ele>
        <time>2021-03-06T14:15:10Z</time>
      </trkpt>
      <trkpt lat="42.76327" lon="1.5416">
        <ele>1225.066</ele>
        <time>2021-03-06T14:15:12Z</time>
      </trkpt>
      <trkpt lat="42.7633" lon="1.5416">
        <ele>1225.047</ele>
        <time>2021-03-06T14:15:14Z</time>
      </trkpt>
      <trkpt lat="42.76334" lon="1.54159">
        <ele>1225.814</ele>
        <time>2021-03-06T14:15:17Z</time>
      </trkpt>
      <trkpt lat="42.76336" lon="1.54159">
        <ele>1226.381</ele>
        <time>2021-03-06T14:15:19Z</time>
      </trkpt>
      <trkpt lat="42.76339" lon="1.54157">
        <ele>1225.563</ele>
        <time>2021-03-06T14:15:21Z</time>
      </trkpt>
      <trkpt lat="42.76342" lon="1.54156">
        <ele>1225.056</ele>
        <time>2021-03-06T14:15:23Z</time>
      </trkpt>
      <trkpt lat="42.76345" lon="1.54155">
        <ele>1224.574</ele>
        <time>2021-03-06T14:15:25Z</time>
      </trkpt>
      <trkpt lat="42.76347" lon="1.54153">
        <ele>1224.148</ele>
        <time>2021-03-06T14:15:27Z</time>
      </trkpt>
      <trkpt lat="42.7635" lon="1.54152">
        <ele>1223.044</ele>
        <time>2021-03-06T14:15:29Z</time>
      </trkpt>
      <trkpt lat="42.76353" lon="1.5415">
        <ele>1222.276</ele>
        <time>2021-03-06T14:15:31Z</time>
      </trkpt>
      <trkpt lat="42.76356" lon="1.54149">
        <ele>1222.056</ele>
        <time>2021-03-06T14:15:33Z</time>
      </trkpt>
      <trkpt lat="42.76358" lon="1.54148">
        <ele>1220.389</ele>
        <time>2021-03-06T14:15:35Z</time>
      </trkpt>
      <trkpt lat="42.76361" lon="1.54146">
        <ele>1220.489</ele>
        <time>2021-03-06T14:15:37Z</time>
      </trkpt>
      <trkpt lat="42.76364" lon="1.54145">
        <ele>1219.806</ele>
        <time>2021-03-06T14:15:39Z</time>
      </trkpt>
      <trkpt lat="42.76366" lon="1.54143">
        <ele>1218.992</ele>
        <time>2021-03-06T14:15:41Z</time>
      </trkpt>
      <trkpt lat="42.76369" lon="1.54141">
        <ele>1218.698</ele>
        <time>2021-03-06T14:15:43Z</time>
      </trkpt>
      <trkpt lat="42.76371" lon="1.54138">
        <ele>1216.476</ele>
        <time>2021-03-06T14:15:45Z</time>
      </trkpt>
      <trkpt lat="42.76374" lon="1.54137">
        <ele>1216.016</ele>
        <time>2021-03-06T14:15:47Z</time>
      </trkpt>
      <trkpt lat="42.76376" lon="1.54136">
        <ele>1214.155</ele>
        <time>2021-03-06T14:15:49Z</time>
      </trkpt>
      <trkpt lat="42.76379" lon="1.54135">
        <ele>1212.904</ele>
        <time>2021-03-06T14:15:51Z</time>
      </trkpt>
      <trkpt lat="42.76381" lon="1.54134">
        <ele>1212.036</ele>
        <time>2021-03-06T14:15:53Z</time>
      </trkpt>
      <trkpt lat="42.76384" lon="1.54134">
        <ele>1210.872</ele>
        <time>2021-03-06T14:15:55Z</time>
      </trkpt>
      <trkpt lat="42.76387" lon="1.54134">
        <ele>1209.872</ele>
        <time>2021-03-06T14:15:57Z</time>
      </trkpt>
      <trkpt lat="42.76391" lon="1.54134">
        <ele>1208.819</ele>
        <time>2021-03-06T14:15:59Z</time>
      </trkpt>
      <trkpt lat="42.76395" lon="1.54134">
        <ele>1208.19</ele>
        <time>2021-03-06T14:16:01Z</time>
      </trkpt>
      <trkpt lat="42.76398" lon="1.54134">
        <ele>1206.614</ele>
        <time>2021-03-06T14:16:03Z</time>
      </trkpt>
      <trkpt lat="42.76401" lon="1.54135">
        <ele>1204.837</ele>
        <time>2021-03-06T14:16:05Z</time>
      </trkpt>
      <trkpt lat="42.76405" lon="1.54136">
        <ele>1204.816</ele>
        <time>2021-03-06T14:16:07Z</time>
      </trkpt>
      <trkpt lat="42.76408" lon="1.54138">
        <ele>1204.764</ele>
        <time>2021-03-06T14:16:09Z</time>
      </trkpt>
      <trkpt lat="42.76411" lon="1.54139">
        <ele>1203.67</ele>
        <time>2021-03-06T14:16:11Z</time>
      </trkpt>
      <trkpt lat="42.76413" lon="1.5414">
        <ele>1203.22</ele>
        <time>2021-03-06T14:16:13Z</time>
      </trkpt>
      <trkpt lat="42.76416" lon="1.54142">
        <ele>1202.508</ele>
        <time>2021-03-06T14:16:15Z</time>
      </trkpt>
      <trkpt lat="42.76419" lon="1.54144">
        <ele>1201.729</ele>
        <time>2021-03-06T14:16:17Z</time>
      </trkpt>
      <trkpt lat="42.76421" lon="1.54146">
        <ele>1200.017</ele>
        <time>2021-03-06T14:16:19Z</time>
      </trkpt>
      <trkpt lat="42.76424" lon="1.54148">
        <ele>1198.943</ele>
        <time>2021-03-06T14:16:21Z</time>
      </trkpt>
      <trkpt lat="42.76427" lon="1.5415">
        <ele>1199.237</ele>
        <time>2021-03-06T14:16:23Z</time>
      </trkpt>
      <trkpt lat="42.76431" lon="1.54153">
        <ele>1200.317</ele>
        <time>2021-03-06T14:16:25Z</time>
      </trkpt>
      <trkpt lat="42.76434" lon="1.54156">
        <ele>1199.737</ele>
        <time>2021-03-06T14:16:27Z</time>
      </trkpt>
      <trkpt lat="42.76436" lon="1.54158">
        <ele>1199.644</ele>
        <time>2021-03-06T14:16:29Z</time>
      </trkpt>
      <trkpt lat="42.76439" lon="1.5416">
        <ele>1199.65</ele>
        <time>2021-03-06T14:16:31Z</time>
      </trkpt>
      <trkpt lat="42.76443" lon="1.54165">
        <ele>1199.948</ele>
        <time>2021-03-06T14:16:34Z</time>
      </trkpt>
      <trkpt lat="42.76446" lon="1.54168">
        <ele>1200.52</ele>
        <time>2021-03-06T14:16:36Z</time>
      </trkpt>
      <trkpt lat="42.76448" lon="1.54171">
        <ele>1200.475</ele>
        <time>2021-03-06T14:16:38Z</time>
      </trkpt>
      <trkpt lat="42.76451" lon="1.54174">
        <ele>1201.131</ele>
        <time>2021-03-06T14:16:40Z</time>
      </trkpt>
      <trkpt lat="42.76453" lon="1.54178">
        <ele>1201.516</ele>
        <time>2021-03-06T14:16:42Z</time>
      </trkpt>
      <trkpt lat="42.76454" lon="1.54181">
        <ele>1201.146</ele>
        <time>2021-03-06T14:16:44Z</time>
      </trkpt>
      <trkpt lat="42.76457" lon="1.54184">
        <ele>1201.725</ele>
        <time>2021-03-06T14:16:46Z</time>
      </trkpt>
      <trkpt lat="42.76459" lon="1.54188">
        <ele>1201.591</ele>
        <time>2021-03-06T14:16:48Z</time>
      </trkpt>
      <trkpt lat="42.76462" lon="1.54192">
        <ele>1201.254</ele>
        <time>2021-03-06T14:16:50Z</time>
      </trkpt>
      <trkpt lat="42.76464" lon="1.54196">
        <ele>1202.26</ele>
        <time>2021-03-06T14:16:52Z</time>
      </trkpt>
      <trkpt lat="42.76466" lon="1.542">
        <ele>1201.988</ele>
        <time>2021-03-06T14:16:54Z</time>
      </trkpt>
      <trkpt lat="42.76468" lon="1.54204">
        <ele>1202.503</ele>
        <time>2021-03-06T14:16:56Z</time>
      </trkpt>
      <trkpt lat="42.7647" lon="1.54208">
        <ele>1202.744</ele>
        <time>2021-03-06T14:16:58Z</time>
      </trkpt>
      <trkpt lat="42.76472" lon="1.54211">
        <ele>1202.333</ele>
        <time>2021-03-06T14:17:00Z</time>
      </trkpt>
      <trkpt lat="42.76474" lon="1.54215">
        <ele>1202.147</ele>
        <time>2021-03-06T14:17:02Z</time>
      </trkpt>
      <trkpt lat="42.76476" lon="1.54219">
        <ele>1202.408</ele>
        <time>2021-03-06T14:17:04Z</time>
      </trkpt>
      <trkpt lat="42.76477" lon="1.54222">
        <ele>1202.218</ele>
        <time>2021-03-06T14:17:06Z</time>
      </trkpt>
      <trkpt lat="42.76479" lon="1.54225">
        <ele>1201.867</ele>
        <time>2021-03-06T14:17:08Z</time>
      </trkpt>
      <trkpt lat="42.76481" lon="1.54229">
        <ele>1201.404</ele>
        <time>2021-03-06T14:17:10Z</time>
      </trkpt>
      <trkpt lat="42.76482" lon="1.54232">
        <ele>1200.606</ele>
        <time>2021-03-06T14:17:12Z</time>
      </trkpt>
      <trkpt lat="42.76483" lon="1.54235">
        <ele>1200.96</ele>
        <time>2021-03-06T14:17:14Z</time>
      </trkpt>
      <trkpt lat="42.76485" lon="1.54239">
        <ele>1200.296</ele>
        <time>2021-03-06T14:17:16Z</time>
      </trkpt>
      <trkpt lat="42.76487" lon="1.54243">
        <ele>1200.093</ele>
        <time>2021-03-06T14:17:18Z</time>
      </trkpt>
      <trkpt lat="42.76488" lon="1.54246">
        <ele>1199.825</ele>
        <time>2021-03-06T14:17:20Z</time>
      </trkpt>
      <trkpt lat="42.76489" lon="1.54249">
        <ele>1199.916</ele>
        <time>2021-03-06T14:17:22Z</time>
      </trkpt>
      <trkpt lat="42.76491" lon="1.54254">
        <ele>1199.997</ele>
        <time>2021-03-06T14:17:24Z</time>
      </trkpt>
      <trkpt lat="42.76492" lon="1.54258">
        <ele>1200.663</ele>
        <time>2021-03-06T14:17:26Z</time>
      </trkpt>
      <trkpt lat="42.76494" lon="1.54261">
        <ele>1199.797</ele>
        <time>2021-03-06T14:17:28Z</time>
      </trkpt>
      <trkpt lat="42.76495" lon="1.54265">
        <ele>1199.271</ele>
        <time>2021-03-06T14:17:30Z</time>
      </trkpt>
      <trkpt lat="42.76494" lon="1.54271">
        <ele>1201.209</ele>
        <time>2021-03-06T14:17:32Z</time>
      </trkpt>
      <trkpt lat="42.76496" lon="1.54275">
        <ele>1200.146</ele>
        <time>2021-03-06T14:17:34Z</time>
      </trkpt>
      <trkpt lat="42.76497" lon="1.54279">
        <ele>1200.052</ele>
        <time>2021-03-06T14:17:36Z</time>
      </trkpt>
      <trkpt lat="42.76498" lon="1.54283">
        <ele>1199.837</ele>
        <time>2021-03-06T14:17:38Z</time>
      </trkpt>
      <trkpt lat="42.765" lon="1.54286">
        <ele>1200.052</ele>
        <time>2021-03-06T14:17:40Z</time>
      </trkpt>
      <trkpt lat="42.765" lon="1.5429">
        <ele>1201.206</ele>
        <time>2021-03-06T14:17:42Z</time>
      </trkpt>
      <trkpt lat="42.76501" lon="1.54294">
        <ele>1201.087</ele>
        <time>2021-03-06T14:17:44Z</time>
      </trkpt>
      <trkpt lat="42.76503" lon="1.54298">
        <ele>1200.698</ele>
        <time>2021-03-06T14:17:46Z</time>
      </trkpt>
      <trkpt lat="42.76504" lon="1.54301">
        <ele>1201.238</ele>
        <time>2021-03-06T14:17:48Z</time>
      </trkpt>
      <trkpt lat="42.76505" lon="1.54305">
        <ele>1201.533</ele>
        <time>2021-03-06T14:17:50Z</time>
      </trkpt>
      <trkpt lat="42.76506" lon="1.54309">
        <ele>1201.647</ele>
        <time>2021-03-06T14:17:52Z</time>
      </trkpt>
      <trkpt lat="42.76507" lon="1.54313">
        <ele>1201.476</ele>
        <time>2021-03-06T14:17:54Z</time>
      </trkpt>
      <trkpt lat="42.76507" lon="1.54317">
        <ele>1201.25</ele>
        <time>2021-03-06T14:17:56Z</time>
      </trkpt>
      <trkpt lat="42.76508" lon="1.5432">
        <ele>1200.52</ele>
        <time>2021-03-06T14:17:58Z</time>
      </trkpt>
      <trkpt lat="42.76507" lon="1.54323">
        <ele>1201.11</ele>
        <time>2021-03-06T14:18:00Z</time>
      </trkpt>
      <trkpt lat="42.76507" lon="1.54327">
        <ele>1200.859</ele>
        <time>2021-03-06T14:18:02Z</time>
      </trkpt>
      <trkpt lat="42.76508" lon="1.5433">
        <ele>1201.897</ele>
        <time>2021-03-06T14:18:04Z</time>
      </trkpt>
      <trkpt lat="42.76508" lon="1.54333">
        <ele>1203.508</ele>
        <time>2021-03-06T14:18:06Z</time>
      </trkpt>
      <trkpt lat="42.76506" lon="1.54328">
        <ele>1203.259</ele>
        <time>2021-03-06T14:18:08Z</time>
      </trkpt>
      <trkpt lat="42.76506" lon="1.54331">
        <ele>1204.072</ele>
        <time>2021-03-06T14:18:10Z</time>
      </trkpt>
      <trkpt lat="42.76506" lon="1.54332">
        <ele>1204.291</ele>
        <time>2021-03-06T14:18:12Z</time>
      </trkpt>
      <trkpt lat="42.76506" lon="1.54332">
        <ele>1204.372</ele>
        <time>2021-03-06T14:18:14Z</time>
      </trkpt>
      <trkpt lat="42.76507" lon="1.54332">
        <ele>1204.329</ele>
        <time>2021-03-06T14:18:16Z</time>
      </trkpt>
      <trkpt lat="42.76507" lon="1.54332">
        <ele>1204.326</ele>
        <time>2021-03-06T14:18:18Z</time>
      </trkpt>
      <trkpt lat="42.76507" lon="1.54332">
        <ele>1204.32</ele>
        <time>2021-03-06T14:18:20Z</time>
      </trkpt>
      <trkpt lat="42.76507" lon="1.54332">
        <ele>1204.319</ele>
        <time>2021-03-06T14:18:22Z</time>
      </trkpt>
      <trkpt lat="42.76507" lon="1.54332">
        <ele>1204.326</ele>
        <time>2021-03-06T14:18:24Z</time>
      </trkpt>
      <trkpt lat="42.76507" lon="1.54332">
        <ele>1204.002</ele>
        <time>2021-03-06T14:18:26Z</time>
      </trkpt>
      <trkpt lat="42.76507" lon="1.54332">
        <ele>1204.007</ele>
        <time>2021-03-06T14:18:28Z</time>
      </trkpt>
      <trkpt lat="42.76507" lon="1.54332">
        <ele>1203.999</ele>
        <time>2021-03-06T14:18:30Z</time>
      </trkpt>
      <trkpt lat="42.76507" lon="1.54332">
        <ele>1204.015</ele>
        <time>2021-03-06T14:18:32Z</time>
      </trkpt>
      <trkpt lat="42.76507" lon="1.54332">
        <ele>1204.028</ele>
        <time>2021-03-06T14:18:34Z</time>
      </trkpt>
      <trkpt lat="42.76507" lon="1.54332">
        <ele>1204.042</ele>
        <time>2021-03-06T14:18:36Z</time>
      </trkpt>
      <trkpt lat="42.76507" lon="1.54332">
        <ele>1204.066</ele>
        <time>2021-03-06T14:18:38Z</time>
      </trkpt>
      <trkpt lat="42.76507" lon="1.54332">
        <ele>1204.069</ele>
        <time>2021-03-06T14:18:40Z</time>
      </trkpt>
      <trkpt lat="42.76507" lon="1.54332">
        <ele>1204.239</ele>
        <time>2021-03-06T14:18:42Z</time>
      </trkpt>
      <trkpt lat="42.76507" lon="1.54332">
        <ele>1204.241</ele>
        <time>2021-03-06T14:18:44Z</time>
      </trkpt>
      <trkpt lat="42.76507" lon="1.54332">
        <ele>1204.241</ele>
        <time>2021-03-06T14:18:46Z</time>
      </trkpt>
      <trkpt lat="42.76507" lon="1.54332">
        <ele>1204.244</ele>
        <time>2021-03-06T14:18:48Z</time>
      </trkpt>
      <trkpt lat="42.76507" lon="1.54332">
        <ele>1204.244</ele>
        <time>2021-03-06T14:18:50Z</time>
      </trkpt>
      <trkpt lat="42.76507" lon="1.54332">
        <ele>1204.242</ele>
        <time>2021-03-06T14:18:52Z</time>
      </trkpt>
      <trkpt lat="42.76507" lon="1.54332">
        <ele>1204.234</ele>
        <time>2021-03-06T14:18:54Z</time>
      </trkpt>
      <trkpt lat="42.76507" lon="1.54332">
        <ele>1204.229</ele>
        <time>2021-03-06T14:18:56Z</time>
      </trkpt>
      <trkpt lat="42.76507" lon="1.54332">
        <ele>1204.226</ele>
        <time>2021-03-06T14:18:58Z</time>
      </trkpt>
      <trkpt lat="42.76507" lon="1.54332">
        <ele>1204.232</ele>
        <time>2021-03-06T14:19:00Z</time>
      </trkpt>
      <trkpt lat="42.76507" lon="1.54332">
        <ele>1204.246</ele>
        <time>2021-03-06T14:19:02Z</time>
      </trkpt>
      <trkpt lat="42.76507" lon="1.54332">
        <ele>1204.254</ele>
        <time>2021-03-06T14:19:04Z</time>
      </trkpt>
      <trkpt lat="42.76507" lon="1.54331">
        <ele>1204.344</ele>
        <time>2021-03-06T14:19:06Z</time>
      </trkpt>
      <trkpt lat="42.76507" lon="1.5433">
        <ele>1203.844</ele>
        <time>2021-03-06T14:19:08Z</time>
      </trkpt>
      <trkpt lat="42.76508" lon="1.5433">
        <ele>1203.828</ele>
        <time>2021-03-06T14:19:10Z</time>
      </trkpt>
      <trkpt lat="42.76508" lon="1.5433">
        <ele>1203.825</ele>
        <time>2021-03-06T14:19:12Z</time>
      </trkpt>
      <trkpt lat="42.76508" lon="1.5433">
        <ele>1203.824</ele>
        <time>2021-03-06T14:19:14Z</time>
      </trkpt>
      <trkpt lat="42.76507" lon="1.5433">
        <ele>1203.817</ele>
        <time>2021-03-06T14:19:16Z</time>
      </trkpt>
      <trkpt lat="42.76507" lon="1.5433">
        <ele>1203.877</ele>
        <time>2021-03-06T14:19:18Z</time>
      </trkpt>
      <trkpt lat="42.76507" lon="1.5433">
        <ele>1203.885</ele>
        <time>2021-03-06T14:19:20Z</time>
      </trkpt>
      <trkpt lat="42.76507" lon="1.5433">
        <ele>1203.72</ele>
        <time>2021-03-06T14:19:22Z</time>
      </trkpt>
      <trkpt lat="42.76507" lon="1.54331">
        <ele>1202.935</ele>
        <time>2021-03-06T14:19:24Z</time>
      </trkpt>
      <trkpt lat="42.76507" lon="1.54331">
        <ele>1203.081</ele>
        <time>2021-03-06T14:19:26Z</time>
      </trkpt>
      <trkpt lat="42.76507" lon="1.54331">
        <ele>1202.762</ele>
        <time>2021-03-06T14:19:28Z</time>
      </trkpt>
      <trkpt lat="42.76507" lon="1.54331">
        <ele>1202.797</ele>
        <time>2021-03-06T14:19:30Z</time>
      </trkpt>
      <trkpt lat="42.76507" lon="1.54331">
        <ele>1202.793</ele>
        <time>2021-03-06T14:19:32Z</time>
      </trkpt>
      <trkpt lat="42.76507" lon="1.54331">
        <ele>1202.79</ele>
        <time>2021-03-06T14:19:34Z</time>
      </trkpt>
      <trkpt lat="42.76507" lon="1.54331">
        <ele>1202.794</ele>
        <time>2021-03-06T14:19:36Z</time>
      </trkpt>
      <trkpt lat="42.76507" lon="1.54331">
        <ele>1202.789</ele>
        <time>2021-03-06T14:19:38Z</time>
      </trkpt>
      <trkpt lat="42.76507" lon="1.54331">
        <ele>1202.792</ele>
        <time>2021-03-06T14:19:40Z</time>
      </trkpt>
      <trkpt lat="42.76508" lon="1.54331">
        <ele>1202.154</ele>
        <time>2021-03-06T14:19:42Z</time>
      </trkpt>
      <trkpt lat="42.76509" lon="1.54332">
        <ele>1201.869</ele>
        <time>2021-03-06T14:19:44Z</time>
      </trkpt>
      <trkpt lat="42.76509" lon="1.54334">
        <ele>1202.204</ele>
        <time>2021-03-06T14:19:46Z</time>
      </trkpt>
      <trkpt lat="42.76509" lon="1.54335">
        <ele>1200.087</ele>
        <time>2021-03-06T14:19:48Z</time>
      </trkpt>
      <trkpt lat="42.7651" lon="1.54337">
        <ele>1199.598</ele>
        <time>2021-03-06T14:19:50Z</time>
      </trkpt>
      <trkpt lat="42.76512" lon="1.54339">
        <ele>1199.77</ele>
        <time>2021-03-06T14:19:52Z</time>
      </trkpt>
      <trkpt lat="42.76512" lon="1.54341">
        <ele>1199.467</ele>
        <time>2021-03-06T14:19:54Z</time>
      </trkpt>
      <trkpt lat="42.76514" lon="1.54343">
        <ele>1199.145</ele>
        <time>2021-03-06T14:19:56Z</time>
      </trkpt>
      <trkpt lat="42.76514" lon="1.54346">
        <ele>1198.604</ele>
        <time>2021-03-06T14:19:58Z</time>
      </trkpt>
      <trkpt lat="42.76515" lon="1.54349">
        <ele>1197.749</ele>
        <time>2021-03-06T14:20:00Z</time>
      </trkpt>
      <trkpt lat="42.76517" lon="1.54352">
        <ele>1197.059</ele>
        <time>2021-03-06T14:20:02Z</time>
      </trkpt>
      <trkpt lat="42.76519" lon="1.54354">
        <ele>1195.896</ele>
        <time>2021-03-06T14:20:04Z</time>
      </trkpt>
      <trkpt lat="42.76521" lon="1.54357">
        <ele>1195.536</ele>
        <time>2021-03-06T14:20:06Z</time>
      </trkpt>
      <trkpt lat="42.76522" lon="1.54359">
        <ele>1193.94</ele>
        <time>2021-03-06T14:20:08Z</time>
      </trkpt>
      <trkpt lat="42.76524" lon="1.5436">
        <ele>1193.145</ele>
        <time>2021-03-06T14:20:10Z</time>
      </trkpt>
      <trkpt lat="42.76526" lon="1.54362">
        <ele>1192.008</ele>
        <time>2021-03-06T14:20:12Z</time>
      </trkpt>
      <trkpt lat="42.76528" lon="1.54365">
        <ele>1191.354</ele>
        <time>2021-03-06T14:20:14Z</time>
      </trkpt>
      <trkpt lat="42.7653" lon="1.54368">
        <ele>1191.101</ele>
        <time>2021-03-06T14:20:16Z</time>
      </trkpt>
      <trkpt lat="42.76532" lon="1.5437">
        <ele>1190.77</ele>
        <time>2021-03-06T14:20:18Z</time>
      </trkpt>
      <trkpt lat="42.76533" lon="1.54372">
        <ele>1189.97</ele>
        <time>2021-03-06T14:20:20Z</time>
      </trkpt>
      <trkpt lat="42.76535" lon="1.54374">
        <ele>1190.005</ele>
        <time>2021-03-06T14:20:22Z</time>
      </trkpt>
      <trkpt lat="42.76537" lon="1.54376">
        <ele>1189.421</ele>
        <time>2021-03-06T14:20:24Z</time>
      </trkpt>
      <trkpt lat="42.7654" lon="1.54378">
        <ele>1188.675</ele>
        <time>2021-03-06T14:20:26Z</time>
      </trkpt>
      <trkpt lat="42.76542" lon="1.5438">
        <ele>1187.682</ele>
        <time>2021-03-06T14:20:28Z</time>
      </trkpt>
      <trkpt lat="42.76544" lon="1.54382">
        <ele>1187.212</ele>
        <time>2021-03-06T14:20:30Z</time>
      </trkpt>
      <trkpt lat="42.76547" lon="1.54384">
        <ele>1187.904</ele>
        <time>2021-03-06T14:20:32Z</time>
      </trkpt>
      <trkpt lat="42.7655" lon="1.54385">
        <ele>1187.511</ele>
        <time>2021-03-06T14:20:34Z</time>
      </trkpt>
      <trkpt lat="42.76552" lon="1.54387">
        <ele>1186.873</ele>
        <time>2021-03-06T14:20:36Z</time>
      </trkpt>
      <trkpt lat="42.76555" lon="1.54388">
        <ele>1185.999</ele>
        <time>2021-03-06T14:20:38Z</time>
      </trkpt>
      <trkpt lat="42.76557" lon="1.54389">
        <ele>1185.978</ele>
        <time>2021-03-06T14:20:40Z</time>
      </trkpt>
      <trkpt lat="42.76559" lon="1.54391">
        <ele>1187.481</ele>
        <time>2021-03-06T14:20:42Z</time>
      </trkpt>
      <trkpt lat="42.76562" lon="1.54392">
        <ele>1187.489</ele>
        <time>2021-03-06T14:20:44Z</time>
      </trkpt>
      <trkpt lat="42.76565" lon="1.54392">
        <ele>1187.043</ele>
        <time>2021-03-06T14:20:46Z</time>
      </trkpt>
      <trkpt lat="42.76567" lon="1.54393">
        <ele>1186.752</ele>
        <time>2021-03-06T14:20:48Z</time>
      </trkpt>
      <trkpt lat="42.76569" lon="1.54394">
        <ele>1186.748</ele>
        <time>2021-03-06T14:20:50Z</time>
      </trkpt>
      <trkpt lat="42.76572" lon="1.54395">
        <ele>1187.767</ele>
        <time>2021-03-06T14:20:52Z</time>
      </trkpt>
      <trkpt lat="42.76574" lon="1.54395">
        <ele>1186.889</ele>
        <time>2021-03-06T14:20:54Z</time>
      </trkpt>
      <trkpt lat="42.76577" lon="1.54395">
        <ele>1187.034</ele>
        <time>2021-03-06T14:20:56Z</time>
      </trkpt>
      <trkpt lat="42.76579" lon="1.54395">
        <ele>1187.596</ele>
        <time>2021-03-06T14:20:58Z</time>
      </trkpt>
      <trkpt lat="42.76581" lon="1.54395">
        <ele>1187.956</ele>
        <time>2021-03-06T14:21:00Z</time>
      </trkpt>
      <trkpt lat="42.76583" lon="1.54395">
        <ele>1188.148</ele>
        <time>2021-03-06T14:21:02Z</time>
      </trkpt>
      <trkpt lat="42.76585" lon="1.54394">
        <ele>1188.865</ele>
        <time>2021-03-06T14:21:04Z</time>
      </trkpt>
      <trkpt lat="42.76588" lon="1.54393">
        <ele>1188.178</ele>
        <time>2021-03-06T14:21:06Z</time>
      </trkpt>
      <trkpt lat="42.76589" lon="1.54392">
        <ele>1187.853</ele>
        <time>2021-03-06T14:21:08Z</time>
      </trkpt>
      <trkpt lat="42.76592" lon="1.54391">
        <ele>1188.635</ele>
        <time>2021-03-06T14:21:10Z</time>
      </trkpt>
      <trkpt lat="42.76594" lon="1.5439">
        <ele>1189.349</ele>
        <time>2021-03-06T14:21:12Z</time>
      </trkpt>
      <trkpt lat="42.76596" lon="1.54389">
        <ele>1188.73</ele>
        <time>2021-03-06T14:21:14Z</time>
      </trkpt>
      <trkpt lat="42.76599" lon="1.54389">
        <ele>1187.935</ele>
        <time>2021-03-06T14:21:16Z</time>
      </trkpt>
      <trkpt lat="42.76601" lon="1.54389">
        <ele>1188.362</ele>
        <time>2021-03-06T14:21:18Z</time>
      </trkpt>
      <trkpt lat="42.76604" lon="1.54389">
        <ele>1188.908</ele>
        <time>2021-03-06T14:21:20Z</time>
      </trkpt>
      <trkpt lat="42.76606" lon="1.54388">
        <ele>1189.873</ele>
        <time>2021-03-06T14:21:22Z</time>
      </trkpt>
      <trkpt lat="42.76608" lon="1.54388">
        <ele>1190.677</ele>
        <time>2021-03-06T14:21:24Z</time>
      </trkpt>
      <trkpt lat="42.7661" lon="1.54388">
        <ele>1190.701</ele>
        <time>2021-03-06T14:21:26Z</time>
      </trkpt>
      <trkpt lat="42.76613" lon="1.54388">
        <ele>1192.459</ele>
        <time>2021-03-06T14:21:28Z</time>
      </trkpt>
      <trkpt lat="42.76616" lon="1.54387">
        <ele>1191.32</ele>
        <time>2021-03-06T14:21:30Z</time>
      </trkpt>
      <trkpt lat="42.76619" lon="1.54388">
        <ele>1191.729</ele>
        <time>2021-03-06T14:21:32Z</time>
      </trkpt>
      <trkpt lat="42.76622" lon="1.54388">
        <ele>1191.159</ele>
        <time>2021-03-06T14:21:34Z</time>
      </trkpt>
      <trkpt lat="42.76625" lon="1.54388">
        <ele>1189.468</ele>
        <time>2021-03-06T14:21:36Z</time>
      </trkpt>
      <trkpt lat="42.76627" lon="1.54388">
        <ele>1188.161</ele>
        <time>2021-03-06T14:21:38Z</time>
      </trkpt>
      <trkpt lat="42.7663" lon="1.54388">
        <ele>1187.171</ele>
        <time>2021-03-06T14:21:40Z</time>
      </trkpt>
      <trkpt lat="42.76632" lon="1.54387">
        <ele>1186.049</ele>
        <time>2021-03-06T14:21:42Z</time>
      </trkpt>
      <trkpt lat="42.76634" lon="1.54388">
        <ele>1187.542</ele>
        <time>2021-03-06T14:21:44Z</time>
      </trkpt>
      <trkpt lat="42.76637" lon="1.54388">
        <ele>1187.37</ele>
        <time>2021-03-06T14:21:46Z</time>
      </trkpt>
      <trkpt lat="42.7664" lon="1.54389">
        <ele>1187.561</ele>
        <time>2021-03-06T14:21:48Z</time>
      </trkpt>
      <trkpt lat="42.76643" lon="1.54389">
        <ele>1187.371</ele>
        <time>2021-03-06T14:21:50Z</time>
      </trkpt>
      <trkpt lat="42.76646" lon="1.54389">
        <ele>1186.545</ele>
        <time>2021-03-06T14:21:52Z</time>
      </trkpt>
      <trkpt lat="42.76648" lon="1.54388">
        <ele>1185.881</ele>
        <time>2021-03-06T14:21:54Z</time>
      </trkpt>
      <trkpt lat="42.76651" lon="1.54388">
        <ele>1187.473</ele>
        <time>2021-03-06T14:21:56Z</time>
      </trkpt>
      <trkpt lat="42.76654" lon="1.54388">
        <ele>1188.549</ele>
        <time>2021-03-06T14:21:58Z</time>
      </trkpt>
      <trkpt lat="42.76656" lon="1.54387">
        <ele>1186.927</ele>
        <time>2021-03-06T14:22:00Z</time>
      </trkpt>
      <trkpt lat="42.76658" lon="1.54386">
        <ele>1184.804</ele>
        <time>2021-03-06T14:22:02Z</time>
      </trkpt>
      <trkpt lat="42.7666" lon="1.54385">
        <ele>1183.575</ele>
        <time>2021-03-06T14:22:04Z</time>
      </trkpt>
      <trkpt lat="42.76662" lon="1.54384">
        <ele>1182.683</ele>
        <time>2021-03-06T14:22:06Z</time>
      </trkpt>
      <trkpt lat="42.76665" lon="1.54384">
        <ele>1182.606</ele>
        <time>2021-03-06T14:22:08Z</time>
      </trkpt>
      <trkpt lat="42.76668" lon="1.54384">
        <ele>1182.598</ele>
        <time>2021-03-06T14:22:10Z</time>
      </trkpt>
      <trkpt lat="42.7667" lon="1.54384">
        <ele>1181.362</ele>
        <time>2021-03-06T14:22:12Z</time>
      </trkpt>
      <trkpt lat="42.76673" lon="1.54384">
        <ele>1180.232</ele>
        <time>2021-03-06T14:22:14Z</time>
      </trkpt>
      <trkpt lat="42.76675" lon="1.54383">
        <ele>1178.632</ele>
        <time>2021-03-06T14:22:16Z</time>
      </trkpt>
      <trkpt lat="42.76678" lon="1.54383">
        <ele>1177.393</ele>
        <time>2021-03-06T14:22:18Z</time>
      </trkpt>
      <trkpt lat="42.7668" lon="1.54383">
        <ele>1176.812</ele>
        <time>2021-03-06T14:22:20Z</time>
      </trkpt>
      <trkpt lat="42.76682" lon="1.54384">
        <ele>1175.148</ele>
        <time>2021-03-06T14:22:22Z</time>
      </trkpt>
      <trkpt lat="42.76684" lon="1.54383">
        <ele>1173.424</ele>
        <time>2021-03-06T14:22:24Z</time>
      </trkpt>
      <trkpt lat="42.76687" lon="1.54383">
        <ele>1172.876</ele>
        <time>2021-03-06T14:22:26Z</time>
      </trkpt>
      <trkpt lat="42.76689" lon="1.54382">
        <ele>1171.224</ele>
        <time>2021-03-06T14:22:28Z</time>
      </trkpt>
      <trkpt lat="42.76691" lon="1.54382">
        <ele>1171.923</ele>
        <time>2021-03-06T14:22:30Z</time>
      </trkpt>
      <trkpt lat="42.76693" lon="1.54381">
        <ele>1171.786</ele>
        <time>2021-03-06T14:22:32Z</time>
      </trkpt>
      <trkpt lat="42.76694" lon="1.5438">
        <ele>1171.897</ele>
        <time>2021-03-06T14:22:34Z</time>
      </trkpt>
      <trkpt lat="42.76694" lon="1.5438">
        <ele>1171.893</ele>
        <time>2021-03-06T14:22:36Z</time>
      </trkpt>
      <trkpt lat="42.76694" lon="1.5438">
        <ele>1171.887</ele>
        <time>2021-03-06T14:22:38Z</time>
      </trkpt>
      <trkpt lat="42.76694" lon="1.5438">
        <ele>1171.883</ele>
        <time>2021-03-06T14:22:40Z</time>
      </trkpt>
      <trkpt lat="42.76694" lon="1.5438">
        <ele>1171.877</ele>
        <time>2021-03-06T14:22:42Z</time>
      </trkpt>
      <trkpt lat="42.76694" lon="1.5438">
        <ele>1171.796</ele>
        <time>2021-03-06T14:22:44Z</time>
      </trkpt>
      <trkpt lat="42.76694" lon="1.5438">
        <ele>1171.831</ele>
        <time>2021-03-06T14:22:46Z</time>
      </trkpt>
      <trkpt lat="42.76694" lon="1.5438">
        <ele>1171.836</ele>
        <time>2021-03-06T14:22:48Z</time>
      </trkpt>
      <trkpt lat="42.76694" lon="1.5438">
        <ele>1171.844</ele>
        <time>2021-03-06T14:22:50Z</time>
      </trkpt>
      <trkpt lat="42.76694" lon="1.5438">
        <ele>1171.846</ele>
        <time>2021-03-06T14:22:52Z</time>
      </trkpt>
      <trkpt lat="42.76694" lon="1.5438">
        <ele>1171.843</ele>
        <time>2021-03-06T14:22:54Z</time>
      </trkpt>
      <trkpt lat="42.76694" lon="1.5438">
        <ele>1171.849</ele>
        <time>2021-03-06T14:22:56Z</time>
      </trkpt>
      <trkpt lat="42.76694" lon="1.5438">
        <ele>1171.851</ele>
        <time>2021-03-06T14:22:58Z</time>
      </trkpt>
      <trkpt lat="42.76695" lon="1.5438">
        <ele>1172.205</ele>
        <time>2021-03-06T14:23:00Z</time>
      </trkpt>
      <trkpt lat="42.76696" lon="1.5438">
        <ele>1172.093</ele>
        <time>2021-03-06T14:23:02Z</time>
      </trkpt>
      <trkpt lat="42.76696" lon="1.5438">
        <ele>1172.102</ele>
        <time>2021-03-06T14:23:04Z</time>
      </trkpt>
      <trkpt lat="42.76696" lon="1.5438">
        <ele>1172.089</ele>
        <time>2021-03-06T14:23:06Z</time>
      </trkpt>
      <trkpt lat="42.76697" lon="1.54379">
        <ele>1172.064</ele>
        <time>2021-03-06T14:23:08Z</time>
      </trkpt>
      <trkpt lat="42.76697" lon="1.54378">
        <ele>1171.782</ele>
        <time>2021-03-06T14:23:10Z</time>
      </trkpt>
      <trkpt lat="42.76698" lon="1.54378">
        <ele>1172.592</ele>
        <time>2021-03-06T14:23:12Z</time>
      </trkpt>
      <trkpt lat="42.76698" lon="1.54377">
        <ele>1172.664</ele>
        <time>2021-03-06T14:23:14Z</time>
      </trkpt>
      <trkpt lat="42.76698" lon="1.54377">
        <ele>1172.657</ele>
        <time>2021-03-06T14:23:16Z</time>
      </trkpt>
      <trkpt lat="42.76698" lon="1.54377">
        <ele>1172.655</ele>
        <time>2021-03-06T14:23:18Z</time>
      </trkpt>
      <trkpt lat="42.76698" lon="1.54377">
        <ele>1172.217</ele>
        <time>2021-03-06T14:23:20Z</time>
      </trkpt>
      <trkpt lat="42.76698" lon="1.54377">
        <ele>1172.214</ele>
        <time>2021-03-06T14:23:22Z</time>
      </trkpt>
      <trkpt lat="42.76698" lon="1.54377">
        <ele>1172.22</ele>
        <time>2021-03-06T14:23:24Z</time>
      </trkpt>
      <trkpt lat="42.76698" lon="1.54377">
        <ele>1172.232</ele>
        <time>2021-03-06T14:23:26Z</time>
      </trkpt>
      <trkpt lat="42.76698" lon="1.54377">
        <ele>1172.239</ele>
        <time>2021-03-06T14:23:28Z</time>
      </trkpt>
      <trkpt lat="42.76698" lon="1.54377">
        <ele>1172.251</ele>
        <time>2021-03-06T14:23:30Z</time>
      </trkpt>
      <trkpt lat="42.76698" lon="1.54377">
        <ele>1172.266</ele>
        <time>2021-03-06T14:23:32Z</time>
      </trkpt>
      <trkpt lat="42.76698" lon="1.54377">
        <ele>1172.271</ele>
        <time>2021-03-06T14:23:34Z</time>
      </trkpt>
      <trkpt lat="42.76698" lon="1.54377">
        <ele>1172.273</ele>
        <time>2021-03-06T14:23:36Z</time>
      </trkpt>
      <trkpt lat="42.76698" lon="1.54377">
        <ele>1172.81</ele>
        <time>2021-03-06T14:23:38Z</time>
      </trkpt>
      <trkpt lat="42.76699" lon="1.54377">
        <ele>1172.793</ele>
        <time>2021-03-06T14:23:40Z</time>
      </trkpt>
      <trkpt lat="42.76699" lon="1.54377">
        <ele>1172.79</ele>
        <time>2021-03-06T14:23:42Z</time>
      </trkpt>
      <trkpt lat="42.76699" lon="1.54377">
        <ele>1172.788</ele>
        <time>2021-03-06T14:23:44Z</time>
      </trkpt>
      <trkpt lat="42.76699" lon="1.54378">
        <ele>1173.137</ele>
        <time>2021-03-06T14:23:46Z</time>
      </trkpt>
      <trkpt lat="42.76699" lon="1.54378">
        <ele>1173.562</ele>
        <time>2021-03-06T14:23:48Z</time>
      </trkpt>
      <trkpt lat="42.76702" lon="1.54375">
        <ele>1171.535</ele>
        <time>2021-03-06T14:23:50Z</time>
      </trkpt>
      <trkpt lat="42.76702" lon="1.54374">
        <ele>1171.846</ele>
        <time>2021-03-06T14:23:52Z</time>
      </trkpt>
      <trkpt lat="42.76702" lon="1.54374">
        <ele>1171.845</ele>
        <time>2021-03-06T14:23:54Z</time>
      </trkpt>
      <trkpt lat="42.76704" lon="1.54374">
        <ele>1172.139</ele>
        <time>2021-03-06T14:23:56Z</time>
      </trkpt>
      <trkpt lat="42.76706" lon="1.54376">
        <ele>1171.074</ele>
        <time>2021-03-06T14:23:58Z</time>
      </trkpt>
      <trkpt lat="42.76708" lon="1.54377">
        <ele>1171.044</ele>
        <time>2021-03-06T14:24:00Z</time>
      </trkpt>
      <trkpt lat="42.7671" lon="1.54379">
        <ele>1171.957</ele>
        <time>2021-03-06T14:24:02Z</time>
      </trkpt>
      <trkpt lat="42.76713" lon="1.54379">
        <ele>1172.123</ele>
        <time>2021-03-06T14:24:04Z</time>
      </trkpt>
      <trkpt lat="42.76715" lon="1.5438">
        <ele>1172.611</ele>
        <time>2021-03-06T14:24:06Z</time>
      </trkpt>
      <trkpt lat="42.76718" lon="1.54381">
        <ele>1171.556</ele>
        <time>2021-03-06T14:24:08Z</time>
      </trkpt>
      <trkpt lat="42.7672" lon="1.54381">
        <ele>1171.418</ele>
        <time>2021-03-06T14:24:10Z</time>
      </trkpt>
      <trkpt lat="42.76723" lon="1.54383">
        <ele>1171.611</ele>
        <time>2021-03-06T14:24:12Z</time>
      </trkpt>
      <trkpt lat="42.76725" lon="1.54384">
        <ele>1171.158</ele>
        <time>2021-03-06T14:24:14Z</time>
      </trkpt>
      <trkpt lat="42.76728" lon="1.54385">
        <ele>1171.302</ele>
        <time>2021-03-06T14:24:16Z</time>
      </trkpt>
      <trkpt lat="42.76729" lon="1.54385">
        <ele>1169.512</ele>
        <time>2021-03-06T14:24:18Z</time>
      </trkpt>
      <trkpt lat="42.76731" lon="1.54386">
        <ele>1168.896</ele>
        <time>2021-03-06T14:24:20Z</time>
      </trkpt>
      <trkpt lat="42.76733" lon="1.54386">
        <ele>1168.137</ele>
        <time>2021-03-06T14:24:22Z</time>
      </trkpt>
      <trkpt lat="42.76736" lon="1.54387">
        <ele>1167.227</ele>
        <time>2021-03-06T14:24:24Z</time>
      </trkpt>
      <trkpt lat="42.76738" lon="1.54389">
        <ele>1165.867</ele>
        <time>2021-03-06T14:24:26Z</time>
      </trkpt>
      <trkpt lat="42.7674" lon="1.5439">
        <ele>1165.146</ele>
        <time>2021-03-06T14:24:28Z</time>
      </trkpt>
      <trkpt lat="42.76743" lon="1.54391">
        <ele>1164.365</ele>
        <time>2021-03-06T14:24:30Z</time>
      </trkpt>
      <trkpt lat="42.76745" lon="1.54392">
        <ele>1163.428</ele>
        <time>2021-03-06T14:24:32Z</time>
      </trkpt>
      <trkpt lat="42.76747" lon="1.54394">
        <ele>1163.125</ele>
        <time>2021-03-06T14:24:34Z</time>
      </trkpt>
      <trkpt lat="42.7675" lon="1.54396">
        <ele>1163.001</ele>
        <time>2021-03-06T14:24:36Z</time>
      </trkpt>
      <trkpt lat="42.76752" lon="1.54397">
        <ele>1161.863</ele>
        <time>2021-03-06T14:24:38Z</time>
      </trkpt>
      <trkpt lat="42.76754" lon="1.54399">
        <ele>1161.449</ele>
        <time>2021-03-06T14:24:40Z</time>
      </trkpt>
      <trkpt lat="42.76756" lon="1.544">
        <ele>1160.293</ele>
        <time>2021-03-06T14:24:42Z</time>
      </trkpt>
      <trkpt lat="42.76758" lon="1.54402">
        <ele>1160.232</ele>
        <time>2021-03-06T14:24:44Z</time>
      </trkpt>
      <trkpt lat="42.76761" lon="1.54404">
        <ele>1158.065</ele>
        <time>2021-03-06T14:24:46Z</time>
      </trkpt>
      <trkpt lat="42.76763" lon="1.54405">
        <ele>1157.915</ele>
        <time>2021-03-06T14:24:48Z</time>
      </trkpt>
      <trkpt lat="42.76766" lon="1.54406">
        <ele>1156.928</ele>
        <time>2021-03-06T14:24:50Z</time>
      </trkpt>
      <trkpt lat="42.76768" lon="1.54409">
        <ele>1156.018</ele>
        <time>2021-03-06T14:24:52Z</time>
      </trkpt>
      <trkpt lat="42.76771" lon="1.54411">
        <ele>1155.463</ele>
        <time>2021-03-06T14:24:54Z</time>
      </trkpt>
      <trkpt lat="42.76773" lon="1.54414">
        <ele>1155.164</ele>
        <time>2021-03-06T14:24:56Z</time>
      </trkpt>
      <trkpt lat="42.76775" lon="1.54416">
        <ele>1154.413</ele>
        <time>2021-03-06T14:24:58Z</time>
      </trkpt>
      <trkpt lat="42.76778" lon="1.54418">
        <ele>1153.203</ele>
        <time>2021-03-06T14:25:00Z</time>
      </trkpt>
      <trkpt lat="42.7678" lon="1.5442">
        <ele>1154.159</ele>
        <time>2021-03-06T14:25:02Z</time>
      </trkpt>
      <trkpt lat="42.76783" lon="1.54422">
        <ele>1153.793</ele>
        <time>2021-03-06T14:25:04Z</time>
      </trkpt>
      <trkpt lat="42.76785" lon="1.54423">
        <ele>1152.936</ele>
        <time>2021-03-06T14:25:06Z</time>
      </trkpt>
      <trkpt lat="42.76787" lon="1.54425">
        <ele>1152.806</ele>
        <time>2021-03-06T14:25:08Z</time>
      </trkpt>
      <trkpt lat="42.7679" lon="1.54426">
        <ele>1153.053</ele>
        <time>2021-03-06T14:25:10Z</time>
      </trkpt>
      <trkpt lat="42.76792" lon="1.54428">
        <ele>1152.761</ele>
        <time>2021-03-06T14:25:12Z</time>
      </trkpt>
      <trkpt lat="42.76795" lon="1.5443">
        <ele>1152.133</ele>
        <time>2021-03-06T14:25:14Z</time>
      </trkpt>
      <trkpt lat="42.76797" lon="1.54431">
        <ele>1151.728</ele>
        <time>2021-03-06T14:25:16Z</time>
      </trkpt>
      <trkpt lat="42.768" lon="1.54432">
        <ele>1151.393</ele>
        <time>2021-03-06T14:25:18Z</time>
      </trkpt>
      <trkpt lat="42.76802" lon="1.54433">
        <ele>1150.352</ele>
        <time>2021-03-06T14:25:20Z</time>
      </trkpt>
      <trkpt lat="42.76805" lon="1.54435">
        <ele>1151.244</ele>
        <time>2021-03-06T14:25:22Z</time>
      </trkpt>
      <trkpt lat="42.76807" lon="1.54436">
        <ele>1151.185</ele>
        <time>2021-03-06T14:25:24Z</time>
      </trkpt>
      <trkpt lat="42.7681" lon="1.54438">
        <ele>1150.035</ele>
        <time>2021-03-06T14:25:26Z</time>
      </trkpt>
      <trkpt lat="42.76813" lon="1.54439">
        <ele>1149.333</ele>
        <time>2021-03-06T14:25:28Z</time>
      </trkpt>
      <trkpt lat="42.76815" lon="1.5444">
        <ele>1148.059</ele>
        <time>2021-03-06T14:25:30Z</time>
      </trkpt>
      <trkpt lat="42.76818" lon="1.5444">
        <ele>1148.645</ele>
        <time>2021-03-06T14:25:32Z</time>
      </trkpt>
      <trkpt lat="42.7682" lon="1.5444">
        <ele>1147.384</ele>
        <time>2021-03-06T14:25:34Z</time>
      </trkpt>
      <trkpt lat="42.76822" lon="1.54441">
        <ele>1145.395</ele>
        <time>2021-03-06T14:25:36Z</time>
      </trkpt>
      <trkpt lat="42.76825" lon="1.54442">
        <ele>1144.822</ele>
        <time>2021-03-06T14:25:38Z</time>
      </trkpt>
      <trkpt lat="42.76828" lon="1.54442">
        <ele>1144.149</ele>
        <time>2021-03-06T14:25:40Z</time>
      </trkpt>
      <trkpt lat="42.7683" lon="1.54443">
        <ele>1144.109</ele>
        <time>2021-03-06T14:25:42Z</time>
      </trkpt>
      <trkpt lat="42.76833" lon="1.54443">
        <ele>1144.223</ele>
        <time>2021-03-06T14:25:44Z</time>
      </trkpt>
      <trkpt lat="42.76836" lon="1.54443">
        <ele>1142.995</ele>
        <time>2021-03-06T14:25:46Z</time>
      </trkpt>
      <trkpt lat="42.76839" lon="1.54443">
        <ele>1142.614</ele>
        <time>2021-03-06T14:25:48Z</time>
      </trkpt>
      <trkpt lat="42.76842" lon="1.54443">
        <ele>1142.826</ele>
        <time>2021-03-06T14:25:50Z</time>
      </trkpt>
      <trkpt lat="42.76845" lon="1.54442">
        <ele>1144.54</ele>
        <time>2021-03-06T14:25:52Z</time>
      </trkpt>
      <trkpt lat="42.76848" lon="1.54441">
        <ele>1142.845</ele>
        <time>2021-03-06T14:25:54Z</time>
      </trkpt>
      <trkpt lat="42.7685" lon="1.5444">
        <ele>1143.251</ele>
        <time>2021-03-06T14:25:56Z</time>
      </trkpt>
      <trkpt lat="42.76853" lon="1.54438">
        <ele>1142.271</ele>
        <time>2021-03-06T14:25:58Z</time>
      </trkpt>
      <trkpt lat="42.76854" lon="1.54436">
        <ele>1140.928</ele>
        <time>2021-03-06T14:26:00Z</time>
      </trkpt>
      <trkpt lat="42.76857" lon="1.54435">
        <ele>1141.27</ele>
        <time>2021-03-06T14:26:02Z</time>
      </trkpt>
      <trkpt lat="42.76861" lon="1.54434">
        <ele>1144.143</ele>
        <time>2021-03-06T14:26:04Z</time>
      </trkpt>
      <trkpt lat="42.76864" lon="1.54433">
        <ele>1142.907</ele>
        <time>2021-03-06T14:26:06Z</time>
      </trkpt>
      <trkpt lat="42.76868" lon="1.54432">
        <ele>1142.24</ele>
        <time>2021-03-06T14:26:08Z</time>
      </trkpt>
      <trkpt lat="42.76871" lon="1.5443">
        <ele>1142.139</ele>
        <time>2021-03-06T14:26:10Z</time>
      </trkpt>
      <trkpt lat="42.76874" lon="1.54428">
        <ele>1140.524</ele>
        <time>2021-03-06T14:26:12Z</time>
      </trkpt>
      <trkpt lat="42.76877" lon="1.54427">
        <ele>1139.77</ele>
        <time>2021-03-06T14:26:14Z</time>
      </trkpt>
      <trkpt lat="42.7688" lon="1.54425">
        <ele>1140.277</ele>
        <time>2021-03-06T14:26:16Z</time>
      </trkpt>
      <trkpt lat="42.76883" lon="1.54425">
        <ele>1141.139</ele>
        <time>2021-03-06T14:26:18Z</time>
      </trkpt>
      <trkpt lat="42.76886" lon="1.54425">
        <ele>1140.515</ele>
        <time>2021-03-06T14:26:20Z</time>
      </trkpt>
      <trkpt lat="42.76889" lon="1.54425">
        <ele>1141.713</ele>
        <time>2021-03-06T14:26:22Z</time>
      </trkpt>
      <trkpt lat="42.76892" lon="1.54425">
        <ele>1141.804</ele>
        <time>2021-03-06T14:26:24Z</time>
      </trkpt>
      <trkpt lat="42.76895" lon="1.54424">
        <ele>1140.797</ele>
        <time>2021-03-06T14:26:26Z</time>
      </trkpt>
      <trkpt lat="42.76898" lon="1.54423">
        <ele>1141.148</ele>
        <time>2021-03-06T14:26:28Z</time>
      </trkpt>
      <trkpt lat="42.76901" lon="1.54423">
        <ele>1142.154</ele>
        <time>2021-03-06T14:26:30Z</time>
      </trkpt>
      <trkpt lat="42.76904" lon="1.54423">
        <ele>1143.751</ele>
        <time>2021-03-06T14:26:32Z</time>
      </trkpt>
      <trkpt lat="42.76908" lon="1.54423">
        <ele>1145.376</ele>
        <time>2021-03-06T14:26:34Z</time>
      </trkpt>
      <trkpt lat="42.76911" lon="1.54422">
        <ele>1145.392</ele>
        <time>2021-03-06T14:26:36Z</time>
      </trkpt>
      <trkpt lat="42.76914" lon="1.54423">
        <ele>1147.065</ele>
        <time>2021-03-06T14:26:38Z</time>
      </trkpt>
      <trkpt lat="42.76917" lon="1.54423">
        <ele>1148.128</ele>
        <time>2021-03-06T14:26:40Z</time>
      </trkpt>
      <trkpt lat="42.7692" lon="1.54424">
        <ele>1149.246</ele>
        <time>2021-03-06T14:26:42Z</time>
      </trkpt>
      <trkpt lat="42.76924" lon="1.54424">
        <ele>1150.051</ele>
        <time>2021-03-06T14:26:44Z</time>
      </trkpt>
      <trkpt lat="42.76928" lon="1.54424">
        <ele>1150.171</ele>
        <time>2021-03-06T14:26:46Z</time>
      </trkpt>
      <trkpt lat="42.76931" lon="1.54424">
        <ele>1149.432</ele>
        <time>2021-03-06T14:26:48Z</time>
      </trkpt>
      <trkpt lat="42.76935" lon="1.54424">
        <ele>1150.56</ele>
        <time>2021-03-06T14:26:50Z</time>
      </trkpt>
      <trkpt lat="42.76938" lon="1.54425">
        <ele>1151.072</ele>
        <time>2021-03-06T14:26:52Z</time>
      </trkpt>
      <trkpt lat="42.76942" lon="1.54425">
        <ele>1150.114</ele>
        <time>2021-03-06T14:26:54Z</time>
      </trkpt>
      <trkpt lat="42.76945" lon="1.54426">
        <ele>1149.382</ele>
        <time>2021-03-06T14:26:56Z</time>
      </trkpt>
      <trkpt lat="42.76948" lon="1.54426">
        <ele>1148.896</ele>
        <time>2021-03-06T14:26:58Z</time>
      </trkpt>
      <trkpt lat="42.76951" lon="1.54427">
        <ele>1148.917</ele>
        <time>2021-03-06T14:27:00Z</time>
      </trkpt>
      <trkpt lat="42.76954" lon="1.54428">
        <ele>1148.824</ele>
        <time>2021-03-06T14:27:02Z</time>
      </trkpt>
      <trkpt lat="42.76957" lon="1.54429">
        <ele>1148.661</ele>
        <time>2021-03-06T14:27:04Z</time>
      </trkpt>
      <trkpt lat="42.7696" lon="1.5443">
        <ele>1150.008</ele>
        <time>2021-03-06T14:27:06Z</time>
      </trkpt>
      <trkpt lat="42.76963" lon="1.5443">
        <ele>1150.862</ele>
        <time>2021-03-06T14:27:08Z</time>
      </trkpt>
      <trkpt lat="42.76967" lon="1.54431">
        <ele>1151.756</ele>
        <time>2021-03-06T14:27:10Z</time>
      </trkpt>
      <trkpt lat="42.7697" lon="1.54432">
        <ele>1151.583</ele>
        <time>2021-03-06T14:27:12Z</time>
      </trkpt>
      <trkpt lat="42.76973" lon="1.54434">
        <ele>1151.536</ele>
        <time>2021-03-06T14:27:14Z</time>
      </trkpt>
      <trkpt lat="42.76976" lon="1.54434">
        <ele>1150.909</ele>
        <time>2021-03-06T14:27:16Z</time>
      </trkpt>
      <trkpt lat="42.76979" lon="1.54435">
        <ele>1150.68</ele>
        <time>2021-03-06T14:27:18Z</time>
      </trkpt>
      <trkpt lat="42.76982" lon="1.54435">
        <ele>1150.139</ele>
        <time>2021-03-06T14:27:20Z</time>
      </trkpt>
      <trkpt lat="42.76985" lon="1.54436">
        <ele>1149.605</ele>
        <time>2021-03-06T14:27:22Z</time>
      </trkpt>
      <trkpt lat="42.76988" lon="1.54437">
        <ele>1147.471</ele>
        <time>2021-03-06T14:27:24Z</time>
      </trkpt>
      <trkpt lat="42.7699" lon="1.54438">
        <ele>1147.19</ele>
        <time>2021-03-06T14:27:26Z</time>
      </trkpt>
      <trkpt lat="42.76993" lon="1.54439">
        <ele>1147.95</ele>
        <time>2021-03-06T14:27:28Z</time>
      </trkpt>
      <trkpt lat="42.76995" lon="1.5444">
        <ele>1147.126</ele>
        <time>2021-03-06T14:27:30Z</time>
      </trkpt>
      <trkpt lat="42.76998" lon="1.54441">
        <ele>1146.492</ele>
        <time>2021-03-06T14:27:32Z</time>
      </trkpt>
      <trkpt lat="42.77" lon="1.54442">
        <ele>1146.003</ele>
        <time>2021-03-06T14:27:34Z</time>
      </trkpt>
      <trkpt lat="42.77003" lon="1.54444">
        <ele>1146.29</ele>
        <time>2021-03-06T14:27:36Z</time>
      </trkpt>
      <trkpt lat="42.77005" lon="1.54446">
        <ele>1145.588</ele>
        <time>2021-03-06T14:27:38Z</time>
      </trkpt>
      <trkpt lat="42.77008" lon="1.54448">
        <ele>1145.946</ele>
        <time>2021-03-06T14:27:40Z</time>
      </trkpt>
      <trkpt lat="42.77011" lon="1.54451">
        <ele>1147.817</ele>
        <time>2021-03-06T14:27:42Z</time>
      </trkpt>
      <trkpt lat="42.77014" lon="1.54453">
        <ele>1150.754</ele>
        <time>2021-03-06T14:27:44Z</time>
      </trkpt>
      <trkpt lat="42.77016" lon="1.54456">
        <ele>1153.777</ele>
        <time>2021-03-06T14:27:46Z</time>
      </trkpt>
      <trkpt lat="42.77017" lon="1.54455">
        <ele>1152.277</ele>
        <time>2021-03-06T14:27:48Z</time>
      </trkpt>
      <trkpt lat="42.77017" lon="1.54455">
        <ele>1152.256</ele>
        <time>2021-03-06T14:27:50Z</time>
      </trkpt>
      <trkpt lat="42.77017" lon="1.54455">
        <ele>1152.255</ele>
        <time>2021-03-06T14:27:52Z</time>
      </trkpt>
      <trkpt lat="42.77016" lon="1.54454">
        <ele>1151.423</ele>
        <time>2021-03-06T14:27:54Z</time>
      </trkpt>
      <trkpt lat="42.77015" lon="1.54454">
        <ele>1151.45</ele>
        <time>2021-03-06T14:27:56Z</time>
      </trkpt>
      <trkpt lat="42.77015" lon="1.54454">
        <ele>1150.854</ele>
        <time>2021-03-06T14:27:58Z</time>
      </trkpt>
      <trkpt lat="42.77016" lon="1.54454">
        <ele>1151.986</ele>
        <time>2021-03-06T14:28:00Z</time>
      </trkpt>
      <trkpt lat="42.77018" lon="1.54449">
        <ele>1151.67</ele>
        <time>2021-03-06T14:28:02Z</time>
      </trkpt>
      <trkpt lat="42.77013" lon="1.54448">
        <ele>1150.875</ele>
        <time>2021-03-06T14:28:04Z</time>
      </trkpt>
      <trkpt lat="42.77013" lon="1.54452">
        <ele>1150.926</ele>
        <time>2021-03-06T14:28:06Z</time>
      </trkpt>
      <trkpt lat="42.77012" lon="1.54455">
        <ele>1151.84</ele>
        <time>2021-03-06T14:28:08Z</time>
      </trkpt>
      <trkpt lat="42.7701" lon="1.54455">
        <ele>1151.456</ele>
        <time>2021-03-06T14:28:10Z</time>
      </trkpt>
      <trkpt lat="42.77009" lon="1.54453">
        <ele>1150.17</ele>
        <time>2021-03-06T14:28:12Z</time>
      </trkpt>
      <trkpt lat="42.77008" lon="1.54451">
        <ele>1147.031</ele>
        <time>2021-03-06T14:28:14Z</time>
      </trkpt>
      <trkpt lat="42.77008" lon="1.54451">
        <ele>1146.816</ele>
        <time>2021-03-06T14:28:16Z</time>
      </trkpt>
      <trkpt lat="42.77008" lon="1.54451">
        <ele>1146.818</ele>
        <time>2021-03-06T14:28:18Z</time>
      </trkpt>
      <trkpt lat="42.77008" lon="1.54451">
        <ele>1146.817</ele>
        <time>2021-03-06T14:28:20Z</time>
      </trkpt>
      <trkpt lat="42.77008" lon="1.54451">
        <ele>1146.84</ele>
        <time>2021-03-06T14:28:22Z</time>
      </trkpt>
      <trkpt lat="42.77008" lon="1.5445">
        <ele>1145.482</ele>
        <time>2021-03-06T14:28:24Z</time>
      </trkpt>
      <trkpt lat="42.77008" lon="1.5445">
        <ele>1145.48</ele>
        <time>2021-03-06T14:28:26Z</time>
      </trkpt>
      <trkpt lat="42.77009" lon="1.54451">
        <ele>1146.05</ele>
        <time>2021-03-06T14:28:28Z</time>
      </trkpt>
      <trkpt lat="42.7701" lon="1.54448">
        <ele>1145.321</ele>
        <time>2021-03-06T14:28:30Z</time>
      </trkpt>
      <trkpt lat="42.7701" lon="1.54446">
        <ele>1143.682</ele>
        <time>2021-03-06T14:28:32Z</time>
      </trkpt>
      <trkpt lat="42.7701" lon="1.54446">
        <ele>1143.664</ele>
        <time>2021-03-06T14:28:34Z</time>
      </trkpt>
      <trkpt lat="42.7701" lon="1.54446">
        <ele>1143.655</ele>
        <time>2021-03-06T14:28:36Z</time>
      </trkpt>
      <trkpt lat="42.7701" lon="1.54446">
        <ele>1144.145</ele>
        <time>2021-03-06T14:28:38Z</time>
      </trkpt>
      <trkpt lat="42.77011" lon="1.54446">
        <ele>1144.924</ele>
        <time>2021-03-06T14:28:40Z</time>
      </trkpt>
      <trkpt lat="42.77011" lon="1.54446">
        <ele>1144.931</ele>
        <time>2021-03-06T14:28:42Z</time>
      </trkpt>
      <trkpt lat="42.77011" lon="1.54446">
        <ele>1144.925</ele>
        <time>2021-03-06T14:28:44Z</time>
      </trkpt>
      <trkpt lat="42.77011" lon="1.54445">
        <ele>1145.156</ele>
        <time>2021-03-06T14:28:46Z</time>
      </trkpt>
      <trkpt lat="42.77011" lon="1.54445">
        <ele>1145.161</ele>
        <time>2021-03-06T14:28:48Z</time>
      </trkpt>
      <trkpt lat="42.77013" lon="1.54446">
        <ele>1145.907</ele>
        <time>2021-03-06T14:28:50Z</time>
      </trkpt>
      <trkpt lat="42.77014" lon="1.54446">
        <ele>1145.806</ele>
        <time>2021-03-06T14:28:52Z</time>
      </trkpt>
      <trkpt lat="42.77014" lon="1.54446">
        <ele>1145.806</ele>
        <time>2021-03-06T14:28:54Z</time>
      </trkpt>
      <trkpt lat="42.77014" lon="1.54446">
        <ele>1145.817</ele>
        <time>2021-03-06T14:28:56Z</time>
      </trkpt>
      <trkpt lat="42.77014" lon="1.54447">
        <ele>1145.652</ele>
        <time>2021-03-06T14:28:58Z</time>
      </trkpt>
      <trkpt lat="42.77014" lon="1.54447">
        <ele>1145.559</ele>
        <time>2021-03-06T14:29:00Z</time>
      </trkpt>
      <trkpt lat="42.77014" lon="1.54447">
        <ele>1145.545</ele>
        <time>2021-03-06T14:29:02Z</time>
      </trkpt>
      <trkpt lat="42.77014" lon="1.54447">
        <ele>1145.519</ele>
        <time>2021-03-06T14:29:04Z</time>
      </trkpt>
      <trkpt lat="42.77014" lon="1.54447">
        <ele>1145.506</ele>
        <time>2021-03-06T14:29:06Z</time>
      </trkpt>
      <trkpt lat="42.77014" lon="1.54447">
        <ele>1145.502</ele>
        <time>2021-03-06T14:29:08Z</time>
      </trkpt>
      <trkpt lat="42.77014" lon="1.54446">
        <ele>1144.247</ele>
        <time>2021-03-06T14:29:10Z</time>
      </trkpt>
      <trkpt lat="42.77014" lon="1.54446">
        <ele>1144.234</ele>
        <time>2021-03-06T14:29:12Z</time>
      </trkpt>
      <trkpt lat="42.77015" lon="1.54447">
        <ele>1143.785</ele>
        <time>2021-03-06T14:29:14Z</time>
      </trkpt>
      <trkpt lat="42.77014" lon="1.54447">
        <ele>1142.909</ele>
        <time>2021-03-06T14:29:16Z</time>
      </trkpt>
      <trkpt lat="42.77013" lon="1.54448">
        <ele>1143.663</ele>
        <time>2021-03-06T14:29:18Z</time>
      </trkpt>
      <trkpt lat="42.77013" lon="1.54449">
        <ele>1143.859</ele>
        <time>2021-03-06T14:29:20Z</time>
      </trkpt>
      <trkpt lat="42.77014" lon="1.54449">
        <ele>1144.169</ele>
        <time>2021-03-06T14:29:22Z</time>
      </trkpt>
      <trkpt lat="42.77013" lon="1.54449">
        <ele>1144.1</ele>
        <time>2021-03-06T14:29:24Z</time>
      </trkpt>
      <trkpt lat="42.77013" lon="1.54449">
        <ele>1144.101</ele>
        <time>2021-03-06T14:29:26Z</time>
      </trkpt>
      <trkpt lat="42.77014" lon="1.54449">
        <ele>1144.041</ele>
        <time>2021-03-06T14:29:28Z</time>
      </trkpt>
      <trkpt lat="42.77014" lon="1.54449">
        <ele>1144.218</ele>
        <time>2021-03-06T14:29:30Z</time>
      </trkpt>
      <trkpt lat="42.77014" lon="1.54449">
        <ele>1144.202</ele>
        <time>2021-03-06T14:29:32Z</time>
      </trkpt>
      <trkpt lat="42.77014" lon="1.54449">
        <ele>1143.461</ele>
        <time>2021-03-06T14:29:34Z</time>
      </trkpt>
      <trkpt lat="42.77014" lon="1.54449">
        <ele>1143.471</ele>
        <time>2021-03-06T14:29:36Z</time>
      </trkpt>
      <trkpt lat="42.77014" lon="1.5445">
        <ele>1142.963</ele>
        <time>2021-03-06T14:29:38Z</time>
      </trkpt>
      <trkpt lat="42.77014" lon="1.54454">
        <ele>1142.859</ele>
        <time>2021-03-06T14:29:40Z</time>
      </trkpt>
      <trkpt lat="42.77018" lon="1.54451">
        <ele>1143.416</ele>
        <time>2021-03-06T14:29:42Z</time>
      </trkpt>
      <trkpt lat="42.77017" lon="1.54447">
        <ele>1142.06</ele>
        <time>2021-03-06T14:29:44Z</time>
      </trkpt>
      <trkpt lat="42.77018" lon="1.54446">
        <ele>1141.582</ele>
        <time>2021-03-06T14:29:46Z</time>
      </trkpt>
      <trkpt lat="42.77017" lon="1.54446">
        <ele>1142.649</ele>
        <time>2021-03-06T14:29:48Z</time>
      </trkpt>
      <trkpt lat="42.77016" lon="1.54446">
        <ele>1142.638</ele>
        <time>2021-03-06T14:29:50Z</time>
      </trkpt>
      <trkpt lat="42.77016" lon="1.54446">
        <ele>1141.971</ele>
        <time>2021-03-06T14:29:52Z</time>
      </trkpt>
      <trkpt lat="42.77016" lon="1.54445">
        <ele>1142.491</ele>
        <time>2021-03-06T14:29:54Z</time>
      </trkpt>
      <trkpt lat="42.77015" lon="1.54446">
        <ele>1142.399</ele>
        <time>2021-03-06T14:29:56Z</time>
      </trkpt>
      <trkpt lat="42.77015" lon="1.54446">
        <ele>1142.446</ele>
        <time>2021-03-06T14:29:58Z</time>
      </trkpt>
    </trkseg>
  </trk>
</gpx>